<?xml version='1.0' encoding='UTF-8'?><gpx version="1.1" creator="JPX - https://github.com/jenetics/jpx" xmlns="http://www.topografix.com/GPX/1/1"><trk><trkseg><trkpt lat="43.917115462848784" lon="12.137426722929542"><ele>261.0</ele><time>2026-04-19T05:56:35.333Z</time></trkpt><trkpt lat="43.91692368718343" lon="12.137513874619891"><ele>261.0</ele><time>2026-04-19T05:59:38.603Z</time></trkpt><trkpt lat="43.91698752405567" lon="12.137442139381054"><ele>261.0</ele><time>2026-04-19T05:59:46Z</time></trkpt><trkpt lat="43.91702327759053" lon="12.13736833300692"><ele>261.0</ele><time>2026-04-19T05:59:53Z</time></trkpt><trkpt lat="43.917034514503435" lon="12.137460323800509"><ele>261.0</ele><time>2026-04-19T06:00:18Z</time></trkpt><trkpt lat="43.91700619919689" lon="12.137366610907735"><ele>262.6</ele><time>2026-04-19T06:00:24Z</time></trkpt><trkpt lat="43.917042885679976" lon="12.137276672129909"><ele>264.20000000000005</ele><time>2026-04-19T06:00:26Z</time></trkpt><trkpt lat="43.917103657094216" lon="12.1371773489432"><ele>265.79999999999995</ele><time>2026-04-19T06:00:28Z</time></trkpt><trkpt lat="43.917157476037495" lon="12.137056359174363"><ele>267.4</ele><time>2026-04-19T06:00:30Z</time></trkpt><trkpt lat="43.917214563902455" lon="12.13691483457017"><ele>269.0</ele><time>2026-04-19T06:00:32Z</time></trkpt><trkpt lat="43.917270631789634" lon="12.136765815365154"><ele>269.0</ele><time>2026-04-19T06:00:34Z</time></trkpt><trkpt lat="43.917296777838274" lon="12.136680799093117"><ele>269.0</ele><time>2026-04-19T06:00:35Z</time></trkpt><trkpt lat="43.91733333394811" lon="12.136515331437257"><ele>269.0</ele><time>2026-04-19T06:00:37Z</time></trkpt><trkpt lat="43.91735039469634" lon="12.13642846343012"><ele>269.0</ele><time>2026-04-19T06:00:38Z</time></trkpt><trkpt lat="43.91737503357953" lon="12.136272654323312"><ele>269.0</ele><time>2026-04-19T06:00:40Z</time></trkpt><trkpt lat="43.917395080798485" lon="12.1361418762065"><ele>269.6666666666667</ele><time>2026-04-19T06:00:42Z</time></trkpt><trkpt lat="43.91736343806674" lon="12.136047276416267"><ele>270.33333333333337</ele><time>2026-04-19T06:00:44Z</time></trkpt><trkpt lat="43.917285133795595" lon="12.136058502890677"><ele>271.0</ele><time>2026-04-19T06:00:46Z</time></trkpt><trkpt lat="43.91724490679994" lon="12.136136694801428"><ele>271.6666666666667</ele><time>2026-04-19T06:00:47Z</time></trkpt><trkpt lat="43.917226281729974" lon="12.136255522373206"><ele>272.3333333333333</ele><time>2026-04-19T06:00:48Z</time></trkpt><trkpt lat="43.917199190966876" lon="12.136371898059256"><ele>273.0</ele><time>2026-04-19T06:00:49Z</time></trkpt><trkpt lat="43.91716320100647" lon="12.136479873279532"><ele>272.2</ele><time>2026-04-19T06:00:50Z</time></trkpt><trkpt lat="43.917120955864114" lon="12.136578530989622"><ele>271.4</ele><time>2026-04-19T06:00:51Z</time></trkpt><trkpt lat="43.917061207129144" lon="12.13668079153538"><ele>270.59999999999997</ele><time>2026-04-19T06:00:52Z</time></trkpt><trkpt lat="43.91699802245255" lon="12.136781992624327"><ele>269.8</ele><time>2026-04-19T06:00:53Z</time></trkpt><trkpt lat="43.91693742229159" lon="12.136886307311343"><ele>269.0</ele><time>2026-04-19T06:00:54Z</time></trkpt><trkpt lat="43.91687357299518" lon="12.136980048812234"><ele>269.0</ele><time>2026-04-19T06:00:55Z</time></trkpt><trkpt lat="43.9167997777468" lon="12.137061299516702"><ele>269.0</ele><time>2026-04-19T06:00:56Z</time></trkpt><trkpt lat="43.91671696315621" lon="12.13713600970974"><ele>269.0</ele><time>2026-04-19T06:00:57Z</time></trkpt><trkpt lat="43.91663024970671" lon="12.137186210409237"><ele>269.0</ele><time>2026-04-19T06:00:58Z</time></trkpt><trkpt lat="43.916521493120136" lon="12.137159719875013"><ele>269.0</ele><time>2026-04-19T06:00:59Z</time></trkpt><trkpt lat="43.916426599771874" lon="12.137208223438224"><ele>265.5</ele><time>2026-04-19T06:01:00Z</time></trkpt><trkpt lat="43.916357842840924" lon="12.137264126332278"><ele>262.0</ele><time>2026-04-19T06:01:01Z</time></trkpt><trkpt lat="43.91627485081951" lon="12.137306553171133"><ele>258.5</ele><time>2026-04-19T06:01:02Z</time></trkpt><trkpt lat="43.916195402097415" lon="12.137358703718128"><ele>255.0</ele><time>2026-04-19T06:01:03Z</time></trkpt><trkpt lat="43.91615589665648" lon="12.1374782162841"><ele>251.50000000000003</ele><time>2026-04-19T06:01:04Z</time></trkpt><trkpt lat="43.916126362803176" lon="12.13759116457132"><ele>248.0</ele><time>2026-04-19T06:01:05Z</time></trkpt><trkpt lat="43.91609450032321" lon="12.137704990223972"><ele>248.0</ele><time>2026-04-19T06:01:06Z</time></trkpt><trkpt lat="43.91608675985462" lon="12.13781258444551"><ele>248.0</ele><time>2026-04-19T06:01:07Z</time></trkpt><trkpt lat="43.91607313585876" lon="12.137902430000752"><ele>248.0</ele><time>2026-04-19T06:01:08Z</time></trkpt><trkpt lat="43.91600112190592" lon="12.13801410030461"><ele>248.0</ele><time>2026-04-19T06:01:10Z</time></trkpt><trkpt lat="43.91600042149424" lon="12.13780657468521"><ele>248.0</ele><time>2026-04-19T06:01:15Z</time></trkpt><trkpt lat="43.91602478618156" lon="12.137678748275452"><ele>248.0</ele><time>2026-04-19T06:01:16Z</time></trkpt><trkpt lat="43.91602867020353" lon="12.137579732880054"><ele>248.0</ele><time>2026-04-19T06:01:17Z</time></trkpt><trkpt lat="43.91603682139692" lon="12.137423260913431"><ele>248.0</ele><time>2026-04-19T06:01:19Z</time></trkpt><trkpt lat="43.91600496376047" lon="12.137326747688949"><ele>248.0</ele><time>2026-04-19T06:01:21Z</time></trkpt><trkpt lat="43.915953297669745" lon="12.137218869440849"><ele>248.0</ele><time>2026-04-19T06:01:23Z</time></trkpt><trkpt lat="43.91585757908879" lon="12.137182160234786"><ele>245.66666666666669</ele><time>2026-04-19T06:01:25Z</time></trkpt><trkpt lat="43.91577571865955" lon="12.137277613055025"><ele>243.33333333333334</ele><time>2026-04-19T06:01:27Z</time></trkpt><trkpt lat="43.91573185312671" lon="12.137379970687114"><ele>241.0</ele><time>2026-04-19T06:01:29Z</time></trkpt><trkpt lat="43.91565030049932" lon="12.137410017151769"><ele>238.66666666666669</ele><time>2026-04-19T06:01:31Z</time></trkpt><trkpt lat="43.91558142516661" lon="12.137402016759701"><ele>236.33333333333334</ele><time>2026-04-19T06:01:33Z</time></trkpt><trkpt lat="43.91555964191218" lon="12.137309985579941"><ele>234.0</ele><time>2026-04-19T06:01:35Z</time></trkpt><trkpt lat="43.91551075064908" lon="12.137184850420738"><ele>234.0</ele><time>2026-04-19T06:01:37Z</time></trkpt><trkpt lat="43.915475863687384" lon="12.137041121618902"><ele>234.0</ele><time>2026-04-19T06:01:39Z</time></trkpt><trkpt lat="43.915441169388004" lon="12.13695546848831"><ele>234.0</ele><time>2026-04-19T06:01:40Z</time></trkpt><trkpt lat="43.91539797542521" lon="12.136842014100429"><ele>234.0</ele><time>2026-04-19T06:01:41Z</time></trkpt><trkpt lat="43.91537385987557" lon="12.136723376936027"><ele>234.0</ele><time>2026-04-19T06:01:42Z</time></trkpt><trkpt lat="43.91534737700295" lon="12.136614845530152"><ele>234.0</ele><time>2026-04-19T06:01:43Z</time></trkpt><trkpt lat="43.91531532549809" lon="12.136527770038601"><ele>238.0</ele><time>2026-04-19T06:01:44Z</time></trkpt><trkpt lat="43.9152793469751" lon="12.136441845508218"><ele>241.99999999999997</ele><time>2026-04-19T06:01:45Z</time></trkpt><trkpt lat="43.91522669668014" lon="12.136284970484343"><ele>245.99999999999997</ele><time>2026-04-19T06:01:47Z</time></trkpt><trkpt lat="43.91514713999166" lon="12.136203963612623"><ele>250.0</ele><time>2026-04-19T06:01:48Z</time></trkpt><trkpt lat="43.91513787666583" lon="12.136052352721396"><ele>254.0</ele><time>2026-04-19T06:01:50Z</time></trkpt><trkpt lat="43.91536736786163" lon="12.136011902412852"><ele>254.0</ele><time>2026-04-19T06:01:53Z</time></trkpt><trkpt lat="43.91545986943267" lon="12.136041274052051"><ele>253.99999999999997</ele><time>2026-04-19T06:01:55Z</time></trkpt><trkpt lat="43.91557477666702" lon="12.1360081252684"><ele>253.99999999999997</ele><time>2026-04-19T06:01:57Z</time></trkpt><trkpt lat="43.91564288816956" lon="12.135886115074083"><ele>254.0</ele><time>2026-04-19T06:01:59Z</time></trkpt><trkpt lat="43.91572929528916" lon="12.13579620804196"><ele>254.0</ele><time>2026-04-19T06:02:01Z</time></trkpt><trkpt lat="43.91579904368768" lon="12.135655880278392"><ele>256.0</ele><time>2026-04-19T06:02:03Z</time></trkpt><trkpt lat="43.91582255843062" lon="12.135565973434517"><ele>258.0</ele><time>2026-04-19T06:02:04Z</time></trkpt><trkpt lat="43.91586115684597" lon="12.1354783725296"><ele>260.0</ele><time>2026-04-19T06:02:05Z</time></trkpt><trkpt lat="43.91586876685474" lon="12.135339467075703"><ele>262.0</ele><time>2026-04-19T06:02:07Z</time></trkpt><trkpt lat="43.91582310575843" lon="12.135244130785242"><ele>264.0</ele><time>2026-04-19T06:02:08Z</time></trkpt><trkpt lat="43.9157818188175" lon="12.135168351786549"><ele>266.0</ele><time>2026-04-19T06:02:09Z</time></trkpt><trkpt lat="43.91576283274769" lon="12.135057385772214"><ele>266.0</ele><time>2026-04-19T06:02:10Z</time></trkpt><trkpt lat="43.915768807604955" lon="12.134950680821007"><ele>266.0</ele><time>2026-04-19T06:02:11Z</time></trkpt><trkpt lat="43.91582266551838" lon="12.134871604798446"><ele>266.0</ele><time>2026-04-19T06:02:12Z</time></trkpt><trkpt lat="43.91589038114803" lon="12.134803031938981"><ele>266.0</ele><time>2026-04-19T06:02:13Z</time></trkpt><trkpt lat="43.915933199477095" lon="12.134723856010593"><ele>266.0</ele><time>2026-04-19T06:02:14Z</time></trkpt><trkpt lat="43.915935784360535" lon="12.134623262966054"><ele>266.0</ele><time>2026-04-19T06:02:15Z</time></trkpt><trkpt lat="43.91589441772932" lon="12.134518980036049"><ele>269.2</ele><time>2026-04-19T06:02:16Z</time></trkpt><trkpt lat="43.91582250394701" lon="12.134429459701433"><ele>272.40000000000003</ele><time>2026-04-19T06:02:17Z</time></trkpt><trkpt lat="43.915757728826165" lon="12.134304554472628"><ele>275.6</ele><time>2026-04-19T06:02:18Z</time></trkpt><trkpt lat="43.91571149955843" lon="12.134167348014701"><ele>278.8</ele><time>2026-04-19T06:02:19Z</time></trkpt><trkpt lat="43.91567464072881" lon="12.134021413314343"><ele>282.0</ele><time>2026-04-19T06:02:20Z</time></trkpt><trkpt lat="43.91565750221811" lon="12.133877662314099"><ele>283.8333333333333</ele><time>2026-04-19T06:02:21Z</time></trkpt><trkpt lat="43.915638055479434" lon="12.133743690626128"><ele>285.6666666666667</ele><time>2026-04-19T06:02:22Z</time></trkpt><trkpt lat="43.91563298781084" lon="12.133612079795041"><ele>287.5</ele><time>2026-04-19T06:02:23Z</time></trkpt><trkpt lat="43.91566668778585" lon="12.133498996237073"><ele>289.33333333333337</ele><time>2026-04-19T06:02:24Z</time></trkpt><trkpt lat="43.915723438976485" lon="12.13344567326203"><ele>291.1666666666667</ele><time>2026-04-19T06:02:25Z</time></trkpt><trkpt lat="43.91579266208578" lon="12.133433709161299"><ele>293.0</ele><time>2026-04-19T06:02:26Z</time></trkpt><trkpt lat="43.91586167331538" lon="12.133546722938377"><ele>292.6</ele><time>2026-04-19T06:02:27Z</time></trkpt><trkpt lat="43.915973495119786" lon="12.133610570021665"><ele>292.20000000000005</ele><time>2026-04-19T06:02:29Z</time></trkpt><trkpt lat="43.91607148462935" lon="12.133574807133288"><ele>291.8</ele><time>2026-04-19T06:02:30Z</time></trkpt><trkpt lat="43.916138517040146" lon="12.133512161519915"><ele>291.40000000000003</ele><time>2026-04-19T06:02:31Z</time></trkpt><trkpt lat="43.91609325753228" lon="12.133360458942644"><ele>291.0</ele><time>2026-04-19T06:02:32Z</time></trkpt><trkpt lat="43.91612164150943" lon="12.133163301141344"><ele>291.0</ele><time>2026-04-19T06:02:34Z</time></trkpt><trkpt lat="43.91617963059841" lon="12.133018876403439"><ele>291.0</ele><time>2026-04-19T06:02:35Z</time></trkpt><trkpt lat="43.91624945900882" lon="12.132918942280567"><ele>291.0</ele><time>2026-04-19T06:02:36Z</time></trkpt><trkpt lat="43.91634829466242" lon="12.132874162117051"><ele>291.0</ele><time>2026-04-19T06:02:37Z</time></trkpt><trkpt lat="43.916416948461375" lon="12.132785812330386"><ele>291.0</ele><time>2026-04-19T06:02:38Z</time></trkpt><trkpt lat="43.91647813615627" lon="12.132721469622577"><ele>291.0</ele><time>2026-04-19T06:02:39Z</time></trkpt><trkpt lat="43.91655286897492" lon="12.132591220063244"><ele>291.0</ele><time>2026-04-19T06:02:41Z</time></trkpt><trkpt lat="43.91661984194606" lon="12.132449305004892"><ele>291.0</ele><time>2026-04-19T06:02:43Z</time></trkpt><trkpt lat="43.916647814555816" lon="12.132052972459395"><ele>296.25</ele><time>2026-04-19T06:02:44Z</time></trkpt><trkpt lat="43.91650886864063" lon="12.131880018776583"><ele>301.5</ele><time>2026-04-19T06:02:45Z</time></trkpt><trkpt lat="43.91643698098599" lon="12.131807517648268"><ele>306.75</ele><time>2026-04-19T06:02:47Z</time></trkpt><trkpt lat="43.91635658388284" lon="12.131686943899549"><ele>312.0</ele><time>2026-04-19T06:02:49Z</time></trkpt><trkpt lat="43.91630153172516" lon="12.131546246238479"><ele>316.6</ele><time>2026-04-19T06:02:51Z</time></trkpt><trkpt lat="43.9162676194199" lon="12.131387760136233"><ele>321.2</ele><time>2026-04-19T06:02:53Z</time></trkpt><trkpt lat="43.91625137487928" lon="12.131287418774248"><ele>325.8</ele><time>2026-04-19T06:02:54Z</time></trkpt><trkpt lat="43.916240888407025" lon="12.13117166347239"><ele>330.4</ele><time>2026-04-19T06:02:55Z</time></trkpt><trkpt lat="43.91623815237328" lon="12.131067754177357"><ele>335.0</ele><time>2026-04-19T06:02:56Z</time></trkpt><trkpt lat="43.91626029356996" lon="12.130863966806693"><ele>340.5</ele><time>2026-04-19T06:02:58Z</time></trkpt><trkpt lat="43.91595343714668" lon="12.130535547517155"><ele>346.0</ele><time>2026-04-19T06:03:00Z</time></trkpt><trkpt lat="43.9159521358895" lon="12.130400787765781"><ele>346.0</ele><time>2026-04-19T06:03:01Z</time></trkpt><trkpt lat="43.915965237427216" lon="12.130260997900033"><ele>346.0</ele><time>2026-04-19T06:03:02Z</time></trkpt><trkpt lat="43.91598529841716" lon="12.130118102364811"><ele>346.0</ele><time>2026-04-19T06:03:03Z</time></trkpt><trkpt lat="43.916023424099016" lon="12.129980647378568"><ele>346.0</ele><time>2026-04-19T06:03:04Z</time></trkpt><trkpt lat="43.91606156955084" lon="12.12986156534136"><ele>346.0</ele><time>2026-04-19T06:03:05Z</time></trkpt><trkpt lat="43.91611157615922" lon="12.129751846991653"><ele>348.3333333333333</ele><time>2026-04-19T06:03:06Z</time></trkpt><trkpt lat="43.91616636332966" lon="12.129639683702711"><ele>350.66666666666663</ele><time>2026-04-19T06:03:07Z</time></trkpt><trkpt lat="43.91619491375723" lon="12.129526110909605"><ele>353.0</ele><time>2026-04-19T06:03:08Z</time></trkpt><trkpt lat="43.91618934859001" lon="12.129435291100581"><ele>355.3333333333333</ele><time>2026-04-19T06:03:09Z</time></trkpt><trkpt lat="43.91613338246593" lon="12.129319392725291"><ele>357.6666666666667</ele><time>2026-04-19T06:03:11Z</time></trkpt><trkpt lat="43.91607214574042" lon="12.129259150439841"><ele>360.0</ele><time>2026-04-19T06:03:12Z</time></trkpt><trkpt lat="43.91602292122919" lon="12.129170269386798"><ele>360.0</ele><time>2026-04-19T06:03:13Z</time></trkpt><trkpt lat="43.9159755323821" lon="12.129070736939028"><ele>360.0</ele><time>2026-04-19T06:03:14Z</time></trkpt><trkpt lat="43.915935103930586" lon="12.128964661131077"><ele>360.0</ele><time>2026-04-19T06:03:15Z</time></trkpt><trkpt lat="43.915897324732136" lon="12.128850316904346"><ele>360.0</ele><time>2026-04-19T06:03:16Z</time></trkpt><trkpt lat="43.91585058779373" lon="12.128722483471483"><ele>360.0</ele><time>2026-04-19T06:03:17Z</time></trkpt><trkpt lat="43.9157863522084" lon="12.128602036715407"><ele>358.6</ele><time>2026-04-19T06:03:18Z</time></trkpt><trkpt lat="43.91571458521189" lon="12.128493626153771"><ele>357.2</ele><time>2026-04-19T06:03:19Z</time></trkpt><trkpt lat="43.91563683266813" lon="12.128403690233528"><ele>355.79999999999995</ele><time>2026-04-19T06:03:20Z</time></trkpt><trkpt lat="43.91557767579052" lon="12.1283173392461"><ele>354.4</ele><time>2026-04-19T06:03:21Z</time></trkpt><trkpt lat="43.91554755589524" lon="12.128217531440965"><ele>353.0</ele><time>2026-04-19T06:03:22Z</time></trkpt><trkpt lat="43.91554324475767" lon="12.128093546516212"><ele>353.0</ele><time>2026-04-19T06:03:23Z</time></trkpt><trkpt lat="43.91555991128384" lon="12.127962683002774"><ele>353.0</ele><time>2026-04-19T06:03:24Z</time></trkpt><trkpt lat="43.91559587183242" lon="12.127824214090122"><ele>353.0</ele><time>2026-04-19T06:03:25Z</time></trkpt><trkpt lat="43.91563489945762" lon="12.127680982513272"><ele>353.0</ele><time>2026-04-19T06:03:26Z</time></trkpt><trkpt lat="43.91565985969338" lon="12.127538301571851"><ele>353.0</ele><time>2026-04-19T06:03:27Z</time></trkpt><trkpt lat="43.915662637306426" lon="12.127397877207514"><ele>354.33333333333337</ele><time>2026-04-19T06:03:28Z</time></trkpt><trkpt lat="43.915651286876304" lon="12.127264901921293"><ele>355.6666666666667</ele><time>2026-04-19T06:03:29Z</time></trkpt><trkpt lat="43.915636097876494" lon="12.12713732854059"><ele>357.0</ele><time>2026-04-19T06:03:30Z</time></trkpt><trkpt lat="43.915618722115795" lon="12.127026578066989"><ele>358.3333333333333</ele><time>2026-04-19T06:03:31Z</time></trkpt><trkpt lat="43.91560674198432" lon="12.126934039853042"><ele>359.66666666666663</ele><time>2026-04-19T06:03:32Z</time></trkpt><trkpt lat="43.91560007253584" lon="12.126833854087291"><ele>361.0</ele><time>2026-04-19T06:03:33Z</time></trkpt><trkpt lat="43.9155954735671" lon="12.126730637744032"><ele>361.0</ele><time>2026-04-19T06:03:34Z</time></trkpt><trkpt lat="43.91559316191473" lon="12.126618597020956"><ele>361.0</ele><time>2026-04-19T06:03:35Z</time></trkpt><trkpt lat="43.91559823867781" lon="12.126502820689844"><ele>361.0</ele><time>2026-04-19T06:03:36Z</time></trkpt><trkpt lat="43.915612580708434" lon="12.126394051678504"><ele>361.0</ele><time>2026-04-19T06:03:37Z</time></trkpt><trkpt lat="43.91563974484086" lon="12.126290172414576"><ele>361.0</ele><time>2026-04-19T06:03:38Z</time></trkpt><trkpt lat="43.9156724313334" lon="12.126203475019928"><ele>361.0</ele><time>2026-04-19T06:03:39Z</time></trkpt><trkpt lat="43.91573033753248" lon="12.1261144490259"><ele>363.0</ele><time>2026-04-19T06:03:40Z</time></trkpt><trkpt lat="43.91578548648957" lon="12.126022107973442"><ele>365.0</ele><time>2026-04-19T06:03:41Z</time></trkpt><trkpt lat="43.915841168904954" lon="12.125923210580169"><ele>367.0</ele><time>2026-04-19T06:03:42Z</time></trkpt><trkpt lat="43.91589490904006" lon="12.125831843508381"><ele>369.0</ele><time>2026-04-19T06:03:43Z</time></trkpt><trkpt lat="43.91595803123809" lon="12.125715338197173"><ele>371.0</ele><time>2026-04-19T06:03:44Z</time></trkpt><trkpt lat="43.9160193677135" lon="12.125609467668891"><ele>378.0</ele><time>2026-04-19T06:03:45Z</time></trkpt><trkpt lat="43.916080119058854" lon="12.125500744296824"><ele>385.0</ele><time>2026-04-19T06:03:46Z</time></trkpt><trkpt lat="43.91614175102375" lon="12.125383110096509"><ele>392.0</ele><time>2026-04-19T06:03:47Z</time></trkpt><trkpt lat="43.91621243042516" lon="12.125271397703038"><ele>399.0</ele><time>2026-04-19T06:03:48Z</time></trkpt><trkpt lat="43.91628451621032" lon="12.125168540729407"><ele>406.0</ele><time>2026-04-19T06:03:49Z</time></trkpt><trkpt lat="43.91635944859911" lon="12.125068294140315"><ele>406.0</ele><time>2026-04-19T06:03:50Z</time></trkpt><trkpt lat="43.9164506298401" lon="12.124968318362388"><ele>406.0</ele><time>2026-04-19T06:03:51Z</time></trkpt><trkpt lat="43.91653739476027" lon="12.124868993028695"><ele>406.0</ele><time>2026-04-19T06:03:52Z</time></trkpt><trkpt lat="43.91662858985193" lon="12.124788837780306"><ele>406.0</ele><time>2026-04-19T06:03:53Z</time></trkpt><trkpt lat="43.91672449698611" lon="12.124718041705565"><ele>406.0</ele><time>2026-04-19T06:03:54Z</time></trkpt><trkpt lat="43.916828220788965" lon="12.124699829048035"><ele>404.0</ele><time>2026-04-19T06:03:55Z</time></trkpt><trkpt lat="43.91691062690102" lon="12.124694840407836"><ele>402.0</ele><time>2026-04-19T06:03:56Z</time></trkpt><trkpt lat="43.916994068242914" lon="12.124706621848189"><ele>400.0</ele><time>2026-04-19T06:03:57Z</time></trkpt><trkpt lat="43.9170742541119" lon="12.124705776001948"><ele>398.0</ele><time>2026-04-19T06:03:58Z</time></trkpt><trkpt lat="43.91717040915532" lon="12.124676411529615"><ele>396.0</ele><time>2026-04-19T06:04:00Z</time></trkpt><trkpt lat="43.91730639411046" lon="12.124667656358803"><ele>396.0</ele><time>2026-04-19T06:04:02Z</time></trkpt><trkpt lat="43.917385567439034" lon="12.12468398772147"><ele>396.0</ele><time>2026-04-19T06:04:03Z</time></trkpt><trkpt lat="43.91748688797454" lon="12.124744225246918"><ele>396.0</ele><time>2026-04-19T06:04:04Z</time></trkpt><trkpt lat="43.91757666920743" lon="12.124824291781206"><ele>396.0</ele><time>2026-04-19T06:04:05Z</time></trkpt><trkpt lat="43.91767915954126" lon="12.124902808784364"><ele>396.0</ele><time>2026-04-19T06:04:06Z</time></trkpt><trkpt lat="43.91778251398435" lon="12.12492961400008"><ele>400.0</ele><time>2026-04-19T06:04:07Z</time></trkpt><trkpt lat="43.91788511786548" lon="12.124939177301929"><ele>404.0</ele><time>2026-04-19T06:04:08Z</time></trkpt><trkpt lat="43.917989956312304" lon="12.124946816900307"><ele>408.0</ele><time>2026-04-19T06:04:09Z</time></trkpt><trkpt lat="43.91807976389545" lon="12.12491898867137"><ele>412.0</ele><time>2026-04-19T06:04:10Z</time></trkpt><trkpt lat="43.918168967478394" lon="12.12488685701488"><ele>416.0</ele><time>2026-04-19T06:04:11Z</time></trkpt><trkpt lat="43.91825504246463" lon="12.124847307045206"><ele>416.0</ele><time>2026-04-19T06:04:12Z</time></trkpt><trkpt lat="43.918318529894506" lon="12.124773415361998"><ele>416.0</ele><time>2026-04-19T06:04:13Z</time></trkpt><trkpt lat="43.91837302170367" lon="12.124675178034403"><ele>416.0</ele><time>2026-04-19T06:04:14Z</time></trkpt><trkpt lat="43.918417512359326" lon="12.124537383046183"><ele>416.0</ele><time>2026-04-19T06:04:15Z</time></trkpt><trkpt lat="43.918438575694125" lon="12.124398799527906"><ele>416.0</ele><time>2026-04-19T06:04:16Z</time></trkpt><trkpt lat="43.91842782273015" lon="12.124233912010311"><ele>415.20000000000005</ele><time>2026-04-19T06:04:17Z</time></trkpt><trkpt lat="43.91842756424802" lon="12.12408410503905"><ele>414.40000000000003</ele><time>2026-04-19T06:04:18Z</time></trkpt><trkpt lat="43.91844601816445" lon="12.123962551115241"><ele>413.6</ele><time>2026-04-19T06:04:19Z</time></trkpt><trkpt lat="43.91847426429689" lon="12.12386616241423"><ele>412.8</ele><time>2026-04-19T06:04:20Z</time></trkpt><trkpt lat="43.918519965922876" lon="12.1237716181267"><ele>412.0</ele><time>2026-04-19T06:04:21Z</time></trkpt><trkpt lat="43.91858625403162" lon="12.123658086230636"><ele>412.0</ele><time>2026-04-19T06:04:22Z</time></trkpt><trkpt lat="43.918649622141345" lon="12.12356278781739"><ele>412.0</ele><time>2026-04-19T06:04:23Z</time></trkpt><trkpt lat="43.91869975634101" lon="12.123448869775263"><ele>412.0</ele><time>2026-04-19T06:04:24Z</time></trkpt><trkpt lat="43.918727003421296" lon="12.123304961689989"><ele>412.0</ele><time>2026-04-19T06:04:25Z</time></trkpt><trkpt lat="43.91877161270928" lon="12.12315610604454"><ele>412.0</ele><time>2026-04-19T06:04:26Z</time></trkpt><trkpt lat="43.91881368723927" lon="12.12303699279864"><ele>413.33333333333337</ele><time>2026-04-19T06:04:27Z</time></trkpt><trkpt lat="43.9188878491975" lon="12.122960415556484"><ele>414.6666666666667</ele><time>2026-04-19T06:04:28Z</time></trkpt><trkpt lat="43.918945567418625" lon="12.122881460684813"><ele>416.0</ele><time>2026-04-19T06:04:29Z</time></trkpt><trkpt lat="43.91898697006124" lon="12.122783350772245"><ele>417.33333333333337</ele><time>2026-04-19T06:04:30Z</time></trkpt><trkpt lat="43.91900786392985" lon="12.122673527150225"><ele>418.6666666666667</ele><time>2026-04-19T06:04:31Z</time></trkpt><trkpt lat="43.91903301850631" lon="12.12256450899836"><ele>420.0</ele><time>2026-04-19T06:04:32Z</time></trkpt><trkpt lat="43.91906717739243" lon="12.122467469939759"><ele>420.0</ele><time>2026-04-19T06:04:33Z</time></trkpt><trkpt lat="43.919137626887775" lon="12.122417793039116"><ele>420.0</ele><time>2026-04-19T06:04:34Z</time></trkpt><trkpt lat="43.91919787189887" lon="12.122358302086399"><ele>420.0</ele><time>2026-04-19T06:04:35Z</time></trkpt><trkpt lat="43.91925387750181" lon="12.122283294011401"><ele>420.0</ele><time>2026-04-19T06:04:36Z</time></trkpt><trkpt lat="43.9193071832534" lon="12.122160362868927"><ele>420.0</ele><time>2026-04-19T06:04:37Z</time></trkpt><trkpt lat="43.91936506854214" lon="12.12204701416214"><ele>420.0</ele><time>2026-04-19T06:04:38Z</time></trkpt><trkpt lat="43.91942647957866" lon="12.121937783011616"><ele>419.6666666666667</ele><time>2026-04-19T06:04:39Z</time></trkpt><trkpt lat="43.91949793054083" lon="12.121855055654263"><ele>419.33333333333337</ele><time>2026-04-19T06:04:40Z</time></trkpt><trkpt lat="43.91956102539646" lon="12.121768101685802"><ele>419.0</ele><time>2026-04-19T06:04:41Z</time></trkpt><trkpt lat="43.91960901398976" lon="12.121658751279872"><ele>418.6666666666667</ele><time>2026-04-19T06:04:42Z</time></trkpt><trkpt lat="43.91963125082395" lon="12.121543638296941"><ele>418.33333333333337</ele><time>2026-04-19T06:04:43Z</time></trkpt><trkpt lat="43.919624596273664" lon="12.12143555477909"><ele>418.0</ele><time>2026-04-19T06:04:44Z</time></trkpt><trkpt lat="43.91962232342338" lon="12.121320544146519"><ele>420.2</ele><time>2026-04-19T06:04:45Z</time></trkpt><trkpt lat="43.919635163633274" lon="12.121212510039635"><ele>422.4</ele><time>2026-04-19T06:04:46Z</time></trkpt><trkpt lat="43.919645032746494" lon="12.121098832216125"><ele>424.59999999999997</ele><time>2026-04-19T06:04:47Z</time></trkpt><trkpt lat="43.91961464618722" lon="12.120960734358352"><ele>426.79999999999995</ele><time>2026-04-19T06:04:48Z</time></trkpt><trkpt lat="43.919562060406506" lon="12.12082957331798"><ele>429.0</ele><time>2026-04-19T06:04:49Z</time></trkpt><trkpt lat="43.91954748515763" lon="12.120691012158671"><ele>430.0</ele><time>2026-04-19T06:04:50Z</time></trkpt><trkpt lat="43.91953395187396" lon="12.120556070348227"><ele>431.0</ele><time>2026-04-19T06:04:51Z</time></trkpt><trkpt lat="43.919508580832336" lon="12.12043173515709"><ele>432.0</ele><time>2026-04-19T06:04:52Z</time></trkpt><trkpt lat="43.919451178350556" lon="12.12032807839341"><ele>433.0</ele><time>2026-04-19T06:04:53Z</time></trkpt><trkpt lat="43.91937452713375" lon="12.120242143818922"><ele>434.0</ele><time>2026-04-19T06:04:54Z</time></trkpt><trkpt lat="43.919312418531945" lon="12.120163786545495"><ele>434.0</ele><time>2026-04-19T06:04:55Z</time></trkpt><trkpt lat="43.91929426898914" lon="12.1200328588596"><ele>434.0</ele><time>2026-04-19T06:04:57Z</time></trkpt><trkpt lat="43.91936455347759" lon="12.119955276966156"><ele>434.0</ele><time>2026-04-19T06:04:58Z</time></trkpt><trkpt lat="43.91947859835757" lon="12.119920829580145"><ele>434.0</ele><time>2026-04-19T06:04:59Z</time></trkpt><trkpt lat="43.91959651949295" lon="12.119909349280746"><ele>434.0</ele><time>2026-04-19T06:05:00Z</time></trkpt><trkpt lat="43.91968513712349" lon="12.119846567228265"><ele>433.79999999999995</ele><time>2026-04-19T06:05:01Z</time></trkpt><trkpt lat="43.919758845440725" lon="12.119711459019232"><ele>433.59999999999997</ele><time>2026-04-19T06:05:02Z</time></trkpt><trkpt lat="43.91980648349371" lon="12.119609116590953"><ele>433.4</ele><time>2026-04-19T06:05:03Z</time></trkpt><trkpt lat="43.91984921585792" lon="12.11947330905391"><ele>433.2</ele><time>2026-04-19T06:05:04Z</time></trkpt><trkpt lat="43.91990406437146" lon="12.119333206197481"><ele>433.0</ele><time>2026-04-19T06:05:05Z</time></trkpt><trkpt lat="43.919934126009316" lon="12.11919194797381"><ele>433.0</ele><time>2026-04-19T06:05:06Z</time></trkpt><trkpt lat="43.91996458836164" lon="12.119081894718198"><ele>432.99999999999994</ele><time>2026-04-19T06:05:07Z</time></trkpt><trkpt lat="43.91999397638004" lon="12.118976829056203"><ele>432.99999999999994</ele><time>2026-04-19T06:05:08Z</time></trkpt><trkpt lat="43.92005143982964" lon="12.118881810404638"><ele>433.0</ele><time>2026-04-19T06:05:09Z</time></trkpt><trkpt lat="43.92013441101205" lon="12.11880290709536"><ele>433.0</ele><time>2026-04-19T06:05:10Z</time></trkpt><trkpt lat="43.92022796674659" lon="12.11873803245966"><ele>432.79999999999995</ele><time>2026-04-19T06:05:11Z</time></trkpt><trkpt lat="43.92032004886894" lon="12.11866086942401"><ele>432.59999999999997</ele><time>2026-04-19T06:05:12Z</time></trkpt><trkpt lat="43.920407206599705" lon="12.11857086087424"><ele>432.40000000000003</ele><time>2026-04-19T06:05:13Z</time></trkpt><trkpt lat="43.92046481247948" lon="12.118481151981566"><ele>432.20000000000005</ele><time>2026-04-19T06:05:14Z</time></trkpt><trkpt lat="43.920471319938805" lon="12.118347469458502"><ele>432.0</ele><time>2026-04-19T06:05:15Z</time></trkpt><trkpt lat="43.92046224391639" lon="12.118222352443386"><ele>431.20000000000005</ele><time>2026-04-19T06:05:16Z</time></trkpt><trkpt lat="43.9204823781902" lon="12.118097996151025"><ele>430.40000000000003</ele><time>2026-04-19T06:05:17Z</time></trkpt><trkpt lat="43.92054974719775" lon="12.117961800444247"><ele>429.59999999999997</ele><time>2026-04-19T06:05:18Z</time></trkpt><trkpt lat="43.920561164747646" lon="12.117821276073407"><ele>428.79999999999995</ele><time>2026-04-19T06:05:19Z</time></trkpt><trkpt lat="43.920549113460346" lon="12.11770324245788"><ele>428.0</ele><time>2026-04-19T06:05:20Z</time></trkpt><trkpt lat="43.92056543285578" lon="12.11760640780242"><ele>427.99999999999994</ele><time>2026-04-19T06:05:21Z</time></trkpt><trkpt lat="43.920629583919705" lon="12.117527189152705"><ele>428.0</ele><time>2026-04-19T06:05:22Z</time></trkpt><trkpt lat="43.92069166320223" lon="12.117455682742253"><ele>428.0</ele><time>2026-04-19T06:05:23Z</time></trkpt><trkpt lat="43.92071974595835" lon="12.117361645150526"><ele>428.0</ele><time>2026-04-19T06:05:24Z</time></trkpt><trkpt lat="43.92070466606226" lon="12.117247580520374"><ele>427.99999999999994</ele><time>2026-04-19T06:05:25Z</time></trkpt><trkpt lat="43.92064533195627" lon="12.117100335802332"><ele>428.0</ele><time>2026-04-19T06:05:26Z</time></trkpt><trkpt lat="43.92059511541669" lon="12.116928068265096"><ele>427.5</ele><time>2026-04-19T06:05:27Z</time></trkpt><trkpt lat="43.92055905994382" lon="12.116764478635233"><ele>427.0</ele><time>2026-04-19T06:05:28Z</time></trkpt><trkpt lat="43.9205432615338" lon="12.116619098361518"><ele>426.5</ele><time>2026-04-19T06:05:29Z</time></trkpt><trkpt lat="43.920553598670736" lon="12.116473528685587"><ele>426.0</ele><time>2026-04-19T06:05:30Z</time></trkpt><trkpt lat="43.920590605126534" lon="12.116310549666823"><ele>426.0</ele><time>2026-04-19T06:05:31Z</time></trkpt><trkpt lat="43.9206205853872" lon="12.116142147098572"><ele>426.0</ele><time>2026-04-19T06:05:32Z</time></trkpt><trkpt lat="43.920657677661566" lon="12.115992452961533"><ele>426.0</ele><time>2026-04-19T06:05:33Z</time></trkpt><trkpt lat="43.9207187544253" lon="12.115871285072027"><ele>426.0</ele><time>2026-04-19T06:05:34Z</time></trkpt><trkpt lat="43.92078690537133" lon="12.115766316379887"><ele>426.0</ele><time>2026-04-19T06:05:35Z</time></trkpt><trkpt lat="43.920893566593534" lon="12.11566801500435"><ele>426.75</ele><time>2026-04-19T06:05:36Z</time></trkpt><trkpt lat="43.920995750928874" lon="12.11556996615339"><ele>427.5</ele><time>2026-04-19T06:05:37Z</time></trkpt><trkpt lat="43.92109164051516" lon="12.11548428435068"><ele>428.25</ele><time>2026-04-19T06:05:38Z</time></trkpt><trkpt lat="43.921200358397144" lon="12.115400484265011"><ele>429.0</ele><time>2026-04-19T06:05:39Z</time></trkpt><trkpt lat="43.921320277715466" lon="12.115335105449674"><ele>429.0</ele><time>2026-04-19T06:05:40Z</time></trkpt><trkpt lat="43.92143110155824" lon="12.115312994258707"><ele>429.0</ele><time>2026-04-19T06:05:41Z</time></trkpt><trkpt lat="43.92151685850055" lon="12.115286381880582"><ele>429.0</ele><time>2026-04-19T06:05:42Z</time></trkpt><trkpt lat="43.921570629464625" lon="12.115219409705377"><ele>429.0</ele><time>2026-04-19T06:05:43Z</time></trkpt><trkpt lat="43.92160557729924" lon="12.115116546776632"><ele>429.0</ele><time>2026-04-19T06:05:44Z</time></trkpt><trkpt lat="43.921619385568306" lon="12.114960268118137"><ele>431.4</ele><time>2026-04-19T06:05:45Z</time></trkpt><trkpt lat="43.92163259170914" lon="12.11481538031962"><ele>433.79999999999995</ele><time>2026-04-19T06:05:46Z</time></trkpt><trkpt lat="43.9216728140692" lon="12.114699334998184"><ele>436.20000000000005</ele><time>2026-04-19T06:05:47Z</time></trkpt><trkpt lat="43.92172480882249" lon="12.114581985927604"><ele>438.6</ele><time>2026-04-19T06:05:48Z</time></trkpt><trkpt lat="43.92179536129794" lon="12.114445137914204"><ele>441.0</ele><time>2026-04-19T06:05:49Z</time></trkpt><trkpt lat="43.92185701468855" lon="12.114344310667818"><ele>433.0</ele><time>2026-04-19T06:05:50Z</time></trkpt><trkpt lat="43.92193504807319" lon="12.114274331934146"><ele>425.0</ele><time>2026-04-19T06:05:51Z</time></trkpt><trkpt lat="43.92198234021313" lon="12.114181407221194"><ele>417.0</ele><time>2026-04-19T06:05:52Z</time></trkpt><trkpt lat="43.92196218619632" lon="12.113997739872966"><ele>409.0</ele><time>2026-04-19T06:05:54Z</time></trkpt><trkpt lat="43.92191018521887" lon="12.113886156752033"><ele>401.0</ele><time>2026-04-19T06:05:55Z</time></trkpt><trkpt lat="43.92184943954722" lon="12.113759065894394"><ele>398.6</ele><time>2026-04-19T06:05:56Z</time></trkpt><trkpt lat="43.92181684579437" lon="12.11361120536758"><ele>396.20000000000005</ele><time>2026-04-19T06:05:57Z</time></trkpt><trkpt lat="43.921799878241245" lon="12.113470233974342"><ele>393.79999999999995</ele><time>2026-04-19T06:05:58Z</time></trkpt><trkpt lat="43.92179138954929" lon="12.113334149160808"><ele>391.4</ele><time>2026-04-19T06:05:59Z</time></trkpt><trkpt lat="43.92175196044038" lon="12.1131984967015"><ele>389.0</ele><time>2026-04-19T06:06:00Z</time></trkpt><trkpt lat="43.92170341723155" lon="12.113063473932039"><ele>394.79999999999995</ele><time>2026-04-19T06:06:01Z</time></trkpt><trkpt lat="43.921648930934026" lon="12.112930519648765"><ele>400.59999999999997</ele><time>2026-04-19T06:06:02Z</time></trkpt><trkpt lat="43.9215830186986" lon="12.112824367813431"><ele>406.4</ele><time>2026-04-19T06:06:03Z</time></trkpt><trkpt lat="43.92152965073016" lon="12.112716491398686"><ele>412.2</ele><time>2026-04-19T06:06:04.001Z</time></trkpt><trkpt lat="43.921496896116814" lon="12.11260122917095"><ele>418.0</ele><time>2026-04-19T06:06:05.001Z</time></trkpt><trkpt lat="43.92147903856044" lon="12.112459653853598"><ele>416.83333333333337</ele><time>2026-04-19T06:06:06.001Z</time></trkpt><trkpt lat="43.92148547183507" lon="12.112335009497803"><ele>415.6666666666667</ele><time>2026-04-19T06:06:07.001Z</time></trkpt><trkpt lat="43.92147652934613" lon="12.112219010841613"><ele>414.5</ele><time>2026-04-19T06:06:08.001Z</time></trkpt><trkpt lat="43.92145899297791" lon="12.112122069090388"><ele>413.33333333333337</ele><time>2026-04-19T06:06:09.001Z</time></trkpt><trkpt lat="43.92142604514388" lon="12.11201043060549"><ele>412.1666666666667</ele><time>2026-04-19T06:06:10.001Z</time></trkpt><trkpt lat="43.921391622242766" lon="12.111880322948187"><ele>411.0</ele><time>2026-04-19T06:06:11.001Z</time></trkpt><trkpt lat="43.921360765586115" lon="12.111765536291754"><ele>411.0</ele><time>2026-04-19T06:06:12.001Z</time></trkpt><trkpt lat="43.921351570139265" lon="12.11163518990763"><ele>411.0</ele><time>2026-04-19T06:06:13.001Z</time></trkpt><trkpt lat="43.92135853047462" lon="12.111504545414432"><ele>411.0</ele><time>2026-04-19T06:06:14.001Z</time></trkpt><trkpt lat="43.921384471801666" lon="12.111396901128161"><ele>411.0</ele><time>2026-04-19T06:06:15.001Z</time></trkpt><trkpt lat="43.92139196533919" lon="12.11130669025739"><ele>411.0</ele><time>2026-04-19T06:06:16.001Z</time></trkpt><trkpt lat="43.92139424870057" lon="12.111206506760194"><ele>411.0</ele><time>2026-04-19T06:06:17.001Z</time></trkpt><trkpt lat="43.921388050359006" lon="12.11109061985233"><ele>412.20000000000005</ele><time>2026-04-19T06:06:18.001Z</time></trkpt><trkpt lat="43.92137737866138" lon="12.110966389928949"><ele>413.40000000000003</ele><time>2026-04-19T06:06:19.001Z</time></trkpt><trkpt lat="43.92137889627693" lon="12.110841852976087"><ele>414.6</ele><time>2026-04-19T06:06:20.001Z</time></trkpt><trkpt lat="43.921373838442435" lon="12.110709898374806"><ele>415.8</ele><time>2026-04-19T06:06:21.001Z</time></trkpt><trkpt lat="43.921372914707476" lon="12.110568849350754"><ele>417.0</ele><time>2026-04-19T06:06:22.001Z</time></trkpt><trkpt lat="43.92137043174695" lon="12.11043163149255"><ele>419.6</ele><time>2026-04-19T06:06:23.001Z</time></trkpt><trkpt lat="43.92135963538699" lon="12.110283636173557"><ele>422.20000000000005</ele><time>2026-04-19T06:06:24.001Z</time></trkpt><trkpt lat="43.92134858950533" lon="12.110155347266113"><ele>424.8</ele><time>2026-04-19T06:06:25.001Z</time></trkpt><trkpt lat="43.92133762710072" lon="12.11004271999556"><ele>427.4</ele><time>2026-04-19T06:06:26.001Z</time></trkpt><trkpt lat="43.9213276814672" lon="12.10993335280084"><ele>430.0</ele><time>2026-04-19T06:06:27.001Z</time></trkpt><trkpt lat="43.921305846891016" lon="12.109814374905364"><ele>433.50000000000006</ele><time>2026-04-19T06:06:28.001Z</time></trkpt><trkpt lat="43.92128158471718" lon="12.109687396957561"><ele>437.0</ele><time>2026-04-19T06:06:29.001Z</time></trkpt><trkpt lat="43.92129453842063" lon="12.109569593324633"><ele>440.5</ele><time>2026-04-19T06:06:30.001Z</time></trkpt><trkpt lat="43.921318300138466" lon="12.109446944753296"><ele>444.0</ele><time>2026-04-19T06:06:31.001Z</time></trkpt><trkpt lat="43.921359868994415" lon="12.1093585839137"><ele>447.50000000000006</ele><time>2026-04-19T06:06:32.001Z</time></trkpt><trkpt lat="43.921421433175865" lon="12.10928251369331"><ele>451.0</ele><time>2026-04-19T06:06:33.001Z</time></trkpt><trkpt lat="43.921500364069196" lon="12.10926307322692"><ele>451.00000000000006</ele><time>2026-04-19T06:06:34.001Z</time></trkpt><trkpt lat="43.92158776954711" lon="12.109270438337907"><ele>451.0</ele><time>2026-04-19T06:06:35.001Z</time></trkpt><trkpt lat="43.921668986644555" lon="12.109325527666755"><ele>451.0</ele><time>2026-04-19T06:06:36.001Z</time></trkpt><trkpt lat="43.92171992595453" lon="12.109411051176822"><ele>451.0</ele><time>2026-04-19T06:06:37.001Z</time></trkpt><trkpt lat="43.92177007933906" lon="12.109533506028667"><ele>451.00000000000006</ele><time>2026-04-19T06:06:38.001Z</time></trkpt><trkpt lat="43.92182642571706" lon="12.109622373412618"><ele>451.0</ele><time>2026-04-19T06:06:39.001Z</time></trkpt><trkpt lat="43.921919716200435" lon="12.109652220711105"><ele>455.20000000000005</ele><time>2026-04-19T06:06:40.001Z</time></trkpt><trkpt lat="43.92202962250398" lon="12.109672488964467"><ele>459.40000000000003</ele><time>2026-04-19T06:06:41.001Z</time></trkpt><trkpt lat="43.922144159024654" lon="12.109694921067188"><ele>463.6</ele><time>2026-04-19T06:06:42.001Z</time></trkpt><trkpt lat="43.92224398166462" lon="12.109718856968362"><ele>467.8</ele><time>2026-04-19T06:06:43.001Z</time></trkpt><trkpt lat="43.92232153857027" lon="12.109776364733218"><ele>472.0</ele><time>2026-04-19T06:06:44.001Z</time></trkpt><trkpt lat="43.922392858628015" lon="12.109827667750144"><ele>472.0</ele><time>2026-04-19T06:06:45.001Z</time></trkpt><trkpt lat="43.92248583093102" lon="12.109866133871577"><ele>472.00000000000006</ele><time>2026-04-19T06:06:46.001Z</time></trkpt><trkpt lat="43.92258868457277" lon="12.109892021061734"><ele>472.00000000000006</ele><time>2026-04-19T06:06:47.001Z</time></trkpt><trkpt lat="43.922687152046336" lon="12.109922142895709"><ele>472.0</ele><time>2026-04-19T06:06:48.001Z</time></trkpt><trkpt lat="43.92278284384517" lon="12.109943808133668"><ele>472.0</ele><time>2026-04-19T06:06:49.001Z</time></trkpt><trkpt lat="43.922875520270416" lon="12.109974649371669"><ele>471.83333333333337</ele><time>2026-04-19T06:06:50.001Z</time></trkpt><trkpt lat="43.92295629636967" lon="12.110021242274694"><ele>471.6666666666667</ele><time>2026-04-19T06:06:51.001Z</time></trkpt><trkpt lat="43.923031074200864" lon="12.110047354244701"><ele>471.5</ele><time>2026-04-19T06:06:52.001Z</time></trkpt><trkpt lat="43.923132291321224" lon="12.11001591414144"><ele>471.33333333333337</ele><time>2026-04-19T06:06:54.001Z</time></trkpt><trkpt lat="43.92319491292885" lon="12.109892709446765"><ele>471.1666666666667</ele><time>2026-04-19T06:06:56.001Z</time></trkpt><trkpt lat="43.92322625792976" lon="12.109812548441806"><ele>471.0</ele><time>2026-04-19T06:06:57.001Z</time></trkpt><trkpt lat="43.92327926565843" lon="12.109762107367688"><ele>471.0</ele><time>2026-04-19T06:06:58.001Z</time></trkpt><trkpt lat="43.92334016720266" lon="12.10971834300542"><ele>471.0</ele><time>2026-04-19T06:06:59.001Z</time></trkpt><trkpt lat="43.92342237634611" lon="12.109668197846652"><ele>471.0</ele><time>2026-04-19T06:07:00.001Z</time></trkpt><trkpt lat="43.92351514591148" lon="12.109636563674094"><ele>471.0</ele><time>2026-04-19T06:07:01.001Z</time></trkpt><trkpt lat="43.923608394389134" lon="12.109626318454064"><ele>471.0</ele><time>2026-04-19T06:07:02.001Z</time></trkpt><trkpt lat="43.923697022515704" lon="12.109618841450072"><ele>471.0</ele><time>2026-04-19T06:07:03.001Z</time></trkpt><trkpt lat="43.923755469814964" lon="12.109577907004539"><ele>466.3333333333333</ele><time>2026-04-19T06:07:04.001Z</time></trkpt><trkpt lat="43.923800129456374" lon="12.109509256623978"><ele>461.66666666666663</ele><time>2026-04-19T06:07:05.001Z</time></trkpt><trkpt lat="43.92381119517787" lon="12.109416209071988"><ele>457.0</ele><time>2026-04-19T06:07:06.001Z</time></trkpt><trkpt lat="43.92381476667633" lon="12.109319459180119"><ele>452.3333333333333</ele><time>2026-04-19T06:07:07.001Z</time></trkpt><trkpt lat="43.92378859849263" lon="12.109198009937833"><ele>447.66666666666663</ele><time>2026-04-19T06:07:08.001Z</time></trkpt><trkpt lat="43.92375275948785" lon="12.109067700682075"><ele>443.0</ele><time>2026-04-19T06:07:09.001Z</time></trkpt><trkpt lat="43.92373336801864" lon="12.10892775846743"><ele>440.59999999999997</ele><time>2026-04-19T06:07:10.001Z</time></trkpt><trkpt lat="43.92372909557506" lon="12.10877624788969"><ele>438.19999999999993</ele><time>2026-04-19T06:07:11.001Z</time></trkpt><trkpt lat="43.92374105351769" lon="12.108623470749066"><ele>435.8</ele><time>2026-04-19T06:07:12.001Z</time></trkpt><trkpt lat="43.9237559301717" lon="12.108500070138932"><ele>433.4</ele><time>2026-04-19T06:07:13.001Z</time></trkpt><trkpt lat="43.923758179103835" lon="12.108376278102455"><ele>431.0</ele><time>2026-04-19T06:07:14.001Z</time></trkpt><trkpt lat="43.923753868938995" lon="12.108257655345692"><ele>430.0</ele><time>2026-04-19T06:07:15.001Z</time></trkpt><trkpt lat="43.923728072697976" lon="12.108127397816185"><ele>429.0</ele><time>2026-04-19T06:07:16.001Z</time></trkpt><trkpt lat="43.923701414600565" lon="12.107996006335597"><ele>428.0</ele><time>2026-04-19T06:07:17.001Z</time></trkpt><trkpt lat="43.923687689602644" lon="12.10785716925479"><ele>427.0</ele><time>2026-04-19T06:07:18.001Z</time></trkpt><trkpt lat="43.923689085583504" lon="12.107716025131385"><ele>426.0</ele><time>2026-04-19T06:07:19.001Z</time></trkpt><trkpt lat="43.92368714821934" lon="12.107578728012097"><ele>426.0</ele><time>2026-04-19T06:07:20.001Z</time></trkpt><trkpt lat="43.923691765109695" lon="12.107437608269175"><ele>426.0</ele><time>2026-04-19T06:07:21.001Z</time></trkpt><trkpt lat="43.923711869856774" lon="12.107289545333897"><ele>426.0</ele><time>2026-04-19T06:07:22.001Z</time></trkpt><trkpt lat="43.92371921554699" lon="12.107126860452302"><ele>426.0</ele><time>2026-04-19T06:07:23.001Z</time></trkpt><trkpt lat="43.92371792619662" lon="12.106971401450206"><ele>426.0</ele><time>2026-04-19T06:07:24.001Z</time></trkpt><trkpt lat="43.923726570623714" lon="12.106809587055263"><ele>425.6666666666667</ele><time>2026-04-19T06:07:25.001Z</time></trkpt><trkpt lat="43.92374393490795" lon="12.106663934461427"><ele>425.33333333333337</ele><time>2026-04-19T06:07:26.001Z</time></trkpt><trkpt lat="43.923731929290994" lon="12.106571691586996"><ele>425.0</ele><time>2026-04-19T06:07:27Z</time></trkpt><trkpt lat="43.92375664717318" lon="12.106472279020167"><ele>424.6666666666667</ele><time>2026-04-19T06:07:28Z</time></trkpt><trkpt lat="43.92380889601226" lon="12.10640601308526"><ele>424.33333333333337</ele><time>2026-04-19T06:07:29Z</time></trkpt><trkpt lat="43.92387248253831" lon="12.106409409436626"><ele>424.0</ele><time>2026-04-19T06:07:31Z</time></trkpt><trkpt lat="43.92390154631853" lon="12.106251689702724"><ele>425.4</ele><time>2026-04-19T06:07:33Z</time></trkpt><trkpt lat="43.92389448631371" lon="12.106136542182238"><ele>426.79999999999995</ele><time>2026-04-19T06:07:34Z</time></trkpt><trkpt lat="43.92388813408268" lon="12.106019529045248"><ele>428.20000000000005</ele><time>2026-04-19T06:07:35Z</time></trkpt><trkpt lat="43.92387037011582" lon="12.10588377887274"><ele>429.6</ele><time>2026-04-19T06:07:36Z</time></trkpt><trkpt lat="43.923846063287925" lon="12.105757703407722"><ele>431.0</ele><time>2026-04-19T06:07:37Z</time></trkpt><trkpt lat="43.92382134030741" lon="12.1056381750472"><ele>432.99999999999994</ele><time>2026-04-19T06:07:38Z</time></trkpt><trkpt lat="43.92382180054307" lon="12.105523659614166"><ele>435.0</ele><time>2026-04-19T06:07:39Z</time></trkpt><trkpt lat="43.92382110189203" lon="12.105408399628867"><ele>437.0</ele><time>2026-04-19T06:07:40Z</time></trkpt><trkpt lat="43.92385140711028" lon="12.105286191753946"><ele>439.0</ele><time>2026-04-19T06:07:41Z</time></trkpt><trkpt lat="43.92388904157102" lon="12.10516052919287"><ele>440.99999999999994</ele><time>2026-04-19T06:07:42Z</time></trkpt><trkpt lat="43.923913800030235" lon="12.105059217687064"><ele>443.0</ele><time>2026-04-19T06:07:43Z</time></trkpt><trkpt lat="43.92390547675489" lon="12.104965570763017"><ele>445.99999999999994</ele><time>2026-04-19T06:07:44Z</time></trkpt><trkpt lat="43.92389080440854" lon="12.104868928750552"><ele>449.0</ele><time>2026-04-19T06:07:45Z</time></trkpt><trkpt lat="43.923870628819486" lon="12.104737625548516"><ele>452.0</ele><time>2026-04-19T06:07:46Z</time></trkpt><trkpt lat="43.92384330350842" lon="12.104621145556763"><ele>455.0</ele><time>2026-04-19T06:07:47Z</time></trkpt><trkpt lat="43.923816522838784" lon="12.10450753358103"><ele>457.99999999999994</ele><time>2026-04-19T06:07:48Z</time></trkpt><trkpt lat="43.923784179183905" lon="12.10439825823888"><ele>461.0</ele><time>2026-04-19T06:07:49Z</time></trkpt><trkpt lat="43.92374810537602" lon="12.104277657920774"><ele>460.99999999999994</ele><time>2026-04-19T06:07:50Z</time></trkpt><trkpt lat="43.92371680221526" lon="12.104160641716868"><ele>461.0</ele><time>2026-04-19T06:07:51Z</time></trkpt><trkpt lat="43.9236934728794" lon="12.104041776901619"><ele>461.0</ele><time>2026-04-19T06:07:52Z</time></trkpt><trkpt lat="43.92367867028486" lon="12.103928217300785"><ele>461.0</ele><time>2026-04-19T06:07:53Z</time></trkpt><trkpt lat="43.92365178454193" lon="12.103819453989026"><ele>460.99999999999994</ele><time>2026-04-19T06:07:54Z</time></trkpt><trkpt lat="43.923623915573586" lon="12.103702840203969"><ele>461.0</ele><time>2026-04-19T06:07:55Z</time></trkpt><trkpt lat="43.923600616520496" lon="12.1035891185276"><ele>465.6</ele><time>2026-04-19T06:07:56Z</time></trkpt><trkpt lat="43.92358991388448" lon="12.103469820972514"><ele>470.20000000000005</ele><time>2026-04-19T06:07:57Z</time></trkpt><trkpt lat="43.92360182426994" lon="12.103348831413108"><ele>474.79999999999995</ele><time>2026-04-19T06:07:58Z</time></trkpt><trkpt lat="43.923628980437634" lon="12.103234827259193"><ele>479.4</ele><time>2026-04-19T06:07:59Z</time></trkpt><trkpt lat="43.92368468441518" lon="12.103104192699554"><ele>484.0</ele><time>2026-04-19T06:08:00Z</time></trkpt><trkpt lat="43.92374510083789" lon="12.102994390031201"><ele>487.79999999999995</ele><time>2026-04-19T06:08:01.001Z</time></trkpt><trkpt lat="43.92378746070459" lon="12.1028808876734"><ele>491.59999999999997</ele><time>2026-04-19T06:08:02.001Z</time></trkpt><trkpt lat="43.92381627213528" lon="12.102747988912343"><ele>495.4</ele><time>2026-04-19T06:08:03.001Z</time></trkpt><trkpt lat="43.92384524098591" lon="12.102620711427733"><ele>499.2</ele><time>2026-04-19T06:08:04.001Z</time></trkpt><trkpt lat="43.92388456269324" lon="12.10249606418478"><ele>503.0</ele><time>2026-04-19T06:08:05.001Z</time></trkpt><trkpt lat="43.92391460885509" lon="12.10236256625878"><ele>507.0</ele><time>2026-04-19T06:08:06.001Z</time></trkpt><trkpt lat="43.92393324627229" lon="12.102219289251222"><ele>510.99999999999994</ele><time>2026-04-19T06:08:07.001Z</time></trkpt><trkpt lat="43.923931222720526" lon="12.102078186571328"><ele>515.0</ele><time>2026-04-19T06:08:08.001Z</time></trkpt><trkpt lat="43.923926857741016" lon="12.101945379110152"><ele>519.0</ele><time>2026-04-19T06:08:09.001Z</time></trkpt><trkpt lat="43.92392946866263" lon="12.101814745435867"><ele>523.0</ele><time>2026-04-19T06:08:10.001Z</time></trkpt><trkpt lat="43.923923253041906" lon="12.10170176644663"><ele>527.6666666666667</ele><time>2026-04-19T06:08:11.001Z</time></trkpt><trkpt lat="43.923931242294074" lon="12.101580893653697"><ele>532.3333333333334</ele><time>2026-04-19T06:08:13.001Z</time></trkpt><trkpt lat="43.92398893686795" lon="12.101491238798513"><ele>537.0</ele><time>2026-04-19T06:08:15.001Z</time></trkpt><trkpt lat="43.924052309301494" lon="12.10140523531287"><ele>541.6666666666666</ele><time>2026-04-19T06:08:16.001Z</time></trkpt><trkpt lat="43.92410377774378" lon="12.101315462140436"><ele>546.3333333333333</ele><time>2026-04-19T06:08:17.001Z</time></trkpt><trkpt lat="43.924176413625574" lon="12.10122681525642"><ele>551.0</ele><time>2026-04-19T06:08:19.001Z</time></trkpt><trkpt lat="43.92426172477322" lon="12.101241826232126"><ele>555.0</ele><time>2026-04-19T06:08:21.001Z</time></trkpt><trkpt lat="43.92428251194463" lon="12.101336884615035"><ele>559.0</ele><time>2026-04-19T06:08:29.001Z</time></trkpt><trkpt lat="43.92438557441543" lon="12.101354252942151"><ele>563.0</ele><time>2026-04-19T06:08:30.001Z</time></trkpt><trkpt lat="43.924482485966216" lon="12.101369107590891"><ele>567.0</ele><time>2026-04-19T06:08:31.001Z</time></trkpt><trkpt lat="43.92456951822526" lon="12.101342140843371"><ele>571.0</ele><time>2026-04-19T06:08:32.001Z</time></trkpt><trkpt lat="43.92468495353721" lon="12.101298058081598"><ele>571.0</ele><time>2026-04-19T06:08:34.001Z</time></trkpt><trkpt lat="43.92477325441951" lon="12.101300613044051"><ele>571.0</ele><time>2026-04-19T06:08:35.001Z</time></trkpt><trkpt lat="43.924853062610886" lon="12.101304951627892"><ele>571.0</ele><time>2026-04-19T06:08:37.001Z</time></trkpt><trkpt lat="43.92471790679379" lon="12.101329740025653"><ele>571.0</ele><time>2026-04-19T06:08:38.001Z</time></trkpt><trkpt lat="43.924686446921186" lon="12.10141558179818"><ele>571.0</ele><time>2026-04-19T06:08:41.001Z</time></trkpt><trkpt lat="43.924670970101694" lon="12.101508589571175"><ele>571.0</ele><time>2026-04-19T06:08:44.001Z</time></trkpt><trkpt lat="43.92468597594036" lon="12.10159675526854"><ele>568.2</ele><time>2026-04-19T06:08:46Z</time></trkpt><trkpt lat="43.9248121421818" lon="12.101646171716908"><ele>565.4000000000001</ele><time>2026-04-19T06:08:48Z</time></trkpt><trkpt lat="43.92488582063892" lon="12.101704769784808"><ele>562.6</ele><time>2026-04-19T06:08:49Z</time></trkpt><trkpt lat="43.92495639694741" lon="12.10177528083913"><ele>559.8000000000001</ele><time>2026-04-19T06:08:51Z</time></trkpt><trkpt lat="43.92503073983877" lon="12.101766392351138"><ele>557.0</ele><time>2026-04-19T06:08:53Z</time></trkpt><trkpt lat="43.925082222818716" lon="12.101676722052199"><ele>557.0</ele><time>2026-04-19T06:08:56Z</time></trkpt><trkpt lat="43.925101337991485" lon="12.101592182082111"><ele>557.0</ele><time>2026-04-19T06:08:58Z</time></trkpt><trkpt lat="43.92508432094652" lon="12.101494902196794"><ele>557.0</ele><time>2026-04-19T06:08:59Z</time></trkpt><trkpt lat="43.92508104026459" lon="12.101395888120889"><ele>557.0</ele><time>2026-04-19T06:09:00Z</time></trkpt><trkpt lat="43.92503957619706" lon="12.1012580058892"><ele>557.0</ele><time>2026-04-19T06:09:02Z</time></trkpt><trkpt lat="43.92497757314958" lon="12.1011718665922"><ele>557.0</ele><time>2026-04-19T06:09:05Z</time></trkpt><trkpt lat="43.92490684230167" lon="12.101105649107318"><ele>559.0</ele><time>2026-04-19T06:09:08Z</time></trkpt><trkpt lat="43.924853356872354" lon="12.101055928815256"><ele>561.0</ele><time>2026-04-19T06:09:10Z</time></trkpt><trkpt lat="43.92479696676143" lon="12.101002249121148"><ele>563.0</ele><time>2026-04-19T06:09:13Z</time></trkpt><trkpt lat="43.92473645985079" lon="12.100937904009934"><ele>565.0</ele><time>2026-04-19T06:09:15Z</time></trkpt><trkpt lat="43.924654069574665" lon="12.100903044099562"><ele>567.0</ele><time>2026-04-19T06:09:16Z</time></trkpt><trkpt lat="43.9245742998714" lon="12.100868878603972"><ele>569.0</ele><time>2026-04-19T06:09:17Z</time></trkpt><trkpt lat="43.92451523819977" lon="12.100827098554792"><ele>571.0</ele><time>2026-04-19T06:09:19Z</time></trkpt><trkpt lat="43.92398766002473" lon="12.100472218872994"><ele>571.0</ele><time>2026-04-19T06:09:22Z</time></trkpt><trkpt lat="43.92391465523034" lon="12.100408292690416"><ele>571.0</ele><time>2026-04-19T06:09:25Z</time></trkpt><trkpt lat="43.923841383880955" lon="12.100368965000767"><ele>571.0</ele><time>2026-04-19T06:09:27Z</time></trkpt><trkpt lat="43.92374565282217" lon="12.100399834235366"><ele>571.0</ele><time>2026-04-19T06:09:29Z</time></trkpt><trkpt lat="43.92364209873336" lon="12.100466059457412"><ele>571.0</ele><time>2026-04-19T06:09:31Z</time></trkpt><trkpt lat="43.92356067103732" lon="12.100475983032101"><ele>571.0</ele><time>2026-04-19T06:09:33Z</time></trkpt><trkpt lat="43.92357204450288" lon="12.100362062360725"><ele>571.0</ele><time>2026-04-19T06:09:35Z</time></trkpt><trkpt lat="43.923679920606716" lon="12.10027215530225"><ele>571.0</ele><time>2026-04-19T06:09:37Z</time></trkpt><trkpt lat="43.923771311044725" lon="12.100179442408256"><ele>571.0</ele><time>2026-04-19T06:09:38Z</time></trkpt><trkpt lat="43.92386330435702" lon="12.100101000141994"><ele>571.0</ele><time>2026-04-19T06:09:39Z</time></trkpt><trkpt lat="43.923969111801725" lon="12.100020963121683"><ele>571.0</ele><time>2026-04-19T06:09:40Z</time></trkpt><trkpt lat="43.92405388525281" lon="12.099954408894654"><ele>571.0</ele><time>2026-04-19T06:09:41Z</time></trkpt><trkpt lat="43.92415238906923" lon="12.099879455481389"><ele>571.0</ele><time>2026-04-19T06:09:42Z</time></trkpt><trkpt lat="43.92425635941585" lon="12.099791224153376"><ele>571.0</ele><time>2026-04-19T06:09:43Z</time></trkpt><trkpt lat="43.924354039562324" lon="12.099690967864849"><ele>576.5</ele><time>2026-04-19T06:09:44Z</time></trkpt><trkpt lat="43.92442840976151" lon="12.099600795009499"><ele>582.0</ele><time>2026-04-19T06:09:45Z</time></trkpt><trkpt lat="43.92449319041598" lon="12.09951654037804"><ele>587.5</ele><time>2026-04-19T06:09:46Z</time></trkpt><trkpt lat="43.92453735068113" lon="12.09943010030559"><ele>593.0</ele><time>2026-04-19T06:09:47Z</time></trkpt><trkpt lat="43.92459624519244" lon="12.099339131171217"><ele>598.5</ele><time>2026-04-19T06:09:48Z</time></trkpt><trkpt lat="43.92464189164713" lon="12.09924811484208"><ele>604.0</ele><time>2026-04-19T06:09:49Z</time></trkpt><trkpt lat="43.92470379815189" lon="12.099110869151309"><ele>602.0</ele><time>2026-04-19T06:09:51Z</time></trkpt><trkpt lat="43.92480035268098" lon="12.0990077103845"><ele>600.0</ele><time>2026-04-19T06:09:53Z</time></trkpt><trkpt lat="43.92485261853117" lon="12.098947980158066"><ele>598.0</ele><time>2026-04-19T06:09:54Z</time></trkpt><trkpt lat="43.924903395844204" lon="12.098839345791836"><ele>596.0</ele><time>2026-04-19T06:09:55Z</time></trkpt><trkpt lat="43.92496059486936" lon="12.098724013427733"><ele>594.0</ele><time>2026-04-19T06:09:56Z</time></trkpt><trkpt lat="43.92500478367915" lon="12.09861466938645"><ele>594.0</ele><time>2026-04-19T06:09:57Z</time></trkpt><trkpt lat="43.925031455679154" lon="12.098485434272314"><ele>594.0</ele><time>2026-04-19T06:09:58Z</time></trkpt><trkpt lat="43.92508684248504" lon="12.098357864004134"><ele>594.0</ele><time>2026-04-19T06:09:59Z</time></trkpt><trkpt lat="43.92514649865144" lon="12.098243958676003"><ele>594.0</ele><time>2026-04-19T06:10:00Z</time></trkpt><trkpt lat="43.92518938547481" lon="12.09812483889269"><ele>594.0</ele><time>2026-04-19T06:10:01Z</time></trkpt><trkpt lat="43.92522494920414" lon="12.098007353651687"><ele>595.0</ele><time>2026-04-19T06:10:02Z</time></trkpt><trkpt lat="43.92523979950128" lon="12.097857077756387"><ele>596.0</ele><time>2026-04-19T06:10:03Z</time></trkpt><trkpt lat="43.92523025860857" lon="12.097694945292242"><ele>597.0</ele><time>2026-04-19T06:10:04Z</time></trkpt><trkpt lat="43.92521075987627" lon="12.097543101692123"><ele>598.0</ele><time>2026-04-19T06:10:05Z</time></trkpt><trkpt lat="43.92520367344262" lon="12.097415527316148"><ele>599.0</ele><time>2026-04-19T06:10:06Z</time></trkpt><trkpt lat="43.92524509118344" lon="12.097288588832404"><ele>599.6</ele><time>2026-04-19T06:10:07Z</time></trkpt><trkpt lat="43.92529802959549" lon="12.097147484054961"><ele>600.2</ele><time>2026-04-19T06:10:08Z</time></trkpt><trkpt lat="43.92534363756762" lon="12.09700962168846"><ele>600.8000000000001</ele><time>2026-04-19T06:10:09Z</time></trkpt><trkpt lat="43.925368124329346" lon="12.096855989503645"><ele>601.4</ele><time>2026-04-19T06:10:10Z</time></trkpt><trkpt lat="43.92536981458166" lon="12.096712427826587"><ele>602.0</ele><time>2026-04-19T06:10:11Z</time></trkpt><trkpt lat="43.925351225467104" lon="12.09656979934997"><ele>603.6</ele><time>2026-04-19T06:10:12Z</time></trkpt><trkpt lat="43.925300746415374" lon="12.09644152297625"><ele>605.2</ele><time>2026-04-19T06:10:13Z</time></trkpt><trkpt lat="43.9252320519691" lon="12.096337172273778"><ele>606.8</ele><time>2026-04-19T06:10:14Z</time></trkpt><trkpt lat="43.92518406597886" lon="12.096246483494264"><ele>608.4</ele><time>2026-04-19T06:10:15Z</time></trkpt><trkpt lat="43.92519201764467" lon="12.096159718313638"><ele>610.0</ele><time>2026-04-19T06:10:16Z</time></trkpt><trkpt lat="43.925278586077326" lon="12.096014689874458"><ele>610.0</ele><time>2026-04-19T06:10:18Z</time></trkpt><trkpt lat="43.92537760379706" lon="12.095914783869793"><ele>610.0</ele><time>2026-04-19T06:10:19Z</time></trkpt><trkpt lat="43.92544117595724" lon="12.095807973506037"><ele>610.0</ele><time>2026-04-19T06:10:20Z</time></trkpt><trkpt lat="43.92549299363046" lon="12.095665843209703"><ele>610.0</ele><time>2026-04-19T06:10:21Z</time></trkpt><trkpt lat="43.92552286243081" lon="12.095506546722188"><ele>611.6</ele><time>2026-04-19T06:10:22Z</time></trkpt><trkpt lat="43.925544006617834" lon="12.095345626400237"><ele>613.2</ele><time>2026-04-19T06:10:23Z</time></trkpt><trkpt lat="43.925546986267705" lon="12.095189003295037"><ele>614.8</ele><time>2026-04-19T06:10:24Z</time></trkpt><trkpt lat="43.92553336581907" lon="12.095037282445574"><ele>616.4</ele><time>2026-04-19T06:10:25Z</time></trkpt><trkpt lat="43.925530449912785" lon="12.094909653704354"><ele>618.0</ele><time>2026-04-19T06:10:26Z</time></trkpt><trkpt lat="43.92554994607791" lon="12.094777685954925"><ele>618.8</ele><time>2026-04-19T06:10:27Z</time></trkpt><trkpt lat="43.92560518970621" lon="12.094665850061391"><ele>619.5999999999999</ele><time>2026-04-19T06:10:28Z</time></trkpt><trkpt lat="43.9256670885302" lon="12.0945437877249"><ele>620.4000000000001</ele><time>2026-04-19T06:10:29Z</time></trkpt><trkpt lat="43.925745900573496" lon="12.094436662523758"><ele>621.2</ele><time>2026-04-19T06:10:30Z</time></trkpt><trkpt lat="43.925811313749186" lon="12.094326611314246"><ele>622.0</ele><time>2026-04-19T06:10:31Z</time></trkpt><trkpt lat="43.925852226343764" lon="12.094213243193234"><ele>621.25</ele><time>2026-04-19T06:10:32Z</time></trkpt><trkpt lat="43.92588497014751" lon="12.094076867904603"><ele>620.5</ele><time>2026-04-19T06:10:33Z</time></trkpt><trkpt lat="43.92590339045249" lon="12.093907766592247"><ele>619.75</ele><time>2026-04-19T06:10:34Z</time></trkpt><trkpt lat="43.925920609945805" lon="12.093738035368013"><ele>619.0</ele><time>2026-04-19T06:10:35Z</time></trkpt><trkpt lat="43.92594178131104" lon="12.093579027568024"><ele>621.2</ele><time>2026-04-19T06:10:36Z</time></trkpt><trkpt lat="43.9259645372476" lon="12.09344673945102"><ele>623.4</ele><time>2026-04-19T06:10:37Z</time></trkpt><trkpt lat="43.92601177505108" lon="12.093324868843103"><ele>625.6</ele><time>2026-04-19T06:10:38Z</time></trkpt><trkpt lat="43.92606879529358" lon="12.093218020029369"><ele>627.8</ele><time>2026-04-19T06:10:39Z</time></trkpt><trkpt lat="43.92613928920862" lon="12.093127526549278"><ele>630.0</ele><time>2026-04-19T06:10:40Z</time></trkpt><trkpt lat="43.92619907798322" lon="12.093048569071806"><ele>632.0</ele><time>2026-04-19T06:10:41Z</time></trkpt><trkpt lat="43.92623900919619" lon="12.092951362480381"><ele>634.0</ele><time>2026-04-19T06:10:42Z</time></trkpt><trkpt lat="43.92624716521203" lon="12.09281400944544"><ele>636.0</ele><time>2026-04-19T06:10:43Z</time></trkpt><trkpt lat="43.92627310535742" lon="12.092650338479869"><ele>638.0</ele><time>2026-04-19T06:10:44Z</time></trkpt><trkpt lat="43.92631190818931" lon="12.092489003615196"><ele>640.0</ele><time>2026-04-19T06:10:45Z</time></trkpt><trkpt lat="43.92635472012887" lon="12.09234843853998"><ele>642.4</ele><time>2026-04-19T06:10:46Z</time></trkpt><trkpt lat="43.926390716061576" lon="12.092209664849"><ele>644.8</ele><time>2026-04-19T06:10:47Z</time></trkpt><trkpt lat="43.92641153026946" lon="12.09205726515623"><ele>647.2</ele><time>2026-04-19T06:10:48Z</time></trkpt><trkpt lat="43.92643237756169" lon="12.091911145400726"><ele>649.6</ele><time>2026-04-19T06:10:49Z</time></trkpt><trkpt lat="43.92644352610651" lon="12.091763901061158"><ele>652.0</ele><time>2026-04-19T06:10:50Z</time></trkpt><trkpt lat="43.92643385558822" lon="12.091634560669352"><ele>653.0</ele><time>2026-04-19T06:10:51Z</time></trkpt><trkpt lat="43.9264085825374" lon="12.091518418408725"><ele>654.0</ele><time>2026-04-19T06:10:52Z</time></trkpt><trkpt lat="43.92638685565773" lon="12.091400055178244"><ele>655.0</ele><time>2026-04-19T06:10:53Z</time></trkpt><trkpt lat="43.92638851181381" lon="12.091276395308665"><ele>656.0</ele><time>2026-04-19T06:10:54Z</time></trkpt><trkpt lat="43.92640570244372" lon="12.09116110599883"><ele>657.0</ele><time>2026-04-19T06:10:55Z</time></trkpt><trkpt lat="43.92644595204083" lon="12.091064666567501"><ele>658.0</ele><time>2026-04-19T06:10:56Z</time></trkpt><trkpt lat="43.92649347017799" lon="12.090977700953559"><ele>658.0</ele><time>2026-04-19T06:10:57Z</time></trkpt><trkpt lat="43.92655542632018" lon="12.090902624708292"><ele>658.0</ele><time>2026-04-19T06:10:58Z</time></trkpt><trkpt lat="43.9266417798967" lon="12.090843780683192"><ele>658.0</ele><time>2026-04-19T06:10:59Z</time></trkpt><trkpt lat="43.926740512575535" lon="12.09075149801022"><ele>658.0</ele><time>2026-04-19T06:11:00Z</time></trkpt><trkpt lat="43.926822277722934" lon="12.090644230092556"><ele>658.0</ele><time>2026-04-19T06:11:01Z</time></trkpt><trkpt lat="43.92690593932718" lon="12.09056096739836"><ele>664.5999999999999</ele><time>2026-04-19T06:11:02Z</time></trkpt><trkpt lat="43.926977059093375" lon="12.09052164301181"><ele>671.1999999999999</ele><time>2026-04-19T06:11:03Z</time></trkpt><trkpt lat="43.9270400201641" lon="12.090371600158276"><ele>677.8</ele><time>2026-04-19T06:11:05Z</time></trkpt><trkpt lat="43.92707214592621" lon="12.09028384969638"><ele>684.4</ele><time>2026-04-19T06:11:06Z</time></trkpt><trkpt lat="43.927110966407035" lon="12.090173223744356"><ele>691.0</ele><time>2026-04-19T06:11:07Z</time></trkpt><trkpt lat="43.92713138393434" lon="12.090039359980505"><ele>693.0</ele><time>2026-04-19T06:11:08Z</time></trkpt><trkpt lat="43.927131555070964" lon="12.089910028664871"><ele>695.0</ele><time>2026-04-19T06:11:09Z</time></trkpt><trkpt lat="43.9271146674445" lon="12.089781854263057"><ele>697.0</ele><time>2026-04-19T06:11:10Z</time></trkpt><trkpt lat="43.92710940898874" lon="12.089646878176197"><ele>699.0</ele><time>2026-04-19T06:11:11Z</time></trkpt><trkpt lat="43.9271005180797" lon="12.08950747057889"><ele>701.0</ele><time>2026-04-19T06:11:12Z</time></trkpt><trkpt lat="43.927079739011084" lon="12.089362148871853"><ele>701.0</ele><time>2026-04-19T06:11:13Z</time></trkpt><trkpt lat="43.92709261134697" lon="12.08919720520776"><ele>701.0</ele><time>2026-04-19T06:11:14Z</time></trkpt><trkpt lat="43.92710868882202" lon="12.089047345374619"><ele>701.0</ele><time>2026-04-19T06:11:15Z</time></trkpt><trkpt lat="43.92712062060397" lon="12.08890135778147"><ele>701.0</ele><time>2026-04-19T06:11:16Z</time></trkpt><trkpt lat="43.927144384828026" lon="12.088751164160216"><ele>701.0</ele><time>2026-04-19T06:11:17Z</time></trkpt><trkpt lat="43.927181604467634" lon="12.088564693286882"><ele>705.5</ele><time>2026-04-19T06:11:18Z</time></trkpt><trkpt lat="43.92720808216773" lon="12.0883548067358"><ele>710.0</ele><time>2026-04-19T06:11:19Z</time></trkpt><trkpt lat="43.92721546607972" lon="12.088190954168132"><ele>714.5</ele><time>2026-04-19T06:11:20Z</time></trkpt><trkpt lat="43.927209520532436" lon="12.088017482091042"><ele>719.0</ele><time>2026-04-19T06:11:21Z</time></trkpt><trkpt lat="43.92719845916162" lon="12.087843993899979"><ele>718.75</ele><time>2026-04-19T06:11:22Z</time></trkpt><trkpt lat="43.927178955213485" lon="12.087669899399623"><ele>718.5</ele><time>2026-04-19T06:11:23Z</time></trkpt><trkpt lat="43.92716248434272" lon="12.087500583501008"><ele>718.25</ele><time>2026-04-19T06:11:24Z</time></trkpt><trkpt lat="43.92716036447591" lon="12.087324801965881"><ele>718.0</ele><time>2026-04-19T06:11:25Z</time></trkpt><trkpt lat="43.92716781951948" lon="12.0871408953122"><ele>718.0</ele><time>2026-04-19T06:11:26Z</time></trkpt><trkpt lat="43.92717093432054" lon="12.08696141127454"><ele>718.0</ele><time>2026-04-19T06:11:27Z</time></trkpt><trkpt lat="43.927179906674276" lon="12.086821095685174"><ele>718.0</ele><time>2026-04-19T06:11:28Z</time></trkpt><trkpt lat="43.92722390960138" lon="12.086677548046115"><ele>718.0</ele><time>2026-04-19T06:11:30Z</time></trkpt><trkpt lat="43.927251331643674" lon="12.086594204628629"><ele>718.0</ele><time>2026-04-19T06:11:31Z</time></trkpt><trkpt lat="43.92722131609863" lon="12.086449238212689"><ele>715.3333333333334</ele><time>2026-04-19T06:11:33Z</time></trkpt><trkpt lat="43.92718021213801" lon="12.086374252790685"><ele>712.6666666666667</ele><time>2026-04-19T06:11:34Z</time></trkpt><trkpt lat="43.92711680109338" lon="12.086319221563627"><ele>710.0</ele><time>2026-04-19T06:11:35Z</time></trkpt><trkpt lat="43.927036284978946" lon="12.086289313411235"><ele>707.3333333333334</ele><time>2026-04-19T06:11:36Z</time></trkpt><trkpt lat="43.92694031589781" lon="12.08629711751074"><ele>704.6666666666666</ele><time>2026-04-19T06:11:37Z</time></trkpt><trkpt lat="43.92683899733459" lon="12.086302395517475"><ele>702.0</ele><time>2026-04-19T06:11:38Z</time></trkpt><trkpt lat="43.926744619380045" lon="12.086259159239095"><ele>704.2</ele><time>2026-04-19T06:11:39Z</time></trkpt><trkpt lat="43.926665383330224" lon="12.086194207015813"><ele>706.4000000000001</ele><time>2026-04-19T06:11:40Z</time></trkpt><trkpt lat="43.92661923699802" lon="12.08609058150871"><ele>708.5999999999999</ele><time>2026-04-19T06:11:41Z</time></trkpt><trkpt lat="43.926585070725835" lon="12.085958699664939"><ele>710.8</ele><time>2026-04-19T06:11:42Z</time></trkpt><trkpt lat="43.926560168013005" lon="12.085827075351627"><ele>713.0</ele><time>2026-04-19T06:11:43Z</time></trkpt><trkpt lat="43.92652177305968" lon="12.085691244382945"><ele>713.0</ele><time>2026-04-19T06:11:44Z</time></trkpt><trkpt lat="43.926459701735645" lon="12.085574495838975"><ele>713.0</ele><time>2026-04-19T06:11:45Z</time></trkpt><trkpt lat="43.926388268659885" lon="12.085458672887427"><ele>713.0</ele><time>2026-04-19T06:11:46Z</time></trkpt><trkpt lat="43.92631310424241" lon="12.08534398931134"><ele>713.0</ele><time>2026-04-19T06:11:47Z</time></trkpt><trkpt lat="43.926248168575434" lon="12.085234545246434"><ele>713.0</ele><time>2026-04-19T06:11:48Z</time></trkpt><trkpt lat="43.926187888492905" lon="12.085122721542136"><ele>713.0</ele><time>2026-04-19T06:11:49Z</time></trkpt><trkpt lat="43.926135896834474" lon="12.085008723174788"><ele>713.0</ele><time>2026-04-19T06:11:50Z</time></trkpt><trkpt lat="43.9261032828777" lon="12.084906225306554"><ele>713.0</ele><time>2026-04-19T06:11:51Z</time></trkpt><trkpt lat="43.92608546860257" lon="12.08480341978991"><ele>713.0</ele><time>2026-04-19T06:11:52Z</time></trkpt><trkpt lat="43.92603996429285" lon="12.084720145926491"><ele>713.0</ele><time>2026-04-19T06:11:53Z</time></trkpt><trkpt lat="43.926022047929486" lon="12.084612696592654"><ele>713.0</ele><time>2026-04-19T06:11:54Z</time></trkpt><trkpt lat="43.9260191728828" lon="12.084512445532308"><ele>712.3333333333333</ele><time>2026-04-19T06:11:55Z</time></trkpt><trkpt lat="43.92604249812678" lon="12.084416480434072"><ele>711.6666666666666</ele><time>2026-04-19T06:11:56Z</time></trkpt><trkpt lat="43.92603946017407" lon="12.084316344163023"><ele>711.0</ele><time>2026-04-19T06:11:57Z</time></trkpt><trkpt lat="43.9260535110531" lon="12.084192415362681"><ele>710.3333333333334</ele><time>2026-04-19T06:11:58Z</time></trkpt><trkpt lat="43.926055158873794" lon="12.084080081465148"><ele>709.6666666666667</ele><time>2026-04-19T06:11:59Z</time></trkpt><trkpt lat="43.92605012258549" lon="12.08395216138212"><ele>709.0</ele><time>2026-04-19T06:12:01Z</time></trkpt><trkpt lat="43.92604350793391" lon="12.083859243135137"><ele>709.0</ele><time>2026-04-19T06:12:03Z</time></trkpt><trkpt lat="43.926086247934016" lon="12.083766488297494"><ele>709.0</ele><time>2026-04-19T06:12:07Z</time></trkpt><trkpt lat="43.92649502203547" lon="12.083701281427212"><ele>709.0</ele><time>2026-04-19T06:12:08Z</time></trkpt><trkpt lat="43.92646946371224" lon="12.083576824133532"><ele>709.0</ele><time>2026-04-19T06:12:10Z</time></trkpt><trkpt lat="43.9265458850126" lon="12.083435727340452"><ele>709.0</ele><time>2026-04-19T06:12:12Z</time></trkpt><trkpt lat="43.926571520556266" lon="12.083352356922788"><ele>709.0</ele><time>2026-04-19T06:12:13Z</time></trkpt><trkpt lat="43.926567843525" lon="12.083262153560401"><ele>709.0</ele><time>2026-04-19T06:12:14Z</time></trkpt><trkpt lat="43.92658003697682" lon="12.08317440988838"><ele>709.0</ele><time>2026-04-19T06:12:15Z</time></trkpt><trkpt lat="43.92661518248957" lon="12.082975541622208"><ele>706.2</ele><time>2026-04-19T06:12:17Z</time></trkpt><trkpt lat="43.92665842388578" lon="12.082866809671222"><ele>703.4000000000001</ele><time>2026-04-19T06:12:18Z</time></trkpt><trkpt lat="43.92664824362119" lon="12.082714255652059"><ele>700.6</ele><time>2026-04-19T06:12:20Z</time></trkpt><trkpt lat="43.92661205741178" lon="12.082601235310355"><ele>697.8</ele><time>2026-04-19T06:12:21Z</time></trkpt><trkpt lat="43.9265728767206" lon="12.082491530854279"><ele>695.0</ele><time>2026-04-19T06:12:22Z</time></trkpt><trkpt lat="43.92657371024533" lon="12.082373993817681"><ele>692.0</ele><time>2026-04-19T06:12:23Z</time></trkpt><trkpt lat="43.926501060364664" lon="12.082289687331947"><ele>689.0</ele><time>2026-04-19T06:12:25Z</time></trkpt><trkpt lat="43.92644134902883" lon="12.082255529478415"><ele>686.0</ele><time>2026-04-19T06:12:26Z</time></trkpt><trkpt lat="43.92641015486338" lon="12.082168206828989"><ele>683.0</ele><time>2026-04-19T06:12:27Z</time></trkpt><trkpt lat="43.926404422631414" lon="12.08205844748899"><ele>680.0</ele><time>2026-04-19T06:12:28Z</time></trkpt><trkpt lat="43.92643017138529" lon="12.081945757932164"><ele>677.0</ele><time>2026-04-19T06:12:31Z</time></trkpt><trkpt lat="43.92640183269129" lon="12.081801731104862"><ele>674.6666666666666</ele><time>2026-04-19T06:12:34Z</time></trkpt><trkpt lat="43.92625340859456" lon="12.08136582555326"><ele>672.3333333333334</ele><time>2026-04-19T06:12:37Z</time></trkpt><trkpt lat="43.92625419092605" lon="12.08125745392842"><ele>670.0</ele><time>2026-04-19T06:12:38Z</time></trkpt><trkpt lat="43.92625378415718" lon="12.081157551673083"><ele>670.0</ele><time>2026-04-19T06:12:39Z</time></trkpt><trkpt lat="43.92627431666793" lon="12.08105086711314"><ele>670.0</ele><time>2026-04-19T06:12:40Z</time></trkpt><trkpt lat="43.92629662670107" lon="12.080928194045226"><ele>670.0</ele><time>2026-04-19T06:12:41Z</time></trkpt><trkpt lat="43.92632238554451" lon="12.080814672835997"><ele>670.0</ele><time>2026-04-19T06:12:42Z</time></trkpt><trkpt lat="43.92634919601625" lon="12.080710483583246"><ele>670.0</ele><time>2026-04-19T06:12:43Z</time></trkpt><trkpt lat="43.926365322464356" lon="12.080615429848796"><ele>670.0</ele><time>2026-04-19T06:12:44Z</time></trkpt><trkpt lat="43.92638176669817" lon="12.080515804299626"><ele>671.0</ele><time>2026-04-19T06:12:45Z</time></trkpt><trkpt lat="43.92640149002942" lon="12.080426816793683"><ele>672.0</ele><time>2026-04-19T06:12:46Z</time></trkpt><trkpt lat="43.92642186349308" lon="12.08033362643832"><ele>673.0</ele><time>2026-04-19T06:12:47Z</time></trkpt><trkpt lat="43.92645824645252" lon="12.080255359548575"><ele>674.0</ele><time>2026-04-19T06:12:48Z</time></trkpt><trkpt lat="43.926538674739625" lon="12.080198664688027"><ele>675.0</ele><time>2026-04-19T06:12:50Z</time></trkpt><trkpt lat="43.92663580488769" lon="12.080164267304895"><ele>676.0</ele><time>2026-04-19T06:12:52Z</time></trkpt><trkpt lat="43.9267213314233" lon="12.080054948374388"><ele>676.0</ele><time>2026-04-19T06:12:54Z</time></trkpt><trkpt lat="43.92674790257415" lon="12.079939835972324"><ele>676.0</ele><time>2026-04-19T06:12:56Z</time></trkpt><trkpt lat="43.92668523871437" lon="12.079883236079795"><ele>676.0</ele><time>2026-04-19T06:12:59Z</time></trkpt><trkpt lat="43.926716270606335" lon="12.079787652297652"><ele>676.0</ele><time>2026-04-19T06:13:02Z</time></trkpt><trkpt lat="43.92678788185818" lon="12.079739285940411"><ele>676.0</ele><time>2026-04-19T06:13:06Z</time></trkpt><trkpt lat="43.926844545571825" lon="12.079681910347832"><ele>676.0</ele><time>2026-04-19T06:13:08Z</time></trkpt><trkpt lat="43.92692963634183" lon="12.079615150421747"><ele>676.0</ele><time>2026-04-19T06:13:10Z</time></trkpt><trkpt lat="43.926994773778674" lon="12.079540188037473"><ele>676.0</ele><time>2026-04-19T06:13:12Z</time></trkpt><trkpt lat="43.92708370413984" lon="12.079477032228638"><ele>676.0</ele><time>2026-04-19T06:13:15Z</time></trkpt><trkpt lat="43.92719937895719" lon="12.07937349557659"><ele>676.0</ele><time>2026-04-19T06:13:17Z</time></trkpt><trkpt lat="43.92725969427946" lon="12.079320027187705"><ele>676.0</ele><time>2026-04-19T06:13:18Z</time></trkpt><trkpt lat="43.92732840305726" lon="12.07927294863875"><ele>676.0</ele><time>2026-04-19T06:13:19Z</time></trkpt><trkpt lat="43.92740512567159" lon="12.079201890388884"><ele>676.0</ele><time>2026-04-19T06:13:21Z</time></trkpt><trkpt lat="43.92750730090263" lon="12.079129089709177"><ele>676.0</ele><time>2026-04-19T06:13:23Z</time></trkpt><trkpt lat="43.92761858654202" lon="12.079102633701817"><ele>676.0</ele><time>2026-04-19T06:13:25Z</time></trkpt><trkpt lat="43.92768175134779" lon="12.079110471074463"><ele>676.0</ele><time>2026-04-19T06:13:26Z</time></trkpt><trkpt lat="43.92776192068931" lon="12.079136474524939"><ele>673.1999999999999</ele><time>2026-04-19T06:13:27Z</time></trkpt><trkpt lat="43.92783293650605" lon="12.079158339357404"><ele>670.4</ele><time>2026-04-19T06:13:28Z</time></trkpt><trkpt lat="43.927967167530404" lon="12.079238872267467"><ele>667.6</ele><time>2026-04-19T06:13:30Z</time></trkpt><trkpt lat="43.92804881682504" lon="12.079281034856917"><ele>664.8</ele><time>2026-04-19T06:13:31Z</time></trkpt><trkpt lat="43.92812631686491" lon="12.079328448631712"><ele>662.0</ele><time>2026-04-19T06:13:32Z</time></trkpt><trkpt lat="43.928190018046685" lon="12.079385509076157"><ele>662.0</ele><time>2026-04-19T06:13:33Z</time></trkpt><trkpt lat="43.92826353603853" lon="12.079445029511163"><ele>662.0</ele><time>2026-04-19T06:13:34Z</time></trkpt><trkpt lat="43.928327309614986" lon="12.079503703822422"><ele>662.0</ele><time>2026-04-19T06:13:35Z</time></trkpt><trkpt lat="43.9283870727596" lon="12.079551054058253"><ele>662.0</ele><time>2026-04-19T06:13:36Z</time></trkpt><trkpt lat="43.92849335172404" lon="12.079633035365433"><ele>662.0</ele><time>2026-04-19T06:13:38Z</time></trkpt><trkpt lat="43.928585166949944" lon="12.079615834396625"><ele>662.0</ele><time>2026-04-19T06:13:40Z</time></trkpt><trkpt lat="43.92861848685462" lon="12.079505968026753"><ele>658.2</ele><time>2026-04-19T06:13:42Z</time></trkpt><trkpt lat="43.92859138538953" lon="12.079369580821371"><ele>654.4000000000001</ele><time>2026-04-19T06:13:44Z</time></trkpt><trkpt lat="43.928580883740175" lon="12.079214551508707"><ele>650.5999999999999</ele><time>2026-04-19T06:13:46Z</time></trkpt><trkpt lat="43.92861225193487" lon="12.079131215299023"><ele>646.8</ele><time>2026-04-19T06:13:47Z</time></trkpt><trkpt lat="43.92868901542254" lon="12.078979539683035"><ele>643.0</ele><time>2026-04-19T06:13:49Z</time></trkpt><trkpt lat="43.92873863776711" lon="12.078892130779957"><ele>643.0</ele><time>2026-04-19T06:13:50Z</time></trkpt><trkpt lat="43.928819023933755" lon="12.078808846113326"><ele>643.0</ele><time>2026-04-19T06:13:51Z</time></trkpt><trkpt lat="43.92887378896547" lon="12.078711322671086"><ele>643.0</ele><time>2026-04-19T06:13:52Z</time></trkpt><trkpt lat="43.92891375546186" lon="12.078621332251425"><ele>643.0</ele><time>2026-04-19T06:13:53Z</time></trkpt><trkpt lat="43.92895570449295" lon="12.078530874906656"><ele>643.0</ele><time>2026-04-19T06:13:54Z</time></trkpt><trkpt lat="43.92898989665626" lon="12.078434683146616"><ele>643.0</ele><time>2026-04-19T06:13:55Z</time></trkpt><trkpt lat="43.929022136596316" lon="12.078336738217338"><ele>644.5999999999999</ele><time>2026-04-19T06:13:56Z</time></trkpt><trkpt lat="43.92905252661049" lon="12.07825887386426"><ele>646.1999999999999</ele><time>2026-04-19T06:13:57Z</time></trkpt><trkpt lat="43.92913987260201" lon="12.078134325846545"><ele>647.8</ele><time>2026-04-19T06:13:59Z</time></trkpt><trkpt lat="43.92920065621797" lon="12.078035331248433"><ele>649.4</ele><time>2026-04-19T06:14:01Z</time></trkpt><trkpt lat="43.92921604100805" lon="12.077899958972644"><ele>651.0</ele><time>2026-04-19T06:14:03Z</time></trkpt><trkpt lat="43.92924701763885" lon="12.077749343489211"><ele>651.0</ele><time>2026-04-19T06:14:05Z</time></trkpt><trkpt lat="43.9293343376856" lon="12.077651602872637"><ele>651.0</ele><time>2026-04-19T06:14:06Z</time></trkpt><trkpt lat="43.929409100023236" lon="12.077596726192102"><ele>651.0</ele><time>2026-04-19T06:14:07Z</time></trkpt><trkpt lat="43.929479506043826" lon="12.077544149676463"><ele>651.0</ele><time>2026-04-19T06:14:08Z</time></trkpt><trkpt lat="43.929556118453796" lon="12.077491770019138"><ele>651.0</ele><time>2026-04-19T06:14:09Z</time></trkpt><trkpt lat="43.92963050657538" lon="12.077475798721528"><ele>651.0</ele><time>2026-04-19T06:14:10Z</time></trkpt><trkpt lat="43.92970160884787" lon="12.077483893806674"><ele>651.0</ele><time>2026-04-19T06:14:11Z</time></trkpt><trkpt lat="43.929777839600234" lon="12.07751119461302"><ele>651.0</ele><time>2026-04-19T06:14:12Z</time></trkpt><trkpt lat="43.92986186594843" lon="12.077529654419768"><ele>651.0</ele><time>2026-04-19T06:14:13Z</time></trkpt><trkpt lat="43.92994537856316" lon="12.077552113558959"><ele>651.0</ele><time>2026-04-19T06:14:14Z</time></trkpt><trkpt lat="43.930025922375826" lon="12.077555487028595"><ele>651.0</ele><time>2026-04-19T06:14:15Z</time></trkpt><trkpt lat="43.930120976050674" lon="12.077539966862961"><ele>651.0</ele><time>2026-04-19T06:14:16Z</time></trkpt><trkpt lat="43.9302144507668" lon="12.077504255854524"><ele>652.8</ele><time>2026-04-19T06:14:17Z</time></trkpt><trkpt lat="43.930302139308566" lon="12.077450637889683"><ele>654.5999999999999</ele><time>2026-04-19T06:14:18Z</time></trkpt><trkpt lat="43.93038590791676" lon="12.077385010021208"><ele>656.4</ele><time>2026-04-19T06:14:19Z</time></trkpt><trkpt lat="43.930476762831" lon="12.077334171827404"><ele>658.2</ele><time>2026-04-19T06:14:20Z</time></trkpt><trkpt lat="43.930559824707856" lon="12.077297667092349"><ele>660.0</ele><time>2026-04-19T06:14:21Z</time></trkpt><trkpt lat="43.930644446833085" lon="12.07728087601216"><ele>660.0</ele><time>2026-04-19T06:14:22Z</time></trkpt><trkpt lat="43.93071951412052" lon="12.077261503530298"><ele>660.0</ele><time>2026-04-19T06:14:23Z</time></trkpt><trkpt lat="43.9307915864901" lon="12.077223576174152"><ele>660.0</ele><time>2026-04-19T06:14:24Z</time></trkpt><trkpt lat="43.93087450018608" lon="12.077185620548548"><ele>660.0</ele><time>2026-04-19T06:14:25Z</time></trkpt><trkpt lat="43.9309640385301" lon="12.077150516999552"><ele>660.0</ele><time>2026-04-19T06:14:26Z</time></trkpt><trkpt lat="43.9310360060114" lon="12.077128786464275"><ele>660.0</ele><time>2026-04-19T06:14:27Z</time></trkpt><trkpt lat="43.93111405162059" lon="12.077090118884682"><ele>655.5</ele><time>2026-04-19T06:14:28Z</time></trkpt><trkpt lat="43.931182011466504" lon="12.07706765605487"><ele>651.0</ele><time>2026-04-19T06:14:29Z</time></trkpt><trkpt lat="43.93124532914124" lon="12.07701712983527"><ele>646.5</ele><time>2026-04-19T06:14:30Z</time></trkpt><trkpt lat="43.931312958347505" lon="12.07695934163609"><ele>642.0</ele><time>2026-04-19T06:14:31Z</time></trkpt><trkpt lat="43.93140271283134" lon="12.076903542660133"><ele>637.5</ele><time>2026-04-19T06:14:32Z</time></trkpt><trkpt lat="43.931468916025764" lon="12.076824781582538"><ele>633.0</ele><time>2026-04-19T06:14:33Z</time></trkpt><trkpt lat="43.931532481151216" lon="12.076732493849217"><ele>633.0</ele><time>2026-04-19T06:14:34Z</time></trkpt><trkpt lat="43.93158873982298" lon="12.076633298218217"><ele>633.0</ele><time>2026-04-19T06:14:35Z</time></trkpt><trkpt lat="43.93167535869287" lon="12.076574888772104"><ele>633.0</ele><time>2026-04-19T06:14:36Z</time></trkpt><trkpt lat="43.93173224518152" lon="12.076512847544222"><ele>633.0</ele><time>2026-04-19T06:14:37Z</time></trkpt><trkpt lat="43.9317942883948" lon="12.076461596021076"><ele>633.0</ele><time>2026-04-19T06:14:38Z</time></trkpt><trkpt lat="43.931878606895765" lon="12.07642953524805"><ele>633.0</ele><time>2026-04-19T06:14:39Z</time></trkpt><trkpt lat="43.931959216818356" lon="12.076442370899647"><ele>626.3333333333334</ele><time>2026-04-19T06:14:40Z</time></trkpt><trkpt lat="43.93206251793937" lon="12.076437442314239"><ele>619.6666666666666</ele><time>2026-04-19T06:14:42Z</time></trkpt><trkpt lat="43.932121541438924" lon="12.076391651685974"><ele>613.0</ele><time>2026-04-19T06:14:43Z</time></trkpt><trkpt lat="43.93217518922947" lon="12.076323055778875"><ele>606.3333333333333</ele><time>2026-04-19T06:14:44Z</time></trkpt><trkpt lat="43.93221111352822" lon="12.076226437625682"><ele>599.6666666666666</ele><time>2026-04-19T06:14:45Z</time></trkpt><trkpt lat="43.93217990778066" lon="12.076106061780516"><ele>593.0</ele><time>2026-04-19T06:14:46Z</time></trkpt><trkpt lat="43.932121054018644" lon="12.076009692232192"><ele>593.0</ele><time>2026-04-19T06:14:47Z</time></trkpt><trkpt lat="43.93206706254202" lon="12.075919674632024"><ele>593.0</ele><time>2026-04-19T06:14:48Z</time></trkpt><trkpt lat="43.931997411566485" lon="12.075832345783372"><ele>593.0</ele><time>2026-04-19T06:14:49Z</time></trkpt><trkpt lat="43.93190107375826" lon="12.075759983068005"><ele>593.0</ele><time>2026-04-19T06:14:50Z</time></trkpt><trkpt lat="43.93182856654312" lon="12.075719294690321"><ele>593.0</ele><time>2026-04-19T06:14:51Z</time></trkpt><trkpt lat="43.93175494469421" lon="12.075632316361984"><ele>596.1999999999999</ele><time>2026-04-19T06:14:52Z</time></trkpt><trkpt lat="43.931702154388866" lon="12.075533832733818"><ele>599.4</ele><time>2026-04-19T06:14:53Z</time></trkpt><trkpt lat="43.93164307464163" lon="12.075447709236348"><ele>602.5999999999999</ele><time>2026-04-19T06:14:54Z</time></trkpt><trkpt lat="43.931565323028856" lon="12.075360718764781"><ele>605.8</ele><time>2026-04-19T06:14:55Z</time></trkpt><trkpt lat="43.931483735843464" lon="12.075273255375459"><ele>609.0</ele><time>2026-04-19T06:14:56Z</time></trkpt><trkpt lat="43.9314139569546" lon="12.075174898762427"><ele>609.0</ele><time>2026-04-19T06:14:57Z</time></trkpt><trkpt lat="43.93132715927842" lon="12.07508120438213"><ele>609.0</ele><time>2026-04-19T06:14:58Z</time></trkpt><trkpt lat="43.9312163093851" lon="12.074989030858257"><ele>609.0</ele><time>2026-04-19T06:14:59Z</time></trkpt><trkpt lat="43.93112071116595" lon="12.074919925661293"><ele>609.0</ele><time>2026-04-19T06:15:00Z</time></trkpt><trkpt lat="43.931028056917505" lon="12.074858313579968"><ele>606.0</ele><time>2026-04-19T06:15:01Z</time></trkpt><trkpt lat="43.93097139256953" lon="12.074812233691436"><ele>603.0</ele><time>2026-04-19T06:15:02Z</time></trkpt><trkpt lat="43.930915994859305" lon="12.074740354735637"><ele>600.0</ele><time>2026-04-19T06:15:03Z</time></trkpt><trkpt lat="43.93090247405575" lon="12.074619451205994"><ele>597.0</ele><time>2026-04-19T06:15:04Z</time></trkpt><trkpt lat="43.93093743371078" lon="12.074525945510759"><ele>594.0</ele><time>2026-04-19T06:15:05Z</time></trkpt><trkpt lat="43.930976451213475" lon="12.074412392557775"><ele>591.0</ele><time>2026-04-19T06:15:06Z</time></trkpt><trkpt lat="43.93100487382678" lon="12.07429290026702"><ele>591.0</ele><time>2026-04-19T06:15:07Z</time></trkpt><trkpt lat="43.93101799869471" lon="12.07417737542097"><ele>591.0</ele><time>2026-04-19T06:15:08Z</time></trkpt><trkpt lat="43.93103271850468" lon="12.0740554471573"><ele>591.0</ele><time>2026-04-19T06:15:09Z</time></trkpt><trkpt lat="43.931054555600085" lon="12.073929558334726"><ele>591.0</ele><time>2026-04-19T06:15:10Z</time></trkpt><trkpt lat="43.9310786438134" lon="12.073803220892044"><ele>591.0</ele><time>2026-04-19T06:15:11Z</time></trkpt><trkpt lat="43.931114669269505" lon="12.073699950187635"><ele>591.0</ele><time>2026-04-19T06:15:12Z</time></trkpt><trkpt lat="43.93115326402992" lon="12.073573838387691"><ele>591.2</ele><time>2026-04-19T06:15:13Z</time></trkpt><trkpt lat="43.93117254401849" lon="12.07345796239571"><ele>591.4000000000001</ele><time>2026-04-19T06:15:14Z</time></trkpt><trkpt lat="43.93124351439747" lon="12.073313863649219"><ele>591.6</ele><time>2026-04-19T06:15:16Z</time></trkpt><trkpt lat="43.931281818312925" lon="12.073233239447383"><ele>591.8000000000001</ele><time>2026-04-19T06:15:17Z</time></trkpt><trkpt lat="43.93134908436761" lon="12.07312220322538"><ele>592.0</ele><time>2026-04-19T06:15:18Z</time></trkpt><trkpt lat="43.93142085933903" lon="12.07302729890471"><ele>593.8000000000001</ele><time>2026-04-19T06:15:19Z</time></trkpt><trkpt lat="43.9314682185434" lon="12.07293769535363"><ele>595.6</ele><time>2026-04-19T06:15:20Z</time></trkpt><trkpt lat="43.93154336695308" lon="12.072849734907821"><ele>597.4000000000001</ele><time>2026-04-19T06:15:21Z</time></trkpt><trkpt lat="43.93159795158767" lon="12.072777585346664"><ele>599.2</ele><time>2026-04-19T06:15:22Z</time></trkpt><trkpt lat="43.93171983698839" lon="12.072713938024087"><ele>601.0</ele><time>2026-04-19T06:15:23Z</time></trkpt><trkpt lat="43.931806530476415" lon="12.072635595552853"><ele>593.5</ele><time>2026-04-19T06:15:24Z</time></trkpt><trkpt lat="43.93191736100894" lon="12.072578130273412"><ele>586.0</ele><time>2026-04-19T06:15:25Z</time></trkpt><trkpt lat="43.932056045614516" lon="12.07251375599031"><ele>578.5</ele><time>2026-04-19T06:15:26Z</time></trkpt><trkpt lat="43.93216126334095" lon="12.072459133948993"><ele>571.0</ele><time>2026-04-19T06:15:27Z</time></trkpt><trkpt lat="43.93226648304775" lon="12.072349583679953"><ele>570.6</ele><time>2026-04-19T06:15:29Z</time></trkpt><trkpt lat="43.93236249882019" lon="12.072200435141564"><ele>570.2</ele><time>2026-04-19T06:15:31Z</time></trkpt><trkpt lat="43.93239592789088" lon="12.072109071359996"><ele>569.8</ele><time>2026-04-19T06:15:32Z</time></trkpt><trkpt lat="43.932396239203285" lon="12.071982443271386"><ele>569.4</ele><time>2026-04-19T06:15:34Z</time></trkpt><trkpt lat="43.93236552807678" lon="12.071819607800185"><ele>569.0</ele><time>2026-04-19T06:15:36Z</time></trkpt><trkpt lat="43.932303160803606" lon="12.071703195111366"><ele>569.0</ele><time>2026-04-19T06:15:37Z</time></trkpt><trkpt lat="43.93224912820685" lon="12.071608728201022"><ele>569.0</ele><time>2026-04-19T06:15:38Z</time></trkpt><trkpt lat="43.93214815885001" lon="12.071548720921372"><ele>569.0</ele><time>2026-04-19T06:15:40Z</time></trkpt><trkpt lat="43.93206907775199" lon="12.071583533681082"><ele>569.0</ele><time>2026-04-19T06:15:41Z</time></trkpt><trkpt lat="43.93200440324775" lon="12.071611559848407"><ele>569.0</ele><time>2026-04-19T06:15:42Z</time></trkpt><trkpt lat="43.9319454360102" lon="12.07156755096568"><ele>569.0</ele><time>2026-04-19T06:15:43Z</time></trkpt><trkpt lat="43.93187082568183" lon="12.071475295386973"><ele>566.6666666666666</ele><time>2026-04-19T06:15:44Z</time></trkpt><trkpt lat="43.931836610778056" lon="12.071361992330834"><ele>564.3333333333333</ele><time>2026-04-19T06:15:45Z</time></trkpt><trkpt lat="43.93180767469873" lon="12.071274503267095"><ele>562.0</ele><time>2026-04-19T06:15:46Z</time></trkpt><trkpt lat="43.93177809191028" lon="12.071161592745405"><ele>559.6666666666666</ele><time>2026-04-19T06:15:47Z</time></trkpt><trkpt lat="43.93176170969174" lon="12.07105151511851"><ele>557.3333333333334</ele><time>2026-04-19T06:15:48Z</time></trkpt><trkpt lat="43.931702162907904" lon="12.070935083307175"><ele>555.0</ele><time>2026-04-19T06:15:50Z</time></trkpt><trkpt lat="43.931728422068836" lon="12.070770179426841"><ele>559.8</ele><time>2026-04-19T06:15:52Z</time></trkpt><trkpt lat="43.931665387548264" lon="12.070680620563822"><ele>564.6</ele><time>2026-04-19T06:15:54Z</time></trkpt><trkpt lat="43.93168391897655" lon="12.070548373348505"><ele>569.4</ele><time>2026-04-19T06:15:56Z</time></trkpt><trkpt lat="43.93171714922509" lon="12.070449441912254"><ele>574.2</ele><time>2026-04-19T06:15:58Z</time></trkpt><trkpt lat="43.931685209692134" lon="12.070307703867602"><ele>579.0</ele><time>2026-04-19T06:15:59Z</time></trkpt><trkpt lat="43.9316207393906" lon="12.07013590702652"><ele>579.0</ele><time>2026-04-19T06:16:00Z</time></trkpt><trkpt lat="43.93164229428456" lon="12.069972517348985"><ele>579.0</ele><time>2026-04-19T06:16:01Z</time></trkpt><trkpt lat="43.93151738747685" lon="12.069881710050351"><ele>579.0</ele><time>2026-04-19T06:16:03Z</time></trkpt><trkpt lat="43.93143185346297" lon="12.069803906274146"><ele>579.0</ele><time>2026-04-19T06:16:04Z</time></trkpt><trkpt lat="43.93134916579109" lon="12.069774286613136"><ele>579.0</ele><time>2026-04-19T06:16:05Z</time></trkpt><trkpt lat="43.93129987432795" lon="12.069690740798965"><ele>575.8</ele><time>2026-04-19T06:16:06Z</time></trkpt><trkpt lat="43.93124895794253" lon="12.069631835030208"><ele>572.5999999999999</ele><time>2026-04-19T06:16:07Z</time></trkpt><trkpt lat="43.93116403844128" lon="12.069586825077604"><ele>569.4</ele><time>2026-04-19T06:16:09Z</time></trkpt><trkpt lat="43.93113628785123" lon="12.069448540724006"><ele>566.1999999999999</ele><time>2026-04-19T06:16:11Z</time></trkpt><trkpt lat="43.93125968627165" lon="12.069433088967209"><ele>563.0</ele><time>2026-04-19T06:16:13Z</time></trkpt><trkpt lat="43.93134740405415" lon="12.069427278582625"><ele>563.0</ele><time>2026-04-19T06:16:14Z</time></trkpt><trkpt lat="43.93143049702021" lon="12.069379295647321"><ele>563.0</ele><time>2026-04-19T06:16:15Z</time></trkpt><trkpt lat="43.931489843969025" lon="12.06934988480116"><ele>563.0</ele><time>2026-04-19T06:16:16Z</time></trkpt><trkpt lat="43.9316191761417" lon="12.06936299273267"><ele>563.0</ele><time>2026-04-19T06:16:18Z</time></trkpt><trkpt lat="43.931691945600235" lon="12.069370578504428"><ele>563.0</ele><time>2026-04-19T06:16:19Z</time></trkpt><trkpt lat="43.931793686872275" lon="12.069334615575391"><ele>558.8</ele><time>2026-04-19T06:16:21Z</time></trkpt><trkpt lat="43.93179857236716" lon="12.06918973948412"><ele>554.5999999999999</ele><time>2026-04-19T06:16:23Z</time></trkpt><trkpt lat="43.93176790360857" lon="12.069083850244821"><ele>550.4000000000001</ele><time>2026-04-19T06:16:24Z</time></trkpt><trkpt lat="43.93176581197459" lon="12.068994480442514"><ele>546.2</ele><time>2026-04-19T06:16:25Z</time></trkpt><trkpt lat="43.93178381298798" lon="12.068818091536452"><ele>542.0</ele><time>2026-04-19T06:16:27Z</time></trkpt><trkpt lat="43.93179172044099" lon="12.0687156002227"><ele>542.6</ele><time>2026-04-19T06:16:28Z</time></trkpt><trkpt lat="43.931793691308485" lon="12.068581031373974"><ele>543.2</ele><time>2026-04-19T06:16:30Z</time></trkpt><trkpt lat="43.93176821720559" lon="12.068418043339664"><ele>543.8</ele><time>2026-04-19T06:16:32Z</time></trkpt><trkpt lat="43.931779222466346" lon="12.068325420599983"><ele>544.4</ele><time>2026-04-19T06:16:33Z</time></trkpt><trkpt lat="43.931794280236055" lon="12.068195671277657"><ele>545.0</ele><time>2026-04-19T06:16:35Z</time></trkpt><trkpt lat="43.9318270606031" lon="12.068091797794606"><ele>545.0</ele><time>2026-04-19T06:16:37Z</time></trkpt><trkpt lat="43.931883577205355" lon="12.068001528612797"><ele>545.0</ele><time>2026-04-19T06:16:40Z</time></trkpt><trkpt lat="43.93195413326331" lon="12.067938859495792"><ele>545.0</ele><time>2026-04-19T06:16:43Z</time></trkpt><trkpt lat="43.93199299397612" lon="12.067863047536894"><ele>545.0</ele><time>2026-04-19T06:16:46Z</time></trkpt><trkpt lat="43.932067857538186" lon="12.067811479085222"><ele>545.0</ele><time>2026-04-19T06:16:49Z</time></trkpt><trkpt lat="43.93210635384708" lon="12.067683027979443"><ele>545.0</ele><time>2026-04-19T06:16:51.999Z</time></trkpt><trkpt lat="43.93211735072158" lon="12.06752676645048"><ele>548.4</ele><time>2026-04-19T06:16:53.999Z</time></trkpt><trkpt lat="43.93212494402258" lon="12.067376146163985"><ele>551.8</ele><time>2026-04-19T06:16:55.999Z</time></trkpt><trkpt lat="43.93211021891114" lon="12.067279688527295"><ele>555.2</ele><time>2026-04-19T06:16:56.999Z</time></trkpt><trkpt lat="43.93210741239329" lon="12.067113716458797"><ele>558.6</ele><time>2026-04-19T06:16:58.999Z</time></trkpt><trkpt lat="43.932108928144864" lon="12.067012622094348"><ele>562.0</ele><time>2026-04-19T06:16:59.999Z</time></trkpt><trkpt lat="43.93213121429962" lon="12.066891118024854"><ele>562.0</ele><time>2026-04-19T06:17:00.999Z</time></trkpt><trkpt lat="43.93216975225527" lon="12.066786474187237"><ele>562.0</ele><time>2026-04-19T06:17:01.999Z</time></trkpt><trkpt lat="43.93220879923391" lon="12.06669104823905"><ele>562.0</ele><time>2026-04-19T06:17:02.999Z</time></trkpt><trkpt lat="43.932260913691785" lon="12.0666138347917"><ele>562.0</ele><time>2026-04-19T06:17:03.999Z</time></trkpt><trkpt lat="43.93231539665646" lon="12.066525928044419"><ele>562.0</ele><time>2026-04-19T06:17:04.999Z</time></trkpt><trkpt lat="43.932369345332624" lon="12.066440537532989"><ele>562.0</ele><time>2026-04-19T06:17:05.999Z</time></trkpt><trkpt lat="43.9324230277732" lon="12.066365440395623"><ele>562.8571428571429</ele><time>2026-04-19T06:17:06.999Z</time></trkpt><trkpt lat="43.93246946354227" lon="12.06630566010956"><ele>563.7142857142858</ele><time>2026-04-19T06:17:07.999Z</time></trkpt><trkpt lat="43.93252427412823" lon="12.066250616985558"><ele>564.5714285714286</ele><time>2026-04-19T06:17:08.999Z</time></trkpt><trkpt lat="43.93257578874811" lon="12.06618740525935"><ele>565.4285714285714</ele><time>2026-04-19T06:17:09.999Z</time></trkpt><trkpt lat="43.93263872333536" lon="12.066113495074278"><ele>566.2857142857142</ele><time>2026-04-19T06:17:10.999Z</time></trkpt><trkpt lat="43.93271055720672" lon="12.066053668300192"><ele>567.1428571428571</ele><time>2026-04-19T06:17:11.999Z</time></trkpt><trkpt lat="43.932769979813976" lon="12.066007358560066"><ele>568.0</ele><time>2026-04-19T06:17:12.999Z</time></trkpt><trkpt lat="43.93289111847135" lon="12.065993636367041"><ele>573.1999999999999</ele><time>2026-04-19T06:17:14.999Z</time></trkpt><trkpt lat="43.933009788460375" lon="12.066046975037352"><ele>578.4</ele><time>2026-04-19T06:17:16.999Z</time></trkpt><trkpt lat="43.93305489425053" lon="12.066108509478575"><ele>583.5999999999999</ele><time>2026-04-19T06:17:17.999Z</time></trkpt><trkpt lat="43.93313726000985" lon="12.066234896043502"><ele>588.8</ele><time>2026-04-19T06:17:19.999Z</time></trkpt><trkpt lat="43.93316552740563" lon="12.066318477716218"><ele>594.0</ele><time>2026-04-19T06:17:20.999Z</time></trkpt><trkpt lat="43.93319652212104" lon="12.066415112224515"><ele>594.0</ele><time>2026-04-19T06:17:21.999Z</time></trkpt><trkpt lat="43.933228356334745" lon="12.06653536908598"><ele>594.0</ele><time>2026-04-19T06:17:22.999Z</time></trkpt><trkpt lat="43.933264972086214" lon="12.066641884822412"><ele>594.0</ele><time>2026-04-19T06:17:23.999Z</time></trkpt><trkpt lat="43.933310750721645" lon="12.066706623315348"><ele>594.0</ele><time>2026-04-19T06:17:24.999Z</time></trkpt><trkpt lat="43.933383790363486" lon="12.066713530468993"><ele>594.0</ele><time>2026-04-19T06:17:25.999Z</time></trkpt><trkpt lat="43.93347134929647" lon="12.06668287519448"><ele>594.0</ele><time>2026-04-19T06:17:26.999Z</time></trkpt><trkpt lat="43.9335545202241" lon="12.066657703851913"><ele>597.1666666666666</ele><time>2026-04-19T06:17:27.999Z</time></trkpt><trkpt lat="43.933624747519204" lon="12.066688227273547"><ele>600.3333333333334</ele><time>2026-04-19T06:17:28.999Z</time></trkpt><trkpt lat="43.93368697885439" lon="12.066747141194613"><ele>603.5</ele><time>2026-04-19T06:17:29.999Z</time></trkpt><trkpt lat="43.93376323739573" lon="12.066821215077509"><ele>606.6666666666667</ele><time>2026-04-19T06:17:30.999Z</time></trkpt><trkpt lat="43.93384094445159" lon="12.06691649890573"><ele>609.8333333333334</ele><time>2026-04-19T06:17:31.999Z</time></trkpt><trkpt lat="43.93388973270863" lon="12.067022867842054"><ele>613.0</ele><time>2026-04-19T06:17:32.999Z</time></trkpt><trkpt lat="43.93395651627149" lon="12.06713492990105"><ele>613.0</ele><time>2026-04-19T06:17:33.999Z</time></trkpt><trkpt lat="43.93403143384235" lon="12.067251404702644"><ele>613.0</ele><time>2026-04-19T06:17:34.999Z</time></trkpt><trkpt lat="43.93408973123253" lon="12.067352206425571"><ele>613.0</ele><time>2026-04-19T06:17:35.999Z</time></trkpt><trkpt lat="43.93415022850012" lon="12.06744301668816"><ele>613.0</ele><time>2026-04-19T06:17:36.999Z</time></trkpt><trkpt lat="43.93422029662504" lon="12.067510321893415"><ele>613.0</ele><time>2026-04-19T06:17:37.999Z</time></trkpt><trkpt lat="43.93427620311001" lon="12.067596965478426"><ele>614.1666666666667</ele><time>2026-04-19T06:17:38.999Z</time></trkpt><trkpt lat="43.9343292448082" lon="12.06771163662286"><ele>615.3333333333334</ele><time>2026-04-19T06:17:39.999Z</time></trkpt><trkpt lat="43.93437688721216" lon="12.06782771470719"><ele>616.5</ele><time>2026-04-19T06:17:40.999Z</time></trkpt><trkpt lat="43.9344302961777" lon="12.067936105881216"><ele>617.6666666666666</ele><time>2026-04-19T06:17:41.999Z</time></trkpt><trkpt lat="43.93448550776017" lon="12.068005632514168"><ele>618.8333333333333</ele><time>2026-04-19T06:17:42.999Z</time></trkpt><trkpt lat="43.93453897637576" lon="12.06805771737908"><ele>620.0</ele><time>2026-04-19T06:17:43.999Z</time></trkpt><trkpt lat="43.934637164077316" lon="12.068143769306864"><ele>615.5</ele><time>2026-04-19T06:17:45.999Z</time></trkpt><trkpt lat="43.934700567392056" lon="12.06829077764757"><ele>611.0</ele><time>2026-04-19T06:17:47.999Z</time></trkpt><trkpt lat="43.934705102407015" lon="12.06838329127825"><ele>606.5</ele><time>2026-04-19T06:17:48.999Z</time></trkpt><trkpt lat="43.93473622795236" lon="12.06848028693615"><ele>602.0</ele><time>2026-04-19T06:17:49.999Z</time></trkpt><trkpt lat="43.934789384608976" lon="12.06856450582729"><ele>597.5</ele><time>2026-04-19T06:17:50.999Z</time></trkpt><trkpt lat="43.93486057642284" lon="12.068630992984767"><ele>593.0</ele><time>2026-04-19T06:17:51.999Z</time></trkpt><trkpt lat="43.934940386366186" lon="12.068674634372252"><ele>593.0</ele><time>2026-04-19T06:17:52.999Z</time></trkpt><trkpt lat="43.935016080406804" lon="12.068729595941784"><ele>593.0</ele><time>2026-04-19T06:17:53.999Z</time></trkpt><trkpt lat="43.93510409234847" lon="12.068803519218381"><ele>593.0</ele><time>2026-04-19T06:17:54.999Z</time></trkpt><trkpt lat="43.93517450795283" lon="12.068895165446191"><ele>593.0</ele><time>2026-04-19T06:17:55.999Z</time></trkpt><trkpt lat="43.93522711464269" lon="12.06897680557471"><ele>593.0</ele><time>2026-04-19T06:17:56.999Z</time></trkpt><trkpt lat="43.93528125676936" lon="12.06902394477044"><ele>593.0</ele><time>2026-04-19T06:17:57.999Z</time></trkpt><trkpt lat="43.93537452568051" lon="12.069129830292859"><ele>592.5</ele><time>2026-04-19T06:17:59.999Z</time></trkpt><trkpt lat="43.93541742594262" lon="12.06920459322462"><ele>592.0</ele><time>2026-04-19T06:18:00.999Z</time></trkpt><trkpt lat="43.93546266498733" lon="12.069319717969234"><ele>591.5</ele><time>2026-04-19T06:18:01.999Z</time></trkpt><trkpt lat="43.935499293467714" lon="12.069407205232082"><ele>591.0</ele><time>2026-04-19T06:18:02.999Z</time></trkpt><trkpt lat="43.935595063271016" lon="12.06945491443968"><ele>590.5</ele><time>2026-04-19T06:18:04.999Z</time></trkpt><trkpt lat="43.93566808578343" lon="12.069416675928903"><ele>590.0</ele><time>2026-04-19T06:18:06.999Z</time></trkpt><trkpt lat="43.93574202500262" lon="12.069474477839105"><ele>590.0</ele><time>2026-04-19T06:18:09.999Z</time></trkpt><trkpt lat="43.93579712873255" lon="12.069528970487271"><ele>590.0</ele><time>2026-04-19T06:18:13.999Z</time></trkpt><trkpt lat="43.93592235169089" lon="12.069598376437744"><ele>590.0</ele><time>2026-04-19T06:18:17.999Z</time></trkpt><trkpt lat="43.935997899335" lon="12.069627178539447"><ele>590.0</ele><time>2026-04-19T06:18:19.999Z</time></trkpt><trkpt lat="43.93606431260898" lon="12.069746015057916"><ele>590.0</ele><time>2026-04-19T06:18:21.999Z</time></trkpt><trkpt lat="43.93607384889691" lon="12.069853958631123"><ele>590.25</ele><time>2026-04-19T06:18:23.998Z</time></trkpt><trkpt lat="43.936141922507844" lon="12.070131360418554"><ele>590.5</ele><time>2026-04-19T06:18:25.998Z</time></trkpt><trkpt lat="43.93612636792061" lon="12.070243178609326"><ele>590.75</ele><time>2026-04-19T06:18:26.998Z</time></trkpt><trkpt lat="43.93610715393052" lon="12.070355555377477"><ele>591.0</ele><time>2026-04-19T06:18:27.998Z</time></trkpt><trkpt lat="43.93608656992111" lon="12.070482474186033"><ele>591.0</ele><time>2026-04-19T06:18:28.998Z</time></trkpt><trkpt lat="43.936065214145344" lon="12.070608595429775"><ele>591.0</ele><time>2026-04-19T06:18:29.998Z</time></trkpt><trkpt lat="43.936050283060204" lon="12.070730272076494"><ele>591.0</ele><time>2026-04-19T06:18:30.999Z</time></trkpt><trkpt lat="43.93603319778531" lon="12.070855087396412"><ele>591.0</ele><time>2026-04-19T06:18:31.999Z</time></trkpt><trkpt lat="43.936029010934455" lon="12.070984573515691"><ele>591.0</ele><time>2026-04-19T06:18:32.999Z</time></trkpt><trkpt lat="43.93603852666945" lon="12.071111544965163"><ele>590.1666666666666</ele><time>2026-04-19T06:18:33.999Z</time></trkpt><trkpt lat="43.93605058005847" lon="12.07123933845506"><ele>589.3333333333334</ele><time>2026-04-19T06:18:34.999Z</time></trkpt><trkpt lat="43.93606108553098" lon="12.071376860232192"><ele>588.5</ele><time>2026-04-19T06:18:35.999Z</time></trkpt><trkpt lat="43.936069427940396" lon="12.071477911456585"><ele>587.6666666666667</ele><time>2026-04-19T06:18:36.999Z</time></trkpt><trkpt lat="43.9360822028779" lon="12.07158266198518"><ele>586.8333333333334</ele><time>2026-04-19T06:18:37.999Z</time></trkpt><trkpt lat="43.936172563438824" lon="12.071626269704977"><ele>586.0</ele><time>2026-04-19T06:18:39.999Z</time></trkpt><trkpt lat="43.93623131911778" lon="12.071571195548467"><ele>586.0</ele><time>2026-04-19T06:18:40.999Z</time></trkpt><trkpt lat="43.93631297376403" lon="12.07148606560112"><ele>586.0</ele><time>2026-04-19T06:18:41.999Z</time></trkpt><trkpt lat="43.93636942258323" lon="12.071408578315959"><ele>586.0</ele><time>2026-04-19T06:18:43Z</time></trkpt><trkpt lat="43.93645707917787" lon="12.071370755361508"><ele>586.0</ele><time>2026-04-19T06:18:44Z</time></trkpt><trkpt lat="43.936543626579365" lon="12.071316229173767"><ele>586.0</ele><time>2026-04-19T06:18:45Z</time></trkpt><trkpt lat="43.93662566095406" lon="12.07123437136003"><ele>586.0</ele><time>2026-04-19T06:18:46Z</time></trkpt><trkpt lat="43.936681269557006" lon="12.071134630463824"><ele>586.0</ele><time>2026-04-19T06:18:47Z</time></trkpt><trkpt lat="43.936683951937546" lon="12.071015339348506"><ele>586.0</ele><time>2026-04-19T06:18:48Z</time></trkpt><trkpt lat="43.936667145055154" lon="12.070890690550124"><ele>586.0</ele><time>2026-04-19T06:18:49Z</time></trkpt><trkpt lat="43.93663543023886" lon="12.070761107716653"><ele>586.0</ele><time>2026-04-19T06:18:50Z</time></trkpt><trkpt lat="43.93661381867915" lon="12.07062212124566"><ele>587.0</ele><time>2026-04-19T06:18:51Z</time></trkpt><trkpt lat="43.9366207167456" lon="12.07048222756743"><ele>588.0</ele><time>2026-04-19T06:18:52Z</time></trkpt><trkpt lat="43.93663931148111" lon="12.070367837717082"><ele>589.0</ele><time>2026-04-19T06:18:53Z</time></trkpt><trkpt lat="43.93667424511376" lon="12.070264458304615"><ele>590.0</ele><time>2026-04-19T06:18:54Z</time></trkpt><trkpt lat="43.93671917014562" lon="12.070183854539978"><ele>591.0</ele><time>2026-04-19T06:18:55Z</time></trkpt><trkpt lat="43.936847875864906" lon="12.07018386763242"><ele>594.6666666666666</ele><time>2026-04-19T06:18:57Z</time></trkpt><trkpt lat="43.9369293394684" lon="12.07023704345114"><ele>598.3333333333334</ele><time>2026-04-19T06:18:58Z</time></trkpt><trkpt lat="43.93700444523423" lon="12.070290457873378"><ele>602.0</ele><time>2026-04-19T06:18:59Z</time></trkpt><trkpt lat="43.9370866202287" lon="12.070325207623277"><ele>605.6666666666667</ele><time>2026-04-19T06:19:00Z</time></trkpt><trkpt lat="43.937180418788195" lon="12.070337905291025"><ele>609.3333333333334</ele><time>2026-04-19T06:19:01Z</time></trkpt><trkpt lat="43.937274066693845" lon="12.070328538235898"><ele>613.0</ele><time>2026-04-19T06:19:02Z</time></trkpt><trkpt lat="43.937366676635286" lon="12.0702930666875"><ele>613.0</ele><time>2026-04-19T06:19:03Z</time></trkpt><trkpt lat="43.937448069560595" lon="12.07024408080412"><ele>613.0</ele><time>2026-04-19T06:19:04Z</time></trkpt><trkpt lat="43.937503794340095" lon="12.070176628783582"><ele>613.0</ele><time>2026-04-19T06:19:05Z</time></trkpt><trkpt lat="43.937537719311116" lon="12.070074072386852"><ele>613.0</ele><time>2026-04-19T06:19:06Z</time></trkpt><trkpt lat="43.937557978291835" lon="12.06995120199787"><ele>613.0</ele><time>2026-04-19T06:19:07Z</time></trkpt><trkpt lat="43.937558321381076" lon="12.069822323498503"><ele>613.0</ele><time>2026-04-19T06:19:08Z</time></trkpt><trkpt lat="43.93753759228892" lon="12.069695640830723"><ele>615.1999999999999</ele><time>2026-04-19T06:19:09Z</time></trkpt><trkpt lat="43.93749834192428" lon="12.069588513387638"><ele>617.4</ele><time>2026-04-19T06:19:10Z</time></trkpt><trkpt lat="43.93744948994335" lon="12.069472526625159"><ele>619.5999999999999</ele><time>2026-04-19T06:19:11Z</time></trkpt><trkpt lat="43.93740755814462" lon="12.069348382801586"><ele>621.8</ele><time>2026-04-19T06:19:12Z</time></trkpt><trkpt lat="43.93738487602968" lon="12.069221542806266"><ele>624.0</ele><time>2026-04-19T06:19:13Z</time></trkpt><trkpt lat="43.93739166160702" lon="12.0691009522235"><ele>626.0</ele><time>2026-04-19T06:19:14Z</time></trkpt><trkpt lat="43.937418589637254" lon="12.069001136151703"><ele>628.0</ele><time>2026-04-19T06:19:15Z</time></trkpt><trkpt lat="43.937465310506454" lon="12.068903428864166"><ele>630.0</ele><time>2026-04-19T06:19:16Z</time></trkpt><trkpt lat="43.93754112664457" lon="12.068828036649721"><ele>632.0</ele><time>2026-04-19T06:19:17Z</time></trkpt><trkpt lat="43.93762895687395" lon="12.068748035728804"><ele>634.0</ele><time>2026-04-19T06:19:18Z</time></trkpt><trkpt lat="43.93773346365005" lon="12.068664748898236"><ele>638.2</ele><time>2026-04-19T06:19:19Z</time></trkpt><trkpt lat="43.93782969200143" lon="12.068605386513909"><ele>642.4</ele><time>2026-04-19T06:19:20Z</time></trkpt><trkpt lat="43.937916839910265" lon="12.068602596757183"><ele>646.6</ele><time>2026-04-19T06:19:21Z</time></trkpt><trkpt lat="43.9380024691187" lon="12.068662889879343"><ele>650.8</ele><time>2026-04-19T06:19:22Z</time></trkpt><trkpt lat="43.93809430947386" lon="12.06871289073232"><ele>655.0</ele><time>2026-04-19T06:19:23Z</time></trkpt><trkpt lat="43.93819653124237" lon="12.068719983467973"><ele>655.0</ele><time>2026-04-19T06:19:24Z</time></trkpt><trkpt lat="43.9383091569937" lon="12.06872502503071"><ele>655.0</ele><time>2026-04-19T06:19:25Z</time></trkpt><trkpt lat="43.938426533350196" lon="12.068725069595015"><ele>655.0</ele><time>2026-04-19T06:19:26Z</time></trkpt><trkpt lat="43.93853583888684" lon="12.06873688453094"><ele>655.0</ele><time>2026-04-19T06:19:27Z</time></trkpt><trkpt lat="43.93863369980366" lon="12.068741399785939"><ele>655.0</ele><time>2026-04-19T06:19:28Z</time></trkpt><trkpt lat="43.93872431634172" lon="12.068731130868025"><ele>657.2</ele><time>2026-04-19T06:19:29Z</time></trkpt><trkpt lat="43.938825424713755" lon="12.06868932966379"><ele>659.4</ele><time>2026-04-19T06:19:30Z</time></trkpt><trkpt lat="43.93890896941999" lon="12.068637722579366"><ele>661.5999999999999</ele><time>2026-04-19T06:19:31Z</time></trkpt><trkpt lat="43.93897289404216" lon="12.068580257503593"><ele>663.8</ele><time>2026-04-19T06:19:32Z</time></trkpt><trkpt lat="43.93892992602644" lon="12.068416854929295"><ele>666.0</ele><time>2026-04-19T06:19:34Z</time></trkpt><trkpt lat="43.93886307697278" lon="12.068337027761341"><ele>670.1999999999999</ele><time>2026-04-19T06:19:35Z</time></trkpt><trkpt lat="43.938808899471354" lon="12.068255810744398"><ele>674.4</ele><time>2026-04-19T06:19:36Z</time></trkpt><trkpt lat="43.938759988138656" lon="12.06813093273514"><ele>678.6</ele><time>2026-04-19T06:19:37Z</time></trkpt><trkpt lat="43.93870671673341" lon="12.067995969242645"><ele>682.8</ele><time>2026-04-19T06:19:38Z</time></trkpt><trkpt lat="43.93865339297656" lon="12.067865936059524"><ele>687.0</ele><time>2026-04-19T06:19:39Z</time></trkpt><trkpt lat="43.938609474189676" lon="12.067745114139932"><ele>687.0</ele><time>2026-04-19T06:19:40Z</time></trkpt><trkpt lat="43.9385631143693" lon="12.06761267542551"><ele>687.0</ele><time>2026-04-19T06:19:41Z</time></trkpt><trkpt lat="43.938511850359276" lon="12.067499710262167"><ele>687.0</ele><time>2026-04-19T06:19:42Z</time></trkpt><trkpt lat="43.93844325991457" lon="12.067390755330706"><ele>687.0</ele><time>2026-04-19T06:19:43Z</time></trkpt><trkpt lat="43.938363938613456" lon="12.067294085418718"><ele>687.0</ele><time>2026-04-19T06:19:44Z</time></trkpt><trkpt lat="43.93829682989498" lon="12.067193203557451"><ele>688.2</ele><time>2026-04-19T06:19:45Z</time></trkpt><trkpt lat="43.93822997871516" lon="12.067089430604387"><ele>689.4000000000001</ele><time>2026-04-19T06:19:46Z</time></trkpt><trkpt lat="43.93816350396864" lon="12.066988159811709"><ele>690.5999999999999</ele><time>2026-04-19T06:19:47Z</time></trkpt><trkpt lat="43.938095831454184" lon="12.066872721942369"><ele>691.8</ele><time>2026-04-19T06:19:48Z</time></trkpt><trkpt lat="43.9380406094089" lon="12.066769946280656"><ele>693.0</ele><time>2026-04-19T06:19:49Z</time></trkpt><trkpt lat="43.93797003114012" lon="12.066673074734886"><ele>695.8</ele><time>2026-04-19T06:19:50Z</time></trkpt><trkpt lat="43.93790895610371" lon="12.06658795134511"><ele>698.5999999999999</ele><time>2026-04-19T06:19:51Z</time></trkpt><trkpt lat="43.93784841922691" lon="12.066513111524156"><ele>701.4000000000001</ele><time>2026-04-19T06:19:52Z</time></trkpt><trkpt lat="43.93776501795677" lon="12.066448365182374"><ele>704.2</ele><time>2026-04-19T06:19:53Z</time></trkpt><trkpt lat="43.93765791919716" lon="12.066403320032324"><ele>707.0</ele><time>2026-04-19T06:19:54Z</time></trkpt><trkpt lat="43.937544769384886" lon="12.066376614167238"><ele>707.0</ele><time>2026-04-19T06:19:55Z</time></trkpt><trkpt lat="43.93743639561348" lon="12.066365258427743"><ele>707.0</ele><time>2026-04-19T06:19:56Z</time></trkpt><trkpt lat="43.937351109401746" lon="12.066335125749792"><ele>707.0</ele><time>2026-04-19T06:19:57Z</time></trkpt><trkpt lat="43.937269591511075" lon="12.06628610746814"><ele>707.0</ele><time>2026-04-19T06:19:58Z</time></trkpt><trkpt lat="43.937173854658" lon="12.066231299488166"><ele>707.0</ele><time>2026-04-19T06:19:59Z</time></trkpt><trkpt lat="43.937071144182475" lon="12.066159746888044"><ele>707.0</ele><time>2026-04-19T06:20:00Z</time></trkpt><trkpt lat="43.93698175589124" lon="12.066078659080722"><ele>707.0</ele><time>2026-04-19T06:20:01Z</time></trkpt><trkpt lat="43.93688917351192" lon="12.065993487143485"><ele>707.0</ele><time>2026-04-19T06:20:02Z</time></trkpt><trkpt lat="43.93679804557652" lon="12.065932307178667"><ele>707.0</ele><time>2026-04-19T06:20:03Z</time></trkpt><trkpt lat="43.93669015701524" lon="12.06586547927268"><ele>707.0</ele><time>2026-04-19T06:20:04Z</time></trkpt><trkpt lat="43.936610126986416" lon="12.06580263314316"><ele>706.8333333333333</ele><time>2026-04-19T06:20:05Z</time></trkpt><trkpt lat="43.93654701927945" lon="12.065707361538005"><ele>706.6666666666666</ele><time>2026-04-19T06:20:06Z</time></trkpt><trkpt lat="43.93652359577098" lon="12.065615423673057"><ele>706.5</ele><time>2026-04-19T06:20:07Z</time></trkpt><trkpt lat="43.93656842308412" lon="12.06547031717388"><ele>706.3333333333334</ele><time>2026-04-19T06:20:09Z</time></trkpt><trkpt lat="43.93662007237618" lon="12.065372009972267"><ele>706.1666666666667</ele><time>2026-04-19T06:20:10Z</time></trkpt><trkpt lat="43.93666562301334" lon="12.06529672424066"><ele>706.0</ele><time>2026-04-19T06:20:11Z</time></trkpt><trkpt lat="43.93671773868096" lon="12.06521196598734"><ele>710.0</ele><time>2026-04-19T06:20:12Z</time></trkpt><trkpt lat="43.936781711263016" lon="12.065129487201938"><ele>714.0</ele><time>2026-04-19T06:20:13Z</time></trkpt><trkpt lat="43.936880359006175" lon="12.065127677396456"><ele>718.0</ele><time>2026-04-19T06:20:14Z</time></trkpt><trkpt lat="43.936982908792494" lon="12.065130132267416"><ele>722.0</ele><time>2026-04-19T06:20:15Z</time></trkpt><trkpt lat="43.937103110356176" lon="12.065154350160531"><ele>726.0</ele><time>2026-04-19T06:20:16Z</time></trkpt><trkpt lat="43.9371942954545" lon="12.065130146845286"><ele>726.0</ele><time>2026-04-19T06:20:17Z</time></trkpt><trkpt lat="43.9372926142812" lon="12.065087094341033"><ele>726.0</ele><time>2026-04-19T06:20:18Z</time></trkpt><trkpt lat="43.93740074458844" lon="12.065017577301317"><ele>726.0</ele><time>2026-04-19T06:20:19Z</time></trkpt><trkpt lat="43.93752021092903" lon="12.064922732957102"><ele>726.0</ele><time>2026-04-19T06:20:20Z</time></trkpt><trkpt lat="43.93760940434183" lon="12.064816268147997"><ele>731.75</ele><time>2026-04-19T06:20:21Z</time></trkpt><trkpt lat="43.937721317569384" lon="12.064714084379899"><ele>737.5</ele><time>2026-04-19T06:20:22Z</time></trkpt><trkpt lat="43.937807141723624" lon="12.064609113398074"><ele>743.25</ele><time>2026-04-19T06:20:23Z</time></trkpt><trkpt lat="43.93788893548258" lon="12.064488283835125"><ele>749.0</ele><time>2026-04-19T06:20:24Z</time></trkpt><trkpt lat="43.93803592352206" lon="12.064445524661362"><ele>749.0</ele><time>2026-04-19T06:20:25Z</time></trkpt><trkpt lat="43.93812213788128" lon="12.064392814284977"><ele>749.0</ele><time>2026-04-19T06:20:26Z</time></trkpt><trkpt lat="43.93822984414695" lon="12.064427608751028"><ele>749.0</ele><time>2026-04-19T06:20:27Z</time></trkpt><trkpt lat="43.93835623422391" lon="12.064427720967185"><ele>749.0</ele><time>2026-04-19T06:20:28Z</time></trkpt><trkpt lat="43.93848249441416" lon="12.0644289231497"><ele>747.5</ele><time>2026-04-19T06:20:29Z</time></trkpt><trkpt lat="43.938597710233005" lon="12.064406852416534"><ele>746.0</ele><time>2026-04-19T06:20:30Z</time></trkpt><trkpt lat="43.93872073878613" lon="12.064391936640352"><ele>744.5</ele><time>2026-04-19T06:20:31Z</time></trkpt><trkpt lat="43.93883971936935" lon="12.06443270518807"><ele>743.0</ele><time>2026-04-19T06:20:32Z</time></trkpt><trkpt lat="43.93893444988419" lon="12.064414864467365"><ele>743.0</ele><time>2026-04-19T06:20:33Z</time></trkpt><trkpt lat="43.93901046391545" lon="12.064417941686205"><ele>743.0</ele><time>2026-04-19T06:20:34Z</time></trkpt><trkpt lat="43.93911290709628" lon="12.064399864632353"><ele>743.0</ele><time>2026-04-19T06:20:37Z</time></trkpt><trkpt lat="43.93918472928265" lon="12.064344271196354"><ele>743.0</ele><time>2026-04-19T06:20:39Z</time></trkpt><trkpt lat="43.93929603535569" lon="12.064369174608196"><ele>743.0</ele><time>2026-04-19T06:20:42Z</time></trkpt><trkpt lat="43.939389871177546" lon="12.06435679213321"><ele>743.7142857142858</ele><time>2026-04-19T06:20:43Z</time></trkpt><trkpt lat="43.93947283532579" lon="12.0643439738892"><ele>744.4285714285713</ele><time>2026-04-19T06:20:44Z</time></trkpt><trkpt lat="43.939544698714094" lon="12.06433028978921"><ele>745.1428571428571</ele><time>2026-04-19T06:20:45Z</time></trkpt><trkpt lat="43.93961782090136" lon="12.064316365998993"><ele>745.8571428571429</ele><time>2026-04-19T06:20:46Z</time></trkpt><trkpt lat="43.93968988124062" lon="12.06429142207069"><ele>746.5714285714287</ele><time>2026-04-19T06:20:47Z</time></trkpt><trkpt lat="43.93976019136522" lon="12.064281654470038"><ele>747.2857142857142</ele><time>2026-04-19T06:20:48Z</time></trkpt><trkpt lat="43.93983386068867" lon="12.064270806851951"><ele>748.0</ele><time>2026-04-19T06:20:49Z</time></trkpt><trkpt lat="43.939899007629464" lon="12.06426117630608"><ele>748.0</ele><time>2026-04-19T06:20:50Z</time></trkpt><trkpt lat="43.939972535783276" lon="12.064254013830716"><ele>748.0</ele><time>2026-04-19T06:20:51Z</time></trkpt><trkpt lat="43.94003512993113" lon="12.064271760312547"><ele>748.0</ele><time>2026-04-19T06:20:52Z</time></trkpt><trkpt lat="43.9400897384518" lon="12.064327721784759"><ele>748.0</ele><time>2026-04-19T06:20:53Z</time></trkpt><trkpt lat="43.94012102056809" lon="12.064418813094695"><ele>748.0</ele><time>2026-04-19T06:20:54Z</time></trkpt><trkpt lat="43.9401405072098" lon="12.064519592988685"><ele>748.0</ele><time>2026-04-19T06:20:55Z</time></trkpt><trkpt lat="43.9401632877748" lon="12.064630681378608"><ele>748.0</ele><time>2026-04-19T06:20:56Z</time></trkpt><trkpt lat="43.94019420724545" lon="12.06475386274772"><ele>745.2</ele><time>2026-04-19T06:20:57Z</time></trkpt><trkpt lat="43.94021357226202" lon="12.064877622135842"><ele>742.4</ele><time>2026-04-19T06:20:58Z</time></trkpt><trkpt lat="43.94024326830102" lon="12.064992318728699"><ele>739.6</ele><time>2026-04-19T06:20:59Z</time></trkpt><trkpt lat="43.940272120126345" lon="12.06507712659539"><ele>736.8000000000001</ele><time>2026-04-19T06:21:00Z</time></trkpt><trkpt lat="43.940321162377565" lon="12.065231393073441"><ele>734.0</ele><time>2026-04-19T06:21:02Z</time></trkpt><trkpt lat="43.94037291215031" lon="12.065367080340135"><ele>734.0</ele><time>2026-04-19T06:21:03Z</time></trkpt><trkpt lat="43.940397295405184" lon="12.065488859062302"><ele>734.0</ele><time>2026-04-19T06:21:04Z</time></trkpt><trkpt lat="43.94043363326347" lon="12.06562022473088"><ele>734.0</ele><time>2026-04-19T06:21:05Z</time></trkpt><trkpt lat="43.940465404542856" lon="12.065733735014367"><ele>734.0</ele><time>2026-04-19T06:21:06Z</time></trkpt><trkpt lat="43.94049489821864" lon="12.06583842268162"><ele>734.0</ele><time>2026-04-19T06:21:07Z</time></trkpt><trkpt lat="43.940527180064194" lon="12.06593360629986"><ele>734.0</ele><time>2026-04-19T06:21:08Z</time></trkpt><trkpt lat="43.94059076099978" lon="12.066103293554177"><ele>735.3333333333333</ele><time>2026-04-19T06:21:10Z</time></trkpt><trkpt lat="43.940636755334396" lon="12.06625800383461"><ele>736.6666666666666</ele><time>2026-04-19T06:21:12Z</time></trkpt><trkpt lat="43.94066350634048" lon="12.066341359160552"><ele>738.0</ele><time>2026-04-19T06:21:13Z</time></trkpt><trkpt lat="43.940687209352554" lon="12.066439761935014"><ele>739.3333333333334</ele><time>2026-04-19T06:21:14Z</time></trkpt><trkpt lat="43.940708380435055" lon="12.066550086616976"><ele>740.6666666666667</ele><time>2026-04-19T06:21:15Z</time></trkpt><trkpt lat="43.94074036984775" lon="12.06666923387682"><ele>742.0</ele><time>2026-04-19T06:21:16Z</time></trkpt><trkpt lat="43.94077887597847" lon="12.066794042913873"><ele>743.0</ele><time>2026-04-19T06:21:17Z</time></trkpt><trkpt lat="43.940820677855264" lon="12.066908864838533"><ele>744.0</ele><time>2026-04-19T06:21:18Z</time></trkpt><trkpt lat="43.940869050972466" lon="12.06701406368127"><ele>745.0</ele><time>2026-04-19T06:21:19Z</time></trkpt><trkpt lat="43.94093942345088" lon="12.067111113043113"><ele>746.0</ele><time>2026-04-19T06:21:20Z</time></trkpt><trkpt lat="43.941018463091666" lon="12.067200902949034"><ele>747.0</ele><time>2026-04-19T06:21:21Z</time></trkpt><trkpt lat="43.94109827963742" lon="12.06728298603072"><ele>744.6</ele><time>2026-04-19T06:21:22Z</time></trkpt><trkpt lat="43.94117648585129" lon="12.067364498448311"><ele>742.2</ele><time>2026-04-19T06:21:23Z</time></trkpt><trkpt lat="43.94124906322311" lon="12.067446580273227"><ele>739.8</ele><time>2026-04-19T06:21:24Z</time></trkpt><trkpt lat="43.941328633192335" lon="12.067534277935716"><ele>737.4</ele><time>2026-04-19T06:21:25Z</time></trkpt><trkpt lat="43.941400112157226" lon="12.067617935138964"><ele>735.0</ele><time>2026-04-19T06:21:26Z</time></trkpt><trkpt lat="43.94145539130573" lon="12.067724651478256"><ele>735.0</ele><time>2026-04-19T06:21:27Z</time></trkpt><trkpt lat="43.94147783878457" lon="12.067859755719882"><ele>735.0</ele><time>2026-04-19T06:21:28Z</time></trkpt><trkpt lat="43.94143576751328" lon="12.067981313818876"><ele>735.0</ele><time>2026-04-19T06:21:29Z</time></trkpt><trkpt lat="43.94140844730614" lon="12.068109096974432"><ele>735.0</ele><time>2026-04-19T06:21:30Z</time></trkpt><trkpt lat="43.941402446101854" lon="12.068236093526323"><ele>735.0</ele><time>2026-04-19T06:21:31Z</time></trkpt><trkpt lat="43.94137615151649" lon="12.068351969335529"><ele>735.2</ele><time>2026-04-19T06:21:32Z</time></trkpt><trkpt lat="43.941356104392085" lon="12.068479089553081"><ele>735.4</ele><time>2026-04-19T06:21:33Z</time></trkpt><trkpt lat="43.94133942317728" lon="12.068598512090173"><ele>735.5999999999999</ele><time>2026-04-19T06:21:34Z</time></trkpt><trkpt lat="43.941313721142784" lon="12.068716386806447"><ele>735.8</ele><time>2026-04-19T06:21:35Z</time></trkpt><trkpt lat="43.94128628801359" lon="12.068837803652709"><ele>736.0</ele><time>2026-04-19T06:21:36Z</time></trkpt><trkpt lat="43.94125869277571" lon="12.068961098031217"><ele>736.0</ele><time>2026-04-19T06:21:37Z</time></trkpt><trkpt lat="43.941232471556944" lon="12.069071618975322"><ele>736.0</ele><time>2026-04-19T06:21:38Z</time></trkpt><trkpt lat="43.94121923750702" lon="12.069173703883074"><ele>736.0</ele><time>2026-04-19T06:21:39Z</time></trkpt><trkpt lat="43.941232048332935" lon="12.069278421068194"><ele>736.0</ele><time>2026-04-19T06:21:40Z</time></trkpt><trkpt lat="43.941287974255104" lon="12.069359348665067"><ele>736.0</ele><time>2026-04-19T06:21:41Z</time></trkpt><trkpt lat="43.94135373357125" lon="12.06941466536938"><ele>736.0</ele><time>2026-04-19T06:21:42Z</time></trkpt><trkpt lat="43.941426386342755" lon="12.069447988398478"><ele>735.6666666666667</ele><time>2026-04-19T06:21:43Z</time></trkpt><trkpt lat="43.94149341987787" lon="12.069513212576894"><ele>735.3333333333334</ele><time>2026-04-19T06:21:44Z</time></trkpt><trkpt lat="43.94157366930381" lon="12.069572203526272"><ele>735.0</ele><time>2026-04-19T06:21:45Z</time></trkpt><trkpt lat="43.94162099946649" lon="12.069674549297751"><ele>734.6666666666666</ele><time>2026-04-19T06:21:46Z</time></trkpt><trkpt lat="43.94164217773893" lon="12.069791105426848"><ele>734.3333333333333</ele><time>2026-04-19T06:21:47Z</time></trkpt><trkpt lat="43.941656249423175" lon="12.069904990927714"><ele>734.0</ele><time>2026-04-19T06:21:48Z</time></trkpt><trkpt lat="43.94166948407456" lon="12.070014217085651"><ele>732.3333333333333</ele><time>2026-04-19T06:21:49Z</time></trkpt><trkpt lat="43.94168283996626" lon="12.070119006049625"><ele>730.6666666666666</ele><time>2026-04-19T06:21:50Z</time></trkpt><trkpt lat="43.9417154788719" lon="12.070214840022196"><ele>729.0</ele><time>2026-04-19T06:21:51Z</time></trkpt><trkpt lat="43.941765409820235" lon="12.070303319186117"><ele>727.3333333333334</ele><time>2026-04-19T06:21:52Z</time></trkpt><trkpt lat="43.941832022146514" lon="12.07038049387816"><ele>725.6666666666667</ele><time>2026-04-19T06:21:53Z</time></trkpt><trkpt lat="43.94190090803458" lon="12.070457328351047"><ele>724.0</ele><time>2026-04-19T06:21:54Z</time></trkpt><trkpt lat="43.941973080870284" lon="12.070527717962138"><ele>722.6666666666667</ele><time>2026-04-19T06:21:55Z</time></trkpt><trkpt lat="43.94204266334521" lon="12.070592591721825"><ele>721.3333333333334</ele><time>2026-04-19T06:21:56Z</time></trkpt><trkpt lat="43.942108432081376" lon="12.070649768195585"><ele>720.0</ele><time>2026-04-19T06:21:57Z</time></trkpt><trkpt lat="43.94217733798885" lon="12.070694332621686"><ele>718.6666666666666</ele><time>2026-04-19T06:21:58Z</time></trkpt><trkpt lat="43.94224681406575" lon="12.070714600163482"><ele>717.3333333333333</ele><time>2026-04-19T06:21:59Z</time></trkpt><trkpt lat="43.942317619443564" lon="12.070697618309763"><ele>716.0</ele><time>2026-04-19T06:22:00Z</time></trkpt><trkpt lat="43.94239139011129" lon="12.07066989112113"><ele>716.0</ele><time>2026-04-19T06:22:01Z</time></trkpt><trkpt lat="43.94243090924711" lon="12.07056250312915"><ele>716.0</ele><time>2026-04-19T06:22:02Z</time></trkpt><trkpt lat="43.942471857075866" lon="12.07047147825392"><ele>716.0</ele><time>2026-04-19T06:22:03Z</time></trkpt><trkpt lat="43.942506675105356" lon="12.070377288946032"><ele>716.0</ele><time>2026-04-19T06:22:04Z</time></trkpt><trkpt lat="43.942559427456594" lon="12.070296038133696"><ele>716.0</ele><time>2026-04-19T06:22:05Z</time></trkpt><trkpt lat="43.94260360683625" lon="12.070202171500991"><ele>716.0</ele><time>2026-04-19T06:22:06Z</time></trkpt><trkpt lat="43.94263751644329" lon="12.07009976864694"><ele>714.8333333333333</ele><time>2026-04-19T06:22:07Z</time></trkpt><trkpt lat="43.9426965102597" lon="12.07002410192098"><ele>713.6666666666666</ele><time>2026-04-19T06:22:08Z</time></trkpt><trkpt lat="43.942767909013604" lon="12.06997169889176"><ele>712.5</ele><time>2026-04-19T06:22:09Z</time></trkpt><trkpt lat="43.94284933976227" lon="12.069943179304161"><ele>711.3333333333334</ele><time>2026-04-19T06:22:10Z</time></trkpt><trkpt lat="43.942929154695655" lon="12.069942538180692"><ele>710.1666666666667</ele><time>2026-04-19T06:22:11Z</time></trkpt><trkpt lat="43.94301590262564" lon="12.069969491028878"><ele>709.0</ele><time>2026-04-19T06:22:12Z</time></trkpt><trkpt lat="43.94310424584305" lon="12.070011319148847"><ele>709.0</ele><time>2026-04-19T06:22:13Z</time></trkpt><trkpt lat="43.9431942175583" lon="12.070064471295217"><ele>709.0</ele><time>2026-04-19T06:22:14Z</time></trkpt><trkpt lat="43.94327384053113" lon="12.070121466512092"><ele>709.0</ele><time>2026-04-19T06:22:15Z</time></trkpt><trkpt lat="43.9433475790087" lon="12.070176610356379"><ele>709.0</ele><time>2026-04-19T06:22:16Z</time></trkpt><trkpt lat="43.943419028660024" lon="12.070235997755164"><ele>709.0</ele><time>2026-04-19T06:22:17Z</time></trkpt><trkpt lat="43.94348638308006" lon="12.070298060621328"><ele>709.0</ele><time>2026-04-19T06:22:18Z</time></trkpt><trkpt lat="43.94355652486274" lon="12.07034648250395"><ele>708.5</ele><time>2026-04-19T06:22:19Z</time></trkpt><trkpt lat="43.943627676028065" lon="12.070396924476585"><ele>708.0</ele><time>2026-04-19T06:22:20Z</time></trkpt><trkpt lat="43.94370113315436" lon="12.070459082608009"><ele>707.5</ele><time>2026-04-19T06:22:21Z</time></trkpt><trkpt lat="43.94376929559939" lon="12.070514503853847"><ele>707.0</ele><time>2026-04-19T06:22:22Z</time></trkpt><trkpt lat="43.94383348520584" lon="12.070568436949083"><ele>706.5</ele><time>2026-04-19T06:22:23Z</time></trkpt><trkpt lat="43.94389336428667" lon="12.070629567127282"><ele>706.0</ele><time>2026-04-19T06:22:24Z</time></trkpt><trkpt lat="43.94395881027122" lon="12.070684430502084"><ele>706.0</ele><time>2026-04-19T06:22:25Z</time></trkpt><trkpt lat="43.9440295852863" lon="12.070756355083242"><ele>706.0</ele><time>2026-04-19T06:22:26Z</time></trkpt><trkpt lat="43.94408730855083" lon="12.070866201518161"><ele>706.0</ele><time>2026-04-19T06:22:27Z</time></trkpt><trkpt lat="43.94412832566653" lon="12.070984779256158"><ele>706.0</ele><time>2026-04-19T06:22:28Z</time></trkpt><trkpt lat="43.944152271487" lon="12.071105658095759"><ele>706.0</ele><time>2026-04-19T06:22:29Z</time></trkpt><trkpt lat="43.944166859688345" lon="12.071219047508906"><ele>705.6666666666667</ele><time>2026-04-19T06:22:30Z</time></trkpt><trkpt lat="43.94416595091486" lon="12.07133298580157"><ele>705.3333333333334</ele><time>2026-04-19T06:22:31Z</time></trkpt><trkpt lat="43.94415406361996" lon="12.071451737326406"><ele>705.0</ele><time>2026-04-19T06:22:32Z</time></trkpt><trkpt lat="43.94414266809029" lon="12.071572406683151"><ele>704.6666666666666</ele><time>2026-04-19T06:22:33Z</time></trkpt><trkpt lat="43.94412075362829" lon="12.071691694442444"><ele>704.3333333333333</ele><time>2026-04-19T06:22:34Z</time></trkpt><trkpt lat="43.94409128173331" lon="12.071807344052994"><ele>704.0</ele><time>2026-04-19T06:22:35Z</time></trkpt><trkpt lat="43.9440625041683" lon="12.07192020373324"><ele>703.3333333333333</ele><time>2026-04-19T06:22:36Z</time></trkpt><trkpt lat="43.944037432955525" lon="12.072033838996632"><ele>702.6666666666666</ele><time>2026-04-19T06:22:37Z</time></trkpt><trkpt lat="43.94401100820232" lon="12.072148062344928"><ele>702.0</ele><time>2026-04-19T06:22:38Z</time></trkpt><trkpt lat="43.943992404730444" lon="12.072273696856527"><ele>701.3333333333334</ele><time>2026-04-19T06:22:39Z</time></trkpt><trkpt lat="43.943986121150836" lon="12.072402838252684"><ele>700.6666666666667</ele><time>2026-04-19T06:22:40Z</time></trkpt><trkpt lat="43.943984537036656" lon="12.072529559896212"><ele>700.0</ele><time>2026-04-19T06:22:41Z</time></trkpt><trkpt lat="43.943996713126275" lon="12.072649345310644"><ele>700.0</ele><time>2026-04-19T06:22:42Z</time></trkpt><trkpt lat="43.9440620696675" lon="12.072882242943699"><ele>700.0</ele><time>2026-04-19T06:22:43.999Z</time></trkpt><trkpt lat="43.944097370097744" lon="12.073002617887767"><ele>700.0</ele><time>2026-04-19T06:22:44.999Z</time></trkpt><trkpt lat="43.944122002964036" lon="12.073127286369386"><ele>700.0</ele><time>2026-04-19T06:22:45.999Z</time></trkpt><trkpt lat="43.9441283070834" lon="12.073253943599742"><ele>698.8333333333334</ele><time>2026-04-19T06:22:46.999Z</time></trkpt><trkpt lat="43.94409953683167" lon="12.073372014927104"><ele>697.6666666666667</ele><time>2026-04-19T06:22:47.999Z</time></trkpt><trkpt lat="43.944045036111234" lon="12.073465238723461"><ele>696.5</ele><time>2026-04-19T06:22:48.999Z</time></trkpt><trkpt lat="43.943976995109736" lon="12.073531367133887"><ele>695.3333333333334</ele><time>2026-04-19T06:22:49.999Z</time></trkpt><trkpt lat="43.9439153878843" lon="12.073589851283128"><ele>694.1666666666666</ele><time>2026-04-19T06:22:50.999Z</time></trkpt><trkpt lat="43.94387640650647" lon="12.073682229913587"><ele>693.0</ele><time>2026-04-19T06:22:52Z</time></trkpt><trkpt lat="43.943851149093696" lon="12.073784829006806"><ele>693.0</ele><time>2026-04-19T06:22:53Z</time></trkpt><trkpt lat="43.94385197073932" lon="12.073899229886395"><ele>693.0</ele><time>2026-04-19T06:22:54Z</time></trkpt><trkpt lat="43.94388464289548" lon="12.074001757479644"><ele>693.0</ele><time>2026-04-19T06:22:55Z</time></trkpt><trkpt lat="43.94393598670441" lon="12.074091518401847"><ele>693.0</ele><time>2026-04-19T06:22:56Z</time></trkpt><trkpt lat="43.94398859566018" lon="12.074172652023531"><ele>693.0</ele><time>2026-04-19T06:22:57Z</time></trkpt><trkpt lat="43.94404093448685" lon="12.074257214728455"><ele>693.0</ele><time>2026-04-19T06:22:58Z</time></trkpt><trkpt lat="43.94408188083162" lon="12.074349002528114"><ele>691.5</ele><time>2026-04-19T06:22:59Z</time></trkpt><trkpt lat="43.94412134745611" lon="12.07444091647785"><ele>690.0</ele><time>2026-04-19T06:23:00Z</time></trkpt><trkpt lat="43.94416952829801" lon="12.07452598620842"><ele>688.5</ele><time>2026-04-19T06:23:01Z</time></trkpt><trkpt lat="43.9442280310616" lon="12.074604127736178"><ele>687.0</ele><time>2026-04-19T06:23:02Z</time></trkpt><trkpt lat="43.94430328387219" lon="12.074650428162158"><ele>685.5</ele><time>2026-04-19T06:23:03Z</time></trkpt><trkpt lat="43.94437819274254" lon="12.074697734339848"><ele>684.0</ele><time>2026-04-19T06:23:04Z</time></trkpt><trkpt lat="43.944455090641185" lon="12.074741292858004"><ele>684.8000000000001</ele><time>2026-04-19T06:23:05Z</time></trkpt><trkpt lat="43.944536926544046" lon="12.0748022927984"><ele>685.6</ele><time>2026-04-19T06:23:06Z</time></trkpt><trkpt lat="43.944612435724004" lon="12.074884232409552"><ele>686.4</ele><time>2026-04-19T06:23:07Z</time></trkpt><trkpt lat="43.94467911229744" lon="12.074974390803328"><ele>687.2</ele><time>2026-04-19T06:23:08Z</time></trkpt><trkpt lat="43.944724502485236" lon="12.075087222706117"><ele>688.0</ele><time>2026-04-19T06:23:09Z</time></trkpt><trkpt lat="43.944749837453735" lon="12.07521246502978"><ele>688.0</ele><time>2026-04-19T06:23:10Z</time></trkpt><trkpt lat="43.94478479128331" lon="12.075324805758456"><ele>688.0</ele><time>2026-04-19T06:23:11Z</time></trkpt><trkpt lat="43.944854365039745" lon="12.075413808785495"><ele>688.0</ele><time>2026-04-19T06:23:12Z</time></trkpt><trkpt lat="43.94492822163316" lon="12.075497098321497"><ele>688.0</ele><time>2026-04-19T06:23:13Z</time></trkpt><trkpt lat="43.94500596063821" lon="12.075574074640196"><ele>688.0</ele><time>2026-04-19T06:23:14Z</time></trkpt><trkpt lat="43.94508423851323" lon="12.075626755057016"><ele>686.5999999999999</ele><time>2026-04-19T06:23:15Z</time></trkpt><trkpt lat="43.94516740220507" lon="12.0756373957544"><ele>685.1999999999999</ele><time>2026-04-19T06:23:16Z</time></trkpt><trkpt lat="43.945254587535395" lon="12.075605700387325"><ele>683.8</ele><time>2026-04-19T06:23:17Z</time></trkpt><trkpt lat="43.94535797417198" lon="12.07556989296639"><ele>682.4</ele><time>2026-04-19T06:23:18Z</time></trkpt><trkpt lat="43.945462089936555" lon="12.075560004891509"><ele>681.0</ele><time>2026-04-19T06:23:19Z</time></trkpt><trkpt lat="43.94556288055551" lon="12.075572801802862"><ele>681.0</ele><time>2026-04-19T06:23:20Z</time></trkpt><trkpt lat="43.945660920590186" lon="12.075602494564684"><ele>681.0</ele><time>2026-04-19T06:23:21Z</time></trkpt><trkpt lat="43.945756030835916" lon="12.075652645681926"><ele>681.0</ele><time>2026-04-19T06:23:22Z</time></trkpt><trkpt lat="43.945848377659985" lon="12.075704726261344"><ele>681.0</ele><time>2026-04-19T06:23:23Z</time></trkpt><trkpt lat="43.945938324687866" lon="12.075755701793796"><ele>681.0</ele><time>2026-04-19T06:23:24Z</time></trkpt><trkpt lat="43.946021849930545" lon="12.075816046066159"><ele>673.0</ele><time>2026-04-19T06:23:25Z</time></trkpt><trkpt lat="43.94610690186322" lon="12.075896391945522"><ele>665.0</ele><time>2026-04-19T06:23:26Z</time></trkpt><trkpt lat="43.94617852554475" lon="12.076004168353059"><ele>657.0</ele><time>2026-04-19T06:23:27Z</time></trkpt><trkpt lat="43.946221685839184" lon="12.076125185909072"><ele>649.0</ele><time>2026-04-19T06:23:28Z</time></trkpt><trkpt lat="43.94624774056514" lon="12.076257245033464"><ele>641.0</ele><time>2026-04-19T06:23:29Z</time></trkpt><trkpt lat="43.94626424502264" lon="12.0763895649617"><ele>641.0</ele><time>2026-04-19T06:23:30Z</time></trkpt><trkpt lat="43.946297129561415" lon="12.076500529165285"><ele>641.0</ele><time>2026-04-19T06:23:31Z</time></trkpt><trkpt lat="43.94635787529243" lon="12.076603771921883"><ele>641.0</ele><time>2026-04-19T06:23:32Z</time></trkpt><trkpt lat="43.94642688562832" lon="12.076703044218858"><ele>641.0</ele><time>2026-04-19T06:23:33Z</time></trkpt><trkpt lat="43.94648694519984" lon="12.0768029775585"><ele>641.0</ele><time>2026-04-19T06:23:34Z</time></trkpt><trkpt lat="43.94652426027388" lon="12.076921617313278"><ele>640.1999999999999</ele><time>2026-04-19T06:23:35Z</time></trkpt><trkpt lat="43.9465421601632" lon="12.077053150852866"><ele>639.4</ele><time>2026-04-19T06:23:36Z</time></trkpt><trkpt lat="43.946559135674725" lon="12.077192010008401"><ele>638.6</ele><time>2026-04-19T06:23:37Z</time></trkpt><trkpt lat="43.946570230911576" lon="12.077331994692164"><ele>637.8</ele><time>2026-04-19T06:23:38Z</time></trkpt><trkpt lat="43.946563047001035" lon="12.077472885432138"><ele>637.0</ele><time>2026-04-19T06:23:39Z</time></trkpt><trkpt lat="43.94654251563282" lon="12.077620508183012"><ele>635.0</ele><time>2026-04-19T06:23:40Z</time></trkpt><trkpt lat="43.94651215106492" lon="12.077757750141178"><ele>633.0</ele><time>2026-04-19T06:23:41Z</time></trkpt><trkpt lat="43.94649149420495" lon="12.077888986129977"><ele>631.0</ele><time>2026-04-19T06:23:42Z</time></trkpt><trkpt lat="43.94647167541341" lon="12.078015211959851"><ele>629.0</ele><time>2026-04-19T06:23:43Z</time></trkpt><trkpt lat="43.94645624360286" lon="12.07812716451392"><ele>627.0</ele><time>2026-04-19T06:23:44Z</time></trkpt><trkpt lat="43.946447019108916" lon="12.078231033951813"><ele>626.0</ele><time>2026-04-19T06:23:45Z</time></trkpt><trkpt lat="43.94643347514014" lon="12.078321295618322"><ele>625.0</ele><time>2026-04-19T06:23:46Z</time></trkpt><trkpt lat="43.94643853518977" lon="12.078427200615401"><ele>624.0</ele><time>2026-04-19T06:23:47Z</time></trkpt><trkpt lat="43.946453860365125" lon="12.078537850351257"><ele>623.0</ele><time>2026-04-19T06:23:48Z</time></trkpt><trkpt lat="43.94647042453962" lon="12.078657454054314"><ele>622.0</ele><time>2026-04-19T06:23:49Z</time></trkpt><trkpt lat="43.94650772964653" lon="12.078772214460074"><ele>621.0</ele><time>2026-04-19T06:23:50Z</time></trkpt><trkpt lat="43.94655720428895" lon="12.07889151174715"><ele>621.0</ele><time>2026-04-19T06:23:51Z</time></trkpt><trkpt lat="43.94662321947914" lon="12.078991462851388"><ele>621.0</ele><time>2026-04-19T06:23:52Z</time></trkpt><trkpt lat="43.946702565854295" lon="12.079088728275046"><ele>621.0</ele><time>2026-04-19T06:23:53Z</time></trkpt><trkpt lat="43.94677836237906" lon="12.079184122370975"><ele>621.0</ele><time>2026-04-19T06:23:54Z</time></trkpt><trkpt lat="43.94685424509515" lon="12.079295471406835"><ele>621.0</ele><time>2026-04-19T06:23:55Z</time></trkpt><trkpt lat="43.94691659315565" lon="12.07940062237621"><ele>615.2</ele><time>2026-04-19T06:23:56Z</time></trkpt><trkpt lat="43.9469765915098" lon="12.079496063277155"><ele>609.4000000000001</ele><time>2026-04-19T06:23:57Z</time></trkpt><trkpt lat="43.94702530864702" lon="12.079598457187997"><ele>603.6</ele><time>2026-04-19T06:23:58Z</time></trkpt><trkpt lat="43.94706025616627" lon="12.079696252006599"><ele>597.8000000000001</ele><time>2026-04-19T06:23:59Z</time></trkpt><trkpt lat="43.94712040673714" lon="12.079778266207782"><ele>592.0</ele><time>2026-04-19T06:24:00Z</time></trkpt><trkpt lat="43.947228841736504" lon="12.079791075161983"><ele>592.0</ele><time>2026-04-19T06:24:01Z</time></trkpt><trkpt lat="43.94732715197003" lon="12.079787829000976"><ele>592.0</ele><time>2026-04-19T06:24:02Z</time></trkpt><trkpt lat="43.94742544082157" lon="12.079785320909156"><ele>592.0</ele><time>2026-04-19T06:24:03Z</time></trkpt><trkpt lat="43.94751267527291" lon="12.079788349670352"><ele>592.0</ele><time>2026-04-19T06:24:04Z</time></trkpt><trkpt lat="43.94759701538465" lon="12.079797385354311"><ele>592.0</ele><time>2026-04-19T06:24:05Z</time></trkpt><trkpt lat="43.947683609943795" lon="12.079829989642487"><ele>593.2</ele><time>2026-04-19T06:24:06Z</time></trkpt><trkpt lat="43.94776582195896" lon="12.07990103219624"><ele>594.4000000000001</ele><time>2026-04-19T06:24:07Z</time></trkpt><trkpt lat="43.94784365866189" lon="12.079985997386906"><ele>595.5999999999999</ele><time>2026-04-19T06:24:08Z</time></trkpt><trkpt lat="43.9479312670454" lon="12.080066555405658"><ele>596.8</ele><time>2026-04-19T06:24:09Z</time></trkpt><trkpt lat="43.94801426279503" lon="12.080145263784807"><ele>598.0</ele><time>2026-04-19T06:24:10Z</time></trkpt><trkpt lat="43.948080058845235" lon="12.080239042705736"><ele>598.0</ele><time>2026-04-19T06:24:11Z</time></trkpt><trkpt lat="43.94812890124234" lon="12.08034965002618"><ele>598.0</ele><time>2026-04-19T06:24:12Z</time></trkpt><trkpt lat="43.94817061058791" lon="12.08045824263689"><ele>598.0</ele><time>2026-04-19T06:24:13Z</time></trkpt><trkpt lat="43.948223577085535" lon="12.080562153611286"><ele>598.0</ele><time>2026-04-19T06:24:14Z</time></trkpt><trkpt lat="43.94824227829833" lon="12.080694490995272"><ele>598.0</ele><time>2026-04-19T06:24:15Z</time></trkpt><trkpt lat="43.94825437655519" lon="12.080837881541292"><ele>599.6</ele><time>2026-04-19T06:24:16Z</time></trkpt><trkpt lat="43.9482757931909" lon="12.080988411129232"><ele>601.1999999999999</ele><time>2026-04-19T06:24:17Z</time></trkpt><trkpt lat="43.94831434253784" lon="12.081116210533677"><ele>602.8</ele><time>2026-04-19T06:24:18Z</time></trkpt><trkpt lat="43.94838485211576" lon="12.081230721611504"><ele>604.4</ele><time>2026-04-19T06:24:19Z</time></trkpt><trkpt lat="43.94846512451617" lon="12.081344591978873"><ele>606.0</ele><time>2026-04-19T06:24:20Z</time></trkpt><trkpt lat="43.94853750014402" lon="12.081470316439448"><ele>608.8</ele><time>2026-04-19T06:24:21Z</time></trkpt><trkpt lat="43.94858078736076" lon="12.081622025987993"><ele>611.6</ele><time>2026-04-19T06:24:22Z</time></trkpt><trkpt lat="43.94859585350568" lon="12.081782321640876"><ele>614.4</ele><time>2026-04-19T06:24:23Z</time></trkpt><trkpt lat="43.94859937839296" lon="12.081930437874467"><ele>617.2</ele><time>2026-04-19T06:24:24Z</time></trkpt><trkpt lat="43.948633940804704" lon="12.082043691674432"><ele>620.0</ele><time>2026-04-19T06:24:25Z</time></trkpt><trkpt lat="43.948709897744166" lon="12.082116505034016"><ele>620.0</ele><time>2026-04-19T06:24:26Z</time></trkpt><trkpt lat="43.94880933242762" lon="12.08216167525072"><ele>620.0</ele><time>2026-04-19T06:24:27Z</time></trkpt><trkpt lat="43.94890822995292" lon="12.082223000664937"><ele>620.0</ele><time>2026-04-19T06:24:28Z</time></trkpt><trkpt lat="43.948984531239525" lon="12.082336823221574"><ele>620.0</ele><time>2026-04-19T06:24:29Z</time></trkpt><trkpt lat="43.94900552086088" lon="12.082498978469586"><ele>620.0</ele><time>2026-04-19T06:24:30Z</time></trkpt><trkpt lat="43.94904254833809" lon="12.082655118328793"><ele>619.0</ele><time>2026-04-19T06:24:31Z</time></trkpt><trkpt lat="43.949046173078685" lon="12.082817145740256"><ele>618.0</ele><time>2026-04-19T06:24:32Z</time></trkpt><trkpt lat="43.94903473987937" lon="12.082983487793657"><ele>617.0</ele><time>2026-04-19T06:24:33Z</time></trkpt><trkpt lat="43.94900701332288" lon="12.083146978172334"><ele>616.0</ele><time>2026-04-19T06:24:34Z</time></trkpt><trkpt lat="43.94896130644532" lon="12.083303039770852"><ele>616.0</ele><time>2026-04-19T06:24:35Z</time></trkpt><trkpt lat="43.948899248462155" lon="12.083427079324897"><ele>616.0</ele><time>2026-04-19T06:24:36Z</time></trkpt><trkpt lat="43.94882688837729" lon="12.08351299572177"><ele>616.0</ele><time>2026-04-19T06:24:37Z</time></trkpt><trkpt lat="43.948800599663656" lon="12.083600835355437"><ele>616.0</ele><time>2026-04-19T06:24:38Z</time></trkpt><trkpt lat="43.94886439401623" lon="12.083726891534102"><ele>616.0</ele><time>2026-04-19T06:24:40Z</time></trkpt><trkpt lat="43.94895569624097" lon="12.083757294329756"><ele>616.0</ele><time>2026-04-19T06:24:41Z</time></trkpt><trkpt lat="43.94905385121991" lon="12.083770639116034"><ele>616.0</ele><time>2026-04-19T06:24:42Z</time></trkpt><trkpt lat="43.949142940843494" lon="12.083765482127053"><ele>616.0</ele><time>2026-04-19T06:24:43Z</time></trkpt><trkpt lat="43.949221132168724" lon="12.083712744643455"><ele>616.0</ele><time>2026-04-19T06:24:44Z</time></trkpt><trkpt lat="43.94929711061343" lon="12.083623666853224"><ele>616.0</ele><time>2026-04-19T06:24:45Z</time></trkpt><trkpt lat="43.94938081456893" lon="12.083540247516241"><ele>613.0</ele><time>2026-04-19T06:24:46Z</time></trkpt><trkpt lat="43.94947360258343" lon="12.083500565220401"><ele>610.0</ele><time>2026-04-19T06:24:47Z</time></trkpt><trkpt lat="43.94957512158153" lon="12.083511015570815"><ele>607.0</ele><time>2026-04-19T06:24:48Z</time></trkpt><trkpt lat="43.94968936130281" lon="12.083547022938403"><ele>604.0</ele><time>2026-04-19T06:24:49Z</time></trkpt><trkpt lat="43.94980328560577" lon="12.083592158201897"><ele>601.0</ele><time>2026-04-19T06:24:50Z</time></trkpt><trkpt lat="43.94990601536376" lon="12.083632962154676"><ele>601.0</ele><time>2026-04-19T06:24:51Z</time></trkpt><trkpt lat="43.95000454056297" lon="12.083674423308548"><ele>601.0</ele><time>2026-04-19T06:24:52Z</time></trkpt><trkpt lat="43.95010639377791" lon="12.083732035165912"><ele>601.0</ele><time>2026-04-19T06:24:53Z</time></trkpt><trkpt lat="43.95020603050587" lon="12.083800392596288"><ele>601.0</ele><time>2026-04-19T06:24:54Z</time></trkpt><trkpt lat="43.95029701343149" lon="12.083879994227683"><ele>601.0</ele><time>2026-04-19T06:24:55Z</time></trkpt><trkpt lat="43.95038096917796" lon="12.083958451055778"><ele>598.2</ele><time>2026-04-19T06:24:56Z</time></trkpt><trkpt lat="43.95046646087774" lon="12.084024247823583"><ele>595.4000000000001</ele><time>2026-04-19T06:24:57Z</time></trkpt><trkpt lat="43.95054899743082" lon="12.0840957907934"><ele>592.6</ele><time>2026-04-19T06:24:58Z</time></trkpt><trkpt lat="43.95063189958702" lon="12.084167389305485"><ele>589.8000000000001</ele><time>2026-04-19T06:24:59Z</time></trkpt><trkpt lat="43.95072669161208" lon="12.084224248400634"><ele>587.0</ele><time>2026-04-19T06:25:00Z</time></trkpt><trkpt lat="43.95082363427586" lon="12.084269267731631"><ele>583.4</ele><time>2026-04-19T06:25:01Z</time></trkpt><trkpt lat="43.95091576334644" lon="12.084325608061352"><ele>579.8000000000001</ele><time>2026-04-19T06:25:02Z</time></trkpt><trkpt lat="43.95101856612155" lon="12.084339750952912"><ele>576.2</ele><time>2026-04-19T06:25:03Z</time></trkpt><trkpt lat="43.951118450604255" lon="12.084330024481593"><ele>572.6</ele><time>2026-04-19T06:25:04Z</time></trkpt><trkpt lat="43.95120599148809" lon="12.084313194146663"><ele>569.0</ele><time>2026-04-19T06:25:05Z</time></trkpt><trkpt lat="43.95129459727501" lon="12.084327149605743"><ele>569.0</ele><time>2026-04-19T06:25:06Z</time></trkpt><trkpt lat="43.95137837472266" lon="12.084375775465181"><ele>569.0</ele><time>2026-04-19T06:25:07Z</time></trkpt><trkpt lat="43.95146639162611" lon="12.084412908885199"><ele>569.0</ele><time>2026-04-19T06:25:08Z</time></trkpt><trkpt lat="43.951563168119456" lon="12.084446812396548"><ele>569.0</ele><time>2026-04-19T06:25:09Z</time></trkpt><trkpt lat="43.951657187271145" lon="12.084461711850652"><ele>569.0</ele><time>2026-04-19T06:25:10Z</time></trkpt><trkpt lat="43.95175293118612" lon="12.084483768259732"><ele>565.6</ele><time>2026-04-19T06:25:11Z</time></trkpt><trkpt lat="43.95184942805232" lon="12.084517169564375"><ele>562.2</ele><time>2026-04-19T06:25:12Z</time></trkpt><trkpt lat="43.951947990633634" lon="12.084542371086947"><ele>558.8000000000001</ele><time>2026-04-19T06:25:13Z</time></trkpt><trkpt lat="43.952045023789736" lon="12.08455651315345"><ele>555.4</ele><time>2026-04-19T06:25:14Z</time></trkpt><trkpt lat="43.95213270786618" lon="12.084580648154246"><ele>552.0</ele><time>2026-04-19T06:25:15Z</time></trkpt><trkpt lat="43.95220698322656" lon="12.084614442020754"><ele>552.0</ele><time>2026-04-19T06:25:16Z</time></trkpt><trkpt lat="43.95225995930007" lon="12.084670623468154"><ele>552.0</ele><time>2026-04-19T06:25:17Z</time></trkpt><trkpt lat="43.952297868624214" lon="12.084762717223818"><ele>552.0</ele><time>2026-04-19T06:25:18Z</time></trkpt><trkpt lat="43.95231663476277" lon="12.08486332473624"><ele>552.0</ele><time>2026-04-19T06:25:19Z</time></trkpt><trkpt lat="43.95233732132744" lon="12.08496599227917"><ele>552.0</ele><time>2026-04-19T06:25:20Z</time></trkpt><trkpt lat="43.95236223646131" lon="12.085059720830522"><ele>552.0</ele><time>2026-04-19T06:25:21Z</time></trkpt><trkpt lat="43.95239932442586" lon="12.085154110940453"><ele>552.0</ele><time>2026-04-19T06:25:22Z</time></trkpt><trkpt lat="43.95245069378629" lon="12.085240234507339"><ele>550.8333333333334</ele><time>2026-04-19T06:25:23Z</time></trkpt><trkpt lat="43.95250353566006" lon="12.085325845454337"><ele>549.6666666666666</ele><time>2026-04-19T06:25:24Z</time></trkpt><trkpt lat="43.95255909375692" lon="12.085408164547616"><ele>548.5</ele><time>2026-04-19T06:25:25Z</time></trkpt><trkpt lat="43.95262354046658" lon="12.085480840362909"><ele>547.3333333333333</ele><time>2026-04-19T06:25:26Z</time></trkpt><trkpt lat="43.952699298511334" lon="12.085526999567549"><ele>546.1666666666666</ele><time>2026-04-19T06:25:27Z</time></trkpt><trkpt lat="43.95278647066092" lon="12.08553776105244"><ele>545.0</ele><time>2026-04-19T06:25:28Z</time></trkpt><trkpt lat="43.9528698671589" lon="12.085497555742032"><ele>545.0</ele><time>2026-04-19T06:25:29Z</time></trkpt><trkpt lat="43.95293860039663" lon="12.085418744108791"><ele>545.0</ele><time>2026-04-19T06:25:30Z</time></trkpt><trkpt lat="43.95300970847265" lon="12.085351868059577"><ele>545.0</ele><time>2026-04-19T06:25:31Z</time></trkpt><trkpt lat="43.95308251841941" lon="12.085301012969996"><ele>545.0</ele><time>2026-04-19T06:25:32Z</time></trkpt><trkpt lat="43.95316502365253" lon="12.085269576552525"><ele>545.0</ele><time>2026-04-19T06:25:33Z</time></trkpt><trkpt lat="43.95324808160193" lon="12.085275207878906"><ele>545.0</ele><time>2026-04-19T06:25:34Z</time></trkpt><trkpt lat="43.9533691947055" lon="12.085352689646056"><ele>545.8571428571429</ele><time>2026-04-19T06:25:36Z</time></trkpt><trkpt lat="43.953408228322466" lon="12.085442970981045"><ele>546.7142857142858</ele><time>2026-04-19T06:25:37Z</time></trkpt><trkpt lat="43.95343906191758" lon="12.085536295677198"><ele>547.5714285714286</ele><time>2026-04-19T06:25:38Z</time></trkpt><trkpt lat="43.95347141752086" lon="12.08562397457101"><ele>548.4285714285714</ele><time>2026-04-19T06:25:39Z</time></trkpt><trkpt lat="43.95350751402542" lon="12.085710196491105"><ele>549.2857142857142</ele><time>2026-04-19T06:25:40Z</time></trkpt><trkpt lat="43.95354804609981" lon="12.08579535470225"><ele>550.1428571428571</ele><time>2026-04-19T06:25:41Z</time></trkpt><trkpt lat="43.95359655476642" lon="12.08587225467189"><ele>551.0</ele><time>2026-04-19T06:25:42Z</time></trkpt><trkpt lat="43.95366252004518" lon="12.085937521320574"><ele>551.0</ele><time>2026-04-19T06:25:43Z</time></trkpt><trkpt lat="43.95373193363879" lon="12.085995334977012"><ele>551.0</ele><time>2026-04-19T06:25:44Z</time></trkpt><trkpt lat="43.9538086530262" lon="12.086034349786361"><ele>551.0</ele><time>2026-04-19T06:25:45Z</time></trkpt><trkpt lat="43.95389060837444" lon="12.08605268935037"><ele>551.0</ele><time>2026-04-19T06:25:46Z</time></trkpt><trkpt lat="43.95397383448072" lon="12.086041475805732"><ele>551.0</ele><time>2026-04-19T06:25:47Z</time></trkpt><trkpt lat="43.95405479532181" lon="12.085997807489804"><ele>551.0</ele><time>2026-04-19T06:25:48Z</time></trkpt><trkpt lat="43.9541248609777" lon="12.085934571926852"><ele>551.0</ele><time>2026-04-19T06:25:49Z</time></trkpt><trkpt lat="43.95419048428236" lon="12.085865753603498"><ele>551.0</ele><time>2026-04-19T06:25:50Z</time></trkpt><trkpt lat="43.95425355206441" lon="12.085793783645453"><ele>551.0</ele><time>2026-04-19T06:25:51Z</time></trkpt><trkpt lat="43.95432614514403" lon="12.085731010182869"><ele>551.0</ele><time>2026-04-19T06:25:52Z</time></trkpt><trkpt lat="43.954387740008414" lon="12.085657258470045"><ele>551.0</ele><time>2026-04-19T06:25:53Z</time></trkpt><trkpt lat="43.95445137907663" lon="12.085581059062717"><ele>551.0</ele><time>2026-04-19T06:25:54Z</time></trkpt><trkpt lat="43.95451606352174" lon="12.085504978047235"><ele>546.3333333333333</ele><time>2026-04-19T06:25:55Z</time></trkpt><trkpt lat="43.95458672239899" lon="12.08543276086944"><ele>541.6666666666666</ele><time>2026-04-19T06:25:56Z</time></trkpt><trkpt lat="43.95465910643233" lon="12.085358859538875"><ele>537.0</ele><time>2026-04-19T06:25:57Z</time></trkpt><trkpt lat="43.95473999140964" lon="12.085322536443378"><ele>532.3333333333334</ele><time>2026-04-19T06:25:58Z</time></trkpt><trkpt lat="43.95481705394603" lon="12.085321201163044"><ele>527.6666666666667</ele><time>2026-04-19T06:25:59Z</time></trkpt><trkpt lat="43.95489278477965" lon="12.085359515413424"><ele>523.0</ele><time>2026-04-19T06:26:00Z</time></trkpt><trkpt lat="43.95496620674554" lon="12.08543108836566"><ele>523.0</ele><time>2026-04-19T06:26:01Z</time></trkpt><trkpt lat="43.955030387585936" lon="12.0855280373981"><ele>523.0</ele><time>2026-04-19T06:26:02Z</time></trkpt><trkpt lat="43.95509765727201" lon="12.085615866217825"><ele>523.0</ele><time>2026-04-19T06:26:03Z</time></trkpt><trkpt lat="43.95517801333606" lon="12.085652525520084"><ele>523.0</ele><time>2026-04-19T06:26:04Z</time></trkpt><trkpt lat="43.95525786331497" lon="12.085678577509338"><ele>523.0</ele><time>2026-04-19T06:26:05Z</time></trkpt><trkpt lat="43.9553412784797" lon="12.085683683003145"><ele>523.0</ele><time>2026-04-19T06:26:06Z</time></trkpt><trkpt lat="43.95542674227261" lon="12.085659547017967"><ele>522.8</ele><time>2026-04-19T06:26:07Z</time></trkpt><trkpt lat="43.95551334132502" lon="12.08558050911793"><ele>522.5999999999999</ele><time>2026-04-19T06:26:08Z</time></trkpt><trkpt lat="43.95559233495469" lon="12.085477267578437"><ele>522.4000000000001</ele><time>2026-04-19T06:26:09Z</time></trkpt><trkpt lat="43.95566539650299" lon="12.085377011061366"><ele>522.2</ele><time>2026-04-19T06:26:10Z</time></trkpt><trkpt lat="43.955746992037405" lon="12.085293541137373"><ele>522.0</ele><time>2026-04-19T06:26:11Z</time></trkpt><trkpt lat="43.95581608165598" lon="12.085192754043362"><ele>520.8000000000001</ele><time>2026-04-19T06:26:12Z</time></trkpt><trkpt lat="43.955882799313" lon="12.085090374682819"><ele>519.6</ele><time>2026-04-19T06:26:13Z</time></trkpt><trkpt lat="43.95595178217918" lon="12.084983613587061"><ele>518.4000000000001</ele><time>2026-04-19T06:26:14Z</time></trkpt><trkpt lat="43.95601644405249" lon="12.084881162524326"><ele>517.2</ele><time>2026-04-19T06:26:15Z</time></trkpt><trkpt lat="43.95606941578581" lon="12.084764914345893"><ele>516.0</ele><time>2026-04-19T06:26:16Z</time></trkpt><trkpt lat="43.956139213858265" lon="12.084660359131849"><ele>516.0</ele><time>2026-04-19T06:26:17Z</time></trkpt><trkpt lat="43.95619539956683" lon="12.08455110359086"><ele>516.0</ele><time>2026-04-19T06:26:18Z</time></trkpt><trkpt lat="43.956240260331846" lon="12.084424478937418"><ele>516.0</ele><time>2026-04-19T06:26:19Z</time></trkpt><trkpt lat="43.95627069126593" lon="12.08429897778403"><ele>516.0</ele><time>2026-04-19T06:26:20Z</time></trkpt><trkpt lat="43.956280543924564" lon="12.08415700548891"><ele>516.0</ele><time>2026-04-19T06:26:21Z</time></trkpt><trkpt lat="43.95631176636682" lon="12.084034469481518"><ele>512.6666666666666</ele><time>2026-04-19T06:26:22Z</time></trkpt><trkpt lat="43.956331568641914" lon="12.083907588225825"><ele>509.33333333333337</ele><time>2026-04-19T06:26:23Z</time></trkpt><trkpt lat="43.9563523246041" lon="12.083790827699529"><ele>506.0</ele><time>2026-04-19T06:26:24Z</time></trkpt><trkpt lat="43.95637293933432" lon="12.083705382177595"><ele>502.6666666666667</ele><time>2026-04-19T06:26:25Z</time></trkpt><trkpt lat="43.95643757318583" lon="12.083615968043164"><ele>499.33333333333337</ele><time>2026-04-19T06:26:27Z</time></trkpt><trkpt lat="43.95651406809787" lon="12.083637444784884"><ele>496.0</ele><time>2026-04-19T06:26:28Z</time></trkpt><trkpt lat="43.95659627622442" lon="12.083693996814523"><ele>496.0</ele><time>2026-04-19T06:26:29Z</time></trkpt><trkpt lat="43.95669370050709" lon="12.083737553118413"><ele>496.0</ele><time>2026-04-19T06:26:30Z</time></trkpt><trkpt lat="43.956796620248035" lon="12.083743093628783"><ele>496.0</ele><time>2026-04-19T06:26:31Z</time></trkpt><trkpt lat="43.95689626940817" lon="12.083716022460477"><ele>496.0</ele><time>2026-04-19T06:26:32Z</time></trkpt><trkpt lat="43.95699194806112" lon="12.083688628390027"><ele>496.0</ele><time>2026-04-19T06:26:33Z</time></trkpt><trkpt lat="43.95706829897784" lon="12.083593223259221"><ele>494.50000000000006</ele><time>2026-04-19T06:26:34Z</time></trkpt><trkpt lat="43.95714327675211" lon="12.08351457333172"><ele>493.0</ele><time>2026-04-19T06:26:35Z</time></trkpt><trkpt lat="43.957210271657516" lon="12.083426181864992"><ele>491.5</ele><time>2026-04-19T06:26:36Z</time></trkpt><trkpt lat="43.95727513714784" lon="12.083337913836218"><ele>490.0</ele><time>2026-04-19T06:26:37Z</time></trkpt><trkpt lat="43.957331910524935" lon="12.0832620832193"><ele>488.50000000000006</ele><time>2026-04-19T06:26:38Z</time></trkpt><trkpt lat="43.95739252469621" lon="12.083209640617913"><ele>487.0</ele><time>2026-04-19T06:26:39Z</time></trkpt><trkpt lat="43.95746778643729" lon="12.08319260102763"><ele>487.00000000000006</ele><time>2026-04-19T06:26:40Z</time></trkpt><trkpt lat="43.9575508301183" lon="12.0832261181167"><ele>487.0</ele><time>2026-04-19T06:26:41Z</time></trkpt><trkpt lat="43.95760690370354" lon="12.083287546004803"><ele>487.0</ele><time>2026-04-19T06:26:42Z</time></trkpt><trkpt lat="43.95764396360579" lon="12.083366794002016"><ele>487.0</ele><time>2026-04-19T06:26:43Z</time></trkpt><trkpt lat="43.9576394672521" lon="12.08346989387316"><ele>487.00000000000006</ele><time>2026-04-19T06:26:44Z</time></trkpt><trkpt lat="43.95759100758433" lon="12.08355196225558"><ele>487.0</ele><time>2026-04-19T06:26:45Z</time></trkpt><trkpt lat="43.957533933807014" lon="12.083615588662282"><ele>487.00000000000006</ele><time>2026-04-19T06:26:46Z</time></trkpt><trkpt lat="43.957470334940815" lon="12.08367968744548"><ele>487.0</ele><time>2026-04-19T06:26:47Z</time></trkpt><trkpt lat="43.95741962058832" lon="12.083785794831524"><ele>487.0</ele><time>2026-04-19T06:26:49Z</time></trkpt><trkpt lat="43.957496569290306" lon="12.083874899308686"><ele>487.0</ele><time>2026-04-19T06:26:51Z</time></trkpt><trkpt lat="43.957562538494116" lon="12.083851461510722"><ele>487.00000000000006</ele><time>2026-04-19T06:26:52Z</time></trkpt><trkpt lat="43.95763358791215" lon="12.083803357195729"><ele>487.0</ele><time>2026-04-19T06:26:53Z</time></trkpt><trkpt lat="43.957700975579094" lon="12.083782094896032"><ele>485.33333333333337</ele><time>2026-04-19T06:26:54Z</time></trkpt><trkpt lat="43.95776698909554" lon="12.083754654779007"><ele>483.6666666666667</ele><time>2026-04-19T06:26:55Z</time></trkpt><trkpt lat="43.957866526298005" lon="12.08372750185888"><ele>482.0</ele><time>2026-04-19T06:26:56Z</time></trkpt><trkpt lat="43.95796181984914" lon="12.08371696735913"><ele>480.33333333333337</ele><time>2026-04-19T06:26:57Z</time></trkpt><trkpt lat="43.95805739755686" lon="12.083675896806419"><ele>478.6666666666667</ele><time>2026-04-19T06:26:58Z</time></trkpt><trkpt lat="43.95812421499746" lon="12.08362752362499"><ele>477.0</ele><time>2026-04-19T06:26:59Z</time></trkpt><trkpt lat="43.95818572269549" lon="12.083556350485056"><ele>477.0</ele><time>2026-04-19T06:27:00Z</time></trkpt><trkpt lat="43.958239117234456" lon="12.083457381856709"><ele>477.00000000000006</ele><time>2026-04-19T06:27:01Z</time></trkpt><trkpt lat="43.95827602394342" lon="12.083348773871162"><ele>477.00000000000006</ele><time>2026-04-19T06:27:02Z</time></trkpt><trkpt lat="43.95831759766968" lon="12.083235612353137"><ele>477.0</ele><time>2026-04-19T06:27:03Z</time></trkpt><trkpt lat="43.95837606958304" lon="12.083139563485137"><ele>477.0</ele><time>2026-04-19T06:27:04Z</time></trkpt><trkpt lat="43.958453193026976" lon="12.083067226013448"><ele>476.1666666666667</ele><time>2026-04-19T06:27:05Z</time></trkpt><trkpt lat="43.95854791204906" lon="12.083025946602191"><ele>475.33333333333337</ele><time>2026-04-19T06:27:06Z</time></trkpt><trkpt lat="43.958640196769494" lon="12.08301007212202"><ele>474.5</ele><time>2026-04-19T06:27:07Z</time></trkpt><trkpt lat="43.95872392986" lon="12.082982824040009"><ele>473.6666666666667</ele><time>2026-04-19T06:27:08Z</time></trkpt><trkpt lat="43.95880796256573" lon="12.082986405521927"><ele>472.83333333333337</ele><time>2026-04-19T06:27:09Z</time></trkpt><trkpt lat="43.95889375007361" lon="12.082982706836741"><ele>472.0</ele><time>2026-04-19T06:27:10Z</time></trkpt><trkpt lat="43.95897551186759" lon="12.082961873798855"><ele>472.0</ele><time>2026-04-19T06:27:11Z</time></trkpt><trkpt lat="43.959057934014176" lon="12.082974417176251"><ele>472.00000000000006</ele><time>2026-04-19T06:27:12Z</time></trkpt><trkpt lat="43.95914266066885" lon="12.082959402253342"><ele>472.00000000000006</ele><time>2026-04-19T06:27:13Z</time></trkpt><trkpt lat="43.95923078254263" lon="12.082930564886054"><ele>472.0</ele><time>2026-04-19T06:27:14Z</time></trkpt><trkpt lat="43.9593004162167" lon="12.082821718462823"><ele>472.0</ele><time>2026-04-19T06:27:15Z</time></trkpt><trkpt lat="43.959382783150204" lon="12.082751879985564"><ele>469.6666666666667</ele><time>2026-04-19T06:27:16Z</time></trkpt><trkpt lat="43.95945856573475" lon="12.082685182936956"><ele>467.33333333333337</ele><time>2026-04-19T06:27:17Z</time></trkpt><trkpt lat="43.95953873445385" lon="12.082628405580989"><ele>465.0</ele><time>2026-04-19T06:27:18Z</time></trkpt><trkpt lat="43.95962213817606" lon="12.082574690075328"><ele>462.66666666666663</ele><time>2026-04-19T06:27:19Z</time></trkpt><trkpt lat="43.959705816185036" lon="12.082537711813183"><ele>460.3333333333333</ele><time>2026-04-19T06:27:20Z</time></trkpt><trkpt lat="43.959785410201974" lon="12.082503675728288"><ele>458.0</ele><time>2026-04-19T06:27:21Z</time></trkpt><trkpt lat="43.959864340604604" lon="12.08248544455028"><ele>458.0</ele><time>2026-04-19T06:27:22Z</time></trkpt><trkpt lat="43.95993375386609" lon="12.082462182834194"><ele>457.99999999999994</ele><time>2026-04-19T06:27:23Z</time></trkpt><trkpt lat="43.95999854833726" lon="12.08232575348338"><ele>457.99999999999994</ele><time>2026-04-19T06:27:25Z</time></trkpt><trkpt lat="43.95992509300403" lon="12.082198599128057"><ele>458.0</ele><time>2026-04-19T06:27:26Z</time></trkpt><trkpt lat="43.959868550359474" lon="12.082125773856163"><ele>458.0</ele><time>2026-04-19T06:27:27Z</time></trkpt><trkpt lat="43.95981371599988" lon="12.082041239674068"><ele>454.79999999999995</ele><time>2026-04-19T06:27:28Z</time></trkpt><trkpt lat="43.95975630851764" lon="12.081938877345333"><ele>451.59999999999997</ele><time>2026-04-19T06:27:29Z</time></trkpt><trkpt lat="43.959692660888386" lon="12.081848863978342"><ele>448.40000000000003</ele><time>2026-04-19T06:27:30Z</time></trkpt><trkpt lat="43.95965578255896" lon="12.08177034655301"><ele>445.20000000000005</ele><time>2026-04-19T06:27:31Z</time></trkpt><trkpt lat="43.95954009499824" lon="12.081704289581477"><ele>442.0</ele><time>2026-04-19T06:27:33Z</time></trkpt><trkpt lat="43.95945377175941" lon="12.081733989456986"><ele>442.00000000000006</ele><time>2026-04-19T06:27:34Z</time></trkpt><trkpt lat="43.95937015847843" lon="12.081770692166922"><ele>442.0</ele><time>2026-04-19T06:27:35Z</time></trkpt><trkpt lat="43.95929100451669" lon="12.081799263554894"><ele>442.0</ele><time>2026-04-19T06:27:36Z</time></trkpt><trkpt lat="43.95921444687687" lon="12.081821912279008"><ele>442.0</ele><time>2026-04-19T06:27:37Z</time></trkpt><trkpt lat="43.95913444303019" lon="12.081840446570336"><ele>442.00000000000006</ele><time>2026-04-19T06:27:38Z</time></trkpt><trkpt lat="43.95905472383169" lon="12.081851835254499"><ele>442.0</ele><time>2026-04-19T06:27:39Z</time></trkpt><trkpt lat="43.95898518005495" lon="12.081811949745358"><ele>443.00000000000006</ele><time>2026-04-19T06:27:40Z</time></trkpt><trkpt lat="43.9589083208347" lon="12.08176793742964"><ele>444.0</ele><time>2026-04-19T06:27:41Z</time></trkpt><trkpt lat="43.95884219830384" lon="12.081713152976526"><ele>445.0</ele><time>2026-04-19T06:27:42Z</time></trkpt><trkpt lat="43.958791424485476" lon="12.081647540041955"><ele>446.0</ele><time>2026-04-19T06:27:43Z</time></trkpt><trkpt lat="43.95873806094234" lon="12.08156252580462"><ele>447.00000000000006</ele><time>2026-04-19T06:27:44Z</time></trkpt><trkpt lat="43.95870904998729" lon="12.081482654920704"><ele>448.0</ele><time>2026-04-19T06:27:45Z</time></trkpt><trkpt lat="43.95868663498775" lon="12.081382611556998"><ele>441.79999999999995</ele><time>2026-04-19T06:27:46Z</time></trkpt><trkpt lat="43.95863953576477" lon="12.081226997533728"><ele>435.59999999999997</ele><time>2026-04-19T06:27:48Z</time></trkpt><trkpt lat="43.95858522034514" lon="12.081085410911777"><ele>429.4</ele><time>2026-04-19T06:27:50Z</time></trkpt><trkpt lat="43.95851267666695" lon="12.081042589796219"><ele>423.20000000000005</ele><time>2026-04-19T06:27:52Z</time></trkpt><trkpt lat="43.958437300454506" lon="12.081079131187627"><ele>417.0</ele><time>2026-04-19T06:27:55Z</time></trkpt><trkpt lat="43.95837912845235" lon="12.08118861837045"><ele>419.20000000000005</ele><time>2026-04-19T06:27:58Z</time></trkpt><trkpt lat="43.95832657487444" lon="12.0813197292084"><ele>421.4</ele><time>2026-04-19T06:28:00Z</time></trkpt><trkpt lat="43.95827009175467" lon="12.08139930746827"><ele>423.59999999999997</ele><time>2026-04-19T06:28:02Z</time></trkpt><trkpt lat="43.95822011067421" lon="12.081286749526578"><ele>425.79999999999995</ele><time>2026-04-19T06:28:04Z</time></trkpt><trkpt lat="43.95826777695399" lon="12.081143848666379"><ele>428.0</ele><time>2026-04-19T06:28:06Z</time></trkpt><trkpt lat="43.9582976834665" lon="12.08105225379669"><ele>428.00000000000006</ele><time>2026-04-19T06:28:07Z</time></trkpt><trkpt lat="43.958333477766416" lon="12.08096615730931"><ele>428.0</ele><time>2026-04-19T06:28:08Z</time></trkpt><trkpt lat="43.958377720708015" lon="12.080874497265322"><ele>428.0</ele><time>2026-04-19T06:28:09Z</time></trkpt><trkpt lat="43.95842671068989" lon="12.080797876292033"><ele>428.0</ele><time>2026-04-19T06:28:10Z</time></trkpt><trkpt lat="43.95847936385115" lon="12.080726266064568"><ele>428.0</ele><time>2026-04-19T06:28:11Z</time></trkpt><trkpt lat="43.95853595173398" lon="12.080658955884314"><ele>428.00000000000006</ele><time>2026-04-19T06:28:12Z</time></trkpt><trkpt lat="43.95859027584183" lon="12.080605553760334"><ele>428.0</ele><time>2026-04-19T06:28:13Z</time></trkpt><trkpt lat="43.95871851304533" lon="12.080613902980048"><ele>426.16666666666663</ele><time>2026-04-19T06:28:15Z</time></trkpt><trkpt lat="43.95877283644544" lon="12.080690715777672"><ele>424.3333333333333</ele><time>2026-04-19T06:28:16Z</time></trkpt><trkpt lat="43.95881406764111" lon="12.08080140060886"><ele>422.5</ele><time>2026-04-19T06:28:17Z</time></trkpt><trkpt lat="43.95884891196004" lon="12.080927002369886"><ele>420.66666666666663</ele><time>2026-04-19T06:28:18Z</time></trkpt><trkpt lat="43.95889702064591" lon="12.081023772225675"><ele>418.8333333333333</ele><time>2026-04-19T06:28:19Z</time></trkpt><trkpt lat="43.95897052117712" lon="12.081090668549528"><ele>417.0</ele><time>2026-04-19T06:28:20Z</time></trkpt><trkpt lat="43.95904916789624" lon="12.081155959443617"><ele>417.0</ele><time>2026-04-19T06:28:21Z</time></trkpt><trkpt lat="43.95914204278098" lon="12.081185531351599"><ele>417.0</ele><time>2026-04-19T06:28:22Z</time></trkpt><trkpt lat="43.95924052397983" lon="12.081167250696888"><ele>417.0</ele><time>2026-04-19T06:28:23Z</time></trkpt><trkpt lat="43.95933585057781" lon="12.081165032677722"><ele>417.0</ele><time>2026-04-19T06:28:24Z</time></trkpt><trkpt lat="43.959429157865756" lon="12.081118330631016"><ele>417.0</ele><time>2026-04-19T06:28:25Z</time></trkpt><trkpt lat="43.95951934019306" lon="12.081071932229833"><ele>415.40000000000003</ele><time>2026-04-19T06:28:26Z</time></trkpt><trkpt lat="43.95960333981465" lon="12.081034859203495"><ele>413.8</ele><time>2026-04-19T06:28:27Z</time></trkpt><trkpt lat="43.9596904616958" lon="12.081000001113171"><ele>412.2</ele><time>2026-04-19T06:28:28Z</time></trkpt><trkpt lat="43.959774863283805" lon="12.080961429514108"><ele>410.6</ele><time>2026-04-19T06:28:29Z</time></trkpt><trkpt lat="43.95986872757443" lon="12.080931465596024"><ele>409.0</ele><time>2026-04-19T06:28:30Z</time></trkpt><trkpt lat="43.95995686432421" lon="12.08087814812075"><ele>408.79999999999995</ele><time>2026-04-19T06:28:31Z</time></trkpt><trkpt lat="43.960042038127874" lon="12.080812257065778"><ele>408.59999999999997</ele><time>2026-04-19T06:28:32Z</time></trkpt><trkpt lat="43.96013514887249" lon="12.08077400300239"><ele>408.4</ele><time>2026-04-19T06:28:33Z</time></trkpt><trkpt lat="43.96021900266574" lon="12.080706598305134"><ele>408.2</ele><time>2026-04-19T06:28:34Z</time></trkpt><trkpt lat="43.960295160436154" lon="12.08062585522388"><ele>408.0</ele><time>2026-04-19T06:28:35Z</time></trkpt><trkpt lat="43.960373936451894" lon="12.080573158192236"><ele>408.0</ele><time>2026-04-19T06:28:36Z</time></trkpt><trkpt lat="43.96044371181766" lon="12.080511629534605"><ele>408.0</ele><time>2026-04-19T06:28:37Z</time></trkpt><trkpt lat="43.96049180292127" lon="12.080422820541855"><ele>408.0</ele><time>2026-04-19T06:28:38Z</time></trkpt><trkpt lat="43.960508520725334" lon="12.080312041774407"><ele>408.0</ele><time>2026-04-19T06:28:39Z</time></trkpt><trkpt lat="43.9605071298137" lon="12.080184888773967"><ele>408.0</ele><time>2026-04-19T06:28:40Z</time></trkpt><trkpt lat="43.960527435152734" lon="12.080047417982625"><ele>408.0</ele><time>2026-04-19T06:28:41Z</time></trkpt><trkpt lat="43.96054176778337" lon="12.079921270972076"><ele>404.0</ele><time>2026-04-19T06:28:42Z</time></trkpt><trkpt lat="43.96056141586786" lon="12.07979135442002"><ele>400.0</ele><time>2026-04-19T06:28:43Z</time></trkpt><trkpt lat="43.960578063577266" lon="12.07966501302608"><ele>396.0</ele><time>2026-04-19T06:28:44Z</time></trkpt><trkpt lat="43.96058829709644" lon="12.079526578584971"><ele>392.0</ele><time>2026-04-19T06:28:45Z</time></trkpt><trkpt lat="43.96058886847597" lon="12.079389817328549"><ele>388.0</ele><time>2026-04-19T06:28:46Z</time></trkpt><trkpt lat="43.96057066501334" lon="12.079253971339597"><ele>388.00000000000006</ele><time>2026-04-19T06:28:47Z</time></trkpt><trkpt lat="43.96053953268113" lon="12.07913098657569"><ele>388.0</ele><time>2026-04-19T06:28:48Z</time></trkpt><trkpt lat="43.960504604337316" lon="12.079024017594683"><ele>388.0</ele><time>2026-04-19T06:28:49Z</time></trkpt><trkpt lat="43.96047526865626" lon="12.078930698069087"><ele>388.0</ele><time>2026-04-19T06:28:50Z</time></trkpt><trkpt lat="43.96044473831583" lon="12.078841064023857"><ele>388.00000000000006</ele><time>2026-04-19T06:28:51Z</time></trkpt><trkpt lat="43.96045972220353" lon="12.078731409963957"><ele>388.0</ele><time>2026-04-19T06:28:52Z</time></trkpt><trkpt lat="43.96049390994572" lon="12.078631738125694"><ele>384.6666666666667</ele><time>2026-04-19T06:28:53Z</time></trkpt><trkpt lat="43.96060012029506" lon="12.078603998085265"><ele>381.33333333333337</ele><time>2026-04-19T06:28:55Z</time></trkpt><trkpt lat="43.96065499703389" lon="12.078665410156963"><ele>378.0</ele><time>2026-04-19T06:28:56Z</time></trkpt><trkpt lat="43.96070691519559" lon="12.078743314931168"><ele>374.6666666666667</ele><time>2026-04-19T06:28:57Z</time></trkpt><trkpt lat="43.96076247990747" lon="12.078810697594726"><ele>371.33333333333337</ele><time>2026-04-19T06:28:58Z</time></trkpt><trkpt lat="43.96082821204206" lon="12.078909440951762"><ele>368.0</ele><time>2026-04-19T06:28:59Z</time></trkpt><trkpt lat="43.960881805345664" lon="12.078994172399137"><ele>368.0</ele><time>2026-04-19T06:29:00Z</time></trkpt><trkpt lat="43.96094403553853" lon="12.07906836665634"><ele>368.0</ele><time>2026-04-19T06:29:01Z</time></trkpt><trkpt lat="43.96101675129704" lon="12.079125917525419"><ele>368.0</ele><time>2026-04-19T06:29:02Z</time></trkpt><trkpt lat="43.96110677944036" lon="12.079139857391796"><ele>368.0</ele><time>2026-04-19T06:29:03Z</time></trkpt><trkpt lat="43.961194748671986" lon="12.079121341648657"><ele>368.0</ele><time>2026-04-19T06:29:04Z</time></trkpt><trkpt lat="43.961272790498775" lon="12.079048911911139"><ele>368.0</ele><time>2026-04-19T06:29:05Z</time></trkpt><trkpt lat="43.96132375544518" lon="12.0789483562417"><ele>368.0</ele><time>2026-04-19T06:29:06Z</time></trkpt><trkpt lat="43.961383234420374" lon="12.078726686029297"><ele>368.0</ele><time>2026-04-19T06:29:08Z</time></trkpt><trkpt lat="43.96140159593895" lon="12.078615810619388"><ele>368.0</ele><time>2026-04-19T06:29:09Z</time></trkpt><trkpt lat="43.961420342982066" lon="12.078518555525559"><ele>368.0</ele><time>2026-04-19T06:29:10Z</time></trkpt><trkpt lat="43.961476970696516" lon="12.078387566167859"><ele>368.0</ele><time>2026-04-19T06:29:12Z</time></trkpt><trkpt lat="43.96155416018376" lon="12.078399952279192"><ele>368.0</ele><time>2026-04-19T06:29:14Z</time></trkpt><trkpt lat="43.96162886703753" lon="12.078541660564568"><ele>368.0</ele><time>2026-04-19T06:29:16Z</time></trkpt><trkpt lat="43.96173311699893" lon="12.07864134968443"><ele>368.0</ele><time>2026-04-19T06:29:18Z</time></trkpt><trkpt lat="43.9618023994632" lon="12.07865419411905"><ele>368.0</ele><time>2026-04-19T06:29:19Z</time></trkpt><trkpt lat="43.961875363615604" lon="12.078637330279948"><ele>368.0</ele><time>2026-04-19T06:29:20Z</time></trkpt><trkpt lat="43.961946243726416" lon="12.078627792306753"><ele>366.83333333333337</ele><time>2026-04-19T06:29:21Z</time></trkpt><trkpt lat="43.962020608880486" lon="12.078579650468482"><ele>365.6666666666667</ele><time>2026-04-19T06:29:22Z</time></trkpt><trkpt lat="43.96208574296007" lon="12.07850272919027"><ele>364.5</ele><time>2026-04-19T06:29:23Z</time></trkpt><trkpt lat="43.962132588013965" lon="12.078410740230707"><ele>363.3333333333333</ele><time>2026-04-19T06:29:24Z</time></trkpt><trkpt lat="43.96215756056111" lon="12.078300103691333"><ele>362.16666666666663</ele><time>2026-04-19T06:29:25Z</time></trkpt><trkpt lat="43.962185592151855" lon="12.078178582357252"><ele>361.0</ele><time>2026-04-19T06:29:26Z</time></trkpt><trkpt lat="43.96219561200483" lon="12.078038543469713"><ele>361.0</ele><time>2026-04-19T06:29:27Z</time></trkpt><trkpt lat="43.96220870469426" lon="12.077907702764747"><ele>361.0</ele><time>2026-04-19T06:29:28Z</time></trkpt><trkpt lat="43.962223740039356" lon="12.077778023986827"><ele>361.0</ele><time>2026-04-19T06:29:29Z</time></trkpt><trkpt lat="43.962257592333444" lon="12.077661295444722"><ele>361.0</ele><time>2026-04-19T06:29:30Z</time></trkpt><trkpt lat="43.96228068837961" lon="12.077550848290361"><ele>361.0</ele><time>2026-04-19T06:29:31Z</time></trkpt><trkpt lat="43.962308752505905" lon="12.077451450674275"><ele>361.0</ele><time>2026-04-19T06:29:32Z</time></trkpt><trkpt lat="43.962346907701125" lon="12.077358313829345"><ele>358.66666666666663</ele><time>2026-04-19T06:29:33Z</time></trkpt><trkpt lat="43.962401446474686" lon="12.077291507357339"><ele>356.3333333333333</ele><time>2026-04-19T06:29:34Z</time></trkpt><trkpt lat="43.96247810051961" lon="12.077260427243552"><ele>354.0</ele><time>2026-04-19T06:29:35Z</time></trkpt><trkpt lat="43.962560345226876" lon="12.077211204163858"><ele>351.6666666666667</ele><time>2026-04-19T06:29:36Z</time></trkpt><trkpt lat="43.96264998017848" lon="12.077191707635578"><ele>349.33333333333337</ele><time>2026-04-19T06:29:37Z</time></trkpt><trkpt lat="43.96274621187003" lon="12.07712680583547"><ele>347.0</ele><time>2026-04-19T06:29:38Z</time></trkpt><trkpt lat="43.96284482323734" lon="12.077096765106882"><ele>347.0</ele><time>2026-04-19T06:29:39Z</time></trkpt><trkpt lat="43.96293236174497" lon="12.077036889056615"><ele>347.0</ele><time>2026-04-19T06:29:40Z</time></trkpt><trkpt lat="43.963019834110675" lon="12.076966428589591"><ele>347.0</ele><time>2026-04-19T06:29:41Z</time></trkpt><trkpt lat="43.9631034761468" lon="12.076900002687474"><ele>347.0</ele><time>2026-04-19T06:29:42Z</time></trkpt><trkpt lat="43.963186074718514" lon="12.076837551165982"><ele>347.0</ele><time>2026-04-19T06:29:43Z</time></trkpt><trkpt lat="43.96327429407588" lon="12.076775340742113"><ele>347.0</ele><time>2026-04-19T06:29:44Z</time></trkpt><trkpt lat="43.96336045374066" lon="12.07671847726599"><ele>347.0</ele><time>2026-04-19T06:29:45Z</time></trkpt><trkpt lat="43.96344544194699" lon="12.0766624161876"><ele>347.0</ele><time>2026-04-19T06:29:46Z</time></trkpt><trkpt lat="43.96352941834635" lon="12.076605027953008"><ele>347.0</ele><time>2026-04-19T06:29:47Z</time></trkpt><trkpt lat="43.96361805281668" lon="12.076572057616454"><ele>347.0</ele><time>2026-04-19T06:29:48Z</time></trkpt><trkpt lat="43.96370316641279" lon="12.076503969215313"><ele>344.40000000000003</ele><time>2026-04-19T06:29:49Z</time></trkpt><trkpt lat="43.96377798838283" lon="12.07640949605363"><ele>341.8</ele><time>2026-04-19T06:29:50Z</time></trkpt><trkpt lat="43.96385058635321" lon="12.076322690479165"><ele>339.2</ele><time>2026-04-19T06:29:51Z</time></trkpt><trkpt lat="43.96391426952843" lon="12.076228291493711"><ele>336.6</ele><time>2026-04-19T06:29:52Z</time></trkpt><trkpt lat="43.96397592753911" lon="12.076136894373322"><ele>334.0</ele><time>2026-04-19T06:29:53Z</time></trkpt><trkpt lat="43.964048024664415" lon="12.076038873033635"><ele>334.0</ele><time>2026-04-19T06:29:54Z</time></trkpt><trkpt lat="43.96411753736979" lon="12.075916505342438"><ele>334.0</ele><time>2026-04-19T06:29:55Z</time></trkpt><trkpt lat="43.96420923657782" lon="12.075827727034797"><ele>334.0</ele><time>2026-04-19T06:29:56Z</time></trkpt><trkpt lat="43.964290375798996" lon="12.075724680731632"><ele>334.0</ele><time>2026-04-19T06:29:57Z</time></trkpt><trkpt lat="43.96436929362641" lon="12.075627474715533"><ele>334.0</ele><time>2026-04-19T06:29:58Z</time></trkpt><trkpt lat="43.964449546720424" lon="12.075531342356598"><ele>332.4</ele><time>2026-04-19T06:29:59Z</time></trkpt><trkpt lat="43.964532284387786" lon="12.075433591843739"><ele>330.79999999999995</ele><time>2026-04-19T06:30:00Z</time></trkpt><trkpt lat="43.96461181099803" lon="12.075339634988554"><ele>329.20000000000005</ele><time>2026-04-19T06:30:01Z</time></trkpt><trkpt lat="43.96469034989782" lon="12.075246845080535"><ele>327.6</ele><time>2026-04-19T06:30:02Z</time></trkpt><trkpt lat="43.964771892580906" lon="12.075146817035366"><ele>326.0</ele><time>2026-04-19T06:30:03Z</time></trkpt><trkpt lat="43.96485083449752" lon="12.07504745843283"><ele>326.0</ele><time>2026-04-19T06:30:04Z</time></trkpt><trkpt lat="43.96492223355011" lon="12.074947852158004"><ele>326.0</ele><time>2026-04-19T06:30:05Z</time></trkpt><trkpt lat="43.964988148629274" lon="12.074850675480652"><ele>326.0</ele><time>2026-04-19T06:30:06Z</time></trkpt><trkpt lat="43.965075473420924" lon="12.07475043687048"><ele>326.0</ele><time>2026-04-19T06:30:07Z</time></trkpt><trkpt lat="43.965154163488656" lon="12.07464022903413"><ele>326.0</ele><time>2026-04-19T06:30:08Z</time></trkpt><trkpt lat="43.965219937377086" lon="12.074537651614273"><ele>323.6</ele><time>2026-04-19T06:30:09Z</time></trkpt><trkpt lat="43.965282330193766" lon="12.074440346920799"><ele>321.20000000000005</ele><time>2026-04-19T06:30:10Z</time></trkpt><trkpt lat="43.965332469991246" lon="12.074337246573744"><ele>318.79999999999995</ele><time>2026-04-19T06:30:11Z</time></trkpt><trkpt lat="43.9654159498451" lon="12.074274857607023"><ele>316.4</ele><time>2026-04-19T06:30:12Z</time></trkpt><trkpt lat="43.96550275220211" lon="12.074204129212237"><ele>314.0</ele><time>2026-04-19T06:30:13Z</time></trkpt><trkpt lat="43.965592539560035" lon="12.074134253479654"><ele>312.2</ele><time>2026-04-19T06:30:14Z</time></trkpt><trkpt lat="43.965648182380505" lon="12.074010389780513"><ele>310.4</ele><time>2026-04-19T06:30:15Z</time></trkpt><trkpt lat="43.96568443420224" lon="12.073877592054792"><ele>308.6</ele><time>2026-04-19T06:30:16Z</time></trkpt><trkpt lat="43.96571992838515" lon="12.073754283094805"><ele>306.8</ele><time>2026-04-19T06:30:17Z</time></trkpt><trkpt lat="43.96575491809009" lon="12.073629609086854"><ele>305.0</ele><time>2026-04-19T06:30:18Z</time></trkpt><trkpt lat="43.96584303023378" lon="12.07356098628672"><ele>304.8</ele><time>2026-04-19T06:30:19Z</time></trkpt><trkpt lat="43.965931475038175" lon="12.073502658404157"><ele>304.6</ele><time>2026-04-19T06:30:20Z</time></trkpt><trkpt lat="43.966017384895714" lon="12.073432976764801"><ele>304.4</ele><time>2026-04-19T06:30:21Z</time></trkpt><trkpt lat="43.9661089148493" lon="12.073363015091347"><ele>304.2</ele><time>2026-04-19T06:30:22Z</time></trkpt><trkpt lat="43.96620041249834" lon="12.073293260331603"><ele>304.0</ele><time>2026-04-19T06:30:23Z</time></trkpt><trkpt lat="43.966290878050486" lon="12.07322289897523"><ele>302.2</ele><time>2026-04-19T06:30:24Z</time></trkpt><trkpt lat="43.966380088452716" lon="12.073154307104351"><ele>300.4</ele><time>2026-04-19T06:30:25Z</time></trkpt><trkpt lat="43.96648100335264" lon="12.073092626280019"><ele>298.6</ele><time>2026-04-19T06:30:26Z</time></trkpt><trkpt lat="43.96657462944032" lon="12.073008095843251"><ele>296.8</ele><time>2026-04-19T06:30:27Z</time></trkpt><trkpt lat="43.96666419951592" lon="12.072919439357507"><ele>295.0</ele><time>2026-04-19T06:30:28Z</time></trkpt><trkpt lat="43.9667532045893" lon="12.072829466461794"><ele>292.8</ele><time>2026-04-19T06:30:29Z</time></trkpt><trkpt lat="43.966840137577805" lon="12.072728880545087"><ele>290.6</ele><time>2026-04-19T06:30:30Z</time></trkpt><trkpt lat="43.96692867228318" lon="12.07263654610476"><ele>288.4</ele><time>2026-04-19T06:30:31Z</time></trkpt><trkpt lat="43.967018812222555" lon="12.072542364484496"><ele>286.2</ele><time>2026-04-19T06:30:32Z</time></trkpt><trkpt lat="43.96710616695948" lon="12.07245903660866"><ele>284.0</ele><time>2026-04-19T06:30:33Z</time></trkpt><trkpt lat="43.967174486171594" lon="12.072375766867045"><ele>283.59999999999997</ele><time>2026-04-19T06:30:34Z</time></trkpt><trkpt lat="43.96721024946455" lon="12.072286741196386"><ele>283.2</ele><time>2026-04-19T06:30:35Z</time></trkpt><trkpt lat="43.96721955140978" lon="12.072173677045047"><ele>282.79999999999995</ele><time>2026-04-19T06:30:36Z</time></trkpt><trkpt lat="43.96719119253975" lon="12.072053806282979"><ele>282.4</ele><time>2026-04-19T06:30:37Z</time></trkpt><trkpt lat="43.9670769746584" lon="12.072032344650493"><ele>282.0</ele><time>2026-04-19T06:30:38Z</time></trkpt><trkpt lat="43.96699415146101" lon="12.07196769771639"><ele>282.0</ele><time>2026-04-19T06:30:39Z</time></trkpt><trkpt lat="43.96691102547856" lon="12.07192167752997"><ele>282.0</ele><time>2026-04-19T06:30:40Z</time></trkpt><trkpt lat="43.96682695871788" lon="12.071865968925758"><ele>282.0</ele><time>2026-04-19T06:30:41Z</time></trkpt><trkpt lat="43.96675992582394" lon="12.071786137918428"><ele>282.0</ele><time>2026-04-19T06:30:42Z</time></trkpt><trkpt lat="43.96669059173651" lon="12.071684244653152"><ele>282.0</ele><time>2026-04-19T06:30:43Z</time></trkpt><trkpt lat="43.96662241720957" lon="12.071593251869503"><ele>282.4</ele><time>2026-04-19T06:30:44Z</time></trkpt><trkpt lat="43.9665427726078" lon="12.07151491393502"><ele>282.79999999999995</ele><time>2026-04-19T06:30:45Z</time></trkpt><trkpt lat="43.966470262719064" lon="12.071421320267438"><ele>283.2</ele><time>2026-04-19T06:30:46Z</time></trkpt><trkpt lat="43.96639490553092" lon="12.071316832147799"><ele>283.59999999999997</ele><time>2026-04-19T06:30:47Z</time></trkpt><trkpt lat="43.966324473113616" lon="12.071212864495546"><ele>284.0</ele><time>2026-04-19T06:30:48Z</time></trkpt><trkpt lat="43.96626155313767" lon="12.071110829949598"><ele>284.0</ele><time>2026-04-19T06:30:49Z</time></trkpt><trkpt lat="43.966231778429474" lon="12.070986918349657"><ele>284.0</ele><time>2026-04-19T06:30:50Z</time></trkpt><trkpt lat="43.966212404529976" lon="12.07089286285258"><ele>284.0</ele><time>2026-04-19T06:30:51Z</time></trkpt><trkpt lat="43.966244155984896" lon="12.070793981631732"><ele>284.0</ele><time>2026-04-19T06:30:52Z</time></trkpt><trkpt lat="43.96629459905686" lon="12.070706918894627"><ele>284.0</ele><time>2026-04-19T06:30:53Z</time></trkpt><trkpt lat="43.966339899304415" lon="12.070604790155471"><ele>284.0</ele><time>2026-04-19T06:30:54Z</time></trkpt><trkpt lat="43.96639112522432" lon="12.0704949645572"><ele>286.2</ele><time>2026-04-19T06:30:55Z</time></trkpt><trkpt lat="43.96644376283315" lon="12.070373359427835"><ele>288.4</ele><time>2026-04-19T06:30:56Z</time></trkpt><trkpt lat="43.966480331275996" lon="12.070254940581071"><ele>290.6</ele><time>2026-04-19T06:30:57Z</time></trkpt><trkpt lat="43.96649293089345" lon="12.07014766150173"><ele>292.8</ele><time>2026-04-19T06:30:58Z</time></trkpt><trkpt lat="43.96646292117953" lon="12.069984851212459"><ele>295.0</ele><time>2026-04-19T06:31:00Z</time></trkpt><trkpt lat="43.96637527805977" lon="12.069927029861358"><ele>295.0</ele><time>2026-04-19T06:31:01Z</time></trkpt><trkpt lat="43.9663332548153" lon="12.06980950889144"><ele>295.0</ele><time>2026-04-19T06:31:03Z</time></trkpt><trkpt lat="43.966460767986916" lon="12.069883991469164"><ele>295.0</ele><time>2026-04-19T06:31:07Z</time></trkpt><trkpt lat="43.96651412028429" lon="12.069981903043043"><ele>295.0</ele><time>2026-04-19T06:31:08Z</time></trkpt><trkpt lat="43.96657169281241" lon="12.070087412108204"><ele>295.0</ele><time>2026-04-19T06:31:09Z</time></trkpt><trkpt lat="43.96663918972062" lon="12.070205298002195"><ele>301.0</ele><time>2026-04-19T06:31:10Z</time></trkpt><trkpt lat="43.96671855038716" lon="12.070289150169005"><ele>307.0</ele><time>2026-04-19T06:31:11Z</time></trkpt><trkpt lat="43.96678954733794" lon="12.070400365842143"><ele>313.0</ele><time>2026-04-19T06:31:12Z</time></trkpt><trkpt lat="43.966887629523086" lon="12.07047603004113"><ele>319.0</ele><time>2026-04-19T06:31:13Z</time></trkpt><trkpt lat="43.96700652041578" lon="12.07051554376377"><ele>325.0</ele><time>2026-04-19T06:31:14Z</time></trkpt><trkpt lat="43.96712771786542" lon="12.070537390589111"><ele>325.0</ele><time>2026-04-19T06:31:15Z</time></trkpt><trkpt lat="43.96725579391504" lon="12.070560273329916"><ele>325.0</ele><time>2026-04-19T06:31:16Z</time></trkpt><trkpt lat="43.96735804950634" lon="12.070598404285288"><ele>325.0</ele><time>2026-04-19T06:31:17Z</time></trkpt><trkpt lat="43.967506138884225" lon="12.070634845328286"><ele>325.0</ele><time>2026-04-19T06:31:18Z</time></trkpt><trkpt lat="43.967650617150575" lon="12.070663488559868"><ele>320.5</ele><time>2026-04-19T06:31:19Z</time></trkpt><trkpt lat="43.96777812130519" lon="12.070706515834997"><ele>316.0</ele><time>2026-04-19T06:31:20Z</time></trkpt><trkpt lat="43.96788840839915" lon="12.070748123208096"><ele>311.5</ele><time>2026-04-19T06:31:21Z</time></trkpt><trkpt lat="43.967985651748705" lon="12.07081710187672"><ele>307.0</ele><time>2026-04-19T06:31:22Z</time></trkpt><trkpt lat="43.96808106123946" lon="12.070904575076458"><ele>307.0</ele><time>2026-04-19T06:31:23Z</time></trkpt><trkpt lat="43.96815761254246" lon="12.071041786846168"><ele>307.0</ele><time>2026-04-19T06:31:24Z</time></trkpt><trkpt lat="43.968225669235466" lon="12.071161794363814"><ele>307.0</ele><time>2026-04-19T06:31:25Z</time></trkpt><trkpt lat="43.96829613763559" lon="12.071281453725655"><ele>307.0</ele><time>2026-04-19T06:31:26Z</time></trkpt><trkpt lat="43.9683714559634" lon="12.071399980229797"><ele>311.0</ele><time>2026-04-19T06:31:27Z</time></trkpt><trkpt lat="43.96845394435216" lon="12.071532686274976"><ele>315.0</ele><time>2026-04-19T06:31:28Z</time></trkpt><trkpt lat="43.96853648969068" lon="12.071669938680554"><ele>319.0</ele><time>2026-04-19T06:31:29Z</time></trkpt><trkpt lat="43.96861938050386" lon="12.071822145375581"><ele>323.0</ele><time>2026-04-19T06:31:30Z</time></trkpt><trkpt lat="43.96867794240397" lon="12.07198843931432"><ele>323.0</ele><time>2026-04-19T06:31:31Z</time></trkpt><trkpt lat="43.96871252553388" lon="12.07215283578606"><ele>323.0</ele><time>2026-04-19T06:31:32Z</time></trkpt><trkpt lat="43.96875913573611" lon="12.072315551216267"><ele>323.0</ele><time>2026-04-19T06:31:33Z</time></trkpt><trkpt lat="43.96882159989178" lon="12.072464505914882"><ele>323.0</ele><time>2026-04-19T06:31:34Z</time></trkpt><trkpt lat="43.96889456084961" lon="12.072609967761283"><ele>320.0</ele><time>2026-04-19T06:31:35Z</time></trkpt><trkpt lat="43.9689783108639" lon="12.072740422950325"><ele>317.0</ele><time>2026-04-19T06:31:36Z</time></trkpt><trkpt lat="43.96906059172109" lon="12.072872218484138"><ele>314.0</ele><time>2026-04-19T06:31:37Z</time></trkpt><trkpt lat="43.96912033812759" lon="12.073017700640262"><ele>311.0</ele><time>2026-04-19T06:31:38Z</time></trkpt><trkpt lat="43.969155653820025" lon="12.073169182841774"><ele>310.5</ele><time>2026-04-19T06:31:39Z</time></trkpt><trkpt lat="43.969163493674195" lon="12.073335364238574"><ele>310.0</ele><time>2026-04-19T06:31:40Z</time></trkpt><trkpt lat="43.9691708453046" lon="12.073501739107325"><ele>309.5</ele><time>2026-04-19T06:31:41Z</time></trkpt><trkpt lat="43.96917599632374" lon="12.073673934819501"><ele>309.0</ele><time>2026-04-19T06:31:42Z</time></trkpt><trkpt lat="43.96917967557879" lon="12.073846178607072"><ele>309.0</ele><time>2026-04-19T06:31:43Z</time></trkpt><trkpt lat="43.96918455733696" lon="12.074021587971503"><ele>309.0</ele><time>2026-04-19T06:31:44Z</time></trkpt><trkpt lat="43.969210155137176" lon="12.074190978474512"><ele>309.0</ele><time>2026-04-19T06:31:45Z</time></trkpt><trkpt lat="43.96926227720845" lon="12.074351112153796"><ele>309.0</ele><time>2026-04-19T06:31:46Z</time></trkpt><trkpt lat="43.969326074804044" lon="12.07451165581257"><ele>312.25</ele><time>2026-04-19T06:31:47Z</time></trkpt><trkpt lat="43.96938652579456" lon="12.0746794611264"><ele>315.5</ele><time>2026-04-19T06:31:48Z</time></trkpt><trkpt lat="43.96942702001708" lon="12.074849118824865"><ele>318.75</ele><time>2026-04-19T06:31:49Z</time></trkpt><trkpt lat="43.96945264405597" lon="12.07501473402448"><ele>322.0</ele><time>2026-04-19T06:31:50Z</time></trkpt><trkpt lat="43.96946995257843" lon="12.075174880279087"><ele>322.0</ele><time>2026-04-19T06:31:51Z</time></trkpt><trkpt lat="43.96948836226056" lon="12.075329683481314"><ele>322.0</ele><time>2026-04-19T06:31:52Z</time></trkpt><trkpt lat="43.96952083998288" lon="12.075471844364046"><ele>322.0</ele><time>2026-04-19T06:31:53Z</time></trkpt><trkpt lat="43.96957140108346" lon="12.075589533661462"><ele>322.0</ele><time>2026-04-19T06:31:54Z</time></trkpt><trkpt lat="43.96964298124492" lon="12.075676357669618"><ele>322.0</ele><time>2026-04-19T06:31:55Z</time></trkpt><trkpt lat="43.96973033210157" lon="12.075726519196845"><ele>322.0</ele><time>2026-04-19T06:31:56Z</time></trkpt><trkpt lat="43.96982271659386" lon="12.075758358393445"><ele>322.0</ele><time>2026-04-19T06:31:57Z</time></trkpt><trkpt lat="43.96990103394099" lon="12.075818054496946"><ele>322.0</ele><time>2026-04-19T06:31:58Z</time></trkpt><trkpt lat="43.9699576889383" lon="12.075911644534978"><ele>322.0</ele><time>2026-04-19T06:31:59Z</time></trkpt><trkpt lat="43.96997705329231" lon="12.076015035610984"><ele>322.0</ele><time>2026-04-19T06:32:00Z</time></trkpt><trkpt lat="43.969936902853725" lon="12.076115283754145"><ele>322.0</ele><time>2026-04-19T06:32:01Z</time></trkpt><trkpt lat="43.96987812728492" lon="12.0762242323212"><ele>320.40000000000003</ele><time>2026-04-19T06:32:02Z</time></trkpt><trkpt lat="43.969826596681855" lon="12.076322864108665"><ele>318.8</ele><time>2026-04-19T06:32:03Z</time></trkpt><trkpt lat="43.969784690323195" lon="12.076438006997506"><ele>317.2</ele><time>2026-04-19T06:32:04Z</time></trkpt><trkpt lat="43.96974760506304" lon="12.07656245167368"><ele>315.6</ele><time>2026-04-19T06:32:05Z</time></trkpt><trkpt lat="43.96972945187354" lon="12.076691599972847"><ele>314.0</ele><time>2026-04-19T06:32:06Z</time></trkpt><trkpt lat="43.96974490774737" lon="12.076807308923653"><ele>313.83333333333337</ele><time>2026-04-19T06:32:07Z</time></trkpt><trkpt lat="43.969780229205476" lon="12.07690565397473"><ele>313.6666666666667</ele><time>2026-04-19T06:32:08Z</time></trkpt><trkpt lat="43.96983140487112" lon="12.076999947428138"><ele>313.5</ele><time>2026-04-19T06:32:09Z</time></trkpt><trkpt lat="43.969892341318186" lon="12.077084982978384"><ele>313.3333333333333</ele><time>2026-04-19T06:32:10Z</time></trkpt><trkpt lat="43.96994824499477" lon="12.077146312984759"><ele>313.16666666666663</ele><time>2026-04-19T06:32:11Z</time></trkpt><trkpt lat="43.97005017192467" lon="12.077235220474687"><ele>313.0</ele><time>2026-04-19T06:32:13Z</time></trkpt><trkpt lat="43.97010662296435" lon="12.077287965563078"><ele>315.5</ele><time>2026-04-19T06:32:14Z</time></trkpt><trkpt lat="43.970155883518146" lon="12.07735338324684"><ele>318.0</ele><time>2026-04-19T06:32:16Z</time></trkpt><trkpt lat="43.97024679040076" lon="12.077452954849916"><ele>320.5</ele><time>2026-04-19T06:32:19Z</time></trkpt><trkpt lat="43.97029771001087" lon="12.077573097933875"><ele>323.0</ele><time>2026-04-19T06:32:21Z</time></trkpt><trkpt lat="43.970257502656054" lon="12.077490202419446"><ele>325.5</ele><time>2026-04-19T06:32:56Z</time></trkpt><trkpt lat="43.970309413480614" lon="12.07742888142589"><ele>328.0</ele><time>2026-04-19T06:33:14Z</time></trkpt><trkpt lat="43.9702682265266" lon="12.077360632481176"><ele>328.0</ele><time>2026-04-19T06:33:18Z</time></trkpt><trkpt lat="43.97027675347783" lon="12.077272926233764"><ele>328.0</ele><time>2026-04-19T06:33:32Z</time></trkpt><trkpt lat="43.970296184161015" lon="12.077386909811922"><ele>328.0</ele><time>2026-04-19T06:33:35Z</time></trkpt><trkpt lat="43.9703420648711" lon="12.077476924671226"><ele>328.0</ele><time>2026-04-19T06:33:39Z</time></trkpt><trkpt lat="43.97024907463565" lon="12.077313297218929"><ele>328.0</ele><time>2026-04-19T06:33:40Z</time></trkpt><trkpt lat="43.97029877589571" lon="12.077402336607385"><ele>328.0</ele><time>2026-04-19T06:33:41Z</time></trkpt><trkpt lat="43.97031011762726" lon="12.077574775633138"><ele>328.0</ele><time>2026-04-19T06:33:44Z</time></trkpt><trkpt lat="43.97037567470923" lon="12.077719178552083"><ele>328.0</ele><time>2026-04-19T06:33:45Z</time></trkpt><trkpt lat="43.97037864895352" lon="12.077863291480101"><ele>328.0</ele><time>2026-04-19T06:33:47Z</time></trkpt><trkpt lat="43.97039328082259" lon="12.077957033214517"><ele>328.0</ele><time>2026-04-19T06:33:49.043Z</time></trkpt><trkpt lat="43.970400508877454" lon="12.078059533602376"><ele>328.0</ele><time>2026-04-19T06:33:51.04Z</time></trkpt><trkpt lat="43.97037400524489" lon="12.077748123198832"><ele>328.0</ele><time>2026-04-19T06:33:52.037Z</time></trkpt><trkpt lat="43.970136337461064" lon="12.077509381816665"><ele>328.0</ele><time>2026-04-19T06:34:09.365Z</time></trkpt><trkpt lat="43.97018660231914" lon="12.07744725858638"><ele>328.0</ele><time>2026-04-19T06:36:11.01Z</time></trkpt><trkpt lat="43.97022849603927" lon="12.077565280257206"><ele>328.0</ele><time>2026-04-19T06:36:21.999Z</time></trkpt><trkpt lat="43.97022646398495" lon="12.077472662564244"><ele>328.0</ele><time>2026-04-19T06:39:47.999Z</time></trkpt><trkpt lat="43.970292951201635" lon="12.077496645685315"><ele>328.0</ele><time>2026-04-19T06:40:04.999Z</time></trkpt><trkpt lat="43.97037376622267" lon="12.077578727162942"><ele>328.0</ele><time>2026-04-19T06:40:33.999Z</time></trkpt><trkpt lat="43.970405340061625" lon="12.07770479380848"><ele>328.0</ele><time>2026-04-19T06:40:35.999Z</time></trkpt><trkpt lat="43.97038860875898" lon="12.077848123942077"><ele>328.0</ele><time>2026-04-19T06:40:37.999Z</time></trkpt><trkpt lat="43.970403319510545" lon="12.078001925380635"><ele>328.0</ele><time>2026-04-19T06:40:40Z</time></trkpt><trkpt lat="43.97040610783468" lon="12.078115929718193"><ele>328.0</ele><time>2026-04-19T06:40:41Z</time></trkpt><trkpt lat="43.97040532216355" lon="12.078204927347373"><ele>328.0</ele><time>2026-04-19T06:40:42Z</time></trkpt><trkpt lat="43.97039825996687" lon="12.07829727697757"><ele>328.0</ele><time>2026-04-19T06:40:43Z</time></trkpt><trkpt lat="43.970390566694455" lon="12.078384565953753"><ele>327.5</ele><time>2026-04-19T06:40:44Z</time></trkpt><trkpt lat="43.9703738327605" lon="12.078496872014886"><ele>327.0</ele><time>2026-04-19T06:40:45Z</time></trkpt><trkpt lat="43.97035094850299" lon="12.078619746766558"><ele>326.5</ele><time>2026-04-19T06:40:46Z</time></trkpt><trkpt lat="43.97032387684442" lon="12.078741255359574"><ele>326.0</ele><time>2026-04-19T06:40:47Z</time></trkpt><trkpt lat="43.9703010101345" lon="12.078860565663778"><ele>325.5</ele><time>2026-04-19T06:40:48Z</time></trkpt><trkpt lat="43.970274131567926" lon="12.078978264431091"><ele>325.0</ele><time>2026-04-19T06:40:49Z</time></trkpt><trkpt lat="43.97024577140849" lon="12.079099336295576"><ele>325.0</ele><time>2026-04-19T06:40:50Z</time></trkpt><trkpt lat="43.97022041151959" lon="12.079221881687737"><ele>325.0</ele><time>2026-04-19T06:40:51Z</time></trkpt><trkpt lat="43.97019972543446" lon="12.079336471019815"><ele>325.0</ele><time>2026-04-19T06:40:52Z</time></trkpt><trkpt lat="43.97017458764593" lon="12.079442448564413"><ele>325.0</ele><time>2026-04-19T06:40:53Z</time></trkpt><trkpt lat="43.970148445235715" lon="12.079547864727276"><ele>325.0</ele><time>2026-04-19T06:40:54Z</time></trkpt><trkpt lat="43.970123907970574" lon="12.07965661288569"><ele>325.0</ele><time>2026-04-19T06:40:55Z</time></trkpt><trkpt lat="43.97009985693877" lon="12.079754450167075"><ele>325.0</ele><time>2026-04-19T06:40:56Z</time></trkpt><trkpt lat="43.970077366940245" lon="12.079841022848653"><ele>325.0</ele><time>2026-04-19T06:40:57Z</time></trkpt><trkpt lat="43.9700322492197" lon="12.079914982486583"><ele>325.0</ele><time>2026-04-19T06:40:59Z</time></trkpt><trkpt lat="43.96998966306847" lon="12.079980538251258"><ele>325.0</ele><time>2026-04-19T06:41:20Z</time></trkpt><trkpt lat="43.9699642902989" lon="12.080093772300147"><ele>325.0</ele><time>2026-04-19T06:43:24Z</time></trkpt><trkpt lat="43.969975680076665" lon="12.08021604257101"><ele>325.0</ele><time>2026-04-19T06:43:26Z</time></trkpt><trkpt lat="43.96996552213688" lon="12.080370159637317"><ele>323.0</ele><time>2026-04-19T06:43:28Z</time></trkpt><trkpt lat="43.96994123544026" lon="12.080459267003137"><ele>321.0</ele><time>2026-04-19T06:43:29Z</time></trkpt><trkpt lat="43.96991895262047" lon="12.080549735573934"><ele>319.0</ele><time>2026-04-19T06:43:30Z</time></trkpt><trkpt lat="43.96988259555241" lon="12.080697642062347"><ele>317.0</ele><time>2026-04-19T06:43:32Z</time></trkpt><trkpt lat="43.96985914800806" lon="12.08081317947249"><ele>315.0</ele><time>2026-04-19T06:43:34Z</time></trkpt><trkpt lat="43.969769783347864" lon="12.080792051895315"><ele>313.0</ele><time>2026-04-19T06:43:39Z</time></trkpt><trkpt lat="43.96975415065212" lon="12.080705188285283"><ele>310.0</ele><time>2026-04-19T06:44:54Z</time></trkpt><trkpt lat="43.969773551822506" lon="12.08080099727822"><ele>313.0</ele><time>2026-04-19T06:50:26Z</time></trkpt></trkseg><trkseg><trkpt lat="43.96972291794154" lon="12.08085716588332"><ele>313.0</ele><time>2026-04-19T07:15:58Z</time></trkpt><trkpt lat="43.96970716181892" lon="12.080973621772054"><ele>313.0</ele><time>2026-04-19T07:16:39Z</time></trkpt><trkpt lat="43.96968978278273" lon="12.081078874640978"><ele>313.0</ele><time>2026-04-19T07:16:41Z</time></trkpt><trkpt lat="43.969676224176126" lon="12.081169670643218"><ele>313.0</ele><time>2026-04-19T07:16:43Z</time></trkpt><trkpt lat="43.96971247880974" lon="12.081269618956943"><ele>313.0</ele><time>2026-04-19T07:16:46Z</time></trkpt><trkpt lat="43.96977709691635" lon="12.08132750675194"><ele>313.0</ele><time>2026-04-19T07:16:49Z</time></trkpt><trkpt lat="43.96978355445958" lon="12.081461438532891"><ele>311.8333333333333</ele><time>2026-04-19T07:16:51Z</time></trkpt><trkpt lat="43.9697612314813" lon="12.08161024807754"><ele>310.66666666666663</ele><time>2026-04-19T07:16:53Z</time></trkpt><trkpt lat="43.96975433134102" lon="12.081703255263378"><ele>309.5</ele><time>2026-04-19T07:16:54Z</time></trkpt><trkpt lat="43.96975952401838" lon="12.081802062225735"><ele>308.3333333333333</ele><time>2026-04-19T07:16:55Z</time></trkpt><trkpt lat="43.96975690990186" lon="12.081905204129825"><ele>307.1666666666667</ele><time>2026-04-19T07:16:56Z</time></trkpt><trkpt lat="43.969760502418545" lon="12.08200335286288"><ele>306.0</ele><time>2026-04-19T07:16:57Z</time></trkpt><trkpt lat="43.969765684642695" lon="12.082102597341958"><ele>306.0</ele><time>2026-04-19T07:16:58Z</time></trkpt><trkpt lat="43.969763814583004" lon="12.082202845449482"><ele>306.0</ele><time>2026-04-19T07:16:59Z</time></trkpt><trkpt lat="43.96976422380229" lon="12.082307977004453"><ele>306.0</ele><time>2026-04-19T07:17:00Z</time></trkpt><trkpt lat="43.96977318227938" lon="12.082405833398768"><ele>306.0</ele><time>2026-04-19T07:17:01Z</time></trkpt><trkpt lat="43.96976168150686" lon="12.082493622220001"><ele>306.0</ele><time>2026-04-19T07:17:02Z</time></trkpt><trkpt lat="43.96990807189689" lon="12.08262373716622"><ele>304.40000000000003</ele><time>2026-04-19T07:17:04Z</time></trkpt><trkpt lat="43.96998433351673" lon="12.08270089321269"><ele>302.8</ele><time>2026-04-19T07:17:05Z</time></trkpt><trkpt lat="43.970057286617916" lon="12.082791286986497"><ele>301.20000000000005</ele><time>2026-04-19T07:17:06Z</time></trkpt><trkpt lat="43.970150656363025" lon="12.082875185085063"><ele>299.6</ele><time>2026-04-19T07:17:07Z</time></trkpt><trkpt lat="43.97022198491035" lon="12.0829420728898"><ele>298.0</ele><time>2026-04-19T07:17:08Z</time></trkpt><trkpt lat="43.970282563661016" lon="12.082998945063043"><ele>303.2</ele><time>2026-04-19T07:17:09Z</time></trkpt><trkpt lat="43.97034197785093" lon="12.083059222384067"><ele>308.4</ele><time>2026-04-19T07:17:10Z</time></trkpt><trkpt lat="43.970410589640544" lon="12.083147686090925"><ele>313.59999999999997</ele><time>2026-04-19T07:17:11Z</time></trkpt><trkpt lat="43.97044913048578" lon="12.083265180404615"><ele>318.8</ele><time>2026-04-19T07:17:12Z</time></trkpt><trkpt lat="43.97048147145657" lon="12.083397046973573"><ele>324.0</ele><time>2026-04-19T07:17:13Z</time></trkpt><trkpt lat="43.970518128143816" lon="12.083561609680716"><ele>324.0</ele><time>2026-04-19T07:17:14Z</time></trkpt><trkpt lat="43.97052534043979" lon="12.083728489635885"><ele>324.0</ele><time>2026-04-19T07:17:15Z</time></trkpt><trkpt lat="43.97054733520842" lon="12.08386149093286"><ele>324.0</ele><time>2026-04-19T07:17:16Z</time></trkpt><trkpt lat="43.97059463132571" lon="12.083968843142982"><ele>324.0</ele><time>2026-04-19T07:17:17Z</time></trkpt><trkpt lat="43.97065819799099" lon="12.084065752934704"><ele>324.0</ele><time>2026-04-19T07:17:18Z</time></trkpt><trkpt lat="43.97071351288915" lon="12.084170643176636"><ele>322.4</ele><time>2026-04-19T07:17:19Z</time></trkpt><trkpt lat="43.97077625523561" lon="12.084273234352526"><ele>320.79999999999995</ele><time>2026-04-19T07:17:20Z</time></trkpt><trkpt lat="43.97081663725035" lon="12.084364533171778"><ele>319.20000000000005</ele><time>2026-04-19T07:17:21Z</time></trkpt><trkpt lat="43.97086262246803" lon="12.084464348033565"><ele>317.6</ele><time>2026-04-19T07:17:22Z</time></trkpt><trkpt lat="43.97091263669314" lon="12.084575229597489"><ele>316.0</ele><time>2026-04-19T07:17:23Z</time></trkpt><trkpt lat="43.97094711402655" lon="12.084705758528948"><ele>317.8333333333333</ele><time>2026-04-19T07:17:24Z</time></trkpt><trkpt lat="43.97096115847434" lon="12.084817504528917"><ele>319.66666666666663</ele><time>2026-04-19T07:17:25Z</time></trkpt><trkpt lat="43.97099852092803" lon="12.084977320629628"><ele>321.5</ele><time>2026-04-19T07:17:27Z</time></trkpt><trkpt lat="43.97102796829952" lon="12.085064061280054"><ele>323.3333333333333</ele><time>2026-04-19T07:17:28Z</time></trkpt><trkpt lat="43.971069080290256" lon="12.085157204747022"><ele>325.1666666666667</ele><time>2026-04-19T07:17:29Z</time></trkpt><trkpt lat="43.97112010836183" lon="12.085230447875237"><ele>327.0</ele><time>2026-04-19T07:17:30Z</time></trkpt><trkpt lat="43.97117427745145" lon="12.085284743932924"><ele>327.0</ele><time>2026-04-19T07:17:31Z</time></trkpt><trkpt lat="43.97128110163578" lon="12.085368870243062"><ele>327.0</ele><time>2026-04-19T07:17:33Z</time></trkpt><trkpt lat="43.97134186539421" lon="12.085425540365865"><ele>327.0</ele><time>2026-04-19T07:17:34Z</time></trkpt><trkpt lat="43.971402443766316" lon="12.085516448057449"><ele>327.0</ele><time>2026-04-19T07:17:35Z</time></trkpt><trkpt lat="43.97146894110853" lon="12.08560716942801"><ele>327.0</ele><time>2026-04-19T07:17:36Z</time></trkpt><trkpt lat="43.971508027533645" lon="12.085696130927838"><ele>327.0</ele><time>2026-04-19T07:17:37Z</time></trkpt><trkpt lat="43.97158595486575" lon="12.08572391926109"><ele>327.0</ele><time>2026-04-19T07:17:38Z</time></trkpt><trkpt lat="43.9716674462553" lon="12.085749511038362"><ele>327.0</ele><time>2026-04-19T07:17:39Z</time></trkpt><trkpt lat="43.97176192947959" lon="12.085761900277477"><ele>327.0</ele><time>2026-04-19T07:17:40Z</time></trkpt><trkpt lat="43.971853620831766" lon="12.085779438326403"><ele>327.0</ele><time>2026-04-19T07:17:41Z</time></trkpt><trkpt lat="43.97194212799983" lon="12.085801392513334"><ele>327.0</ele><time>2026-04-19T07:17:42Z</time></trkpt><trkpt lat="43.97202695237804" lon="12.085806684925236"><ele>325.0</ele><time>2026-04-19T07:17:43Z</time></trkpt><trkpt lat="43.97211498520894" lon="12.085804889199723"><ele>323.0</ele><time>2026-04-19T07:17:44Z</time></trkpt><trkpt lat="43.97220424075917" lon="12.085787498772797"><ele>321.0</ele><time>2026-04-19T07:17:45Z</time></trkpt><trkpt lat="43.972287902022615" lon="12.085752254271927"><ele>319.0</ele><time>2026-04-19T07:17:46Z</time></trkpt><trkpt lat="43.972371365412975" lon="12.085695458024276"><ele>317.0</ele><time>2026-04-19T07:17:47Z</time></trkpt><trkpt lat="43.972453455018716" lon="12.08562646767484"><ele>322.6666666666667</ele><time>2026-04-19T07:17:48Z</time></trkpt><trkpt lat="43.97253195044993" lon="12.085570595975769"><ele>328.33333333333337</ele><time>2026-04-19T07:17:49Z</time></trkpt><trkpt lat="43.97261385363926" lon="12.085514714077995"><ele>334.0</ele><time>2026-04-19T07:17:50Z</time></trkpt><trkpt lat="43.97269562022739" lon="12.085464014049991"><ele>339.6666666666667</ele><time>2026-04-19T07:17:51Z</time></trkpt><trkpt lat="43.97277126420797" lon="12.085418230175335"><ele>345.3333333333333</ele><time>2026-04-19T07:17:52Z</time></trkpt><trkpt lat="43.97284195017902" lon="12.085350368612184"><ele>351.0</ele><time>2026-04-19T07:17:53Z</time></trkpt><trkpt lat="43.97290285685246" lon="12.085279036577843"><ele>351.0</ele><time>2026-04-19T07:17:54Z</time></trkpt><trkpt lat="43.97295736737002" lon="12.085226725508551"><ele>351.0</ele><time>2026-04-19T07:17:55Z</time></trkpt><trkpt lat="43.973051844363304" lon="12.08523420985892"><ele>351.0</ele><time>2026-04-19T07:17:57Z</time></trkpt><trkpt lat="43.97307600971602" lon="12.085423586516034"><ele>351.0</ele><time>2026-04-19T07:17:59Z</time></trkpt><trkpt lat="43.97310871973871" lon="12.085531068383073"><ele>351.0</ele><time>2026-04-19T07:18:00Z</time></trkpt><trkpt lat="43.97314434684768" lon="12.085659134500744"><ele>351.0</ele><time>2026-04-19T07:18:01Z</time></trkpt><trkpt lat="43.9732081644494" lon="12.085741661731761"><ele>351.0</ele><time>2026-04-19T07:18:02Z</time></trkpt><trkpt lat="43.973289510784745" lon="12.085863264222946"><ele>351.0</ele><time>2026-04-19T07:18:03Z</time></trkpt><trkpt lat="43.97339031397994" lon="12.085964628004431"><ele>351.0</ele><time>2026-04-19T07:18:04Z</time></trkpt><trkpt lat="43.97351408742636" lon="12.086031182497898"><ele>349.5</ele><time>2026-04-19T07:18:05Z</time></trkpt><trkpt lat="43.97364208231581" lon="12.086090522798314"><ele>348.0</ele><time>2026-04-19T07:18:06Z</time></trkpt><trkpt lat="43.97377962864041" lon="12.086172004621723"><ele>346.5</ele><time>2026-04-19T07:18:07Z</time></trkpt><trkpt lat="43.973918726010105" lon="12.086234115027644"><ele>345.0</ele><time>2026-04-19T07:18:08Z</time></trkpt><trkpt lat="43.97404356090408" lon="12.086292810513488"><ele>345.0</ele><time>2026-04-19T07:18:09Z</time></trkpt><trkpt lat="43.97417170883803" lon="12.086353568901552"><ele>345.0</ele><time>2026-04-19T07:18:10Z</time></trkpt><trkpt lat="43.97429493564888" lon="12.086399710735531"><ele>345.0</ele><time>2026-04-19T07:18:11Z</time></trkpt><trkpt lat="43.9744090302596" lon="12.08645918747611"><ele>345.0</ele><time>2026-04-19T07:18:12Z</time></trkpt><trkpt lat="43.97451121696189" lon="12.08647520233405"><ele>345.8333333333333</ele><time>2026-04-19T07:18:13Z</time></trkpt><trkpt lat="43.97460189521503" lon="12.086495247789637"><ele>346.6666666666667</ele><time>2026-04-19T07:18:14Z</time></trkpt><trkpt lat="43.97468022191062" lon="12.08650218663483"><ele>347.5</ele><time>2026-04-19T07:18:15Z</time></trkpt><trkpt lat="43.974750217292346" lon="12.086508387426319"><ele>348.33333333333337</ele><time>2026-04-19T07:18:16Z</time></trkpt><trkpt lat="43.974825002530885" lon="12.08651501254105"><ele>349.1666666666667</ele><time>2026-04-19T07:18:17Z</time></trkpt><trkpt lat="43.97490179509894" lon="12.08652241477198"><ele>350.0</ele><time>2026-04-19T07:18:18Z</time></trkpt><trkpt lat="43.97501570970757" lon="12.086535492028588"><ele>346.25</ele><time>2026-04-19T07:18:20Z</time></trkpt><trkpt lat="43.97512042498874" lon="12.086548536396771"><ele>342.5</ele><time>2026-04-19T07:18:22Z</time></trkpt><trkpt lat="43.97524389351937" lon="12.086563916822335"><ele>338.75</ele><time>2026-04-19T07:18:24Z</time></trkpt><trkpt lat="43.97530786458924" lon="12.086571885446757"><ele>335.0</ele><time>2026-04-19T07:18:25Z</time></trkpt><trkpt lat="43.975505716599294" lon="12.08612440660179"><ele>335.0</ele><time>2026-04-19T07:18:28Z</time></trkpt><trkpt lat="43.97561024240283" lon="12.0860456947695"><ele>335.0</ele><time>2026-04-19T07:18:30Z</time></trkpt><trkpt lat="43.97565874141413" lon="12.085920542260364"><ele>335.0</ele><time>2026-04-19T07:18:32Z</time></trkpt><trkpt lat="43.97568304494048" lon="12.085796217525735"><ele>335.0</ele><time>2026-04-19T07:18:46Z</time></trkpt><trkpt lat="43.975696781349164" lon="12.085706316370118"><ele>335.0</ele><time>2026-04-19T07:18:54Z</time></trkpt><trkpt lat="43.97575153770083" lon="12.085625430525162"><ele>332.2</ele><time>2026-04-19T07:19:03Z</time></trkpt><trkpt lat="43.97580226602293" lon="12.085516658803396"><ele>329.4</ele><time>2026-04-19T07:19:06Z</time></trkpt><trkpt lat="43.975862687682294" lon="12.085384222688257"><ele>326.6</ele><time>2026-04-19T07:19:08Z</time></trkpt><trkpt lat="43.9758698515157" lon="12.085278836653648"><ele>323.8</ele><time>2026-04-19T07:19:09Z</time></trkpt><trkpt lat="43.97586960370842" lon="12.085170552858601"><ele>321.0</ele><time>2026-04-19T07:19:10Z</time></trkpt><trkpt lat="43.97587745997691" lon="12.085001683628578"><ele>325.6666666666667</ele><time>2026-04-19T07:19:12Z</time></trkpt><trkpt lat="43.975932909007774" lon="12.08490484510431"><ele>330.3333333333333</ele><time>2026-04-19T07:19:15Z</time></trkpt><trkpt lat="43.97600457100964" lon="12.08481883943825"><ele>335.0</ele><time>2026-04-19T07:19:17Z</time></trkpt><trkpt lat="43.9760633553379" lon="12.08475279121374"><ele>339.66666666666663</ele><time>2026-04-19T07:19:25Z</time></trkpt><trkpt lat="43.97613450699716" lon="12.084743792503822"><ele>344.3333333333333</ele><time>2026-04-19T07:19:27Z</time></trkpt><trkpt lat="43.97621718172548" lon="12.084720576509662"><ele>349.0</ele><time>2026-04-19T07:19:29Z</time></trkpt><trkpt lat="43.976307768607946" lon="12.084582561391242"><ele>349.0</ele><time>2026-04-19T07:19:31Z</time></trkpt><trkpt lat="43.97635539303742" lon="12.08446715761412"><ele>349.0</ele><time>2026-04-19T07:19:32Z</time></trkpt><trkpt lat="43.9764088442372" lon="12.084345042550467"><ele>349.0</ele><time>2026-04-19T07:19:33Z</time></trkpt><trkpt lat="43.97646137484236" lon="12.084254704482527"><ele>349.0</ele><time>2026-04-19T07:19:34Z</time></trkpt><trkpt lat="43.9765494386877" lon="12.084174528825132"><ele>349.0</ele><time>2026-04-19T07:19:35Z</time></trkpt><trkpt lat="43.97663126759908" lon="12.084098350643268"><ele>349.8333333333333</ele><time>2026-04-19T07:19:36Z</time></trkpt><trkpt lat="43.97667368783146" lon="12.083989874373904"><ele>350.66666666666663</ele><time>2026-04-19T07:19:37Z</time></trkpt><trkpt lat="43.97670001424743" lon="12.083872081029911"><ele>351.5</ele><time>2026-04-19T07:19:38Z</time></trkpt><trkpt lat="43.976744914893224" lon="12.08376974796376"><ele>352.3333333333333</ele><time>2026-04-19T07:19:39Z</time></trkpt><trkpt lat="43.97679808525791" lon="12.083690943539697"><ele>353.1666666666667</ele><time>2026-04-19T07:19:40Z</time></trkpt><trkpt lat="43.97685220624403" lon="12.083621468324072"><ele>354.0</ele><time>2026-04-19T07:19:41Z</time></trkpt><trkpt lat="43.97690324790474" lon="12.083555784170095"><ele>354.0</ele><time>2026-04-19T07:19:42Z</time></trkpt><trkpt lat="43.97695638353489" lon="12.083493041513947"><ele>354.0</ele><time>2026-04-19T07:19:43Z</time></trkpt><trkpt lat="43.977002054460705" lon="12.083430562095574"><ele>354.0</ele><time>2026-04-19T07:19:44Z</time></trkpt><trkpt lat="43.97708056671317" lon="12.08333456798957"><ele>354.0</ele><time>2026-04-19T07:19:46Z</time></trkpt><trkpt lat="43.97714442393794" lon="12.083360103567536"><ele>354.0</ele><time>2026-04-19T07:19:49Z</time></trkpt><trkpt lat="43.97729100837052" lon="12.083343277617063"><ele>354.0</ele><time>2026-04-19T07:19:51Z</time></trkpt><trkpt lat="43.97738931296523" lon="12.083341751955638"><ele>354.0</ele><time>2026-04-19T07:19:52Z</time></trkpt><trkpt lat="43.977478375464024" lon="12.083309677747195"><ele>354.0</ele><time>2026-04-19T07:19:53Z</time></trkpt><trkpt lat="43.97756036301747" lon="12.08329273327275"><ele>354.0</ele><time>2026-04-19T07:19:54Z</time></trkpt><trkpt lat="43.977629667032524" lon="12.083270847373711"><ele>354.0</ele><time>2026-04-19T07:19:55Z</time></trkpt><trkpt lat="43.977675039527476" lon="12.083199998455695"><ele>354.0</ele><time>2026-04-19T07:19:56Z</time></trkpt><trkpt lat="43.97770034201956" lon="12.083080252720348"><ele>353.5</ele><time>2026-04-19T07:19:57Z</time></trkpt><trkpt lat="43.97773416683285" lon="12.082988833898098"><ele>353.0</ele><time>2026-04-19T07:19:58Z</time></trkpt><trkpt lat="43.977732484642004" lon="12.082894975727488"><ele>352.5</ele><time>2026-04-19T07:20:01Z</time></trkpt><trkpt lat="43.97771481754465" lon="12.08278838595972"><ele>352.0</ele><time>2026-04-19T07:20:26Z</time></trkpt><trkpt lat="43.97773123461571" lon="12.082674437405226"><ele>351.5</ele><time>2026-04-19T07:20:55Z</time></trkpt><trkpt lat="43.97776397902426" lon="12.082581892266743"><ele>351.0</ele><time>2026-04-19T07:21:36Z</time></trkpt><trkpt lat="43.97784637889626" lon="12.082514725974589"><ele>356.0</ele><time>2026-04-19T07:21:44Z</time></trkpt><trkpt lat="43.97792469198038" lon="12.08239286469818"><ele>361.0</ele><time>2026-04-19T07:21:46Z</time></trkpt><trkpt lat="43.977980528812786" lon="12.08231506444575"><ele>366.0</ele><time>2026-04-19T07:21:47Z</time></trkpt><trkpt lat="43.97804191267716" lon="12.082219553309269"><ele>371.0</ele><time>2026-04-19T07:21:48Z</time></trkpt><trkpt lat="43.97808683494065" lon="12.082151909827438"><ele>376.0</ele><time>2026-04-19T07:21:49Z</time></trkpt><trkpt lat="43.978191312774726" lon="12.082065810567324"><ele>376.0</ele><time>2026-04-19T07:21:51Z</time></trkpt><trkpt lat="43.97827614415889" lon="12.081976817009135"><ele>376.0</ele><time>2026-04-19T07:21:53Z</time></trkpt><trkpt lat="43.97829928731321" lon="12.081878810250181"><ele>376.0</ele><time>2026-04-19T07:21:55Z</time></trkpt><trkpt lat="43.97833629249697" lon="12.08180314294611"><ele>376.0</ele><time>2026-04-19T07:21:57Z</time></trkpt><trkpt lat="43.97839218916394" lon="12.081742467717916"><ele>376.0</ele><time>2026-04-19T07:21:59Z</time></trkpt><trkpt lat="43.97844676641784" lon="12.081646257941443"><ele>376.0</ele><time>2026-04-19T07:22:02Z</time></trkpt><trkpt lat="43.978495385343166" lon="12.081590196034655"><ele>377.4</ele><time>2026-04-19T07:22:04Z</time></trkpt><trkpt lat="43.9785715756076" lon="12.081462621815694"><ele>378.8</ele><time>2026-04-19T07:22:06Z</time></trkpt><trkpt lat="43.97860789995788" lon="12.08137344648395"><ele>380.2</ele><time>2026-04-19T07:22:07Z</time></trkpt><trkpt lat="43.978629961909625" lon="12.081275730888148"><ele>381.59999999999997</ele><time>2026-04-19T07:22:08Z</time></trkpt><trkpt lat="43.97867891855378" lon="12.081185183514743"><ele>383.0</ele><time>2026-04-19T07:22:10Z</time></trkpt><trkpt lat="43.978697437400996" lon="12.08104182369318"><ele>383.0</ele><time>2026-04-19T07:22:13Z</time></trkpt><trkpt lat="43.978731445297385" lon="12.08091450820098"><ele>383.0</ele><time>2026-04-19T07:22:15Z</time></trkpt><trkpt lat="43.97872039469867" lon="12.080811905589085"><ele>383.0</ele><time>2026-04-19T07:22:17Z</time></trkpt><trkpt lat="43.97873583678778" lon="12.080676525739687"><ele>383.0</ele><time>2026-04-19T07:22:19Z</time></trkpt><trkpt lat="43.97876547352015" lon="12.08059252839023"><ele>383.0</ele><time>2026-04-19T07:22:20Z</time></trkpt><trkpt lat="43.978810256999495" lon="12.080529167345423"><ele>383.0</ele><time>2026-04-19T07:22:21Z</time></trkpt><trkpt lat="43.97887167115598" lon="12.08050391150772"><ele>385.1666666666667</ele><time>2026-04-19T07:22:22Z</time></trkpt><trkpt lat="43.978936937595435" lon="12.08047908529918"><ele>387.33333333333337</ele><time>2026-04-19T07:22:23Z</time></trkpt><trkpt lat="43.979039871255225" lon="12.080394906856984"><ele>389.5</ele><time>2026-04-19T07:22:25Z</time></trkpt><trkpt lat="43.979107127327474" lon="12.080288708760392"><ele>391.6666666666667</ele><time>2026-04-19T07:22:27Z</time></trkpt><trkpt lat="43.97911147203658" lon="12.080192946228873"><ele>393.8333333333333</ele><time>2026-04-19T07:22:28Z</time></trkpt><trkpt lat="43.979110061119805" lon="12.080088969702736"><ele>396.0</ele><time>2026-04-19T07:22:29Z</time></trkpt><trkpt lat="43.97911839526113" lon="12.079989030289891"><ele>398.3333333333333</ele><time>2026-04-19T07:22:31Z</time></trkpt><trkpt lat="43.97911028959728" lon="12.079888847477763"><ele>400.66666666666663</ele><time>2026-04-19T07:23:24Z</time></trkpt><trkpt lat="43.97912798877231" lon="12.079803396810322"><ele>403.0</ele><time>2026-04-19T07:23:40Z</time></trkpt><trkpt lat="43.97912137618535" lon="12.07989255165066"><ele>405.3333333333333</ele><time>2026-04-19T07:24:10Z</time></trkpt><trkpt lat="43.97911172709382" lon="12.079772059210253"><ele>407.66666666666663</ele><time>2026-04-19T07:24:28Z</time></trkpt><trkpt lat="43.979091338163556" lon="12.079651106822219"><ele>410.0</ele><time>2026-04-19T07:24:30Z</time></trkpt><trkpt lat="43.979135468030954" lon="12.079549685022528"><ele>411.16666666666663</ele><time>2026-04-19T07:24:32Z</time></trkpt><trkpt lat="43.979199143070204" lon="12.079468410657697"><ele>412.3333333333333</ele><time>2026-04-19T07:24:34Z</time></trkpt><trkpt lat="43.97928119627764" lon="12.079450349866725"><ele>413.5</ele><time>2026-04-19T07:24:36Z</time></trkpt><trkpt lat="43.9793586122915" lon="12.079439589930326"><ele>414.66666666666663</ele><time>2026-04-19T07:24:43.999Z</time></trkpt><trkpt lat="43.97944234593038" lon="12.079469030253902"><ele>415.8333333333333</ele><time>2026-04-19T07:24:46.999Z</time></trkpt><trkpt lat="43.97950045354267" lon="12.079511856859334"><ele>417.0</ele><time>2026-04-19T07:24:48.999Z</time></trkpt><trkpt lat="43.97956954749659" lon="12.079579454036873"><ele>417.0</ele><time>2026-04-19T07:24:50.999Z</time></trkpt><trkpt lat="43.97963883504391" lon="12.079651662939467"><ele>417.0</ele><time>2026-04-19T07:24:53.999Z</time></trkpt><trkpt lat="43.97967957402097" lon="12.07978821643401"><ele>417.0</ele><time>2026-04-19T07:24:55.999Z</time></trkpt><trkpt lat="43.97967392655782" lon="12.079960227975524"><ele>417.0</ele><time>2026-04-19T07:24:57.999Z</time></trkpt><trkpt lat="43.97971540116268" lon="12.080031257276406"><ele>417.0</ele><time>2026-04-19T07:24:58.999Z</time></trkpt><trkpt lat="43.97978765662076" lon="12.080053219277431"><ele>415.0</ele><time>2026-04-19T07:24:59.999Z</time></trkpt><trkpt lat="43.979862079956604" lon="12.080034230463516"><ele>413.0</ele><time>2026-04-19T07:25:00.999Z</time></trkpt><trkpt lat="43.97993828680356" lon="12.080021634221625"><ele>411.0</ele><time>2026-04-19T07:25:01.999Z</time></trkpt><trkpt lat="43.98004633712232" lon="12.080027726839676"><ele>409.0</ele><time>2026-04-19T07:25:03.999Z</time></trkpt><trkpt lat="43.98013575273416" lon="12.080114051486992"><ele>407.0</ele><time>2026-04-19T07:25:05.999Z</time></trkpt><trkpt lat="43.98014538523587" lon="12.080251051451992"><ele>413.25</ele><time>2026-04-19T07:25:07.999Z</time></trkpt><trkpt lat="43.98012702941192" lon="12.080352915758139"><ele>419.5</ele><time>2026-04-19T07:25:09.999Z</time></trkpt><trkpt lat="43.98019711438997" lon="12.080690647674919"><ele>425.75</ele><time>2026-04-19T07:25:12.999Z</time></trkpt><trkpt lat="43.98022081603131" lon="12.08081900113155"><ele>432.0</ele><time>2026-04-19T07:25:14.999Z</time></trkpt><trkpt lat="43.980288023614285" lon="12.08090646895902"><ele>432.0</ele><time>2026-04-19T07:25:16.999Z</time></trkpt><trkpt lat="43.98035860802343" lon="12.080967270365802"><ele>432.0</ele><time>2026-04-19T07:25:19.999Z</time></trkpt><trkpt lat="43.980421473759876" lon="12.081028147978621"><ele>432.0</ele><time>2026-04-19T07:25:21.999Z</time></trkpt><trkpt lat="43.98049912252987" lon="12.081097122705154"><ele>432.0</ele><time>2026-04-19T07:25:24.999Z</time></trkpt><trkpt lat="43.980588532693886" lon="12.081144744893072"><ele>432.0</ele><time>2026-04-19T07:25:26.999Z</time></trkpt><trkpt lat="43.980676501694454" lon="12.081185894896104"><ele>432.0</ele><time>2026-04-19T07:25:28.999Z</time></trkpt><trkpt lat="43.980749418540555" lon="12.081234614568519"><ele>432.0</ele><time>2026-04-19T07:25:31.999Z</time></trkpt><trkpt lat="43.98081107675007" lon="12.081278726727907"><ele>432.0</ele><time>2026-04-19T07:25:33.999Z</time></trkpt><trkpt lat="43.980909682604" lon="12.08130779928412"><ele>432.0</ele><time>2026-04-19T07:25:37Z</time></trkpt><trkpt lat="43.98097365307629" lon="12.0812710957146"><ele>432.0</ele><time>2026-04-19T07:25:39Z</time></trkpt><trkpt lat="43.981039530829314" lon="12.081248557142946"><ele>432.0</ele><time>2026-04-19T07:25:41Z</time></trkpt><trkpt lat="43.98109714160996" lon="12.081208104657124"><ele>432.0</ele><time>2026-04-19T07:25:44Z</time></trkpt><trkpt lat="43.98116471443852" lon="12.081205033788242"><ele>432.0</ele><time>2026-04-19T07:25:47Z</time></trkpt><trkpt lat="43.98124111622676" lon="12.08118704902387"><ele>436.0</ele><time>2026-04-19T07:25:51Z</time></trkpt><trkpt lat="43.981328782068644" lon="12.081152006685999"><ele>440.00000000000006</ele><time>2026-04-19T07:25:54Z</time></trkpt><trkpt lat="43.98141371175177" lon="12.081177493279364"><ele>444.00000000000006</ele><time>2026-04-19T07:25:57Z</time></trkpt><trkpt lat="43.981495390757054" lon="12.0812594967638"><ele>448.0</ele><time>2026-04-19T07:25:59Z</time></trkpt><trkpt lat="43.98152968742395" lon="12.081423827561114"><ele>452.0</ele><time>2026-04-19T07:26:01Z</time></trkpt><trkpt lat="43.9815043826969" lon="12.081551401652115"><ele>449.49999999999994</ele><time>2026-04-19T07:26:02Z</time></trkpt><trkpt lat="43.98149274477172" lon="12.081652653229646"><ele>447.0</ele><time>2026-04-19T07:26:03Z</time></trkpt><trkpt lat="43.981504007370226" lon="12.081802380187495"><ele>444.5</ele><time>2026-04-19T07:26:05Z</time></trkpt><trkpt lat="43.98150127474174" lon="12.081910216568046"><ele>442.0</ele><time>2026-04-19T07:26:07Z</time></trkpt><trkpt lat="43.98150088428467" lon="12.08201516825349"><ele>439.49999999999994</ele><time>2026-04-19T07:26:20Z</time></trkpt><trkpt lat="43.98156939027084" lon="12.082054076984036"><ele>437.0</ele><time>2026-04-19T07:26:52.999Z</time></trkpt><trkpt lat="43.98162186019508" lon="12.082134147550477"><ele>440.8333333333333</ele><time>2026-04-19T07:26:55.999Z</time></trkpt><trkpt lat="43.98168653814646" lon="12.082259561742394"><ele>444.66666666666663</ele><time>2026-04-19T07:26:57.999Z</time></trkpt><trkpt lat="43.98174237744066" lon="12.082318657497613"><ele>448.5</ele><time>2026-04-19T07:26:58.999Z</time></trkpt><trkpt lat="43.981812920965744" lon="12.08234950221923"><ele>452.33333333333337</ele><time>2026-04-19T07:26:59.999Z</time></trkpt><trkpt lat="43.98185400384685" lon="12.082444151406452"><ele>456.1666666666667</ele><time>2026-04-19T07:27:01.999Z</time></trkpt><trkpt lat="43.981826946926795" lon="12.08253569126891"><ele>460.0</ele><time>2026-04-19T07:27:02.999Z</time></trkpt><trkpt lat="43.981807575257115" lon="12.082690033759993"><ele>460.0</ele><time>2026-04-19T07:27:04.999Z</time></trkpt><trkpt lat="43.98179528718359" lon="12.082811085005211"><ele>460.0</ele><time>2026-04-19T07:27:07.999Z</time></trkpt><trkpt lat="43.98176770196209" lon="12.083016033799238"><ele>460.0</ele><time>2026-04-19T07:27:09.999Z</time></trkpt><trkpt lat="43.98174447098676" lon="12.083118271561114"><ele>460.0</ele><time>2026-04-19T07:27:10.999Z</time></trkpt><trkpt lat="43.98169829139018" lon="12.083177934239442"><ele>460.0</ele><time>2026-04-19T07:27:11.999Z</time></trkpt><trkpt lat="43.98162551829276" lon="12.083221749396309"><ele>454.00000000000006</ele><time>2026-04-19T07:27:12.999Z</time></trkpt><trkpt lat="43.981564739682554" lon="12.08326242822287"><ele>448.0</ele><time>2026-04-19T07:27:13.999Z</time></trkpt><trkpt lat="43.98151650182219" lon="12.083325865563216"><ele>442.0</ele><time>2026-04-19T07:27:14.999Z</time></trkpt><trkpt lat="43.981432845499036" lon="12.083480983166014"><ele>436.0</ele><time>2026-04-19T07:27:16.999Z</time></trkpt><trkpt lat="43.98137477048671" lon="12.083540586057927"><ele>430.00000000000006</ele><time>2026-04-19T07:27:17.999Z</time></trkpt><trkpt lat="43.98133091405716" lon="12.083618272216256"><ele>424.0</ele><time>2026-04-19T07:27:18.999Z</time></trkpt><trkpt lat="43.98126060789709" lon="12.083697894981672"><ele>424.00000000000006</ele><time>2026-04-19T07:27:19.999Z</time></trkpt><trkpt lat="43.98116308507139" lon="12.083735349107364"><ele>424.0</ele><time>2026-04-19T07:27:20.999Z</time></trkpt><trkpt lat="43.9810810647996" lon="12.083763085883533"><ele>424.0</ele><time>2026-04-19T07:27:21.999Z</time></trkpt><trkpt lat="43.981021917141916" lon="12.083819941720986"><ele>424.0</ele><time>2026-04-19T07:27:22.999Z</time></trkpt><trkpt lat="43.9809581359711" lon="12.083849902081308"><ele>424.00000000000006</ele><time>2026-04-19T07:27:23.999Z</time></trkpt><trkpt lat="43.98088104441982" lon="12.083889375122933"><ele>424.0</ele><time>2026-04-19T07:27:25.999Z</time></trkpt><trkpt lat="43.98094139786863" lon="12.083967282548898"><ele>424.00000000000006</ele><time>2026-04-19T07:27:33Z</time></trkpt><trkpt lat="43.981035701229594" lon="12.083979838778067"><ele>424.0</ele><time>2026-04-19T07:27:35Z</time></trkpt><trkpt lat="43.98110205720328" lon="12.083949635603796"><ele>424.0</ele><time>2026-04-19T07:27:38Z</time></trkpt><trkpt lat="43.98106238183948" lon="12.084067999202537"><ele>424.0</ele><time>2026-04-19T07:27:43Z</time></trkpt><trkpt lat="43.98103614580541" lon="12.08414999779892"><ele>424.00000000000006</ele><time>2026-04-19T07:27:44Z</time></trkpt><trkpt lat="43.98101101763505" lon="12.084265329525214"><ele>424.0</ele><time>2026-04-19T07:27:46Z</time></trkpt><trkpt lat="43.980957195267386" lon="12.084410166943876"><ele>428.79999999999995</ele><time>2026-04-19T07:27:48Z</time></trkpt><trkpt lat="43.980899103137375" lon="12.084543778346742"><ele>433.59999999999997</ele><time>2026-04-19T07:27:50Z</time></trkpt><trkpt lat="43.98087834041997" lon="12.084694710842639"><ele>438.4</ele><time>2026-04-19T07:27:54Z</time></trkpt><trkpt lat="43.980930972005794" lon="12.084801900143239"><ele>443.2</ele><time>2026-04-19T07:27:57Z</time></trkpt><trkpt lat="43.980985564945314" lon="12.084918321960656"><ele>448.0</ele><time>2026-04-19T07:27:59Z</time></trkpt><trkpt lat="43.981041505162196" lon="12.084978975270989"><ele>448.00000000000006</ele><time>2026-04-19T07:28:02Z</time></trkpt><trkpt lat="43.9811114677882" lon="12.085032294292784"><ele>448.0</ele><time>2026-04-19T07:28:04Z</time></trkpt><trkpt lat="43.98121510893629" lon="12.085017746788743"><ele>448.0</ele><time>2026-04-19T07:28:06Z</time></trkpt><trkpt lat="43.98129279131112" lon="12.08495092766237"><ele>448.0</ele><time>2026-04-19T07:28:08Z</time></trkpt><trkpt lat="43.98135187105354" lon="12.084907144232204"><ele>448.00000000000006</ele><time>2026-04-19T07:28:09Z</time></trkpt><trkpt lat="43.981401698000155" lon="12.084837749376712"><ele>448.0</ele><time>2026-04-19T07:28:11Z</time></trkpt><trkpt lat="43.98147234868195" lon="12.084808468082704"><ele>448.00000000000006</ele><time>2026-04-19T07:28:15Z</time></trkpt><trkpt lat="43.981540597452494" lon="12.084756277465559"><ele>448.0</ele><time>2026-04-19T07:28:16Z</time></trkpt><trkpt lat="43.9815949674342" lon="12.084678154018818"><ele>448.0</ele><time>2026-04-19T07:28:18Z</time></trkpt><trkpt lat="43.98171249377354" lon="12.084599182987212"><ele>448.0</ele><time>2026-04-19T07:28:20Z</time></trkpt><trkpt lat="43.98178248936442" lon="12.08456617921791"><ele>448.00000000000006</ele><time>2026-04-19T07:28:22Z</time></trkpt><trkpt lat="43.98186579950558" lon="12.08456784449527"><ele>448.0</ele><time>2026-04-19T07:28:24Z</time></trkpt><trkpt lat="43.981944881886996" lon="12.084525282966434"><ele>452.1666666666667</ele><time>2026-04-19T07:28:25Z</time></trkpt><trkpt lat="43.982008095249554" lon="12.08449666954618"><ele>456.33333333333337</ele><time>2026-04-19T07:28:26Z</time></trkpt><trkpt lat="43.98209470571636" lon="12.084472040544592"><ele>460.5</ele><time>2026-04-19T07:28:28Z</time></trkpt><trkpt lat="43.982174879683875" lon="12.08444628451828"><ele>464.66666666666663</ele><time>2026-04-19T07:28:30Z</time></trkpt><trkpt lat="43.98223155826822" lon="12.084508460190662"><ele>468.8333333333333</ele><time>2026-04-19T07:28:32Z</time></trkpt><trkpt lat="43.98232690252896" lon="12.084513653752884"><ele>473.0</ele><time>2026-04-19T07:28:34Z</time></trkpt><trkpt lat="43.982422719036556" lon="12.084435598049451"><ele>473.0</ele><time>2026-04-19T07:28:36Z</time></trkpt><trkpt lat="43.98249057546853" lon="12.08438548814379"><ele>473.0</ele><time>2026-04-19T07:28:39Z</time></trkpt><trkpt lat="43.98274619350875" lon="12.08422512117414"><ele>473.0</ele><time>2026-04-19T07:28:43Z</time></trkpt><trkpt lat="43.98281677543834" lon="12.084126754125409"><ele>478.79999999999995</ele><time>2026-04-19T07:28:45Z</time></trkpt><trkpt lat="43.982867803603206" lon="12.08401221808086"><ele>484.59999999999997</ele><time>2026-04-19T07:28:47Z</time></trkpt><trkpt lat="43.98293222147339" lon="12.08390117521254"><ele>490.40000000000003</ele><time>2026-04-19T07:28:49Z</time></trkpt><trkpt lat="43.982991211882165" lon="12.083758524684496"><ele>496.20000000000005</ele><time>2026-04-19T07:28:51Z</time></trkpt><trkpt lat="43.98305619382111" lon="12.083619244411192"><ele>502.0</ele><time>2026-04-19T07:28:53Z</time></trkpt><trkpt lat="43.98312262120946" lon="12.083490737962647"><ele>502.0</ele><time>2026-04-19T07:28:54.999Z</time></trkpt><trkpt lat="43.983159751865806" lon="12.083355635188664"><ele>502.00000000000006</ele><time>2026-04-19T07:28:56.999Z</time></trkpt><trkpt lat="43.983194890167674" lon="12.083205913677647"><ele>502.00000000000006</ele><time>2026-04-19T07:28:58.999Z</time></trkpt><trkpt lat="43.98316946565683" lon="12.083045139763732"><ele>502.0</ele><time>2026-04-19T07:29:00.999Z</time></trkpt><trkpt lat="43.983164322689575" lon="12.082928759003698"><ele>502.0</ele><time>2026-04-19T07:29:02.999Z</time></trkpt><trkpt lat="43.9832406538672" lon="12.08284915180964"><ele>504.6</ele><time>2026-04-19T07:29:04.999Z</time></trkpt><trkpt lat="43.98335817579033" lon="12.08277932801771"><ele>507.20000000000005</ele><time>2026-04-19T07:29:07Z</time></trkpt><trkpt lat="43.98343050902551" lon="12.082638662168543"><ele>509.8</ele><time>2026-04-19T07:29:09Z</time></trkpt><trkpt lat="43.98349234924532" lon="12.082573242048998"><ele>512.4</ele><time>2026-04-19T07:29:10Z</time></trkpt><trkpt lat="43.98355294971799" lon="12.082513207928496"><ele>515.0</ele><time>2026-04-19T07:29:11Z</time></trkpt><trkpt lat="43.98359621457274" lon="12.082448650347825"><ele>520.25</ele><time>2026-04-19T07:29:12Z</time></trkpt><trkpt lat="43.98364285281819" lon="12.082321872981714"><ele>525.5</ele><time>2026-04-19T07:29:14Z</time></trkpt><trkpt lat="43.98375968073431" lon="12.082125996253305"><ele>530.75</ele><time>2026-04-19T07:29:17Z</time></trkpt><trkpt lat="43.98381830699042" lon="12.082086346699475"><ele>536.0</ele><time>2026-04-19T07:29:18Z</time></trkpt><trkpt lat="43.9839333078708" lon="12.082076054946171"><ele>536.0</ele><time>2026-04-19T07:29:20Z</time></trkpt><trkpt lat="43.98400607696064" lon="12.082101561204711"><ele>536.0</ele><time>2026-04-19T07:29:22Z</time></trkpt><trkpt lat="43.98413083156982" lon="12.082086966429058"><ele>536.0</ele><time>2026-04-19T07:29:49Z</time></trkpt><trkpt lat="43.98419957545915" lon="12.08201251467318"><ele>536.0</ele><time>2026-04-19T07:29:50Z</time></trkpt><trkpt lat="43.984315150463914" lon="12.081960404663302"><ele>536.0</ele><time>2026-04-19T07:29:52Z</time></trkpt><trkpt lat="43.98441933900681" lon="12.081899657133162"><ele>538.0</ele><time>2026-04-19T07:29:54Z</time></trkpt><trkpt lat="43.98446261879137" lon="12.081823980749425"><ele>540.0</ele><time>2026-04-19T07:29:58Z</time></trkpt><trkpt lat="43.98452305443214" lon="12.081744065913773"><ele>542.0</ele><time>2026-04-19T07:30:00Z</time></trkpt><trkpt lat="43.984565037725595" lon="12.081654999505492"><ele>544.0</ele><time>2026-04-19T07:30:01Z</time></trkpt><trkpt lat="43.98462924472629" lon="12.081573027526664"><ele>546.0</ele><time>2026-04-19T07:30:02Z</time></trkpt><trkpt lat="43.98468798264599" lon="12.08147415614058"><ele>548.0</ele><time>2026-04-19T07:30:04Z</time></trkpt><trkpt lat="43.98474454246482" lon="12.081424588059194"><ele>548.0000000000001</ele><time>2026-04-19T07:30:05Z</time></trkpt><trkpt lat="43.984779959789016" lon="12.081334360695285"><ele>548.0</ele><time>2026-04-19T07:30:07Z</time></trkpt><trkpt lat="43.984821105282926" lon="12.08126079322107"><ele>548.0</ele><time>2026-04-19T07:30:11Z</time></trkpt><trkpt lat="43.984891759012775" lon="12.081162993528414"><ele>548.0</ele><time>2026-04-19T07:31:05Z</time></trkpt><trkpt lat="43.984846317262146" lon="12.081098813206253"><ele>548.0</ele><time>2026-04-19T07:31:09Z</time></trkpt><trkpt lat="43.98480046996068" lon="12.081160520545527"><ele>548.0000000000001</ele><time>2026-04-19T07:31:15Z</time></trkpt><trkpt lat="43.984734655243116" lon="12.081179551633628"><ele>548.0</ele><time>2026-04-19T07:31:18Z</time></trkpt><trkpt lat="43.98468359873915" lon="12.081271621526989"><ele>548.0000000000001</ele><time>2026-04-19T07:31:21Z</time></trkpt><trkpt lat="43.98460990918808" lon="12.081271264431079"><ele>548.0</ele><time>2026-04-19T07:31:24Z</time></trkpt><trkpt lat="43.98454442035357" lon="12.081237618205519"><ele>548.0</ele><time>2026-04-19T07:31:27Z</time></trkpt><trkpt lat="43.984476211625164" lon="12.081200588829025"><ele>548.0</ele><time>2026-04-19T07:31:34Z</time></trkpt><trkpt lat="43.98439209254023" lon="12.081213413513762"><ele>548.0</ele><time>2026-04-19T07:32:30Z</time></trkpt><trkpt lat="43.9843504721254" lon="12.081117418175433"><ele>548.0000000000001</ele><time>2026-04-19T07:32:35Z</time></trkpt><trkpt lat="43.98431217920863" lon="12.081041815558631"><ele>548.0</ele><time>2026-04-19T07:32:38Z</time></trkpt><trkpt lat="43.98426444241286" lon="12.080951421244558"><ele>548.0000000000001</ele><time>2026-04-19T07:32:41Z</time></trkpt><trkpt lat="43.98425856739419" lon="12.080844960730895"><ele>548.0</ele><time>2026-04-19T07:32:43Z</time></trkpt><trkpt lat="43.98423684348676" lon="12.080740297049797"><ele>548.0</ele><time>2026-04-19T07:32:45Z</time></trkpt><trkpt lat="43.98422853508283" lon="12.080652555645452"><ele>548.0</ele><time>2026-04-19T07:32:47Z</time></trkpt><trkpt lat="43.98425499165424" lon="12.080566771368174"><ele>548.0</ele><time>2026-04-19T07:32:49Z</time></trkpt><trkpt lat="43.98432140179606" lon="12.080512371185314"><ele>548.0000000000001</ele><time>2026-04-19T07:32:52Z</time></trkpt><trkpt lat="43.98429307930648" lon="12.080423968352317"><ele>548.0</ele><time>2026-04-19T07:36:12Z</time></trkpt><trkpt lat="43.98428924945796" lon="12.080303925267089"><ele>553.6666666666666</ele><time>2026-04-19T07:36:16Z</time></trkpt><trkpt lat="43.98429021447005" lon="12.080206079803174"><ele>559.3333333333333</ele><time>2026-04-19T07:36:20Z</time></trkpt><trkpt lat="43.98424032095971" lon="12.08008636152651"><ele>565.0</ele><time>2026-04-19T07:36:41Z</time></trkpt><trkpt lat="43.98429556823632" lon="12.08016307253788"><ele>570.6666666666666</ele><time>2026-04-19T07:42:28.998Z</time></trkpt><trkpt lat="43.98436877879799" lon="12.080153770108115"><ele>576.3333333333334</ele><time>2026-04-19T07:42:39.998Z</time></trkpt><trkpt lat="43.984302207902964" lon="12.080161275811497"><ele>582.0</ele><time>2026-04-19T07:43:09.998Z</time></trkpt><trkpt lat="43.98422975299444" lon="12.080120555026728"><ele>582.0</ele><time>2026-04-19T07:43:19.998Z</time></trkpt><trkpt lat="43.98428893165414" lon="12.080154141756376"><ele>582.0</ele><time>2026-04-19T07:43:28.998Z</time></trkpt><trkpt lat="43.98437936962061" lon="12.080107717318572"><ele>582.0</ele><time>2026-04-19T07:43:36.998Z</time></trkpt><trkpt lat="43.98442389204103" lon="12.080031654077132"><ele>582.0</ele><time>2026-04-19T07:44:33Z</time></trkpt><trkpt lat="43.98449588989431" lon="12.079959546699381"><ele>582.0</ele><time>2026-04-19T07:44:40Z</time></trkpt><trkpt lat="43.984551336221934" lon="12.079907476469641"><ele>582.0</ele><time>2026-04-19T07:44:43Z</time></trkpt><trkpt lat="43.98456586630089" lon="12.079813319753804"><ele>584.0</ele><time>2026-04-19T07:44:47Z</time></trkpt><trkpt lat="43.984626198515684" lon="12.079759794947018"><ele>586.0</ele><time>2026-04-19T07:45:06Z</time></trkpt><trkpt lat="43.98467690327" lon="12.079665592452539"><ele>588.0</ele><time>2026-04-19T07:45:12Z</time></trkpt><trkpt lat="43.984743640963465" lon="12.079690675998737"><ele>590.0</ele><time>2026-04-19T07:45:26Z</time></trkpt><trkpt lat="43.98477797914017" lon="12.079603065927632"><ele>592.0</ele><time>2026-04-19T07:45:31Z</time></trkpt><trkpt lat="43.98470950743539" lon="12.079575994756315"><ele>594.0</ele><time>2026-04-19T07:45:40Z</time></trkpt><trkpt lat="43.98472762499402" lon="12.079491361166829"><ele>596.0</ele><time>2026-04-19T07:45:54.999Z</time></trkpt><trkpt lat="43.98470717010655" lon="12.079405663885701"><ele>596.0</ele><time>2026-04-19T07:45:57.999Z</time></trkpt><trkpt lat="43.984673006658994" lon="12.079317219339211"><ele>596.0</ele><time>2026-04-19T07:46:00.999Z</time></trkpt><trkpt lat="43.984578614508166" lon="12.079186998506138"><ele>596.0</ele><time>2026-04-19T07:47:04Z</time></trkpt><trkpt lat="43.984518703352684" lon="12.079158016971807"><ele>596.0</ele><time>2026-04-19T07:47:08Z</time></trkpt><trkpt lat="43.98444558462995" lon="12.079133148592229"><ele>596.0</ele><time>2026-04-19T07:47:11Z</time></trkpt><trkpt lat="43.98437427889233" lon="12.079065065738483"><ele>596.0</ele><time>2026-04-19T07:47:15Z</time></trkpt><trkpt lat="43.98428983324136" lon="12.079005313703739"><ele>594.1666666666666</ele><time>2026-04-19T07:47:18Z</time></trkpt><trkpt lat="43.98421300944299" lon="12.078948288489942"><ele>592.3333333333333</ele><time>2026-04-19T07:47:20Z</time></trkpt><trkpt lat="43.9841397971528" lon="12.07892060062875"><ele>590.5</ele><time>2026-04-19T07:47:23Z</time></trkpt><trkpt lat="43.98408503887832" lon="12.078866337774903"><ele>588.6666666666666</ele><time>2026-04-19T07:47:25Z</time></trkpt><trkpt lat="43.984005557227185" lon="12.078802604658536"><ele>586.8333333333334</ele><time>2026-04-19T07:47:27Z</time></trkpt><trkpt lat="43.983942587468704" lon="12.078766789547966"><ele>585.0</ele><time>2026-04-19T07:47:29Z</time></trkpt><trkpt lat="43.98387181136002" lon="12.078725641373614"><ele>585.0</ele><time>2026-04-19T07:47:32Z</time></trkpt><trkpt lat="43.98378498827742" lon="12.078697904303901"><ele>585.0</ele><time>2026-04-19T07:47:34Z</time></trkpt><trkpt lat="43.983733897876256" lon="12.078616217458313"><ele>585.0</ele><time>2026-04-19T07:47:36Z</time></trkpt><trkpt lat="43.98365324276064" lon="12.07860276174311"><ele>585.0</ele><time>2026-04-19T07:47:40Z</time></trkpt><trkpt lat="43.98360534964913" lon="12.078542674163279"><ele>585.0</ele><time>2026-04-19T07:47:43Z</time></trkpt><trkpt lat="43.98353366328968" lon="12.078476935393532"><ele>585.0</ele><time>2026-04-19T07:47:46Z</time></trkpt><trkpt lat="43.98346250469714" lon="12.0783672105386"><ele>580.0</ele><time>2026-04-19T07:47:48.999Z</time></trkpt><trkpt lat="43.98344545472315" lon="12.07826155126314"><ele>575.0</ele><time>2026-04-19T07:47:51.999Z</time></trkpt><trkpt lat="43.98338543315557" lon="12.078218375491824"><ele>570.0</ele><time>2026-04-19T07:47:53.999Z</time></trkpt><trkpt lat="43.983328204005396" lon="12.078121349829354"><ele>565.0</ele><time>2026-04-19T07:47:56.999Z</time></trkpt><trkpt lat="43.983275191221566" lon="12.078050414328025"><ele>560.0</ele><time>2026-04-19T07:47:58.999Z</time></trkpt><trkpt lat="43.98320568590275" lon="12.077932840923811"><ele>555.0</ele><time>2026-04-19T07:48:01.999Z</time></trkpt><trkpt lat="43.98314372524715" lon="12.077880892376898"><ele>555.0</ele><time>2026-04-19T07:48:04.999Z</time></trkpt><trkpt lat="43.983078547075266" lon="12.077826711009013"><ele>555.0</ele><time>2026-04-19T07:48:06.999Z</time></trkpt><trkpt lat="43.983015148091894" lon="12.077800788717015"><ele>555.0</ele><time>2026-04-19T07:48:07.999Z</time></trkpt><trkpt lat="43.9829325119906" lon="12.077743451727384"><ele>555.0</ele><time>2026-04-19T07:48:09.999Z</time></trkpt><trkpt lat="43.982871807668374" lon="12.077650395411663"><ele>555.0</ele><time>2026-04-19T07:48:11.999Z</time></trkpt><trkpt lat="43.982800200270084" lon="12.077567951687712"><ele>555.0</ele><time>2026-04-19T07:48:13.999Z</time></trkpt><trkpt lat="43.9827104478096" lon="12.07745355386337"><ele>551.3333333333334</ele><time>2026-04-19T07:48:14.999Z</time></trkpt><trkpt lat="43.98265085434586" lon="12.077417071115871"><ele>547.6666666666666</ele><time>2026-04-19T07:48:15.999Z</time></trkpt><trkpt lat="43.98255567316177" lon="12.077392802458833"><ele>544.0</ele><time>2026-04-19T07:48:16.999Z</time></trkpt><trkpt lat="43.98247947567748" lon="12.07736515537009"><ele>540.3333333333333</ele><time>2026-04-19T07:48:17.999Z</time></trkpt><trkpt lat="43.9824034939964" lon="12.077331614923763"><ele>536.6666666666666</ele><time>2026-04-19T07:48:18.999Z</time></trkpt><trkpt lat="43.98232134175934" lon="12.077307973675504"><ele>533.0</ele><time>2026-04-19T07:48:19.999Z</time></trkpt><trkpt lat="43.98224147773436" lon="12.077252705321301"><ele>533.0</ele><time>2026-04-19T07:48:20.999Z</time></trkpt><trkpt lat="43.982189695642546" lon="12.0771461981047"><ele>533.0</ele><time>2026-04-19T07:48:21.999Z</time></trkpt><trkpt lat="43.982148779436095" lon="12.077043962911244"><ele>533.0</ele><time>2026-04-19T07:48:22.999Z</time></trkpt><trkpt lat="43.98212533154802" lon="12.076919515973353"><ele>533.0</ele><time>2026-04-19T07:48:23.999Z</time></trkpt><trkpt lat="43.98209515347451" lon="12.076768284166524"><ele>533.0</ele><time>2026-04-19T07:48:25Z</time></trkpt><trkpt lat="43.982036793930085" lon="12.076654101942239"><ele>531.0</ele><time>2026-04-19T07:48:26Z</time></trkpt><trkpt lat="43.98197410446366" lon="12.07656570340879"><ele>529.0</ele><time>2026-04-19T07:48:27Z</time></trkpt><trkpt lat="43.98189940390521" lon="12.076503885841051"><ele>527.0</ele><time>2026-04-19T07:48:28Z</time></trkpt><trkpt lat="43.98182861575834" lon="12.076454872640857"><ele>525.0</ele><time>2026-04-19T07:48:29Z</time></trkpt><trkpt lat="43.981759559648886" lon="12.07640396521584"><ele>523.0</ele><time>2026-04-19T07:48:30Z</time></trkpt><trkpt lat="43.981638083071175" lon="12.076362256951523"><ele>523.0</ele><time>2026-04-19T07:48:32Z</time></trkpt><trkpt lat="43.98157740185385" lon="12.07633049664926"><ele>523.0</ele><time>2026-04-19T07:48:33Z</time></trkpt><trkpt lat="43.98154808952105" lon="12.076245108031792"><ele>523.0</ele><time>2026-04-19T07:48:34Z</time></trkpt><trkpt lat="43.98148805307542" lon="12.076189817505316"><ele>523.0</ele><time>2026-04-19T07:48:59Z</time></trkpt><trkpt lat="43.98156475448253" lon="12.076288347638458"><ele>523.0</ele><time>2026-04-19T07:49:05Z</time></trkpt><trkpt lat="43.981613501863436" lon="12.076365284279854"><ele>523.0</ele><time>2026-04-19T07:49:06Z</time></trkpt><trkpt lat="43.98166210952405" lon="12.076431586602457"><ele>524.6666666666667</ele><time>2026-04-19T07:49:07Z</time></trkpt><trkpt lat="43.98172666305019" lon="12.076474757564313"><ele>526.3333333333334</ele><time>2026-04-19T07:49:08Z</time></trkpt><trkpt lat="43.98179579780324" lon="12.076496064226593"><ele>528.0</ele><time>2026-04-19T07:49:09Z</time></trkpt><trkpt lat="43.98190455074917" lon="12.07656590705503"><ele>529.6666666666666</ele><time>2026-04-19T07:49:11Z</time></trkpt><trkpt lat="43.98195800523453" lon="12.076625634967483"><ele>531.3333333333333</ele><time>2026-04-19T07:49:12Z</time></trkpt><trkpt lat="43.98202548526968" lon="12.07670090104341"><ele>533.0</ele><time>2026-04-19T07:49:13Z</time></trkpt><trkpt lat="43.98208743237519" lon="12.076781361119107"><ele>533.0</ele><time>2026-04-19T07:49:14Z</time></trkpt><trkpt lat="43.98213800557147" lon="12.076903789474807"><ele>533.0</ele><time>2026-04-19T07:49:15Z</time></trkpt><trkpt lat="43.98218772837319" lon="12.077034438945725"><ele>533.0</ele><time>2026-04-19T07:49:16Z</time></trkpt><trkpt lat="43.98221835985741" lon="12.077174121042539"><ele>533.0</ele><time>2026-04-19T07:49:17Z</time></trkpt><trkpt lat="43.98224304035538" lon="12.077279735792505"><ele>533.0</ele><time>2026-04-19T07:49:18Z</time></trkpt><trkpt lat="43.982291300493756" lon="12.077361601650646"><ele>533.0</ele><time>2026-04-19T07:49:19Z</time></trkpt><trkpt lat="43.98237836453083" lon="12.077404072397517"><ele>533.0</ele><time>2026-04-19T07:49:20Z</time></trkpt><trkpt lat="43.982488105045945" lon="12.077431182757767"><ele>533.0</ele><time>2026-04-19T07:49:21Z</time></trkpt><trkpt lat="43.98260229114684" lon="12.077444370584335"><ele>533.0</ele><time>2026-04-19T07:49:22Z</time></trkpt><trkpt lat="43.982701881894535" lon="12.077482052879883"><ele>533.0</ele><time>2026-04-19T07:49:23Z</time></trkpt><trkpt lat="43.98278579679772" lon="12.07753839458046"><ele>536.6666666666666</ele><time>2026-04-19T07:49:24Z</time></trkpt><trkpt lat="43.982849457480654" lon="12.077617142016823"><ele>540.3333333333333</ele><time>2026-04-19T07:49:25Z</time></trkpt><trkpt lat="43.982906508318614" lon="12.077722419517583"><ele>544.0</ele><time>2026-04-19T07:49:26Z</time></trkpt><trkpt lat="43.98296170123836" lon="12.077791677433346"><ele>547.6666666666666</ele><time>2026-04-19T07:49:27Z</time></trkpt><trkpt lat="43.98303402430999" lon="12.077815013574522"><ele>551.3333333333334</ele><time>2026-04-19T07:49:29Z</time></trkpt><trkpt lat="43.98311676485852" lon="12.077803456756088"><ele>555.0</ele><time>2026-04-19T07:49:49Z</time></trkpt><trkpt lat="43.98321012149664" lon="12.077816536451353"><ele>555.0</ele><time>2026-04-19T07:49:52Z</time></trkpt><trkpt lat="43.983295427928496" lon="12.077822878204973"><ele>555.0</ele><time>2026-04-19T07:49:54.999Z</time></trkpt><trkpt lat="43.98341170934574" lon="12.077857734908717"><ele>555.0</ele><time>2026-04-19T07:49:56.999Z</time></trkpt><trkpt lat="43.983488719054456" lon="12.077901348256818"><ele>555.0</ele><time>2026-04-19T07:49:58.999Z</time></trkpt><trkpt lat="43.98354109646428" lon="12.077973825212636"><ele>555.0</ele><time>2026-04-19T07:50:00.999Z</time></trkpt><trkpt lat="43.98361131429528" lon="12.078010863081794"><ele>555.0</ele><time>2026-04-19T07:50:02.999Z</time></trkpt><trkpt lat="43.98368147071037" lon="12.07804253674353"><ele>554.8</ele><time>2026-04-19T07:50:03.999Z</time></trkpt><trkpt lat="43.98380898301235" lon="12.07803550207348"><ele>554.6</ele><time>2026-04-19T07:50:05.999Z</time></trkpt><trkpt lat="43.98388258490358" lon="12.077999421414349"><ele>554.4</ele><time>2026-04-19T07:50:06.999Z</time></trkpt><trkpt lat="43.98395188000326" lon="12.077967538507838"><ele>554.2</ele><time>2026-04-19T07:50:07.999Z</time></trkpt><trkpt lat="43.98403544808551" lon="12.077932459468807"><ele>554.0</ele><time>2026-04-19T07:50:08.999Z</time></trkpt><trkpt lat="43.98412915569591" lon="12.077943703033387"><ele>557.3333333333333</ele><time>2026-04-19T07:50:09.999Z</time></trkpt><trkpt lat="43.98420556051258" lon="12.077964842473936"><ele>560.6666666666666</ele><time>2026-04-19T07:50:10.999Z</time></trkpt><trkpt lat="43.98427615041841" lon="12.077984409250512"><ele>564.0</ele><time>2026-04-19T07:50:12Z</time></trkpt><trkpt lat="43.9843468657093" lon="12.078052614547207"><ele>567.3333333333334</ele><time>2026-04-19T07:50:13Z</time></trkpt><trkpt lat="43.98442215629892" lon="12.07816312573244"><ele>570.6666666666667</ele><time>2026-04-19T07:50:15Z</time></trkpt><trkpt lat="43.98448753880239" lon="12.078194960180612"><ele>574.0</ele><time>2026-04-19T07:50:16Z</time></trkpt><trkpt lat="43.98461567206328" lon="12.0781407067355"><ele>574.0</ele><time>2026-04-19T07:50:18Z</time></trkpt><trkpt lat="43.98468079418963" lon="12.078075475745031"><ele>574.0</ele><time>2026-04-19T07:50:19Z</time></trkpt><trkpt lat="43.984737874217075" lon="12.078005580722946"><ele>574.0</ele><time>2026-04-19T07:50:20Z</time></trkpt><trkpt lat="43.98482426019392" lon="12.07794626218898"><ele>574.0</ele><time>2026-04-19T07:50:22Z</time></trkpt><trkpt lat="43.98488890577712" lon="12.077903014050918"><ele>574.0</ele><time>2026-04-19T07:50:24.001Z</time></trkpt><trkpt lat="43.98499924939425" lon="12.077882755083104"><ele>574.0</ele><time>2026-04-19T07:50:26.001Z</time></trkpt><trkpt lat="43.985067542373095" lon="12.077874244590628"><ele>575.4</ele><time>2026-04-19T07:50:29.001Z</time></trkpt><trkpt lat="43.9850677611971" lon="12.07804753737573"><ele>576.8</ele><time>2026-04-19T07:50:31.001Z</time></trkpt><trkpt lat="43.98505379743954" lon="12.078164447456755"><ele>578.2</ele><time>2026-04-19T07:50:32.001Z</time></trkpt><trkpt lat="43.98505017079914" lon="12.078287928524878"><ele>579.6</ele><time>2026-04-19T07:50:33.001Z</time></trkpt><trkpt lat="43.98507488516455" lon="12.078415141461898"><ele>581.0</ele><time>2026-04-19T07:50:34.001Z</time></trkpt><trkpt lat="43.985115268817765" lon="12.078528995618536"><ele>577.0</ele><time>2026-04-19T07:50:35.001Z</time></trkpt><trkpt lat="43.985172881070795" lon="12.078651066685861"><ele>573.0</ele><time>2026-04-19T07:50:36.001Z</time></trkpt><trkpt lat="43.98523671392518" lon="12.078755602105883"><ele>569.0</ele><time>2026-04-19T07:50:37.001Z</time></trkpt><trkpt lat="43.98530627272928" lon="12.078860710163438"><ele>565.0</ele><time>2026-04-19T07:50:38.001Z</time></trkpt><trkpt lat="43.98538982323118" lon="12.078961655806959"><ele>561.0</ele><time>2026-04-19T07:50:39.001Z</time></trkpt><trkpt lat="43.98546597144241" lon="12.07907264633687"><ele>560.75</ele><time>2026-04-19T07:50:40.001Z</time></trkpt><trkpt lat="43.98554127775528" lon="12.079205893340923"><ele>560.5</ele><time>2026-04-19T07:50:41.001Z</time></trkpt><trkpt lat="43.985606824794665" lon="12.079360443453957"><ele>560.25</ele><time>2026-04-19T07:50:42.001Z</time></trkpt><trkpt lat="43.98567802431494" lon="12.079481128100795"><ele>560.0</ele><time>2026-04-19T07:50:43.001Z</time></trkpt><trkpt lat="43.98574095130485" lon="12.079603571357007"><ele>560.0</ele><time>2026-04-19T07:50:44.001Z</time></trkpt><trkpt lat="43.985786897318604" lon="12.0797282230916"><ele>560.0</ele><time>2026-04-19T07:50:45.001Z</time></trkpt><trkpt lat="43.985834478590576" lon="12.079842710080516"><ele>560.0</ele><time>2026-04-19T07:50:46.001Z</time></trkpt><trkpt lat="43.98588043507281" lon="12.079968118346095"><ele>560.0</ele><time>2026-04-19T07:50:47.001Z</time></trkpt><trkpt lat="43.98591510983859" lon="12.08008184213136"><ele>560.0</ele><time>2026-04-19T07:50:48.001Z</time></trkpt><trkpt lat="43.98594284622281" lon="12.080192901629626"><ele>553.3333333333333</ele><time>2026-04-19T07:50:49.001Z</time></trkpt><trkpt lat="43.98598411872639" lon="12.08027378424461"><ele>546.6666666666666</ele><time>2026-04-19T07:50:50.001Z</time></trkpt><trkpt lat="43.9860243587694" lon="12.080363525557171"><ele>540.0</ele><time>2026-04-19T07:50:51.001Z</time></trkpt><trkpt lat="43.98605181728712" lon="12.080455350644328"><ele>533.3333333333334</ele><time>2026-04-19T07:50:52.001Z</time></trkpt><trkpt lat="43.98614651680893" lon="12.080531495026571"><ele>526.6666666666667</ele><time>2026-04-19T07:50:54.001Z</time></trkpt><trkpt lat="43.986231345952966" lon="12.080553062506095"><ele>520.0</ele><time>2026-04-19T07:50:56.001Z</time></trkpt><trkpt lat="43.98628938368881" lon="12.080590174329105"><ele>520.0</ele><time>2026-04-19T07:50:57.001Z</time></trkpt><trkpt lat="43.98635789819465" lon="12.080662462159381"><ele>520.0</ele><time>2026-04-19T07:51:00.001Z</time></trkpt><trkpt lat="43.98637322687089" lon="12.080747392027526"><ele>520.0</ele><time>2026-04-19T07:51:02.001Z</time></trkpt><trkpt lat="43.986441697087436" lon="12.08079495556017"><ele>520.0</ele><time>2026-04-19T07:51:04.001Z</time></trkpt><trkpt lat="43.98656667403937" lon="12.080784473850066"><ele>520.0</ele><time>2026-04-19T07:51:06.001Z</time></trkpt><trkpt lat="43.9866666782182" lon="12.080771050674933"><ele>518.1666666666667</ele><time>2026-04-19T07:51:08.001Z</time></trkpt><trkpt lat="43.986745023438274" lon="12.080815221411845"><ele>516.3333333333334</ele><time>2026-04-19T07:51:09.001Z</time></trkpt><trkpt lat="43.98680587441535" lon="12.080910240824986"><ele>514.5</ele><time>2026-04-19T07:51:10.001Z</time></trkpt><trkpt lat="43.98684154900568" lon="12.081010858437498"><ele>512.6666666666666</ele><time>2026-04-19T07:51:11.001Z</time></trkpt><trkpt lat="43.986894124622225" lon="12.08108863755776"><ele>510.8333333333333</ele><time>2026-04-19T07:51:12.001Z</time></trkpt><trkpt lat="43.98696487537371" lon="12.081163289197354"><ele>509.0</ele><time>2026-04-19T07:51:13.001Z</time></trkpt><trkpt lat="43.98704048788314" lon="12.081239004968216"><ele>508.99999999999994</ele><time>2026-04-19T07:51:14.001Z</time></trkpt><trkpt lat="43.987112448672605" lon="12.081323294516961"><ele>509.0</ele><time>2026-04-19T07:51:15.001Z</time></trkpt><trkpt lat="43.98716895163295" lon="12.08139720766015"><ele>509.0</ele><time>2026-04-19T07:51:16.001Z</time></trkpt><trkpt lat="43.98721546257043" lon="12.08151240733601"><ele>509.0</ele><time>2026-04-19T07:51:17.001Z</time></trkpt><trkpt lat="43.98725076553735" lon="12.081615584338204"><ele>508.99999999999994</ele><time>2026-04-19T07:51:18.001Z</time></trkpt><trkpt lat="43.98728106212637" lon="12.081697440550116"><ele>509.0</ele><time>2026-04-19T07:51:19.001Z</time></trkpt><trkpt lat="43.98732471928454" lon="12.081763829904137"><ele>511.49999999999994</ele><time>2026-04-19T07:51:20.001Z</time></trkpt><trkpt lat="43.98737522656794" lon="12.081825028176565"><ele>514.0</ele><time>2026-04-19T07:51:21.001Z</time></trkpt><trkpt lat="43.987423969150264" lon="12.081885518231802"><ele>516.5</ele><time>2026-04-19T07:51:22.001Z</time></trkpt><trkpt lat="43.98746347640207" lon="12.081981493583614"><ele>519.0</ele><time>2026-04-19T07:51:23.001Z</time></trkpt><trkpt lat="43.98750019030289" lon="12.082077986717255"><ele>521.5</ele><time>2026-04-19T07:51:24.001Z</time></trkpt><trkpt lat="43.987575793469084" lon="12.082164124792468"><ele>524.0</ele><time>2026-04-19T07:51:26.001Z</time></trkpt><trkpt lat="43.987664165483196" lon="12.082226151940688"><ele>518.6666666666666</ele><time>2026-04-19T07:51:28.001Z</time></trkpt><trkpt lat="43.98773733629547" lon="12.082276693963603"><ele>513.3333333333333</ele><time>2026-04-19T07:51:29.001Z</time></trkpt><trkpt lat="43.987820409258845" lon="12.082319259200201"><ele>508.0</ele><time>2026-04-19T07:51:30.001Z</time></trkpt><trkpt lat="43.98791076290337" lon="12.082363923139209"><ele>502.66666666666663</ele><time>2026-04-19T07:51:31.001Z</time></trkpt><trkpt lat="43.98799463182883" lon="12.082379458625196"><ele>497.3333333333333</ele><time>2026-04-19T07:51:32.001Z</time></trkpt><trkpt lat="43.98806790228068" lon="12.08237106710033"><ele>492.0</ele><time>2026-04-19T07:51:33.001Z</time></trkpt><trkpt lat="43.98812713337135" lon="12.082340509392862"><ele>492.0</ele><time>2026-04-19T07:51:34.001Z</time></trkpt><trkpt lat="43.98818262960945" lon="12.0824145367321"><ele>492.00000000000006</ele><time>2026-04-19T07:51:36.001Z</time></trkpt><trkpt lat="43.98821899733421" lon="12.082503246429875"><ele>492.00000000000006</ele><time>2026-04-19T07:51:37.001Z</time></trkpt><trkpt lat="43.98826622501089" lon="12.082568055831334"><ele>492.0</ele><time>2026-04-19T07:51:38.001Z</time></trkpt><trkpt lat="43.98832999284935" lon="12.082611280031099"><ele>492.0</ele><time>2026-04-19T07:51:41.001Z</time></trkpt><trkpt lat="43.988523288129585" lon="12.08277056432363"><ele>492.0</ele><time>2026-04-19T07:51:42.001Z</time></trkpt><trkpt lat="43.988604394572526" lon="12.082827670333668"><ele>492.0</ele><time>2026-04-19T07:51:43.001Z</time></trkpt><trkpt lat="43.98867823399837" lon="12.082892165973405"><ele>492.0</ele><time>2026-04-19T07:51:44.001Z</time></trkpt><trkpt lat="43.98874667165786" lon="12.082975769655993"><ele>492.0</ele><time>2026-04-19T07:51:45.001Z</time></trkpt><trkpt lat="43.98880707675664" lon="12.083050507113665"><ele>492.0</ele><time>2026-04-19T07:51:46.001Z</time></trkpt><trkpt lat="43.988865549759964" lon="12.083123883074263"><ele>492.0</ele><time>2026-04-19T07:51:47.001Z</time></trkpt><trkpt lat="43.98892182593267" lon="12.0831772582121"><ele>492.0</ele><time>2026-04-19T07:51:48.001Z</time></trkpt><trkpt lat="43.989020814103164" lon="12.083245840969308"><ele>492.00000000000006</ele><time>2026-04-19T07:51:50.001Z</time></trkpt><trkpt lat="43.98913169299478" lon="12.083326611785882"><ele>492.00000000000006</ele><time>2026-04-19T07:51:52.001Z</time></trkpt><trkpt lat="43.98919700279295" lon="12.08334897366868"><ele>492.0</ele><time>2026-04-19T07:51:53.001Z</time></trkpt><trkpt lat="43.98927465093539" lon="12.083372653981465"><ele>492.0</ele><time>2026-04-19T07:51:54.001Z</time></trkpt><trkpt lat="43.989349033295525" lon="12.08339201299235"><ele>490.8</ele><time>2026-04-19T07:51:55.001Z</time></trkpt><trkpt lat="43.98942991102686" lon="12.083407729820996"><ele>489.6</ele><time>2026-04-19T07:51:56.001Z</time></trkpt><trkpt lat="43.98952096005556" lon="12.08342174204291"><ele>488.40000000000003</ele><time>2026-04-19T07:51:57.001Z</time></trkpt><trkpt lat="43.9896248712202" lon="12.083438540965387"><ele>487.20000000000005</ele><time>2026-04-19T07:51:58.001Z</time></trkpt><trkpt lat="43.98972717880435" lon="12.083438525489928"><ele>486.0</ele><time>2026-04-19T07:51:59.001Z</time></trkpt><trkpt lat="43.98982898840073" lon="12.083437047539036"><ele>486.0</ele><time>2026-04-19T07:52:01.001Z</time></trkpt><trkpt lat="43.98991346778039" lon="12.083435960018415"><ele>486.0</ele><time>2026-04-19T07:52:03.001Z</time></trkpt><trkpt lat="43.9900027732268" lon="12.083496424271218"><ele>486.0</ele><time>2026-04-19T07:52:06.001Z</time></trkpt><trkpt lat="43.99009581601803" lon="12.08356778521542"><ele>486.0</ele><time>2026-04-19T07:52:08.001Z</time></trkpt><trkpt lat="43.99019214998626" lon="12.083631139579735"><ele>486.0</ele><time>2026-04-19T07:52:10.001Z</time></trkpt><trkpt lat="43.990269909134966" lon="12.083664292166125"><ele>485.20000000000005</ele><time>2026-04-19T07:52:11.001Z</time></trkpt><trkpt lat="43.99032597819966" lon="12.083728491888639"><ele>484.40000000000003</ele><time>2026-04-19T07:52:12.001Z</time></trkpt><trkpt lat="43.99038929089004" lon="12.083856808162448"><ele>483.6</ele><time>2026-04-19T07:52:14.001Z</time></trkpt><trkpt lat="43.99045313450916" lon="12.083960040738305"><ele>482.8</ele><time>2026-04-19T07:52:16.001Z</time></trkpt><trkpt lat="43.990533242232054" lon="12.084075265256315"><ele>482.0</ele><time>2026-04-19T07:52:18.001Z</time></trkpt><trkpt lat="43.990601081460625" lon="12.084140940385298"><ele>482.0</ele><time>2026-04-19T07:52:21.001Z</time></trkpt><trkpt lat="43.99081630855683" lon="12.084335905402362"><ele>482.0</ele><time>2026-04-19T07:52:24.001Z</time></trkpt><trkpt lat="43.99086714334825" lon="12.08438883309121"><ele>482.0</ele><time>2026-04-19T07:52:25.001Z</time></trkpt><trkpt lat="43.99092356541875" lon="12.084436335471636"><ele>482.0</ele><time>2026-04-19T07:52:26.001Z</time></trkpt><trkpt lat="43.99099009786341" lon="12.08447539071301"><ele>475.49999999999994</ele><time>2026-04-19T07:52:27.001Z</time></trkpt><trkpt lat="43.99107068994597" lon="12.084513605400044"><ele>469.0</ele><time>2026-04-19T07:52:28.001Z</time></trkpt><trkpt lat="43.99113975587228" lon="12.084561999617181"><ele>462.5</ele><time>2026-04-19T07:52:29.001Z</time></trkpt><trkpt lat="43.991231240950086" lon="12.08461444295247"><ele>456.0</ele><time>2026-04-19T07:52:30.001Z</time></trkpt><trkpt lat="43.991316009099634" lon="12.084670722059434"><ele>449.49999999999994</ele><time>2026-04-19T07:52:31.001Z</time></trkpt><trkpt lat="43.99138860501716" lon="12.08474751736901"><ele>443.0</ele><time>2026-04-19T07:52:32.001Z</time></trkpt><trkpt lat="43.99144427021424" lon="12.084848920855746"><ele>444.8333333333333</ele><time>2026-04-19T07:52:33.001Z</time></trkpt><trkpt lat="43.99149126512002" lon="12.084944917214118"><ele>446.66666666666663</ele><time>2026-04-19T07:52:34.001Z</time></trkpt><trkpt lat="43.99152743041454" lon="12.085032975625463"><ele>448.5</ele><time>2026-04-19T07:52:35.001Z</time></trkpt><trkpt lat="43.99156093399658" lon="12.08512983758186"><ele>450.33333333333337</ele><time>2026-04-19T07:52:36.001Z</time></trkpt><trkpt lat="43.991597863960614" lon="12.085232362071793"><ele>452.1666666666667</ele><time>2026-04-19T07:52:37.001Z</time></trkpt><trkpt lat="43.99162398121896" lon="12.085322722801871"><ele>454.0</ele><time>2026-04-19T07:52:38.001Z</time></trkpt><trkpt lat="43.99166128312437" lon="12.08543066471901"><ele>454.0</ele><time>2026-04-19T07:52:40.001Z</time></trkpt><trkpt lat="43.99167916281137" lon="12.085302467263514"><ele>454.0</ele><time>2026-04-19T07:52:42.001Z</time></trkpt><trkpt lat="43.99157326871768" lon="12.085192642721122"><ele>454.0</ele><time>2026-04-19T07:52:43.001Z</time></trkpt><trkpt lat="43.99155591298815" lon="12.085068422378345"><ele>454.0</ele><time>2026-04-19T07:52:44.001Z</time></trkpt><trkpt lat="43.991542876396295" lon="12.084908821993057"><ele>454.0</ele><time>2026-04-19T07:52:45.001Z</time></trkpt><trkpt lat="43.99151627565319" lon="12.084721135019398"><ele>451.79999999999995</ele><time>2026-04-19T07:52:46.001Z</time></trkpt><trkpt lat="43.99150511169593" lon="12.084568847667327"><ele>449.59999999999997</ele><time>2026-04-19T07:52:47.001Z</time></trkpt><trkpt lat="43.99150541800615" lon="12.08440448458427"><ele>447.4</ele><time>2026-04-19T07:52:48.001Z</time></trkpt><trkpt lat="43.99153309412492" lon="12.084262907328355"><ele>445.2</ele><time>2026-04-19T07:52:49.001Z</time></trkpt><trkpt lat="43.99153614667882" lon="12.084142429818492"><ele>443.0</ele><time>2026-04-19T07:52:50.001Z</time></trkpt><trkpt lat="43.991524446685055" lon="12.084015805638245"><ele>440.59999999999997</ele><time>2026-04-19T07:52:51.001Z</time></trkpt><trkpt lat="43.99153087866115" lon="12.08385392362949"><ele>438.19999999999993</ele><time>2026-04-19T07:52:52.001Z</time></trkpt><trkpt lat="43.99156018433247" lon="12.083704541364769"><ele>435.8</ele><time>2026-04-19T07:52:53.001Z</time></trkpt><trkpt lat="43.99156392594754" lon="12.083586320144391"><ele>433.4</ele><time>2026-04-19T07:52:54.001Z</time></trkpt><trkpt lat="43.99147473820099" lon="12.08345516881798"><ele>431.0</ele><time>2026-04-19T07:52:56.001Z</time></trkpt><trkpt lat="43.99136297016046" lon="12.0834035031858"><ele>431.0</ele><time>2026-04-19T07:52:57.001Z</time></trkpt><trkpt lat="43.991276670070796" lon="12.08335530278555"><ele>431.0</ele><time>2026-04-19T07:52:58.001Z</time></trkpt><trkpt lat="43.99118471610307" lon="12.083251335944528"><ele>431.0</ele><time>2026-04-19T07:52:59.001Z</time></trkpt><trkpt lat="43.991120164992914" lon="12.083145655567208"><ele>431.0</ele><time>2026-04-19T07:53:00.001Z</time></trkpt><trkpt lat="43.9910592679978" lon="12.082993559818298"><ele>431.0</ele><time>2026-04-19T07:53:01.001Z</time></trkpt><trkpt lat="43.99101752695302" lon="12.082878411287743"><ele>431.16666666666663</ele><time>2026-04-19T07:53:02.001Z</time></trkpt><trkpt lat="43.990973120216346" lon="12.08275137647709"><ele>431.3333333333333</ele><time>2026-04-19T07:53:03.001Z</time></trkpt><trkpt lat="43.99094759503194" lon="12.082651756725998"><ele>431.5</ele><time>2026-04-19T07:53:04.001Z</time></trkpt><trkpt lat="43.99089496714831" lon="12.082564481495888"><ele>431.66666666666663</ele><time>2026-04-19T07:53:05.001Z</time></trkpt><trkpt lat="43.99082174503993" lon="12.082492628704552"><ele>431.8333333333333</ele><time>2026-04-19T07:53:06.001Z</time></trkpt><trkpt lat="43.99073392190287" lon="12.082437492248724"><ele>432.0</ele><time>2026-04-19T07:53:07.001Z</time></trkpt><trkpt lat="43.9906378387514" lon="12.08243191946952"><ele>426.8333333333333</ele><time>2026-04-19T07:53:08.001Z</time></trkpt><trkpt lat="43.99054530537419" lon="12.082427145140242"><ele>421.66666666666663</ele><time>2026-04-19T07:53:09.001Z</time></trkpt><trkpt lat="43.99045415497917" lon="12.082415120049365"><ele>416.5</ele><time>2026-04-19T07:53:10.001Z</time></trkpt><trkpt lat="43.99037425904322" lon="12.08237860201301"><ele>411.3333333333333</ele><time>2026-04-19T07:53:11.001Z</time></trkpt><trkpt lat="43.990299248584975" lon="12.082315270153163"><ele>406.16666666666663</ele><time>2026-04-19T07:53:12.001Z</time></trkpt><trkpt lat="43.99022651170542" lon="12.082244316853691"><ele>401.0</ele><time>2026-04-19T07:53:13.001Z</time></trkpt><trkpt lat="43.990159109969746" lon="12.082158132068011"><ele>400.99999999999994</ele><time>2026-04-19T07:53:14.001Z</time></trkpt><trkpt lat="43.990100427441256" lon="12.082084734580063"><ele>401.0</ele><time>2026-04-19T07:53:15.001Z</time></trkpt><trkpt lat="43.9900284765094" lon="12.081988080931554"><ele>401.0</ele><time>2026-04-19T07:53:16.001Z</time></trkpt><trkpt lat="43.98995900727829" lon="12.08192850269737"><ele>401.0</ele><time>2026-04-19T07:53:17.001Z</time></trkpt><trkpt lat="43.98989970498996" lon="12.081864297394928"><ele>400.99999999999994</ele><time>2026-04-19T07:53:18.001Z</time></trkpt><trkpt lat="43.98982377437191" lon="12.081789381721215"><ele>401.0</ele><time>2026-04-19T07:53:19.001Z</time></trkpt><trkpt lat="43.98971862734455" lon="12.08172888376934"><ele>398.5</ele><time>2026-04-19T07:53:20.001Z</time></trkpt><trkpt lat="43.98961701388853" lon="12.081672687276681"><ele>396.0</ele><time>2026-04-19T07:53:21.001Z</time></trkpt><trkpt lat="43.98950878715605" lon="12.081608683334375"><ele>393.5</ele><time>2026-04-19T07:53:22.001Z</time></trkpt><trkpt lat="43.989393725655276" lon="12.081566711051542"><ele>391.0</ele><time>2026-04-19T07:53:23.001Z</time></trkpt><trkpt lat="43.98928955460463" lon="12.081534753681595"><ele>391.0</ele><time>2026-04-19T07:53:24.001Z</time></trkpt><trkpt lat="43.98918262387603" lon="12.081496729402893"><ele>391.0</ele><time>2026-04-19T07:53:25.001Z</time></trkpt><trkpt lat="43.989086489567605" lon="12.081456629235303"><ele>391.0</ele><time>2026-04-19T07:53:26.001Z</time></trkpt><trkpt lat="43.98901538473432" lon="12.081389223300725"><ele>391.0</ele><time>2026-04-19T07:53:27.001Z</time></trkpt><trkpt lat="43.98896265992874" lon="12.081287197854481"><ele>391.0</ele><time>2026-04-19T07:53:28.001Z</time></trkpt><trkpt lat="43.98890921829921" lon="12.081134295521089"><ele>393.8</ele><time>2026-04-19T07:53:29.001Z</time></trkpt><trkpt lat="43.98888536642939" lon="12.08095956310124"><ele>396.6</ele><time>2026-04-19T07:53:30.001Z</time></trkpt><trkpt lat="43.9888463697723" lon="12.080816946039864"><ele>399.4</ele><time>2026-04-19T07:53:31.001Z</time></trkpt><trkpt lat="43.98880675331528" lon="12.080692054978918"><ele>402.2</ele><time>2026-04-19T07:53:32.001Z</time></trkpt><trkpt lat="43.98876773958296" lon="12.0805690000465"><ele>405.0</ele><time>2026-04-19T07:53:33.001Z</time></trkpt><trkpt lat="43.98873352795487" lon="12.080452120513755"><ele>405.0</ele><time>2026-04-19T07:53:34.001Z</time></trkpt><trkpt lat="43.98868708200449" lon="12.080329819149597"><ele>405.0</ele><time>2026-04-19T07:53:35.001Z</time></trkpt><trkpt lat="43.98864283315781" lon="12.080227814726934"><ele>405.0</ele><time>2026-04-19T07:53:36.001Z</time></trkpt><trkpt lat="43.98857534622005" lon="12.080146217436296"><ele>405.0</ele><time>2026-04-19T07:53:37.001Z</time></trkpt><trkpt lat="43.9884971535801" lon="12.080070479996413"><ele>405.0</ele><time>2026-04-19T07:53:38.001Z</time></trkpt><trkpt lat="43.988408456395106" lon="12.080017822381892"><ele>411.6</ele><time>2026-04-19T07:53:39.001Z</time></trkpt><trkpt lat="43.98826649991541" lon="12.079915354874409"><ele>418.2</ele><time>2026-04-19T07:53:41.001Z</time></trkpt><trkpt lat="43.98820650086169" lon="12.07987499413657"><ele>424.79999999999995</ele><time>2026-04-19T07:53:42.001Z</time></trkpt><trkpt lat="43.98819137384804" lon="12.079729187079874"><ele>431.4</ele><time>2026-04-19T07:53:44.001Z</time></trkpt><trkpt lat="43.98826595825835" lon="12.079697247989232"><ele>438.0</ele><time>2026-04-19T07:53:46.001Z</time></trkpt><trkpt lat="43.988362914184385" lon="12.07966125554681"><ele>438.0</ele><time>2026-04-19T07:53:48.001Z</time></trkpt><trkpt lat="43.988414950235544" lon="12.079515215482667"><ele>437.99999999999994</ele><time>2026-04-19T07:53:50.001Z</time></trkpt><trkpt lat="43.98853185242875" lon="12.079438847062024"><ele>437.99999999999994</ele><time>2026-04-19T07:53:52.001Z</time></trkpt><trkpt lat="43.98860828589367" lon="12.079443556469101"><ele>438.0</ele><time>2026-04-19T07:53:53.001Z</time></trkpt><trkpt lat="43.988691809713636" lon="12.07943963276556"><ele>438.0</ele><time>2026-04-19T07:53:54.001Z</time></trkpt><trkpt lat="43.988771016500266" lon="12.079437888212416"><ele>438.0</ele><time>2026-04-19T07:53:55.001Z</time></trkpt><trkpt lat="43.9888504943117" lon="12.079432263073123"><ele>438.0</ele><time>2026-04-19T07:53:56.001Z</time></trkpt><trkpt lat="43.9889258773824" lon="12.079409958304463"><ele>438.0</ele><time>2026-04-19T07:53:57.001Z</time></trkpt><trkpt lat="43.98902064157548" lon="12.079321919613578"><ele>438.0</ele><time>2026-04-19T07:53:59.001Z</time></trkpt><trkpt lat="43.98908440187481" lon="12.079254781689981"><ele>438.0</ele><time>2026-04-19T07:54:02.001Z</time></trkpt><trkpt lat="43.989144346213976" lon="12.079203735994524"><ele>438.0</ele><time>2026-04-19T07:54:05.001Z</time></trkpt><trkpt lat="43.98917952901269" lon="12.079130503840462"><ele>435.6666666666667</ele><time>2026-04-19T07:54:12.001Z</time></trkpt><trkpt lat="43.9892416124122" lon="12.079114269211884"><ele>433.33333333333337</ele><time>2026-04-19T07:54:17.001Z</time></trkpt><trkpt lat="43.989325401063965" lon="12.07914375113898"><ele>431.0</ele><time>2026-04-19T07:59:39.001Z</time></trkpt><trkpt lat="43.98942058092056" lon="12.07912721095839"><ele>428.6666666666667</ele><time>2026-04-19T07:59:45.001Z</time></trkpt><trkpt lat="43.98949343638713" lon="12.079055915489505"><ele>426.33333333333337</ele><time>2026-04-19T07:59:47.001Z</time></trkpt><trkpt lat="43.989557457759666" lon="12.07902755261199"><ele>424.0</ele><time>2026-04-19T07:59:48.001Z</time></trkpt><trkpt lat="43.98962785357974" lon="12.078992230140928"><ele>431.33333333333337</ele><time>2026-04-19T07:59:49.001Z</time></trkpt><trkpt lat="43.9897085219509" lon="12.078956460440493"><ele>438.6666666666667</ele><time>2026-04-19T07:59:51.001Z</time></trkpt><trkpt lat="43.98977170051499" lon="12.078909855080518"><ele>446.0</ele><time>2026-04-19T07:59:52.001Z</time></trkpt><trkpt lat="43.989836344497924" lon="12.078904950034596"><ele>453.33333333333337</ele><time>2026-04-19T07:59:53.001Z</time></trkpt><trkpt lat="43.98990937736577" lon="12.07885045633966"><ele>460.6666666666667</ele><time>2026-04-19T07:59:54.001Z</time></trkpt><trkpt lat="43.98997387422085" lon="12.078773765483488"><ele>468.0</ele><time>2026-04-19T07:59:55.001Z</time></trkpt><trkpt lat="43.99004452080697" lon="12.078702376330549"><ele>468.0</ele><time>2026-04-19T07:59:56.001Z</time></trkpt><trkpt lat="43.99011557370009" lon="12.078649642041862"><ele>467.99999999999994</ele><time>2026-04-19T07:59:57.001Z</time></trkpt><trkpt lat="43.99018148401818" lon="12.078609589417699"><ele>467.99999999999994</ele><time>2026-04-19T07:59:58.001Z</time></trkpt><trkpt lat="43.99025607017472" lon="12.078573016489388"><ele>468.0</ele><time>2026-04-19T07:59:59.001Z</time></trkpt><trkpt lat="43.99037294705417" lon="12.078521515085756"><ele>468.0</ele><time>2026-04-19T08:00:01.001Z</time></trkpt><trkpt lat="43.990494069392476" lon="12.078477528426006"><ele>468.0</ele><time>2026-04-19T08:00:03.001Z</time></trkpt><trkpt lat="43.990559234690956" lon="12.078493821886168"><ele>468.0</ele><time>2026-04-19T08:00:04.001Z</time></trkpt><trkpt lat="43.99060905330416" lon="12.078548109803855"><ele>468.0</ele><time>2026-04-19T08:00:05.001Z</time></trkpt><trkpt lat="43.99066936105591" lon="12.07862128444998"><ele>468.0</ele><time>2026-04-19T08:00:06.001Z</time></trkpt><trkpt lat="43.99072046148021" lon="12.078698537428146"><ele>468.0</ele><time>2026-04-19T08:00:07.001Z</time></trkpt><trkpt lat="43.99078611346533" lon="12.078775034076855"><ele>468.0</ele><time>2026-04-19T08:00:08.001Z</time></trkpt><trkpt lat="43.990867283536026" lon="12.078858613544792"><ele>467.6666666666667</ele><time>2026-04-19T08:00:09.001Z</time></trkpt><trkpt lat="43.99094638421059" lon="12.078911296631032"><ele>467.33333333333337</ele><time>2026-04-19T08:00:10.001Z</time></trkpt><trkpt lat="43.99102272781441" lon="12.078937121893386"><ele>467.0</ele><time>2026-04-19T08:00:11.001Z</time></trkpt><trkpt lat="43.99111815421363" lon="12.078927764120014"><ele>466.6666666666667</ele><time>2026-04-19T08:00:12.001Z</time></trkpt><trkpt lat="43.99121272758057" lon="12.078915321840281"><ele>466.33333333333337</ele><time>2026-04-19T08:00:13.001Z</time></trkpt><trkpt lat="43.991296665911314" lon="12.078905169262644"><ele>466.0</ele><time>2026-04-19T08:00:14.001Z</time></trkpt><trkpt lat="43.99136867987859" lon="12.078876756731226"><ele>466.00000000000006</ele><time>2026-04-19T08:00:15.001Z</time></trkpt><trkpt lat="43.991426570085856" lon="12.078814192742747"><ele>466.0</ele><time>2026-04-19T08:00:16.001Z</time></trkpt><trkpt lat="43.99148336893716" lon="12.07872146163679"><ele>466.0</ele><time>2026-04-19T08:00:17.001Z</time></trkpt><trkpt lat="43.99154370960068" lon="12.078637791016599"><ele>466.0</ele><time>2026-04-19T08:00:18.001Z</time></trkpt><trkpt lat="43.99161004758233" lon="12.07857581916204"><ele>466.00000000000006</ele><time>2026-04-19T08:00:19.001Z</time></trkpt><trkpt lat="43.99165825993928" lon="12.078517030706028"><ele>466.0</ele><time>2026-04-19T08:00:20.001Z</time></trkpt><trkpt lat="43.991712047701135" lon="12.078454854558043"><ele>464.1666666666667</ele><time>2026-04-19T08:00:21.001Z</time></trkpt><trkpt lat="43.99177580253224" lon="12.07841414713217"><ele>462.33333333333337</ele><time>2026-04-19T08:00:22.001Z</time></trkpt><trkpt lat="43.99184477761372" lon="12.078390743406699"><ele>460.5</ele><time>2026-04-19T08:00:23.001Z</time></trkpt><trkpt lat="43.99191583711919" lon="12.07839678060741"><ele>458.66666666666663</ele><time>2026-04-19T08:00:24.001Z</time></trkpt><trkpt lat="43.99200743030374" lon="12.078402807259032"><ele>456.8333333333333</ele><time>2026-04-19T08:00:25.001Z</time></trkpt><trkpt lat="43.992098724396904" lon="12.078429138943024"><ele>455.0</ele><time>2026-04-19T08:00:26.001Z</time></trkpt><trkpt lat="43.992179821960846" lon="12.078431361345588"><ele>455.0</ele><time>2026-04-19T08:00:27.001Z</time></trkpt><trkpt lat="43.992268114847036" lon="12.078415635178343"><ele>455.0</ele><time>2026-04-19T08:00:28.001Z</time></trkpt><trkpt lat="43.99234751936486" lon="12.078454134190782"><ele>455.0</ele><time>2026-04-19T08:00:29.001Z</time></trkpt><trkpt lat="43.99243415101075" lon="12.07850101360916"><ele>455.0</ele><time>2026-04-19T08:00:30.001Z</time></trkpt><trkpt lat="43.99251726855709" lon="12.07853382128036"><ele>455.0</ele><time>2026-04-19T08:00:31.001Z</time></trkpt><trkpt lat="43.99260558314117" lon="12.078593565406674"><ele>451.49999999999994</ele><time>2026-04-19T08:00:32.001Z</time></trkpt><trkpt lat="43.992670193449165" lon="12.07865591829144"><ele>448.0</ele><time>2026-04-19T08:00:33.001Z</time></trkpt><trkpt lat="43.99273464340888" lon="12.078764071264999"><ele>444.5</ele><time>2026-04-19T08:00:34.001Z</time></trkpt><trkpt lat="43.992813862780984" lon="12.078833807666408"><ele>441.0</ele><time>2026-04-19T08:00:35.001Z</time></trkpt><trkpt lat="43.992896144921296" lon="12.078885427450311"><ele>437.49999999999994</ele><time>2026-04-19T08:00:36.001Z</time></trkpt><trkpt lat="43.99297912676698" lon="12.078900102207404"><ele>434.0</ele><time>2026-04-19T08:00:37.001Z</time></trkpt><trkpt lat="43.99307418186117" lon="12.078924538932252"><ele>433.99999999999994</ele><time>2026-04-19T08:00:38.001Z</time></trkpt><trkpt lat="43.99316677825258" lon="12.078941393618885"><ele>434.0</ele><time>2026-04-19T08:00:39.001Z</time></trkpt><trkpt lat="43.993252797165" lon="12.078914732091494"><ele>434.0</ele><time>2026-04-19T08:00:40.001Z</time></trkpt><trkpt lat="43.993346316397236" lon="12.078904812511889"><ele>434.0</ele><time>2026-04-19T08:00:41.001Z</time></trkpt><trkpt lat="43.99343351815272" lon="12.07893053666762"><ele>433.99999999999994</ele><time>2026-04-19T08:00:42.001Z</time></trkpt><trkpt lat="43.993516250884035" lon="12.078931604583827"><ele>434.0</ele><time>2026-04-19T08:00:43.001Z</time></trkpt><trkpt lat="43.99359975229608" lon="12.078936722617037"><ele>429.99999999999994</ele><time>2026-04-19T08:00:44.001Z</time></trkpt><trkpt lat="43.99368685414054" lon="12.078902316366136"><ele>426.0</ele><time>2026-04-19T08:00:45.001Z</time></trkpt><trkpt lat="43.99376542745678" lon="12.078887174485677"><ele>422.0</ele><time>2026-04-19T08:00:46.001Z</time></trkpt><trkpt lat="43.99384437087614" lon="12.078900864686995"><ele>418.0</ele><time>2026-04-19T08:00:47.001Z</time></trkpt><trkpt lat="43.993903372208855" lon="12.078867806035426"><ele>413.99999999999994</ele><time>2026-04-19T08:00:49.001Z</time></trkpt><trkpt lat="43.99393134775081" lon="12.078760866971392"><ele>410.0</ele><time>2026-04-19T08:00:52.001Z</time></trkpt><trkpt lat="43.99386058475068" lon="12.078816627534344"><ele>409.99999999999994</ele><time>2026-04-19T08:00:59.001Z</time></trkpt><trkpt lat="43.99378305690755" lon="12.078759642288722"><ele>410.0</ele><time>2026-04-19T08:01:34.001Z</time></trkpt><trkpt lat="43.99372588230852" lon="12.078700665389366"><ele>410.0</ele><time>2026-04-19T08:01:36.001Z</time></trkpt><trkpt lat="43.99368063037607" lon="12.07863675782105"><ele>410.0</ele><time>2026-04-19T08:01:39.001Z</time></trkpt><trkpt lat="43.99359097801071" lon="12.078582610772342"><ele>409.99999999999994</ele><time>2026-04-19T08:01:42.001Z</time></trkpt><trkpt lat="43.993518292080104" lon="12.078515360814801"><ele>410.0</ele><time>2026-04-19T08:01:44.001Z</time></trkpt><trkpt lat="43.99344189941374" lon="12.078485833722283"><ele>410.0</ele><time>2026-04-19T08:01:46.001Z</time></trkpt><trkpt lat="43.99333979275963" lon="12.078531880138671"><ele>410.0</ele><time>2026-04-19T08:01:48.001Z</time></trkpt><trkpt lat="43.9932385276652" lon="12.078540108134453"><ele>410.0</ele><time>2026-04-19T08:01:50.001Z</time></trkpt><trkpt lat="43.993150350827804" lon="12.078588730594845"><ele>410.0</ele><time>2026-04-19T08:01:52.001Z</time></trkpt><trkpt lat="43.993069935656" lon="12.07849871803811"><ele>410.0</ele><time>2026-04-19T08:01:54.001Z</time></trkpt><trkpt lat="43.99299955533098" lon="12.078385200625227"><ele>413.99999999999994</ele><time>2026-04-19T08:01:56.001Z</time></trkpt><trkpt lat="43.99288679070571" lon="12.078294955745108"><ele>418.0</ele><time>2026-04-19T08:01:58.001Z</time></trkpt><trkpt lat="43.99282966946234" lon="12.07823393005331"><ele>422.0</ele><time>2026-04-19T08:01:59.001Z</time></trkpt><trkpt lat="43.99276023092806" lon="12.078169460504578"><ele>426.0</ele><time>2026-04-19T08:02:00.001Z</time></trkpt><trkpt lat="43.99270465019644" lon="12.078104283170102"><ele>429.99999999999994</ele><time>2026-04-19T08:02:01.001Z</time></trkpt><trkpt lat="43.99265650610353" lon="12.078045318281003"><ele>434.0</ele><time>2026-04-19T08:02:02.001Z</time></trkpt><trkpt lat="43.99254570880107" lon="12.077959011147716"><ele>440.66666666666663</ele><time>2026-04-19T08:02:04.001Z</time></trkpt><trkpt lat="43.992437633624874" lon="12.07789467319428"><ele>447.3333333333333</ele><time>2026-04-19T08:02:06.001Z</time></trkpt><trkpt lat="43.99235078148367" lon="12.07786313133153"><ele>454.0</ele><time>2026-04-19T08:02:08.001Z</time></trkpt><trkpt lat="43.99224846164381" lon="12.077822431330956"><ele>460.66666666666663</ele><time>2026-04-19T08:02:10.001Z</time></trkpt><trkpt lat="43.99218015018034" lon="12.077812385528759"><ele>467.3333333333333</ele><time>2026-04-19T08:02:11.001Z</time></trkpt><trkpt lat="43.99211780744876" lon="12.077794513349335"><ele>474.0</ele><time>2026-04-19T08:02:12.001Z</time></trkpt><trkpt lat="43.99204512383218" lon="12.077776329615697"><ele>474.0</ele><time>2026-04-19T08:02:13.001Z</time></trkpt><trkpt lat="43.99196821285271" lon="12.077788406009377"><ele>474.0</ele><time>2026-04-19T08:02:14.001Z</time></trkpt><trkpt lat="43.991889997299005" lon="12.077790248103158"><ele>474.0</ele><time>2026-04-19T08:02:15.001Z</time></trkpt><trkpt lat="43.991806657041856" lon="12.07775676252441"><ele>474.0</ele><time>2026-04-19T08:02:16.001Z</time></trkpt><trkpt lat="43.99171501043197" lon="12.07775050944731"><ele>474.0</ele><time>2026-04-19T08:02:17.001Z</time></trkpt><trkpt lat="43.991626441806716" lon="12.07776172086774"><ele>474.0</ele><time>2026-04-19T08:02:18.001Z</time></trkpt><trkpt lat="43.991536498462416" lon="12.077777678461633"><ele>478.1666666666667</ele><time>2026-04-19T08:02:19.001Z</time></trkpt><trkpt lat="43.991436053771004" lon="12.077794472450616"><ele>482.33333333333337</ele><time>2026-04-19T08:02:20.001Z</time></trkpt><trkpt lat="43.99135336563587" lon="12.077800330007982"><ele>486.5</ele><time>2026-04-19T08:02:21.001Z</time></trkpt><trkpt lat="43.991282766686524" lon="12.077812562348562"><ele>490.6666666666667</ele><time>2026-04-19T08:02:22.001Z</time></trkpt><trkpt lat="43.99121264282287" lon="12.077844771384761"><ele>494.83333333333337</ele><time>2026-04-19T08:02:23.001Z</time></trkpt><trkpt lat="43.991120401481986" lon="12.077798230585431"><ele>499.0</ele><time>2026-04-19T08:02:26.001Z</time></trkpt><trkpt lat="43.991096368191606" lon="12.077710842800943"><ele>499.0</ele><time>2026-04-19T08:02:28.001Z</time></trkpt><trkpt lat="43.99105831124212" lon="12.077568864969885"><ele>499.0</ele><time>2026-04-19T08:02:31.001Z</time></trkpt><trkpt lat="43.99102362464057" lon="12.0774952103661"><ele>499.0</ele><time>2026-04-19T08:02:33.001Z</time></trkpt><trkpt lat="43.990917238880364" lon="12.077325650974954"><ele>499.0</ele><time>2026-04-19T08:02:34.001Z</time></trkpt><trkpt lat="43.99084887336367" lon="12.077273505158864"><ele>499.0</ele><time>2026-04-19T08:02:35.001Z</time></trkpt><trkpt lat="43.9907824001817" lon="12.077213554569251"><ele>499.00000000000006</ele><time>2026-04-19T08:02:36.001Z</time></trkpt><trkpt lat="43.990699539111766" lon="12.07715277510957"><ele>499.0</ele><time>2026-04-19T08:02:38.001Z</time></trkpt><trkpt lat="43.99063373792714" lon="12.077178809678836"><ele>499.0</ele><time>2026-04-19T08:02:41.001Z</time></trkpt><trkpt lat="43.9905382192634" lon="12.077132477948767"><ele>499.0</ele><time>2026-04-19T08:02:43Z</time></trkpt><trkpt lat="43.990435281101966" lon="12.077081622952841"><ele>499.00000000000006</ele><time>2026-04-19T08:02:45Z</time></trkpt><trkpt lat="43.9903645571717" lon="12.077075510646015"><ele>499.0</ele><time>2026-04-19T08:02:47Z</time></trkpt><trkpt lat="43.990277096428855" lon="12.077008036452993"><ele>499.0</ele><time>2026-04-19T08:02:50Z</time></trkpt><trkpt lat="43.99015657220524" lon="12.076941564782704"><ele>499.0</ele><time>2026-04-19T08:02:52Z</time></trkpt><trkpt lat="43.99005245112739" lon="12.076901622246618"><ele>499.0</ele><time>2026-04-19T08:02:54Z</time></trkpt><trkpt lat="43.98998856725286" lon="12.076870352624292"><ele>499.0</ele><time>2026-04-19T08:02:56Z</time></trkpt><trkpt lat="43.98990644697403" lon="12.07686156148139"><ele>499.0</ele><time>2026-04-19T08:02:59.001Z</time></trkpt><trkpt lat="43.98984510007559" lon="12.076893429907766"><ele>502.4</ele><time>2026-04-19T08:03:01.001Z</time></trkpt><trkpt lat="43.9897850699406" lon="12.076981685103938"><ele>505.79999999999995</ele><time>2026-04-19T08:03:04.001Z</time></trkpt><trkpt lat="43.98971439857991" lon="12.076901773129837"><ele>509.20000000000005</ele><time>2026-04-19T08:03:07.001Z</time></trkpt><trkpt lat="43.98960881707131" lon="12.076867476714"><ele>512.6</ele><time>2026-04-19T08:03:09.001Z</time></trkpt><trkpt lat="43.989516629315986" lon="12.076865010844186"><ele>516.0</ele><time>2026-04-19T08:03:10.001Z</time></trkpt><trkpt lat="43.98944549662629" lon="12.076858649499654"><ele>516.0</ele><time>2026-04-19T08:03:11.001Z</time></trkpt><trkpt lat="43.989363866029194" lon="12.07682791276895"><ele>516.0</ele><time>2026-04-19T08:03:12.001Z</time></trkpt><trkpt lat="43.98928279508025" lon="12.076803893942328"><ele>516.0</ele><time>2026-04-19T08:03:13.001Z</time></trkpt><trkpt lat="43.98916268657986" lon="12.076797453699719"><ele>516.0</ele><time>2026-04-19T08:03:15.001Z</time></trkpt><trkpt lat="43.989097477615594" lon="12.076761594024408"><ele>516.0</ele><time>2026-04-19T08:03:16.001Z</time></trkpt><trkpt lat="43.98902266831043" lon="12.076668133197252"><ele>518.8333333333334</ele><time>2026-04-19T08:03:20.001Z</time></trkpt><trkpt lat="43.98895548081021" lon="12.076667856371742"><ele>521.6666666666666</ele><time>2026-04-19T08:03:22.001Z</time></trkpt><trkpt lat="43.988857209608355" lon="12.07666956140322"><ele>524.5</ele><time>2026-04-19T08:03:25.001Z</time></trkpt><trkpt lat="43.9887806596508" lon="12.076701859005718"><ele>527.3333333333333</ele><time>2026-04-19T08:03:27.001Z</time></trkpt><trkpt lat="43.98869335762872" lon="12.076671572244516"><ele>530.1666666666666</ele><time>2026-04-19T08:03:29.001Z</time></trkpt><trkpt lat="43.98861231358189" lon="12.07662760181951"><ele>533.0</ele><time>2026-04-19T08:03:31.001Z</time></trkpt><trkpt lat="43.98853649152007" lon="12.076678807528879"><ele>533.0</ele><time>2026-04-19T08:03:33.001Z</time></trkpt><trkpt lat="43.98843427491794" lon="12.076682558349459"><ele>533.0</ele><time>2026-04-19T08:03:35.001Z</time></trkpt><trkpt lat="43.98831830159579" lon="12.076682114911366"><ele>533.0</ele><time>2026-04-19T08:03:37.001Z</time></trkpt><trkpt lat="43.9882307925605" lon="12.076647365738085"><ele>533.0</ele><time>2026-04-19T08:03:39.001Z</time></trkpt><trkpt lat="43.98815104491778" lon="12.076628308260483"><ele>533.0</ele><time>2026-04-19T08:03:41.001Z</time></trkpt><trkpt lat="43.98803475146714" lon="12.076646519348001"><ele>536.5714285714286</ele><time>2026-04-19T08:03:44.001Z</time></trkpt><trkpt lat="43.98796616998471" lon="12.076636729444918"><ele>540.1428571428571</ele><time>2026-04-19T08:03:47.001Z</time></trkpt><trkpt lat="43.98790091975403" lon="12.076631447790739"><ele>543.7142857142857</ele><time>2026-04-19T08:03:48.001Z</time></trkpt><trkpt lat="43.987827765867344" lon="12.076618910410863"><ele>547.2857142857142</ele><time>2026-04-19T08:03:49.001Z</time></trkpt><trkpt lat="43.987759914311766" lon="12.07661585501079"><ele>550.8571428571429</ele><time>2026-04-19T08:03:50.001Z</time></trkpt><trkpt lat="43.987673765680746" lon="12.076618107607157"><ele>554.4285714285713</ele><time>2026-04-19T08:03:52.001Z</time></trkpt><trkpt lat="43.98758782187469" lon="12.076629476314196"><ele>558.0</ele><time>2026-04-19T08:03:55.001Z</time></trkpt><trkpt lat="43.987522938424696" lon="12.07664360783753"><ele>558.6666666666666</ele><time>2026-04-19T08:03:56.001Z</time></trkpt><trkpt lat="43.98746116994755" lon="12.076601407566372"><ele>559.3333333333334</ele><time>2026-04-19T08:03:59.001Z</time></trkpt><trkpt lat="43.98738750214849" lon="12.076598695706501"><ele>560.0</ele><time>2026-04-19T08:04:02.001Z</time></trkpt><trkpt lat="43.987230714630165" lon="12.076559299446888"><ele>560.6666666666667</ele><time>2026-04-19T08:04:04.001Z</time></trkpt><trkpt lat="43.987163247641625" lon="12.076539923428404"><ele>561.3333333333334</ele><time>2026-04-19T08:04:06.001Z</time></trkpt><trkpt lat="43.987091355395805" lon="12.076555877201848"><ele>562.0</ele><time>2026-04-19T08:04:08.001Z</time></trkpt><trkpt lat="43.98699060319169" lon="12.076592130834685"><ele>562.0</ele><time>2026-04-19T08:04:10.001Z</time></trkpt><trkpt lat="43.9868894858147" lon="12.076567715788793"><ele>562.0</ele><time>2026-04-19T08:04:12.001Z</time></trkpt><trkpt lat="43.9867810927292" lon="12.076571764940551"><ele>562.0</ele><time>2026-04-19T08:04:13.001Z</time></trkpt><trkpt lat="43.98663243464074" lon="12.076608263277446"><ele>562.0</ele><time>2026-04-19T08:04:14.001Z</time></trkpt><trkpt lat="43.986537841999386" lon="12.076631063236627"><ele>566.0</ele><time>2026-04-19T08:04:15.001Z</time></trkpt><trkpt lat="43.98645365814739" lon="12.076653207245887"><ele>570.0</ele><time>2026-04-19T08:04:16.001Z</time></trkpt><trkpt lat="43.98637858458962" lon="12.076670674527328"><ele>574.0</ele><time>2026-04-19T08:04:17.001Z</time></trkpt><trkpt lat="43.9863060085631" lon="12.076692136826964"><ele>578.0</ele><time>2026-04-19T08:04:18.001Z</time></trkpt><trkpt lat="43.98623414604768" lon="12.076726310450367"><ele>582.0</ele><time>2026-04-19T08:04:19.001Z</time></trkpt><trkpt lat="43.9861388418591" lon="12.07679032075046"><ele>586.0</ele><time>2026-04-19T08:04:21.001Z</time></trkpt><trkpt lat="43.986074948119246" lon="12.076796639162914"><ele>586.0</ele><time>2026-04-19T08:04:23.001Z</time></trkpt><trkpt lat="43.986010911537946" lon="12.076819899298254"><ele>586.0</ele><time>2026-04-19T08:04:26.001Z</time></trkpt><trkpt lat="43.98607658396991" lon="12.076822436492423"><ele>586.0</ele><time>2026-04-19T08:04:29.001Z</time></trkpt><trkpt lat="43.98601569072603" lon="12.076856607947468"><ele>586.0</ele><time>2026-04-19T08:08:54Z</time></trkpt><trkpt lat="43.98595457950596" lon="12.076897719218803"><ele>586.0</ele><time>2026-04-19T08:08:56Z</time></trkpt><trkpt lat="43.98586253357776" lon="12.076944421076266"><ele>586.0</ele><time>2026-04-19T08:08:58Z</time></trkpt><trkpt lat="43.985751261238605" lon="12.076961734744641"><ele>583.6</ele><time>2026-04-19T08:09:00Z</time></trkpt><trkpt lat="43.98564002086325" lon="12.07697908512316"><ele>581.2</ele><time>2026-04-19T08:09:02Z</time></trkpt><trkpt lat="43.98556156325627" lon="12.077010219829035"><ele>578.8</ele><time>2026-04-19T08:09:04Z</time></trkpt><trkpt lat="43.985482606261755" lon="12.077078776796174"><ele>576.4</ele><time>2026-04-19T08:09:08Z</time></trkpt><trkpt lat="43.98541836074024" lon="12.077149179787835"><ele>574.0</ele><time>2026-04-19T08:09:10Z</time></trkpt><trkpt lat="43.985378044980706" lon="12.077283328279293"><ele>574.0</ele><time>2026-04-19T08:09:12Z</time></trkpt><trkpt lat="43.98535372960679" lon="12.077364506107685"><ele>574.0</ele><time>2026-04-19T08:09:13Z</time></trkpt><trkpt lat="43.98531381962735" lon="12.077518341492814"><ele>574.0</ele><time>2026-04-19T08:09:15Z</time></trkpt><trkpt lat="43.98527949232647" lon="12.077597646190664"><ele>574.0</ele><time>2026-04-19T08:09:16Z</time></trkpt><trkpt lat="43.98521504243972" lon="12.07772412870609"><ele>574.0</ele><time>2026-04-19T08:09:18Z</time></trkpt><trkpt lat="43.98512747429672" lon="12.07777603770193"><ele>574.0</ele><time>2026-04-19T08:09:20Z</time></trkpt><trkpt lat="43.98506824012402" lon="12.077809870358482"><ele>574.0</ele><time>2026-04-19T08:09:22Z</time></trkpt><trkpt lat="43.98499753914219" lon="12.077871363105158"><ele>574.0</ele><time>2026-04-19T08:09:40Z</time></trkpt><trkpt lat="43.984930183748915" lon="12.077899377713956"><ele>574.0</ele><time>2026-04-19T08:09:41Z</time></trkpt><trkpt lat="43.98484999303813" lon="12.077922374463672"><ele>574.0</ele><time>2026-04-19T08:09:43Z</time></trkpt><trkpt lat="43.984774425945105" lon="12.07797783870026"><ele>574.0</ele><time>2026-04-19T08:09:45Z</time></trkpt><trkpt lat="43.984681627663726" lon="12.078053000116146"><ele>574.0</ele><time>2026-04-19T08:09:47Z</time></trkpt><trkpt lat="43.98459245084348" lon="12.078095618588046"><ele>574.0</ele><time>2026-04-19T08:09:49Z</time></trkpt><trkpt lat="43.984525668775326" lon="12.078183060843278"><ele>574.0</ele><time>2026-04-19T08:09:51Z</time></trkpt><trkpt lat="43.984447447956285" lon="12.07817510514624"><ele>574.0</ele><time>2026-04-19T08:09:53Z</time></trkpt><trkpt lat="43.98439535904281" lon="12.078084265170821"><ele>574.0</ele><time>2026-04-19T08:09:55Z</time></trkpt><trkpt lat="43.98434155051691" lon="12.078033164532904"><ele>574.0</ele><time>2026-04-19T08:09:57Z</time></trkpt><trkpt lat="43.98425125435696" lon="12.077961801742722"><ele>570.0</ele><time>2026-04-19T08:09:59Z</time></trkpt><trkpt lat="43.98411841576845" lon="12.077908039748808"><ele>566.0</ele><time>2026-04-19T08:10:01Z</time></trkpt><trkpt lat="43.98405517996936" lon="12.077898962133462"><ele>562.0</ele><time>2026-04-19T08:10:02Z</time></trkpt><trkpt lat="43.983951045546014" lon="12.077952131840469"><ele>558.0</ele><time>2026-04-19T08:10:04Z</time></trkpt><trkpt lat="43.98387047223708" lon="12.077998470678972"><ele>554.0</ele><time>2026-04-19T08:10:05Z</time></trkpt><trkpt lat="43.98379698124444" lon="12.078020765383314"><ele>554.0</ele><time>2026-04-19T08:10:06Z</time></trkpt><trkpt lat="43.98372321884879" lon="12.078026525936735"><ele>554.0</ele><time>2026-04-19T08:10:07Z</time></trkpt><trkpt lat="43.983654416697014" lon="12.078038679584669"><ele>554.0</ele><time>2026-04-19T08:10:08Z</time></trkpt><trkpt lat="43.98358790322304" lon="12.078033052344864"><ele>554.0</ele><time>2026-04-19T08:10:09Z</time></trkpt><trkpt lat="43.9834735047594" lon="12.077933663556555"><ele>554.0</ele><time>2026-04-19T08:10:11Z</time></trkpt><trkpt lat="43.983364535732576" lon="12.07787019990025"><ele>554.1666666666666</ele><time>2026-04-19T08:10:13Z</time></trkpt><trkpt lat="43.983284493799765" lon="12.07785179585341"><ele>554.3333333333333</ele><time>2026-04-19T08:10:14Z</time></trkpt><trkpt lat="43.98317550505868" lon="12.077818598168232"><ele>554.5</ele><time>2026-04-19T08:10:16Z</time></trkpt><trkpt lat="43.98311270525495" lon="12.077765363401701"><ele>554.6666666666666</ele><time>2026-04-19T08:10:19Z</time></trkpt><trkpt lat="43.98304805350968" lon="12.077748726642058"><ele>554.8333333333334</ele><time>2026-04-19T08:27:24Z</time></trkpt><trkpt lat="43.983098197614666" lon="12.077811493123722"><ele>555.0</ele><time>2026-04-19T08:31:06Z</time></trkpt><trkpt lat="43.98317205668641" lon="12.077793941812304"><ele>555.0</ele><time>2026-04-19T08:31:11Z</time></trkpt><trkpt lat="43.98325325741397" lon="12.0778053881572"><ele>555.0</ele><time>2026-04-19T08:31:15Z</time></trkpt><trkpt lat="43.98333116745223" lon="12.077820906788434"><ele>555.0</ele><time>2026-04-19T08:31:17Z</time></trkpt><trkpt lat="43.98342442659762" lon="12.077848107880174"><ele>555.0</ele><time>2026-04-19T08:31:19Z</time></trkpt><trkpt lat="43.98350706920078" lon="12.077894225974106"><ele>555.0</ele><time>2026-04-19T08:31:21Z</time></trkpt><trkpt lat="43.983570114617805" lon="12.07798418697813"><ele>555.0</ele><time>2026-04-19T08:31:23Z</time></trkpt><trkpt lat="43.98366002893925" lon="12.078038569864486"><ele>554.8333333333334</ele><time>2026-04-19T08:31:25Z</time></trkpt><trkpt lat="43.9837598854181" lon="12.078048715640968"><ele>554.6666666666666</ele><time>2026-04-19T08:31:27Z</time></trkpt><trkpt lat="43.98383295512972" lon="12.078048134031093"><ele>554.5</ele><time>2026-04-19T08:31:28Z</time></trkpt><trkpt lat="43.98391190694502" lon="12.07802421027578"><ele>554.3333333333333</ele><time>2026-04-19T08:31:29Z</time></trkpt><trkpt lat="43.98397964750912" lon="12.077983464478013"><ele>554.1666666666666</ele><time>2026-04-19T08:31:30Z</time></trkpt><trkpt lat="43.98407499705886" lon="12.077942278418488"><ele>554.0</ele><time>2026-04-19T08:31:32Z</time></trkpt><trkpt lat="43.984178235285434" lon="12.077955397028889"><ele>557.3333333333333</ele><time>2026-04-19T08:31:34Z</time></trkpt><trkpt lat="43.98429992769104" lon="12.077987705078824"><ele>560.6666666666666</ele><time>2026-04-19T08:31:36Z</time></trkpt><trkpt lat="43.98435869036529" lon="12.078034900912892"><ele>564.0</ele><time>2026-04-19T08:31:37Z</time></trkpt><trkpt lat="43.9844018512155" lon="12.078114147692014"><ele>567.3333333333334</ele><time>2026-04-19T08:31:38Z</time></trkpt><trkpt lat="43.98443443998073" lon="12.078207216663637"><ele>570.6666666666667</ele><time>2026-04-19T08:31:39Z</time></trkpt><trkpt lat="43.98451097405127" lon="12.078220816765546"><ele>574.0</ele><time>2026-04-19T08:31:40Z</time></trkpt><trkpt lat="43.98458895488697" lon="12.078171853127088"><ele>574.0</ele><time>2026-04-19T08:31:41Z</time></trkpt><trkpt lat="43.984650453961294" lon="12.078094529161785"><ele>574.0</ele><time>2026-04-19T08:31:42Z</time></trkpt><trkpt lat="43.98471364318399" lon="12.078021617623165"><ele>574.0</ele><time>2026-04-19T08:31:43Z</time></trkpt><trkpt lat="43.98477530455891" lon="12.077981464399988"><ele>574.0</ele><time>2026-04-19T08:31:44Z</time></trkpt><trkpt lat="43.98482699325516" lon="12.077915362060082"><ele>574.0</ele><time>2026-04-19T08:31:45Z</time></trkpt><trkpt lat="43.98488835084657" lon="12.077877591936783"><ele>574.0</ele><time>2026-04-19T08:31:46Z</time></trkpt><trkpt lat="43.98496675741739" lon="12.077869512875887"><ele>574.0</ele><time>2026-04-19T08:31:47Z</time></trkpt><trkpt lat="43.98505568711769" lon="12.0778398424621"><ele>574.0</ele><time>2026-04-19T08:31:49Z</time></trkpt><trkpt lat="43.985106197753275" lon="12.077778016985707"><ele>574.0</ele><time>2026-04-19T08:31:52Z</time></trkpt><trkpt lat="43.98520111148067" lon="12.077723950881738"><ele>574.0</ele><time>2026-04-19T08:32:13Z</time></trkpt><trkpt lat="43.985288680850275" lon="12.077632589295419"><ele>574.0</ele><time>2026-04-19T08:32:15Z</time></trkpt><trkpt lat="43.98532610370002" lon="12.077549696369859"><ele>574.0</ele><time>2026-04-19T08:32:16Z</time></trkpt><trkpt lat="43.98536486118001" lon="12.077427311088437"><ele>574.0</ele><time>2026-04-19T08:32:17Z</time></trkpt><trkpt lat="43.985393765405966" lon="12.077307163007935"><ele>574.0</ele><time>2026-04-19T08:32:18Z</time></trkpt><trkpt lat="43.98541575709133" lon="12.077187546234374"><ele>574.0</ele><time>2026-04-19T08:32:19Z</time></trkpt><trkpt lat="43.985452346042095" lon="12.077082723300645"><ele>574.0</ele><time>2026-04-19T08:32:20Z</time></trkpt><trkpt lat="43.985520748329286" lon="12.077025138044002"><ele>574.0</ele><time>2026-04-19T08:32:21Z</time></trkpt><trkpt lat="43.98560234219394" lon="12.077001521625073"><ele>574.0</ele><time>2026-04-19T08:32:22Z</time></trkpt><trkpt lat="43.98568669517311" lon="12.076972856907412"><ele>574.0</ele><time>2026-04-19T08:32:23Z</time></trkpt><trkpt lat="43.985800122326005" lon="12.076976392998347"><ele>576.4</ele><time>2026-04-19T08:32:24Z</time></trkpt><trkpt lat="43.98590820729734" lon="12.076962788257577"><ele>578.8</ele><time>2026-04-19T08:32:25Z</time></trkpt><trkpt lat="43.98600424053258" lon="12.076910230114969"><ele>581.2</ele><time>2026-04-19T08:32:26Z</time></trkpt><trkpt lat="43.98609301362331" lon="12.076855093211908"><ele>583.6</ele><time>2026-04-19T08:32:27Z</time></trkpt><trkpt lat="43.9861617121128" lon="12.076822315818106"><ele>586.0</ele><time>2026-04-19T08:32:28Z</time></trkpt><trkpt lat="43.986224396396615" lon="12.076755313384856"><ele>586.0</ele><time>2026-04-19T08:32:29Z</time></trkpt><trkpt lat="43.98627350525246" lon="12.076651132695227"><ele>586.0</ele><time>2026-04-19T08:32:30Z</time></trkpt><trkpt lat="43.986311290768725" lon="12.076519069462476"><ele>586.0</ele><time>2026-04-19T08:32:31Z</time></trkpt><trkpt lat="43.98638241999175" lon="12.076412442870454"><ele>586.0</ele><time>2026-04-19T08:32:32Z</time></trkpt><trkpt lat="43.98645038263168" lon="12.076291179724564"><ele>586.0</ele><time>2026-04-19T08:32:33Z</time></trkpt><trkpt lat="43.98645386716317" lon="12.076176851653303"><ele>585.4</ele><time>2026-04-19T08:32:34Z</time></trkpt><trkpt lat="43.98642960350006" lon="12.07605062525932"><ele>584.8</ele><time>2026-04-19T08:32:35Z</time></trkpt><trkpt lat="43.98644692708431" lon="12.075918807165882"><ele>584.1999999999999</ele><time>2026-04-19T08:32:36Z</time></trkpt><trkpt lat="43.98647738565119" lon="12.075797413217604"><ele>583.6</ele><time>2026-04-19T08:32:37Z</time></trkpt><trkpt lat="43.98648253026429" lon="12.075654318997088"><ele>583.0</ele><time>2026-04-19T08:32:38Z</time></trkpt><trkpt lat="43.986502870715405" lon="12.075486988442597"><ele>579.75</ele><time>2026-04-19T08:32:39Z</time></trkpt><trkpt lat="43.98652854477319" lon="12.07531775254656"><ele>576.5</ele><time>2026-04-19T08:32:40Z</time></trkpt><trkpt lat="43.986526166477425" lon="12.07515198568657"><ele>573.25</ele><time>2026-04-19T08:32:41Z</time></trkpt><trkpt lat="43.98651713198156" lon="12.074978310644017"><ele>570.0</ele><time>2026-04-19T08:32:42Z</time></trkpt><trkpt lat="43.98651282551157" lon="12.074824025008567"><ele>568.0</ele><time>2026-04-19T08:32:43Z</time></trkpt><trkpt lat="43.986490755320766" lon="12.07469717672678"><ele>566.0</ele><time>2026-04-19T08:32:44Z</time></trkpt><trkpt lat="43.98646446429779" lon="12.074597425467141"><ele>564.0</ele><time>2026-04-19T08:32:45Z</time></trkpt><trkpt lat="43.986433297330564" lon="12.074500385422354"><ele>562.0</ele><time>2026-04-19T08:32:46Z</time></trkpt><trkpt lat="43.98638624569456" lon="12.074407828023055"><ele>560.0</ele><time>2026-04-19T08:32:47Z</time></trkpt><trkpt lat="43.98637716756608" lon="12.074295144434595"><ele>558.0</ele><time>2026-04-19T08:32:48Z</time></trkpt><trkpt lat="43.98640655431036" lon="12.074167539101285"><ele>558.0</ele><time>2026-04-19T08:32:49Z</time></trkpt><trkpt lat="43.98639407456853" lon="12.07403778564384"><ele>558.0</ele><time>2026-04-19T08:32:50Z</time></trkpt><trkpt lat="43.986358164284965" lon="12.073922868581292"><ele>558.0</ele><time>2026-04-19T08:32:51Z</time></trkpt><trkpt lat="43.98633470414801" lon="12.073812669586276"><ele>558.0</ele><time>2026-04-19T08:32:52Z</time></trkpt><trkpt lat="43.98629940150157" lon="12.073738284192848"><ele>558.0</ele><time>2026-04-19T08:32:53Z</time></trkpt><trkpt lat="43.98626730268698" lon="12.073631616085471"><ele>558.0</ele><time>2026-04-19T08:32:55Z</time></trkpt><trkpt lat="43.98621634259084" lon="12.073564773894164"><ele>558.0</ele><time>2026-04-19T08:33:01Z</time></trkpt><trkpt lat="43.98610371955881" lon="12.0735158924344"><ele>558.0</ele><time>2026-04-19T08:33:03Z</time></trkpt><trkpt lat="43.98596785192259" lon="12.07345762786148"><ele>558.0</ele><time>2026-04-19T08:33:05Z</time></trkpt><trkpt lat="43.9858967063661" lon="12.07341511814588"><ele>558.0</ele><time>2026-04-19T08:33:06Z</time></trkpt><trkpt lat="43.9858216605069" lon="12.07336996340234"><ele>558.0</ele><time>2026-04-19T08:33:07Z</time></trkpt><trkpt lat="43.985749722347585" lon="12.073313479884296"><ele>557.0</ele><time>2026-04-19T08:33:08Z</time></trkpt><trkpt lat="43.985666333280065" lon="12.073216026618411"><ele>556.0</ele><time>2026-04-19T08:33:09Z</time></trkpt><trkpt lat="43.985592916188736" lon="12.073114323957038"><ele>555.0</ele><time>2026-04-19T08:33:10Z</time></trkpt><trkpt lat="43.985511472210845" lon="12.073056007615827"><ele>554.0</ele><time>2026-04-19T08:33:11Z</time></trkpt><trkpt lat="43.98545356897015" lon="12.073016632399398"><ele>553.0</ele><time>2026-04-19T08:33:12Z</time></trkpt><trkpt lat="43.985373197146586" lon="12.072995209361691"><ele>553.0</ele><time>2026-04-19T08:33:13Z</time></trkpt><trkpt lat="43.98528996358327" lon="12.072992284630557"><ele>553.0</ele><time>2026-04-19T08:33:14Z</time></trkpt><trkpt lat="43.985212138002396" lon="12.073019479663959"><ele>553.0</ele><time>2026-04-19T08:33:15Z</time></trkpt><trkpt lat="43.98513526457906" lon="12.073032043038504"><ele>553.0</ele><time>2026-04-19T08:33:16Z</time></trkpt><trkpt lat="43.98504417750238" lon="12.07302331595201"><ele>553.0</ele><time>2026-04-19T08:33:17Z</time></trkpt><trkpt lat="43.98495051273954" lon="12.072989874520738"><ele>553.0</ele><time>2026-04-19T08:33:18Z</time></trkpt><trkpt lat="43.98484577414484" lon="12.07295886423505"><ele>548.1666666666667</ele><time>2026-04-19T08:33:19Z</time></trkpt><trkpt lat="43.9847655713221" lon="12.072955716753047"><ele>543.3333333333334</ele><time>2026-04-19T08:33:20Z</time></trkpt><trkpt lat="43.98469078173834" lon="12.072950622535194"><ele>538.5</ele><time>2026-04-19T08:33:21Z</time></trkpt><trkpt lat="43.984618366900875" lon="12.072908065143805"><ele>533.6666666666666</ele><time>2026-04-19T08:33:22Z</time></trkpt><trkpt lat="43.98464541823664" lon="12.072805088596695"><ele>528.8333333333333</ele><time>2026-04-19T08:33:24Z</time></trkpt><trkpt lat="43.98473525785887" lon="12.072808595187585"><ele>524.0</ele><time>2026-04-19T08:33:26Z</time></trkpt><trkpt lat="43.98481350578327" lon="12.072713764605503"><ele>524.0</ele><time>2026-04-19T08:33:28Z</time></trkpt><trkpt lat="43.984854725068324" lon="12.072634195285772"><ele>524.0</ele><time>2026-04-19T08:33:29Z</time></trkpt><trkpt lat="43.9849005977046" lon="12.072559757706875"><ele>524.0</ele><time>2026-04-19T08:33:30Z</time></trkpt><trkpt lat="43.98498569516333" lon="12.072449783632095"><ele>524.0</ele><time>2026-04-19T08:33:32Z</time></trkpt><trkpt lat="43.98504076097818" lon="12.072387026245838"><ele>524.0</ele><time>2026-04-19T08:33:33Z</time></trkpt><trkpt lat="43.98510494289122" lon="12.072347279708023"><ele>524.0</ele><time>2026-04-19T08:33:34Z</time></trkpt><trkpt lat="43.98517982004783" lon="12.072361607405039"><ele>525.8333333333333</ele><time>2026-04-19T08:33:35Z</time></trkpt><trkpt lat="43.98528316057657" lon="12.072298005316721"><ele>527.6666666666666</ele><time>2026-04-19T08:33:37Z</time></trkpt><trkpt lat="43.985332697280306" lon="12.072232306453216"><ele>529.5</ele><time>2026-04-19T08:33:38Z</time></trkpt><trkpt lat="43.98535089279427" lon="12.072123418013556"><ele>531.3333333333334</ele><time>2026-04-19T08:33:39Z</time></trkpt><trkpt lat="43.98540874124953" lon="12.072039667456307"><ele>533.1666666666667</ele><time>2026-04-19T08:33:40Z</time></trkpt><trkpt lat="43.98548406903807" lon="12.07196928923312"><ele>535.0</ele><time>2026-04-19T08:33:41Z</time></trkpt><trkpt lat="43.98554593375933" lon="12.071899938158666"><ele>535.0</ele><time>2026-04-19T08:33:42Z</time></trkpt><trkpt lat="43.985600038525334" lon="12.071841643818194"><ele>535.0</ele><time>2026-04-19T08:33:43Z</time></trkpt><trkpt lat="43.98566583400472" lon="12.07182196030243"><ele>535.0</ele><time>2026-04-19T08:33:44Z</time></trkpt><trkpt lat="43.985736391776804" lon="12.071842340795104"><ele>535.0</ele><time>2026-04-19T08:33:45Z</time></trkpt><trkpt lat="43.98577852276223" lon="12.071768641060936"><ele>535.0</ele><time>2026-04-19T08:33:47Z</time></trkpt><trkpt lat="43.98583979425238" lon="12.071711678128956"><ele>535.0</ele><time>2026-04-19T08:33:50Z</time></trkpt><trkpt lat="43.985855257134986" lon="12.07159337634527"><ele>535.0</ele><time>2026-04-19T08:33:53Z</time></trkpt><trkpt lat="43.98580408017458" lon="12.071541871414468"><ele>533.75</ele><time>2026-04-19T08:33:55Z</time></trkpt><trkpt lat="43.985805226667" lon="12.071403532130352"><ele>532.5</ele><time>2026-04-19T08:33:58Z</time></trkpt><trkpt lat="43.98579544122001" lon="12.071299398857947"><ele>531.25</ele><time>2026-04-19T08:34:01Z</time></trkpt><trkpt lat="43.98582211784892" lon="12.071083839462643"><ele>530.0</ele><time>2026-04-19T08:34:03Z</time></trkpt><trkpt lat="43.98585604093748" lon="12.070925125289317"><ele>534.6</ele><time>2026-04-19T08:34:04Z</time></trkpt><trkpt lat="43.985891162034356" lon="12.070730222023133"><ele>539.2</ele><time>2026-04-19T08:34:05Z</time></trkpt><trkpt lat="43.9859165917257" lon="12.070571559430471"><ele>543.8</ele><time>2026-04-19T08:34:06Z</time></trkpt><trkpt lat="43.985912388466545" lon="12.070421538283282"><ele>548.4</ele><time>2026-04-19T08:34:07Z</time></trkpt><trkpt lat="43.98587126282926" lon="12.070336965423335"><ele>553.0</ele><time>2026-04-19T08:34:08Z</time></trkpt><trkpt lat="43.985799104415946" lon="12.070330683314449"><ele>553.0</ele><time>2026-04-19T08:34:09Z</time></trkpt><trkpt lat="43.98573033586372" lon="12.070320686206353"><ele>553.0</ele><time>2026-04-19T08:34:10Z</time></trkpt><trkpt lat="43.98559367491631" lon="12.07031906916276"><ele>553.0</ele><time>2026-04-19T08:34:12Z</time></trkpt><trkpt lat="43.985495509478305" lon="12.070307864364997"><ele>553.0</ele><time>2026-04-19T08:34:13Z</time></trkpt><trkpt lat="43.985386704107064" lon="12.070310470165742"><ele>553.0</ele><time>2026-04-19T08:34:14Z</time></trkpt><trkpt lat="43.98529503154611" lon="12.070267686594725"><ele>553.0</ele><time>2026-04-19T08:34:15Z</time></trkpt><trkpt lat="43.985217859507195" lon="12.070214808638825"><ele>553.0</ele><time>2026-04-19T08:34:16Z</time></trkpt><trkpt lat="43.98518298776904" lon="12.070137299426602"><ele>553.0</ele><time>2026-04-19T08:34:17Z</time></trkpt><trkpt lat="43.98519069479698" lon="12.070038692908486"><ele>553.0</ele><time>2026-04-19T08:34:18Z</time></trkpt><trkpt lat="43.98521000297654" lon="12.069901234899104"><ele>553.0</ele><time>2026-04-19T08:34:19Z</time></trkpt><trkpt lat="43.98523506703656" lon="12.06976214371791"><ele>553.0</ele><time>2026-04-19T08:34:20Z</time></trkpt><trkpt lat="43.98524019464384" lon="12.06962756923279"><ele>554.5</ele><time>2026-04-19T08:34:21Z</time></trkpt><trkpt lat="43.9852018204292" lon="12.069513385604315"><ele>556.0</ele><time>2026-04-19T08:34:22Z</time></trkpt><trkpt lat="43.98518745976307" lon="12.06941926951737"><ele>557.5</ele><time>2026-04-19T08:34:23Z</time></trkpt><trkpt lat="43.9852943866982" lon="12.06934094771623"><ele>559.0</ele><time>2026-04-19T08:34:25Z</time></trkpt><trkpt lat="43.98536185618641" lon="12.069309552071942"><ele>560.5</ele><time>2026-04-19T08:34:26Z</time></trkpt><trkpt lat="43.985415483008374" lon="12.069246028834907"><ele>562.0</ele><time>2026-04-19T08:34:27Z</time></trkpt><trkpt lat="43.98546039278385" lon="12.069175720467438"><ele>563.8000000000001</ele><time>2026-04-19T08:34:28Z</time></trkpt><trkpt lat="43.98548021629664" lon="12.069043912109489"><ele>565.6</ele><time>2026-04-19T08:34:30Z</time></trkpt><trkpt lat="43.985529698437986" lon="12.068949048636215"><ele>567.4000000000001</ele><time>2026-04-19T08:34:32Z</time></trkpt><trkpt lat="43.985492773301495" lon="12.06879444701794"><ele>569.2</ele><time>2026-04-19T08:34:34Z</time></trkpt><trkpt lat="43.98541958589761" lon="12.068695107526203"><ele>571.0</ele><time>2026-04-19T08:34:35Z</time></trkpt><trkpt lat="43.98536912684281" lon="12.068573892043302"><ele>571.0</ele><time>2026-04-19T08:34:36Z</time></trkpt><trkpt lat="43.98532364781439" lon="12.068457659715792"><ele>571.0</ele><time>2026-04-19T08:34:37Z</time></trkpt><trkpt lat="43.98524365480769" lon="12.068387502994234"><ele>571.0</ele><time>2026-04-19T08:34:38Z</time></trkpt><trkpt lat="43.9851348323746" lon="12.068337280212205"><ele>571.0</ele><time>2026-04-19T08:34:39Z</time></trkpt><trkpt lat="43.98501333610348" lon="12.068297820183506"><ele>571.0</ele><time>2026-04-19T08:34:40Z</time></trkpt><trkpt lat="43.98487602842146" lon="12.068237438590405"><ele>566.75</ele><time>2026-04-19T08:34:41Z</time></trkpt><trkpt lat="43.984719509349794" lon="12.068225540840567"><ele>562.5</ele><time>2026-04-19T08:34:42Z</time></trkpt><trkpt lat="43.98458040772133" lon="12.06824233907229"><ele>558.25</ele><time>2026-04-19T08:34:43Z</time></trkpt><trkpt lat="43.98446458579858" lon="12.068274833362045"><ele>554.0</ele><time>2026-04-19T08:34:44Z</time></trkpt><trkpt lat="43.98439493762072" lon="12.068285026467555"><ele>554.0</ele><time>2026-04-19T08:34:45Z</time></trkpt><trkpt lat="43.9843363765657" lon="12.068210925384673"><ele>554.0</ele><time>2026-04-19T08:34:47Z</time></trkpt><trkpt lat="43.98436474940167" lon="12.068131921862747"><ele>554.0</ele><time>2026-04-19T08:34:50Z</time></trkpt><trkpt lat="43.98440025612372" lon="12.068056218034648"><ele>554.0</ele><time>2026-04-19T08:35:20Z</time></trkpt><trkpt lat="43.98443422431712" lon="12.067966153149321"><ele>554.0</ele><time>2026-04-19T08:35:21Z</time></trkpt><trkpt lat="43.984456336785655" lon="12.067860546356622"><ele>554.0</ele><time>2026-04-19T08:35:22Z</time></trkpt><trkpt lat="43.984462112320195" lon="12.067717216923047"><ele>554.0</ele><time>2026-04-19T08:35:23Z</time></trkpt><trkpt lat="43.98448260509594" lon="12.067513549028675"><ele>554.0</ele><time>2026-04-19T08:35:24Z</time></trkpt><trkpt lat="43.984491484735365" lon="12.067339113049556"><ele>554.0</ele><time>2026-04-19T08:35:25Z</time></trkpt><trkpt lat="43.9844625737573" lon="12.067189031586198"><ele>554.0</ele><time>2026-04-19T08:35:26Z</time></trkpt><trkpt lat="43.984403733761056" lon="12.067030538717091"><ele>557.25</ele><time>2026-04-19T08:35:27Z</time></trkpt><trkpt lat="43.984346764486354" lon="12.066888376520867"><ele>560.5</ele><time>2026-04-19T08:35:28Z</time></trkpt><trkpt lat="43.984298688945486" lon="12.066763280262007"><ele>563.75</ele><time>2026-04-19T08:35:29Z</time></trkpt><trkpt lat="43.9842238965953" lon="12.06664344372972"><ele>567.0</ele><time>2026-04-19T08:35:30Z</time></trkpt><trkpt lat="43.9841048445114" lon="12.066535031979033"><ele>567.0</ele><time>2026-04-19T08:35:31Z</time></trkpt><trkpt lat="43.98399034875043" lon="12.06643670009796"><ele>567.0</ele><time>2026-04-19T08:35:32Z</time></trkpt><trkpt lat="43.9838898567968" lon="12.066361287962229"><ele>567.0</ele><time>2026-04-19T08:35:33Z</time></trkpt><trkpt lat="43.983791119008416" lon="12.066276101023286"><ele>567.0</ele><time>2026-04-19T08:35:34Z</time></trkpt><trkpt lat="43.983685460488196" lon="12.06622133298948"><ele>567.0</ele><time>2026-04-19T08:35:35Z</time></trkpt><trkpt lat="43.98355971111299" lon="12.066224695212707"><ele>567.0</ele><time>2026-04-19T08:35:36Z</time></trkpt><trkpt lat="43.983430246553695" lon="12.066212492594744"><ele>567.0</ele><time>2026-04-19T08:35:37Z</time></trkpt><trkpt lat="43.98332461629726" lon="12.06616539896036"><ele>567.0</ele><time>2026-04-19T08:35:38Z</time></trkpt><trkpt lat="43.98320897090403" lon="12.066067485363778"><ele>559.0</ele><time>2026-04-19T08:35:39Z</time></trkpt><trkpt lat="43.983084917543465" lon="12.065929044303532"><ele>551.0</ele><time>2026-04-19T08:35:40Z</time></trkpt><trkpt lat="43.98297167431598" lon="12.065783250674329"><ele>543.0</ele><time>2026-04-19T08:35:41Z</time></trkpt><trkpt lat="43.98285664109469" lon="12.065626327937451"><ele>543.0</ele><time>2026-04-19T08:35:42Z</time></trkpt><trkpt lat="43.98274091673982" lon="12.065483085672193"><ele>543.0</ele><time>2026-04-19T08:35:43Z</time></trkpt><trkpt lat="43.982635826892086" lon="12.065358967993605"><ele>543.0</ele><time>2026-04-19T08:35:44Z</time></trkpt><trkpt lat="43.98254735516301" lon="12.065283252531978"><ele>543.0</ele><time>2026-04-19T08:35:45Z</time></trkpt><trkpt lat="43.98249860341425" lon="12.065210894543807"><ele>543.0</ele><time>2026-04-19T08:35:46Z</time></trkpt><trkpt lat="43.98256750771517" lon="12.065040250394924"><ele>543.0</ele><time>2026-04-19T08:35:48Z</time></trkpt><trkpt lat="43.98265867445249" lon="12.064984992013962"><ele>543.0</ele><time>2026-04-19T08:35:49Z</time></trkpt><trkpt lat="43.982789321840954" lon="12.06492660573221"><ele>543.0</ele><time>2026-04-19T08:35:50Z</time></trkpt><trkpt lat="43.98293108486218" lon="12.064874710296728"><ele>542.4</ele><time>2026-04-19T08:35:51Z</time></trkpt><trkpt lat="43.98307794930305" lon="12.064807994382074"><ele>541.8</ele><time>2026-04-19T08:35:52Z</time></trkpt><trkpt lat="43.983213260753665" lon="12.064761490350064"><ele>541.2</ele><time>2026-04-19T08:35:53Z</time></trkpt><trkpt lat="43.983289985311856" lon="12.064700442857069"><ele>540.6</ele><time>2026-04-19T08:35:54Z</time></trkpt><trkpt lat="43.98334831606998" lon="12.064655259710063"><ele>540.0</ele><time>2026-04-19T08:35:56Z</time></trkpt><trkpt lat="43.98333469894734" lon="12.06453646105338"><ele>540.0</ele><time>2026-04-19T08:35:57Z</time></trkpt><trkpt lat="43.98333474180453" lon="12.064415288359562"><ele>540.0</ele><time>2026-04-19T08:35:58Z</time></trkpt><trkpt lat="43.98327290271695" lon="12.06428164395233"><ele>540.0</ele><time>2026-04-19T08:35:59Z</time></trkpt><trkpt lat="43.98322244622352" lon="12.06415809958644"><ele>540.0</ele><time>2026-04-19T08:36:00Z</time></trkpt><trkpt lat="43.9831423312986" lon="12.064020039624529"><ele>540.0</ele><time>2026-04-19T08:36:01Z</time></trkpt><trkpt lat="43.98312227811974" lon="12.063922201023711"><ele>538.2</ele><time>2026-04-19T08:36:02Z</time></trkpt><trkpt lat="43.98313107087591" lon="12.063834914206579"><ele>536.4</ele><time>2026-04-19T08:36:03Z</time></trkpt><trkpt lat="43.98322350331444" lon="12.063713567480438"><ele>534.6</ele><time>2026-04-19T08:36:05Z</time></trkpt><trkpt lat="43.98329191676624" lon="12.063645053404237"><ele>532.8</ele><time>2026-04-19T08:36:06Z</time></trkpt><trkpt lat="43.983382946318365" lon="12.063572765186501"><ele>531.0</ele><time>2026-04-19T08:36:07Z</time></trkpt><trkpt lat="43.98348723153187" lon="12.063501339348889"><ele>537.4</ele><time>2026-04-19T08:36:08Z</time></trkpt><trkpt lat="43.98356223947692" lon="12.063439211928797"><ele>543.8</ele><time>2026-04-19T08:36:09Z</time></trkpt><trkpt lat="43.98364376979073" lon="12.063343869032602"><ele>550.1999999999999</ele><time>2026-04-19T08:36:10Z</time></trkpt><trkpt lat="43.983720037625844" lon="12.063250735031707"><ele>556.6</ele><time>2026-04-19T08:36:11Z</time></trkpt><trkpt lat="43.983819122528296" lon="12.0631037771734"><ele>563.0</ele><time>2026-04-19T08:36:12Z</time></trkpt><trkpt lat="43.98389322388799" lon="12.062972168129628"><ele>563.0</ele><time>2026-04-19T08:36:13Z</time></trkpt><trkpt lat="43.98392601037202" lon="12.062862294574236"><ele>563.0</ele><time>2026-04-19T08:36:14Z</time></trkpt><trkpt lat="43.98392260547492" lon="12.062706164504991"><ele>563.0</ele><time>2026-04-19T08:36:15Z</time></trkpt><trkpt lat="43.98381498611397" lon="12.062557932029678"><ele>563.0</ele><time>2026-04-19T08:36:16Z</time></trkpt><trkpt lat="43.98376192985782" lon="12.062442042619203"><ele>563.0</ele><time>2026-04-19T08:36:17Z</time></trkpt><trkpt lat="43.98367083446783" lon="12.062325712278291"><ele>561.6</ele><time>2026-04-19T08:36:18Z</time></trkpt><trkpt lat="43.98362003174089" lon="12.062244638634002"><ele>560.1999999999999</ele><time>2026-04-19T08:36:19Z</time></trkpt><trkpt lat="43.98360075470326" lon="12.062157477121747"><ele>558.8</ele><time>2026-04-19T08:36:20Z</time></trkpt><trkpt lat="43.98370333109524" lon="12.061989406706822"><ele>557.4</ele><time>2026-04-19T08:36:22Z</time></trkpt><trkpt lat="43.983733821945066" lon="12.061876060993267"><ele>556.0</ele><time>2026-04-19T08:36:23Z</time></trkpt><trkpt lat="43.98373811542681" lon="12.06176953915197"><ele>556.0</ele><time>2026-04-19T08:36:24Z</time></trkpt><trkpt lat="43.98366475267279" lon="12.061638212890712"><ele>556.0</ele><time>2026-04-19T08:36:26Z</time></trkpt><trkpt lat="43.98361459134391" lon="12.061568776104023"><ele>556.0</ele><time>2026-04-19T08:36:27Z</time></trkpt><trkpt lat="43.983572794793695" lon="12.061467150164866"><ele>556.0</ele><time>2026-04-19T08:36:28Z</time></trkpt><trkpt lat="43.98356346933647" lon="12.06136879275237"><ele>556.0</ele><time>2026-04-19T08:36:29Z</time></trkpt><trkpt lat="43.98358995968292" lon="12.061269226354845"><ele>556.0</ele><time>2026-04-19T08:36:30Z</time></trkpt><trkpt lat="43.98362940100167" lon="12.061163347768408"><ele>556.6666666666667</ele><time>2026-04-19T08:36:31Z</time></trkpt><trkpt lat="43.98358822042235" lon="12.061075018769142"><ele>557.3333333333334</ele><time>2026-04-19T08:36:33Z</time></trkpt><trkpt lat="43.9835321159636" lon="12.060968440845903"><ele>558.0</ele><time>2026-04-19T08:36:35Z</time></trkpt><trkpt lat="43.9835209284506" lon="12.060858461132202"><ele>558.6666666666666</ele><time>2026-04-19T08:36:39Z</time></trkpt><trkpt lat="43.98343662978607" lon="12.06079163070313"><ele>559.3333333333333</ele><time>2026-04-19T08:36:44Z</time></trkpt><trkpt lat="43.98338041352103" lon="12.060747439210273"><ele>560.0</ele><time>2026-04-19T08:36:47Z</time></trkpt><trkpt lat="43.98332070663219" lon="12.060693642719677"><ele>560.0</ele><time>2026-04-19T08:36:49Z</time></trkpt><trkpt lat="43.98328914556965" lon="12.060570675193471"><ele>560.0</ele><time>2026-04-19T08:36:51Z</time></trkpt><trkpt lat="43.983250099316614" lon="12.060486128362815"><ele>560.0</ele><time>2026-04-19T08:36:53Z</time></trkpt><trkpt lat="43.983199661750525" lon="12.060381147305051"><ele>560.0</ele><time>2026-04-19T08:36:55Z</time></trkpt><trkpt lat="43.983130916071474" lon="12.060328126321307"><ele>560.0</ele><time>2026-04-19T08:36:57Z</time></trkpt><trkpt lat="43.98307011056262" lon="12.060243997116432"><ele>560.0</ele><time>2026-04-19T08:36:59Z</time></trkpt><trkpt lat="43.98301254527824" lon="12.060179553123678"><ele>560.0</ele><time>2026-04-19T08:37:01Z</time></trkpt><trkpt lat="43.98298820577217" lon="12.060073412783835"><ele>560.0</ele><time>2026-04-19T08:37:03Z</time></trkpt><trkpt lat="43.982970603261016" lon="12.059891612735775"><ele>560.0</ele><time>2026-04-19T08:37:05Z</time></trkpt><trkpt lat="43.982949928046274" lon="12.059807779294346"><ele>560.0</ele><time>2026-04-19T08:37:06Z</time></trkpt><trkpt lat="43.98289646558846" lon="12.059729743792065"><ele>560.0</ele><time>2026-04-19T08:37:08Z</time></trkpt><trkpt lat="43.98292764842989" lon="12.059601351001698"><ele>559.0</ele><time>2026-04-19T08:37:12Z</time></trkpt><trkpt lat="43.982877015113075" lon="12.059497859023091"><ele>558.0</ele><time>2026-04-19T08:37:14Z</time></trkpt><trkpt lat="43.98281075473905" lon="12.059415413693685"><ele>557.0</ele><time>2026-04-19T08:37:16Z</time></trkpt><trkpt lat="43.98274141892077" lon="12.05927459449202"><ele>556.0</ele><time>2026-04-19T08:37:18Z</time></trkpt><trkpt lat="43.98263829725971" lon="12.059182082673669"><ele>555.0</ele><time>2026-04-19T08:37:20Z</time></trkpt><trkpt lat="43.98254591144577" lon="12.059175844091126"><ele>559.3333333333334</ele><time>2026-04-19T08:37:22Z</time></trkpt><trkpt lat="43.98248420884002" lon="12.05906242824203"><ele>563.6666666666666</ele><time>2026-04-19T08:37:24Z</time></trkpt><trkpt lat="43.9824815394873" lon="12.058970783608872"><ele>568.0</ele><time>2026-04-19T08:37:25Z</time></trkpt><trkpt lat="43.98242030578232" lon="12.058865693757705"><ele>572.3333333333333</ele><time>2026-04-19T08:37:27Z</time></trkpt><trkpt lat="43.98239214138406" lon="12.05875880240888"><ele>576.6666666666666</ele><time>2026-04-19T08:37:29Z</time></trkpt><trkpt lat="43.98240728744967" lon="12.058639850727927"><ele>581.0</ele><time>2026-04-19T08:37:32Z</time></trkpt><trkpt lat="43.982386399465256" lon="12.05854443168891"><ele>581.0</ele><time>2026-04-19T08:37:33Z</time></trkpt><trkpt lat="43.982368523784615" lon="12.05845818387952"><ele>581.0</ele><time>2026-04-19T08:37:34Z</time></trkpt><trkpt lat="43.98235041287116" lon="12.058316729900168"><ele>581.0</ele><time>2026-04-19T08:37:36Z</time></trkpt><trkpt lat="43.98237356920156" lon="12.058201869456687"><ele>581.0</ele><time>2026-04-19T08:37:39Z</time></trkpt><trkpt lat="43.98235062705428" lon="12.05808836578475"><ele>581.0</ele><time>2026-04-19T08:37:42Z</time></trkpt><trkpt lat="43.9823591587169" lon="12.057976382728162"><ele>581.0</ele><time>2026-04-19T08:37:45Z</time></trkpt><trkpt lat="43.98234286731143" lon="12.057868328800751"><ele>580.2</ele><time>2026-04-19T08:37:47Z</time></trkpt><trkpt lat="43.98229898637673" lon="12.057786239100865"><ele>579.4000000000001</ele><time>2026-04-19T08:37:51Z</time></trkpt><trkpt lat="43.982257966444784" lon="12.057616343982598"><ele>578.6</ele><time>2026-04-19T08:37:58Z</time></trkpt><trkpt lat="43.98222647056099" lon="12.057538792637231"><ele>577.8000000000001</ele><time>2026-04-19T08:38:01Z</time></trkpt><trkpt lat="43.982186978560655" lon="12.057454507472748"><ele>577.0</ele><time>2026-04-19T08:38:04Z</time></trkpt><trkpt lat="43.98211517328006" lon="12.057285377648421"><ele>576.4</ele><time>2026-04-19T08:38:06Z</time></trkpt><trkpt lat="43.982040984755926" lon="12.057097977916202"><ele>575.8000000000001</ele><time>2026-04-19T08:38:07Z</time></trkpt><trkpt lat="43.981994740554995" lon="12.056959454156416"><ele>575.2</ele><time>2026-04-19T08:38:07.999Z</time></trkpt><trkpt lat="43.98196652506608" lon="12.05685062396023"><ele>574.6</ele><time>2026-04-19T08:38:09Z</time></trkpt><trkpt lat="43.98195926893549" lon="12.056733070635222"><ele>574.0</ele><time>2026-04-19T08:38:10Z</time></trkpt><trkpt lat="43.981994158182424" lon="12.056625006362381"><ele>577.5</ele><time>2026-04-19T08:38:11Z</time></trkpt><trkpt lat="43.982066285025766" lon="12.05653687293988"><ele>581.0</ele><time>2026-04-19T08:38:12Z</time></trkpt><trkpt lat="43.98212712283999" lon="12.056412555338605"><ele>584.5</ele><time>2026-04-19T08:38:13Z</time></trkpt><trkpt lat="43.98215857305012" lon="12.056249455064751"><ele>588.0</ele><time>2026-04-19T08:38:14Z</time></trkpt><trkpt lat="43.98219706547099" lon="12.056047063167131"><ele>588.0</ele><time>2026-04-19T08:38:15Z</time></trkpt><trkpt lat="43.9822204938678" lon="12.055852377864708"><ele>588.0</ele><time>2026-04-19T08:38:16Z</time></trkpt><trkpt lat="43.982238250629706" lon="12.055694309182979"><ele>588.0</ele><time>2026-04-19T08:38:17Z</time></trkpt><trkpt lat="43.9822705054737" lon="12.055532513826599"><ele>588.0</ele><time>2026-04-19T08:38:18Z</time></trkpt><trkpt lat="43.982272628789076" lon="12.055377145681604"><ele>590.6</ele><time>2026-04-19T08:38:19Z</time></trkpt><trkpt lat="43.98222309949511" lon="12.0552235262805"><ele>593.1999999999999</ele><time>2026-04-19T08:38:20Z</time></trkpt><trkpt lat="43.98215011161308" lon="12.055124263393878"><ele>595.8</ele><time>2026-04-19T08:38:21Z</time></trkpt><trkpt lat="43.98206779526595" lon="12.055050706879737"><ele>598.4</ele><time>2026-04-19T08:38:22Z</time></trkpt><trkpt lat="43.98200935363767" lon="12.05490437924054"><ele>601.0</ele><time>2026-04-19T08:38:23Z</time></trkpt><trkpt lat="43.98192391271537" lon="12.054783331492121"><ele>601.0</ele><time>2026-04-19T08:38:24Z</time></trkpt><trkpt lat="43.98180868850463" lon="12.054706577964899"><ele>601.0</ele><time>2026-04-19T08:38:25Z</time></trkpt><trkpt lat="43.981691116259825" lon="12.05464176928321"><ele>601.0</ele><time>2026-04-19T08:38:26Z</time></trkpt><trkpt lat="43.98164743059898" lon="12.054540073563192"><ele>601.0</ele><time>2026-04-19T08:38:27Z</time></trkpt><trkpt lat="43.98162195683398" lon="12.054384887100593"><ele>602.0</ele><time>2026-04-19T08:38:28Z</time></trkpt><trkpt lat="43.98158181606708" lon="12.05425810051038"><ele>603.0</ele><time>2026-04-19T08:38:29Z</time></trkpt><trkpt lat="43.9815174968702" lon="12.0541950069656"><ele>604.0</ele><time>2026-04-19T08:38:30Z</time></trkpt><trkpt lat="43.98141068291766" lon="12.054179115041803"><ele>605.0</ele><time>2026-04-19T08:38:31Z</time></trkpt><trkpt lat="43.98128237902447" lon="12.054135826606899"><ele>606.0</ele><time>2026-04-19T08:38:32Z</time></trkpt><trkpt lat="43.98116520993375" lon="12.05407788137955"><ele>604.0</ele><time>2026-04-19T08:38:33Z</time></trkpt><trkpt lat="43.9810537135917" lon="12.05406545367522"><ele>602.0</ele><time>2026-04-19T08:38:34Z</time></trkpt><trkpt lat="43.980943577039774" lon="12.054081910684133"><ele>600.0</ele><time>2026-04-19T08:38:35Z</time></trkpt><trkpt lat="43.98084878723741" lon="12.054061790553126"><ele>598.0</ele><time>2026-04-19T08:38:36Z</time></trkpt><trkpt lat="43.98073345805075" lon="12.054037192221925"><ele>596.0</ele><time>2026-04-19T08:38:37Z</time></trkpt><trkpt lat="43.98064513143553" lon="12.054006698551534"><ele>596.0</ele><time>2026-04-19T08:38:38Z</time></trkpt><trkpt lat="43.980573636586286" lon="12.053990522418486"><ele>596.0</ele><time>2026-04-19T08:38:39Z</time></trkpt><trkpt lat="43.98049999810637" lon="12.054007007570304"><ele>596.0</ele><time>2026-04-19T08:38:47Z</time></trkpt><trkpt lat="43.98044434676417" lon="12.05406586668238"><ele>596.0</ele><time>2026-04-19T08:38:53Z</time></trkpt><trkpt lat="43.98037495331069" lon="12.054120062118418"><ele>596.0</ele><time>2026-04-19T08:39:30Z</time></trkpt><trkpt lat="43.98043670696742" lon="12.054055742297674"><ele>596.0</ele><time>2026-04-19T08:39:43Z</time></trkpt><trkpt lat="43.980487566151275" lon="12.053988350294775"><ele>596.0</ele><time>2026-04-19T08:39:45Z</time></trkpt><trkpt lat="43.98052288626624" lon="12.053863105150276"><ele>596.0</ele><time>2026-04-19T08:39:48Z</time></trkpt><trkpt lat="43.98055627091855" lon="12.053776509639992"><ele>596.0</ele><time>2026-04-19T08:39:50Z</time></trkpt><trkpt lat="43.98061500385599" lon="12.053702492546375"><ele>596.0</ele><time>2026-04-19T08:39:52Z</time></trkpt><trkpt lat="43.98067075555943" lon="12.053576742014567"><ele>596.0</ele><time>2026-04-19T08:39:54Z</time></trkpt><trkpt lat="43.9807313529375" lon="12.0534220392402"><ele>596.0</ele><time>2026-04-19T08:39:56Z</time></trkpt><trkpt lat="43.980759230764505" lon="12.053335857807687"><ele>595.1666666666666</ele><time>2026-04-19T08:39:57Z</time></trkpt><trkpt lat="43.98076088005261" lon="12.05322882790777"><ele>594.3333333333333</ele><time>2026-04-19T08:39:58Z</time></trkpt><trkpt lat="43.980762729412476" lon="12.053124378932372"><ele>593.5</ele><time>2026-04-19T08:39:59Z</time></trkpt><trkpt lat="43.98076918909192" lon="12.05302072644298"><ele>592.6666666666666</ele><time>2026-04-19T08:40:00Z</time></trkpt><trkpt lat="43.98077959076757" lon="12.052931461153705"><ele>591.8333333333334</ele><time>2026-04-19T08:40:01Z</time></trkpt><trkpt lat="43.98090427791077" lon="12.052825428517858"><ele>591.0</ele><time>2026-04-19T08:40:03Z</time></trkpt><trkpt lat="43.9809724958797" lon="12.052773875981382"><ele>595.0</ele><time>2026-04-19T08:40:04Z</time></trkpt><trkpt lat="43.981075148544086" lon="12.05268959071021"><ele>599.0</ele><time>2026-04-19T08:40:06Z</time></trkpt><trkpt lat="43.98113718953244" lon="12.05263012447051"><ele>603.0</ele><time>2026-04-19T08:40:07Z</time></trkpt><trkpt lat="43.981176666578484" lon="12.052538396862195"><ele>607.0</ele><time>2026-04-19T08:40:08Z</time></trkpt><trkpt lat="43.98122192929719" lon="12.05244386843294"><ele>611.0</ele><time>2026-04-19T08:40:09Z</time></trkpt><trkpt lat="43.981261480614414" lon="12.052367241780395"><ele>615.0</ele><time>2026-04-19T08:40:10Z</time></trkpt><trkpt lat="43.98130352426643" lon="12.05229022476002"><ele>616.1666666666666</ele><time>2026-04-19T08:40:11Z</time></trkpt><trkpt lat="43.981342125840065" lon="12.052177803913231"><ele>617.3333333333334</ele><time>2026-04-19T08:40:12Z</time></trkpt><trkpt lat="43.98137248177642" lon="12.052059349947873"><ele>618.5</ele><time>2026-04-19T08:40:13Z</time></trkpt><trkpt lat="43.98141457026207" lon="12.051976342941028"><ele>619.6666666666667</ele><time>2026-04-19T08:40:14Z</time></trkpt><trkpt lat="43.98148578630239" lon="12.051945980982978"><ele>620.8333333333334</ele><time>2026-04-19T08:40:15Z</time></trkpt><trkpt lat="43.98156435359174" lon="12.051923056267684"><ele>622.0</ele><time>2026-04-19T08:40:16Z</time></trkpt><trkpt lat="43.981635614546654" lon="12.05187238100894"><ele>620.5</ele><time>2026-04-19T08:40:18Z</time></trkpt><trkpt lat="43.981722813997784" lon="12.051762681737978"><ele>619.0</ele><time>2026-04-19T08:40:20Z</time></trkpt><trkpt lat="43.98177368458788" lon="12.051679252613356"><ele>617.5</ele><time>2026-04-19T08:40:21Z</time></trkpt><trkpt lat="43.98181349078164" lon="12.051584982307558"><ele>616.0</ele><time>2026-04-19T08:40:22Z</time></trkpt><trkpt lat="43.981838842520425" lon="12.05148286427249"><ele>614.5</ele><time>2026-04-19T08:40:23Z</time></trkpt><trkpt lat="43.9818895573691" lon="12.051412861795042"><ele>613.0</ele><time>2026-04-19T08:40:24Z</time></trkpt><trkpt lat="43.9819532563302" lon="12.051356502603552"><ele>617.6666666666667</ele><time>2026-04-19T08:40:25Z</time></trkpt><trkpt lat="43.982028845325615" lon="12.051316734855295"><ele>622.3333333333334</ele><time>2026-04-19T08:40:26Z</time></trkpt><trkpt lat="43.98210697327737" lon="12.05127505088579"><ele>627.0</ele><time>2026-04-19T08:40:27Z</time></trkpt><trkpt lat="43.98217261638435" lon="12.051262556062417"><ele>631.6666666666666</ele><time>2026-04-19T08:40:28Z</time></trkpt><trkpt lat="43.982239554554674" lon="12.051132123571033"><ele>636.3333333333333</ele><time>2026-04-19T08:40:30Z</time></trkpt><trkpt lat="43.98223597025865" lon="12.051038040140986"><ele>641.0</ele><time>2026-04-19T08:40:31Z</time></trkpt><trkpt lat="43.982221974474335" lon="12.050914699285839"><ele>641.0</ele><time>2026-04-19T08:40:32Z</time></trkpt><trkpt lat="43.98225125758031" lon="12.050809340200454"><ele>641.0</ele><time>2026-04-19T08:40:33Z</time></trkpt><trkpt lat="43.982305693912735" lon="12.050706251432684"><ele>641.0</ele><time>2026-04-19T08:40:34Z</time></trkpt><trkpt lat="43.98237948297761" lon="12.050653189873945"><ele>641.0</ele><time>2026-04-19T08:40:35Z</time></trkpt><trkpt lat="43.98245957222256" lon="12.050646731314874"><ele>641.0</ele><time>2026-04-19T08:40:36Z</time></trkpt><trkpt lat="43.982549639004006" lon="12.05066075621238"><ele>641.0</ele><time>2026-04-19T08:40:37Z</time></trkpt><trkpt lat="43.982661039818865" lon="12.05069010275583"><ele>638.1999999999999</ele><time>2026-04-19T08:40:38Z</time></trkpt><trkpt lat="43.98274724538233" lon="12.050747845040146"><ele>635.4</ele><time>2026-04-19T08:40:39Z</time></trkpt><trkpt lat="43.98282744786966" lon="12.050739342137156"><ele>632.6</ele><time>2026-04-19T08:40:41Z</time></trkpt><trkpt lat="43.982840428189256" lon="12.05063162593457"><ele>629.8</ele><time>2026-04-19T08:40:42Z</time></trkpt><trkpt lat="43.98283538102736" lon="12.050497165102822"><ele>627.0</ele><time>2026-04-19T08:40:43Z</time></trkpt><trkpt lat="43.982866178357945" lon="12.05035621720324"><ele>627.0</ele><time>2026-04-19T08:40:44Z</time></trkpt><trkpt lat="43.982914237513114" lon="12.050258397382876"><ele>627.0</ele><time>2026-04-19T08:40:45Z</time></trkpt><trkpt lat="43.98298245633648" lon="12.050162554466759"><ele>627.0</ele><time>2026-04-19T08:40:46Z</time></trkpt><trkpt lat="43.983032244858016" lon="12.050063452844139"><ele>627.0</ele><time>2026-04-19T08:40:47Z</time></trkpt><trkpt lat="43.98306384219243" lon="12.04998746426949"><ele>627.0</ele><time>2026-04-19T08:40:48Z</time></trkpt><trkpt lat="43.98311075210884" lon="12.04989815149495"><ele>627.0</ele><time>2026-04-19T08:40:49Z</time></trkpt><trkpt lat="43.98319172819687" lon="12.049798610303336"><ele>625.2</ele><time>2026-04-19T08:40:51Z</time></trkpt><trkpt lat="43.98331967271212" lon="12.04983271652596"><ele>623.4000000000001</ele><time>2026-04-19T08:40:53Z</time></trkpt><trkpt lat="43.98340016857827" lon="12.04982179459636"><ele>621.5999999999999</ele><time>2026-04-19T08:40:55Z</time></trkpt><trkpt lat="43.98331922893013" lon="12.049757666371141"><ele>619.8</ele><time>2026-04-19T08:40:58Z</time></trkpt><trkpt lat="43.98324089350535" lon="12.049768312856056"><ele>618.0</ele><time>2026-04-19T08:40:59Z</time></trkpt><trkpt lat="43.98317014272587" lon="12.049761935390768"><ele>618.0</ele><time>2026-04-19T08:41:00Z</time></trkpt><trkpt lat="43.98309765742478" lon="12.04974177595472"><ele>618.0</ele><time>2026-04-19T08:41:01Z</time></trkpt><trkpt lat="43.98300577882248" lon="12.04971237604505"><ele>618.0</ele><time>2026-04-19T08:41:02Z</time></trkpt><trkpt lat="43.98291082052672" lon="12.049683735780027"><ele>618.0</ele><time>2026-04-19T08:41:03Z</time></trkpt><trkpt lat="43.98281666820062" lon="12.049658100564047"><ele>618.0</ele><time>2026-04-19T08:41:04Z</time></trkpt><trkpt lat="43.98272136371274" lon="12.049636951045906"><ele>618.0</ele><time>2026-04-19T08:41:05Z</time></trkpt><trkpt lat="43.982626239078584" lon="12.04959980105121"><ele>618.0</ele><time>2026-04-19T08:41:06Z</time></trkpt><trkpt lat="43.98253426023284" lon="12.049545426909132"><ele>618.0</ele><time>2026-04-19T08:41:07Z</time></trkpt><trkpt lat="43.98244119855751" lon="12.049492619666395"><ele>618.0</ele><time>2026-04-19T08:41:08Z</time></trkpt><trkpt lat="43.98234869678452" lon="12.049444193998198"><ele>618.0</ele><time>2026-04-19T08:41:09Z</time></trkpt><trkpt lat="43.982258056609325" lon="12.049392335826852"><ele>616.1999999999999</ele><time>2026-04-19T08:41:10Z</time></trkpt><trkpt lat="43.98216386878109" lon="12.049340771005356"><ele>614.4</ele><time>2026-04-19T08:41:11Z</time></trkpt><trkpt lat="43.98206107669172" lon="12.049286508152392"><ele>612.5999999999999</ele><time>2026-04-19T08:41:12Z</time></trkpt><trkpt lat="43.981956789979186" lon="12.049217253327852"><ele>610.8</ele><time>2026-04-19T08:41:13Z</time></trkpt><trkpt lat="43.98185928004991" lon="12.04914774598731"><ele>609.0</ele><time>2026-04-19T08:41:14Z</time></trkpt><trkpt lat="43.981778658794845" lon="12.049075329291476"><ele>609.0</ele><time>2026-04-19T08:41:15Z</time></trkpt><trkpt lat="43.98171553202026" lon="12.048983318001198"><ele>609.0</ele><time>2026-04-19T08:41:16Z</time></trkpt><trkpt lat="43.98166009801874" lon="12.048866137111176"><ele>609.0</ele><time>2026-04-19T08:41:17Z</time></trkpt><trkpt lat="43.9815924190933" lon="12.048738603847958"><ele>609.0</ele><time>2026-04-19T08:41:18Z</time></trkpt><trkpt lat="43.98152574135661" lon="12.048608909255966"><ele>609.0</ele><time>2026-04-19T08:41:19Z</time></trkpt><trkpt lat="43.98147210659381" lon="12.048509226687452"><ele>616.4</ele><time>2026-04-19T08:41:20Z</time></trkpt><trkpt lat="43.98140959808598" lon="12.048418521123482"><ele>623.8</ele><time>2026-04-19T08:41:21Z</time></trkpt><trkpt lat="43.98133737880875" lon="12.04832750629293"><ele>631.1999999999999</ele><time>2026-04-19T08:41:22Z</time></trkpt><trkpt lat="43.981248765388116" lon="12.048233223491547"><ele>638.5999999999999</ele><time>2026-04-19T08:41:23Z</time></trkpt><trkpt lat="43.9811505101645" lon="12.048129895619654"><ele>646.0</ele><time>2026-04-19T08:41:24Z</time></trkpt><trkpt lat="43.98104458404914" lon="12.048023064365822"><ele>646.0</ele><time>2026-04-19T08:41:25Z</time></trkpt><trkpt lat="43.98094310602883" lon="12.04790398982406"><ele>646.0</ele><time>2026-04-19T08:41:26Z</time></trkpt><trkpt lat="43.98085215265473" lon="12.047769887783605"><ele>646.0</ele><time>2026-04-19T08:41:27Z</time></trkpt><trkpt lat="43.98079180124271" lon="12.047608257498254"><ele>646.0</ele><time>2026-04-19T08:41:28Z</time></trkpt><trkpt lat="43.9807504121117" lon="12.047421639992079"><ele>649.5</ele><time>2026-04-19T08:41:29Z</time></trkpt><trkpt lat="43.9807321804846" lon="12.047205641512157"><ele>653.0</ele><time>2026-04-19T08:41:30Z</time></trkpt><trkpt lat="43.98071680456591" lon="12.047000426606898"><ele>656.5</ele><time>2026-04-19T08:41:31Z</time></trkpt><trkpt lat="43.98066103846843" lon="12.04681698112413"><ele>660.0</ele><time>2026-04-19T08:41:32Z</time></trkpt><trkpt lat="43.98056021550771" lon="12.0466641669551"><ele>661.6666666666666</ele><time>2026-04-19T08:41:33Z</time></trkpt><trkpt lat="43.98043011724372" lon="12.046529077138208"><ele>663.3333333333333</ele><time>2026-04-19T08:41:34Z</time></trkpt><trkpt lat="43.9803015638777" lon="12.046418571820181"><ele>665.0</ele><time>2026-04-19T08:41:35Z</time></trkpt><trkpt lat="43.98018570802822" lon="12.046305865715148"><ele>665.0</ele><time>2026-04-19T08:41:36Z</time></trkpt><trkpt lat="43.98008311469187" lon="12.046143717127103"><ele>665.0</ele><time>2026-04-19T08:41:37Z</time></trkpt><trkpt lat="43.98000177457239" lon="12.045954779258935"><ele>665.0</ele><time>2026-04-19T08:41:38Z</time></trkpt><trkpt lat="43.97994611784045" lon="12.045758510887351"><ele>658.3333333333333</ele><time>2026-04-19T08:41:39Z</time></trkpt><trkpt lat="43.979881965842765" lon="12.04556434647296"><ele>651.6666666666666</ele><time>2026-04-19T08:41:40Z</time></trkpt><trkpt lat="43.97981917246732" lon="12.045370210720902"><ele>645.0</ele><time>2026-04-19T08:41:41Z</time></trkpt><trkpt lat="43.97975744813047" lon="12.045181936959853"><ele>645.0</ele><time>2026-04-19T08:41:42Z</time></trkpt><trkpt lat="43.97970073495533" lon="12.045001587503886"><ele>645.0</ele><time>2026-04-19T08:41:43Z</time></trkpt><trkpt lat="43.97964468138271" lon="12.044829199649586"><ele>645.0</ele><time>2026-04-19T08:41:44Z</time></trkpt><trkpt lat="43.9795790783795" lon="12.044667687234607"><ele>645.0</ele><time>2026-04-19T08:41:45Z</time></trkpt><trkpt lat="43.979498427376605" lon="12.044536073152537"><ele>646.75</ele><time>2026-04-19T08:41:46Z</time></trkpt><trkpt lat="43.979395325362155" lon="12.044441874482267"><ele>648.5</ele><time>2026-04-19T08:41:47Z</time></trkpt><trkpt lat="43.97927501680945" lon="12.044380884534096"><ele>650.25</ele><time>2026-04-19T08:41:48Z</time></trkpt><trkpt lat="43.9791570869153" lon="12.044353988115457"><ele>652.0</ele><time>2026-04-19T08:41:49Z</time></trkpt><trkpt lat="43.97904868180382" lon="12.044352713427694"><ele>645.2</ele><time>2026-04-19T08:41:50Z</time></trkpt><trkpt lat="43.978952557163424" lon="12.044343024195479"><ele>638.4000000000001</ele><time>2026-04-19T08:41:51Z</time></trkpt><trkpt lat="43.9788917251253" lon="12.0442723336713"><ele>631.5999999999999</ele><time>2026-04-19T08:41:52Z</time></trkpt><trkpt lat="43.9788619777255" lon="12.044147792839226"><ele>624.8</ele><time>2026-04-19T08:41:53Z</time></trkpt><trkpt lat="43.978898127025744" lon="12.0439951077994"><ele>618.0</ele><time>2026-04-19T08:41:54Z</time></trkpt><trkpt lat="43.97890641010322" lon="12.043822781303117"><ele>617.0</ele><time>2026-04-19T08:41:55Z</time></trkpt><trkpt lat="43.978928402452865" lon="12.043624339386996"><ele>616.0</ele><time>2026-04-19T08:41:56Z</time></trkpt><trkpt lat="43.97895167792451" lon="12.043427937284786"><ele>615.0</ele><time>2026-04-19T08:41:57Z</time></trkpt><trkpt lat="43.97896411959023" lon="12.04320353649866"><ele>613.0</ele><time>2026-04-19T08:41:58Z</time></trkpt><trkpt lat="43.978969580639905" lon="12.04296929032291"><ele>611.0</ele><time>2026-04-19T08:41:59Z</time></trkpt><trkpt lat="43.978988690599806" lon="12.042746787515627"><ele>609.0</ele><time>2026-04-19T08:42:00Z</time></trkpt><trkpt lat="43.97900597607518" lon="12.042522569689723"><ele>604.6666666666666</ele><time>2026-04-19T08:42:01Z</time></trkpt><trkpt lat="43.97902045722742" lon="12.04229871204256"><ele>600.3333333333333</ele><time>2026-04-19T08:42:02Z</time></trkpt><trkpt lat="43.979040728964975" lon="12.042086083006845"><ele>596.0</ele><time>2026-04-19T08:42:03Z</time></trkpt><trkpt lat="43.97905880576029" lon="12.041891810825833"><ele>596.0</ele><time>2026-04-19T08:42:04Z</time></trkpt><trkpt lat="43.979070401604304" lon="12.04172222626124"><ele>596.0</ele><time>2026-04-19T08:42:05Z</time></trkpt><trkpt lat="43.97906359517643" lon="12.041596008467456"><ele>596.0</ele><time>2026-04-19T08:42:06Z</time></trkpt><trkpt lat="43.97902613346969" lon="12.041489874910088"><ele>596.0</ele><time>2026-04-19T08:42:07Z</time></trkpt><trkpt lat="43.978949496749266" lon="12.041397537922116"><ele>596.0</ele><time>2026-04-19T08:42:08Z</time></trkpt><trkpt lat="43.97884104453302" lon="12.041323793137325"><ele>593.0</ele><time>2026-04-19T08:42:09Z</time></trkpt><trkpt lat="43.97875465449852" lon="12.041253398902636"><ele>590.0</ele><time>2026-04-19T08:42:10Z</time></trkpt><trkpt lat="43.978688918682025" lon="12.04112425567803"><ele>587.0</ele><time>2026-04-19T08:42:11Z</time></trkpt><trkpt lat="43.97865695214471" lon="12.040945887839705"><ele>584.0</ele><time>2026-04-19T08:42:12Z</time></trkpt><trkpt lat="43.978564795377416" lon="12.040758828350608"><ele>580.5</ele><time>2026-04-19T08:42:13Z</time></trkpt><trkpt lat="43.978503458908726" lon="12.040618051436262"><ele>577.0</ele><time>2026-04-19T08:42:14Z</time></trkpt><trkpt lat="43.97845139025783" lon="12.040477698501558"><ele>573.5</ele><time>2026-04-19T08:42:15Z</time></trkpt><trkpt lat="43.97840719146755" lon="12.040337205531053"><ele>570.0</ele><time>2026-04-19T08:42:16Z</time></trkpt><trkpt lat="43.97836678715122" lon="12.040190196277502"><ele>573.0</ele><time>2026-04-19T08:42:17Z</time></trkpt><trkpt lat="43.97832431291696" lon="12.040031509532136"><ele>576.0</ele><time>2026-04-19T08:42:18Z</time></trkpt><trkpt lat="43.978280795933976" lon="12.039869917888367"><ele>579.0</ele><time>2026-04-19T08:42:19Z</time></trkpt><trkpt lat="43.97821494108773" lon="12.039690585664223"><ele>582.0</ele><time>2026-04-19T08:42:20Z</time></trkpt><trkpt lat="43.978174264964665" lon="12.039487009335827"><ele>582.0</ele><time>2026-04-19T08:42:21Z</time></trkpt><trkpt lat="43.97810660284185" lon="12.039294924425615"><ele>582.0</ele><time>2026-04-19T08:42:22Z</time></trkpt><trkpt lat="43.97806190319661" lon="12.039104513560282"><ele>582.0</ele><time>2026-04-19T08:42:23Z</time></trkpt><trkpt lat="43.97801350384031" lon="12.038920826522329"><ele>582.0</ele><time>2026-04-19T08:42:24Z</time></trkpt><trkpt lat="43.97797174847083" lon="12.0387475786337"><ele>582.0</ele><time>2026-04-19T08:42:25Z</time></trkpt><trkpt lat="43.97792801416219" lon="12.038586655752944"><ele>582.0</ele><time>2026-04-19T08:42:26Z</time></trkpt><trkpt lat="43.97788180708648" lon="12.038452644736338"><ele>582.0</ele><time>2026-04-19T08:42:27Z</time></trkpt><trkpt lat="43.97785317076825" lon="12.038324322087565"><ele>582.0</ele><time>2026-04-19T08:42:28Z</time></trkpt><trkpt lat="43.97780346688231" lon="12.03822681691771"><ele>582.0</ele><time>2026-04-19T08:42:29Z</time></trkpt><trkpt lat="43.977785991495544" lon="12.038141935932819"><ele>582.0</ele><time>2026-04-19T08:42:30Z</time></trkpt><trkpt lat="43.97771459274988" lon="12.038036584722835"><ele>582.0</ele><time>2026-04-19T08:42:32Z</time></trkpt><trkpt lat="43.97783201685407" lon="12.037794691098993"><ele>582.0</ele><time>2026-04-19T08:42:33Z</time></trkpt><trkpt lat="43.97784867581619" lon="12.037658579417393"><ele>582.0</ele><time>2026-04-19T08:42:34Z</time></trkpt><trkpt lat="43.977847061831675" lon="12.037527365617354"><ele>583.2</ele><time>2026-04-19T08:42:35Z</time></trkpt><trkpt lat="43.977806919993974" lon="12.037423345095384"><ele>584.4000000000001</ele><time>2026-04-19T08:42:36Z</time></trkpt><trkpt lat="43.977758703783934" lon="12.037318673325476"><ele>585.5999999999999</ele><time>2026-04-19T08:42:37Z</time></trkpt><trkpt lat="43.977691733132865" lon="12.037195707196702"><ele>586.8</ele><time>2026-04-19T08:42:38Z</time></trkpt><trkpt lat="43.977636019754705" lon="12.037080552263756"><ele>588.0</ele><time>2026-04-19T08:42:39Z</time></trkpt><trkpt lat="43.97761601878564" lon="12.036951969708303"><ele>588.0</ele><time>2026-04-19T08:42:40Z</time></trkpt><trkpt lat="43.977575869451414" lon="12.036835222844168"><ele>588.0</ele><time>2026-04-19T08:42:41Z</time></trkpt><trkpt lat="43.97754152822319" lon="12.036729481593179"><ele>588.0</ele><time>2026-04-19T08:42:42Z</time></trkpt><trkpt lat="43.97751730726384" lon="12.036602576314106"><ele>588.0</ele><time>2026-04-19T08:42:43Z</time></trkpt><trkpt lat="43.97748256138665" lon="12.0365023910627"><ele>588.0</ele><time>2026-04-19T08:42:44Z</time></trkpt><trkpt lat="43.97749163304211" lon="12.036400954619259"><ele>588.0</ele><time>2026-04-19T08:42:45Z</time></trkpt><trkpt lat="43.97752446102324" lon="12.036302035358576"><ele>591.6</ele><time>2026-04-19T08:42:46Z</time></trkpt><trkpt lat="43.97758575392071" lon="12.036206017536127"><ele>595.1999999999999</ele><time>2026-04-19T08:42:47Z</time></trkpt><trkpt lat="43.97760265733586" lon="12.036080541796494"><ele>598.8</ele><time>2026-04-19T08:42:48Z</time></trkpt><trkpt lat="43.97761825868486" lon="12.03598754922133"><ele>602.4</ele><time>2026-04-19T08:42:49Z</time></trkpt><trkpt lat="43.97773676241446" lon="12.03592460654636"><ele>606.0</ele><time>2026-04-19T08:42:51Z</time></trkpt><trkpt lat="43.97785512343525" lon="12.03587439862425"><ele>606.0</ele><time>2026-04-19T08:42:53Z</time></trkpt><trkpt lat="43.97791995034257" lon="12.035830659217373"><ele>606.0</ele><time>2026-04-19T08:42:54Z</time></trkpt><trkpt lat="43.97797470414998" lon="12.035752719660454"><ele>606.0</ele><time>2026-04-19T08:42:55Z</time></trkpt><trkpt lat="43.97800160302949" lon="12.035662714533215"><ele>606.0</ele><time>2026-04-19T08:42:56Z</time></trkpt><trkpt lat="43.97800872949911" lon="12.035520818896964"><ele>606.0</ele><time>2026-04-19T08:42:57Z</time></trkpt><trkpt lat="43.97802284170954" lon="12.035371549855817"><ele>606.0</ele><time>2026-04-19T08:42:58Z</time></trkpt><trkpt lat="43.978048198665014" lon="12.03525414886521"><ele>610.1666666666666</ele><time>2026-04-19T08:42:59Z</time></trkpt><trkpt lat="43.97809831822218" lon="12.035163301437224"><ele>614.3333333333334</ele><time>2026-04-19T08:43:00Z</time></trkpt><trkpt lat="43.97815967004858" lon="12.035085581023907"><ele>618.5</ele><time>2026-04-19T08:43:01Z</time></trkpt><trkpt lat="43.978207448554066" lon="12.03499064318451"><ele>622.6666666666667</ele><time>2026-04-19T08:43:02Z</time></trkpt><trkpt lat="43.978225251777424" lon="12.034867400886611"><ele>626.8333333333334</ele><time>2026-04-19T08:43:03Z</time></trkpt><trkpt lat="43.97821151256606" lon="12.03473458754729"><ele>631.0</ele><time>2026-04-19T08:43:04Z</time></trkpt><trkpt lat="43.97816747951415" lon="12.034587753733131"><ele>633.0</ele><time>2026-04-19T08:43:05Z</time></trkpt><trkpt lat="43.978161843698" lon="12.034454984675527"><ele>635.0</ele><time>2026-04-19T08:43:06Z</time></trkpt><trkpt lat="43.978187279947136" lon="12.034339792489815"><ele>637.0</ele><time>2026-04-19T08:43:07Z</time></trkpt><trkpt lat="43.97823030044478" lon="12.034242777838845"><ele>639.0</ele><time>2026-04-19T08:43:08Z</time></trkpt><trkpt lat="43.97829298508105" lon="12.034146007679801"><ele>641.0</ele><time>2026-04-19T08:43:09Z</time></trkpt><trkpt lat="43.97833084232924" lon="12.034024726985646"><ele>641.4</ele><time>2026-04-19T08:43:10Z</time></trkpt><trkpt lat="43.97834324507046" lon="12.033881184145182"><ele>641.8</ele><time>2026-04-19T08:43:11Z</time></trkpt><trkpt lat="43.97836021982691" lon="12.033742682372393"><ele>642.1999999999999</ele><time>2026-04-19T08:43:12Z</time></trkpt><trkpt lat="43.97836333419615" lon="12.033612553547322"><ele>642.5999999999999</ele><time>2026-04-19T08:43:13Z</time></trkpt><trkpt lat="43.9783666274858" lon="12.03350484756342"><ele>643.0</ele><time>2026-04-19T08:43:14Z</time></trkpt><trkpt lat="43.97835013536746" lon="12.033398544910568"><ele>643.0</ele><time>2026-04-19T08:43:15Z</time></trkpt><trkpt lat="43.97830499100754" lon="12.033309767307285"><ele>643.0</ele><time>2026-04-19T08:43:16Z</time></trkpt><trkpt lat="43.978243206689996" lon="12.033262526853825"><ele>643.0</ele><time>2026-04-19T08:43:17Z</time></trkpt><trkpt lat="43.97818151694617" lon="12.033281758220262"><ele>643.0</ele><time>2026-04-19T08:43:18Z</time></trkpt><trkpt lat="43.97812337627979" lon="12.033360890393661"><ele>643.0</ele><time>2026-04-19T08:43:19Z</time></trkpt><trkpt lat="43.97806585643173" lon="12.033463366991578"><ele>643.0</ele><time>2026-04-19T08:43:20Z</time></trkpt><trkpt lat="43.97800219410318" lon="12.03354259358533"><ele>643.0</ele><time>2026-04-19T08:43:21Z</time></trkpt><trkpt lat="43.97791693733198" lon="12.033621974334125"><ele>643.0</ele><time>2026-04-19T08:43:22Z</time></trkpt><trkpt lat="43.97782517848619" lon="12.033695794715765"><ele>643.0</ele><time>2026-04-19T08:43:23Z</time></trkpt><trkpt lat="43.97774289717452" lon="12.033759703306623"><ele>643.0</ele><time>2026-04-19T08:43:24Z</time></trkpt><trkpt lat="43.97765787055668" lon="12.033816274243303"><ele>643.0</ele><time>2026-04-19T08:43:25Z</time></trkpt><trkpt lat="43.97759396638336" lon="12.03388276276968"><ele>643.0</ele><time>2026-04-19T08:43:26Z</time></trkpt><trkpt lat="43.97753335310702" lon="12.034009040685152"><ele>643.0</ele><time>2026-04-19T08:43:28Z</time></trkpt><trkpt lat="43.977467383537096" lon="12.033960889028569"><ele>643.0</ele><time>2026-04-19T08:43:30Z</time></trkpt><trkpt lat="43.97749781034841" lon="12.033784604815066"><ele>643.0</ele><time>2026-04-19T08:43:32Z</time></trkpt><trkpt lat="43.977574924785635" lon="12.03371692588727"><ele>643.0</ele><time>2026-04-19T08:43:33Z</time></trkpt><trkpt lat="43.97765392592443" lon="12.033622994846857"><ele>643.0</ele><time>2026-04-19T08:43:34Z</time></trkpt><trkpt lat="43.97774444775134" lon="12.033512795839751"><ele>643.0</ele><time>2026-04-19T08:43:35Z</time></trkpt><trkpt lat="43.977864985827885" lon="12.033421985326024"><ele>643.0</ele><time>2026-04-19T08:43:36Z</time></trkpt><trkpt lat="43.97796471999729" lon="12.033308046862269"><ele>643.0</ele><time>2026-04-19T08:43:37Z</time></trkpt><trkpt lat="43.97806401919435" lon="12.033174891378314"><ele>643.25</ele><time>2026-04-19T08:43:38Z</time></trkpt><trkpt lat="43.97815658290084" lon="12.033020429859361"><ele>643.5</ele><time>2026-04-19T08:43:39Z</time></trkpt><trkpt lat="43.97823041435211" lon="12.032846692414829"><ele>643.75</ele><time>2026-04-19T08:43:40Z</time></trkpt><trkpt lat="43.978277405929205" lon="12.03266013358788"><ele>644.0</ele><time>2026-04-19T08:43:41Z</time></trkpt><trkpt lat="43.97830381262529" lon="12.03246394577019"><ele>643.5</ele><time>2026-04-19T08:43:42Z</time></trkpt><trkpt lat="43.97832657189232" lon="12.032269325263426"><ele>643.0</ele><time>2026-04-19T08:43:43Z</time></trkpt><trkpt lat="43.97835166146071" lon="12.032068725603201"><ele>642.5</ele><time>2026-04-19T08:43:44Z</time></trkpt><trkpt lat="43.97837518058684" lon="12.031893135115347"><ele>642.0</ele><time>2026-04-19T08:43:45Z</time></trkpt><trkpt lat="43.97838835015684" lon="12.031719167585788"><ele>636.5</ele><time>2026-04-19T08:43:46Z</time></trkpt><trkpt lat="43.978419280028746" lon="12.03154683659376"><ele>631.0</ele><time>2026-04-19T08:43:47Z</time></trkpt><trkpt lat="43.978457748037805" lon="12.031381576068787"><ele>625.5</ele><time>2026-04-19T08:43:48Z</time></trkpt><trkpt lat="43.978479300785054" lon="12.031214992011238"><ele>620.0</ele><time>2026-04-19T08:43:49Z</time></trkpt><trkpt lat="43.97849959713514" lon="12.031036113578308"><ele>620.0</ele><time>2026-04-19T08:43:50Z</time></trkpt><trkpt lat="43.9785106058732" lon="12.030842205996297"><ele>620.0</ele><time>2026-04-19T08:43:51Z</time></trkpt><trkpt lat="43.97851265330418" lon="12.0306419299294"><ele>620.0</ele><time>2026-04-19T08:43:52Z</time></trkpt><trkpt lat="43.978511038047024" lon="12.030440842208508"><ele>620.0</ele><time>2026-04-19T08:43:53Z</time></trkpt><trkpt lat="43.97852496281154" lon="12.030234508731153"><ele>619.75</ele><time>2026-04-19T08:43:54Z</time></trkpt><trkpt lat="43.978547005360184" lon="12.030031864948722"><ele>619.5</ele><time>2026-04-19T08:43:55Z</time></trkpt><trkpt lat="43.978583305282925" lon="12.029851775525715"><ele>619.25</ele><time>2026-04-19T08:43:56Z</time></trkpt><trkpt lat="43.97864974989252" lon="12.02966028041515"><ele>619.0</ele><time>2026-04-19T08:43:57Z</time></trkpt><trkpt lat="43.978716780055926" lon="12.029474061806495"><ele>620.25</ele><time>2026-04-19T08:43:58Z</time></trkpt><trkpt lat="43.978782716944906" lon="12.029295323977381"><ele>621.5</ele><time>2026-04-19T08:43:59Z</time></trkpt><trkpt lat="43.978841596537315" lon="12.029118013015252"><ele>622.75</ele><time>2026-04-19T08:44:00Z</time></trkpt><trkpt lat="43.97888952598003" lon="12.028951265857305"><ele>624.0</ele><time>2026-04-19T08:44:01Z</time></trkpt><trkpt lat="43.978929040859036" lon="12.028793994126197"><ele>624.8333333333334</ele><time>2026-04-19T08:44:02Z</time></trkpt><trkpt lat="43.97896554122042" lon="12.02864746827552"><ele>625.6666666666666</ele><time>2026-04-19T08:44:03Z</time></trkpt><trkpt lat="43.97899649275606" lon="12.028516272175532"><ele>626.5</ele><time>2026-04-19T08:44:04Z</time></trkpt><trkpt lat="43.9790214072236" lon="12.0284042599501"><ele>627.3333333333333</ele><time>2026-04-19T08:44:05Z</time></trkpt><trkpt lat="43.97904551342544" lon="12.028304618548212"><ele>628.1666666666666</ele><time>2026-04-19T08:44:06Z</time></trkpt><trkpt lat="43.979063676208995" lon="12.028213329149773"><ele>629.0</ele><time>2026-04-19T08:44:07Z</time></trkpt><trkpt lat="43.97909867225065" lon="12.02808310749934"><ele>629.6</ele><time>2026-04-19T08:44:09Z</time></trkpt><trkpt lat="43.979115274648265" lon="12.027992969440241"><ele>630.2</ele><time>2026-04-19T08:44:12Z</time></trkpt><trkpt lat="43.97916437752162" lon="12.027922938654912"><ele>630.8000000000001</ele><time>2026-04-19T08:44:26Z</time></trkpt><trkpt lat="43.979282297851945" lon="12.027843389769753"><ele>631.4</ele><time>2026-04-19T08:44:28Z</time></trkpt><trkpt lat="43.979348692130394" lon="12.02775427418163"><ele>632.0</ele><time>2026-04-19T08:44:29Z</time></trkpt><trkpt lat="43.97941613977992" lon="12.027645153871653"><ele>632.0</ele><time>2026-04-19T08:44:30Z</time></trkpt><trkpt lat="43.97948533022579" lon="12.027506450425092"><ele>632.0</ele><time>2026-04-19T08:44:31Z</time></trkpt><trkpt lat="43.97956230063611" lon="12.027370306048294"><ele>632.0</ele><time>2026-04-19T08:44:32Z</time></trkpt><trkpt lat="43.97964554744431" lon="12.027283861844694"><ele>632.0</ele><time>2026-04-19T08:44:33Z</time></trkpt><trkpt lat="43.97975013058451" lon="12.02721363372143"><ele>633.5</ele><time>2026-04-19T08:44:34Z</time></trkpt><trkpt lat="43.979875431102215" lon="12.027187849030739"><ele>635.0</ele><time>2026-04-19T08:44:35Z</time></trkpt><trkpt lat="43.98000240393905" lon="12.02718323121824"><ele>636.5</ele><time>2026-04-19T08:44:36Z</time></trkpt><trkpt lat="43.980132083788035" lon="12.027171860128334"><ele>638.0</ele><time>2026-04-19T08:44:37Z</time></trkpt><trkpt lat="43.98027991793707" lon="12.02714563463913"><ele>638.0</ele><time>2026-04-19T08:44:38Z</time></trkpt><trkpt lat="43.98042725477859" lon="12.02713741132766"><ele>638.0</ele><time>2026-04-19T08:44:39Z</time></trkpt><trkpt lat="43.98058071550626" lon="12.027157506726942"><ele>638.0</ele><time>2026-04-19T08:44:40Z</time></trkpt><trkpt lat="43.98072104236948" lon="12.027187693838334"><ele>638.0</ele><time>2026-04-19T08:44:41Z</time></trkpt><trkpt lat="43.98085190539193" lon="12.027218029708402"><ele>635.75</ele><time>2026-04-19T08:44:42Z</time></trkpt><trkpt lat="43.980997389157096" lon="12.0272165329843"><ele>633.5</ele><time>2026-04-19T08:44:43Z</time></trkpt><trkpt lat="43.981144028629856" lon="12.02715588338723"><ele>631.25</ele><time>2026-04-19T08:44:44Z</time></trkpt><trkpt lat="43.9812749397044" lon="12.027091162284707"><ele>629.0</ele><time>2026-04-19T08:44:45Z</time></trkpt><trkpt lat="43.98140049864583" lon="12.02705085253105"><ele>629.0</ele><time>2026-04-19T08:44:46Z</time></trkpt><trkpt lat="43.98153050780232" lon="12.027023272435613"><ele>629.0</ele><time>2026-04-19T08:44:47Z</time></trkpt><trkpt lat="43.98165709049784" lon="12.027093136877234"><ele>629.0</ele><time>2026-04-19T08:44:48Z</time></trkpt><trkpt lat="43.98178353246263" lon="12.027133744170595"><ele>629.0</ele><time>2026-04-19T08:44:49Z</time></trkpt><trkpt lat="43.98191598651165" lon="12.02719946632551"><ele>628.5</ele><time>2026-04-19T08:44:50Z</time></trkpt><trkpt lat="43.98204372363005" lon="12.027277923568102"><ele>628.0</ele><time>2026-04-19T08:44:51Z</time></trkpt><trkpt lat="43.98217880356348" lon="12.027337522717298"><ele>627.5</ele><time>2026-04-19T08:44:52Z</time></trkpt><trkpt lat="43.982315911578766" lon="12.02739512385187"><ele>627.0</ele><time>2026-04-19T08:44:53Z</time></trkpt><trkpt lat="43.982457388833275" lon="12.027452532562267"><ele>629.75</ele><time>2026-04-19T08:44:54Z</time></trkpt><trkpt lat="43.98259643244719" lon="12.027501224005206"><ele>632.5</ele><time>2026-04-19T08:44:55Z</time></trkpt><trkpt lat="43.98272809888065" lon="12.027538514850312"><ele>635.25</ele><time>2026-04-19T08:44:56Z</time></trkpt><trkpt lat="43.98286240265141" lon="12.02757989425621"><ele>638.0</ele><time>2026-04-19T08:44:57Z</time></trkpt><trkpt lat="43.982982628779936" lon="12.027644915266423"><ele>638.0</ele><time>2026-04-19T08:44:58Z</time></trkpt><trkpt lat="43.983078683549664" lon="12.027747976390053"><ele>638.0</ele><time>2026-04-19T08:44:59Z</time></trkpt><trkpt lat="43.98317240145536" lon="12.02785263822088"><ele>638.0</ele><time>2026-04-19T08:45:00Z</time></trkpt><trkpt lat="43.98325827054828" lon="12.027937218880943"><ele>638.0</ele><time>2026-04-19T08:45:01Z</time></trkpt><trkpt lat="43.983361362845436" lon="12.027962360885859"><ele>635.0</ele><time>2026-04-19T08:45:02Z</time></trkpt><trkpt lat="43.98347512557283" lon="12.027935107109755"><ele>632.0</ele><time>2026-04-19T08:45:03Z</time></trkpt><trkpt lat="43.98359814811044" lon="12.027885295339386"><ele>629.0</ele><time>2026-04-19T08:45:04Z</time></trkpt><trkpt lat="43.9837219495415" lon="12.027800189446541"><ele>626.0</ele><time>2026-04-19T08:45:05Z</time></trkpt><trkpt lat="43.98382841555715" lon="12.027698169696606"><ele>626.0</ele><time>2026-04-19T08:45:06Z</time></trkpt><trkpt lat="43.98393743680793" lon="12.027618517632648"><ele>626.0</ele><time>2026-04-19T08:45:07Z</time></trkpt><trkpt lat="43.98405132772854" lon="12.027547215371289"><ele>626.0</ele><time>2026-04-19T08:45:08Z</time></trkpt><trkpt lat="43.98416887568866" lon="12.02748842009648"><ele>626.0</ele><time>2026-04-19T08:45:09Z</time></trkpt><trkpt lat="43.98429528184884" lon="12.02746334962938"><ele>624.5</ele><time>2026-04-19T08:45:10Z</time></trkpt><trkpt lat="43.98442883511614" lon="12.027475468570083"><ele>623.0</ele><time>2026-04-19T08:45:11Z</time></trkpt><trkpt lat="43.984563634376684" lon="12.027534131435976"><ele>621.5</ele><time>2026-04-19T08:45:12Z</time></trkpt><trkpt lat="43.984683418711896" lon="12.027590181973597"><ele>620.0</ele><time>2026-04-19T08:45:13Z</time></trkpt><trkpt lat="43.984816051575805" lon="12.027626692185697"><ele>620.0</ele><time>2026-04-19T08:45:14Z</time></trkpt><trkpt lat="43.984954172142835" lon="12.027659593449737"><ele>620.0</ele><time>2026-04-19T08:45:15Z</time></trkpt><trkpt lat="43.98508690864426" lon="12.027674828957199"><ele>620.0</ele><time>2026-04-19T08:45:16Z</time></trkpt><trkpt lat="43.985210320693454" lon="12.027711251598541"><ele>620.0</ele><time>2026-04-19T08:45:17Z</time></trkpt><trkpt lat="43.98534100747885" lon="12.027733963490743"><ele>620.75</ele><time>2026-04-19T08:45:18Z</time></trkpt><trkpt lat="43.98547686675968" lon="12.027750331517797"><ele>621.5</ele><time>2026-04-19T08:45:19Z</time></trkpt><trkpt lat="43.985612736519364" lon="12.027685943548983"><ele>622.25</ele><time>2026-04-19T08:45:20Z</time></trkpt><trkpt lat="43.98574590301359" lon="12.027631624077696"><ele>623.0</ele><time>2026-04-19T08:45:21Z</time></trkpt><trkpt lat="43.98587949599845" lon="12.027576744181172"><ele>621.0</ele><time>2026-04-19T08:45:22Z</time></trkpt><trkpt lat="43.98601068217406" lon="12.027531919497704"><ele>619.0</ele><time>2026-04-19T08:45:23Z</time></trkpt><trkpt lat="43.98613868010093" lon="12.027501947464202"><ele>617.0</ele><time>2026-04-19T08:45:24Z</time></trkpt><trkpt lat="43.98626419774825" lon="12.027478469631797"><ele>615.0</ele><time>2026-04-19T08:45:25Z</time></trkpt><trkpt lat="43.98638791113334" lon="12.027494556524104"><ele>615.0</ele><time>2026-04-19T08:45:26Z</time></trkpt><trkpt lat="43.986512837054256" lon="12.027499819968149"><ele>615.0</ele><time>2026-04-19T08:45:27Z</time></trkpt><trkpt lat="43.9866422679543" lon="12.027488586870634"><ele>615.0</ele><time>2026-04-19T08:45:28Z</time></trkpt><trkpt lat="43.98677241006591" lon="12.02750739636698"><ele>615.0</ele><time>2026-04-19T08:45:29Z</time></trkpt><trkpt lat="43.98690058176595" lon="12.027522850636409"><ele>612.25</ele><time>2026-04-19T08:45:30Z</time></trkpt><trkpt lat="43.987027102711714" lon="12.027541873542232"><ele>609.5</ele><time>2026-04-19T08:45:31Z</time></trkpt><trkpt lat="43.987156963556714" lon="12.027502507836344"><ele>606.75</ele><time>2026-04-19T08:45:32Z</time></trkpt><trkpt lat="43.98728159687586" lon="12.027434179269706"><ele>604.0</ele><time>2026-04-19T08:45:33Z</time></trkpt><trkpt lat="43.98739804058686" lon="12.027343870969817"><ele>603.0</ele><time>2026-04-19T08:45:34Z</time></trkpt><trkpt lat="43.98749832299403" lon="12.027217013584034"><ele>602.0</ele><time>2026-04-19T08:45:35Z</time></trkpt><trkpt lat="43.987585407919745" lon="12.027060114365884"><ele>601.0</ele><time>2026-04-19T08:45:36Z</time></trkpt><trkpt lat="43.987673508592586" lon="12.026921413373717"><ele>600.0</ele><time>2026-04-19T08:45:37Z</time></trkpt><trkpt lat="43.98777563991573" lon="12.026793880924117"><ele>600.0</ele><time>2026-04-19T08:45:38Z</time></trkpt><trkpt lat="43.98789183272325" lon="12.026696166127358"><ele>600.0</ele><time>2026-04-19T08:45:39Z</time></trkpt><trkpt lat="43.98802891057346" lon="12.026638917871855"><ele>600.0</ele><time>2026-04-19T08:45:40Z</time></trkpt><trkpt lat="43.98817436612531" lon="12.026582839222598"><ele>600.0</ele><time>2026-04-19T08:45:41Z</time></trkpt><trkpt lat="43.98831059972102" lon="12.026523647755822"><ele>602.0</ele><time>2026-04-19T08:45:42Z</time></trkpt><trkpt lat="43.98845180911161" lon="12.026470742457722"><ele>604.0</ele><time>2026-04-19T08:45:43Z</time></trkpt><trkpt lat="43.98859498861201" lon="12.026437993593408"><ele>606.0</ele><time>2026-04-19T08:45:44Z</time></trkpt><trkpt lat="43.98874038479047" lon="12.026422768306537"><ele>608.0</ele><time>2026-04-19T08:45:45Z</time></trkpt><trkpt lat="43.98887889051051" lon="12.026412394255388"><ele>608.0</ele><time>2026-04-19T08:45:46Z</time></trkpt><trkpt lat="43.98902479186454" lon="12.026390086816201"><ele>608.0</ele><time>2026-04-19T08:45:47Z</time></trkpt><trkpt lat="43.98916483976231" lon="12.02636668022203"><ele>608.0</ele><time>2026-04-19T08:45:48Z</time></trkpt><trkpt lat="43.98930632915888" lon="12.026345738755415"><ele>608.0</ele><time>2026-04-19T08:45:49Z</time></trkpt><trkpt lat="43.989449773823246" lon="12.026318007634409"><ele>609.25</ele><time>2026-04-19T08:45:50Z</time></trkpt><trkpt lat="43.989595328668464" lon="12.026293183947432"><ele>610.5</ele><time>2026-04-19T08:45:51Z</time></trkpt><trkpt lat="43.98973075894951" lon="12.026273179198087"><ele>611.75</ele><time>2026-04-19T08:45:52Z</time></trkpt><trkpt lat="43.98986925791657" lon="12.026251168430585"><ele>613.0</ele><time>2026-04-19T08:45:53Z</time></trkpt><trkpt lat="43.99001159369105" lon="12.026222122669932"><ele>610.25</ele><time>2026-04-19T08:45:54Z</time></trkpt><trkpt lat="43.99014641926402" lon="12.026193266545837"><ele>607.5</ele><time>2026-04-19T08:45:55Z</time></trkpt><trkpt lat="43.99027616003134" lon="12.026165840276226"><ele>604.75</ele><time>2026-04-19T08:45:56Z</time></trkpt><trkpt lat="43.99041049900684" lon="12.026149422136278"><ele>602.0</ele><time>2026-04-19T08:45:57Z</time></trkpt><trkpt lat="43.99054712115067" lon="12.02613079453841"><ele>602.0</ele><time>2026-04-19T08:45:58Z</time></trkpt><trkpt lat="43.99068344325728" lon="12.026116381976728"><ele>602.0</ele><time>2026-04-19T08:45:59Z</time></trkpt><trkpt lat="43.99081284029915" lon="12.026101259185683"><ele>602.0</ele><time>2026-04-19T08:46:00Z</time></trkpt><trkpt lat="43.99093986434018" lon="12.026091925309931"><ele>602.0</ele><time>2026-04-19T08:46:01Z</time></trkpt><trkpt lat="43.99106496575666" lon="12.026089335240593"><ele>598.75</ele><time>2026-04-19T08:46:02Z</time></trkpt><trkpt lat="43.99118998864165" lon="12.026109971544477"><ele>595.5</ele><time>2026-04-19T08:46:03Z</time></trkpt><trkpt lat="43.99131244130648" lon="12.026113772225235"><ele>592.25</ele><time>2026-04-19T08:46:04Z</time></trkpt><trkpt lat="43.99143448884251" lon="12.026115494662081"><ele>589.0</ele><time>2026-04-19T08:46:05Z</time></trkpt><trkpt lat="43.991542162691395" lon="12.026114672279608"><ele>589.0</ele><time>2026-04-19T08:46:06Z</time></trkpt><trkpt lat="43.99164213220435" lon="12.026113750022628"><ele>589.0</ele><time>2026-04-19T08:46:07Z</time></trkpt><trkpt lat="43.99174390740128" lon="12.026112698084939"><ele>589.0</ele><time>2026-04-19T08:46:08Z</time></trkpt><trkpt lat="43.99185218850435" lon="12.026111580743754"><ele>589.0</ele><time>2026-04-19T08:46:09Z</time></trkpt><trkpt lat="43.99195992568764" lon="12.026110467181098"><ele>589.0</ele><time>2026-04-19T08:46:10Z</time></trkpt><trkpt lat="43.992063532002994" lon="12.026111651051117"><ele>588.3333333333334</ele><time>2026-04-19T08:46:11Z</time></trkpt><trkpt lat="43.99215793077506" lon="12.026112955349415"><ele>587.6666666666667</ele><time>2026-04-19T08:46:12Z</time></trkpt><trkpt lat="43.99225286661761" lon="12.026114267065244"><ele>587.0</ele><time>2026-04-19T08:46:13Z</time></trkpt><trkpt lat="43.99234578669466" lon="12.026117283203664"><ele>586.3333333333334</ele><time>2026-04-19T08:46:14Z</time></trkpt><trkpt lat="43.99242517085767" lon="12.026119972144613"><ele>585.6666666666666</ele><time>2026-04-19T08:46:15Z</time></trkpt><trkpt lat="43.99248922471748" lon="12.026123896177934"><ele>585.0</ele><time>2026-04-19T08:46:16Z</time></trkpt><trkpt lat="43.9925524908026" lon="12.026129851078014"><ele>582.6</ele><time>2026-04-19T08:46:17Z</time></trkpt><trkpt lat="43.99268322022413" lon="12.026153590357385"><ele>580.2</ele><time>2026-04-19T08:46:19Z</time></trkpt><trkpt lat="43.99277337709193" lon="12.026181455305801"><ele>577.8</ele><time>2026-04-19T08:46:20Z</time></trkpt><trkpt lat="43.99287619242183" lon="12.026221228078226"><ele>575.4</ele><time>2026-04-19T08:46:21Z</time></trkpt><trkpt lat="43.99298774029872" lon="12.026268791040367"><ele>573.0</ele><time>2026-04-19T08:46:22Z</time></trkpt><trkpt lat="43.993093723787254" lon="12.026315485226224"><ele>573.0</ele><time>2026-04-19T08:46:23Z</time></trkpt><trkpt lat="43.99319709216434" lon="12.026361027247042"><ele>573.0</ele><time>2026-04-19T08:46:24Z</time></trkpt><trkpt lat="43.99329810349725" lon="12.026405530799288"><ele>573.0</ele><time>2026-04-19T08:46:25Z</time></trkpt><trkpt lat="43.993391699297405" lon="12.026445112408267"><ele>573.0</ele><time>2026-04-19T08:46:26Z</time></trkpt><trkpt lat="43.99347910705841" lon="12.026479869627916"><ele>573.0</ele><time>2026-04-19T08:46:27Z</time></trkpt><trkpt lat="43.99358719041284" lon="12.026506556440953"><ele>570.5</ele><time>2026-04-19T08:46:28Z</time></trkpt><trkpt lat="43.99371518581618" lon="12.026499661704339"><ele>568.0</ele><time>2026-04-19T08:46:29Z</time></trkpt><trkpt lat="43.99385153902867" lon="12.02644715565152"><ele>565.5</ele><time>2026-04-19T08:46:30Z</time></trkpt><trkpt lat="43.99396625759197" lon="12.026381370722858"><ele>563.0</ele><time>2026-04-19T08:46:31Z</time></trkpt><trkpt lat="43.9940637400973" lon="12.026325686217366"><ele>563.0</ele><time>2026-04-19T08:46:32Z</time></trkpt><trkpt lat="43.99415116276264" lon="12.026277080114374"><ele>563.0</ele><time>2026-04-19T08:46:33Z</time></trkpt><trkpt lat="43.9942370779529" lon="12.026230384850077"><ele>563.0</ele><time>2026-04-19T08:46:34Z</time></trkpt><trkpt lat="43.994311769786044" lon="12.026201529592427"><ele>563.0</ele><time>2026-04-19T08:46:35Z</time></trkpt><trkpt lat="43.99446016604003" lon="12.026176176072163"><ele>563.0</ele><time>2026-04-19T08:46:37Z</time></trkpt><trkpt lat="43.99489241939597" lon="12.025715147839096"><ele>556.4</ele><time>2026-04-19T08:46:47Z</time></trkpt><trkpt lat="43.99486220101606" lon="12.025589163636758"><ele>549.8</ele><time>2026-04-19T08:46:48Z</time></trkpt><trkpt lat="43.99481348013192" lon="12.025454372620226"><ele>543.2</ele><time>2026-04-19T08:46:49Z</time></trkpt><trkpt lat="43.99475497573211" lon="12.025347949611099"><ele>536.6</ele><time>2026-04-19T08:46:50Z</time></trkpt><trkpt lat="43.99468141724473" lon="12.025277344952721"><ele>530.0</ele><time>2026-04-19T08:46:51Z</time></trkpt><trkpt lat="43.99458650536838" lon="12.025267861596506"><ele>530.0</ele><time>2026-04-19T08:46:52Z</time></trkpt><trkpt lat="43.99448847407607" lon="12.025262256726341"><ele>530.0</ele><time>2026-04-19T08:46:53Z</time></trkpt><trkpt lat="43.99441758703556" lon="12.025256985249804"><ele>530.0</ele><time>2026-04-19T08:46:54Z</time></trkpt><trkpt lat="43.99435985921549" lon="12.02520721969647"><ele>530.0</ele><time>2026-04-19T08:46:55Z</time></trkpt><trkpt lat="43.99432927522479" lon="12.025095819294943"><ele>530.0</ele><time>2026-04-19T08:46:56Z</time></trkpt><trkpt lat="43.99430139380868" lon="12.024980615327989"><ele>530.0</ele><time>2026-04-19T08:46:57Z</time></trkpt><trkpt lat="43.994233743237594" lon="12.024843976677488"><ele>530.25</ele><time>2026-04-19T08:46:58Z</time></trkpt><trkpt lat="43.9941512653285" lon="12.024723190638097"><ele>530.5</ele><time>2026-04-19T08:46:59Z</time></trkpt><trkpt lat="43.99407752170854" lon="12.024576892119338"><ele>530.75</ele><time>2026-04-19T08:47:00Z</time></trkpt><trkpt lat="43.99397473508613" lon="12.024466723396497"><ele>531.0</ele><time>2026-04-19T08:47:01Z</time></trkpt><trkpt lat="43.99388769510802" lon="12.024362182936464"><ele>531.0</ele><time>2026-04-19T08:47:02Z</time></trkpt><trkpt lat="43.993823157257815" lon="12.024232254844392"><ele>531.0</ele><time>2026-04-19T08:47:03Z</time></trkpt><trkpt lat="43.993770612271625" lon="12.024088456527315"><ele>531.0</ele><time>2026-04-19T08:47:04Z</time></trkpt><trkpt lat="43.993724731861704" lon="12.023934466270232"><ele>531.0</ele><time>2026-04-19T08:47:05Z</time></trkpt><trkpt lat="43.99367935471844" lon="12.023768868239337"><ele>527.5</ele><time>2026-04-19T08:47:06Z</time></trkpt><trkpt lat="43.99364847636733" lon="12.023590658926873"><ele>524.0</ele><time>2026-04-19T08:47:07Z</time></trkpt><trkpt lat="43.993607372043805" lon="12.023441513441579"><ele>520.5</ele><time>2026-04-19T08:47:08Z</time></trkpt><trkpt lat="43.99359111262059" lon="12.023290407531503"><ele>517.0</ele><time>2026-04-19T08:47:09Z</time></trkpt><trkpt lat="43.99355791663977" lon="12.023169427951403"><ele>517.3333333333334</ele><time>2026-04-19T08:47:10Z</time></trkpt><trkpt lat="43.99352277272662" lon="12.02307000828108"><ele>517.6666666666667</ele><time>2026-04-19T08:47:11Z</time></trkpt><trkpt lat="43.9934510041487" lon="12.022984386509878"><ele>518.0</ele><time>2026-04-19T08:47:12Z</time></trkpt><trkpt lat="43.993384483620204" lon="12.022908064120214"><ele>518.3333333333334</ele><time>2026-04-19T08:47:13Z</time></trkpt><trkpt lat="43.993321378466646" lon="12.022834931822029"><ele>518.6666666666666</ele><time>2026-04-19T08:47:14Z</time></trkpt><trkpt lat="43.99323992235383" lon="12.022792766588672"><ele>519.0</ele><time>2026-04-19T08:47:15Z</time></trkpt><trkpt lat="43.99316744706331" lon="12.022761516599026"><ele>519.0</ele><time>2026-04-19T08:47:16Z</time></trkpt><trkpt lat="43.99304473345618" lon="12.02270573774986"><ele>519.0</ele><time>2026-04-19T08:47:18Z</time></trkpt><trkpt lat="43.99295707127486" lon="12.022724096351606"><ele>519.0</ele><time>2026-04-19T08:47:19Z</time></trkpt><trkpt lat="43.99287939686258" lon="12.022746353663935"><ele>519.0</ele><time>2026-04-19T08:47:20Z</time></trkpt><trkpt lat="43.99280347505329" lon="12.022725839375504"><ele>519.0</ele><time>2026-04-19T08:47:21Z</time></trkpt><trkpt lat="43.99270868576782" lon="12.02271128075403"><ele>519.0</ele><time>2026-04-19T08:47:22Z</time></trkpt><trkpt lat="43.992627977087324" lon="12.022698879925578"><ele>519.0</ele><time>2026-04-19T08:47:23Z</time></trkpt><trkpt lat="43.992563190103894" lon="12.022673900538587"><ele>519.0</ele><time>2026-04-19T08:47:24Z</time></trkpt><trkpt lat="43.99251237169228" lon="12.022595413461683"><ele>519.0</ele><time>2026-04-19T08:47:26Z</time></trkpt><trkpt lat="43.99263967192291" lon="12.022481921664967"><ele>519.0</ele><time>2026-04-19T08:47:28Z</time></trkpt><trkpt lat="43.99270506743641" lon="12.022372924407776"><ele>515.4</ele><time>2026-04-19T08:47:29Z</time></trkpt><trkpt lat="43.99274247218194" lon="12.02225704033325"><ele>511.79999999999995</ele><time>2026-04-19T08:47:30Z</time></trkpt><trkpt lat="43.9927544860694" lon="12.022114259230639"><ele>508.20000000000005</ele><time>2026-04-19T08:47:31Z</time></trkpt><trkpt lat="43.992765376205654" lon="12.021938617740012"><ele>504.6</ele><time>2026-04-19T08:47:32Z</time></trkpt><trkpt lat="43.99280993386333" lon="12.02179784681593"><ele>501.0</ele><time>2026-04-19T08:47:33Z</time></trkpt><trkpt lat="43.992859345482586" lon="12.021665160082105"><ele>497.0</ele><time>2026-04-19T08:47:34Z</time></trkpt><trkpt lat="43.9929204775439" lon="12.021526616382769"><ele>493.0</ele><time>2026-04-19T08:47:35Z</time></trkpt><trkpt lat="43.99298764235851" lon="12.02140153809553"><ele>489.0</ele><time>2026-04-19T08:47:36Z</time></trkpt><trkpt lat="43.99306573111368" lon="12.021294953122528"><ele>485.0</ele><time>2026-04-19T08:47:37Z</time></trkpt><trkpt lat="43.99315157602567" lon="12.021205373107426"><ele>481.0</ele><time>2026-04-19T08:47:38Z</time></trkpt><trkpt lat="43.993245296249256" lon="12.02113834256059"><ele>478.8</ele><time>2026-04-19T08:47:39Z</time></trkpt><trkpt lat="43.99334711581372" lon="12.021068694797265"><ele>476.6</ele><time>2026-04-19T08:47:40Z</time></trkpt><trkpt lat="43.99344585400354" lon="12.02101378297689"><ele>474.4</ele><time>2026-04-19T08:47:41Z</time></trkpt><trkpt lat="43.993555259396054" lon="12.020967249935266"><ele>472.2</ele><time>2026-04-19T08:47:42Z</time></trkpt><trkpt lat="43.993661933773396" lon="12.02091174133709"><ele>470.0</ele><time>2026-04-19T08:47:43Z</time></trkpt><trkpt lat="43.99373670987205" lon="12.02087190379082"><ele>469.99999999999994</ele><time>2026-04-19T08:47:44Z</time></trkpt><trkpt lat="43.99382567154557" lon="12.020924307966718"><ele>470.0</ele><time>2026-04-19T08:47:45Z</time></trkpt><trkpt lat="43.99390456560336" lon="12.020905603839486"><ele>470.0</ele><time>2026-04-19T08:47:46Z</time></trkpt><trkpt lat="43.993976648611834" lon="12.020872751948795"><ele>470.0</ele><time>2026-04-19T08:47:47Z</time></trkpt><trkpt lat="43.994035301020716" lon="12.020819815300468"><ele>469.99999999999994</ele><time>2026-04-19T08:47:48Z</time></trkpt><trkpt lat="43.99405330661864" lon="12.020714784016576"><ele>470.0</ele><time>2026-04-19T08:47:49Z</time></trkpt><trkpt lat="43.99403837790875" lon="12.020620480523233"><ele>466.25</ele><time>2026-04-19T08:47:50Z</time></trkpt><trkpt lat="43.994005738498394" lon="12.020542191678482"><ele>462.5</ele><time>2026-04-19T08:47:51Z</time></trkpt><trkpt lat="43.99395380287123" lon="12.020477592800622"><ele>458.75</ele><time>2026-04-19T08:47:53Z</time></trkpt><trkpt lat="43.99388163871547" lon="12.020279762306858"><ele>455.0</ele><time>2026-04-19T08:47:56Z</time></trkpt><trkpt lat="43.99356677250813" lon="12.020525035827063"><ele>454.99999999999994</ele><time>2026-04-19T08:47:58Z</time></trkpt><trkpt lat="43.99349136834303" lon="12.020496914375382"><ele>455.0</ele><time>2026-04-19T08:47:59Z</time></trkpt><trkpt lat="43.993401038131715" lon="12.020482347161915"><ele>455.0</ele><time>2026-04-19T08:48:00Z</time></trkpt><trkpt lat="43.993319212483165" lon="12.020484118485502"><ele>455.0</ele><time>2026-04-19T08:48:01Z</time></trkpt><trkpt lat="43.993238921737714" lon="12.020484553393622"><ele>454.99999999999994</ele><time>2026-04-19T08:48:02Z</time></trkpt><trkpt lat="43.99315570680325" lon="12.020488852332324"><ele>455.0</ele><time>2026-04-19T08:48:03Z</time></trkpt><trkpt lat="43.99305675942945" lon="12.020484937008092"><ele>455.8</ele><time>2026-04-19T08:48:04Z</time></trkpt><trkpt lat="43.9929638482609" lon="12.02044639821566"><ele>456.6</ele><time>2026-04-19T08:48:05Z</time></trkpt><trkpt lat="43.992888533515035" lon="12.020419633894376"><ele>457.4</ele><time>2026-04-19T08:48:06Z</time></trkpt><trkpt lat="43.992832550568146" lon="12.020353786593844"><ele>458.2</ele><time>2026-04-19T08:48:07Z</time></trkpt><trkpt lat="43.992891483323696" lon="12.020189024646927"><ele>459.0</ele><time>2026-04-19T08:48:09Z</time></trkpt><trkpt lat="43.99297763872342" lon="12.020138174652281"><ele>459.0</ele><time>2026-04-19T08:48:10Z</time></trkpt><trkpt lat="43.99306113813671" lon="12.020050399079325"><ele>459.0</ele><time>2026-04-19T08:48:11Z</time></trkpt><trkpt lat="43.9931465940158" lon="12.019917992079556"><ele>459.0</ele><time>2026-04-19T08:48:12Z</time></trkpt><trkpt lat="43.993214882734364" lon="12.019812055610105"><ele>459.0</ele><time>2026-04-19T08:48:13Z</time></trkpt><trkpt lat="43.99329090621459" lon="12.019732517191454"><ele>459.0</ele><time>2026-04-19T08:48:14Z</time></trkpt><trkpt lat="43.993348924249496" lon="12.019666372639124"><ele>455.0</ele><time>2026-04-19T08:48:15Z</time></trkpt><trkpt lat="43.99337505188817" lon="12.01954103275803"><ele>451.0</ele><time>2026-04-19T08:48:16Z</time></trkpt><trkpt lat="43.99339054177021" lon="12.019410851540949"><ele>447.0</ele><time>2026-04-19T08:48:17Z</time></trkpt><trkpt lat="43.993385863007674" lon="12.019277483455548"><ele>443.0</ele><time>2026-04-19T08:48:18Z</time></trkpt><trkpt lat="43.99339429440408" lon="12.019162812026451"><ele>439.0</ele><time>2026-04-19T08:48:19Z</time></trkpt><trkpt lat="43.99341169140507" lon="12.019069140467668"><ele>435.0</ele><time>2026-04-19T08:48:20Z</time></trkpt><trkpt lat="43.99344319193661" lon="12.018954765921988"><ele>431.0</ele><time>2026-04-19T08:48:22Z</time></trkpt><trkpt lat="43.99347985114939" lon="12.018862928019137"><ele>427.0</ele><time>2026-04-19T08:48:24Z</time></trkpt><trkpt lat="43.993510623299834" lon="12.018774863091586"><ele>423.0</ele><time>2026-04-19T08:48:28Z</time></trkpt><trkpt lat="43.99370193133018" lon="12.018783985479484"><ele>419.0</ele><time>2026-04-19T08:48:31Z</time></trkpt><trkpt lat="43.993810109445704" lon="12.01877953949893"><ele>415.0</ele><time>2026-04-19T08:48:33Z</time></trkpt><trkpt lat="43.99391573636315" lon="12.018803352935311"><ele>415.00000000000006</ele><time>2026-04-19T08:48:35Z</time></trkpt><trkpt lat="43.99398867374017" lon="12.018822611630005"><ele>415.0</ele><time>2026-04-19T08:48:37Z</time></trkpt><trkpt lat="43.99404903186162" lon="12.01887842397349"><ele>415.0</ele><time>2026-04-19T08:48:39Z</time></trkpt><trkpt lat="43.99411816303717" lon="12.018915822957183"><ele>415.0</ele><time>2026-04-19T08:48:41Z</time></trkpt><trkpt lat="43.994208376835886" lon="12.018966361195519"><ele>415.00000000000006</ele><time>2026-04-19T08:48:43Z</time></trkpt><trkpt lat="43.99427932843855" lon="12.018997319108754"><ele>415.0</ele><time>2026-04-19T08:48:45Z</time></trkpt><trkpt lat="43.994346343696364" lon="12.019050595094182"><ele>411.50000000000006</ele><time>2026-04-19T08:48:48Z</time></trkpt><trkpt lat="43.99439123950954" lon="12.018965418073922"><ele>408.0</ele><time>2026-04-19T08:48:51Z</time></trkpt><trkpt lat="43.99435812351485" lon="12.0188592630391"><ele>404.5</ele><time>2026-04-19T08:48:53Z</time></trkpt><trkpt lat="43.994321207523335" lon="12.018723868578856"><ele>401.0</ele><time>2026-04-19T08:48:55Z</time></trkpt><trkpt lat="43.99431222508841" lon="12.018635739461642"><ele>397.50000000000006</ele><time>2026-04-19T08:48:57Z</time></trkpt><trkpt lat="43.99427348688073" lon="12.018518773402866"><ele>394.0</ele><time>2026-04-19T08:49:00Z</time></trkpt><trkpt lat="43.99422242693631" lon="12.018410374313309"><ele>394.0</ele><time>2026-04-19T08:49:02Z</time></trkpt><trkpt lat="43.9941241103562" lon="12.018302606389085"><ele>394.0</ele><time>2026-04-19T08:49:04Z</time></trkpt><trkpt lat="43.99406122853307" lon="12.018248343019792"><ele>394.0</ele><time>2026-04-19T08:49:05Z</time></trkpt><trkpt lat="43.9939732479085" lon="12.018163092905702"><ele>394.0</ele><time>2026-04-19T08:49:07Z</time></trkpt><trkpt lat="43.99397760958285" lon="12.018028121413133"><ele>394.0</ele><time>2026-04-19T08:49:10Z</time></trkpt><trkpt lat="43.99393211792542" lon="12.017764668883727"><ele>394.0</ele><time>2026-04-19T08:49:12Z</time></trkpt><trkpt lat="43.99388480968974" lon="12.01769975031718"><ele>394.0</ele><time>2026-04-19T08:49:13Z</time></trkpt><trkpt lat="43.99382871627016" lon="12.017654567426947"><ele>394.0</ele><time>2026-04-19T08:49:14Z</time></trkpt><trkpt lat="43.993730768170764" lon="12.017565539156212"><ele>394.0</ele><time>2026-04-19T08:49:16Z</time></trkpt><trkpt lat="43.99362044905882" lon="12.017523183741556"><ele>394.0</ele><time>2026-04-19T08:49:18Z</time></trkpt><trkpt lat="43.99351838492566" lon="12.017485960500707"><ele>392.4</ele><time>2026-04-19T08:49:20Z</time></trkpt><trkpt lat="43.9934330762375" lon="12.01743969906066"><ele>390.79999999999995</ele><time>2026-04-19T08:49:22Z</time></trkpt><trkpt lat="43.99338663853175" lon="12.017378332778275"><ele>389.20000000000005</ele><time>2026-04-19T08:49:23Z</time></trkpt><trkpt lat="43.99329965230713" lon="12.017250243853946"><ele>387.6</ele><time>2026-04-19T08:49:25Z</time></trkpt><trkpt lat="43.99326468375337" lon="12.017170361214806"><ele>386.0</ele><time>2026-04-19T08:49:26Z</time></trkpt><trkpt lat="43.993200720036846" lon="12.017054896928734"><ele>385.99999999999994</ele><time>2026-04-19T08:49:28Z</time></trkpt><trkpt lat="43.99313415864553" lon="12.017021805117235"><ele>386.0</ele><time>2026-04-19T08:49:33Z</time></trkpt><trkpt lat="43.993084034198304" lon="12.016957279571029"><ele>386.0</ele><time>2026-04-19T08:49:39Z</time></trkpt><trkpt lat="43.99306375271223" lon="12.01681894404556"><ele>386.0</ele><time>2026-04-19T08:49:43Z</time></trkpt><trkpt lat="43.99309916134696" lon="12.016682660751226"><ele>385.99999999999994</ele><time>2026-04-19T08:49:45Z</time></trkpt><trkpt lat="43.99312264055153" lon="12.016566113222288"><ele>386.0</ele><time>2026-04-19T08:49:47Z</time></trkpt><trkpt lat="43.99313714602585" lon="12.016443070189293"><ele>382.99999999999994</ele><time>2026-04-19T08:49:50Z</time></trkpt><trkpt lat="43.99307141577127" lon="12.016415349323207"><ele>380.0</ele><time>2026-04-19T08:49:53Z</time></trkpt><trkpt lat="43.99300548606905" lon="12.01644790339286"><ele>377.0</ele><time>2026-04-19T08:49:55Z</time></trkpt><trkpt lat="43.99293724710265" lon="12.016508757412744"><ele>374.0</ele><time>2026-04-19T08:49:57Z</time></trkpt><trkpt lat="43.99285328295819" lon="12.016540046674246"><ele>371.0</ele><time>2026-04-19T08:49:59Z</time></trkpt><trkpt lat="43.99277009164513" lon="12.016567485800726"><ele>368.0</ele><time>2026-04-19T08:50:01Z</time></trkpt><trkpt lat="43.99269741358475" lon="12.016595799029803"><ele>368.0</ele><time>2026-04-19T08:50:03Z</time></trkpt><trkpt lat="43.99263381469288" lon="12.016615130001666"><ele>368.0</ele><time>2026-04-19T08:50:09Z</time></trkpt><trkpt lat="43.992563967648785" lon="12.016591120190585"><ele>368.0</ele><time>2026-04-19T08:50:18Z</time></trkpt><trkpt lat="43.99250282884539" lon="12.016531819320237"><ele>368.0</ele><time>2026-04-19T08:50:27Z</time></trkpt><trkpt lat="43.99253016414666" lon="12.016444247296903"><ele>368.0</ele><time>2026-04-19T08:50:31Z</time></trkpt><trkpt lat="43.992554476478226" lon="12.016329826314687"><ele>368.0</ele><time>2026-04-19T08:50:35Z</time></trkpt><trkpt lat="43.992611050241955" lon="12.016256969961063"><ele>368.0</ele><time>2026-04-19T08:51:07Z</time></trkpt><trkpt lat="43.9926342503492" lon="12.016173692958967"><ele>368.0</ele><time>2026-04-19T08:51:14Z</time></trkpt><trkpt lat="43.992668659622986" lon="12.016065836825176"><ele>368.0</ele><time>2026-04-19T08:51:32Z</time></trkpt><trkpt lat="43.9926792184658" lon="12.015950051858985"><ele>368.0</ele><time>2026-04-19T08:52:16Z</time></trkpt><trkpt lat="43.99271430290742" lon="12.015853791382094"><ele>368.0</ele><time>2026-04-19T08:52:28Z</time></trkpt><trkpt lat="43.99275441790285" lon="12.01578606976793"><ele>368.0</ele><time>2026-04-19T08:52:34Z</time></trkpt><trkpt lat="43.99282268900408" lon="12.015730111404931"><ele>368.0</ele><time>2026-04-19T08:52:43Z</time></trkpt><trkpt lat="43.99288141362707" lon="12.015681458098166"><ele>368.14285714285717</ele><time>2026-04-19T08:52:58Z</time></trkpt><trkpt lat="43.99293397589997" lon="12.015589262547115"><ele>368.2857142857143</ele><time>2026-04-19T08:53:24Z</time></trkpt><trkpt lat="43.992948826796344" lon="12.015494125623679"><ele>368.42857142857144</ele><time>2026-04-19T08:53:32Z</time></trkpt><trkpt lat="43.992978288167826" lon="12.01541334780419"><ele>368.57142857142856</ele><time>2026-04-19T08:53:37Z</time></trkpt><trkpt lat="43.99299428882204" lon="12.015323962759245"><ele>368.71428571428567</ele><time>2026-04-19T08:53:43Z</time></trkpt><trkpt lat="43.99306380425703" lon="12.015305816543128"><ele>368.85714285714283</ele><time>2026-04-19T08:53:49Z</time></trkpt><trkpt lat="43.99312304971934" lon="12.015375948924842"><ele>369.0</ele><time>2026-04-19T08:53:53Z</time></trkpt><trkpt lat="43.99318946899957" lon="12.015409660953784"><ele>369.0</ele><time>2026-04-19T08:53:57Z</time></trkpt><trkpt lat="43.99325393604435" lon="12.015429881117946"><ele>369.0</ele><time>2026-04-19T08:54:14Z</time></trkpt><trkpt lat="43.99332346585873" lon="12.015449446062686"><ele>369.0</ele><time>2026-04-19T08:54:18Z</time></trkpt><trkpt lat="43.99339055545847" lon="12.0154659072642"><ele>369.0</ele><time>2026-04-19T08:54:24Z</time></trkpt><trkpt lat="43.993455376088875" lon="12.015474451787965"><ele>369.0</ele><time>2026-04-19T08:54:29Z</time></trkpt><trkpt lat="43.99352197085801" lon="12.015499377409009"><ele>369.0</ele><time>2026-04-19T08:54:34Z</time></trkpt><trkpt lat="43.99358863873192" lon="12.01551847948287"><ele>369.0</ele><time>2026-04-19T08:54:40Z</time></trkpt><trkpt lat="43.99366888750656" lon="12.01549369252197"><ele>371.0</ele><time>2026-04-19T08:54:46Z</time></trkpt><trkpt lat="43.99374960682132" lon="12.015507658155885"><ele>373.0</ele><time>2026-04-19T08:54:50Z</time></trkpt><trkpt lat="43.99382372047082" lon="12.015511220039976"><ele>375.0</ele><time>2026-04-19T08:54:55Z</time></trkpt><trkpt lat="43.993886482892314" lon="12.015486458870212"><ele>377.0</ele><time>2026-04-19T08:55:11Z</time></trkpt><trkpt lat="43.993955243380064" lon="12.015526643934239"><ele>379.0</ele><time>2026-04-19T08:55:32Z</time></trkpt><trkpt lat="43.994035631486895" lon="12.01554667792419"><ele>381.0</ele><time>2026-04-19T08:55:59Z</time></trkpt><trkpt lat="43.99408210929732" lon="12.015616777854568"><ele>383.0</ele><time>2026-04-19T08:56:08Z</time></trkpt><trkpt lat="43.994138006739064" lon="12.015689951024848"><ele>381.85714285714283</ele><time>2026-04-19T08:56:11Z</time></trkpt><trkpt lat="43.99420314625357" lon="12.015668472951418"><ele>380.71428571428567</ele><time>2026-04-19T08:56:15Z</time></trkpt><trkpt lat="43.99426691417359" lon="12.015644665156461"><ele>379.57142857142856</ele><time>2026-04-19T08:56:18Z</time></trkpt><trkpt lat="43.99431257472634" lon="12.015706770001081"><ele>378.42857142857144</ele><time>2026-04-19T08:56:25Z</time></trkpt><trkpt lat="43.99436859881619" lon="12.015802595488505"><ele>377.2857142857143</ele><time>2026-04-19T08:56:29Z</time></trkpt><trkpt lat="43.994435306705384" lon="12.015827969867136"><ele>376.14285714285717</ele><time>2026-04-19T08:56:35Z</time></trkpt><trkpt lat="43.99452208841136" lon="12.015839755654662"><ele>375.0</ele><time>2026-04-19T08:56:39Z</time></trkpt><trkpt lat="43.99459817685867" lon="12.015846059321657"><ele>375.0</ele><time>2026-04-19T08:56:44Z</time></trkpt><trkpt lat="43.994667325179876" lon="12.015807160508551"><ele>375.0</ele><time>2026-04-19T08:56:49Z</time></trkpt><trkpt lat="43.994748900463236" lon="12.015808538166658"><ele>375.0</ele><time>2026-04-19T08:56:53Z</time></trkpt><trkpt lat="43.994855669226574" lon="12.015835951433642"><ele>375.0</ele><time>2026-04-19T08:56:56Z</time></trkpt><trkpt lat="43.99493467629683" lon="12.015902425151195"><ele>375.0</ele><time>2026-04-19T08:56:58Z</time></trkpt><trkpt lat="43.99499691495026" lon="12.015972997630108"><ele>375.0</ele><time>2026-04-19T08:57:00Z</time></trkpt><trkpt lat="43.99502849212766" lon="12.016061199021458"><ele>372.42857142857144</ele><time>2026-04-19T08:57:03Z</time></trkpt><trkpt lat="43.99507576999957" lon="12.01613030077714"><ele>369.85714285714283</ele><time>2026-04-19T08:57:06Z</time></trkpt><trkpt lat="43.99514296614315" lon="12.016216722737813"><ele>367.2857142857143</ele><time>2026-04-19T08:57:09Z</time></trkpt><trkpt lat="43.995179953527895" lon="12.016312938758297"><ele>364.7142857142857</ele><time>2026-04-19T08:57:13Z</time></trkpt><trkpt lat="43.99524225129304" lon="12.016328435224992"><ele>362.1428571428571</ele><time>2026-04-19T08:57:19Z</time></trkpt><trkpt lat="43.99530871989767" lon="12.016266794485531"><ele>359.57142857142856</ele><time>2026-04-19T08:57:23Z</time></trkpt><trkpt lat="43.99536732571432" lon="12.016227660528228"><ele>357.0</ele><time>2026-04-19T08:57:34Z</time></trkpt><trkpt lat="43.99542641214544" lon="12.016186012811866"><ele>357.0</ele><time>2026-04-19T08:57:42Z</time></trkpt><trkpt lat="43.99549318391325" lon="12.016165584961005"><ele>357.0</ele><time>2026-04-19T08:57:46Z</time></trkpt><trkpt lat="43.99555518591066" lon="12.016129513007341"><ele>357.0</ele><time>2026-04-19T08:57:50Z</time></trkpt><trkpt lat="43.995619043580795" lon="12.016101602812356"><ele>357.0</ele><time>2026-04-19T08:58:48.001Z</time></trkpt><trkpt lat="43.995671461413394" lon="12.016158616626884"><ele>357.0</ele><time>2026-04-19T08:59:08.001Z</time></trkpt><trkpt lat="43.99568952641383" lon="12.016256535615442"><ele>357.0</ele><time>2026-04-19T08:59:41.001Z</time></trkpt><trkpt lat="43.9957546815101" lon="12.016323080131523"><ele>357.0</ele><time>2026-04-19T08:59:47.001Z</time></trkpt><trkpt lat="43.99582955523351" lon="12.016327163505318"><ele>358.0</ele><time>2026-04-19T08:59:49.001Z</time></trkpt><trkpt lat="43.99587563718105" lon="12.016404490207195"><ele>359.0</ele><time>2026-04-19T09:00:08.001Z</time></trkpt><trkpt lat="43.99593640692582" lon="12.016465598411404"><ele>360.0</ele><time>2026-04-19T09:00:11.001Z</time></trkpt><trkpt lat="43.99602608576054" lon="12.016525686724412"><ele>361.0</ele><time>2026-04-19T09:00:15.001Z</time></trkpt><trkpt lat="43.99610471791962" lon="12.016602792561653"><ele>362.0</ele><time>2026-04-19T09:00:19.001Z</time></trkpt><trkpt lat="43.996171455758315" lon="12.01660732095648"><ele>363.0</ele><time>2026-04-19T09:00:40.001Z</time></trkpt><trkpt lat="43.99623736537598" lon="12.016637678730708"><ele>359.8333333333333</ele><time>2026-04-19T09:00:51.001Z</time></trkpt><trkpt lat="43.99630091158204" lon="12.016671526359213"><ele>356.6666666666667</ele><time>2026-04-19T09:00:53.001Z</time></trkpt><trkpt lat="43.996387697819436" lon="12.016716492216597"><ele>353.5</ele><time>2026-04-19T09:00:55.001Z</time></trkpt><trkpt lat="43.99646110205565" lon="12.016709188279702"><ele>350.33333333333337</ele><time>2026-04-19T09:00:57.001Z</time></trkpt><trkpt lat="43.99654022094243" lon="12.016762514022748"><ele>347.1666666666667</ele><time>2026-04-19T09:01:00.001Z</time></trkpt><trkpt lat="43.99658988301497" lon="12.016834661786566"><ele>344.0</ele><time>2026-04-19T09:01:03.001Z</time></trkpt><trkpt lat="43.99664238186896" lon="12.016901313162116"><ele>347.83333333333337</ele><time>2026-04-19T09:01:05.001Z</time></trkpt><trkpt lat="43.996685111602474" lon="12.016969696437489"><ele>351.6666666666667</ele><time>2026-04-19T09:01:07.001Z</time></trkpt><trkpt lat="43.99669946515279" lon="12.017076239530603"><ele>355.5</ele><time>2026-04-19T09:01:11.001Z</time></trkpt><trkpt lat="43.99676072472686" lon="12.017156191342695"><ele>359.3333333333333</ele><time>2026-04-19T09:01:16.001Z</time></trkpt><trkpt lat="43.99684246719887" lon="12.017253307271242"><ele>363.16666666666663</ele><time>2026-04-19T09:01:56.001Z</time></trkpt><trkpt lat="43.99686888650991" lon="12.01733798755215"><ele>367.0</ele><time>2026-04-19T09:01:59.001Z</time></trkpt><trkpt lat="43.996922720007404" lon="12.017405351695466"><ele>363.3333333333333</ele><time>2026-04-19T09:02:10.001Z</time></trkpt><trkpt lat="43.99694658565537" lon="12.017490474346875"><ele>359.66666666666663</ele><time>2026-04-19T09:02:41.001Z</time></trkpt><trkpt lat="43.99699952156208" lon="12.017574841432673"><ele>356.0</ele><time>2026-04-19T09:02:47.001Z</time></trkpt><trkpt lat="43.997063454135606" lon="12.017595655843063"><ele>352.3333333333333</ele><time>2026-04-19T09:02:49.001Z</time></trkpt><trkpt lat="43.997140255359156" lon="12.01758463894945"><ele>348.6666666666667</ele><time>2026-04-19T09:04:07.001Z</time></trkpt><trkpt lat="43.997259302297984" lon="12.017636928563208"><ele>345.0</ele><time>2026-04-19T09:04:09.001Z</time></trkpt><trkpt lat="43.99733510592022" lon="12.01765388585294"><ele>345.0</ele><time>2026-04-19T09:04:10.001Z</time></trkpt><trkpt lat="43.99737647482877" lon="12.017728936896994"><ele>345.0</ele><time>2026-04-19T09:04:12.001Z</time></trkpt><trkpt lat="43.99734584384034" lon="12.017857382487692"><ele>345.0</ele><time>2026-04-19T09:04:30.001Z</time></trkpt><trkpt lat="43.99738861949624" lon="12.017949919088348"><ele>345.0</ele><time>2026-04-19T09:04:32.001Z</time></trkpt><trkpt lat="43.997447167288" lon="12.018026136639044"><ele>345.0</ele><time>2026-04-19T09:04:34.001Z</time></trkpt><trkpt lat="43.997507739795566" lon="12.018066076829845"><ele>345.0</ele><time>2026-04-19T09:04:56.001Z</time></trkpt><trkpt lat="43.99760754740557" lon="12.018154428016068"><ele>344.3333333333333</ele><time>2026-04-19T09:04:58.001Z</time></trkpt><trkpt lat="43.99767024206569" lon="12.018195880891039"><ele>343.6666666666667</ele><time>2026-04-19T09:04:59.001Z</time></trkpt><trkpt lat="43.99773522451689" lon="12.018237941339414"><ele>343.0</ele><time>2026-04-19T09:05:00.001Z</time></trkpt><trkpt lat="43.997800623328615" lon="12.018280774359939"><ele>342.33333333333337</ele><time>2026-04-19T09:05:01.001Z</time></trkpt><trkpt lat="43.99790008086885" lon="12.018353659546678"><ele>341.6666666666667</ele><time>2026-04-19T09:05:03.001Z</time></trkpt><trkpt lat="43.99799758551406" lon="12.018434260895193"><ele>341.0</ele><time>2026-04-19T09:05:05.001Z</time></trkpt><trkpt lat="43.99804381097954" lon="12.018502927333047"><ele>341.0</ele><time>2026-04-19T09:05:06.001Z</time></trkpt><trkpt lat="43.9980739985151" lon="12.018668719641035"><ele>341.0</ele><time>2026-04-19T09:05:08.001Z</time></trkpt><trkpt lat="43.99807819779998" lon="12.018823686055656"><ele>341.0</ele><time>2026-04-19T09:05:10.001Z</time></trkpt><trkpt lat="43.99810109876793" lon="12.018971833180007"><ele>341.0</ele><time>2026-04-19T09:05:12.001Z</time></trkpt><trkpt lat="43.99814082049877" lon="12.019149931198108"><ele>339.6666666666667</ele><time>2026-04-19T09:05:14.001Z</time></trkpt><trkpt lat="43.99815776511555" lon="12.019262162929005"><ele>338.33333333333337</ele><time>2026-04-19T09:05:15.001Z</time></trkpt><trkpt lat="43.9981905491086" lon="12.019357666226847"><ele>337.0</ele><time>2026-04-19T09:05:16.001Z</time></trkpt><trkpt lat="43.99823041332739" lon="12.019435337416937"><ele>335.6666666666667</ele><time>2026-04-19T09:05:17.001Z</time></trkpt><trkpt lat="43.998293591685034" lon="12.01943150138954"><ele>334.3333333333333</ele><time>2026-04-19T09:05:19.001Z</time></trkpt><trkpt lat="43.99833276070379" lon="12.019304275606599"><ele>333.0</ele><time>2026-04-19T09:05:21.001Z</time></trkpt><trkpt lat="43.998406145321646" lon="12.019176755758783"><ele>337.0</ele><time>2026-04-19T09:05:23.001Z</time></trkpt><trkpt lat="43.998475447811224" lon="12.019102320215408"><ele>341.0</ele><time>2026-04-19T09:05:24.001Z</time></trkpt><trkpt lat="43.998545623376394" lon="12.018988018246251"><ele>345.0</ele><time>2026-04-19T09:05:25.001Z</time></trkpt><trkpt lat="43.99858979947754" lon="12.018916063481292"><ele>349.0</ele><time>2026-04-19T09:05:26Z</time></trkpt><trkpt lat="43.998685330328485" lon="12.018902475112437"><ele>353.0</ele><time>2026-04-19T09:05:28Z</time></trkpt><trkpt lat="43.998781961486586" lon="12.018887188959216"><ele>353.0</ele><time>2026-04-19T09:05:30Z</time></trkpt><trkpt lat="43.99884848546164" lon="12.018849308593817"><ele>353.0</ele><time>2026-04-19T09:05:31Z</time></trkpt><trkpt lat="43.9989305878588" lon="12.018808014708359"><ele>353.0</ele><time>2026-04-19T09:05:32Z</time></trkpt><trkpt lat="43.9990286552246" lon="12.01877350588594"><ele>353.0</ele><time>2026-04-19T09:05:33Z</time></trkpt><trkpt lat="43.99911411095096" lon="12.018720503555143"><ele>353.0</ele><time>2026-04-19T09:05:34Z</time></trkpt><trkpt lat="43.999186147254775" lon="12.018676115027569"><ele>353.0</ele><time>2026-04-19T09:05:35Z</time></trkpt><trkpt lat="43.99924627453784" lon="12.018620155435517"><ele>356.83333333333337</ele><time>2026-04-19T09:05:36Z</time></trkpt><trkpt lat="43.99931222532657" lon="12.018584487244171"><ele>360.6666666666667</ele><time>2026-04-19T09:05:37Z</time></trkpt><trkpt lat="43.999382110989494" lon="12.01856528624732"><ele>364.5</ele><time>2026-04-19T09:05:38Z</time></trkpt><trkpt lat="43.999460836793524" lon="12.018539203401186"><ele>368.3333333333333</ele><time>2026-04-19T09:05:39Z</time></trkpt><trkpt lat="43.99955056259971" lon="12.018519455154044"><ele>372.16666666666663</ele><time>2026-04-19T09:05:40Z</time></trkpt><trkpt lat="43.999640668188526" lon="12.018489716777633"><ele>376.0</ele><time>2026-04-19T09:05:41Z</time></trkpt><trkpt lat="43.999722975122815" lon="12.018463202609869"><ele>376.0</ele><time>2026-04-19T09:05:42Z</time></trkpt><trkpt lat="43.99981454494861" lon="12.018420510409722"><ele>376.0</ele><time>2026-04-19T09:05:43Z</time></trkpt><trkpt lat="43.999898137261624" lon="12.018412980461141"><ele>376.0</ele><time>2026-04-19T09:05:44Z</time></trkpt><trkpt lat="43.999981286440764" lon="12.018410170051187"><ele>376.0</ele><time>2026-04-19T09:05:45Z</time></trkpt><trkpt lat="44.00006980673907" lon="12.01841920014472"><ele>376.0</ele><time>2026-04-19T09:05:46Z</time></trkpt><trkpt lat="44.0001664856043" lon="12.018422760604397"><ele>376.0</ele><time>2026-04-19T09:05:47Z</time></trkpt><trkpt lat="44.00023463509843" lon="12.018375867239842"><ele>374.5</ele><time>2026-04-19T09:05:48Z</time></trkpt><trkpt lat="44.000288488871455" lon="12.018291884620906"><ele>373.0</ele><time>2026-04-19T09:05:49Z</time></trkpt><trkpt lat="44.00034976931214" lon="12.018194087581964"><ele>371.5</ele><time>2026-04-19T09:05:50Z</time></trkpt><trkpt lat="44.000434523971215" lon="12.018148423509524"><ele>370.0</ele><time>2026-04-19T09:05:52Z</time></trkpt><trkpt lat="44.00053411817208" lon="12.018183765661187"><ele>368.5</ele><time>2026-04-19T09:05:54Z</time></trkpt><trkpt lat="44.00059675318465" lon="12.018206187717242"><ele>367.0</ele><time>2026-04-19T09:05:55Z</time></trkpt><trkpt lat="44.00069052383713" lon="12.018286314720052"><ele>369.25</ele><time>2026-04-19T09:05:57Z</time></trkpt><trkpt lat="44.000767810898665" lon="12.018407767717637"><ele>371.5</ele><time>2026-04-19T09:05:59Z</time></trkpt><trkpt lat="44.0008928520667" lon="12.018362676095593"><ele>373.75</ele><time>2026-04-19T09:06:01Z</time></trkpt><trkpt lat="44.000967705924594" lon="12.018333638554038"><ele>376.0</ele><time>2026-04-19T09:06:02Z</time></trkpt><trkpt lat="44.00109826401891" lon="12.018325289103593"><ele>380.66666666666663</ele><time>2026-04-19T09:06:04Z</time></trkpt><trkpt lat="44.0013284743166" lon="12.01843111620706"><ele>385.3333333333333</ele><time>2026-04-19T09:06:09Z</time></trkpt><trkpt lat="44.00147481770433" lon="12.018353931662055"><ele>390.0</ele><time>2026-04-19T09:06:11Z</time></trkpt><trkpt lat="44.00153485086278" lon="12.018316723383974"><ele>390.0</ele><time>2026-04-19T09:06:12Z</time></trkpt><trkpt lat="44.00164375193876" lon="12.018252895172562"><ele>390.0</ele><time>2026-04-19T09:06:14Z</time></trkpt><trkpt lat="44.00174621003773" lon="12.018215988058389"><ele>390.0</ele><time>2026-04-19T09:06:16Z</time></trkpt><trkpt lat="44.00182861069566" lon="12.018155005837306"><ele>390.0</ele><time>2026-04-19T09:06:18Z</time></trkpt><trkpt lat="44.001966850908204" lon="12.018255973160118"><ele>397.0</ele><time>2026-04-19T09:06:22Z</time></trkpt><trkpt lat="44.00207469436451" lon="12.018338091547209"><ele>404.0</ele><time>2026-04-19T09:06:24Z</time></trkpt><trkpt lat="44.00216519902356" lon="12.01832452209833"><ele>411.0</ele><time>2026-04-19T09:06:27.001Z</time></trkpt><trkpt lat="44.00223861136343" lon="12.018371099392594"><ele>418.0</ele><time>2026-04-19T09:06:31.001Z</time></trkpt><trkpt lat="44.00232201472883" lon="12.01837456892812"><ele>425.0</ele><time>2026-04-19T09:06:34.001Z</time></trkpt><trkpt lat="44.0024317278079" lon="12.018417835670238"><ele>425.6</ele><time>2026-04-19T09:06:36.001Z</time></trkpt><trkpt lat="44.00252412063642" lon="12.018471456530248"><ele>426.2</ele><time>2026-04-19T09:06:38.001Z</time></trkpt><trkpt lat="44.00263608160148" lon="12.01848964097128"><ele>426.79999999999995</ele><time>2026-04-19T09:06:40.001Z</time></trkpt><trkpt lat="44.0027068705709" lon="12.018379867990243"><ele>427.4</ele><time>2026-04-19T09:06:42.001Z</time></trkpt><trkpt lat="44.002763166115486" lon="12.018284872934014"><ele>428.0</ele><time>2026-04-19T09:06:44.001Z</time></trkpt><trkpt lat="44.002821193636436" lon="12.018341110068159"><ele>434.5</ele><time>2026-04-19T09:06:46.001Z</time></trkpt><trkpt lat="44.002884339151755" lon="12.018332426211478"><ele>441.0</ele><time>2026-04-19T09:06:50.001Z</time></trkpt><trkpt lat="44.003428215755854" lon="12.018277769677873"><ele>445.4</ele><time>2026-04-19T09:06:52.001Z</time></trkpt><trkpt lat="44.00353807460883" lon="12.018320984448854"><ele>449.8</ele><time>2026-04-19T09:06:53.001Z</time></trkpt><trkpt lat="44.00363649901921" lon="12.018364838074897"><ele>454.19999999999993</ele><time>2026-04-19T09:06:54.001Z</time></trkpt><trkpt lat="44.003708588937926" lon="12.018433803208023"><ele>458.59999999999997</ele><time>2026-04-19T09:06:55.001Z</time></trkpt><trkpt lat="44.00378333904373" lon="12.018488908819656"><ele>463.0</ele><time>2026-04-19T09:06:56.001Z</time></trkpt><trkpt lat="44.00386620487401" lon="12.018530296772791"><ele>463.0</ele><time>2026-04-19T09:06:57.001Z</time></trkpt><trkpt lat="44.003950129576914" lon="12.0185448978823"><ele>462.99999999999994</ele><time>2026-04-19T09:06:58.001Z</time></trkpt><trkpt lat="44.00403755556947" lon="12.018552285080885"><ele>462.99999999999994</ele><time>2026-04-19T09:06:59.001Z</time></trkpt><trkpt lat="44.00413409541273" lon="12.018542169939414"><ele>463.0</ele><time>2026-04-19T09:07:00.001Z</time></trkpt><trkpt lat="44.00422683845679" lon="12.018527296320082"><ele>463.0</ele><time>2026-04-19T09:07:01.001Z</time></trkpt><trkpt lat="44.004320791788814" lon="12.018502628978469"><ele>465.33333333333337</ele><time>2026-04-19T09:07:02.001Z</time></trkpt><trkpt lat="44.00440756446024" lon="12.018481854522676"><ele>467.6666666666667</ele><time>2026-04-19T09:07:03.001Z</time></trkpt><trkpt lat="44.00448787075732" lon="12.018491628081511"><ele>470.0</ele><time>2026-04-19T09:07:04.001Z</time></trkpt><trkpt lat="44.00456391500109" lon="12.018513049055453"><ele>472.33333333333337</ele><time>2026-04-19T09:07:05.001Z</time></trkpt><trkpt lat="44.004642285401495" lon="12.018523080565958"><ele>474.6666666666667</ele><time>2026-04-19T09:07:06.001Z</time></trkpt><trkpt lat="44.00471860849659" lon="12.018511899092896"><ele>477.0</ele><time>2026-04-19T09:07:07.001Z</time></trkpt><trkpt lat="44.00477737021617" lon="12.018465029727336"><ele>477.0</ele><time>2026-04-19T09:07:08.001Z</time></trkpt><trkpt lat="44.004837368947086" lon="12.018393479322867"><ele>477.00000000000006</ele><time>2026-04-19T09:07:09.001Z</time></trkpt><trkpt lat="44.00485205362418" lon="12.018255220283036"><ele>477.00000000000006</ele><time>2026-04-19T09:07:10.001Z</time></trkpt><trkpt lat="44.00492820474376" lon="12.018205581833456"><ele>477.0</ele><time>2026-04-19T09:07:11.001Z</time></trkpt><trkpt lat="44.00503323962021" lon="12.018189700329357"><ele>477.0</ele><time>2026-04-19T09:07:12.001Z</time></trkpt><trkpt lat="44.0051454871266" lon="12.018205402391748"><ele>479.5</ele><time>2026-04-19T09:07:13.001Z</time></trkpt><trkpt lat="44.00526868548908" lon="12.018227590019482"><ele>482.0</ele><time>2026-04-19T09:07:14.001Z</time></trkpt><trkpt lat="44.00538830202783" lon="12.018238112462434"><ele>484.5</ele><time>2026-04-19T09:07:15.001Z</time></trkpt><trkpt lat="44.00550380604769" lon="12.01827840440812"><ele>487.0</ele><time>2026-04-19T09:07:16.001Z</time></trkpt><trkpt lat="44.005630727909455" lon="12.018310648968756"><ele>490.5</ele><time>2026-04-19T09:07:17.001Z</time></trkpt><trkpt lat="44.00576010879327" lon="12.018322936897746"><ele>494.0</ele><time>2026-04-19T09:07:18.001Z</time></trkpt><trkpt lat="44.00588375594029" lon="12.01833986933371"><ele>497.5</ele><time>2026-04-19T09:07:19.001Z</time></trkpt><trkpt lat="44.00599768621015" lon="12.01832772054028"><ele>501.0</ele><time>2026-04-19T09:07:20.001Z</time></trkpt><trkpt lat="44.006112038736724" lon="12.018315300554484"><ele>501.8333333333333</ele><time>2026-04-19T09:07:21.001Z</time></trkpt><trkpt lat="44.00621044605623" lon="12.018304229501174"><ele>502.66666666666663</ele><time>2026-04-19T09:07:22.001Z</time></trkpt><trkpt lat="44.00629857140889" lon="12.018319021391658"><ele>503.5</ele><time>2026-04-19T09:07:23.001Z</time></trkpt><trkpt lat="44.00639914223952" lon="12.018332718332443"><ele>504.3333333333333</ele><time>2026-04-19T09:07:24.001Z</time></trkpt><trkpt lat="44.00646818198882" lon="12.018355060538989"><ele>505.16666666666663</ele><time>2026-04-19T09:07:25.001Z</time></trkpt><trkpt lat="44.006531279381306" lon="12.018385590644566"><ele>506.0</ele><time>2026-04-19T09:07:26.001Z</time></trkpt><trkpt lat="44.006598733853004" lon="12.018409995119644"><ele>511.66666666666663</ele><time>2026-04-19T09:07:27.001Z</time></trkpt><trkpt lat="44.00668877745274" lon="12.018404917803439"><ele>517.3333333333333</ele><time>2026-04-19T09:07:29.001Z</time></trkpt><trkpt lat="44.00675565754766" lon="12.018415945009245"><ele>523.0</ele><time>2026-04-19T09:07:30.001Z</time></trkpt><trkpt lat="44.006832111523885" lon="12.01843232235591"><ele>528.6666666666666</ele><time>2026-04-19T09:07:31.001Z</time></trkpt><trkpt lat="44.00691821557089" lon="12.018465869001313"><ele>534.3333333333334</ele><time>2026-04-19T09:07:33Z</time></trkpt><trkpt lat="44.006996875416235" lon="12.018487512603437"><ele>540.0</ele><time>2026-04-19T09:07:35Z</time></trkpt><trkpt lat="44.007053179206785" lon="12.018415849652987"><ele>540.0</ele><time>2026-04-19T09:07:40Z</time></trkpt><trkpt lat="44.00710740607759" lon="12.018319397672775"><ele>540.0</ele><time>2026-04-19T09:07:48Z</time></trkpt><trkpt lat="44.007172064649055" lon="12.018207430750737"><ele>540.0</ele><time>2026-04-19T09:07:50Z</time></trkpt><trkpt lat="44.00722535979052" lon="12.018137008163595"><ele>540.0</ele><time>2026-04-19T09:07:51Z</time></trkpt><trkpt lat="44.007254198485" lon="12.018036358014527"><ele>540.0</ele><time>2026-04-19T09:07:52Z</time></trkpt><trkpt lat="44.00725990015085" lon="12.017929160842693"><ele>540.0</ele><time>2026-04-19T09:07:53Z</time></trkpt><trkpt lat="44.00728813632068" lon="12.01783588341336"><ele>536.4</ele><time>2026-04-19T09:07:54Z</time></trkpt><trkpt lat="44.00735061568441" lon="12.017753580176255"><ele>532.8</ele><time>2026-04-19T09:07:55Z</time></trkpt><trkpt lat="44.00741905070332" lon="12.017681325900396"><ele>529.2</ele><time>2026-04-19T09:07:56Z</time></trkpt><trkpt lat="44.007501306007285" lon="12.017584390823474"><ele>525.6</ele><time>2026-04-19T09:07:57Z</time></trkpt><trkpt lat="44.0075760773355" lon="12.017487486151287"><ele>522.0</ele><time>2026-04-19T09:07:58Z</time></trkpt><trkpt lat="44.00764582525316" lon="12.017392475163916"><ele>520.2</ele><time>2026-04-19T09:07:59Z</time></trkpt><trkpt lat="44.00770065371114" lon="12.017271515952352"><ele>518.4000000000001</ele><time>2026-04-19T09:08:00Z</time></trkpt><trkpt lat="44.007739884733674" lon="12.017153242787352"><ele>516.5999999999999</ele><time>2026-04-19T09:08:01Z</time></trkpt><trkpt lat="44.007781205801436" lon="12.01704346508024"><ele>514.8</ele><time>2026-04-19T09:08:02Z</time></trkpt><trkpt lat="44.007828173750106" lon="12.016939849612148"><ele>513.0</ele><time>2026-04-19T09:08:03Z</time></trkpt><trkpt lat="44.00787060796133" lon="12.016833995796855"><ele>513.0</ele><time>2026-04-19T09:08:04Z</time></trkpt><trkpt lat="44.00791812364614" lon="12.016742967271625"><ele>513.0</ele><time>2026-04-19T09:08:05Z</time></trkpt><trkpt lat="44.007969132373226" lon="12.01666916691185"><ele>513.0</ele><time>2026-04-19T09:08:06Z</time></trkpt><trkpt lat="44.00800571488803" lon="12.01657569084827"><ele>513.0</ele><time>2026-04-19T09:08:07Z</time></trkpt><trkpt lat="44.00802367460838" lon="12.016464993457259"><ele>513.0</ele><time>2026-04-19T09:08:08Z</time></trkpt><trkpt lat="44.00801461254253" lon="12.016349201482011"><ele>513.0</ele><time>2026-04-19T09:08:09Z</time></trkpt><trkpt lat="44.00798168999053" lon="12.016239238657294"><ele>514.6666666666666</ele><time>2026-04-19T09:08:10Z</time></trkpt><trkpt lat="44.00793660841552" lon="12.01615285704097"><ele>516.3333333333334</ele><time>2026-04-19T09:08:11Z</time></trkpt><trkpt lat="44.00787805986687" lon="12.016080944062045"><ele>518.0</ele><time>2026-04-19T09:08:12Z</time></trkpt><trkpt lat="44.007823637694734" lon="12.015987271070108"><ele>519.6666666666667</ele><time>2026-04-19T09:08:13Z</time></trkpt><trkpt lat="44.007760567409456" lon="12.0159020428563"><ele>521.3333333333334</ele><time>2026-04-19T09:08:14Z</time></trkpt><trkpt lat="44.007706902114606" lon="12.015823055580043"><ele>523.0</ele><time>2026-04-19T09:08:15Z</time></trkpt><trkpt lat="44.007639752152635" lon="12.01573970824709"><ele>522.3333333333334</ele><time>2026-04-19T09:08:16Z</time></trkpt><trkpt lat="44.00756555041514" lon="12.015667896000293"><ele>521.6666666666667</ele><time>2026-04-19T09:08:17Z</time></trkpt><trkpt lat="44.007500867851405" lon="12.015589650705977"><ele>521.0</ele><time>2026-04-19T09:08:18Z</time></trkpt><trkpt lat="44.007443745776925" lon="12.015515502617625"><ele>520.3333333333334</ele><time>2026-04-19T09:08:19Z</time></trkpt><trkpt lat="44.00739279612774" lon="12.015430324698633"><ele>519.6666666666666</ele><time>2026-04-19T09:08:20Z</time></trkpt><trkpt lat="44.007376968135326" lon="12.015318343296912"><ele>519.0</ele><time>2026-04-19T09:08:21Z</time></trkpt><trkpt lat="44.00739259587903" lon="12.015199079434268"><ele>519.0</ele><time>2026-04-19T09:08:22Z</time></trkpt><trkpt lat="44.0074036769968" lon="12.015106689661266"><ele>519.0</ele><time>2026-04-19T09:08:23Z</time></trkpt><trkpt lat="44.00736292863788" lon="12.015030175294251"><ele>519.0</ele><time>2026-04-19T09:08:24Z</time></trkpt><trkpt lat="44.00729020275422" lon="12.01494546954238"><ele>519.0</ele><time>2026-04-19T09:08:25Z</time></trkpt><trkpt lat="44.007187751808814" lon="12.014884132704506"><ele>519.0</ele><time>2026-04-19T09:08:26Z</time></trkpt><trkpt lat="44.007089816996526" lon="12.014823837077369"><ele>519.0</ele><time>2026-04-19T09:08:27Z</time></trkpt><trkpt lat="44.007011397842646" lon="12.014751171143338"><ele>520.0</ele><time>2026-04-19T09:08:28Z</time></trkpt><trkpt lat="44.00693768328737" lon="12.014669029204235"><ele>521.0</ele><time>2026-04-19T09:08:29Z</time></trkpt><trkpt lat="44.006852305005744" lon="12.014623252280648"><ele>522.0</ele><time>2026-04-19T09:08:30Z</time></trkpt><trkpt lat="44.00678529331523" lon="12.014555769870572"><ele>523.0</ele><time>2026-04-19T09:08:31Z</time></trkpt><trkpt lat="44.00675594519693" lon="12.014471878296273"><ele>524.0</ele><time>2026-04-19T09:08:32Z</time></trkpt><trkpt lat="44.00669720790187" lon="12.014403496028526"><ele>525.0</ele><time>2026-04-19T09:08:33Z</time></trkpt><trkpt lat="44.00662274340814" lon="12.014362420789908"><ele>525.0</ele><time>2026-04-19T09:08:34Z</time></trkpt><trkpt lat="44.006558133122724" lon="12.014269271908967"><ele>525.0</ele><time>2026-04-19T09:08:35Z</time></trkpt><trkpt lat="44.00650398105356" lon="12.01414162713418"><ele>525.0</ele><time>2026-04-19T09:08:36Z</time></trkpt><trkpt lat="44.0064633482881" lon="12.014002728694587"><ele>525.0</ele><time>2026-04-19T09:08:37Z</time></trkpt><trkpt lat="44.00639712751526" lon="12.01388865263242"><ele>525.0</ele><time>2026-04-19T09:08:38Z</time></trkpt><trkpt lat="44.00631492005052" lon="12.013822982238866"><ele>529.5</ele><time>2026-04-19T09:08:39Z</time></trkpt><trkpt lat="44.006212844681876" lon="12.013797271118927"><ele>534.0</ele><time>2026-04-19T09:08:40Z</time></trkpt><trkpt lat="44.006153087738774" lon="12.013715571536286"><ele>538.5</ele><time>2026-04-19T09:08:41Z</time></trkpt><trkpt lat="44.00611958625651" lon="12.013611798970967"><ele>543.0</ele><time>2026-04-19T09:08:42Z</time></trkpt><trkpt lat="44.006056834124855" lon="12.013565153924565"><ele>547.5</ele><time>2026-04-19T09:08:43Z</time></trkpt><trkpt lat="44.005976252760156" lon="12.013539286355586"><ele>552.0</ele><time>2026-04-19T09:08:44Z</time></trkpt><trkpt lat="44.005930254201395" lon="12.013444310422354"><ele>552.0</ele><time>2026-04-19T09:08:45Z</time></trkpt><trkpt lat="44.005880195829924" lon="12.01337303051494"><ele>552.0</ele><time>2026-04-19T09:08:46Z</time></trkpt><trkpt lat="44.00581289637579" lon="12.013328845394888"><ele>552.0</ele><time>2026-04-19T09:08:47Z</time></trkpt><trkpt lat="44.00572650012267" lon="12.013175010351276"><ele>552.0</ele><time>2026-04-19T09:08:49Z</time></trkpt><trkpt lat="44.00568912574445" lon="12.013042579354241"><ele>552.0</ele><time>2026-04-19T09:08:50Z</time></trkpt><trkpt lat="44.00565863345886" lon="12.01291173887725"><ele>550.4</ele><time>2026-04-19T09:08:51Z</time></trkpt><trkpt lat="44.00562548265293" lon="12.01277714769401"><ele>548.8000000000001</ele><time>2026-04-19T09:08:52Z</time></trkpt><trkpt lat="44.005623634205335" lon="12.012628270352183"><ele>547.2</ele><time>2026-04-19T09:08:53.001Z</time></trkpt><trkpt lat="44.005614870023685" lon="12.012481997368617"><ele>545.6</ele><time>2026-04-19T09:08:54.001Z</time></trkpt><trkpt lat="44.00557495886117" lon="12.012372346999406"><ele>544.0</ele><time>2026-04-19T09:08:55.001Z</time></trkpt><trkpt lat="44.005563527757474" lon="12.012220079545997"><ele>550.4</ele><time>2026-04-19T09:08:56.001Z</time></trkpt><trkpt lat="44.00555277097082" lon="12.012073853219452"><ele>556.8</ele><time>2026-04-19T09:08:57.001Z</time></trkpt><trkpt lat="44.005516165481374" lon="12.011949073343672"><ele>563.2</ele><time>2026-04-19T09:08:58.001Z</time></trkpt><trkpt lat="44.00546150862738" lon="12.011870207970151"><ele>569.6</ele><time>2026-04-19T09:08:59.001Z</time></trkpt><trkpt lat="44.00538545980216" lon="12.011807106083848"><ele>576.0</ele><time>2026-04-19T09:09:00.001Z</time></trkpt><trkpt lat="44.00529544537542" lon="12.011736773190798"><ele>576.0</ele><time>2026-04-19T09:09:01.001Z</time></trkpt><trkpt lat="44.00521629438397" lon="12.011690626177145"><ele>576.0</ele><time>2026-04-19T09:09:02.001Z</time></trkpt><trkpt lat="44.005124343733385" lon="12.011721624607379"><ele>576.0</ele><time>2026-04-19T09:09:03.001Z</time></trkpt><trkpt lat="44.00502055590788" lon="12.011703855438476"><ele>576.0</ele><time>2026-04-19T09:09:04.001Z</time></trkpt><trkpt lat="44.00495269202445" lon="12.011710253321386"><ele>576.0</ele><time>2026-04-19T09:09:05.001Z</time></trkpt><trkpt lat="44.00487587595557" lon="12.011638754327198"><ele>576.0</ele><time>2026-04-19T09:09:07.001Z</time></trkpt><trkpt lat="44.00483678667711" lon="12.01152506915196"><ele>572.8333333333334</ele><time>2026-04-19T09:09:09.001Z</time></trkpt><trkpt lat="44.00476591472348" lon="12.011390813267115"><ele>569.6666666666666</ele><time>2026-04-19T09:09:11.001Z</time></trkpt><trkpt lat="44.004754258780736" lon="12.011299127105314"><ele>566.5</ele><time>2026-04-19T09:09:12.001Z</time></trkpt><trkpt lat="44.004771065508294" lon="12.011186186353244"><ele>563.3333333333333</ele><time>2026-04-19T09:09:13.001Z</time></trkpt><trkpt lat="44.004782877120775" lon="12.011061185243518"><ele>560.1666666666666</ele><time>2026-04-19T09:09:14.001Z</time></trkpt><trkpt lat="44.00474329233635" lon="12.010958155232176"><ele>557.0</ele><time>2026-04-19T09:09:15.001Z</time></trkpt><trkpt lat="44.00467589563438" lon="12.010899891000618"><ele>560.0</ele><time>2026-04-19T09:09:16.001Z</time></trkpt><trkpt lat="44.004682374427134" lon="12.010782051350771"><ele>563.0</ele><time>2026-04-19T09:09:17.001Z</time></trkpt><trkpt lat="44.004718636895994" lon="12.010643679121802"><ele>566.0</ele><time>2026-04-19T09:09:18.001Z</time></trkpt><trkpt lat="44.00476971010679" lon="12.010535332108525"><ele>569.0</ele><time>2026-04-19T09:09:19.001Z</time></trkpt><trkpt lat="44.004769446502756" lon="12.010434047934321"><ele>572.0</ele><time>2026-04-19T09:09:20.001Z</time></trkpt><trkpt lat="44.00474114284188" lon="12.010352275809842"><ele>575.0</ele><time>2026-04-19T09:09:21.001Z</time></trkpt><trkpt lat="44.00467296729923" lon="12.010216372778915"><ele>575.0</ele><time>2026-04-19T09:09:23.001Z</time></trkpt><trkpt lat="44.00459261453422" lon="12.010105401948305"><ele>575.0</ele><time>2026-04-19T09:09:25.001Z</time></trkpt><trkpt lat="44.00449205536791" lon="12.01001214809649"><ele>575.0</ele><time>2026-04-19T09:09:27.001Z</time></trkpt><trkpt lat="44.00442514357386" lon="12.009950948209754"><ele>575.0</ele><time>2026-04-19T09:09:28.001Z</time></trkpt><trkpt lat="44.00434731887022" lon="12.009909658258968"><ele>575.0</ele><time>2026-04-19T09:09:29.001Z</time></trkpt><trkpt lat="44.00425735887136" lon="12.009864620195998"><ele>573.8333333333333</ele><time>2026-04-19T09:09:30.001Z</time></trkpt><trkpt lat="44.00416881702379" lon="12.009818699759009"><ele>572.6666666666666</ele><time>2026-04-19T09:09:31.001Z</time></trkpt><trkpt lat="44.00408921868365" lon="12.009802153355661"><ele>571.5</ele><time>2026-04-19T09:09:32.001Z</time></trkpt><trkpt lat="44.00400752513911" lon="12.009825998446235"><ele>570.3333333333334</ele><time>2026-04-19T09:09:33.001Z</time></trkpt><trkpt lat="44.003923940950784" lon="12.009875792969588"><ele>569.1666666666667</ele><time>2026-04-19T09:09:34.001Z</time></trkpt><trkpt lat="44.00385032167671" lon="12.00991047625902"><ele>568.0</ele><time>2026-04-19T09:09:35.001Z</time></trkpt><trkpt lat="44.00376169859955" lon="12.009924601040076"><ele>567.1999999999999</ele><time>2026-04-19T09:09:36.001Z</time></trkpt><trkpt lat="44.00367251972064" lon="12.009925481600815"><ele>566.4</ele><time>2026-04-19T09:09:37.001Z</time></trkpt><trkpt lat="44.00360083794789" lon="12.009877878405348"><ele>565.5999999999999</ele><time>2026-04-19T09:09:38Z</time></trkpt><trkpt lat="44.00358300759096" lon="12.00978890033561"><ele>564.8</ele><time>2026-04-19T09:09:39Z</time></trkpt><trkpt lat="44.003604661494315" lon="12.009678708937512"><ele>564.0</ele><time>2026-04-19T09:09:40Z</time></trkpt><trkpt lat="44.003506350167434" lon="12.009521720542113"><ele>564.0</ele><time>2026-04-19T09:09:42Z</time></trkpt><trkpt lat="44.00340962264278" lon="12.009475951325252"><ele>564.0</ele><time>2026-04-19T09:09:43Z</time></trkpt><trkpt lat="44.003341188589374" lon="12.009410346767845"><ele>564.0</ele><time>2026-04-19T09:09:44Z</time></trkpt><trkpt lat="44.00326732532551" lon="12.009352535090324"><ele>564.0</ele><time>2026-04-19T09:09:45Z</time></trkpt><trkpt lat="44.00319257934076" lon="12.00931047511436"><ele>564.0</ele><time>2026-04-19T09:09:46Z</time></trkpt><trkpt lat="44.00309926433044" lon="12.00932286274715"><ele>564.0</ele><time>2026-04-19T09:09:47Z</time></trkpt><trkpt lat="44.00301222807647" lon="12.009353404530742"><ele>561.8333333333334</ele><time>2026-04-19T09:09:48Z</time></trkpt><trkpt lat="44.002943486721165" lon="12.009382546910542"><ele>559.6666666666666</ele><time>2026-04-19T09:09:49Z</time></trkpt><trkpt lat="44.002853088124255" lon="12.009390882084396"><ele>557.5</ele><time>2026-04-19T09:09:50Z</time></trkpt><trkpt lat="44.002764328893235" lon="12.009387587807412"><ele>555.3333333333333</ele><time>2026-04-19T09:09:51Z</time></trkpt><trkpt lat="44.00268195947371" lon="12.009371208460188"><ele>553.1666666666666</ele><time>2026-04-19T09:09:52Z</time></trkpt><trkpt lat="44.002599375075334" lon="12.009333266165665"><ele>551.0</ele><time>2026-04-19T09:09:53Z</time></trkpt><trkpt lat="44.00252799430883" lon="12.009304569570716"><ele>551.0</ele><time>2026-04-19T09:09:54Z</time></trkpt><trkpt lat="44.002435888651064" lon="12.009301705529964"><ele>551.0</ele><time>2026-04-19T09:09:55Z</time></trkpt><trkpt lat="44.00235450952463" lon="12.0092810188913"><ele>551.0</ele><time>2026-04-19T09:09:56Z</time></trkpt><trkpt lat="44.002261491138675" lon="12.009285701174015"><ele>551.0</ele><time>2026-04-19T09:09:57Z</time></trkpt><trkpt lat="44.002180818713846" lon="12.009286183286465"><ele>551.0</ele><time>2026-04-19T09:09:58Z</time></trkpt><trkpt lat="44.00211564823661" lon="12.009232860318306"><ele>551.0</ele><time>2026-04-19T09:09:59Z</time></trkpt><trkpt lat="44.0020647049894" lon="12.009150387962425"><ele>551.0</ele><time>2026-04-19T09:10:00Z</time></trkpt><trkpt lat="44.00203261206627" lon="12.009038627203951"><ele>551.0</ele><time>2026-04-19T09:10:01Z</time></trkpt><trkpt lat="44.00197040044848" lon="12.008978073831532"><ele>551.0</ele><time>2026-04-19T09:10:02Z</time></trkpt><trkpt lat="44.00190484580773" lon="12.008918993217055"><ele>551.0</ele><time>2026-04-19T09:10:03Z</time></trkpt><trkpt lat="44.001827507964364" lon="12.008865769805404"><ele>551.0</ele><time>2026-04-19T09:10:04Z</time></trkpt><trkpt lat="44.00173936394059" lon="12.008817468692666"><ele>551.0</ele><time>2026-04-19T09:10:05Z</time></trkpt><trkpt lat="44.00165703911751" lon="12.008772202548464"><ele>554.4</ele><time>2026-04-19T09:10:06Z</time></trkpt><trkpt lat="44.00154379561152" lon="12.00868060953743"><ele>557.8</ele><time>2026-04-19T09:10:08Z</time></trkpt><trkpt lat="44.0014809858161" lon="12.008608097052521"><ele>561.1999999999999</ele><time>2026-04-19T09:10:09Z</time></trkpt><trkpt lat="44.001412323766814" lon="12.008527595129925"><ele>564.6</ele><time>2026-04-19T09:10:10Z</time></trkpt><trkpt lat="44.001348864267555" lon="12.008461420272335"><ele>568.0</ele><time>2026-04-19T09:10:11Z</time></trkpt><trkpt lat="44.00128679331263" lon="12.008398148228856"><ele>568.0</ele><time>2026-04-19T09:10:12Z</time></trkpt><trkpt lat="44.00122925887361" lon="12.008340831789814"><ele>568.0</ele><time>2026-04-19T09:10:13Z</time></trkpt><trkpt lat="44.001169590643926" lon="12.008283754963111"><ele>568.0</ele><time>2026-04-19T09:10:14Z</time></trkpt><trkpt lat="44.001101006461724" lon="12.008211278196022"><ele>568.0</ele><time>2026-04-19T09:10:15Z</time></trkpt><trkpt lat="44.001029719107905" lon="12.008120544469994"><ele>568.0</ele><time>2026-04-19T09:10:16Z</time></trkpt><trkpt lat="44.000973230691656" lon="12.008026438348079"><ele>568.0</ele><time>2026-04-19T09:10:17Z</time></trkpt><trkpt lat="44.00092702225086" lon="12.007933904582368"><ele>568.3333333333334</ele><time>2026-04-19T09:10:18Z</time></trkpt><trkpt lat="44.00088729236649" lon="12.007863307662092"><ele>568.6666666666667</ele><time>2026-04-19T09:10:19Z</time></trkpt><trkpt lat="44.00081021198285" lon="12.007773703972878"><ele>569.0</ele><time>2026-04-19T09:10:20Z</time></trkpt><trkpt lat="44.0007387485278" lon="12.007712094358235"><ele>569.3333333333334</ele><time>2026-04-19T09:10:21Z</time></trkpt><trkpt lat="44.00069007251809" lon="12.00763327018283"><ele>569.6666666666666</ele><time>2026-04-19T09:10:22Z</time></trkpt><trkpt lat="44.000624168953856" lon="12.007527388393857"><ele>570.0</ele><time>2026-04-19T09:10:23Z</time></trkpt><trkpt lat="44.00055105526093" lon="12.007411622656369"><ele>572.8</ele><time>2026-04-19T09:10:24Z</time></trkpt><trkpt lat="44.00047531463654" lon="12.007305114055406"><ele>575.6</ele><time>2026-04-19T09:10:25Z</time></trkpt><trkpt lat="44.00037196206643" lon="12.007222352698298"><ele>578.4</ele><time>2026-04-19T09:10:26Z</time></trkpt><trkpt lat="44.00026053185741" lon="12.007188511186053"><ele>581.2</ele><time>2026-04-19T09:10:27Z</time></trkpt><trkpt lat="44.00016326622514" lon="12.0071277825862"><ele>584.0</ele><time>2026-04-19T09:10:28Z</time></trkpt><trkpt lat="44.00009640149317" lon="12.007039551104704"><ele>584.0</ele><time>2026-04-19T09:10:29Z</time></trkpt><trkpt lat="44.00002771557581" lon="12.006955202050625"><ele>584.0</ele><time>2026-04-19T09:10:30Z</time></trkpt><trkpt lat="43.999967395975695" lon="12.006875501169388"><ele>584.0</ele><time>2026-04-19T09:10:31Z</time></trkpt><trkpt lat="43.99992658834077" lon="12.006792976378717"><ele>584.0</ele><time>2026-04-19T09:10:32Z</time></trkpt><trkpt lat="43.99988564550523" lon="12.006670751837854"><ele>584.0</ele><time>2026-04-19T09:10:33Z</time></trkpt><trkpt lat="43.99983771068727" lon="12.006519791942342"><ele>583.5</ele><time>2026-04-19T09:10:34Z</time></trkpt><trkpt lat="43.99978333616836" lon="12.006377250609704"><ele>583.0</ele><time>2026-04-19T09:10:35Z</time></trkpt><trkpt lat="43.999709429144055" lon="12.006245816463508"><ele>582.5</ele><time>2026-04-19T09:10:36Z</time></trkpt><trkpt lat="43.999613516452214" lon="12.006129720528893"><ele>582.0</ele><time>2026-04-19T09:10:37Z</time></trkpt><trkpt lat="43.999521956467795" lon="12.006031577017126"><ele>582.0</ele><time>2026-04-19T09:10:38Z</time></trkpt><trkpt lat="43.999418398836795" lon="12.005933572700147"><ele>582.0</ele><time>2026-04-19T09:10:39Z</time></trkpt><trkpt lat="43.9992925901154" lon="12.005871894019352"><ele>582.0</ele><time>2026-04-19T09:10:40Z</time></trkpt><trkpt lat="43.9992044484428" lon="12.005809119552094"><ele>582.0</ele><time>2026-04-19T09:10:41Z</time></trkpt><trkpt lat="43.9991359251769" lon="12.005732663885583"><ele>582.0</ele><time>2026-04-19T09:10:42Z</time></trkpt><trkpt lat="43.99908068802516" lon="12.005640694584464"><ele>580.4</ele><time>2026-04-19T09:10:43Z</time></trkpt><trkpt lat="43.999031641997924" lon="12.005535105911603"><ele>578.8000000000001</ele><time>2026-04-19T09:10:44Z</time></trkpt><trkpt lat="43.998967824903836" lon="12.005435730273653"><ele>577.2</ele><time>2026-04-19T09:10:45Z</time></trkpt><trkpt lat="43.99886907131521" lon="12.00535189949881"><ele>575.6</ele><time>2026-04-19T09:10:46Z</time></trkpt><trkpt lat="43.99875558742021" lon="12.005283441568295"><ele>574.0</ele><time>2026-04-19T09:10:47Z</time></trkpt><trkpt lat="43.99863047900891" lon="12.005245236943376"><ele>574.0</ele><time>2026-04-19T09:10:48Z</time></trkpt><trkpt lat="43.99852102061091" lon="12.005196395126672"><ele>574.0</ele><time>2026-04-19T09:10:49Z</time></trkpt><trkpt lat="43.99839012857633" lon="12.005140876323155"><ele>574.0</ele><time>2026-04-19T09:10:50Z</time></trkpt><trkpt lat="43.99825694718662" lon="12.005172344743373"><ele>574.0</ele><time>2026-04-19T09:10:51Z</time></trkpt><trkpt lat="43.99814496817069" lon="12.005151115870238"><ele>574.8</ele><time>2026-04-19T09:10:52Z</time></trkpt><trkpt lat="43.99804656191363" lon="12.00509996106534"><ele>575.5999999999999</ele><time>2026-04-19T09:10:53Z</time></trkpt><trkpt lat="43.99798198347125" lon="12.00501531224282"><ele>576.4</ele><time>2026-04-19T09:10:54Z</time></trkpt><trkpt lat="43.99788722754846" lon="12.004974869515774"><ele>577.1999999999999</ele><time>2026-04-19T09:10:55Z</time></trkpt><trkpt lat="43.99778605512824" lon="12.004932835640881"><ele>578.0</ele><time>2026-04-19T09:10:56Z</time></trkpt><trkpt lat="43.997674378262836" lon="12.004873123147256"><ele>575.75</ele><time>2026-04-19T09:10:57Z</time></trkpt><trkpt lat="43.997559174729375" lon="12.004818882704809"><ele>573.5</ele><time>2026-04-19T09:10:58Z</time></trkpt><trkpt lat="43.99744715887492" lon="12.004764664578312"><ele>571.25</ele><time>2026-04-19T09:10:59Z</time></trkpt><trkpt lat="43.99733928880136" lon="12.00471172278263"><ele>569.0</ele><time>2026-04-19T09:11:00Z</time></trkpt><trkpt lat="43.99723345871092" lon="12.004658571701917"><ele>569.0</ele><time>2026-04-19T09:11:01Z</time></trkpt><trkpt lat="43.99712462759095" lon="12.00460032916918"><ele>569.0</ele><time>2026-04-19T09:11:02Z</time></trkpt><trkpt lat="43.997012081120396" lon="12.00453832558991"><ele>569.0</ele><time>2026-04-19T09:11:03Z</time></trkpt><trkpt lat="43.99690161040884" lon="12.004480854671142"><ele>569.0</ele><time>2026-04-19T09:11:04Z</time></trkpt><trkpt lat="43.99679195640661" lon="12.004441361417665"><ele>569.0</ele><time>2026-04-19T09:11:05Z</time></trkpt><trkpt lat="43.996686627388144" lon="12.004389156541885"><ele>569.0</ele><time>2026-04-19T09:11:06Z</time></trkpt><trkpt lat="43.996578843619396" lon="12.004321048649304"><ele>569.0</ele><time>2026-04-19T09:11:07Z</time></trkpt><trkpt lat="43.99646801931474" lon="12.004252681837427"><ele>569.0</ele><time>2026-04-19T09:11:08Z</time></trkpt><trkpt lat="43.99635473938843" lon="12.004178516472045"><ele>568.5</ele><time>2026-04-19T09:11:09Z</time></trkpt><trkpt lat="43.996236998311225" lon="12.00410536293462"><ele>568.0</ele><time>2026-04-19T09:11:10Z</time></trkpt><trkpt lat="43.9961268947163" lon="12.004038961529831"><ele>567.5</ele><time>2026-04-19T09:11:11Z</time></trkpt><trkpt lat="43.996013301986736" lon="12.003971227662063"><ele>567.0</ele><time>2026-04-19T09:11:12Z</time></trkpt><trkpt lat="43.99589236101498" lon="12.003899369974722"><ele>575.5</ele><time>2026-04-19T09:11:13Z</time></trkpt><trkpt lat="43.995767578167744" lon="12.003825351251706"><ele>584.0</ele><time>2026-04-19T09:11:14Z</time></trkpt><trkpt lat="43.995642109758506" lon="12.003750964751832"><ele>592.5</ele><time>2026-04-19T09:11:15Z</time></trkpt><trkpt lat="43.99552351257129" lon="12.003683167614586"><ele>601.0</ele><time>2026-04-19T09:11:16Z</time></trkpt><trkpt lat="43.99541497168249" lon="12.003634155832472"><ele>601.0</ele><time>2026-04-19T09:11:17Z</time></trkpt><trkpt lat="43.995295238896205" lon="12.003618757577811"><ele>601.0</ele><time>2026-04-19T09:11:18Z</time></trkpt><trkpt lat="43.995185864084505" lon="12.003597967078054"><ele>601.0</ele><time>2026-04-19T09:11:19Z</time></trkpt><trkpt lat="43.99507335038783" lon="12.003611347908832"><ele>601.0</ele><time>2026-04-19T09:11:20Z</time></trkpt><trkpt lat="43.99496524631742" lon="12.003654361314512"><ele>606.6</ele><time>2026-04-19T09:11:21Z</time></trkpt><trkpt lat="43.99486523633521" lon="12.003685596953982"><ele>612.2</ele><time>2026-04-19T09:11:22Z</time></trkpt><trkpt lat="43.99478023903972" lon="12.003669028100827"><ele>617.8</ele><time>2026-04-19T09:11:23Z</time></trkpt><trkpt lat="43.99471026618245" lon="12.003558411540158"><ele>623.4</ele><time>2026-04-19T09:11:24Z</time></trkpt><trkpt lat="43.99462635954323" lon="12.003516249996785"><ele>629.0</ele><time>2026-04-19T09:11:25Z</time></trkpt><trkpt lat="43.99454854212407" lon="12.003433326471448"><ele>629.0</ele><time>2026-04-19T09:11:26Z</time></trkpt><trkpt lat="43.994459587024494" lon="12.003380159394629"><ele>629.0</ele><time>2026-04-19T09:11:27Z</time></trkpt><trkpt lat="43.994377329321125" lon="12.003408575139108"><ele>629.0</ele><time>2026-04-19T09:11:28Z</time></trkpt><trkpt lat="43.99429711548951" lon="12.003448920149976"><ele>629.0</ele><time>2026-04-19T09:11:29.001Z</time></trkpt><trkpt lat="43.99418329847117" lon="12.003470132309918"><ele>629.0</ele><time>2026-04-19T09:11:30.001Z</time></trkpt><trkpt lat="43.99406559822763" lon="12.00349529144142"><ele>630.6</ele><time>2026-04-19T09:11:31.001Z</time></trkpt><trkpt lat="43.993956305359895" lon="12.003544052949556"><ele>632.2</ele><time>2026-04-19T09:11:32.001Z</time></trkpt><trkpt lat="43.993874843617604" lon="12.00362057134107"><ele>633.8000000000001</ele><time>2026-04-19T09:11:33.001Z</time></trkpt><trkpt lat="43.99381170530768" lon="12.003597190524554"><ele>635.4</ele><time>2026-04-19T09:11:34.001Z</time></trkpt><trkpt lat="43.99375701563818" lon="12.003462383964044"><ele>637.0</ele><time>2026-04-19T09:11:36.001Z</time></trkpt><trkpt lat="43.99368834919115" lon="12.003398291407322"><ele>639.4000000000001</ele><time>2026-04-19T09:11:37.001Z</time></trkpt><trkpt lat="43.9936097128503" lon="12.003315517075825"><ele>641.8000000000001</ele><time>2026-04-19T09:11:38.001Z</time></trkpt><trkpt lat="43.99349574213672" lon="12.003275021151236"><ele>644.2</ele><time>2026-04-19T09:11:39.001Z</time></trkpt><trkpt lat="43.99339497022519" lon="12.00324505387654"><ele>646.6</ele><time>2026-04-19T09:11:40.001Z</time></trkpt><trkpt lat="43.99330605602728" lon="12.003199432541399"><ele>649.0</ele><time>2026-04-19T09:11:41.001Z</time></trkpt><trkpt lat="43.99324182579068" lon="12.00313324918299"><ele>649.0</ele><time>2026-04-19T09:11:42.001Z</time></trkpt><trkpt lat="43.99318960669647" lon="12.003017418350504"><ele>649.0</ele><time>2026-04-19T09:11:43Z</time></trkpt><trkpt lat="43.99312565105902" lon="12.002874291724964"><ele>649.0</ele><time>2026-04-19T09:11:44Z</time></trkpt><trkpt lat="43.99304727440389" lon="12.002742789517441"><ele>649.0</ele><time>2026-04-19T09:11:45Z</time></trkpt><trkpt lat="43.9929941345158" lon="12.002603309018161"><ele>652.5</ele><time>2026-04-19T09:11:46Z</time></trkpt><trkpt lat="43.99292820061366" lon="12.00244019458487"><ele>656.0</ele><time>2026-04-19T09:11:47Z</time></trkpt><trkpt lat="43.99282845176659" lon="12.002318150154204"><ele>659.5</ele><time>2026-04-19T09:11:48Z</time></trkpt><trkpt lat="43.99271782238167" lon="12.002231829797276"><ele>663.0</ele><time>2026-04-19T09:11:49Z</time></trkpt><trkpt lat="43.99262011898473" lon="12.002149870399236"><ele>663.0</ele><time>2026-04-19T09:11:50Z</time></trkpt><trkpt lat="43.99253751929878" lon="12.002065280490623"><ele>663.0</ele><time>2026-04-19T09:11:51Z</time></trkpt><trkpt lat="43.99247156298158" lon="12.001970183821813"><ele>663.0</ele><time>2026-04-19T09:11:52Z</time></trkpt><trkpt lat="43.9923978079283" lon="12.001863694859814"><ele>663.0</ele><time>2026-04-19T09:11:53Z</time></trkpt><trkpt lat="43.99230304733808" lon="12.001776036325156"><ele>663.0</ele><time>2026-04-19T09:11:54Z</time></trkpt><trkpt lat="43.99221311678717" lon="12.001675483112331"><ele>656.5</ele><time>2026-04-19T09:11:55Z</time></trkpt><trkpt lat="43.992111410720845" lon="12.001600567303404"><ele>650.0</ele><time>2026-04-19T09:11:56Z</time></trkpt><trkpt lat="43.992039776535734" lon="12.001527390823329"><ele>643.5</ele><time>2026-04-19T09:11:57Z</time></trkpt><trkpt lat="43.992082656259804" lon="12.001412290159475"><ele>637.0</ele><time>2026-04-19T09:11:59Z</time></trkpt><trkpt lat="43.991957038035714" lon="12.001287292566012"><ele>637.0</ele><time>2026-04-19T09:12:01Z</time></trkpt><trkpt lat="43.99190327747793" lon="12.001192683982381"><ele>637.0</ele><time>2026-04-19T09:12:02Z</time></trkpt><trkpt lat="43.99181181376106" lon="12.001089213910475"><ele>637.0</ele><time>2026-04-19T09:12:03Z</time></trkpt><trkpt lat="43.991739230991016" lon="12.000979227859611"><ele>637.0</ele><time>2026-04-19T09:12:04Z</time></trkpt><trkpt lat="43.991671160776846" lon="12.000882017479382"><ele>637.0</ele><time>2026-04-19T09:12:05Z</time></trkpt><trkpt lat="43.991587456021975" lon="12.00078715232721"><ele>630.75</ele><time>2026-04-19T09:12:06Z</time></trkpt><trkpt lat="43.99148665200847" lon="12.000717546454998"><ele>624.5</ele><time>2026-04-19T09:12:07Z</time></trkpt><trkpt lat="43.99137193968974" lon="12.000672286994563"><ele>618.25</ele><time>2026-04-19T09:12:08Z</time></trkpt><trkpt lat="43.9912534505001" lon="12.000626832759348"><ele>612.0</ele><time>2026-04-19T09:12:09Z</time></trkpt><trkpt lat="43.991156243217226" lon="12.000546495224564"><ele>612.0</ele><time>2026-04-19T09:12:10Z</time></trkpt><trkpt lat="43.99106666164454" lon="12.000460371716104"><ele>612.0</ele><time>2026-04-19T09:12:11Z</time></trkpt><trkpt lat="43.99099433673494" lon="12.000342553298754"><ele>612.0</ele><time>2026-04-19T09:12:12Z</time></trkpt><trkpt lat="43.990922509433" lon="12.000214499870204"><ele>612.0</ele><time>2026-04-19T09:12:13Z</time></trkpt><trkpt lat="43.99083778226536" lon="12.00011708379"><ele>612.0</ele><time>2026-04-19T09:12:14Z</time></trkpt><trkpt lat="43.990758176697184" lon="12.000022839821195"><ele>614.0</ele><time>2026-04-19T09:12:15Z</time></trkpt><trkpt lat="43.99067827798919" lon="11.999900953249048"><ele>616.0</ele><time>2026-04-19T09:12:16Z</time></trkpt><trkpt lat="43.99058399754597" lon="11.999817513072477"><ele>618.0</ele><time>2026-04-19T09:12:17Z</time></trkpt><trkpt lat="43.99049814789836" lon="11.999708109195407"><ele>620.0</ele><time>2026-04-19T09:12:18Z</time></trkpt><trkpt lat="43.9904121372273" lon="11.999600219932526"><ele>620.0</ele><time>2026-04-19T09:12:19Z</time></trkpt><trkpt lat="43.99032153827024" lon="11.99950173704744"><ele>620.0</ele><time>2026-04-19T09:12:20Z</time></trkpt><trkpt lat="43.99023689568699" lon="11.99939433365987"><ele>620.0</ele><time>2026-04-19T09:12:21Z</time></trkpt><trkpt lat="43.99014128100666" lon="11.999307840328164"><ele>620.0</ele><time>2026-04-19T09:12:22Z</time></trkpt><trkpt lat="43.990037170651995" lon="11.99924941391674"><ele>617.0</ele><time>2026-04-19T09:12:23Z</time></trkpt><trkpt lat="43.989944964946936" lon="11.999190909298838"><ele>614.0</ele><time>2026-04-19T09:12:24Z</time></trkpt><trkpt lat="43.98985844335178" lon="11.999141801633938"><ele>611.0</ele><time>2026-04-19T09:12:25Z</time></trkpt><trkpt lat="43.98977808314762" lon="11.999090566027416"><ele>608.0</ele><time>2026-04-19T09:12:26Z</time></trkpt><trkpt lat="43.98968294700201" lon="11.99903732004658"><ele>605.0</ele><time>2026-04-19T09:12:27Z</time></trkpt><trkpt lat="43.98958981066648" lon="11.998985885139751"><ele>605.0</ele><time>2026-04-19T09:12:28Z</time></trkpt><trkpt lat="43.98949305383019" lon="11.998931540034263"><ele>605.0</ele><time>2026-04-19T09:12:29Z</time></trkpt><trkpt lat="43.989404992786774" lon="11.998829542003302"><ele>605.0</ele><time>2026-04-19T09:12:30Z</time></trkpt><trkpt lat="43.98932381613455" lon="11.998745993810084"><ele>605.0</ele><time>2026-04-19T09:12:31Z</time></trkpt><trkpt lat="43.98924072777611" lon="11.998642052349973"><ele>605.0</ele><time>2026-04-19T09:12:32Z</time></trkpt><trkpt lat="43.989150115427535" lon="11.998556699172163"><ele>607.75</ele><time>2026-04-19T09:12:33Z</time></trkpt><trkpt lat="43.989080379202576" lon="11.998471306395075"><ele>610.5</ele><time>2026-04-19T09:12:34Z</time></trkpt><trkpt lat="43.98901582665817" lon="11.99832612162849"><ele>613.25</ele><time>2026-04-19T09:12:35Z</time></trkpt><trkpt lat="43.98897363236534" lon="11.998172938288153"><ele>616.0</ele><time>2026-04-19T09:12:36Z</time></trkpt><trkpt lat="43.9889031333735" lon="11.99801974981544"><ele>616.0</ele><time>2026-04-19T09:12:37Z</time></trkpt><trkpt lat="43.988868966612806" lon="11.997873125497259"><ele>616.0</ele><time>2026-04-19T09:12:38Z</time></trkpt><trkpt lat="43.98881664945642" lon="11.997741868952795"><ele>616.0</ele><time>2026-04-19T09:12:39Z</time></trkpt><trkpt lat="43.988763297911994" lon="11.997614375129812"><ele>616.0</ele><time>2026-04-19T09:12:40Z</time></trkpt><trkpt lat="43.98867772640781" lon="11.997515794634014"><ele>616.0</ele><time>2026-04-19T09:12:41Z</time></trkpt><trkpt lat="43.988621657064456" lon="11.99740902506674"><ele>617.8</ele><time>2026-04-19T09:12:42Z</time></trkpt><trkpt lat="43.98856518366237" lon="11.997298967662573"><ele>619.6</ele><time>2026-04-19T09:12:43Z</time></trkpt><trkpt lat="43.988515709410656" lon="11.997185245758189"><ele>621.4</ele><time>2026-04-19T09:12:44Z</time></trkpt><trkpt lat="43.9884563130374" lon="11.997069346242125"><ele>623.2</ele><time>2026-04-19T09:12:45Z</time></trkpt><trkpt lat="43.98840640119611" lon="11.99696527548406"><ele>625.0</ele><time>2026-04-19T09:12:46Z</time></trkpt><trkpt lat="43.98834301152666" lon="11.996860608826665"><ele>621.8333333333334</ele><time>2026-04-19T09:12:47Z</time></trkpt><trkpt lat="43.98828634721851" lon="11.996769347720672"><ele>618.6666666666667</ele><time>2026-04-19T09:12:48Z</time></trkpt><trkpt lat="43.98822942415576" lon="11.9966945113182"><ele>615.5</ele><time>2026-04-19T09:12:49Z</time></trkpt><trkpt lat="43.988169086988464" lon="11.996629058240835"><ele>612.3333333333334</ele><time>2026-04-19T09:12:50Z</time></trkpt><trkpt lat="43.98810247619754" lon="11.996590646518534"><ele>609.1666666666666</ele><time>2026-04-19T09:12:51Z</time></trkpt><trkpt lat="43.9880239374571" lon="11.996545055142528"><ele>606.0</ele><time>2026-04-19T09:12:52Z</time></trkpt><trkpt lat="43.98793895252954" lon="11.99648070361907"><ele>606.0</ele><time>2026-04-19T09:12:53Z</time></trkpt><trkpt lat="43.98786208938231" lon="11.996404072220447"><ele>606.0</ele><time>2026-04-19T09:12:54Z</time></trkpt><trkpt lat="43.987798857245444" lon="11.996333832303712"><ele>606.0</ele><time>2026-04-19T09:12:55Z</time></trkpt><trkpt lat="43.98773376121272" lon="11.996260356039928"><ele>606.0</ele><time>2026-04-19T09:12:56Z</time></trkpt><trkpt lat="43.98767917832356" lon="11.996202293017427"><ele>606.0</ele><time>2026-04-19T09:12:57Z</time></trkpt><trkpt lat="43.98758831520217" lon="11.996118303240126"><ele>606.0</ele><time>2026-04-19T09:12:59Z</time></trkpt><trkpt lat="43.98751036257485" lon="11.996049543498135"><ele>604.4</ele><time>2026-04-19T09:13:01Z</time></trkpt><trkpt lat="43.98740488227358" lon="11.995961093193733"><ele>602.8</ele><time>2026-04-19T09:13:03Z</time></trkpt><trkpt lat="43.98733975348731" lon="11.995908020444938"><ele>601.1999999999999</ele><time>2026-04-19T09:13:04Z</time></trkpt><trkpt lat="43.98722466131128" lon="11.995826878890844"><ele>599.6</ele><time>2026-04-19T09:13:06Z</time></trkpt><trkpt lat="43.98715614876701" lon="11.99577492662354"><ele>598.0</ele><time>2026-04-19T09:13:08Z</time></trkpt><trkpt lat="43.9870587903763" lon="11.99570340396864"><ele>598.0</ele><time>2026-04-19T09:13:10Z</time></trkpt><trkpt lat="43.986916774824756" lon="11.995642308335203"><ele>598.0</ele><time>2026-04-19T09:13:12Z</time></trkpt><trkpt lat="43.98685740786953" lon="11.99557472553183"><ele>598.0</ele><time>2026-04-19T09:13:13Z</time></trkpt><trkpt lat="43.98678715946431" lon="11.995498015025586"><ele>598.0</ele><time>2026-04-19T09:13:14Z</time></trkpt><trkpt lat="43.98683710520713" lon="11.994754495530277"><ele>599.1666666666667</ele><time>2026-04-19T09:13:15Z</time></trkpt><trkpt lat="43.98675944513027" lon="11.994662352303708"><ele>600.3333333333334</ele><time>2026-04-19T09:13:16Z</time></trkpt><trkpt lat="43.98668725320038" lon="11.99458828216507"><ele>601.5</ele><time>2026-04-19T09:13:17Z</time></trkpt><trkpt lat="43.98663038528613" lon="11.994517028468767"><ele>602.6666666666666</ele><time>2026-04-19T09:13:18Z</time></trkpt><trkpt lat="43.986573974923125" lon="11.994453834661734"><ele>603.8333333333333</ele><time>2026-04-19T09:13:19Z</time></trkpt><trkpt lat="43.98651117440822" lon="11.994390008716824"><ele>605.0</ele><time>2026-04-19T09:13:20Z</time></trkpt><trkpt lat="43.98644789045508" lon="11.99430356581036"><ele>606.3333333333333</ele><time>2026-04-19T09:13:21Z</time></trkpt><trkpt lat="43.98636163210138" lon="11.994230411989944"><ele>607.6666666666666</ele><time>2026-04-19T09:13:22Z</time></trkpt><trkpt lat="43.98627130968932" lon="11.994208684364828"><ele>609.0</ele><time>2026-04-19T09:13:23Z</time></trkpt><trkpt lat="43.98620326567618" lon="11.994172599397306"><ele>610.3333333333334</ele><time>2026-04-19T09:13:24.001Z</time></trkpt><trkpt lat="43.98616906909876" lon="11.99408630130142"><ele>611.6666666666667</ele><time>2026-04-19T09:13:25.001Z</time></trkpt><trkpt lat="43.98620256011383" lon="11.993981100022827"><ele>613.0</ele><time>2026-04-19T09:13:26.001Z</time></trkpt><trkpt lat="43.9862558088553" lon="11.993894042088332"><ele>617.0</ele><time>2026-04-19T09:13:27.001Z</time></trkpt><trkpt lat="43.98625536194939" lon="11.993797163639949"><ele>621.0</ele><time>2026-04-19T09:13:28.001Z</time></trkpt><trkpt lat="43.986199535470156" lon="11.99368559385888"><ele>625.0</ele><time>2026-04-19T09:13:29.001Z</time></trkpt><trkpt lat="43.98614682306579" lon="11.99357879724958"><ele>629.0</ele><time>2026-04-19T09:13:30.001Z</time></trkpt><trkpt lat="43.98612120022038" lon="11.993474653145963"><ele>633.0</ele><time>2026-04-19T09:13:31.001Z</time></trkpt><trkpt lat="43.98608148529692" lon="11.993365307086806"><ele>637.0</ele><time>2026-04-19T09:13:32.001Z</time></trkpt><trkpt lat="43.98604844333751" lon="11.993256494668904"><ele>638.3333333333334</ele><time>2026-04-19T09:13:33.001Z</time></trkpt><trkpt lat="43.985988424276066" lon="11.993139731760929"><ele>639.6666666666667</ele><time>2026-04-19T09:13:34.001Z</time></trkpt><trkpt lat="43.98592815562396" lon="11.993029882517138"><ele>641.0</ele><time>2026-04-19T09:13:35.001Z</time></trkpt><trkpt lat="43.9858759607019" lon="11.992946938289846"><ele>642.3333333333334</ele><time>2026-04-19T09:13:36.001Z</time></trkpt><trkpt lat="43.98582052016478" lon="11.992873476528706"><ele>643.6666666666666</ele><time>2026-04-19T09:13:37.001Z</time></trkpt><trkpt lat="43.985755304120865" lon="11.992809997701148"><ele>645.0</ele><time>2026-04-19T09:13:38.001Z</time></trkpt><trkpt lat="43.985671621857385" lon="11.992763038396113"><ele>645.0</ele><time>2026-04-19T09:13:39.001Z</time></trkpt><trkpt lat="43.985564868970805" lon="11.992734528711539"><ele>645.0</ele><time>2026-04-19T09:13:40.001Z</time></trkpt><trkpt lat="43.98546521764474" lon="11.992710185847082"><ele>645.0</ele><time>2026-04-19T09:13:41.001Z</time></trkpt><trkpt lat="43.98539030328629" lon="11.99264557836311"><ele>645.0</ele><time>2026-04-19T09:13:42.001Z</time></trkpt><trkpt lat="43.98531129361652" lon="11.99257721393933"><ele>645.0</ele><time>2026-04-19T09:13:43.001Z</time></trkpt><trkpt lat="43.985232268499566" lon="11.992506644755672"><ele>647.0</ele><time>2026-04-19T09:13:44.001Z</time></trkpt><trkpt lat="43.9851515948857" lon="11.992395073204323"><ele>649.0</ele><time>2026-04-19T09:13:45.001Z</time></trkpt><trkpt lat="43.98506340298949" lon="11.992308049940668"><ele>651.0</ele><time>2026-04-19T09:13:46.001Z</time></trkpt><trkpt lat="43.98496781108203" lon="11.992241631930467"><ele>653.0</ele><time>2026-04-19T09:13:47.001Z</time></trkpt><trkpt lat="43.98486559261106" lon="11.992166755814276"><ele>655.0</ele><time>2026-04-19T09:13:48.001Z</time></trkpt><trkpt lat="43.984759947117745" lon="11.992125459166084"><ele>655.8</ele><time>2026-04-19T09:13:49Z</time></trkpt><trkpt lat="43.98465652693934" lon="11.992101675161505"><ele>656.6</ele><time>2026-04-19T09:13:50Z</time></trkpt><trkpt lat="43.984562679798124" lon="11.992077185724172"><ele>657.4000000000001</ele><time>2026-04-19T09:13:51Z</time></trkpt><trkpt lat="43.984485832820006" lon="11.99203282496902"><ele>658.2</ele><time>2026-04-19T09:13:52Z</time></trkpt><trkpt lat="43.984396379609514" lon="11.991937107713063"><ele>659.0</ele><time>2026-04-19T09:13:54Z</time></trkpt><trkpt lat="43.98435375969106" lon="11.991851645727987"><ele>659.0</ele><time>2026-04-19T09:13:57Z</time></trkpt><trkpt lat="43.98429269986206" lon="11.991792545865206"><ele>659.0</ele><time>2026-04-19T09:14:00Z</time></trkpt><trkpt lat="43.98417562483827" lon="11.991717345182934"><ele>659.0</ele><time>2026-04-19T09:14:02Z</time></trkpt><trkpt lat="43.98409858034335" lon="11.991678980392477"><ele>659.0</ele><time>2026-04-19T09:14:03Z</time></trkpt><trkpt lat="43.98403578134913" lon="11.991625932466556"><ele>659.0</ele><time>2026-04-19T09:14:04Z</time></trkpt><trkpt lat="43.983977248728586" lon="11.991560771915134"><ele>659.0</ele><time>2026-04-19T09:14:05Z</time></trkpt><trkpt lat="43.98392406392335" lon="11.99148325228981"><ele>661.5</ele><time>2026-04-19T09:14:06Z</time></trkpt><trkpt lat="43.983867146267436" lon="11.991407753868268"><ele>664.0</ele><time>2026-04-19T09:14:07Z</time></trkpt><trkpt lat="43.9838130470407" lon="11.991335518896449"><ele>666.5</ele><time>2026-04-19T09:14:08Z</time></trkpt><trkpt lat="43.983755869066066" lon="11.99125063022402"><ele>669.0</ele><time>2026-04-19T09:14:09Z</time></trkpt><trkpt lat="43.98370850162259" lon="11.99118512212867"><ele>671.5</ele><time>2026-04-19T09:14:10Z</time></trkpt><trkpt lat="43.98363773663395" lon="11.991058878453947"><ele>674.0</ele><time>2026-04-19T09:14:12Z</time></trkpt><trkpt lat="43.983576177870574" lon="11.990907963759161"><ele>672.0</ele><time>2026-04-19T09:14:14Z</time></trkpt><trkpt lat="43.98353269725147" lon="11.99080480648663"><ele>670.0</ele><time>2026-04-19T09:14:15Z</time></trkpt><trkpt lat="43.98350551152036" lon="11.990701445404367"><ele>668.0</ele><time>2026-04-19T09:14:16Z</time></trkpt><trkpt lat="43.98349491080306" lon="11.990589306224456"><ele>666.0</ele><time>2026-04-19T09:14:17Z</time></trkpt><trkpt lat="43.983494045305086" lon="11.990479716333551"><ele>664.0</ele><time>2026-04-19T09:14:18Z</time></trkpt><trkpt lat="43.983504075371286" lon="11.990385670604919"><ele>662.0</ele><time>2026-04-19T09:14:19Z</time></trkpt><trkpt lat="43.9835062183671" lon="11.990294429457041"><ele>662.0</ele><time>2026-04-19T09:14:20Z</time></trkpt><trkpt lat="43.98349709115471" lon="11.990140666262208"><ele>662.0</ele><time>2026-04-19T09:14:22Z</time></trkpt><trkpt lat="43.98353068015751" lon="11.989999773813642"><ele>662.0</ele><time>2026-04-19T09:14:24Z</time></trkpt><trkpt lat="43.98362792446553" lon="11.989903428090797"><ele>662.0</ele><time>2026-04-19T09:14:26Z</time></trkpt><trkpt lat="43.9836578422747" lon="11.989821981800526"><ele>662.0</ele><time>2026-04-19T09:14:27Z</time></trkpt><trkpt lat="43.98368930586143" lon="11.989736324171478"><ele>663.0</ele><time>2026-04-19T09:14:28Z</time></trkpt><trkpt lat="43.98372480543983" lon="11.98958173600069"><ele>664.0</ele><time>2026-04-19T09:14:30Z</time></trkpt><trkpt lat="43.983760580009886" lon="11.989427953424368"><ele>665.0</ele><time>2026-04-19T09:14:32Z</time></trkpt><trkpt lat="43.98374673102753" lon="11.98932793246332"><ele>666.0</ele><time>2026-04-19T09:14:35Z</time></trkpt><trkpt lat="43.983739793434935" lon="11.989231096662825"><ele>667.0</ele><time>2026-04-19T09:14:38Z</time></trkpt><trkpt lat="43.98367620729382" lon="11.98914289141367"><ele>670.0</ele><time>2026-04-19T09:14:40Z</time></trkpt><trkpt lat="43.983615696699125" lon="11.989024752534839"><ele>673.0</ele><time>2026-04-19T09:14:43Z</time></trkpt><trkpt lat="43.983561706899536" lon="11.988966484321324"><ele>676.0</ele><time>2026-04-19T09:14:46Z</time></trkpt><trkpt lat="43.98351734207343" lon="11.988901047748358"><ele>679.0</ele><time>2026-04-19T09:14:48Z</time></trkpt><trkpt lat="43.98345888482653" lon="11.988827148230207"><ele>682.0</ele><time>2026-04-19T09:14:51Z</time></trkpt><trkpt lat="43.983395175857076" lon="11.988770215318128"><ele>685.0</ele><time>2026-04-19T09:14:54Z</time></trkpt><trkpt lat="43.98332964783791" lon="11.988720425512966"><ele>687.8333333333334</ele><time>2026-04-19T09:14:57Z</time></trkpt><trkpt lat="43.98327141019533" lon="11.988648117577789"><ele>690.6666666666667</ele><time>2026-04-19T09:15:00Z</time></trkpt><trkpt lat="43.98320885012676" lon="11.988553417136758"><ele>693.5</ele><time>2026-04-19T09:15:03Z</time></trkpt><trkpt lat="43.983145561696915" lon="11.988493392262132"><ele>696.3333333333334</ele><time>2026-04-19T09:15:06Z</time></trkpt><trkpt lat="43.98308087052799" lon="11.988462573553901"><ele>699.1666666666666</ele><time>2026-04-19T09:15:10Z</time></trkpt><trkpt lat="43.98301132049982" lon="11.988479846815842"><ele>702.0</ele><time>2026-04-19T09:15:14Z</time></trkpt><trkpt lat="43.98293330025905" lon="11.988417195973533"><ele>702.0</ele><time>2026-04-19T09:15:18Z</time></trkpt><trkpt lat="43.98288449516215" lon="11.988361458003485"><ele>702.0</ele><time>2026-04-19T09:15:20Z</time></trkpt><trkpt lat="43.98281232398019" lon="11.988335899014977"><ele>702.0</ele><time>2026-04-19T09:15:23Z</time></trkpt><trkpt lat="43.982744320042556" lon="11.988326343580813"><ele>702.0</ele><time>2026-04-19T09:15:25Z</time></trkpt><trkpt lat="43.982677081829955" lon="11.988274338076973"><ele>702.0</ele><time>2026-04-19T09:15:42.001Z</time></trkpt><trkpt lat="43.9825927099144" lon="11.988345632207292"><ele>702.0</ele><time>2026-04-19T09:16:08Z</time></trkpt><trkpt lat="43.98253430673956" lon="11.988397373805215"><ele>704.3333333333334</ele><time>2026-04-19T09:16:12Z</time></trkpt><trkpt lat="43.98246239136498" lon="11.988325299962376"><ele>706.6666666666666</ele><time>2026-04-19T09:16:16Z</time></trkpt><trkpt lat="43.98240070163329" lon="11.988287909098023"><ele>709.0</ele><time>2026-04-19T09:16:18Z</time></trkpt><trkpt lat="43.982324660880515" lon="11.988294856255127"><ele>711.3333333333333</ele><time>2026-04-19T09:16:25Z</time></trkpt><trkpt lat="43.9822478221217" lon="11.988249555262726"><ele>713.6666666666666</ele><time>2026-04-19T09:16:29Z</time></trkpt><trkpt lat="43.98216912565394" lon="11.988226735470437"><ele>716.0</ele><time>2026-04-19T09:16:45Z</time></trkpt><trkpt lat="43.98209622289728" lon="11.988178530806621"><ele>716.0000000000001</ele><time>2026-04-19T09:16:52Z</time></trkpt><trkpt lat="43.98203897341766" lon="11.988132071448895"><ele>716.0</ele><time>2026-04-19T09:17:00Z</time></trkpt><trkpt lat="43.98202548875013" lon="11.988044835735748"><ele>716.0</ele><time>2026-04-19T09:17:40.001Z</time></trkpt><trkpt lat="43.98197299285896" lon="11.987988249471965"><ele>716.0</ele><time>2026-04-19T09:17:55.001Z</time></trkpt><trkpt lat="43.98190750230195" lon="11.987973176773517"><ele>716.0</ele><time>2026-04-19T09:18:16Z</time></trkpt><trkpt lat="43.98182926390239" lon="11.987979785872637"><ele>716.0000000000001</ele><time>2026-04-19T09:18:20Z</time></trkpt><trkpt lat="43.981743231172366" lon="11.987984534625477"><ele>716.0</ele><time>2026-04-19T09:18:23Z</time></trkpt><trkpt lat="43.98168294736707" lon="11.98787273733958"><ele>720.5</ele><time>2026-04-19T09:18:27Z</time></trkpt><trkpt lat="43.98159513998768" lon="11.9878149622621"><ele>725.0</ele><time>2026-04-19T09:18:29Z</time></trkpt><trkpt lat="43.98152708192987" lon="11.98781860050638"><ele>729.5</ele><time>2026-04-19T09:18:30Z</time></trkpt><trkpt lat="43.9814526004386" lon="11.987821430684404"><ele>734.0</ele><time>2026-04-19T09:18:31Z</time></trkpt><trkpt lat="43.98138745418174" lon="11.987837810047488"><ele>738.5</ele><time>2026-04-19T09:18:32Z</time></trkpt><trkpt lat="43.981293288948095" lon="11.987918021526731"><ele>743.0</ele><time>2026-04-19T09:18:34Z</time></trkpt><trkpt lat="43.98122905324961" lon="11.987987386503256"><ele>743.0</ele><time>2026-04-19T09:18:36Z</time></trkpt><trkpt lat="43.98116223560605" lon="11.987995290731815"><ele>743.0</ele><time>2026-04-19T09:18:38Z</time></trkpt><trkpt lat="43.98107453315307" lon="11.987972311812621"><ele>743.0</ele><time>2026-04-19T09:18:41Z</time></trkpt><trkpt lat="43.98102611288615" lon="11.988062070318023"><ele>743.0</ele><time>2026-04-19T09:18:43Z</time></trkpt><trkpt lat="43.981004165788" lon="11.988203728129939"><ele>743.0</ele><time>2026-04-19T09:18:45Z</time></trkpt><trkpt lat="43.980997256731996" lon="11.988319927138305"><ele>743.0</ele><time>2026-04-19T09:18:47Z</time></trkpt><trkpt lat="43.980946264239435" lon="11.988410968735286"><ele>743.6666666666666</ele><time>2026-04-19T09:18:49Z</time></trkpt><trkpt lat="43.98090150568105" lon="11.988534416022883"><ele>744.3333333333333</ele><time>2026-04-19T09:18:51Z</time></trkpt><trkpt lat="43.98085627691177" lon="11.988625601164022"><ele>745.0</ele><time>2026-04-19T09:18:53Z</time></trkpt><trkpt lat="43.98081346762895" lon="11.988696014571625"><ele>745.6666666666666</ele><time>2026-04-19T09:18:55Z</time></trkpt><trkpt lat="43.98077273517251" lon="11.98877608042763"><ele>746.3333333333334</ele><time>2026-04-19T09:18:57Z</time></trkpt><trkpt lat="43.98081515650648" lon="11.988878323320344"><ele>747.0</ele><time>2026-04-19T09:19:01Z</time></trkpt><trkpt lat="43.980871629294775" lon="11.988949815944185"><ele>749.2857142857142</ele><time>2026-04-19T09:19:04Z</time></trkpt><trkpt lat="43.98090428992126" lon="11.989032091231094"><ele>751.5714285714286</ele><time>2026-04-19T09:19:06Z</time></trkpt><trkpt lat="43.98091250024098" lon="11.989123757673148"><ele>753.8571428571429</ele><time>2026-04-19T09:19:18Z</time></trkpt><trkpt lat="43.98093486588957" lon="11.989233688871307"><ele>756.1428571428571</ele><time>2026-04-19T09:19:22Z</time></trkpt><trkpt lat="43.98094923083597" lon="11.989336829707394"><ele>758.4285714285714</ele><time>2026-04-19T09:19:25Z</time></trkpt><trkpt lat="43.980932898699514" lon="11.989430304148554"><ele>760.7142857142857</ele><time>2026-04-19T09:24:37Z</time></trkpt><trkpt lat="43.980928694187746" lon="11.989522722025226"><ele>763.0</ele><time>2026-04-19T09:24:39Z</time></trkpt><trkpt lat="43.98090085235597" lon="11.989634753501747"><ele>764.6666666666667</ele><time>2026-04-19T09:24:41Z</time></trkpt><trkpt lat="43.980863845211445" lon="11.989729008315983"><ele>766.3333333333334</ele><time>2026-04-19T09:24:45Z</time></trkpt><trkpt lat="43.98083310183122" lon="11.989857257152646"><ele>768.0</ele><time>2026-04-19T09:24:47Z</time></trkpt><trkpt lat="43.98078621742053" lon="11.989983384922754"><ele>769.6666666666667</ele><time>2026-04-19T09:24:49Z</time></trkpt><trkpt lat="43.98074834801534" lon="11.990056911201433"><ele>771.3333333333334</ele><time>2026-04-19T09:24:50Z</time></trkpt><trkpt lat="43.98072436425564" lon="11.99018137757228"><ele>773.0</ele><time>2026-04-19T09:24:52Z</time></trkpt><trkpt lat="43.98078051492779" lon="11.990238062359987"><ele>772.0000000000001</ele><time>2026-04-19T09:24:55Z</time></trkpt><trkpt lat="43.98073106547108" lon="11.990294913414912"><ele>771.0</ele><time>2026-04-19T09:25:21Z</time></trkpt><trkpt lat="43.98079734701021" lon="11.99035991268143"><ele>770.0</ele><time>2026-04-19T09:25:24Z</time></trkpt><trkpt lat="43.980872600954484" lon="11.990437625470026"><ele>769.0</ele><time>2026-04-19T09:25:29Z</time></trkpt><trkpt lat="43.98090413378605" lon="11.990529688967854"><ele>768.0</ele><time>2026-04-19T09:25:31Z</time></trkpt><trkpt lat="43.9809415363071" lon="11.990646516674428"><ele>767.0</ele><time>2026-04-19T09:25:33Z</time></trkpt><trkpt lat="43.98100177307268" lon="11.990727186796557"><ele>767.0</ele><time>2026-04-19T09:25:35Z</time></trkpt><trkpt lat="43.98106491437207" lon="11.990793907416522"><ele>767.0</ele><time>2026-04-19T09:25:37Z</time></trkpt><trkpt lat="43.98110350483796" lon="11.990872835837385"><ele>767.0</ele><time>2026-04-19T09:25:49Z</time></trkpt><trkpt lat="43.98115217658026" lon="11.990934239429748"><ele>767.0</ele><time>2026-04-19T09:25:57Z</time></trkpt><trkpt lat="43.98121346017602" lon="11.990976906447482"><ele>767.0</ele><time>2026-04-19T09:26:01Z</time></trkpt><trkpt lat="43.98128067675904" lon="11.99099095203178"><ele>767.0</ele><time>2026-04-19T09:26:04Z</time></trkpt><trkpt lat="43.98138865502918" lon="11.990971904814845"><ele>767.0</ele><time>2026-04-19T09:26:08Z</time></trkpt><trkpt lat="43.981440456341296" lon="11.990883444165428"><ele>767.0</ele><time>2026-04-19T09:26:13Z</time></trkpt><trkpt lat="43.98147144866835" lon="11.990770269610055"><ele>767.0</ele><time>2026-04-19T09:26:15Z</time></trkpt><trkpt lat="43.9814156494272" lon="11.990813778545705"><ele>767.0</ele><time>2026-04-19T09:26:19Z</time></trkpt><trkpt lat="43.981426559169634" lon="11.990951427251813"><ele>767.0</ele><time>2026-04-19T09:26:21Z</time></trkpt><trkpt lat="43.98142346733958" lon="11.991121889076329"><ele>765.8333333333333</ele><time>2026-04-19T09:26:23Z</time></trkpt><trkpt lat="43.98145363055395" lon="11.991289323267104"><ele>764.6666666666666</ele><time>2026-04-19T09:26:25Z</time></trkpt><trkpt lat="43.9814835515957" lon="11.991392098934362"><ele>763.5</ele><time>2026-04-19T09:26:27Z</time></trkpt><trkpt lat="43.981501130527505" lon="11.991483934267595"><ele>762.3333333333334</ele><time>2026-04-19T09:26:29Z</time></trkpt><trkpt lat="43.98152407865186" lon="11.991566379069281"><ele>761.1666666666667</ele><time>2026-04-19T09:26:30Z</time></trkpt><trkpt lat="43.981561718589745" lon="11.99165159789735"><ele>760.0</ele><time>2026-04-19T09:26:31Z</time></trkpt><trkpt lat="43.981588678986334" lon="11.991731588882429"><ele>759.0</ele><time>2026-04-19T09:26:32Z</time></trkpt><trkpt lat="43.98164867512138" lon="11.991844371840248"><ele>758.0</ele><time>2026-04-19T09:26:34Z</time></trkpt><trkpt lat="43.98165149567362" lon="11.991977181042508"><ele>757.0</ele><time>2026-04-19T09:26:43Z</time></trkpt><trkpt lat="43.98162622834649" lon="11.992148709505784"><ele>756.0</ele><time>2026-04-19T09:26:45Z</time></trkpt><trkpt lat="43.98157589374" lon="11.99222160455869"><ele>755.0</ele><time>2026-04-19T09:26:46Z</time></trkpt><trkpt lat="43.98153801732701" lon="11.99231075424104"><ele>755.0</ele><time>2026-04-19T09:26:47Z</time></trkpt><trkpt lat="43.981533536099406" lon="11.99244952957258"><ele>755.0</ele><time>2026-04-19T09:26:48Z</time></trkpt><trkpt lat="43.98153787812201" lon="11.99260137692552"><ele>755.0</ele><time>2026-04-19T09:26:49Z</time></trkpt><trkpt lat="43.98151203411685" lon="11.99275480150722"><ele>755.0</ele><time>2026-04-19T09:26:50Z</time></trkpt><trkpt lat="43.98145390611775" lon="11.992892177473985"><ele>755.0</ele><time>2026-04-19T09:26:51Z</time></trkpt><trkpt lat="43.981384279720395" lon="11.99300677824955"><ele>752.8</ele><time>2026-04-19T09:26:52Z</time></trkpt><trkpt lat="43.98131661708532" lon="11.99309729335778"><ele>750.6</ele><time>2026-04-19T09:26:53Z</time></trkpt><trkpt lat="43.98121377518914" lon="11.99309902356696"><ele>748.4000000000001</ele><time>2026-04-19T09:26:55Z</time></trkpt><trkpt lat="43.98111467529785" lon="11.99300177965846"><ele>746.2</ele><time>2026-04-19T09:26:57Z</time></trkpt><trkpt lat="43.98105025773183" lon="11.992917482389586"><ele>744.0</ele><time>2026-04-19T09:27:00Z</time></trkpt><trkpt lat="43.980989033122874" lon="11.992830311530742"><ele>744.0</ele><time>2026-04-19T09:27:02Z</time></trkpt><trkpt lat="43.98092527825097" lon="11.992767310515365"><ele>744.0</ele><time>2026-04-19T09:27:04Z</time></trkpt><trkpt lat="43.980836452815545" lon="11.99270629267884"><ele>744.0</ele><time>2026-04-19T09:27:07Z</time></trkpt><trkpt lat="43.98076963547153" lon="11.992648654349027"><ele>744.0</ele><time>2026-04-19T09:27:09Z</time></trkpt><trkpt lat="43.98068406613782" lon="11.992565342435256"><ele>744.0</ele><time>2026-04-19T09:27:10Z</time></trkpt><trkpt lat="43.98065552226287" lon="11.992451316617457"><ele>744.0</ele><time>2026-04-19T09:27:12Z</time></trkpt><trkpt lat="43.98063453508219" lon="11.992293669656148"><ele>747.4000000000001</ele><time>2026-04-19T09:27:14Z</time></trkpt><trkpt lat="43.98059396670319" lon="11.992180012241924"><ele>750.8</ele><time>2026-04-19T09:27:16Z</time></trkpt><trkpt lat="43.98058915324682" lon="11.99201815159554"><ele>754.2</ele><time>2026-04-19T09:27:18Z</time></trkpt><trkpt lat="43.98057014201345" lon="11.991877492689246"><ele>757.5999999999999</ele><time>2026-04-19T09:27:20Z</time></trkpt><trkpt lat="43.98052305521234" lon="11.991793175840638"><ele>761.0</ele><time>2026-04-19T09:27:23Z</time></trkpt><trkpt lat="43.98045506831073" lon="11.991699373622644"><ele>759.8571428571428</ele><time>2026-04-19T09:27:25Z</time></trkpt><trkpt lat="43.98039833427291" lon="11.991642369244046"><ele>758.7142857142857</ele><time>2026-04-19T09:27:26Z</time></trkpt><trkpt lat="43.98035998105903" lon="11.991567104733669"><ele>757.5714285714286</ele><time>2026-04-19T09:27:27Z</time></trkpt><trkpt lat="43.98034331057918" lon="11.991455598604565"><ele>756.4285714285713</ele><time>2026-04-19T09:27:28Z</time></trkpt><trkpt lat="43.98032593398513" lon="11.991362518517546"><ele>755.2857142857143</ele><time>2026-04-19T09:27:29Z</time></trkpt><trkpt lat="43.98030146307646" lon="11.991277494182778"><ele>754.1428571428571</ele><time>2026-04-19T09:27:30Z</time></trkpt><trkpt lat="43.980281668347345" lon="11.991190507524436"><ele>753.0</ele><time>2026-04-19T09:27:31Z</time></trkpt><trkpt lat="43.98023089782495" lon="11.991111204322856"><ele>753.0</ele><time>2026-04-19T09:27:33Z</time></trkpt><trkpt lat="43.98018157998841" lon="11.991033706421536"><ele>753.0</ele><time>2026-04-19T09:27:35Z</time></trkpt><trkpt lat="43.980115512498664" lon="11.990975937606569"><ele>753.0</ele><time>2026-04-19T09:27:37Z</time></trkpt><trkpt lat="43.98004803210678" lon="11.990879923475381"><ele>753.0</ele><time>2026-04-19T09:27:40Z</time></trkpt><trkpt lat="43.98001941564676" lon="11.990792366904769"><ele>753.0</ele><time>2026-04-19T09:27:41Z</time></trkpt><trkpt lat="43.9800357283952" lon="11.990692727046538"><ele>753.0</ele><time>2026-04-19T09:27:43Z</time></trkpt><trkpt lat="43.9799941269194" lon="11.99062140232145"><ele>749.8333333333334</ele><time>2026-04-19T09:27:45Z</time></trkpt><trkpt lat="43.979907134060724" lon="11.990635947293434"><ele>746.6666666666666</ele><time>2026-04-19T09:27:48Z</time></trkpt><trkpt lat="43.97983584480916" lon="11.990624427272206"><ele>743.5</ele><time>2026-04-19T09:28:13Z</time></trkpt><trkpt lat="43.979760191972915" lon="11.990664959387045"><ele>740.3333333333333</ele><time>2026-04-19T09:28:15Z</time></trkpt><trkpt lat="43.9797183680881" lon="11.990739151534513"><ele>737.1666666666666</ele><time>2026-04-19T09:28:17Z</time></trkpt><trkpt lat="43.97967014731174" lon="11.990833797571948"><ele>734.0</ele><time>2026-04-19T09:33:04Z</time></trkpt><trkpt lat="43.9796816616869" lon="11.990955279058133"><ele>734.0</ele><time>2026-04-19T09:33:29Z</time></trkpt><trkpt lat="43.97971936524468" lon="11.991027456328084"><ele>734.0</ele><time>2026-04-19T09:35:30Z</time></trkpt><trkpt lat="43.97976031606928" lon="11.991101237188543"><ele>734.0</ele><time>2026-04-19T09:38:38Z</time></trkpt><trkpt lat="43.979831304779395" lon="11.991114729342915"><ele>734.0</ele><time>2026-04-19T09:39:42Z</time></trkpt><trkpt lat="43.97987594173719" lon="11.991031894783372"><ele>734.0</ele><time>2026-04-19T09:40:06Z</time></trkpt><trkpt lat="43.97986896503786" lon="11.990905775368997"><ele>734.0</ele><time>2026-04-19T09:40:09Z</time></trkpt><trkpt lat="43.97987087730633" lon="11.99077656993412"><ele>734.0</ele><time>2026-04-19T09:40:11Z</time></trkpt><trkpt lat="43.97984492669565" lon="11.990689148900199"><ele>734.0</ele><time>2026-04-19T09:40:13Z</time></trkpt><trkpt lat="43.979802047589615" lon="11.990598417013997"><ele>734.0</ele><time>2026-04-19T09:40:15Z</time></trkpt><trkpt lat="43.97973992781117" lon="11.99066289571557"><ele>734.0</ele><time>2026-04-19T09:40:17Z</time></trkpt><trkpt lat="43.97970825792128" lon="11.990771783702408"><ele>734.0</ele><time>2026-04-19T09:40:19Z</time></trkpt><trkpt lat="43.97968063836017" lon="11.99087281518205"><ele>734.0</ele><time>2026-04-19T09:41:02.001Z</time></trkpt><trkpt lat="43.97961492012619" lon="11.99097747251225"><ele>734.0</ele><time>2026-04-19T09:41:04.001Z</time></trkpt><trkpt lat="43.97956237068801" lon="11.991034801640458"><ele>734.0</ele><time>2026-04-19T09:41:05Z</time></trkpt><trkpt lat="43.97950992444098" lon="11.991087088133687"><ele>734.0</ele><time>2026-04-19T09:41:06Z</time></trkpt><trkpt lat="43.979456665413274" lon="11.991146990370376"><ele>734.0</ele><time>2026-04-19T09:41:07Z</time></trkpt><trkpt lat="43.97940348266743" lon="11.991201246938951"><ele>734.0</ele><time>2026-04-19T09:41:08Z</time></trkpt><trkpt lat="43.97935504597747" lon="11.991266010366754"><ele>734.0</ele><time>2026-04-19T09:41:09Z</time></trkpt><trkpt lat="43.97929689976552" lon="11.991343756138557"><ele>734.0</ele><time>2026-04-19T09:41:10Z</time></trkpt><trkpt lat="43.979225234253775" lon="11.99146319351213"><ele>730.8333333333333</ele><time>2026-04-19T09:41:11Z</time></trkpt><trkpt lat="43.979140611487736" lon="11.991572654013867"><ele>727.6666666666666</ele><time>2026-04-19T09:41:12Z</time></trkpt><trkpt lat="43.97907473957522" lon="11.991678779047774"><ele>724.5</ele><time>2026-04-19T09:41:13Z</time></trkpt><trkpt lat="43.979006278386535" lon="11.991765792825948"><ele>721.3333333333334</ele><time>2026-04-19T09:41:14Z</time></trkpt><trkpt lat="43.97895894881703" lon="11.991828271028824"><ele>718.1666666666667</ele><time>2026-04-19T09:41:15Z</time></trkpt><trkpt lat="43.97890237922344" lon="11.991891260500418"><ele>715.0</ele><time>2026-04-19T09:41:16Z</time></trkpt><trkpt lat="43.97883378344659" lon="11.991977300834705"><ele>715.0</ele><time>2026-04-19T09:41:17Z</time></trkpt><trkpt lat="43.97873686727102" lon="11.992052333971058"><ele>715.0</ele><time>2026-04-19T09:41:18Z</time></trkpt><trkpt lat="43.97864731028715" lon="11.99207666778393"><ele>715.0</ele><time>2026-04-19T09:41:19Z</time></trkpt><trkpt lat="43.97856364485761" lon="11.992106788812132"><ele>715.0</ele><time>2026-04-19T09:41:20Z</time></trkpt><trkpt lat="43.97849123271635" lon="11.992159523976017"><ele>715.0</ele><time>2026-04-19T09:41:21Z</time></trkpt><trkpt lat="43.97846275698629" lon="11.992297006874198"><ele>715.0</ele><time>2026-04-19T09:41:22Z</time></trkpt><trkpt lat="43.97844339991191" lon="11.992427357254508"><ele>715.0</ele><time>2026-04-19T09:41:23Z</time></trkpt><trkpt lat="43.97842007105957" lon="11.99255899194638"><ele>715.0</ele><time>2026-04-19T09:41:24Z</time></trkpt><trkpt lat="43.978401720320036" lon="11.992668963068194"><ele>715.0</ele><time>2026-04-19T09:41:25Z</time></trkpt><trkpt lat="43.978366611456245" lon="11.99286918053302"><ele>715.0</ele><time>2026-04-19T09:41:26Z</time></trkpt><trkpt lat="43.97822288299932" lon="11.993009480083638"><ele>701.0</ele><time>2026-04-19T09:41:27Z</time></trkpt><trkpt lat="43.978142458152455" lon="11.993066529676044"><ele>687.0</ele><time>2026-04-19T09:41:28Z</time></trkpt><trkpt lat="43.97804803024635" lon="11.9931335123721"><ele>673.0</ele><time>2026-04-19T09:41:29Z</time></trkpt><trkpt lat="43.97781298756016" lon="11.992832602919107"><ele>673.0</ele><time>2026-04-19T09:41:30Z</time></trkpt><trkpt lat="43.97772031297995" lon="11.992883503546098"><ele>673.0</ele><time>2026-04-19T09:41:31Z</time></trkpt><trkpt lat="43.97763180997714" lon="11.993002100457606"><ele>673.0</ele><time>2026-04-19T09:41:33Z</time></trkpt><trkpt lat="43.97770191217129" lon="11.993145275689859"><ele>673.0</ele><time>2026-04-19T09:41:35Z</time></trkpt><trkpt lat="43.9777805889601" lon="11.99322140787198"><ele>673.0</ele><time>2026-04-19T09:41:36Z</time></trkpt><trkpt lat="43.97787450927377" lon="11.993295608090595"><ele>668.8333333333334</ele><time>2026-04-19T09:41:37Z</time></trkpt><trkpt lat="43.97795429202279" lon="11.993341460886253"><ele>664.6666666666667</ele><time>2026-04-19T09:41:38Z</time></trkpt><trkpt lat="43.978039771677125" lon="11.993342251819746"><ele>660.5</ele><time>2026-04-19T09:41:40Z</time></trkpt><trkpt lat="43.97802900439939" lon="11.993437421418406"><ele>656.3333333333334</ele><time>2026-04-19T09:41:43Z</time></trkpt><trkpt lat="43.97796141751379" lon="11.99343648386051"><ele>652.1666666666666</ele><time>2026-04-19T09:41:45Z</time></trkpt><trkpt lat="43.977877807115334" lon="11.993434637243919"><ele>648.0</ele><time>2026-04-19T09:41:46Z</time></trkpt><trkpt lat="43.977793908829646" lon="11.993406220457002"><ele>648.0</ele><time>2026-04-19T09:41:47Z</time></trkpt><trkpt lat="43.97772100320787" lon="11.993342776015437"><ele>648.0</ele><time>2026-04-19T09:41:48Z</time></trkpt><trkpt lat="43.97765156422581" lon="11.993284056533561"><ele>648.0</ele><time>2026-04-19T09:41:49Z</time></trkpt><trkpt lat="43.97758883644412" lon="11.993238513471058"><ele>648.0</ele><time>2026-04-19T09:41:50Z</time></trkpt><trkpt lat="43.9775182966928" lon="11.99323142494091"><ele>648.0</ele><time>2026-04-19T09:41:51Z</time></trkpt><trkpt lat="43.97741435371952" lon="11.993222640184666"><ele>648.0</ele><time>2026-04-19T09:41:53Z</time></trkpt><trkpt lat="43.97735291793547" lon="11.993270258922735"><ele>650.8</ele><time>2026-04-19T09:41:54Z</time></trkpt><trkpt lat="43.977235505496" lon="11.99327161012152"><ele>653.5999999999999</ele><time>2026-04-19T09:41:56Z</time></trkpt><trkpt lat="43.977123165188345" lon="11.99326850197096"><ele>656.4000000000001</ele><time>2026-04-19T09:41:58Z</time></trkpt><trkpt lat="43.97704174832702" lon="11.993326972673454"><ele>659.2</ele><time>2026-04-19T09:42:00Z</time></trkpt><trkpt lat="43.976971919002516" lon="11.993232823366458"><ele>662.0</ele><time>2026-04-19T09:42:07Z</time></trkpt><trkpt lat="43.97690897312652" lon="11.99318976616569"><ele>662.0</ele><time>2026-04-19T09:42:12Z</time></trkpt><trkpt lat="43.9768570795504" lon="11.993125098030799"><ele>662.0</ele><time>2026-04-19T09:42:20Z</time></trkpt><trkpt lat="43.97679361780646" lon="11.993037045256996"><ele>662.0</ele><time>2026-04-19T09:42:25Z</time></trkpt><trkpt lat="43.97673672108197" lon="11.992904413555106"><ele>662.0</ele><time>2026-04-19T09:42:28Z</time></trkpt><trkpt lat="43.976666393078034" lon="11.992814485313122"><ele>662.0</ele><time>2026-04-19T09:42:30Z</time></trkpt><trkpt lat="43.97657885214673" lon="11.99269397018729"><ele>658.8</ele><time>2026-04-19T09:42:32Z</time></trkpt><trkpt lat="43.97655156672716" lon="11.992562309983516"><ele>655.6</ele><time>2026-04-19T09:42:34Z</time></trkpt><trkpt lat="43.976472233472265" lon="11.9924186725919"><ele>652.4</ele><time>2026-04-19T09:42:36Z</time></trkpt><trkpt lat="43.97641499808053" lon="11.99231261472744"><ele>649.1999999999999</ele><time>2026-04-19T09:42:38Z</time></trkpt><trkpt lat="43.97643723673435" lon="11.992214262183218"><ele>646.0</ele><time>2026-04-19T09:42:42Z</time></trkpt><trkpt lat="43.97644507302712" lon="11.992123579640383"><ele>646.3333333333334</ele><time>2026-04-19T09:42:45Z</time></trkpt><trkpt lat="43.976486976474455" lon="11.992051076217535"><ele>646.6666666666667</ele><time>2026-04-19T09:42:48Z</time></trkpt><trkpt lat="43.976530909594416" lon="11.991966630260434"><ele>647.0</ele><time>2026-04-19T09:42:51Z</time></trkpt><trkpt lat="43.97657902187798" lon="11.991909292912744"><ele>647.3333333333334</ele><time>2026-04-19T09:42:54Z</time></trkpt><trkpt lat="43.9766443553947" lon="11.991820023973169"><ele>647.6666666666666</ele><time>2026-04-19T09:42:56Z</time></trkpt><trkpt lat="43.97670784762641" lon="11.991699792900334"><ele>648.0</ele><time>2026-04-19T09:42:58.001Z</time></trkpt><trkpt lat="43.97673863651233" lon="11.991579019672299"><ele>648.0</ele><time>2026-04-19T09:43:00.001Z</time></trkpt><trkpt lat="43.976779132459846" lon="11.99143071793428"><ele>648.0</ele><time>2026-04-19T09:43:02.001Z</time></trkpt><trkpt lat="43.97680896813321" lon="11.991327731850154"><ele>648.0</ele><time>2026-04-19T09:43:04.001Z</time></trkpt><trkpt lat="43.97683174132101" lon="11.991244657372878"><ele>648.0</ele><time>2026-04-19T09:43:08.001Z</time></trkpt><trkpt lat="43.97685472837763" lon="11.991151468329399"><ele>648.0</ele><time>2026-04-19T09:43:17Z</time></trkpt><trkpt lat="43.976887890307054" lon="11.991072674131761"><ele>648.0</ele><time>2026-04-19T09:43:22Z</time></trkpt><trkpt lat="43.97697513086324" lon="11.990973922302466"><ele>648.0</ele><time>2026-04-19T09:43:25Z</time></trkpt><trkpt lat="43.976984702237594" lon="11.990849333113397"><ele>648.0</ele><time>2026-04-19T09:43:28Z</time></trkpt><trkpt lat="43.976996011762886" lon="11.990748750635165"><ele>648.0</ele><time>2026-04-19T09:43:35Z</time></trkpt><trkpt lat="43.97702580606478" lon="11.990644583631738"><ele>648.0</ele><time>2026-04-19T09:43:39Z</time></trkpt><trkpt lat="43.977018874685214" lon="11.990549124659225"><ele>648.0</ele><time>2026-04-19T09:43:42Z</time></trkpt><trkpt lat="43.97693528749139" lon="11.990515168641398"><ele>648.0</ele><time>2026-04-19T09:43:45Z</time></trkpt><trkpt lat="43.9768561608043" lon="11.9904377731624"><ele>646.0</ele><time>2026-04-19T09:43:48Z</time></trkpt><trkpt lat="43.97678551076566" lon="11.990406272170134"><ele>644.0</ele><time>2026-04-19T09:43:50Z</time></trkpt><trkpt lat="43.97667216968022" lon="11.990391454326874"><ele>642.0</ele><time>2026-04-19T09:43:52Z</time></trkpt><trkpt lat="43.976578279328166" lon="11.990345119545468"><ele>640.0</ele><time>2026-04-19T09:43:54Z</time></trkpt><trkpt lat="43.97647977424441" lon="11.990317264364691"><ele>638.0</ele><time>2026-04-19T09:43:56Z</time></trkpt><trkpt lat="43.97637101729512" lon="11.990303140130823"><ele>638.5</ele><time>2026-04-19T09:43:58Z</time></trkpt><trkpt lat="43.97630691103421" lon="11.990291936078595"><ele>639.0</ele><time>2026-04-19T09:44:00Z</time></trkpt><trkpt lat="43.976226908474636" lon="11.990257509936018"><ele>639.5</ele><time>2026-04-19T09:44:12Z</time></trkpt><trkpt lat="43.97613558917156" lon="11.990239761145425"><ele>640.0</ele><time>2026-04-19T09:44:18Z</time></trkpt><trkpt lat="43.976043234160144" lon="11.990142602631087"><ele>640.5</ele><time>2026-04-19T09:44:20Z</time></trkpt><trkpt lat="43.97600087669828" lon="11.990073333198644"><ele>641.0</ele><time>2026-04-19T09:44:21Z</time></trkpt><trkpt lat="43.97594897312081" lon="11.98997031125177"><ele>641.0</ele><time>2026-04-19T09:44:22Z</time></trkpt><trkpt lat="43.97589430592661" lon="11.989868878523124"><ele>641.0</ele><time>2026-04-19T09:44:23Z</time></trkpt><trkpt lat="43.9758461009065" lon="11.989749196370243"><ele>641.0</ele><time>2026-04-19T09:44:24Z</time></trkpt><trkpt lat="43.975808362083114" lon="11.989649910994055"><ele>641.0</ele><time>2026-04-19T09:44:25Z</time></trkpt><trkpt lat="43.975785026413554" lon="11.989548974331253"><ele>641.0</ele><time>2026-04-19T09:44:26Z</time></trkpt><trkpt lat="43.97577061920321" lon="11.98944351397002"><ele>641.0</ele><time>2026-04-19T09:44:27Z</time></trkpt><trkpt lat="43.97575583956589" lon="11.989286333521322"><ele>641.4</ele><time>2026-04-19T09:44:29Z</time></trkpt><trkpt lat="43.97573274234318" lon="11.989149672888223"><ele>641.8</ele><time>2026-04-19T09:44:31Z</time></trkpt><trkpt lat="43.9756305003128" lon="11.989113335244795"><ele>642.1999999999999</ele><time>2026-04-19T09:44:33Z</time></trkpt><trkpt lat="43.97555709995706" lon="11.989146047795455"><ele>642.5999999999999</ele><time>2026-04-19T09:44:34Z</time></trkpt><trkpt lat="43.975492313633474" lon="11.98922368308653"><ele>643.0</ele><time>2026-04-19T09:44:36Z</time></trkpt><trkpt lat="43.975385528792295" lon="11.989208838168144"><ele>643.0</ele><time>2026-04-19T09:44:38Z</time></trkpt><trkpt lat="43.975320862278885" lon="11.989231349524168"><ele>643.0</ele><time>2026-04-19T09:44:44Z</time></trkpt><trkpt lat="43.975254347699455" lon="11.989217300400021"><ele>643.0</ele><time>2026-04-19T09:44:54.001Z</time></trkpt><trkpt lat="43.975195850932415" lon="11.989148081287683"><ele>643.0</ele><time>2026-04-19T09:44:58.001Z</time></trkpt><trkpt lat="43.975115246595365" lon="11.989153202947776"><ele>643.0</ele><time>2026-04-19T09:45:00.001Z</time></trkpt><trkpt lat="43.97504257568174" lon="11.989162463508194"><ele>643.0</ele><time>2026-04-19T09:45:02.001Z</time></trkpt><trkpt lat="43.97496128130664" lon="11.989201216687455"><ele>643.0</ele><time>2026-04-19T09:45:04.001Z</time></trkpt><trkpt lat="43.974878512422485" lon="11.98926071821733"><ele>643.0</ele><time>2026-04-19T09:45:06.001Z</time></trkpt><trkpt lat="43.974811836589176" lon="11.989262407607903"><ele>643.0</ele><time>2026-04-19T09:45:11.001Z</time></trkpt><trkpt lat="43.97489417535062" lon="11.98924751435043"><ele>643.0</ele><time>2026-04-19T09:46:14Z</time></trkpt><trkpt lat="43.9749591070275" lon="11.98918503970191"><ele>643.0</ele><time>2026-04-19T09:46:17Z</time></trkpt><trkpt lat="43.975050177110674" lon="11.989147230214218"><ele>643.0</ele><time>2026-04-19T09:46:20Z</time></trkpt><trkpt lat="43.975152410062" lon="11.98918151739252"><ele>640.1428571428571</ele><time>2026-04-19T09:46:22Z</time></trkpt><trkpt lat="43.975218441911636" lon="11.989218276624348"><ele>637.2857142857143</ele><time>2026-04-19T09:46:25Z</time></trkpt><trkpt lat="43.975281285262284" lon="11.989252778172174"><ele>634.4285714285714</ele><time>2026-04-19T09:46:30Z</time></trkpt><trkpt lat="43.97534533249187" lon="11.989264501441951"><ele>631.5714285714286</ele><time>2026-04-19T09:46:36Z</time></trkpt><trkpt lat="43.97543712763191" lon="11.98926883873679"><ele>628.7142857142858</ele><time>2026-04-19T09:46:39Z</time></trkpt><trkpt lat="43.97550556949513" lon="11.98928215417319"><ele>625.8571428571429</ele><time>2026-04-19T09:46:43Z</time></trkpt><trkpt lat="43.975582433884746" lon="11.989270228867053"><ele>623.0</ele><time>2026-04-19T09:46:47.001Z</time></trkpt><trkpt lat="43.97565303652644" lon="11.989261062012494"><ele>623.0</ele><time>2026-04-19T09:46:49.001Z</time></trkpt><trkpt lat="43.97572612057622" lon="11.989297977322487"><ele>623.0</ele><time>2026-04-19T09:46:51.001Z</time></trkpt><trkpt lat="43.9757655045484" lon="11.989402953936981"><ele>623.0</ele><time>2026-04-19T09:46:53.001Z</time></trkpt><trkpt lat="43.97576957314219" lon="11.989498183162416"><ele>623.0</ele><time>2026-04-19T09:46:54.001Z</time></trkpt><trkpt lat="43.975811651733004" lon="11.989648781207356"><ele>623.0</ele><time>2026-04-19T09:46:56.001Z</time></trkpt><trkpt lat="43.97583971987895" lon="11.989742041454475"><ele>623.0</ele><time>2026-04-19T09:46:57.001Z</time></trkpt><trkpt lat="43.97588782690319" lon="11.989892612970046"><ele>621.8</ele><time>2026-04-19T09:46:59.001Z</time></trkpt><trkpt lat="43.9759621266676" lon="11.989996817032246"><ele>620.5999999999999</ele><time>2026-04-19T09:47:01.001Z</time></trkpt><trkpt lat="43.97604325077002" lon="11.99011031163444"><ele>619.4000000000001</ele><time>2026-04-19T09:47:03.001Z</time></trkpt><trkpt lat="43.97609062858249" lon="11.990171941407015"><ele>618.2</ele><time>2026-04-19T09:47:04.001Z</time></trkpt><trkpt lat="43.976161266176476" lon="11.990246029346608"><ele>617.0</ele><time>2026-04-19T09:47:06.001Z</time></trkpt><trkpt lat="43.97620389934321" lon="11.990333124898273"><ele>617.0</ele><time>2026-04-19T09:47:08.001Z</time></trkpt><trkpt lat="43.9763142520366" lon="11.990372610240318"><ele>617.0</ele><time>2026-04-19T09:47:11.001Z</time></trkpt><trkpt lat="43.97643265845249" lon="11.990403659452415"><ele>617.0</ele><time>2026-04-19T09:47:13.001Z</time></trkpt><trkpt lat="43.976518046205534" lon="11.99039271354776"><ele>617.0</ele><time>2026-04-19T09:47:14.001Z</time></trkpt><trkpt lat="43.976586030816335" lon="11.990405708890176"><ele>617.0</ele><time>2026-04-19T09:47:15.001Z</time></trkpt><trkpt lat="43.97666561532701" lon="11.99042962559268"><ele>620.5</ele><time>2026-04-19T09:47:17.001Z</time></trkpt><trkpt lat="43.976743979199696" lon="11.990448179425538"><ele>624.0</ele><time>2026-04-19T09:47:20.001Z</time></trkpt><trkpt lat="43.976820197423066" lon="11.990483070943041"><ele>627.5</ele><time>2026-04-19T09:47:23Z</time></trkpt><trkpt lat="43.97691107296558" lon="11.990497221006567"><ele>631.0</ele><time>2026-04-19T09:47:26Z</time></trkpt><trkpt lat="43.97697130472738" lon="11.990524377654166"><ele>634.5</ele><time>2026-04-19T09:47:28Z</time></trkpt><trkpt lat="43.97702930190571" lon="11.990604278414027"><ele>638.0</ele><time>2026-04-19T09:47:32Z</time></trkpt><trkpt lat="43.9770168824225" lon="11.990716923137793"><ele>640.0</ele><time>2026-04-19T09:47:37Z</time></trkpt><trkpt lat="43.97700116326454" lon="11.99085458257146"><ele>642.0</ele><time>2026-04-19T09:47:40Z</time></trkpt><trkpt lat="43.97695946419615" lon="11.990957364499438"><ele>644.0</ele><time>2026-04-19T09:47:43Z</time></trkpt><trkpt lat="43.97688978246972" lon="11.991030147404407"><ele>646.0</ele><time>2026-04-19T09:47:47Z</time></trkpt><trkpt lat="43.976852916363065" lon="11.991139161840465"><ele>648.0</ele><time>2026-04-19T09:47:49Z</time></trkpt><trkpt lat="43.97683445225483" lon="11.991301224538411"><ele>648.0</ele><time>2026-04-19T09:47:51Z</time></trkpt><trkpt lat="43.97678939697895" lon="11.991476359674703"><ele>648.0</ele><time>2026-04-19T09:47:54Z</time></trkpt><trkpt lat="43.976790638471044" lon="11.991625282548055"><ele>648.0</ele><time>2026-04-19T09:47:55Z</time></trkpt><trkpt lat="43.976749980486275" lon="11.991715688834697"><ele>648.0</ele><time>2026-04-19T09:47:56Z</time></trkpt><trkpt lat="43.976683238531315" lon="11.991781806446024"><ele>648.0</ele><time>2026-04-19T09:47:57Z</time></trkpt><trkpt lat="43.97660522405685" lon="11.991890510997077"><ele>646.5</ele><time>2026-04-19T09:47:59Z</time></trkpt><trkpt lat="43.976546685077246" lon="11.99192972563653"><ele>645.0</ele><time>2026-04-19T09:48:02Z</time></trkpt><trkpt lat="43.976503174823904" lon="11.99199497489258"><ele>643.5</ele><time>2026-04-19T09:48:05Z</time></trkpt><trkpt lat="43.97645894332073" lon="11.992113366813548"><ele>642.0</ele><time>2026-04-19T09:48:08Z</time></trkpt><trkpt lat="43.97641713690316" lon="11.992222084636888"><ele>640.5</ele><time>2026-04-19T09:48:10Z</time></trkpt><trkpt lat="43.97640477289577" lon="11.992362739902203"><ele>639.0</ele><time>2026-04-19T09:48:12Z</time></trkpt><trkpt lat="43.97643716605862" lon="11.992467875271473"><ele>639.0</ele><time>2026-04-19T09:48:14Z</time></trkpt><trkpt lat="43.97651067297046" lon="11.992485268175898"><ele>639.0</ele><time>2026-04-19T09:48:19Z</time></trkpt><trkpt lat="43.976435990010145" lon="11.992375342250044"><ele>639.0</ele><time>2026-04-19T09:48:31Z</time></trkpt><trkpt lat="43.9764012269974" lon="11.992297278201825"><ele>639.0</ele><time>2026-04-19T09:48:33Z</time></trkpt><trkpt lat="43.976351164547935" lon="11.992393020173342"><ele>639.0</ele><time>2026-04-19T09:48:36Z</time></trkpt><trkpt lat="43.97633538656603" lon="11.992494143246942"><ele>639.0</ele><time>2026-04-19T09:48:41Z</time></trkpt><trkpt lat="43.97633708430526" lon="11.992596817927117"><ele>640.0000000000001</ele><time>2026-04-19T09:48:45Z</time></trkpt><trkpt lat="43.97630019120081" lon="11.992670973986465"><ele>641.0</ele><time>2026-04-19T09:48:51.001Z</time></trkpt><trkpt lat="43.97624806875111" lon="11.99272397978137"><ele>642.0</ele><time>2026-04-19T09:48:55.001Z</time></trkpt><trkpt lat="43.97620002420041" lon="11.992788246247121"><ele>643.0</ele><time>2026-04-19T09:48:58.001Z</time></trkpt><trkpt lat="43.97612499493605" lon="11.992865096824424"><ele>644.0</ele><time>2026-04-19T09:49:01.001Z</time></trkpt><trkpt lat="43.976067423585405" lon="11.99293052260475"><ele>645.0000000000001</ele><time>2026-04-19T09:49:03.001Z</time></trkpt><trkpt lat="43.97604430115596" lon="11.993020762879112"><ele>646.0</ele><time>2026-04-19T09:49:05.001Z</time></trkpt><trkpt lat="43.97603382615544" lon="11.993141827044083"><ele>646.0000000000001</ele><time>2026-04-19T09:49:08.001Z</time></trkpt><trkpt lat="43.97604172345575" lon="11.993255371906075"><ele>646.0</ele><time>2026-04-19T09:49:11.001Z</time></trkpt><trkpt lat="43.97603287132803" lon="11.993356383775806"><ele>646.0</ele><time>2026-04-19T09:49:14.001Z</time></trkpt><trkpt lat="43.97604662709289" lon="11.993456472224974"><ele>646.0</ele><time>2026-04-19T09:49:17.001Z</time></trkpt><trkpt lat="43.976057710487765" lon="11.993550455084451"><ele>646.0</ele><time>2026-04-19T09:49:20.001Z</time></trkpt><trkpt lat="43.97605998465167" lon="11.993650148864234"><ele>646.0000000000001</ele><time>2026-04-19T09:50:07Z</time></trkpt><trkpt lat="43.976048798373114" lon="11.993548510362654"><ele>646.0</ele><time>2026-04-19T09:50:32Z</time></trkpt><trkpt lat="43.97604784498168" lon="11.993458945203853"><ele>646.0</ele><time>2026-04-19T09:50:35Z</time></trkpt><trkpt lat="43.97603393475093" lon="11.993357228864111"><ele>646.0</ele><time>2026-04-19T09:50:38Z</time></trkpt><trkpt lat="43.97603199967594" lon="11.993269025103434"><ele>646.0</ele><time>2026-04-19T09:50:42Z</time></trkpt><trkpt lat="43.97602887923305" lon="11.993156311616296"><ele>646.0</ele><time>2026-04-19T09:50:45Z</time></trkpt><trkpt lat="43.97607599696103" lon="11.9930739872833"><ele>646.0</ele><time>2026-04-19T09:50:48Z</time></trkpt><trkpt lat="43.976074133459555" lon="11.992950799294759"><ele>646.0</ele><time>2026-04-19T09:51:20.001Z</time></trkpt><trkpt lat="43.97612871789912" lon="11.99289768008742"><ele>646.0</ele><time>2026-04-19T09:51:25.001Z</time></trkpt><trkpt lat="43.97617288323975" lon="11.992812766945669"><ele>646.0</ele><time>2026-04-19T09:51:28.001Z</time></trkpt><trkpt lat="43.97622716068446" lon="11.992731719918192"><ele>646.0</ele><time>2026-04-19T09:51:31.001Z</time></trkpt><trkpt lat="43.97629589121881" lon="11.992670265751192"><ele>646.0</ele><time>2026-04-19T09:51:34Z</time></trkpt><trkpt lat="43.97631080468325" lon="11.992552353140548"><ele>646.0</ele><time>2026-04-19T09:51:37Z</time></trkpt><trkpt lat="43.97632812052698" lon="11.992455659853844"><ele>646.0</ele><time>2026-04-19T09:51:40Z</time></trkpt><trkpt lat="43.97635991222452" lon="11.99234693983799"><ele>646.0</ele><time>2026-04-19T09:51:43Z</time></trkpt><trkpt lat="43.976435330160726" lon="11.992355445504831"><ele>646.0</ele><time>2026-04-19T09:51:48Z</time></trkpt><trkpt lat="43.97647037613338" lon="11.992440371950448"><ele>646.0</ele><time>2026-04-19T09:51:50Z</time></trkpt><trkpt lat="43.976508046627416" lon="11.992583592856686"><ele>646.0</ele><time>2026-04-19T09:51:52Z</time></trkpt><trkpt lat="43.97654197848153" lon="11.992674874748667"><ele>646.0</ele><time>2026-04-19T09:51:53Z</time></trkpt><trkpt lat="43.97658349590833" lon="11.992741667263966"><ele>646.0</ele><time>2026-04-19T09:51:54Z</time></trkpt><trkpt lat="43.976633378655166" lon="11.992806393300507"><ele>646.0</ele><time>2026-04-19T09:51:55Z</time></trkpt><trkpt lat="43.97668288293267" lon="11.992862823534178"><ele>646.0</ele><time>2026-04-19T09:51:56Z</time></trkpt><trkpt lat="43.97674555371261" lon="11.992927306515883"><ele>646.0</ele><time>2026-04-19T09:51:58Z</time></trkpt><trkpt lat="43.97677954386795" lon="11.993039371868356"><ele>646.0</ele><time>2026-04-19T09:52:00Z</time></trkpt><trkpt lat="43.976835121443514" lon="11.993115594888478"><ele>646.0</ele><time>2026-04-19T09:52:03Z</time></trkpt><trkpt lat="43.976901726488755" lon="11.993211847818529"><ele>646.0</ele><time>2026-04-19T09:52:08Z</time></trkpt><trkpt lat="43.9769716282389" lon="11.993272322430046"><ele>649.1999999999999</ele><time>2026-04-19T09:52:10Z</time></trkpt><trkpt lat="43.977053527232044" lon="11.993320909680556"><ele>652.4</ele><time>2026-04-19T09:52:12Z</time></trkpt><trkpt lat="43.97714069943605" lon="11.993286329258288"><ele>655.6</ele><time>2026-04-19T09:52:15Z</time></trkpt><trkpt lat="43.977236669016214" lon="11.993280923924099"><ele>658.8</ele><time>2026-04-19T09:52:17Z</time></trkpt><trkpt lat="43.97734983081849" lon="11.99329394722584"><ele>662.0</ele><time>2026-04-19T09:52:19Z</time></trkpt><trkpt lat="43.977449272733054" lon="11.993302822230048"><ele>664.75</ele><time>2026-04-19T09:52:21Z</time></trkpt><trkpt lat="43.977533419207056" lon="11.993293107757179"><ele>667.5</ele><time>2026-04-19T09:52:23Z</time></trkpt><trkpt lat="43.97765436013141" lon="11.993334594743382"><ele>670.25</ele><time>2026-04-19T09:52:25Z</time></trkpt><trkpt lat="43.977755341944295" lon="11.993407917418287"><ele>673.0</ele><time>2026-04-19T09:52:27Z</time></trkpt><trkpt lat="43.977872930509335" lon="11.993482972922228"><ele>673.0</ele><time>2026-04-19T09:52:29Z</time></trkpt><trkpt lat="43.977974813280504" lon="11.993485904465608"><ele>673.0</ele><time>2026-04-19T09:52:31Z</time></trkpt><trkpt lat="43.978049734028964" lon="11.993448521824924"><ele>673.0</ele><time>2026-04-19T09:52:35Z</time></trkpt><trkpt lat="43.978011207479696" lon="11.993367594378066"><ele>673.0</ele><time>2026-04-19T09:52:38Z</time></trkpt><trkpt lat="43.97794303428646" lon="11.99335266535517"><ele>673.0</ele><time>2026-04-19T09:52:40Z</time></trkpt><trkpt lat="43.97783501000857" lon="11.99328387943493"><ele>673.0</ele><time>2026-04-19T09:52:41Z</time></trkpt><trkpt lat="43.97775779498673" lon="11.993190637186924"><ele>673.0</ele><time>2026-04-19T09:52:42Z</time></trkpt><trkpt lat="43.97769581181485" lon="11.993119667449797"><ele>673.0</ele><time>2026-04-19T09:52:43Z</time></trkpt><trkpt lat="43.97767592783147" lon="11.99303188033228"><ele>673.0</ele><time>2026-04-19T09:52:44Z</time></trkpt><trkpt lat="43.97767705297354" lon="11.992935399834604"><ele>673.0</ele><time>2026-04-19T09:52:45Z</time></trkpt><trkpt lat="43.97778204107302" lon="11.992855851487107"><ele>673.0</ele><time>2026-04-19T09:52:47Z</time></trkpt><trkpt lat="43.97786001454847" lon="11.992818364803579"><ele>673.0</ele><time>2026-04-19T09:52:51Z</time></trkpt><trkpt lat="43.97793401567613" lon="11.992775776997927"><ele>673.0</ele><time>2026-04-19T09:52:54Z</time></trkpt><trkpt lat="43.97800850322454" lon="11.992706396939496"><ele>673.0</ele><time>2026-04-19T09:53:43Z</time></trkpt><trkpt lat="43.97807157478957" lon="11.992704729787931"><ele>673.0</ele><time>2026-04-19T09:53:50Z</time></trkpt><trkpt lat="43.97819553831877" lon="11.99266501682699"><ele>673.0</ele><time>2026-04-19T09:53:52Z</time></trkpt><trkpt lat="43.97826394949681" lon="11.992648227924047"><ele>673.0</ele><time>2026-04-19T09:53:53Z</time></trkpt><trkpt lat="43.978375965962776" lon="11.992633742861956"><ele>673.0</ele><time>2026-04-19T09:53:55Z</time></trkpt><trkpt lat="43.97840600763031" lon="11.992533469078593"><ele>673.0</ele><time>2026-04-19T09:53:58Z</time></trkpt><trkpt lat="43.978326311829754" lon="11.992572616097949"><ele>673.0</ele><time>2026-04-19T09:54:00Z</time></trkpt><trkpt lat="43.97827054975787" lon="11.992656765141716"><ele>673.0</ele><time>2026-04-19T09:54:01Z</time></trkpt><trkpt lat="43.97820699626525" lon="11.992690980028685"><ele>673.0</ele><time>2026-04-19T09:54:02Z</time></trkpt><trkpt lat="43.9781430529385" lon="11.992691646397455"><ele>673.0</ele><time>2026-04-19T09:54:03Z</time></trkpt><trkpt lat="43.97806696261512" lon="11.992704162438127"><ele>673.0</ele><time>2026-04-19T09:54:04Z</time></trkpt><trkpt lat="43.97798200921272" lon="11.992754543689337"><ele>673.0</ele><time>2026-04-19T09:54:05Z</time></trkpt><trkpt lat="43.97790689018233" lon="11.992824062783551"><ele>673.0</ele><time>2026-04-19T09:54:06Z</time></trkpt><trkpt lat="43.97781413774785" lon="11.992873823126581"><ele>673.0</ele><time>2026-04-19T09:54:07Z</time></trkpt><trkpt lat="43.97772444725974" lon="11.992895762188427"><ele>673.0</ele><time>2026-04-19T09:54:08Z</time></trkpt><trkpt lat="43.9776556731809" lon="11.992953073969877"><ele>673.0</ele><time>2026-04-19T09:54:09Z</time></trkpt><trkpt lat="43.97764767069229" lon="11.993049770443331"><ele>673.0</ele><time>2026-04-19T09:54:10Z</time></trkpt><trkpt lat="43.97767648878939" lon="11.99313495864999"><ele>673.0</ele><time>2026-04-19T09:54:11Z</time></trkpt><trkpt lat="43.977727808051505" lon="11.993198806575018"><ele>673.0</ele><time>2026-04-19T09:54:12Z</time></trkpt><trkpt lat="43.97780284963625" lon="11.993283513176205"><ele>673.0</ele><time>2026-04-19T09:54:13Z</time></trkpt><trkpt lat="43.97787974347053" lon="11.993309457906141"><ele>673.0</ele><time>2026-04-19T09:54:14Z</time></trkpt><trkpt lat="43.97794994387412" lon="11.993337561221567"><ele>670.2</ele><time>2026-04-19T09:54:15Z</time></trkpt><trkpt lat="43.97802676980034" lon="11.99336575057861"><ele>667.4</ele><time>2026-04-19T09:54:16Z</time></trkpt><trkpt lat="43.97811199146764" lon="11.993407748965629"><ele>664.6</ele><time>2026-04-19T09:54:17Z</time></trkpt><trkpt lat="43.97819100200713" lon="11.993447117818405"><ele>661.8000000000001</ele><time>2026-04-19T09:54:18Z</time></trkpt><trkpt lat="43.97828323735626" lon="11.993450257771363"><ele>659.0</ele><time>2026-04-19T09:54:19Z</time></trkpt><trkpt lat="43.978390273247754" lon="11.993458605878514"><ele>659.0</ele><time>2026-04-19T09:54:20Z</time></trkpt><trkpt lat="43.97849639911009" lon="11.993474706061722"><ele>659.0</ele><time>2026-04-19T09:54:21Z</time></trkpt><trkpt lat="43.97859012973172" lon="11.993507120577318"><ele>659.0</ele><time>2026-04-19T09:54:22Z</time></trkpt><trkpt lat="43.9786816727619" lon="11.993560609883795"><ele>659.0</ele><time>2026-04-19T09:54:23Z</time></trkpt><trkpt lat="43.978772145822816" lon="11.993653190165054"><ele>659.0</ele><time>2026-04-19T09:54:24Z</time></trkpt><trkpt lat="43.97885030847391" lon="11.993729590009663"><ele>659.0</ele><time>2026-04-19T09:54:25Z</time></trkpt><trkpt lat="43.978933419426795" lon="11.993793409414986"><ele>659.0</ele><time>2026-04-19T09:54:26Z</time></trkpt><trkpt lat="43.97902396626006" lon="11.99385914872884"><ele>659.0</ele><time>2026-04-19T09:54:27Z</time></trkpt><trkpt lat="43.97911492346429" lon="11.993891924314282"><ele>659.0</ele><time>2026-04-19T09:54:28Z</time></trkpt><trkpt lat="43.97919312420574" lon="11.993990389756402"><ele>659.0</ele><time>2026-04-19T09:54:29Z</time></trkpt><trkpt lat="43.97924710781356" lon="11.994085351623632"><ele>661.0</ele><time>2026-04-19T09:54:30Z</time></trkpt><trkpt lat="43.97929283787152" lon="11.994189241056514"><ele>663.0</ele><time>2026-04-19T09:54:31Z</time></trkpt><trkpt lat="43.97933744990338" lon="11.994304408954038"><ele>665.0</ele><time>2026-04-19T09:54:32Z</time></trkpt><trkpt lat="43.97935394890714" lon="11.994399134936836"><ele>667.0</ele><time>2026-04-19T09:54:33Z</time></trkpt><trkpt lat="43.979359147633396" lon="11.994494859195383"><ele>669.0</ele><time>2026-04-19T09:54:34Z</time></trkpt><trkpt lat="43.979375423053604" lon="11.99458767048275"><ele>671.0</ele><time>2026-04-19T09:54:35Z</time></trkpt><trkpt lat="43.979407789196685" lon="11.994684920285442"><ele>671.0</ele><time>2026-04-19T09:54:36Z</time></trkpt><trkpt lat="43.979453836321724" lon="11.99480151342328"><ele>671.0</ele><time>2026-04-19T09:54:37Z</time></trkpt><trkpt lat="43.97948500059152" lon="11.994898019121575"><ele>671.0</ele><time>2026-04-19T09:54:38Z</time></trkpt><trkpt lat="43.97951406898184" lon="11.99500616449217"><ele>671.0</ele><time>2026-04-19T09:54:39Z</time></trkpt><trkpt lat="43.979541698224956" lon="11.995116126484106"><ele>671.0</ele><time>2026-04-19T09:54:40Z</time></trkpt><trkpt lat="43.97957731656289" lon="11.995223535540486"><ele>671.0</ele><time>2026-04-19T09:54:41Z</time></trkpt><trkpt lat="43.979622635498835" lon="11.995311304944822"><ele>670.4285714285714</ele><time>2026-04-19T09:54:42Z</time></trkpt><trkpt lat="43.97968316413831" lon="11.995382173839774"><ele>669.8571428571429</ele><time>2026-04-19T09:54:43Z</time></trkpt><trkpt lat="43.97974673419871" lon="11.995451660606868"><ele>669.2857142857143</ele><time>2026-04-19T09:54:44Z</time></trkpt><trkpt lat="43.97980106564103" lon="11.995524378790138"><ele>668.7142857142858</ele><time>2026-04-19T09:54:45Z</time></trkpt><trkpt lat="43.97983999778278" lon="11.99561970686638"><ele>668.1428571428571</ele><time>2026-04-19T09:54:46Z</time></trkpt><trkpt lat="43.9798719041566" lon="11.995699443340472"><ele>667.5714285714287</ele><time>2026-04-19T09:54:47Z</time></trkpt><trkpt lat="43.97990632144928" lon="11.995782768591306"><ele>667.0</ele><time>2026-04-19T09:54:48Z</time></trkpt><trkpt lat="43.97997225703617" lon="11.995909021636308"><ele>667.0</ele><time>2026-04-19T09:54:50Z</time></trkpt><trkpt lat="43.980042196128416" lon="11.995994639843012"><ele>667.0</ele><time>2026-04-19T09:54:52Z</time></trkpt><trkpt lat="43.980040850449555" lon="11.99609273859287"><ele>667.0</ele><time>2026-04-19T09:54:54Z</time></trkpt><trkpt lat="43.979999617095906" lon="11.99619277538306"><ele>667.0</ele><time>2026-04-19T09:54:56Z</time></trkpt><trkpt lat="43.97993180136588" lon="11.996298181436359"><ele>667.0</ele><time>2026-04-19T09:54:58Z</time></trkpt><trkpt lat="43.97987734626108" lon="11.996358501444444"><ele>667.0</ele><time>2026-04-19T09:54:59Z</time></trkpt><trkpt lat="43.97982768009857" lon="11.996416774974037"><ele>667.0</ele><time>2026-04-19T09:55:00Z</time></trkpt><trkpt lat="43.97977405140946" lon="11.996486744149546"><ele>667.0</ele><time>2026-04-19T09:55:01Z</time></trkpt><trkpt lat="43.97971107975577" lon="11.99652932675955"><ele>667.0</ele><time>2026-04-19T09:55:02Z</time></trkpt><trkpt lat="43.97964484749704" lon="11.996532611596985"><ele>667.0</ele><time>2026-04-19T09:55:03Z</time></trkpt><trkpt lat="43.9795781540371" lon="11.996545440728816"><ele>667.0</ele><time>2026-04-19T09:55:04Z</time></trkpt><trkpt lat="43.979472214983964" lon="11.996587859893358"><ele>667.0</ele><time>2026-04-19T09:55:06Z</time></trkpt><trkpt lat="43.97939176496555" lon="11.996572049274752"><ele>667.0</ele><time>2026-04-19T09:55:08Z</time></trkpt><trkpt lat="43.97929203794062" lon="11.996546877336128"><ele>667.0</ele><time>2026-04-19T09:55:10Z</time></trkpt><trkpt lat="43.97914937710097" lon="11.99653673464811"><ele>667.0</ele><time>2026-04-19T09:55:13Z</time></trkpt><trkpt lat="43.9790217908072" lon="11.996531363123564"><ele>667.0</ele><time>2026-04-19T09:55:15Z</time></trkpt><trkpt lat="43.978911464265856" lon="11.99658635905293"><ele>662.0</ele><time>2026-04-19T09:55:17Z</time></trkpt><trkpt lat="43.97888679456993" lon="11.99666939979044"><ele>657.0</ele><time>2026-04-19T09:55:18Z</time></trkpt><trkpt lat="43.97887038483396" lon="11.996774407883537"><ele>652.0</ele><time>2026-04-19T09:55:19Z</time></trkpt><trkpt lat="43.97884362547718" lon="11.996888168201508"><ele>647.0</ele><time>2026-04-19T09:55:20Z</time></trkpt><trkpt lat="43.97880709191983" lon="11.997016837833687"><ele>642.0</ele><time>2026-04-19T09:55:21Z</time></trkpt><trkpt lat="43.97875375745745" lon="11.997174287221092"><ele>642.0</ele><time>2026-04-19T09:55:22Z</time></trkpt><trkpt lat="43.978701412315644" lon="11.997329514086772"><ele>642.0</ele><time>2026-04-19T09:55:23Z</time></trkpt><trkpt lat="43.97864443074968" lon="11.997463460805749"><ele>642.0</ele><time>2026-04-19T09:55:24Z</time></trkpt><trkpt lat="43.97858416744782" lon="11.997577223963166"><ele>642.0</ele><time>2026-04-19T09:55:25Z</time></trkpt><trkpt lat="43.97851506567865" lon="11.997667678724405"><ele>642.0</ele><time>2026-04-19T09:55:26Z</time></trkpt><trkpt lat="43.97845355083944" lon="11.997750652053604"><ele>640.8000000000001</ele><time>2026-04-19T09:55:27Z</time></trkpt><trkpt lat="43.97837569138631" lon="11.997814476186544"><ele>639.6</ele><time>2026-04-19T09:55:28Z</time></trkpt><trkpt lat="43.978288982242034" lon="11.997860423232463"><ele>638.4000000000001</ele><time>2026-04-19T09:55:29Z</time></trkpt><trkpt lat="43.9782035096197" lon="11.997912242209928"><ele>637.2</ele><time>2026-04-19T09:55:30Z</time></trkpt><trkpt lat="43.978125192902404" lon="11.997980035420717"><ele>636.0</ele><time>2026-04-19T09:55:31Z</time></trkpt><trkpt lat="43.97803005452399" lon="11.99804333644579"><ele>636.0</ele><time>2026-04-19T09:55:32Z</time></trkpt><trkpt lat="43.977955362388336" lon="11.998080876389128"><ele>636.0</ele><time>2026-04-19T09:55:33Z</time></trkpt><trkpt lat="43.97788880914648" lon="11.998109906901522"><ele>636.0</ele><time>2026-04-19T09:55:34Z</time></trkpt><trkpt lat="43.97780587228716" lon="11.998120946145328"><ele>636.0</ele><time>2026-04-19T09:55:35Z</time></trkpt><trkpt lat="43.97772616575569" lon="11.998115400877362"><ele>636.0</ele><time>2026-04-19T09:55:36Z</time></trkpt><trkpt lat="43.97764393043038" lon="11.998136406911804"><ele>636.0</ele><time>2026-04-19T09:55:37Z</time></trkpt><trkpt lat="43.9775658104142" lon="11.998171333640599"><ele>637.8333333333334</ele><time>2026-04-19T09:55:38Z</time></trkpt><trkpt lat="43.97751139194708" lon="11.998217797816277"><ele>639.6666666666666</ele><time>2026-04-19T09:55:39Z</time></trkpt><trkpt lat="43.97744751982398" lon="11.998284370886699"><ele>641.5</ele><time>2026-04-19T09:55:40Z</time></trkpt><trkpt lat="43.97737592529647" lon="11.998378453662754"><ele>643.3333333333333</ele><time>2026-04-19T09:55:41Z</time></trkpt><trkpt lat="43.97730085394201" lon="11.998444549546505"><ele>645.1666666666666</ele><time>2026-04-19T09:55:42Z</time></trkpt><trkpt lat="43.97723570448536" lon="11.998519143696296"><ele>647.0</ele><time>2026-04-19T09:55:43Z</time></trkpt><trkpt lat="43.97715478038772" lon="11.998603981129751"><ele>647.0</ele><time>2026-04-19T09:55:44Z</time></trkpt><trkpt lat="43.97708973829471" lon="11.998671174271758"><ele>647.0</ele><time>2026-04-19T09:55:45Z</time></trkpt><trkpt lat="43.97700438746672" lon="11.998704477083626"><ele>647.0</ele><time>2026-04-19T09:55:46Z</time></trkpt><trkpt lat="43.97691488134094" lon="11.998703324824854"><ele>647.0</ele><time>2026-04-19T09:55:47Z</time></trkpt><trkpt lat="43.976830576069894" lon="11.998680745649304"><ele>647.0</ele><time>2026-04-19T09:55:48Z</time></trkpt><trkpt lat="43.97673017436371" lon="11.99864378496034"><ele>647.0</ele><time>2026-04-19T09:55:49Z</time></trkpt><trkpt lat="43.97661951287439" lon="11.998551651745117"><ele>644.5</ele><time>2026-04-19T09:55:51Z</time></trkpt><trkpt lat="43.97655364615465" lon="11.998510074007404"><ele>642.0</ele><time>2026-04-19T09:55:52Z</time></trkpt><trkpt lat="43.97647611797832" lon="11.998469150155877"><ele>639.5</ele><time>2026-04-19T09:55:53Z</time></trkpt><trkpt lat="43.97639917808032" lon="11.998428694437605"><ele>637.0</ele><time>2026-04-19T09:55:54Z</time></trkpt><trkpt lat="43.97632203863567" lon="11.998439724288525"><ele>634.5</ele><time>2026-04-19T09:55:55Z</time></trkpt><trkpt lat="43.97625082326828" lon="11.998500392967108"><ele>632.0</ele><time>2026-04-19T09:55:56Z</time></trkpt><trkpt lat="43.976194258672294" lon="11.998564656056391"><ele>632.0</ele><time>2026-04-19T09:55:57Z</time></trkpt><trkpt lat="43.97614186974874" lon="11.998638258549612"><ele>632.0</ele><time>2026-04-19T09:55:58Z</time></trkpt><trkpt lat="43.97609507419238" lon="11.998754285628781"><ele>632.0</ele><time>2026-04-19T09:55:59Z</time></trkpt><trkpt lat="43.97605167100698" lon="11.998876227848932"><ele>632.0</ele><time>2026-04-19T09:56:00Z</time></trkpt><trkpt lat="43.97597620577526" lon="11.998980736233873"><ele>632.0</ele><time>2026-04-19T09:56:01Z</time></trkpt><trkpt lat="43.97590221687635" lon="11.999068613253758"><ele>625.0</ele><time>2026-04-19T09:56:02Z</time></trkpt><trkpt lat="43.97583549260472" lon="11.999172146117154"><ele>618.0</ele><time>2026-04-19T09:56:03Z</time></trkpt><trkpt lat="43.975785338800684" lon="11.999287860446042"><ele>611.0</ele><time>2026-04-19T09:56:04Z</time></trkpt><trkpt lat="43.97575553138947" lon="11.999410993314305"><ele>604.0</ele><time>2026-04-19T09:56:05Z</time></trkpt><trkpt lat="43.97574863446109" lon="11.999519824254445"><ele>597.0</ele><time>2026-04-19T09:56:06Z</time></trkpt><trkpt lat="43.97575286423634" lon="11.999643616719135"><ele>597.0</ele><time>2026-04-19T09:56:07Z</time></trkpt><trkpt lat="43.975762778890115" lon="11.999766565675424"><ele>597.0</ele><time>2026-04-19T09:56:08Z</time></trkpt><trkpt lat="43.97576797956986" lon="11.99990249889363"><ele>597.0</ele><time>2026-04-19T09:56:09Z</time></trkpt><trkpt lat="43.97578341734266" lon="12.000031864245322"><ele>597.0</ele><time>2026-04-19T09:56:10Z</time></trkpt><trkpt lat="43.975816566619436" lon="12.000158633375431"><ele>597.0</ele><time>2026-04-19T09:56:11Z</time></trkpt><trkpt lat="43.97586668997989" lon="12.00025713030089"><ele>602.8000000000001</ele><time>2026-04-19T09:56:12Z</time></trkpt><trkpt lat="43.97592979023666" lon="12.00033417021183"><ele>608.6</ele><time>2026-04-19T09:56:13Z</time></trkpt><trkpt lat="43.976007504583826" lon="12.000404139729751"><ele>614.4000000000001</ele><time>2026-04-19T09:56:14Z</time></trkpt><trkpt lat="43.976067031390244" lon="12.00049797213941"><ele>620.2</ele><time>2026-04-19T09:56:15Z</time></trkpt><trkpt lat="43.976108403597465" lon="12.000602841849094"><ele>626.0</ele><time>2026-04-19T09:56:16Z</time></trkpt><trkpt lat="43.97615533921627" lon="12.000722303454053"><ele>622.8333333333333</ele><time>2026-04-19T09:56:17Z</time></trkpt><trkpt lat="43.976197283511546" lon="12.000848288384317"><ele>619.6666666666666</ele><time>2026-04-19T09:56:18Z</time></trkpt><trkpt lat="43.976198111178384" lon="12.000983508948416"><ele>616.5</ele><time>2026-04-19T09:56:19Z</time></trkpt><trkpt lat="43.97617664508547" lon="12.001095710308045"><ele>613.3333333333334</ele><time>2026-04-19T09:56:20Z</time></trkpt><trkpt lat="43.97616172096586" lon="12.00122866526244"><ele>610.1666666666667</ele><time>2026-04-19T09:56:21Z</time></trkpt><trkpt lat="43.97616313111255" lon="12.001327534262881"><ele>607.0</ele><time>2026-04-19T09:56:22Z</time></trkpt><trkpt lat="43.976170991316586" lon="12.00142321939266"><ele>607.0</ele><time>2026-04-19T09:56:23Z</time></trkpt><trkpt lat="43.97617467574607" lon="12.001599307731404"><ele>607.0</ele><time>2026-04-19T09:56:25Z</time></trkpt><trkpt lat="43.976196014440866" lon="12.001705801053323"><ele>607.0</ele><time>2026-04-19T09:56:27Z</time></trkpt><trkpt lat="43.97621284614671" lon="12.001790595337537"><ele>607.0</ele><time>2026-04-19T09:56:29Z</time></trkpt><trkpt lat="43.976145208450575" lon="12.001729728501175"><ele>607.0</ele><time>2026-04-19T09:56:35Z</time></trkpt><trkpt lat="43.97607714726182" lon="12.00165624657651"><ele>607.0</ele><time>2026-04-19T09:56:37Z</time></trkpt><trkpt lat="43.97601563921583" lon="12.001586985929274"><ele>607.0</ele><time>2026-04-19T09:56:38Z</time></trkpt><trkpt lat="43.97594076350516" lon="12.001509928075636"><ele>607.0</ele><time>2026-04-19T09:56:40Z</time></trkpt><trkpt lat="43.97584764477638" lon="12.001429374379782"><ele>607.0</ele><time>2026-04-19T09:56:42Z</time></trkpt><trkpt lat="43.97579840366463" lon="12.001370654363093"><ele>607.0</ele><time>2026-04-19T09:56:43Z</time></trkpt><trkpt lat="43.975735659485395" lon="12.001291307905507"><ele>607.0</ele><time>2026-04-19T09:56:45Z</time></trkpt><trkpt lat="43.97565353985432" lon="12.001232395561077"><ele>607.0</ele><time>2026-04-19T09:56:48Z</time></trkpt><trkpt lat="43.975588454524" lon="12.001222662294088"><ele>602.6666666666667</ele><time>2026-04-19T09:56:50Z</time></trkpt><trkpt lat="43.97550280900551" lon="12.001240901063357"><ele>598.3333333333334</ele><time>2026-04-19T09:56:53Z</time></trkpt><trkpt lat="43.97543770305651" lon="12.001292343972528"><ele>594.0</ele><time>2026-04-19T09:56:55Z</time></trkpt><trkpt lat="43.97537167957211" lon="12.001348030047733"><ele>589.6666666666666</ele><time>2026-04-19T09:56:57Z</time></trkpt><trkpt lat="43.97530906222534" lon="12.00140200919902"><ele>585.3333333333333</ele><time>2026-04-19T09:56:59Z</time></trkpt><trkpt lat="43.97526268272229" lon="12.001464470130717"><ele>581.0</ele><time>2026-04-19T09:57:02Z</time></trkpt><trkpt lat="43.97521048694906" lon="12.001570367381298"><ele>581.0</ele><time>2026-04-19T09:57:05Z</time></trkpt><trkpt lat="43.97514155941606" lon="12.001648943458257"><ele>581.0</ele><time>2026-04-19T09:57:07Z</time></trkpt><trkpt lat="43.975094004748435" lon="12.001713714857573"><ele>581.0</ele><time>2026-04-19T09:57:10Z</time></trkpt><trkpt lat="43.975045339714704" lon="12.001785003001634"><ele>581.0</ele><time>2026-04-19T09:57:41Z</time></trkpt><trkpt lat="43.97500547576468" lon="12.001679923238788"><ele>581.0</ele><time>2026-04-19T09:57:44Z</time></trkpt><trkpt lat="43.97501322995362" lon="12.001572170675955"><ele>581.0</ele><time>2026-04-19T09:57:46Z</time></trkpt><trkpt lat="43.97499261001415" lon="12.001483587091439"><ele>576.5</ele><time>2026-04-19T09:57:48Z</time></trkpt><trkpt lat="43.974939960208545" lon="12.001408735930717"><ele>572.0</ele><time>2026-04-19T09:57:51Z</time></trkpt><trkpt lat="43.97488089898931" lon="12.00135590148277"><ele>567.5</ele><time>2026-04-19T09:57:53Z</time></trkpt><trkpt lat="43.974791743122346" lon="12.001337104148257"><ele>563.0</ele><time>2026-04-19T09:57:56Z</time></trkpt><trkpt lat="43.97471595795375" lon="12.001346232722032"><ele>558.5</ele><time>2026-04-19T09:57:58Z</time></trkpt><trkpt lat="43.97462494378717" lon="12.001330173247942"><ele>554.0</ele><time>2026-04-19T09:58:00Z</time></trkpt><trkpt lat="43.97453009750201" lon="12.001339309221182"><ele>554.0</ele><time>2026-04-19T09:58:02Z</time></trkpt><trkpt lat="43.97440770917724" lon="12.001343243016874"><ele>554.0</ele><time>2026-04-19T09:58:04Z</time></trkpt><trkpt lat="43.97432890699291" lon="12.001341683810498"><ele>554.0</ele><time>2026-04-19T09:58:05Z</time></trkpt><trkpt lat="43.97424663023967" lon="12.001344736063075"><ele>554.0</ele><time>2026-04-19T09:58:06Z</time></trkpt><trkpt lat="43.97416987392185" lon="12.00135377185374"><ele>554.0</ele><time>2026-04-19T09:58:07Z</time></trkpt><trkpt lat="43.974093737905136" lon="12.001371230614486"><ele>554.0</ele><time>2026-04-19T09:58:08Z</time></trkpt><trkpt lat="43.97401805396406" lon="12.001400971519775"><ele>549.8333333333333</ele><time>2026-04-19T09:58:09Z</time></trkpt><trkpt lat="43.97394375155499" lon="12.00143531221337"><ele>545.6666666666666</ele><time>2026-04-19T09:58:10Z</time></trkpt><trkpt lat="43.97386702568433" lon="12.001469395279805"><ele>541.5</ele><time>2026-04-19T09:58:11Z</time></trkpt><trkpt lat="43.97379157048598" lon="12.001504970382983"><ele>537.3333333333334</ele><time>2026-04-19T09:58:12Z</time></trkpt><trkpt lat="43.97372181368583" lon="12.001553637452128"><ele>533.1666666666667</ele><time>2026-04-19T09:58:13Z</time></trkpt><trkpt lat="43.97365919451482" lon="12.001615015827682"><ele>529.0</ele><time>2026-04-19T09:58:14Z</time></trkpt><trkpt lat="43.973609864409475" lon="12.001683707228317"><ele>527.5</ele><time>2026-04-19T09:58:15Z</time></trkpt><trkpt lat="43.973567144084484" lon="12.001749788891352"><ele>526.0</ele><time>2026-04-19T09:58:16Z</time></trkpt><trkpt lat="43.97352633045116" lon="12.001840037799834"><ele>524.5</ele><time>2026-04-19T09:58:17Z</time></trkpt><trkpt lat="43.97350449422331" lon="12.001942802957787"><ele>523.0</ele><time>2026-04-19T09:58:18Z</time></trkpt><trkpt lat="43.9734908122414" lon="12.002059574960613"><ele>521.5</ele><time>2026-04-19T09:58:19Z</time></trkpt><trkpt lat="43.97348238125333" lon="12.002160297309235"><ele>520.0</ele><time>2026-04-19T09:58:20Z</time></trkpt><trkpt lat="43.97347482528755" lon="12.002274024944887"><ele>520.0</ele><time>2026-04-19T09:58:21Z</time></trkpt><trkpt lat="43.97347250856924" lon="12.002370701614145"><ele>520.0</ele><time>2026-04-19T09:58:22Z</time></trkpt><trkpt lat="43.973438896042076" lon="12.00251056708277"><ele>520.0</ele><time>2026-04-19T09:58:24Z</time></trkpt><trkpt lat="43.97338193479562" lon="12.002557770110599"><ele>520.0</ele><time>2026-04-19T09:58:26Z</time></trkpt><trkpt lat="43.97331287678767" lon="12.002551863881772"><ele>520.0</ele><time>2026-04-19T09:58:54Z</time></trkpt><trkpt lat="43.97322081339808" lon="12.002575634665783"><ele>520.0</ele><time>2026-04-19T09:58:56Z</time></trkpt><trkpt lat="43.9731070037496" lon="12.002551063730404"><ele>517.1666666666667</ele><time>2026-04-19T09:58:58Z</time></trkpt><trkpt lat="43.97303715435149" lon="12.002538330705121"><ele>514.3333333333334</ele><time>2026-04-19T09:59:02Z</time></trkpt><trkpt lat="43.97296338136267" lon="12.002524985793306"><ele>511.5</ele><time>2026-04-19T09:59:18Z</time></trkpt><trkpt lat="43.97288944288907" lon="12.002557499446016"><ele>508.66666666666663</ele><time>2026-04-19T09:59:32Z</time></trkpt><trkpt lat="43.97282136199235" lon="12.002515026424733"><ele>505.8333333333333</ele><time>2026-04-19T09:59:34Z</time></trkpt><trkpt lat="43.972760470011835" lon="12.002446595068418"><ele>503.0</ele><time>2026-04-19T09:59:37Z</time></trkpt><trkpt lat="43.972711023026" lon="12.00232331198385"><ele>502.99999999999994</ele><time>2026-04-19T09:59:39Z</time></trkpt><trkpt lat="43.9726621337685" lon="12.002261845516577"><ele>503.0</ele><time>2026-04-19T09:59:40Z</time></trkpt><trkpt lat="43.97261288641658" lon="12.002182362210032"><ele>503.0</ele><time>2026-04-19T09:59:41Z</time></trkpt><trkpt lat="43.97256402529523" lon="12.002106597038335"><ele>503.0</ele><time>2026-04-19T09:59:42Z</time></trkpt><trkpt lat="43.97251011511796" lon="12.002035444549122"><ele>502.99999999999994</ele><time>2026-04-19T09:59:43Z</time></trkpt><trkpt lat="43.97243982017289" lon="12.001981103474463"><ele>503.0</ele><time>2026-04-19T09:59:44Z</time></trkpt><trkpt lat="43.97236800089077" lon="12.001906948230241"><ele>503.8333333333333</ele><time>2026-04-19T09:59:45Z</time></trkpt><trkpt lat="43.972294386245885" lon="12.001887357588577"><ele>504.66666666666663</ele><time>2026-04-19T09:59:46Z</time></trkpt><trkpt lat="43.97222961648003" lon="12.001887789013646"><ele>505.5</ele><time>2026-04-19T09:59:47Z</time></trkpt><trkpt lat="43.97211264645506" lon="12.001855391321746"><ele>506.33333333333337</ele><time>2026-04-19T09:59:49Z</time></trkpt><trkpt lat="43.97205005743988" lon="12.001734770080224"><ele>507.1666666666667</ele><time>2026-04-19T09:59:51Z</time></trkpt><trkpt lat="43.97200169904958" lon="12.001647689374874"><ele>508.0</ele><time>2026-04-19T09:59:53Z</time></trkpt><trkpt lat="43.97192942084135" lon="12.001588445297646"><ele>510.6666666666667</ele><time>2026-04-19T09:59:55Z</time></trkpt><trkpt lat="43.97183676579567" lon="12.001481080906538"><ele>513.3333333333334</ele><time>2026-04-19T09:59:57Z</time></trkpt><trkpt lat="43.971802935528835" lon="12.001402343131478"><ele>516.0</ele><time>2026-04-19T10:00:00Z</time></trkpt><trkpt lat="43.97173008661296" lon="12.001389399783118"><ele>518.6666666666666</ele><time>2026-04-19T10:00:02Z</time></trkpt><trkpt lat="43.971717751851315" lon="12.001293706688912"><ele>521.3333333333333</ele><time>2026-04-19T10:00:28Z</time></trkpt><trkpt lat="43.97178606990941" lon="12.001300186998403"><ele>524.0</ele><time>2026-04-19T10:00:30Z</time></trkpt><trkpt lat="43.971849547641646" lon="12.00136833843779"><ele>524.0</ele><time>2026-04-19T10:00:31Z</time></trkpt><trkpt lat="43.971903437753376" lon="12.001457896375118"><ele>524.0</ele><time>2026-04-19T10:00:32Z</time></trkpt><trkpt lat="43.97193949398589" lon="12.001555181712044"><ele>524.0</ele><time>2026-04-19T10:00:33Z</time></trkpt><trkpt lat="43.971965884803446" lon="12.001642842380859"><ele>524.0</ele><time>2026-04-19T10:00:34Z</time></trkpt><trkpt lat="43.97198419987055" lon="12.00177422647181"><ele>524.0</ele><time>2026-04-19T10:00:35Z</time></trkpt><trkpt lat="43.97200473536283" lon="12.001928928296387"><ele>524.0</ele><time>2026-04-19T10:00:36Z</time></trkpt><trkpt lat="43.97203740315674" lon="12.002063059251794"><ele>521.3333333333333</ele><time>2026-04-19T10:00:37Z</time></trkpt><trkpt lat="43.972057053961365" lon="12.002189369362133"><ele>518.6666666666666</ele><time>2026-04-19T10:00:38Z</time></trkpt><trkpt lat="43.972054141320676" lon="12.002303333838963"><ele>516.0</ele><time>2026-04-19T10:00:39Z</time></trkpt><trkpt lat="43.97207010206934" lon="12.002419106336916"><ele>513.3333333333334</ele><time>2026-04-19T10:00:40Z</time></trkpt><trkpt lat="43.972112872825484" lon="12.002520138338511"><ele>510.6666666666667</ele><time>2026-04-19T10:00:41Z</time></trkpt><trkpt lat="43.972169046093875" lon="12.002563803847373"><ele>508.0</ele><time>2026-04-19T10:00:42Z</time></trkpt><trkpt lat="43.97225876564526" lon="12.002559516755845"><ele>508.00000000000006</ele><time>2026-04-19T10:00:43Z</time></trkpt><trkpt lat="43.972351276036555" lon="12.002522445190056"><ele>508.0</ele><time>2026-04-19T10:00:44Z</time></trkpt><trkpt lat="43.972418332378126" lon="12.002453922091604"><ele>508.0</ele><time>2026-04-19T10:00:45Z</time></trkpt><trkpt lat="43.9724748741107" lon="12.002378226540623"><ele>508.0</ele><time>2026-04-19T10:00:46Z</time></trkpt><trkpt lat="43.97252987733873" lon="12.002312149099126"><ele>508.00000000000006</ele><time>2026-04-19T10:00:47Z</time></trkpt><trkpt lat="43.972595354755406" lon="12.002246364628286"><ele>508.0</ele><time>2026-04-19T10:00:49Z</time></trkpt><trkpt lat="43.97267829135284" lon="12.00228375189743"><ele>507.28571428571433</ele><time>2026-04-19T10:00:52Z</time></trkpt><trkpt lat="43.97273873075921" lon="12.00238661611507"><ele>506.57142857142856</ele><time>2026-04-19T10:00:54Z</time></trkpt><trkpt lat="43.9728013803103" lon="12.002449002253805"><ele>505.8571428571429</ele><time>2026-04-19T10:00:58Z</time></trkpt><trkpt lat="43.97285206874939" lon="12.002502978105946"><ele>505.14285714285717</ele><time>2026-04-19T10:01:02Z</time></trkpt><trkpt lat="43.97291575204385" lon="12.00252872327446"><ele>504.42857142857144</ele><time>2026-04-19T10:01:10Z</time></trkpt><trkpt lat="43.97298171903196" lon="12.002535079225463"><ele>503.7142857142857</ele><time>2026-04-19T10:02:01Z</time></trkpt><trkpt lat="43.973045856846554" lon="12.002556421022927"><ele>503.0</ele><time>2026-04-19T10:02:28Z</time></trkpt><trkpt lat="43.973125502146196" lon="12.002538066550004"><ele>501.59999999999997</ele><time>2026-04-19T10:02:37Z</time></trkpt><trkpt lat="43.97326123564945" lon="12.002581602677829"><ele>500.19999999999993</ele><time>2026-04-19T10:02:40Z</time></trkpt><trkpt lat="43.973352268321044" lon="12.00253455975586"><ele>498.8</ele><time>2026-04-19T10:02:42Z</time></trkpt><trkpt lat="43.973409002969824" lon="12.002444076233285"><ele>497.4</ele><time>2026-04-19T10:02:48Z</time></trkpt><trkpt lat="43.97342513193594" lon="12.002284829840802"><ele>496.0</ele><time>2026-04-19T10:03:11Z</time></trkpt><trkpt lat="43.973408703697736" lon="12.002194569006708"><ele>500.8</ele><time>2026-04-19T10:03:12Z</time></trkpt><trkpt lat="43.97342392487436" lon="12.002055503715129"><ele>505.6</ele><time>2026-04-19T10:03:14Z</time></trkpt><trkpt lat="43.97350947573005" lon="12.001917955741796"><ele>510.4</ele><time>2026-04-19T10:03:16Z</time></trkpt><trkpt lat="43.973575550023114" lon="12.001852129165048"><ele>515.2</ele><time>2026-04-19T10:03:17Z</time></trkpt><trkpt lat="43.97365654272823" lon="12.001777996157214"><ele>520.0</ele><time>2026-04-19T10:03:18Z</time></trkpt><trkpt lat="43.973740359383925" lon="12.00168169291464"><ele>521.8</ele><time>2026-04-19T10:03:19Z</time></trkpt><trkpt lat="43.97383283926532" lon="12.001568724815627"><ele>523.6</ele><time>2026-04-19T10:03:20Z</time></trkpt><trkpt lat="43.973915944436094" lon="12.001494910708502"><ele>525.4</ele><time>2026-04-19T10:03:21Z</time></trkpt><trkpt lat="43.973997380141434" lon="12.001468948457575"><ele>527.2</ele><time>2026-04-19T10:03:22Z</time></trkpt><trkpt lat="43.97409703569759" lon="12.001457728722912"><ele>529.0</ele><time>2026-04-19T10:03:23Z</time></trkpt><trkpt lat="43.974212077158214" lon="12.001432642423989"><ele>534.0</ele><time>2026-04-19T10:03:24Z</time></trkpt><trkpt lat="43.97432305529994" lon="12.001403692082928"><ele>539.0</ele><time>2026-04-19T10:03:25Z</time></trkpt><trkpt lat="43.97441841864849" lon="12.001366709756708"><ele>544.0</ele><time>2026-04-19T10:03:26Z</time></trkpt><trkpt lat="43.97452121139086" lon="12.001338031794365"><ele>549.0</ele><time>2026-04-19T10:03:27Z</time></trkpt><trkpt lat="43.97462463183657" lon="12.001323024982623"><ele>554.0</ele><time>2026-04-19T10:03:28Z</time></trkpt><trkpt lat="43.97472348878161" lon="12.001296308865747"><ele>554.0</ele><time>2026-04-19T10:03:29Z</time></trkpt><trkpt lat="43.97482704755271" lon="12.00126562776565"><ele>554.0</ele><time>2026-04-19T10:03:30Z</time></trkpt><trkpt lat="43.97493205180448" lon="12.00123920492119"><ele>554.0</ele><time>2026-04-19T10:03:31Z</time></trkpt><trkpt lat="43.97500490015003" lon="12.001214983682914"><ele>554.0</ele><time>2026-04-19T10:03:32Z</time></trkpt><trkpt lat="43.97508395276634" lon="12.001110926517514"><ele>554.0</ele><time>2026-04-19T10:03:34Z</time></trkpt><trkpt lat="43.97508434080721" lon="12.001013672090567"><ele>558.5</ele><time>2026-04-19T10:03:35Z</time></trkpt><trkpt lat="43.975094712706046" lon="12.000908377633527"><ele>563.0</ele><time>2026-04-19T10:03:36Z</time></trkpt><trkpt lat="43.975125020007056" lon="12.000830186579707"><ele>567.5</ele><time>2026-04-19T10:03:37Z</time></trkpt><trkpt lat="43.975157508678826" lon="12.000715332032835"><ele>572.0</ele><time>2026-04-19T10:03:39Z</time></trkpt><trkpt lat="43.97522664175708" lon="12.000549354851998"><ele>576.5</ele><time>2026-04-19T10:03:41Z</time></trkpt><trkpt lat="43.97526913053691" lon="12.000459432553503"><ele>581.0</ele><time>2026-04-19T10:03:42Z</time></trkpt><trkpt lat="43.975335172060916" lon="12.000379087353103"><ele>583.6666666666666</ele><time>2026-04-19T10:03:43Z</time></trkpt><trkpt lat="43.975398207676385" lon="12.000324547751447"><ele>586.3333333333333</ele><time>2026-04-19T10:03:44Z</time></trkpt><trkpt lat="43.9754580475317" lon="12.000273876043313"><ele>589.0</ele><time>2026-04-19T10:03:45Z</time></trkpt><trkpt lat="43.97553259986629" lon="12.000221466225543"><ele>591.6666666666666</ele><time>2026-04-19T10:03:46Z</time></trkpt><trkpt lat="43.975589409551965" lon="12.000179517230563"><ele>594.3333333333334</ele><time>2026-04-19T10:03:47Z</time></trkpt><trkpt lat="43.975673002104195" lon="12.00009455809183"><ele>597.0</ele><time>2026-04-19T10:03:49Z</time></trkpt><trkpt lat="43.97576194016836" lon="12.000017213754653"><ele>597.0</ele><time>2026-04-19T10:03:51Z</time></trkpt><trkpt lat="43.975806030459125" lon="12.000096354001832"><ele>597.0</ele><time>2026-04-19T10:03:53Z</time></trkpt><trkpt lat="43.97581726977671" lon="12.000187795669323"><ele>597.0</ele><time>2026-04-19T10:03:55Z</time></trkpt><trkpt lat="43.975886000290515" lon="12.000291127423118"><ele>597.0</ele><time>2026-04-19T10:05:51Z</time></trkpt><trkpt lat="43.97597842442826" lon="12.000365136892588"><ele>597.0</ele><time>2026-04-19T10:05:52Z</time></trkpt><trkpt lat="43.97604769557458" lon="12.000455612616815"><ele>597.0</ele><time>2026-04-19T10:05:53Z</time></trkpt><trkpt lat="43.976096702742026" lon="12.000555956246602"><ele>599.0</ele><time>2026-04-19T10:05:54Z</time></trkpt><trkpt lat="43.97614698917013" lon="12.000661381485767"><ele>601.0</ele><time>2026-04-19T10:05:55Z</time></trkpt><trkpt lat="43.97618169276437" lon="12.000787645893489"><ele>603.0</ele><time>2026-04-19T10:05:56Z</time></trkpt><trkpt lat="43.976220528545845" lon="12.000913685694918"><ele>605.0</ele><time>2026-04-19T10:05:57Z</time></trkpt><trkpt lat="43.97618103116332" lon="12.001025532023187"><ele>607.0</ele><time>2026-04-19T10:05:58Z</time></trkpt><trkpt lat="43.97616352966009" lon="12.00114984904325"><ele>607.0</ele><time>2026-04-19T10:05:59Z</time></trkpt><trkpt lat="43.976162086710445" lon="12.001254308555136"><ele>607.0</ele><time>2026-04-19T10:06:00Z</time></trkpt><trkpt lat="43.97616349428135" lon="12.001352996910464"><ele>607.0</ele><time>2026-04-19T10:06:01Z</time></trkpt><trkpt lat="43.97617441697042" lon="12.00146604076002"><ele>607.0</ele><time>2026-04-19T10:06:02Z</time></trkpt><trkpt lat="43.97619689639573" lon="12.001579620863321"><ele>607.0</ele><time>2026-04-19T10:06:03Z</time></trkpt><trkpt lat="43.97620334120284" lon="12.00169904765987"><ele>607.0</ele><time>2026-04-19T10:06:04Z</time></trkpt><trkpt lat="43.97622251375013" lon="12.00180422868498"><ele>606.1666666666667</ele><time>2026-04-19T10:06:05Z</time></trkpt><trkpt lat="43.97626378536401" lon="12.001892715584034"><ele>605.3333333333334</ele><time>2026-04-19T10:06:06Z</time></trkpt><trkpt lat="43.976321550224704" lon="12.001989654857155"><ele>604.5</ele><time>2026-04-19T10:06:07Z</time></trkpt><trkpt lat="43.97642071562298" lon="12.002033155529146"><ele>603.6666666666666</ele><time>2026-04-19T10:06:08Z</time></trkpt><trkpt lat="43.976494766630026" lon="12.00209630283208"><ele>602.8333333333333</ele><time>2026-04-19T10:06:09Z</time></trkpt><trkpt lat="43.97655637025146" lon="12.0021328281292"><ele>602.0</ele><time>2026-04-19T10:06:10Z</time></trkpt><trkpt lat="43.97669053414509" lon="12.002191175926484"><ele>602.0</ele><time>2026-04-19T10:06:12Z</time></trkpt><trkpt lat="43.97676484027159" lon="12.002191721624891"><ele>602.0</ele><time>2026-04-19T10:06:13Z</time></trkpt><trkpt lat="43.97688599945235" lon="12.00225810583207"><ele>602.0</ele><time>2026-04-19T10:06:15Z</time></trkpt><trkpt lat="43.97694227539758" lon="12.002311061201308"><ele>602.0</ele><time>2026-04-19T10:06:16Z</time></trkpt><trkpt lat="43.97698750507244" lon="12.002410376877895"><ele>602.0</ele><time>2026-04-19T10:06:17Z</time></trkpt><trkpt lat="43.97702361986282" lon="12.002531887779199"><ele>594.75</ele><time>2026-04-19T10:06:18Z</time></trkpt><trkpt lat="43.97707904594109" lon="12.002665414080104"><ele>587.5</ele><time>2026-04-19T10:06:19Z</time></trkpt><trkpt lat="43.977216942419616" lon="12.00266095482975"><ele>580.25</ele><time>2026-04-19T10:06:21Z</time></trkpt><trkpt lat="43.97729362046735" lon="12.002587863013298"><ele>573.0</ele><time>2026-04-19T10:06:22Z</time></trkpt><trkpt lat="43.97739535035232" lon="12.002516832049318"><ele>579.25</ele><time>2026-04-19T10:06:23Z</time></trkpt><trkpt lat="43.977505575243235" lon="12.00242378771181"><ele>585.5</ele><time>2026-04-19T10:06:24Z</time></trkpt><trkpt lat="43.977646794997625" lon="12.002316717256782"><ele>591.75</ele><time>2026-04-19T10:06:25Z</time></trkpt><trkpt lat="43.97775469837521" lon="12.002217531268405"><ele>598.0</ele><time>2026-04-19T10:06:26Z</time></trkpt><trkpt lat="43.97785831776058" lon="12.002155594968288"><ele>598.0</ele><time>2026-04-19T10:06:27Z</time></trkpt><trkpt lat="43.97796188254876" lon="12.002126851909015"><ele>598.0</ele><time>2026-04-19T10:06:28Z</time></trkpt><trkpt lat="43.97807723394514" lon="12.002100434329494"><ele>598.0</ele><time>2026-04-19T10:06:29Z</time></trkpt><trkpt lat="43.97818407839156" lon="12.002088699693664"><ele>598.0</ele><time>2026-04-19T10:06:30Z</time></trkpt><trkpt lat="43.978297159184095" lon="12.00205331349803"><ele>598.0</ele><time>2026-04-19T10:06:31Z</time></trkpt><trkpt lat="43.978425416290406" lon="12.001993622624846"><ele>597.25</ele><time>2026-04-19T10:06:32Z</time></trkpt><trkpt lat="43.978544968925576" lon="12.00194230869596"><ele>596.5</ele><time>2026-04-19T10:06:33Z</time></trkpt><trkpt lat="43.978671997918" lon="12.001896526072368"><ele>595.75</ele><time>2026-04-19T10:06:34Z</time></trkpt><trkpt lat="43.97878684948159" lon="12.001845012146557"><ele>595.0</ele><time>2026-04-19T10:06:35Z</time></trkpt><trkpt lat="43.97890055186892" lon="12.001831346392954"><ele>595.0</ele><time>2026-04-19T10:06:36Z</time></trkpt><trkpt lat="43.97900440422221" lon="12.001785212377087"><ele>595.0</ele><time>2026-04-19T10:06:37Z</time></trkpt><trkpt lat="43.97912430347194" lon="12.00178269067142"><ele>595.0</ele><time>2026-04-19T10:06:38Z</time></trkpt><trkpt lat="43.979242634143326" lon="12.001785422457667"><ele>595.0</ele><time>2026-04-19T10:06:39Z</time></trkpt><trkpt lat="43.979345145618" lon="12.00175128343592"><ele>595.8</ele><time>2026-04-19T10:06:40Z</time></trkpt><trkpt lat="43.97942424817355" lon="12.00175741463612"><ele>596.6</ele><time>2026-04-19T10:06:41Z</time></trkpt><trkpt lat="43.97952924592435" lon="12.001784040207184"><ele>597.4</ele><time>2026-04-19T10:06:43Z</time></trkpt><trkpt lat="43.979503453259824" lon="12.001919377108008"><ele>598.2</ele><time>2026-04-19T10:06:44Z</time></trkpt><trkpt lat="43.979460838438854" lon="12.002040796061708"><ele>599.0</ele><time>2026-04-19T10:06:45Z</time></trkpt><trkpt lat="43.97947149372845" lon="12.00218956922251"><ele>599.0</ele><time>2026-04-19T10:06:46Z</time></trkpt><trkpt lat="43.97946465609114" lon="12.002326186834818"><ele>599.0</ele><time>2026-04-19T10:06:47Z</time></trkpt><trkpt lat="43.979503278583095" lon="12.0024365695533"><ele>599.0</ele><time>2026-04-19T10:06:48Z</time></trkpt><trkpt lat="43.979557068273024" lon="12.002501062338013"><ele>599.0</ele><time>2026-04-19T10:06:49Z</time></trkpt><trkpt lat="43.9796275853408" lon="12.002499255641327"><ele>599.0</ele><time>2026-04-19T10:06:50Z</time></trkpt><trkpt lat="43.97971159692808" lon="12.002420410734006"><ele>599.0</ele><time>2026-04-19T10:06:51Z</time></trkpt><trkpt lat="43.97980632512564" lon="12.002324067146368"><ele>599.0</ele><time>2026-04-19T10:06:52Z</time></trkpt><trkpt lat="43.97991746757465" lon="12.00228625407528"><ele>599.0</ele><time>2026-04-19T10:06:53Z</time></trkpt><trkpt lat="43.98005511448982" lon="12.002290706762171"><ele>599.0</ele><time>2026-04-19T10:06:54Z</time></trkpt><trkpt lat="43.98019809231986" lon="12.002331211705481"><ele>599.0</ele><time>2026-04-19T10:06:55Z</time></trkpt><trkpt lat="43.9803327494904" lon="12.002374441955194"><ele>598.5</ele><time>2026-04-19T10:06:56Z</time></trkpt><trkpt lat="43.98046418686613" lon="12.002449441132875"><ele>598.0</ele><time>2026-04-19T10:06:57Z</time></trkpt><trkpt lat="43.980607575762356" lon="12.002495453351303"><ele>597.5</ele><time>2026-04-19T10:06:58Z</time></trkpt><trkpt lat="43.98076708318835" lon="12.002508527740753"><ele>597.0</ele><time>2026-04-19T10:06:59Z</time></trkpt><trkpt lat="43.98092311962448" lon="12.00255956128506"><ele>593.25</ele><time>2026-04-19T10:07:00Z</time></trkpt><trkpt lat="43.98103362963564" lon="12.002626838489489"><ele>589.5</ele><time>2026-04-19T10:07:01Z</time></trkpt><trkpt lat="43.98111928159822" lon="12.002683953298495"><ele>585.75</ele><time>2026-04-19T10:07:02Z</time></trkpt><trkpt lat="43.98120535400265" lon="12.002783219229281"><ele>582.0</ele><time>2026-04-19T10:07:03Z</time></trkpt><trkpt lat="43.98131821083807" lon="12.002870372027862"><ele>582.0</ele><time>2026-04-19T10:07:04Z</time></trkpt><trkpt lat="43.981419987862644" lon="12.00289892750614"><ele>582.0</ele><time>2026-04-19T10:07:05Z</time></trkpt><trkpt lat="43.98150612705614" lon="12.002899661277187"><ele>582.0</ele><time>2026-04-19T10:07:06Z</time></trkpt><trkpt lat="43.98159706539831" lon="12.002884993912339"><ele>582.0</ele><time>2026-04-19T10:07:07Z</time></trkpt><trkpt lat="43.98167524263463" lon="12.002888554861544"><ele>582.0</ele><time>2026-04-19T10:07:08Z</time></trkpt><trkpt lat="43.98171503415318" lon="12.002967640224973"><ele>582.0</ele><time>2026-04-19T10:07:09Z</time></trkpt><trkpt lat="43.98169931444871" lon="12.003096132343268"><ele>580.1666666666666</ele><time>2026-04-19T10:07:10Z</time></trkpt><trkpt lat="43.98168446881714" lon="12.003226558722536"><ele>578.3333333333334</ele><time>2026-04-19T10:07:11Z</time></trkpt><trkpt lat="43.98170942561416" lon="12.003319066186034"><ele>576.5</ele><time>2026-04-19T10:07:12Z</time></trkpt><trkpt lat="43.98175998646646" lon="12.003380232360382"><ele>574.6666666666667</ele><time>2026-04-19T10:07:13Z</time></trkpt><trkpt lat="43.981866721193974" lon="12.003397835149805"><ele>572.8333333333334</ele><time>2026-04-19T10:07:14Z</time></trkpt><trkpt lat="43.9819361017392" lon="12.003480956420793"><ele>571.0</ele><time>2026-04-19T10:07:15Z</time></trkpt><trkpt lat="43.98186289203974" lon="12.003635367646297"><ele>568.1666666666667</ele><time>2026-04-19T10:07:16Z</time></trkpt><trkpt lat="43.98188166617796" lon="12.003736916847325"><ele>565.3333333333334</ele><time>2026-04-19T10:07:17Z</time></trkpt><trkpt lat="43.98191644306248" lon="12.003850256253507"><ele>562.5</ele><time>2026-04-19T10:07:18Z</time></trkpt><trkpt lat="43.98197820638098" lon="12.003902037661287"><ele>559.6666666666666</ele><time>2026-04-19T10:07:21Z</time></trkpt><trkpt lat="43.98184850873131" lon="12.003940890642706"><ele>556.8333333333333</ele><time>2026-04-19T10:07:24Z</time></trkpt><trkpt lat="43.9817910373164" lon="12.003991683466763"><ele>554.0</ele><time>2026-04-19T10:07:25Z</time></trkpt><trkpt lat="43.98176913660159" lon="12.004092310058256"><ele>553.3333333333333</ele><time>2026-04-19T10:07:26Z</time></trkpt><trkpt lat="43.981728816720405" lon="12.004270114560198"><ele>552.6666666666666</ele><time>2026-04-19T10:07:28Z</time></trkpt><trkpt lat="43.98170741474583" lon="12.004373663247545"><ele>552.0</ele><time>2026-04-19T10:07:29Z</time></trkpt><trkpt lat="43.98168055130036" lon="12.004462487680188"><ele>551.3333333333334</ele><time>2026-04-19T10:07:30Z</time></trkpt><trkpt lat="43.98166130299319" lon="12.004559147053119"><ele>550.6666666666667</ele><time>2026-04-19T10:07:31Z</time></trkpt><trkpt lat="43.98165587959557" lon="12.00467423053519"><ele>550.0</ele><time>2026-04-19T10:07:32Z</time></trkpt><trkpt lat="43.98166423529296" lon="12.004808381059371"><ele>550.0</ele><time>2026-04-19T10:07:33Z</time></trkpt><trkpt lat="43.9816690430136" lon="12.004941063322137"><ele>550.0</ele><time>2026-04-19T10:07:34Z</time></trkpt><trkpt lat="43.981705237875225" lon="12.005080530806655"><ele>550.0</ele><time>2026-04-19T10:07:35Z</time></trkpt><trkpt lat="43.98169836770469" lon="12.005234836505299"><ele>550.0</ele><time>2026-04-19T10:07:36Z</time></trkpt><trkpt lat="43.98170953017223" lon="12.00537933642233"><ele>550.0</ele><time>2026-04-19T10:07:37Z</time></trkpt><trkpt lat="43.9817238882276" lon="12.005518073049922"><ele>546.2</ele><time>2026-04-19T10:07:38Z</time></trkpt><trkpt lat="43.98173956439571" lon="12.005661073402473"><ele>542.4</ele><time>2026-04-19T10:07:39Z</time></trkpt><trkpt lat="43.981749644698105" lon="12.005786635569104"><ele>538.6</ele><time>2026-04-19T10:07:40Z</time></trkpt><trkpt lat="43.98173336005987" lon="12.00590343111333"><ele>534.8</ele><time>2026-04-19T10:07:41Z</time></trkpt><trkpt lat="43.981698043509134" lon="12.006024356736498"><ele>531.0</ele><time>2026-04-19T10:07:42Z</time></trkpt><trkpt lat="43.98166425581816" lon="12.006152062082727"><ele>531.0</ele><time>2026-04-19T10:07:43Z</time></trkpt><trkpt lat="43.98162837253236" lon="12.006262290535638"><ele>531.0</ele><time>2026-04-19T10:07:44Z</time></trkpt><trkpt lat="43.98157723018691" lon="12.006388466526687"><ele>531.0</ele><time>2026-04-19T10:07:45Z</time></trkpt><trkpt lat="43.98154680001781" lon="12.006536934582638"><ele>531.0</ele><time>2026-04-19T10:07:46Z</time></trkpt><trkpt lat="43.98150997305603" lon="12.006676069661147"><ele>531.0</ele><time>2026-04-19T10:07:47Z</time></trkpt><trkpt lat="43.981464665249526" lon="12.006816791362096"><ele>531.4</ele><time>2026-04-19T10:07:48Z</time></trkpt><trkpt lat="43.9814208765251" lon="12.006944676326471"><ele>531.8</ele><time>2026-04-19T10:07:49Z</time></trkpt><trkpt lat="43.98137475071847" lon="12.007066821834151"><ele>532.1999999999999</ele><time>2026-04-19T10:07:50Z</time></trkpt><trkpt lat="43.9813210161395" lon="12.007167065337397"><ele>532.6</ele><time>2026-04-19T10:07:51Z</time></trkpt><trkpt lat="43.98126375984643" lon="12.007250425082004"><ele>533.0</ele><time>2026-04-19T10:07:52Z</time></trkpt><trkpt lat="43.98119525980836" lon="12.007345579077889"><ele>533.0</ele><time>2026-04-19T10:07:53Z</time></trkpt><trkpt lat="43.98113139270107" lon="12.007432247881479"><ele>533.0</ele><time>2026-04-19T10:07:54Z</time></trkpt><trkpt lat="43.98106884617581" lon="12.007527690410347"><ele>533.0</ele><time>2026-04-19T10:07:55Z</time></trkpt><trkpt lat="43.98098423399148" lon="12.007575804826537"><ele>533.0</ele><time>2026-04-19T10:07:56Z</time></trkpt><trkpt lat="43.980908169051986" lon="12.007620925319296"><ele>533.0</ele><time>2026-04-19T10:07:57Z</time></trkpt><trkpt lat="43.980828609559175" lon="12.007655140748609"><ele>533.0</ele><time>2026-04-19T10:07:58Z</time></trkpt><trkpt lat="43.98074226552261" lon="12.00768257551843"><ele>529.5</ele><time>2026-04-19T10:07:59Z</time></trkpt><trkpt lat="43.980646564181555" lon="12.007715559550132"><ele>526.0</ele><time>2026-04-19T10:08:00Z</time></trkpt><trkpt lat="43.980551757933135" lon="12.007744989561761"><ele>522.5</ele><time>2026-04-19T10:08:01Z</time></trkpt><trkpt lat="43.9804645529946" lon="12.007781257513333"><ele>519.0</ele><time>2026-04-19T10:08:02Z</time></trkpt><trkpt lat="43.98039795844067" lon="12.007847432827099"><ele>515.5</ele><time>2026-04-19T10:08:03Z</time></trkpt><trkpt lat="43.980333741619276" lon="12.007893712984924"><ele>512.0</ele><time>2026-04-19T10:08:04Z</time></trkpt><trkpt lat="43.98027007235305" lon="12.007916131603794"><ele>512.0</ele><time>2026-04-19T10:08:05Z</time></trkpt><trkpt lat="43.98017607040536" lon="12.007906227859374"><ele>512.0</ele><time>2026-04-19T10:08:07Z</time></trkpt><trkpt lat="43.98021649779184" lon="12.0080578090714"><ele>512.0</ele><time>2026-04-19T10:08:08Z</time></trkpt><trkpt lat="43.98012554975515" lon="12.008147629269295"><ele>512.0</ele><time>2026-04-19T10:08:10Z</time></trkpt><trkpt lat="43.98023188590855" lon="12.008278470401402"><ele>490.0</ele><time>2026-04-19T10:08:12Z</time></trkpt><trkpt lat="43.979682658553564" lon="12.008250269700188"><ele>490.00000000000006</ele><time>2026-04-19T10:08:18Z</time></trkpt><trkpt lat="43.97961700176522" lon="12.008192848544233"><ele>490.0</ele><time>2026-04-19T10:08:19Z</time></trkpt><trkpt lat="43.979563421457996" lon="12.008123581636584"><ele>490.0</ele><time>2026-04-19T10:08:20Z</time></trkpt><trkpt lat="43.97951745916668" lon="12.008045705011945"><ele>490.0</ele><time>2026-04-19T10:08:21Z</time></trkpt><trkpt lat="43.97944829135218" lon="12.00799626231048"><ele>490.00000000000006</ele><time>2026-04-19T10:08:23Z</time></trkpt><trkpt lat="43.97938826435054" lon="12.008075152429015"><ele>490.0</ele><time>2026-04-19T10:08:26Z</time></trkpt><trkpt lat="43.97941401930997" lon="12.00816088330553"><ele>490.6666666666667</ele><time>2026-04-19T10:08:28Z</time></trkpt><trkpt lat="43.97943755122126" lon="12.008482291284073"><ele>491.33333333333337</ele><time>2026-04-19T10:08:29Z</time></trkpt><trkpt lat="43.979480876486974" lon="12.008632505477541"><ele>492.0</ele><time>2026-04-19T10:08:30Z</time></trkpt><trkpt lat="43.979530314437035" lon="12.00875936328908"><ele>492.0</ele><time>2026-04-19T10:08:31Z</time></trkpt><trkpt lat="43.979579703355135" lon="12.008876830957592"><ele>492.00000000000006</ele><time>2026-04-19T10:08:32Z</time></trkpt><trkpt lat="43.979631487562955" lon="12.008996626863182"><ele>492.00000000000006</ele><time>2026-04-19T10:08:33Z</time></trkpt><trkpt lat="43.97968524372869" lon="12.00912086513155"><ele>492.0</ele><time>2026-04-19T10:08:34Z</time></trkpt><trkpt lat="43.97974586891551" lon="12.009236874916384"><ele>492.0</ele><time>2026-04-19T10:08:35Z</time></trkpt><trkpt lat="43.979791999156596" lon="12.00933880081613"><ele>488.6666666666667</ele><time>2026-04-19T10:08:36Z</time></trkpt><trkpt lat="43.9798226129296" lon="12.009422200377069"><ele>485.33333333333337</ele><time>2026-04-19T10:08:37Z</time></trkpt><trkpt lat="43.979855920388154" lon="12.009526981254979"><ele>482.0</ele><time>2026-04-19T10:08:38Z</time></trkpt><trkpt lat="43.97988113633153" lon="12.009617962176435"><ele>478.6666666666667</ele><time>2026-04-19T10:08:39Z</time></trkpt><trkpt lat="43.97990551307665" lon="12.009702364846119"><ele>475.33333333333337</ele><time>2026-04-19T10:08:40Z</time></trkpt><trkpt lat="43.979939379955006" lon="12.009873853398213"><ele>472.0</ele><time>2026-04-19T10:08:42Z</time></trkpt><trkpt lat="43.979970647551085" lon="12.009985543817841"><ele>472.00000000000006</ele><time>2026-04-19T10:08:43Z</time></trkpt><trkpt lat="43.97999776169682" lon="12.010090646906937"><ele>472.0</ele><time>2026-04-19T10:08:44Z</time></trkpt><trkpt lat="43.980019705627974" lon="12.010188982864697"><ele>472.0</ele><time>2026-04-19T10:08:45Z</time></trkpt><trkpt lat="43.98004202678974" lon="12.01028383159108"><ele>472.0</ele><time>2026-04-19T10:08:46Z</time></trkpt><trkpt lat="43.980059887331265" lon="12.01037269261227"><ele>472.00000000000006</ele><time>2026-04-19T10:08:47Z</time></trkpt><trkpt lat="43.980080735157586" lon="12.010468799740122"><ele>472.0</ele><time>2026-04-19T10:08:48Z</time></trkpt><trkpt lat="43.98011431966199" lon="12.010635000555498"><ele>472.00000000000006</ele><time>2026-04-19T10:08:50Z</time></trkpt><trkpt lat="43.980151521529734" lon="12.010766972551169"><ele>472.0</ele><time>2026-04-19T10:08:52Z</time></trkpt><trkpt lat="43.980173884747465" lon="12.010857250019898"><ele>472.0</ele><time>2026-04-19T10:08:53Z</time></trkpt><trkpt lat="43.980197070079505" lon="12.01095715107913"><ele>472.0</ele><time>2026-04-19T10:08:54Z</time></trkpt><trkpt lat="43.98022090225019" lon="12.011068211568908"><ele>472.00000000000006</ele><time>2026-04-19T10:08:55Z</time></trkpt><trkpt lat="43.98024806228508" lon="12.01116934905161"><ele>472.0</ele><time>2026-04-19T10:08:56Z</time></trkpt><trkpt lat="43.9802798514598" lon="12.01126547362556"><ele>469.00000000000006</ele><time>2026-04-19T10:08:57Z</time></trkpt><trkpt lat="43.980329027346755" lon="12.011371748882532"><ele>466.0</ele><time>2026-04-19T10:08:58Z</time></trkpt><trkpt lat="43.98038773617396" lon="12.011492398712173"><ele>463.0</ele><time>2026-04-19T10:08:59Z</time></trkpt><trkpt lat="43.98044902226725" lon="12.011599376664817"><ele>460.0</ele><time>2026-04-19T10:09:00Z</time></trkpt><trkpt lat="43.98047476047327" lon="12.011695215269414"><ele>457.00000000000006</ele><time>2026-04-19T10:09:01Z</time></trkpt><trkpt lat="43.980493094599865" lon="12.011785042176198"><ele>454.0</ele><time>2026-04-19T10:09:02Z</time></trkpt><trkpt lat="43.980505293471026" lon="12.011884953063992"><ele>452.0</ele><time>2026-04-19T10:09:03Z</time></trkpt><trkpt lat="43.980510005908" lon="12.011987455013438"><ele>450.00000000000006</ele><time>2026-04-19T10:09:04Z</time></trkpt><trkpt lat="43.98052360720335" lon="12.012086214686459"><ele>448.0</ele><time>2026-04-19T10:09:05Z</time></trkpt><trkpt lat="43.98054100610235" lon="12.01218698052543"><ele>446.0</ele><time>2026-04-19T10:09:06Z</time></trkpt><trkpt lat="43.98055339316633" lon="12.012285260203047"><ele>444.0</ele><time>2026-04-19T10:09:07Z</time></trkpt><trkpt lat="43.980565142640515" lon="12.012391127852322"><ele>442.0</ele><time>2026-04-19T10:09:08Z</time></trkpt><trkpt lat="43.98056670313295" lon="12.012500486273874"><ele>440.0</ele><time>2026-04-19T10:09:09Z</time></trkpt><trkpt lat="43.9805704277626" lon="12.012605487142629"><ele>437.0</ele><time>2026-04-19T10:09:10Z</time></trkpt><trkpt lat="43.980568081961835" lon="12.012724588918815"><ele>434.0</ele><time>2026-04-19T10:09:11Z</time></trkpt><trkpt lat="43.98056685063778" lon="12.012837442940391"><ele>431.0</ele><time>2026-04-19T10:09:12Z</time></trkpt><trkpt lat="43.980569682403726" lon="12.012934247195224"><ele>428.0</ele><time>2026-04-19T10:09:13Z</time></trkpt><trkpt lat="43.980625445359095" lon="12.013078700441065"><ele>425.0</ele><time>2026-04-19T10:09:15Z</time></trkpt><trkpt lat="43.9807260129857" lon="12.0131600206747"><ele>424.99999999999994</ele><time>2026-04-19T10:09:17Z</time></trkpt><trkpt lat="43.980796655772046" lon="12.013230411622288"><ele>425.0</ele><time>2026-04-19T10:09:19Z</time></trkpt><trkpt lat="43.9808706946742" lon="12.013272874584104"><ele>425.0</ele><time>2026-04-19T10:09:22Z</time></trkpt><trkpt lat="43.98090197087747" lon="12.013368448206464"><ele>425.0</ele><time>2026-04-19T10:09:25Z</time></trkpt><trkpt lat="43.98081999938538" lon="12.013453127989035"><ele>424.99999999999994</ele><time>2026-04-19T10:09:28Z</time></trkpt><trkpt lat="43.98074932877054" lon="12.013532808173046"><ele>425.0</ele><time>2026-04-19T10:09:30Z</time></trkpt><trkpt lat="43.98077072248753" lon="12.013646500380474"><ele>423.2</ele><time>2026-04-19T10:09:32Z</time></trkpt><trkpt lat="43.98085055554897" lon="12.01367896526777"><ele>421.4</ele><time>2026-04-19T10:09:33Z</time></trkpt><trkpt lat="43.98094992633421" lon="12.013714266747654"><ele>419.6</ele><time>2026-04-19T10:09:34Z</time></trkpt><trkpt lat="43.98104032789846" lon="12.013732187423205"><ele>417.8</ele><time>2026-04-19T10:09:35Z</time></trkpt><trkpt lat="43.98110791058101" lon="12.013755490547736"><ele>416.0</ele><time>2026-04-19T10:09:36Z</time></trkpt><trkpt lat="43.98121872132513" lon="12.013796905760273"><ele>415.99999999999994</ele><time>2026-04-19T10:09:38Z</time></trkpt><trkpt lat="43.98128644042958" lon="12.013883530407213"><ele>416.0</ele><time>2026-04-19T10:09:40Z</time></trkpt><trkpt lat="43.981305115642925" lon="12.013981530723077"><ele>416.0</ele><time>2026-04-19T10:09:42Z</time></trkpt><trkpt lat="43.981225177114965" lon="12.014051235470182"><ele>416.0</ele><time>2026-04-19T10:09:44Z</time></trkpt><trkpt lat="43.98115507846307" lon="12.014086560810512"><ele>415.99999999999994</ele><time>2026-04-19T10:09:45Z</time></trkpt><trkpt lat="43.98107095780922" lon="12.014109295924554"><ele>416.0</ele><time>2026-04-19T10:09:46Z</time></trkpt><trkpt lat="43.980976378488165" lon="12.014182233954749"><ele>417.6</ele><time>2026-04-19T10:09:47Z</time></trkpt><trkpt lat="43.98090415792868" lon="12.014261844980103"><ele>419.20000000000005</ele><time>2026-04-19T10:09:48Z</time></trkpt><trkpt lat="43.98085357053666" lon="12.014320389096854"><ele>420.79999999999995</ele><time>2026-04-19T10:09:49Z</time></trkpt><trkpt lat="43.98081699948875" lon="12.014490175275155"><ele>422.4</ele><time>2026-04-19T10:09:51Z</time></trkpt><trkpt lat="43.980811781103064" lon="12.014611079826896"><ele>424.0</ele><time>2026-04-19T10:09:52Z</time></trkpt><trkpt lat="43.98079675255416" lon="12.014721959250446"><ele>424.00000000000006</ele><time>2026-04-19T10:09:53Z</time></trkpt><trkpt lat="43.98081594568653" lon="12.014844208067464"><ele>424.0</ele><time>2026-04-19T10:09:55Z</time></trkpt><trkpt lat="43.980865096072705" lon="12.01490522433306"><ele>424.0</ele><time>2026-04-19T10:09:56Z</time></trkpt><trkpt lat="43.98090205260954" lon="12.014980625913761"><ele>424.0</ele><time>2026-04-19T10:09:57Z</time></trkpt><trkpt lat="43.98092707316972" lon="12.015081234205443"><ele>424.00000000000006</ele><time>2026-04-19T10:09:58Z</time></trkpt><trkpt lat="43.98091739687486" lon="12.015190226658653"><ele>424.0</ele><time>2026-04-19T10:09:59.001Z</time></trkpt><trkpt lat="43.98092775908018" lon="12.015291790939214"><ele>430.6</ele><time>2026-04-19T10:10:00.001Z</time></trkpt><trkpt lat="43.980948829998844" lon="12.015384095664375"><ele>437.2</ele><time>2026-04-19T10:10:01.001Z</time></trkpt><trkpt lat="43.98101399766997" lon="12.015532061792976"><ele>443.80000000000007</ele><time>2026-04-19T10:10:03.001Z</time></trkpt><trkpt lat="43.98107160945378" lon="12.015605334920087"><ele>450.40000000000003</ele><time>2026-04-19T10:10:04.001Z</time></trkpt><trkpt lat="43.9811242973763" lon="12.015702039232949"><ele>457.0</ele><time>2026-04-19T10:10:05.001Z</time></trkpt><trkpt lat="43.98119024537459" lon="12.015803379191711"><ele>461.40000000000003</ele><time>2026-04-19T10:10:06.001Z</time></trkpt><trkpt lat="43.98126134488321" lon="12.01592265917478"><ele>465.80000000000007</ele><time>2026-04-19T10:10:07.001Z</time></trkpt><trkpt lat="43.98132484115158" lon="12.016037180827784"><ele>470.2</ele><time>2026-04-19T10:10:08.001Z</time></trkpt><trkpt lat="43.98137468171927" lon="12.016101330209713"><ele>474.6</ele><time>2026-04-19T10:10:09.001Z</time></trkpt><trkpt lat="43.98148819034082" lon="12.01613465590565"><ele>479.0</ele><time>2026-04-19T10:10:11.001Z</time></trkpt><trkpt lat="43.9815538795725" lon="12.01612519146454"><ele>478.99999999999994</ele><time>2026-04-19T10:10:12.001Z</time></trkpt><trkpt lat="43.981626741924835" lon="12.016116241967643"><ele>479.0</ele><time>2026-04-19T10:10:13.001Z</time></trkpt><trkpt lat="43.981702826321275" lon="12.016104691687632"><ele>479.0</ele><time>2026-04-19T10:10:14.001Z</time></trkpt><trkpt lat="43.981795728176614" lon="12.01608660058629"><ele>479.0</ele><time>2026-04-19T10:10:15.001Z</time></trkpt><trkpt lat="43.981902782589245" lon="12.016066944616583"><ele>478.99999999999994</ele><time>2026-04-19T10:10:16.001Z</time></trkpt><trkpt lat="43.98198271442904" lon="12.01602607672617"><ele>479.0</ele><time>2026-04-19T10:10:17.001Z</time></trkpt><trkpt lat="43.98206571326086" lon="12.015950684279277"><ele>481.49999999999994</ele><time>2026-04-19T10:10:19.001Z</time></trkpt><trkpt lat="43.982133684695754" lon="12.015938146559971"><ele>484.0</ele><time>2026-04-19T10:10:22.001Z</time></trkpt><trkpt lat="43.98220133297892" lon="12.015896950262034"><ele>486.5</ele><time>2026-04-19T10:10:26.001Z</time></trkpt><trkpt lat="43.982219429275304" lon="12.015985991436478"><ele>489.0</ele><time>2026-04-19T10:10:38.001Z</time></trkpt><trkpt lat="43.982156442106756" lon="12.016070558836567"><ele>491.49999999999994</ele><time>2026-04-19T10:10:41.001Z</time></trkpt><trkpt lat="43.982104918623044" lon="12.016187115776981"><ele>494.0</ele><time>2026-04-19T10:10:43.001Z</time></trkpt><trkpt lat="43.98207604134526" lon="12.016273635719019"><ele>493.99999999999994</ele><time>2026-04-19T10:10:44.001Z</time></trkpt><trkpt lat="43.98205987135766" lon="12.016361087894367"><ele>494.0</ele><time>2026-04-19T10:10:45.001Z</time></trkpt><trkpt lat="43.982050047343826" lon="12.01652432771613"><ele>494.0</ele><time>2026-04-19T10:10:47.001Z</time></trkpt><trkpt lat="43.98206160614851" lon="12.01666826801586"><ele>494.0</ele><time>2026-04-19T10:10:49.001Z</time></trkpt><trkpt lat="43.982065617324686" lon="12.016759209664828"><ele>493.99999999999994</ele><time>2026-04-19T10:10:50.001Z</time></trkpt><trkpt lat="43.98206970010933" lon="12.016854116391254"><ele>494.0</ele><time>2026-04-19T10:10:51.001Z</time></trkpt><trkpt lat="43.98207973689696" lon="12.016944580732117"><ele>498.79999999999995</ele><time>2026-04-19T10:10:52.001Z</time></trkpt><trkpt lat="43.982105653950725" lon="12.017108276502919"><ele>503.59999999999997</ele><time>2026-04-19T10:10:54.001Z</time></trkpt><trkpt lat="43.98213117339375" lon="12.017268305714394"><ele>508.4</ele><time>2026-04-19T10:10:56.001Z</time></trkpt><trkpt lat="43.98214189200501" lon="12.017383523237287"><ele>513.1999999999999</ele><time>2026-04-19T10:10:58.001Z</time></trkpt><trkpt lat="43.98221068672082" lon="12.017426433319066"><ele>518.0</ele><time>2026-04-19T10:11:02.001Z</time></trkpt><trkpt lat="43.98228981249662" lon="12.01718491505849"><ele>518.0</ele><time>2026-04-19T10:11:05.001Z</time></trkpt><trkpt lat="43.98231093866364" lon="12.017011120942191"><ele>518.0</ele><time>2026-04-19T10:11:06.001Z</time></trkpt><trkpt lat="43.98233600664654" lon="12.016876658561632"><ele>518.0</ele><time>2026-04-19T10:11:07.001Z</time></trkpt><trkpt lat="43.98237282711796" lon="12.016768991535663"><ele>518.0</ele><time>2026-04-19T10:11:08.001Z</time></trkpt><trkpt lat="43.98242663852923" lon="12.016694314632446"><ele>518.0</ele><time>2026-04-19T10:11:09.001Z</time></trkpt><trkpt lat="43.98250236239006" lon="12.016678382673458"><ele>518.0</ele><time>2026-04-19T10:11:10.001Z</time></trkpt><trkpt lat="43.98259568218444" lon="12.016681011561959"><ele>518.0</ele><time>2026-04-19T10:11:11.001Z</time></trkpt><trkpt lat="43.98269472720013" lon="12.01672767394065"><ele>518.0</ele><time>2026-04-19T10:11:12.001Z</time></trkpt><trkpt lat="43.982764776032376" lon="12.01680665123122"><ele>518.0</ele><time>2026-04-19T10:11:13.001Z</time></trkpt><trkpt lat="43.98280911985493" lon="12.016904160006325"><ele>518.0</ele><time>2026-04-19T10:11:14.001Z</time></trkpt><trkpt lat="43.98284561422907" lon="12.017007157284844"><ele>518.0</ele><time>2026-04-19T10:11:15.001Z</time></trkpt><trkpt lat="43.982869195514326" lon="12.017112602643047"><ele>518.0</ele><time>2026-04-19T10:11:16.001Z</time></trkpt><trkpt lat="43.982872334289986" lon="12.017225438834597"><ele>518.0</ele><time>2026-04-19T10:11:17.001Z</time></trkpt><trkpt lat="43.98289948012861" lon="12.017353599767658"><ele>518.0</ele><time>2026-04-19T10:11:18.001Z</time></trkpt><trkpt lat="43.982958164374956" lon="12.017448100264168"><ele>518.0</ele><time>2026-04-19T10:11:19.001Z</time></trkpt><trkpt lat="43.98302769346655" lon="12.017536305970376"><ele>518.0</ele><time>2026-04-19T10:11:20.001Z</time></trkpt><trkpt lat="43.98308494279005" lon="12.017610449361786"><ele>522.8333333333333</ele><time>2026-04-19T10:11:21.001Z</time></trkpt><trkpt lat="43.9831176444345" lon="12.017699041822786"><ele>527.6666666666666</ele><time>2026-04-19T10:11:22.001Z</time></trkpt><trkpt lat="43.98315849332089" lon="12.017804835316964"><ele>532.5</ele><time>2026-04-19T10:11:23.001Z</time></trkpt><trkpt lat="43.98318086998718" lon="12.017926482229802"><ele>537.3333333333334</ele><time>2026-04-19T10:11:24.001Z</time></trkpt><trkpt lat="43.98320489753134" lon="12.018061625126306"><ele>542.1666666666667</ele><time>2026-04-19T10:11:25.001Z</time></trkpt><trkpt lat="43.98316984059969" lon="12.018153417496439"><ele>547.0</ele><time>2026-04-19T10:11:26.001Z</time></trkpt><trkpt lat="43.983137828753364" lon="12.018261057799004"><ele>549.0</ele><time>2026-04-19T10:11:27.001Z</time></trkpt><trkpt lat="43.983160653947216" lon="12.01840369765707"><ele>551.0</ele><time>2026-04-19T10:11:28.001Z</time></trkpt><trkpt lat="43.98319692457202" lon="12.01858681794976"><ele>553.0</ele><time>2026-04-19T10:11:29.001Z</time></trkpt><trkpt lat="43.983204850908976" lon="12.018747663412913"><ele>555.0</ele><time>2026-04-19T10:11:30.001Z</time></trkpt><trkpt lat="43.98320159666121" lon="12.018909206459158"><ele>555.0</ele><time>2026-04-19T10:11:31.001Z</time></trkpt><trkpt lat="43.98320045692713" lon="12.019087925338335"><ele>555.0</ele><time>2026-04-19T10:11:32.001Z</time></trkpt><trkpt lat="43.983212333035425" lon="12.019287769444867"><ele>555.0</ele><time>2026-04-19T10:11:33.001Z</time></trkpt><trkpt lat="43.98323226210638" lon="12.019461946141382"><ele>555.0</ele><time>2026-04-19T10:11:34.001Z</time></trkpt><trkpt lat="43.983255806945316" lon="12.01962002776957"><ele>556.1666666666666</ele><time>2026-04-19T10:11:35.001Z</time></trkpt><trkpt lat="43.98328167512737" lon="12.01977146912013"><ele>557.3333333333334</ele><time>2026-04-19T10:11:36.001Z</time></trkpt><trkpt lat="43.983321889125406" lon="12.01991440110817"><ele>558.5</ele><time>2026-04-19T10:11:37.001Z</time></trkpt><trkpt lat="43.983339857690126" lon="12.02002405268537"><ele>559.6666666666667</ele><time>2026-04-19T10:11:38.001Z</time></trkpt><trkpt lat="43.983299611140424" lon="12.020092158185017"><ele>560.8333333333334</ele><time>2026-04-19T10:11:39.001Z</time></trkpt><trkpt lat="43.98322657340834" lon="12.02012567475491"><ele>562.0</ele><time>2026-04-19T10:11:40.001Z</time></trkpt><trkpt lat="43.98314231661261" lon="12.020146502660895"><ele>564.0</ele><time>2026-04-19T10:11:41.001Z</time></trkpt><trkpt lat="43.983065350143114" lon="12.02020017898327"><ele>566.0</ele><time>2026-04-19T10:11:42.001Z</time></trkpt><trkpt lat="43.983016126688035" lon="12.02028662762945"><ele>568.0</ele><time>2026-04-19T10:11:43.001Z</time></trkpt><trkpt lat="43.98298677226706" lon="12.020386637001904"><ele>570.0</ele><time>2026-04-19T10:11:44.001Z</time></trkpt><trkpt lat="43.98295801731281" lon="12.020494376671403"><ele>572.0</ele><time>2026-04-19T10:11:45.001Z</time></trkpt><trkpt lat="43.98293375503032" lon="12.020610681883802"><ele>574.0</ele><time>2026-04-19T10:11:46.001Z</time></trkpt><trkpt lat="43.98292617327393" lon="12.020745642225299"><ele>573.5</ele><time>2026-04-19T10:11:47.001Z</time></trkpt><trkpt lat="43.98294400783136" lon="12.020903861161418"><ele>573.0</ele><time>2026-04-19T10:11:48.001Z</time></trkpt><trkpt lat="43.982970235904276" lon="12.02107296352319"><ele>572.5</ele><time>2026-04-19T10:11:49.001Z</time></trkpt><trkpt lat="43.98300057657097" lon="12.02122988258008"><ele>572.0</ele><time>2026-04-19T10:11:50.001Z</time></trkpt><trkpt lat="43.98301898917954" lon="12.021380907261026"><ele>572.0</ele><time>2026-04-19T10:11:51.001Z</time></trkpt><trkpt lat="43.983035403795256" lon="12.021535565123319"><ele>572.0</ele><time>2026-04-19T10:11:52.001Z</time></trkpt><trkpt lat="43.983051133211376" lon="12.021682426405986"><ele>572.0</ele><time>2026-04-19T10:11:53.001Z</time></trkpt><trkpt lat="43.98307017334157" lon="12.021825904813442"><ele>572.0</ele><time>2026-04-19T10:11:54.001Z</time></trkpt><trkpt lat="43.98308909024271" lon="12.02197792334171"><ele>572.0</ele><time>2026-04-19T10:11:55.001Z</time></trkpt><trkpt lat="43.98310571738815" lon="12.022131456202876"><ele>573.0</ele><time>2026-04-19T10:11:56.001Z</time></trkpt><trkpt lat="43.98312340784091" lon="12.022281361711304"><ele>574.0</ele><time>2026-04-19T10:11:57.001Z</time></trkpt><trkpt lat="43.98313814559077" lon="12.022426063817624"><ele>575.0</ele><time>2026-04-19T10:11:58.001Z</time></trkpt><trkpt lat="43.98315262066754" lon="12.022567827896317"><ele>576.0</ele><time>2026-04-19T10:11:59.001Z</time></trkpt><trkpt lat="43.98317544189192" lon="12.022701241860736"><ele>577.0</ele><time>2026-04-19T10:12:00.001Z</time></trkpt><trkpt lat="43.9832137459225" lon="12.022847161017552"><ele>578.5</ele><time>2026-04-19T10:12:01.001Z</time></trkpt><trkpt lat="43.983269023176796" lon="12.0230044459596"><ele>580.0</ele><time>2026-04-19T10:12:02.001Z</time></trkpt><trkpt lat="43.983316731175314" lon="12.0231565688224"><ele>581.5</ele><time>2026-04-19T10:12:03.001Z</time></trkpt><trkpt lat="43.98336278812761" lon="12.02330771624427"><ele>583.0</ele><time>2026-04-19T10:12:04.001Z</time></trkpt><trkpt lat="43.983419275644096" lon="12.02343651979427"><ele>583.0</ele><time>2026-04-19T10:12:05.001Z</time></trkpt><trkpt lat="43.98347325772621" lon="12.0235685675867"><ele>583.0</ele><time>2026-04-19T10:12:06.001Z</time></trkpt><trkpt lat="43.98353251345799" lon="12.023696174525819"><ele>583.0</ele><time>2026-04-19T10:12:07.001Z</time></trkpt><trkpt lat="43.983574665369964" lon="12.023817558786549"><ele>583.0</ele><time>2026-04-19T10:12:08.001Z</time></trkpt><trkpt lat="43.983594195825546" lon="12.02393969758313"><ele>583.0</ele><time>2026-04-19T10:12:09.001Z</time></trkpt><trkpt lat="43.98359621348688" lon="12.024057162430227"><ele>583.4</ele><time>2026-04-19T10:12:10.001Z</time></trkpt><trkpt lat="43.98358589824461" lon="12.024177322336003"><ele>583.8</ele><time>2026-04-19T10:12:11.001Z</time></trkpt><trkpt lat="43.983559133920544" lon="12.024301847754955"><ele>584.2</ele><time>2026-04-19T10:12:12.001Z</time></trkpt><trkpt lat="43.983519926668365" lon="12.02443278083401"><ele>584.6</ele><time>2026-04-19T10:12:13.001Z</time></trkpt><trkpt lat="43.9834708838864" lon="12.024562678091884"><ele>585.0</ele><time>2026-04-19T10:12:14.001Z</time></trkpt><trkpt lat="43.983422219281074" lon="12.024678820560533"><ele>585.0</ele><time>2026-04-19T10:12:15.001Z</time></trkpt><trkpt lat="43.983395291594256" lon="12.024798246388205"><ele>585.0</ele><time>2026-04-19T10:12:16.001Z</time></trkpt><trkpt lat="43.98337748953191" lon="12.024896747214962"><ele>585.0</ele><time>2026-04-19T10:12:17.001Z</time></trkpt><trkpt lat="43.98336150110447" lon="12.024992481430873"><ele>585.0</ele><time>2026-04-19T10:12:18.001Z</time></trkpt><trkpt lat="43.983344402381235" lon="12.025092509269774"><ele>585.0</ele><time>2026-04-19T10:12:19.001Z</time></trkpt><trkpt lat="43.983327745545175" lon="12.025194819961749"><ele>585.0</ele><time>2026-04-19T10:12:20.001Z</time></trkpt><trkpt lat="43.9832955041714" lon="12.02531385308322"><ele>590.4</ele><time>2026-04-19T10:12:21.001Z</time></trkpt><trkpt lat="43.98327331396931" lon="12.025440372344253"><ele>595.8</ele><time>2026-04-19T10:12:22.001Z</time></trkpt><trkpt lat="43.98323833716561" lon="12.025559058060855"><ele>601.2</ele><time>2026-04-19T10:12:23.001Z</time></trkpt><trkpt lat="43.98317909881112" lon="12.02566526896499"><ele>606.6</ele><time>2026-04-19T10:12:24.001Z</time></trkpt><trkpt lat="43.983100653227" lon="12.025766687780436"><ele>612.0</ele><time>2026-04-19T10:12:25.001Z</time></trkpt><trkpt lat="43.98302982328154" lon="12.025861428290295"><ele>613.8000000000001</ele><time>2026-04-19T10:12:26.001Z</time></trkpt><trkpt lat="43.982964065400736" lon="12.025961929157011"><ele>615.6</ele><time>2026-04-19T10:12:27.001Z</time></trkpt><trkpt lat="43.982905208527434" lon="12.026059363606773"><ele>617.4000000000001</ele><time>2026-04-19T10:12:28.001Z</time></trkpt><trkpt lat="43.982860193139025" lon="12.026162161773215"><ele>619.2</ele><time>2026-04-19T10:12:29.001Z</time></trkpt><trkpt lat="43.98281807134949" lon="12.02626544672453"><ele>621.0</ele><time>2026-04-19T10:12:30.001Z</time></trkpt><trkpt lat="43.98277917505175" lon="12.026379951316132"><ele>621.0</ele><time>2026-04-19T10:12:31.001Z</time></trkpt><trkpt lat="43.982715654928995" lon="12.026487239045677"><ele>621.0</ele><time>2026-04-19T10:12:32.001Z</time></trkpt><trkpt lat="43.9826817979086" lon="12.026603815918623"><ele>621.0</ele><time>2026-04-19T10:12:33.001Z</time></trkpt><trkpt lat="43.98263826286775" lon="12.026718884760864"><ele>621.0</ele><time>2026-04-19T10:12:34.001Z</time></trkpt><trkpt lat="43.98257846399024" lon="12.026821721912755"><ele>621.0</ele><time>2026-04-19T10:12:35.001Z</time></trkpt><trkpt lat="43.98249858228874" lon="12.026910595921311"><ele>622.2</ele><time>2026-04-19T10:12:36.001Z</time></trkpt><trkpt lat="43.98241622095203" lon="12.027007836171965"><ele>623.4000000000001</ele><time>2026-04-19T10:12:37.001Z</time></trkpt><trkpt lat="43.982347308638786" lon="12.027091556967886"><ele>624.6</ele><time>2026-04-19T10:12:38.001Z</time></trkpt><trkpt lat="43.9822915630297" lon="12.027161411575065"><ele>625.8000000000001</ele><time>2026-04-19T10:12:39.001Z</time></trkpt><trkpt lat="43.982212191139055" lon="12.027271587847563"><ele>627.0</ele><time>2026-04-19T10:12:41.001Z</time></trkpt><trkpt lat="43.982088526082336" lon="12.02727131736565"><ele>627.0</ele><time>2026-04-19T10:12:43.001Z</time></trkpt><trkpt lat="43.98199838370052" lon="12.027231158498486"><ele>627.0</ele><time>2026-04-19T10:12:44.001Z</time></trkpt><trkpt lat="43.98189740438475" lon="12.027186038721045"><ele>627.0</ele><time>2026-04-19T10:12:45.001Z</time></trkpt><trkpt lat="43.9818185617519" lon="12.02712182469147"><ele>627.0</ele><time>2026-04-19T10:12:46.001Z</time></trkpt><trkpt lat="43.98173317371871" lon="12.027079663782368"><ele>627.0</ele><time>2026-04-19T10:12:47.001Z</time></trkpt><trkpt lat="43.98164996230947" lon="12.027063229347878"><ele>627.4</ele><time>2026-04-19T10:12:48.001Z</time></trkpt><trkpt lat="43.981559349821474" lon="12.027026592124225"><ele>627.8000000000001</ele><time>2026-04-19T10:12:49.001Z</time></trkpt><trkpt lat="43.98146370935923" lon="12.026991113478052"><ele>628.2</ele><time>2026-04-19T10:12:50.001Z</time></trkpt><trkpt lat="43.98135300604595" lon="12.027029185589596"><ele>628.6</ele><time>2026-04-19T10:12:51.001Z</time></trkpt><trkpt lat="43.981247087967425" lon="12.027070299134968"><ele>629.0</ele><time>2026-04-19T10:12:52.001Z</time></trkpt><trkpt lat="43.981140107004954" lon="12.027130019909633"><ele>629.0</ele><time>2026-04-19T10:12:53.001Z</time></trkpt><trkpt lat="43.98103590728002" lon="12.027170582946553"><ele>629.0</ele><time>2026-04-19T10:12:54.001Z</time></trkpt><trkpt lat="43.980937925640966" lon="12.027190346138973"><ele>629.0</ele><time>2026-04-19T10:12:55.001Z</time></trkpt><trkpt lat="43.98083437725367" lon="12.027185084117832"><ele>629.0</ele><time>2026-04-19T10:12:56.001Z</time></trkpt><trkpt lat="43.98073059263163" lon="12.027158960182001"><ele>629.0</ele><time>2026-04-19T10:12:57.001Z</time></trkpt><trkpt lat="43.980628965476136" lon="12.0271359523082"><ele>630.8</ele><time>2026-04-19T10:12:58.001Z</time></trkpt><trkpt lat="43.98052358541345" lon="12.027115410048554"><ele>632.5999999999999</ele><time>2026-04-19T10:12:59.001Z</time></trkpt><trkpt lat="43.98041662597133" lon="12.027103844873185"><ele>634.4</ele><time>2026-04-19T10:13:00.001Z</time></trkpt><trkpt lat="43.98030762053244" lon="12.027104508089032"><ele>636.1999999999999</ele><time>2026-04-19T10:13:01.001Z</time></trkpt><trkpt lat="43.980196920226284" lon="12.02711333143439"><ele>638.0</ele><time>2026-04-19T10:13:02.001Z</time></trkpt><trkpt lat="43.98009267045655" lon="12.027134888029893"><ele>638.5999999999999</ele><time>2026-04-19T10:13:03.001Z</time></trkpt><trkpt lat="43.9799860978579" lon="12.027158075135002"><ele>639.1999999999999</ele><time>2026-04-19T10:13:04.001Z</time></trkpt><trkpt lat="43.97988151220888" lon="12.0271578754107"><ele>639.8</ele><time>2026-04-19T10:13:05.001Z</time></trkpt><trkpt lat="43.97977318911061" lon="12.027161474000069"><ele>640.4</ele><time>2026-04-19T10:13:06.001Z</time></trkpt><trkpt lat="43.97966442387451" lon="12.027206108311905"><ele>641.0</ele><time>2026-04-19T10:13:07.001Z</time></trkpt><trkpt lat="43.97956788761595" lon="12.027290849002531"><ele>641.0</ele><time>2026-04-19T10:13:08.001Z</time></trkpt><trkpt lat="43.97949416365222" lon="12.027398696183468"><ele>641.0</ele><time>2026-04-19T10:13:09.001Z</time></trkpt><trkpt lat="43.9794377131736" lon="12.027517928255325"><ele>641.0</ele><time>2026-04-19T10:13:10.001Z</time></trkpt><trkpt lat="43.97938447471399" lon="12.027627191315885"><ele>641.0</ele><time>2026-04-19T10:13:11.001Z</time></trkpt><trkpt lat="43.97933923088021" lon="12.027713485669496"><ele>641.0</ele><time>2026-04-19T10:13:12.001Z</time></trkpt><trkpt lat="43.97928946691696" lon="12.027792092652637"><ele>642.0</ele><time>2026-04-19T10:13:13.001Z</time></trkpt><trkpt lat="43.97922865382535" lon="12.027847530052334"><ele>643.0</ele><time>2026-04-19T10:13:14.001Z</time></trkpt><trkpt lat="43.97910292351704" lon="12.027776847305217"><ele>644.0</ele><time>2026-04-19T10:13:16.001Z</time></trkpt><trkpt lat="43.97902963422068" lon="12.027708390390847"><ele>645.0</ele><time>2026-04-19T10:13:17.001Z</time></trkpt><trkpt lat="43.97893509171579" lon="12.027647534542364"><ele>646.0</ele><time>2026-04-19T10:13:18.001Z</time></trkpt><trkpt lat="43.978856943562405" lon="12.027545657909089"><ele>647.4</ele><time>2026-04-19T10:13:19.001Z</time></trkpt><trkpt lat="43.97876861514109" lon="12.027451023173455"><ele>648.8</ele><time>2026-04-19T10:13:20.001Z</time></trkpt><trkpt lat="43.97867916051844" lon="12.027369990209868"><ele>650.1999999999999</ele><time>2026-04-19T10:13:21.001Z</time></trkpt><trkpt lat="43.97862396930731" lon="12.027242004173253"><ele>651.5999999999999</ele><time>2026-04-19T10:13:22.001Z</time></trkpt><trkpt lat="43.978578148928264" lon="12.02710609419484"><ele>653.0</ele><time>2026-04-19T10:13:23.001Z</time></trkpt><trkpt lat="43.978558800240926" lon="12.02695197189443"><ele>653.0</ele><time>2026-04-19T10:13:24.001Z</time></trkpt><trkpt lat="43.97852978248857" lon="12.02681010207316"><ele>653.0</ele><time>2026-04-19T10:13:25.001Z</time></trkpt><trkpt lat="43.978486461927304" lon="12.02671547485535"><ele>653.0</ele><time>2026-04-19T10:13:26.001Z</time></trkpt><trkpt lat="43.9783928665592" lon="12.026570822711875"><ele>653.0</ele><time>2026-04-19T10:13:27.001Z</time></trkpt><trkpt lat="43.978297342274374" lon="12.0264749061571"><ele>653.0</ele><time>2026-04-19T10:13:28.001Z</time></trkpt><trkpt lat="43.97819450100579" lon="12.026384055835889"><ele>652.0</ele><time>2026-04-19T10:13:29.001Z</time></trkpt><trkpt lat="43.97808896639929" lon="12.026286570082641"><ele>651.0</ele><time>2026-04-19T10:13:30.001Z</time></trkpt><trkpt lat="43.97799059426283" lon="12.026173617648725"><ele>650.0</ele><time>2026-04-19T10:13:31.001Z</time></trkpt><trkpt lat="43.97788858476631" lon="12.026068440202314"><ele>649.0</ele><time>2026-04-19T10:13:32.001Z</time></trkpt><trkpt lat="43.97778817950255" lon="12.02596337459816"><ele>649.0</ele><time>2026-04-19T10:13:33.001Z</time></trkpt><trkpt lat="43.97771581817546" lon="12.025872734876733"><ele>649.0</ele><time>2026-04-19T10:13:34.001Z</time></trkpt><trkpt lat="43.977666581970944" lon="12.025765204579502"><ele>649.0</ele><time>2026-04-19T10:13:35.001Z</time></trkpt><trkpt lat="43.97760049347491" lon="12.025651623321796"><ele>649.0</ele><time>2026-04-19T10:13:36.001Z</time></trkpt><trkpt lat="43.977560184722286" lon="12.025510149885793"><ele>649.0</ele><time>2026-04-19T10:13:37.001Z</time></trkpt><trkpt lat="43.977523980904024" lon="12.025365410393158"><ele>644.0</ele><time>2026-04-19T10:13:38.001Z</time></trkpt><trkpt lat="43.97746241681404" lon="12.025245735641565"><ele>639.0</ele><time>2026-04-19T10:13:39.001Z</time></trkpt><trkpt lat="43.97738596542144" lon="12.025146272819198"><ele>634.0</ele><time>2026-04-19T10:13:40.001Z</time></trkpt><trkpt lat="43.97729308204253" lon="12.025073338062313"><ele>629.0</ele><time>2026-04-19T10:13:41.001Z</time></trkpt><trkpt lat="43.97718370024186" lon="12.025018307222066"><ele>624.0</ele><time>2026-04-19T10:13:42.001Z</time></trkpt><trkpt lat="43.97707910655428" lon="12.024966045195185"><ele>622.5</ele><time>2026-04-19T10:13:43.001Z</time></trkpt><trkpt lat="43.976977167387304" lon="12.024916507911675"><ele>621.0</ele><time>2026-04-19T10:13:44.001Z</time></trkpt><trkpt lat="43.97687437572505" lon="12.02485095285869"><ele>619.5</ele><time>2026-04-19T10:13:45.001Z</time></trkpt><trkpt lat="43.976771511412075" lon="12.024769693096124"><ele>618.0</ele><time>2026-04-19T10:13:46.001Z</time></trkpt><trkpt lat="43.976671173860446" lon="12.024682630430023"><ele>615.75</ele><time>2026-04-19T10:13:47.001Z</time></trkpt><trkpt lat="43.97658501060148" lon="12.024570999249857"><ele>613.5</ele><time>2026-04-19T10:13:48.001Z</time></trkpt><trkpt lat="43.976481098437134" lon="12.024471682911084"><ele>611.25</ele><time>2026-04-19T10:13:49.001Z</time></trkpt><trkpt lat="43.976380975108476" lon="12.02439376370197"><ele>609.0</ele><time>2026-04-19T10:13:50.001Z</time></trkpt><trkpt lat="43.97628120396075" lon="12.024352945732572"><ele>609.0</ele><time>2026-04-19T10:13:51.001Z</time></trkpt><trkpt lat="43.97618941846005" lon="12.024328793618624"><ele>609.0</ele><time>2026-04-19T10:13:52.001Z</time></trkpt><trkpt lat="43.97608897096668" lon="12.024339529166031"><ele>609.0</ele><time>2026-04-19T10:13:53.001Z</time></trkpt><trkpt lat="43.97598584084273" lon="12.024359552570987"><ele>609.0</ele><time>2026-04-19T10:13:54.001Z</time></trkpt><trkpt lat="43.97589509102801" lon="12.024362357074445"><ele>609.0</ele><time>2026-04-19T10:13:55.001Z</time></trkpt><trkpt lat="43.97580012062671" lon="12.024343388809577"><ele>608.2</ele><time>2026-04-19T10:13:56.001Z</time></trkpt><trkpt lat="43.975713464434804" lon="12.024289794136736"><ele>607.4</ele><time>2026-04-19T10:13:57.001Z</time></trkpt><trkpt lat="43.975641740308795" lon="12.02419094024062"><ele>606.6</ele><time>2026-04-19T10:13:58.001Z</time></trkpt><trkpt lat="43.97556527308809" lon="12.02408316910287"><ele>605.8</ele><time>2026-04-19T10:13:59.001Z</time></trkpt><trkpt lat="43.97550469547451" lon="12.023957427561855"><ele>605.0</ele><time>2026-04-19T10:14:00.001Z</time></trkpt><trkpt lat="43.97543499952971" lon="12.023819798381234"><ele>600.5</ele><time>2026-04-19T10:14:01.001Z</time></trkpt><trkpt lat="43.97536553439599" lon="12.023690597335069"><ele>596.0</ele><time>2026-04-19T10:14:02.001Z</time></trkpt><trkpt lat="43.975283759507704" lon="12.023570529482152"><ele>591.5</ele><time>2026-04-19T10:14:03.001Z</time></trkpt><trkpt lat="43.975185872761536" lon="12.023461444253194"><ele>587.0</ele><time>2026-04-19T10:14:04.001Z</time></trkpt><trkpt lat="43.97508976343934" lon="12.023338865218346"><ele>588.5</ele><time>2026-04-19T10:14:05.001Z</time></trkpt><trkpt lat="43.97494295586436" lon="12.023286983315494"><ele>590.0</ele><time>2026-04-19T10:14:06.001Z</time></trkpt><trkpt lat="43.97481688784597" lon="12.023202784006953"><ele>591.5</ele><time>2026-04-19T10:14:07.001Z</time></trkpt><trkpt lat="43.97469545933585" lon="12.02316205394699"><ele>593.0</ele><time>2026-04-19T10:14:08.001Z</time></trkpt><trkpt lat="43.974598047566246" lon="12.023082988957269"><ele>593.0</ele><time>2026-04-19T10:14:09.001Z</time></trkpt><trkpt lat="43.974510656178865" lon="12.02296082104831"><ele>593.0</ele><time>2026-04-19T10:14:10.001Z</time></trkpt><trkpt lat="43.97442141248764" lon="12.022813568052603"><ele>593.0</ele><time>2026-04-19T10:14:11.001Z</time></trkpt><trkpt lat="43.97434636975378" lon="12.022646953072593"><ele>593.0</ele><time>2026-04-19T10:14:12.001Z</time></trkpt><trkpt lat="43.97424114634431" lon="12.022501809269647"><ele>594.3333333333333</ele><time>2026-04-19T10:14:13.001Z</time></trkpt><trkpt lat="43.974145453608784" lon="12.022340497945352"><ele>595.6666666666666</ele><time>2026-04-19T10:14:14.001Z</time></trkpt><trkpt lat="43.97404694732292" lon="12.022175740916202"><ele>597.0</ele><time>2026-04-19T10:14:15.001Z</time></trkpt><trkpt lat="43.9739520910057" lon="12.02202271710668"><ele>597.0</ele><time>2026-04-19T10:14:16.001Z</time></trkpt><trkpt lat="43.973859091103954" lon="12.021871784175906"><ele>597.0</ele><time>2026-04-19T10:14:17.001Z</time></trkpt><trkpt lat="43.97376227052235" lon="12.021709439481649"><ele>597.0</ele><time>2026-04-19T10:14:18.001Z</time></trkpt><trkpt lat="43.97366409676191" lon="12.02154304658349"><ele>593.3333333333334</ele><time>2026-04-19T10:14:19.001Z</time></trkpt><trkpt lat="43.97356516204146" lon="12.021384789582026"><ele>589.6666666666667</ele><time>2026-04-19T10:14:20.001Z</time></trkpt><trkpt lat="43.973461897145654" lon="12.021231587547689"><ele>586.0</ele><time>2026-04-19T10:14:21.001Z</time></trkpt><trkpt lat="43.97334781453627" lon="12.021083685657887"><ele>593.3333333333334</ele><time>2026-04-19T10:14:22.001Z</time></trkpt><trkpt lat="43.97322564008226" lon="12.020955503949438"><ele>600.6666666666666</ele><time>2026-04-19T10:14:23.001Z</time></trkpt><trkpt lat="43.97309439961581" lon="12.02083566034023"><ele>608.0</ele><time>2026-04-19T10:14:24.001Z</time></trkpt><trkpt lat="43.97296365372196" lon="12.02072316505552"><ele>612.6666666666666</ele><time>2026-04-19T10:14:25.001Z</time></trkpt><trkpt lat="43.972845412770326" lon="12.020590812980322"><ele>617.3333333333334</ele><time>2026-04-19T10:14:26.001Z</time></trkpt><trkpt lat="43.97270947952844" lon="12.020469186531933"><ele>622.0</ele><time>2026-04-19T10:14:27.001Z</time></trkpt><trkpt lat="43.97257342511593" lon="12.02034745074649"><ele>627.0</ele><time>2026-04-19T10:14:28.001Z</time></trkpt><trkpt lat="43.97242546634058" lon="12.020238192014272"><ele>632.0</ele><time>2026-04-19T10:14:29.001Z</time></trkpt><trkpt lat="43.97230676634031" lon="12.02012744688061"><ele>637.0</ele><time>2026-04-19T10:14:30.001Z</time></trkpt><trkpt lat="43.972182234556605" lon="12.0200226028658"><ele>642.2</ele><time>2026-04-19T10:14:31.001Z</time></trkpt><trkpt lat="43.972068031793924" lon="12.019928302496725"><ele>647.4000000000001</ele><time>2026-04-19T10:14:32.001Z</time></trkpt><trkpt lat="43.971989702035664" lon="12.019825159459781"><ele>652.5999999999999</ele><time>2026-04-19T10:14:33.001Z</time></trkpt><trkpt lat="43.97192051097667" lon="12.019747895551783"><ele>657.8</ele><time>2026-04-19T10:14:34.001Z</time></trkpt><trkpt lat="43.971874221001144" lon="12.019681887333965"><ele>663.0</ele><time>2026-04-19T10:14:35.001Z</time></trkpt><trkpt lat="43.971777917762985" lon="12.019552101015018"><ele>663.0</ele><time>2026-04-19T10:14:37.001Z</time></trkpt><trkpt lat="43.971715200072325" lon="12.019467577392708"><ele>663.0</ele><time>2026-04-19T10:14:38.001Z</time></trkpt><trkpt lat="43.97158920720978" lon="12.019465833858296"><ele>663.0</ele><time>2026-04-19T10:14:39Z</time></trkpt><trkpt lat="43.97152986325002" lon="12.019405498179136"><ele>663.0</ele><time>2026-04-19T10:14:40Z</time></trkpt><trkpt lat="43.971459198424846" lon="12.019370342409227"><ele>663.0</ele><time>2026-04-19T10:14:41Z</time></trkpt><trkpt lat="43.97136923667209" lon="12.019366315031464"><ele>659.0</ele><time>2026-04-19T10:14:42Z</time></trkpt><trkpt lat="43.9712683943623" lon="12.019395705088092"><ele>655.0</ele><time>2026-04-19T10:14:43Z</time></trkpt><trkpt lat="43.97116187299823" lon="12.019453386941448"><ele>651.0</ele><time>2026-04-19T10:14:44Z</time></trkpt><trkpt lat="43.97104940236532" lon="12.019519098775843"><ele>647.0</ele><time>2026-04-19T10:14:45Z</time></trkpt><trkpt lat="43.97093458887417" lon="12.01960065346817"><ele>646.5</ele><time>2026-04-19T10:14:46Z</time></trkpt><trkpt lat="43.970822968607614" lon="12.019702462950159"><ele>646.0</ele><time>2026-04-19T10:14:47Z</time></trkpt><trkpt lat="43.97071895738131" lon="12.019819364247574"><ele>645.5</ele><time>2026-04-19T10:14:48Z</time></trkpt><trkpt lat="43.970609652152724" lon="12.019922299024836"><ele>645.0</ele><time>2026-04-19T10:14:49Z</time></trkpt><trkpt lat="43.97053596168864" lon="12.020049387513627"><ele>636.0</ele><time>2026-04-19T10:14:50Z</time></trkpt><trkpt lat="43.97046622901862" lon="12.020163572495106"><ele>627.0</ele><time>2026-04-19T10:14:51Z</time></trkpt><trkpt lat="43.97038571621757" lon="12.020268804310758"><ele>618.0</ele><time>2026-04-19T10:14:52Z</time></trkpt><trkpt lat="43.97028803064463" lon="12.020376836783685"><ele>609.0</ele><time>2026-04-19T10:14:53Z</time></trkpt><trkpt lat="43.97018251864042" lon="12.020470268703013"><ele>609.0</ele><time>2026-04-19T10:14:54Z</time></trkpt><trkpt lat="43.9700709018235" lon="12.020546769577779"><ele>609.0</ele><time>2026-04-19T10:14:55Z</time></trkpt><trkpt lat="43.969980713905315" lon="12.020632173732892"><ele>609.0</ele><time>2026-04-19T10:14:56Z</time></trkpt><trkpt lat="43.96991619240939" lon="12.020701657923563"><ele>609.0</ele><time>2026-04-19T10:14:57Z</time></trkpt><trkpt lat="43.96987315978819" lon="12.020807874569101"><ele>609.0</ele><time>2026-04-19T10:14:58Z</time></trkpt><trkpt lat="43.96982614950487" lon="12.020932375016857"><ele>605.8</ele><time>2026-04-19T10:14:59Z</time></trkpt><trkpt lat="43.969754184989384" lon="12.021011684993654"><ele>602.5999999999999</ele><time>2026-04-19T10:15:00Z</time></trkpt><trkpt lat="43.969666000373444" lon="12.021106234159978"><ele>599.4</ele><time>2026-04-19T10:15:01Z</time></trkpt><trkpt lat="43.969571376800666" lon="12.021190884848119"><ele>596.1999999999999</ele><time>2026-04-19T10:15:02Z</time></trkpt><trkpt lat="43.96948201781428" lon="12.021307856763308"><ele>593.0</ele><time>2026-04-19T10:15:03Z</time></trkpt><trkpt lat="43.96942963939414" lon="12.021433819077261"><ele>593.0</ele><time>2026-04-19T10:15:04Z</time></trkpt><trkpt lat="43.969439805674064" lon="12.021592940797234"><ele>593.0</ele><time>2026-04-19T10:15:05Z</time></trkpt><trkpt lat="43.9694484388172" lon="12.021745731283609"><ele>593.0</ele><time>2026-04-19T10:15:06Z</time></trkpt><trkpt lat="43.96947183035688" lon="12.021902186114735"><ele>593.0</ele><time>2026-04-19T10:15:07Z</time></trkpt><trkpt lat="43.969484098812856" lon="12.022077147206698"><ele>588.1999999999999</ele><time>2026-04-19T10:15:08Z</time></trkpt><trkpt lat="43.96949504199854" lon="12.022240965509894"><ele>583.4</ele><time>2026-04-19T10:15:09Z</time></trkpt><trkpt lat="43.96947799010517" lon="12.022376704599942"><ele>578.5999999999999</ele><time>2026-04-19T10:15:10Z</time></trkpt><trkpt lat="43.969448587728024" lon="12.022496170873321"><ele>573.8</ele><time>2026-04-19T10:15:11Z</time></trkpt><trkpt lat="43.969432513886495" lon="12.022586445563391"><ele>569.0</ele><time>2026-04-19T10:15:12Z</time></trkpt><trkpt lat="43.969420278466046" lon="12.022768213514558"><ele>566.6</ele><time>2026-04-19T10:15:14Z</time></trkpt><trkpt lat="43.96938575558984" lon="12.022856881527542"><ele>564.2</ele><time>2026-04-19T10:15:16Z</time></trkpt><trkpt lat="43.969250965071986" lon="12.022791651661723"><ele>561.8000000000001</ele><time>2026-04-19T10:15:20.001Z</time></trkpt><trkpt lat="43.96917503733203" lon="12.022835623990566"><ele>559.4</ele><time>2026-04-19T10:15:26.001Z</time></trkpt><trkpt lat="43.9691231411172" lon="12.022907631149984"><ele>557.0</ele><time>2026-04-19T10:15:30.001Z</time></trkpt><trkpt lat="43.969037911560186" lon="12.022887633023268"><ele>562.0</ele><time>2026-04-19T10:15:33.001Z</time></trkpt><trkpt lat="43.969000624084835" lon="12.022962655927742"><ele>567.0</ele><time>2026-04-19T10:15:35.001Z</time></trkpt><trkpt lat="43.968953007243016" lon="12.023054284233853"><ele>572.0</ele><time>2026-04-19T10:15:37.001Z</time></trkpt><trkpt lat="43.96890660877804" lon="12.023129442535026"><ele>577.0</ele><time>2026-04-19T10:15:39.001Z</time></trkpt><trkpt lat="43.968817678531515" lon="12.023149059955074"><ele>582.0</ele><time>2026-04-19T10:15:42.001Z</time></trkpt><trkpt lat="43.9687535997988" lon="12.023139660447425"><ele>587.0</ele><time>2026-04-19T10:15:44.001Z</time></trkpt><trkpt lat="43.96868483190252" lon="12.0231226580648"><ele>592.0</ele><time>2026-04-19T10:15:47.001Z</time></trkpt><trkpt lat="43.968619340082306" lon="12.023169797913381"><ele>592.0</ele><time>2026-04-19T10:16:00.001Z</time></trkpt><trkpt lat="43.96855875825193" lon="12.023220080517223"><ele>592.0</ele><time>2026-04-19T10:16:08.001Z</time></trkpt><trkpt lat="43.968543069259994" lon="12.023321130283046"><ele>592.0</ele><time>2026-04-19T10:16:14.001Z</time></trkpt><trkpt lat="43.96852031335295" lon="12.023404794300735"><ele>592.0</ele><time>2026-04-19T10:16:18.001Z</time></trkpt><trkpt lat="43.96847933734855" lon="12.023477644017184"><ele>592.0</ele><time>2026-04-19T10:16:21.001Z</time></trkpt><trkpt lat="43.968462880820034" lon="12.023570391346128"><ele>592.0</ele><time>2026-04-19T10:16:23.001Z</time></trkpt><trkpt lat="43.96853227242479" lon="12.023625127647982"><ele>592.0</ele><time>2026-04-19T10:16:25.001Z</time></trkpt><trkpt lat="43.968468809602534" lon="12.024160890381811"><ele>589.5</ele><time>2026-04-19T10:16:28.001Z</time></trkpt><trkpt lat="43.968411234353844" lon="12.024102623348266"><ele>587.0</ele><time>2026-04-19T10:16:31.001Z</time></trkpt><trkpt lat="43.968358122937225" lon="12.024046060658433"><ele>584.5</ele><time>2026-04-19T10:16:33.001Z</time></trkpt><trkpt lat="43.968292544416705" lon="12.024024272200506"><ele>582.0</ele><time>2026-04-19T10:16:35.001Z</time></trkpt><trkpt lat="43.96820589263931" lon="12.023985546989618"><ele>579.5</ele><time>2026-04-19T10:16:42.001Z</time></trkpt><trkpt lat="43.96813422895468" lon="12.023936046571446"><ele>577.0</ele><time>2026-04-19T10:16:44.001Z</time></trkpt><trkpt lat="43.968087845306286" lon="12.023851467078309"><ele>584.2</ele><time>2026-04-19T10:16:45Z</time></trkpt><trkpt lat="43.968080929046366" lon="12.023702083136213"><ele>591.4000000000001</ele><time>2026-04-19T10:16:47Z</time></trkpt><trkpt lat="43.96807245006524" lon="12.023603291019207"><ele>598.5999999999999</ele><time>2026-04-19T10:16:48Z</time></trkpt><trkpt lat="43.968064135798784" lon="12.023394295823158"><ele>605.8</ele><time>2026-04-19T10:16:50Z</time></trkpt><trkpt lat="43.96806745430273" lon="12.023291078931104"><ele>613.0</ele><time>2026-04-19T10:16:51Z</time></trkpt><trkpt lat="43.96804983228396" lon="12.023129117332083"><ele>615.2857142857143</ele><time>2026-04-19T10:16:53Z</time></trkpt><trkpt lat="43.9680657509256" lon="12.023042940121362"><ele>617.5714285714286</ele><time>2026-04-19T10:16:54Z</time></trkpt><trkpt lat="43.9681078368441" lon="12.022953004337884"><ele>619.8571428571429</ele><time>2026-04-19T10:16:55Z</time></trkpt><trkpt lat="43.96814307822906" lon="12.022852222787536"><ele>622.1428571428571</ele><time>2026-04-19T10:16:56Z</time></trkpt><trkpt lat="43.96817800648122" lon="12.022767330878594"><ele>624.4285714285714</ele><time>2026-04-19T10:16:57Z</time></trkpt><trkpt lat="43.96821574617789" lon="12.02269417380624"><ele>626.7142857142857</ele><time>2026-04-19T10:16:58Z</time></trkpt><trkpt lat="43.96822814362017" lon="12.022572093938118"><ele>629.0</ele><time>2026-04-19T10:17:04Z</time></trkpt><trkpt lat="43.96827385145026" lon="12.022417315447335"><ele>632.3333333333333</ele><time>2026-04-19T10:17:07Z</time></trkpt><trkpt lat="43.96827658477907" lon="12.022310786815792"><ele>635.6666666666666</ele><time>2026-04-19T10:17:08Z</time></trkpt><trkpt lat="43.96826827791686" lon="12.022214046161418"><ele>639.0</ele><time>2026-04-19T10:17:11Z</time></trkpt><trkpt lat="43.96823195921877" lon="12.02209575006619"><ele>642.3333333333334</ele><time>2026-04-19T10:17:14Z</time></trkpt><trkpt lat="43.96813898558138" lon="12.022095715726275"><ele>645.6666666666667</ele><time>2026-04-19T10:17:18Z</time></trkpt><trkpt lat="43.96808981857507" lon="12.022174564637151"><ele>649.0</ele><time>2026-04-19T10:17:21Z</time></trkpt><trkpt lat="43.968016903148566" lon="12.022273036557744"><ele>649.0</ele><time>2026-04-19T10:17:49.001Z</time></trkpt><trkpt lat="43.96799055956891" lon="12.02236950705472"><ele>649.0</ele><time>2026-04-19T10:19:24.999Z</time></trkpt><trkpt lat="43.967941574900735" lon="12.022428820232147"><ele>649.0</ele><time>2026-04-19T10:19:27.999Z</time></trkpt><trkpt lat="43.96791262917686" lon="12.022535602326368"><ele>649.0</ele><time>2026-04-19T10:19:35Z</time></trkpt><trkpt lat="43.96789023214256" lon="12.022623541528176"><ele>649.0</ele><time>2026-04-19T10:19:38Z</time></trkpt><trkpt lat="43.96786143129176" lon="12.022721545165902"><ele>649.0</ele><time>2026-04-19T10:19:41Z</time></trkpt><trkpt lat="43.96777632691258" lon="12.022788256549283"><ele>649.0</ele><time>2026-04-19T10:19:44Z</time></trkpt><trkpt lat="43.967688196849295" lon="12.022807471322553"><ele>649.0</ele><time>2026-04-19T10:19:46Z</time></trkpt><trkpt lat="43.96760687129241" lon="12.022815837465927"><ele>649.0</ele><time>2026-04-19T10:19:48Z</time></trkpt><trkpt lat="43.96754377393837" lon="12.022745868321392"><ele>649.0</ele><time>2026-04-19T10:19:52Z</time></trkpt><trkpt lat="43.967558575660476" lon="12.022649903792196"><ele>649.0</ele><time>2026-04-19T10:19:54Z</time></trkpt><trkpt lat="43.96756209100852" lon="12.022557631131953"><ele>649.0</ele><time>2026-04-19T10:19:56Z</time></trkpt><trkpt lat="43.96759304671595" lon="12.02240473128423"><ele>649.0</ele><time>2026-04-19T10:19:58Z</time></trkpt><trkpt lat="43.967604578938186" lon="12.02227358357437"><ele>649.0</ele><time>2026-04-19T10:19:59Z</time></trkpt><trkpt lat="43.96762113627104" lon="12.022172033323942"><ele>649.0</ele><time>2026-04-19T10:20:00Z</time></trkpt><trkpt lat="43.967646075124826" lon="12.022079255254265"><ele>649.0</ele><time>2026-04-19T10:20:06Z</time></trkpt><trkpt lat="43.967704188406564" lon="12.022005709303572"><ele>649.0</ele><time>2026-04-19T10:20:10Z</time></trkpt><trkpt lat="43.96774324791253" lon="12.021934592408838"><ele>649.0</ele><time>2026-04-19T10:20:15.001Z</time></trkpt><trkpt lat="43.967688764959455" lon="12.022021709998867"><ele>649.0</ele><time>2026-04-19T10:21:28Z</time></trkpt><trkpt lat="43.96763183303432" lon="12.022060893392867"><ele>649.0</ele><time>2026-04-19T10:21:36Z</time></trkpt><trkpt lat="43.96759287881981" lon="12.021942711170908"><ele>649.0</ele><time>2026-04-19T10:21:59Z</time></trkpt><trkpt lat="43.967580629904646" lon="12.021812009764073"><ele>649.0</ele><time>2026-04-19T10:22:01Z</time></trkpt><trkpt lat="43.96756849503361" lon="12.021722083953673"><ele>649.0</ele><time>2026-04-19T10:22:02Z</time></trkpt><trkpt lat="43.967545373563624" lon="12.02161476493417"><ele>649.0</ele><time>2026-04-19T10:22:03Z</time></trkpt><trkpt lat="43.96754459922526" lon="12.021467395401302"><ele>651.8000000000001</ele><time>2026-04-19T10:22:05Z</time></trkpt><trkpt lat="43.96758580418254" lon="12.021340704546246"><ele>654.6</ele><time>2026-04-19T10:22:07Z</time></trkpt><trkpt lat="43.967639893422245" lon="12.02122964147342"><ele>657.4</ele><time>2026-04-19T10:22:19.001Z</time></trkpt><trkpt lat="43.967687783757334" lon="12.02112589569104"><ele>660.2</ele><time>2026-04-19T10:22:21.001Z</time></trkpt><trkpt lat="43.96770796063117" lon="12.021004223585427"><ele>663.0</ele><time>2026-04-19T10:22:23.001Z</time></trkpt><trkpt lat="43.96766146913075" lon="12.020865801852953"><ele>665.0</ele><time>2026-04-19T10:22:25.001Z</time></trkpt><trkpt lat="43.967603764703966" lon="12.020693357871682"><ele>667.0</ele><time>2026-04-19T10:22:27.001Z</time></trkpt><trkpt lat="43.967589119297294" lon="12.02059967610775"><ele>669.0</ele><time>2026-04-19T10:22:28.001Z</time></trkpt><trkpt lat="43.967577585919464" lon="12.02048150053274"><ele>671.0</ele><time>2026-04-19T10:22:29.001Z</time></trkpt><trkpt lat="43.96757652726007" lon="12.02035666886242"><ele>673.0</ele><time>2026-04-19T10:22:30.001Z</time></trkpt><trkpt lat="43.96757793349852" lon="12.020221515620127"><ele>673.0</ele><time>2026-04-19T10:22:31.001Z</time></trkpt><trkpt lat="43.967614391998445" lon="12.02009817620863"><ele>673.0</ele><time>2026-04-19T10:22:32.001Z</time></trkpt><trkpt lat="43.96767914207093" lon="12.019995707141332"><ele>673.0</ele><time>2026-04-19T10:22:33.001Z</time></trkpt><trkpt lat="43.96774513824396" lon="12.019903109567126"><ele>673.0</ele><time>2026-04-19T10:22:34.001Z</time></trkpt><trkpt lat="43.96778058461265" lon="12.019815747419878"><ele>673.0</ele><time>2026-04-19T10:22:35.001Z</time></trkpt><trkpt lat="43.96777527424397" lon="12.019703489440788"><ele>673.0</ele><time>2026-04-19T10:22:36.001Z</time></trkpt><trkpt lat="43.96777615933417" lon="12.01958702348383"><ele>675.8333333333334</ele><time>2026-04-19T10:22:37.001Z</time></trkpt><trkpt lat="43.96780988177677" lon="12.019476587191953"><ele>678.6666666666667</ele><time>2026-04-19T10:22:38.001Z</time></trkpt><trkpt lat="43.967885382886266" lon="12.01936237886837"><ele>681.5</ele><time>2026-04-19T10:22:39.001Z</time></trkpt><trkpt lat="43.96792030276215" lon="12.019265392615678"><ele>684.3333333333334</ele><time>2026-04-19T10:22:40.001Z</time></trkpt><trkpt lat="43.96791645030933" lon="12.019177347144238"><ele>687.1666666666666</ele><time>2026-04-19T10:22:41.001Z</time></trkpt><trkpt lat="43.96789776068717" lon="12.019067884806105"><ele>690.0</ele><time>2026-04-19T10:22:42.001Z</time></trkpt><trkpt lat="43.96792422137433" lon="12.01891925711945"><ele>694.6</ele><time>2026-04-19T10:22:43.001Z</time></trkpt><trkpt lat="43.967924618166045" lon="12.018768964842328"><ele>699.2</ele><time>2026-04-19T10:22:44.001Z</time></trkpt><trkpt lat="43.96791526940724" lon="12.018644212184533"><ele>703.8</ele><time>2026-04-19T10:22:45.001Z</time></trkpt><trkpt lat="43.967916017351705" lon="12.018521997877759"><ele>708.4</ele><time>2026-04-19T10:22:46.001Z</time></trkpt><trkpt lat="43.96792616688464" lon="12.018358872389243"><ele>713.0</ele><time>2026-04-19T10:22:47.001Z</time></trkpt><trkpt lat="43.9679604057192" lon="12.018181956689821"><ele>714.0</ele><time>2026-04-19T10:22:48.001Z</time></trkpt><trkpt lat="43.96799184720053" lon="12.017996961052036"><ele>715.0</ele><time>2026-04-19T10:22:49.001Z</time></trkpt><trkpt lat="43.96803676051224" lon="12.017846824094837"><ele>716.0</ele><time>2026-04-19T10:22:50.001Z</time></trkpt><trkpt lat="43.968085235009184" lon="12.017677275311769"><ele>717.0</ele><time>2026-04-19T10:22:51.001Z</time></trkpt><trkpt lat="43.968123612921794" lon="12.017492842382474"><ele>716.4000000000001</ele><time>2026-04-19T10:22:52.001Z</time></trkpt><trkpt lat="43.96815559141013" lon="12.017321496223184"><ele>715.8000000000001</ele><time>2026-04-19T10:22:53.001Z</time></trkpt><trkpt lat="43.96817020269163" lon="12.017184290370041"><ele>715.2</ele><time>2026-04-19T10:22:54.001Z</time></trkpt><trkpt lat="43.968204404957405" lon="12.017064359393697"><ele>714.6</ele><time>2026-04-19T10:22:55.001Z</time></trkpt><trkpt lat="43.96823580096448" lon="12.016949341947496"><ele>714.0</ele><time>2026-04-19T10:22:56.001Z</time></trkpt><trkpt lat="43.96824258323188" lon="12.016859127262494"><ele>714.0</ele><time>2026-04-19T10:22:57.001Z</time></trkpt><trkpt lat="43.968326518971516" lon="12.016910047947457"><ele>714.0</ele><time>2026-04-19T10:23:01.001Z</time></trkpt><trkpt lat="43.96837079350075" lon="12.01699682659034"><ele>714.0</ele><time>2026-04-19T10:23:02.001Z</time></trkpt><trkpt lat="43.9684242138586" lon="12.017085326412428"><ele>714.0</ele><time>2026-04-19T10:23:03Z</time></trkpt><trkpt lat="43.968500052355594" lon="12.017166017795759"><ele>714.0</ele><time>2026-04-19T10:23:04Z</time></trkpt><trkpt lat="43.968584696694094" lon="12.01724586621641"><ele>714.0</ele><time>2026-04-19T10:23:05Z</time></trkpt><trkpt lat="43.96868457544128" lon="12.017322362189374"><ele>711.2</ele><time>2026-04-19T10:23:06Z</time></trkpt><trkpt lat="43.9687620400448" lon="12.017369533418746"><ele>708.4000000000001</ele><time>2026-04-19T10:23:07Z</time></trkpt><trkpt lat="43.96883090977666" lon="12.017427147809599"><ele>705.6</ele><time>2026-04-19T10:23:08Z</time></trkpt><trkpt lat="43.96890584375867" lon="12.017540499699972"><ele>702.8</ele><time>2026-04-19T10:23:09Z</time></trkpt><trkpt lat="43.9689846063271" lon="12.017659746789896"><ele>700.0</ele><time>2026-04-19T10:23:10Z</time></trkpt><trkpt lat="43.969079634786844" lon="12.017765724496071"><ele>700.0</ele><time>2026-04-19T10:23:11Z</time></trkpt><trkpt lat="43.96917209962317" lon="12.017866626575211"><ele>700.0</ele><time>2026-04-19T10:23:12Z</time></trkpt><trkpt lat="43.96926306492274" lon="12.017940948829501"><ele>700.0</ele><time>2026-04-19T10:23:13Z</time></trkpt><trkpt lat="43.96935460445597" lon="12.018013826780766"><ele>700.0</ele><time>2026-04-19T10:23:14Z</time></trkpt><trkpt lat="43.96942889295586" lon="12.018074217405367"><ele>700.0</ele><time>2026-04-19T10:23:15Z</time></trkpt><trkpt lat="43.96952426322046" lon="12.018107962757464"><ele>695.6</ele><time>2026-04-19T10:23:16Z</time></trkpt><trkpt lat="43.96962054209979" lon="12.01808432366118"><ele>691.2</ele><time>2026-04-19T10:23:17Z</time></trkpt><trkpt lat="43.9696961592785" lon="12.018050738001955"><ele>686.8</ele><time>2026-04-19T10:23:18Z</time></trkpt><trkpt lat="43.96981477124481" lon="12.018029907065916"><ele>682.4</ele><time>2026-04-19T10:23:20Z</time></trkpt><trkpt lat="43.96994076337089" lon="12.018099364553883"><ele>678.0</ele><time>2026-04-19T10:23:22Z</time></trkpt><trkpt lat="43.97004309360716" lon="12.018121578783166"><ele>677.2</ele><time>2026-04-19T10:23:23Z</time></trkpt><trkpt lat="43.970158003122464" lon="12.018099381454372"><ele>676.4</ele><time>2026-04-19T10:23:24Z</time></trkpt><trkpt lat="43.97026624448896" lon="12.018084088384569"><ele>675.6</ele><time>2026-04-19T10:23:25Z</time></trkpt><trkpt lat="43.970367081211634" lon="12.01805173482414"><ele>674.8000000000001</ele><time>2026-04-19T10:23:26Z</time></trkpt><trkpt lat="43.97046684023604" lon="12.017997557140903"><ele>674.0</ele><time>2026-04-19T10:23:27Z</time></trkpt><trkpt lat="43.97055044757924" lon="12.017952312404736"><ele>674.0000000000001</ele><time>2026-04-19T10:23:28Z</time></trkpt><trkpt lat="43.9706372355497" lon="12.017927241210145"><ele>674.0</ele><time>2026-04-19T10:23:29Z</time></trkpt><trkpt lat="43.97070765376551" lon="12.017889291099296"><ele>674.0</ele><time>2026-04-19T10:23:30Z</time></trkpt><trkpt lat="43.97077577140161" lon="12.0178497841443"><ele>674.0</ele><time>2026-04-19T10:23:31Z</time></trkpt><trkpt lat="43.97082903811332" lon="12.01779547291652"><ele>674.0</ele><time>2026-04-19T10:23:32Z</time></trkpt><trkpt lat="43.97089394224218" lon="12.017763118183865"><ele>674.0000000000001</ele><time>2026-04-19T10:23:33Z</time></trkpt><trkpt lat="43.970961501313" lon="12.017750958001596"><ele>674.0</ele><time>2026-04-19T10:23:34Z</time></trkpt><trkpt lat="43.971085260167165" lon="12.017709157634426"><ele>674.0</ele><time>2026-04-19T10:23:36Z</time></trkpt><trkpt lat="43.97120120159696" lon="12.017727250843697"><ele>674.0</ele><time>2026-04-19T10:23:38Z</time></trkpt><trkpt lat="43.971303456667535" lon="12.01779002411389"><ele>674.0</ele><time>2026-04-19T10:23:40Z</time></trkpt><trkpt lat="43.97139353486995" lon="12.017871718320869"><ele>674.0</ele><time>2026-04-19T10:23:42Z</time></trkpt><trkpt lat="43.97144385725976" lon="12.017973107006474"><ele>674.0</ele><time>2026-04-19T10:23:44Z</time></trkpt><trkpt lat="43.971445566142265" lon="12.018085448111664"><ele>674.0</ele><time>2026-04-19T10:23:46Z</time></trkpt><trkpt lat="43.971395974483755" lon="12.018145658738979"><ele>674.0</ele><time>2026-04-19T10:23:47Z</time></trkpt><trkpt lat="43.97131286648258" lon="12.018154201249253"><ele>674.0</ele><time>2026-04-19T10:23:48Z</time></trkpt><trkpt lat="43.971228569183275" lon="12.018214768767969"><ele>674.0</ele><time>2026-04-19T10:23:49Z</time></trkpt><trkpt lat="43.97112408710744" lon="12.01825277827207"><ele>674.0</ele><time>2026-04-19T10:23:50Z</time></trkpt><trkpt lat="43.971018200808466" lon="12.018290559569678"><ele>674.5</ele><time>2026-04-19T10:23:51Z</time></trkpt><trkpt lat="43.97091633391585" lon="12.018331033588822"><ele>675.0</ele><time>2026-04-19T10:23:52Z</time></trkpt><trkpt lat="43.970809923356164" lon="12.018380925459457"><ele>675.5</ele><time>2026-04-19T10:23:53Z</time></trkpt><trkpt lat="43.97069823168294" lon="12.01843071106364"><ele>676.0</ele><time>2026-04-19T10:23:54Z</time></trkpt><trkpt lat="43.97058777690402" lon="12.018485450058252"><ele>676.25</ele><time>2026-04-19T10:23:55Z</time></trkpt><trkpt lat="43.97048310368321" lon="12.018536216488567"><ele>676.5</ele><time>2026-04-19T10:23:56Z</time></trkpt><trkpt lat="43.97037740568345" lon="12.018595304608558"><ele>676.75</ele><time>2026-04-19T10:23:57Z</time></trkpt><trkpt lat="43.97027049064071" lon="12.018650108191984"><ele>677.0</ele><time>2026-04-19T10:23:58Z</time></trkpt><trkpt lat="43.970157310014066" lon="12.018697335126905"><ele>677.0</ele><time>2026-04-19T10:23:59Z</time></trkpt><trkpt lat="43.97004789922022" lon="12.018743007393219"><ele>677.0</ele><time>2026-04-19T10:24:00Z</time></trkpt><trkpt lat="43.969940174580294" lon="12.018796727509"><ele>677.0</ele><time>2026-04-19T10:24:01Z</time></trkpt><trkpt lat="43.96983036935666" lon="12.018852025710995"><ele>677.0</ele><time>2026-04-19T10:24:02Z</time></trkpt><trkpt lat="43.96972013452962" lon="12.018880402290426"><ele>678.0</ele><time>2026-04-19T10:24:03Z</time></trkpt><trkpt lat="43.96961017544626" lon="12.018922013862179"><ele>679.0</ele><time>2026-04-19T10:24:04Z</time></trkpt><trkpt lat="43.969509240238594" lon="12.018944358391014"><ele>680.0</ele><time>2026-04-19T10:24:05Z</time></trkpt><trkpt lat="43.96940815524875" lon="12.018944152274011"><ele>681.0</ele><time>2026-04-19T10:24:06Z</time></trkpt><trkpt lat="43.969316027911745" lon="12.018943443447515"><ele>682.0</ele><time>2026-04-19T10:24:07Z</time></trkpt><trkpt lat="43.969249591309584" lon="12.01895496199664"><ele>684.8</ele><time>2026-04-19T10:24:08Z</time></trkpt><trkpt lat="43.96918796442509" lon="12.01902075235409"><ele>687.6</ele><time>2026-04-19T10:24:09Z</time></trkpt><trkpt lat="43.9691737903221" lon="12.01914062791188"><ele>690.4</ele><time>2026-04-19T10:24:10Z</time></trkpt><trkpt lat="43.969230746860354" lon="12.01924334850426"><ele>693.1999999999999</ele><time>2026-04-19T10:24:11Z</time></trkpt><trkpt lat="43.96934103269497" lon="12.01928911474799"><ele>696.0</ele><time>2026-04-19T10:24:12Z</time></trkpt><trkpt lat="43.969456304549745" lon="12.019262063054008"><ele>685.5</ele><time>2026-04-19T10:24:13Z</time></trkpt><trkpt lat="43.969586131231324" lon="12.019226197403503"><ele>675.0</ele><time>2026-04-19T10:24:14Z</time></trkpt><trkpt lat="43.96973196549497" lon="12.019164097213931"><ele>664.5</ele><time>2026-04-19T10:24:15Z</time></trkpt><trkpt lat="43.96986449223553" lon="12.01915373628607"><ele>654.0</ele><time>2026-04-19T10:24:16Z</time></trkpt><trkpt lat="43.96999235865849" lon="12.019208291527214"><ele>651.75</ele><time>2026-04-19T10:24:17Z</time></trkpt><trkpt lat="43.97011288052656" lon="12.01926549914116"><ele>649.5</ele><time>2026-04-19T10:24:18Z</time></trkpt><trkpt lat="43.97021780933828" lon="12.019275051281248"><ele>647.25</ele><time>2026-04-19T10:24:19Z</time></trkpt><trkpt lat="43.970329245447225" lon="12.019257944598257"><ele>645.0</ele><time>2026-04-19T10:24:20Z</time></trkpt><trkpt lat="43.97045108461655" lon="12.019188825276515"><ele>652.75</ele><time>2026-04-19T10:24:21Z</time></trkpt><trkpt lat="43.97057582348778" lon="12.019142623698212"><ele>660.5</ele><time>2026-04-19T10:24:22Z</time></trkpt><trkpt lat="43.970681573415476" lon="12.0190653393252"><ele>668.25</ele><time>2026-04-19T10:24:23Z</time></trkpt><trkpt lat="43.970794343516964" lon="12.019023229079318"><ele>676.0</ele><time>2026-04-19T10:24:24Z</time></trkpt><trkpt lat="43.970906420244766" lon="12.018991417267614"><ele>676.0</ele><time>2026-04-19T10:24:25Z</time></trkpt><trkpt lat="43.97102108269776" lon="12.019005262852515"><ele>676.0</ele><time>2026-04-19T10:24:26Z</time></trkpt><trkpt lat="43.97113628954587" lon="12.01900110969337"><ele>676.0</ele><time>2026-04-19T10:24:27Z</time></trkpt><trkpt lat="43.97124890856022" lon="12.01900271418433"><ele>676.0</ele><time>2026-04-19T10:24:28Z</time></trkpt><trkpt lat="43.971360857518206" lon="12.019005408596843"><ele>676.0</ele><time>2026-04-19T10:24:29Z</time></trkpt><trkpt lat="43.97146758694211" lon="12.01903543091444"><ele>676.0</ele><time>2026-04-19T10:24:30Z</time></trkpt><trkpt lat="43.97156601754355" lon="12.019090572440183"><ele>676.0</ele><time>2026-04-19T10:24:31Z</time></trkpt><trkpt lat="43.97165384644735" lon="12.019176273054782"><ele>676.0</ele><time>2026-04-19T10:24:32Z</time></trkpt><trkpt lat="43.97170772319674" lon="12.019315703128743"><ele>676.0</ele><time>2026-04-19T10:24:33Z</time></trkpt><trkpt lat="43.97175531722273" lon="12.019474633202773"><ele>672.75</ele><time>2026-04-19T10:24:34Z</time></trkpt><trkpt lat="43.971794023290464" lon="12.019582075420235"><ele>669.5</ele><time>2026-04-19T10:24:35.001Z</time></trkpt><trkpt lat="43.97186153268556" lon="12.019726228737836"><ele>666.25</ele><time>2026-04-19T10:24:36.001Z</time></trkpt><trkpt lat="43.971938982141694" lon="12.019847514126461"><ele>663.0</ele><time>2026-04-19T10:24:37.001Z</time></trkpt><trkpt lat="43.97204479977169" lon="12.019937019690895"><ele>656.5</ele><time>2026-04-19T10:24:38.001Z</time></trkpt><trkpt lat="43.97214996904952" lon="12.020012254577928"><ele>650.0</ele><time>2026-04-19T10:24:39.001Z</time></trkpt><trkpt lat="43.97225657313027" lon="12.020114087793662"><ele>643.5</ele><time>2026-04-19T10:24:40.001Z</time></trkpt><trkpt lat="43.97237381056366" lon="12.020214935110998"><ele>637.0</ele><time>2026-04-19T10:24:41.001Z</time></trkpt><trkpt lat="43.97249035853104" lon="12.020314244731845"><ele>632.0</ele><time>2026-04-19T10:24:42.001Z</time></trkpt><trkpt lat="43.97261942372893" lon="12.020429242094448"><ele>627.0</ele><time>2026-04-19T10:24:43.001Z</time></trkpt><trkpt lat="43.972756389866596" lon="12.020548141784268"><ele>622.0</ele><time>2026-04-19T10:24:44.001Z</time></trkpt><trkpt lat="43.97289375282112" lon="12.020676802986808"><ele>622.0</ele><time>2026-04-19T10:24:45.001Z</time></trkpt><trkpt lat="43.9730415393222" lon="12.020813215223791"><ele>622.0</ele><time>2026-04-19T10:24:46.001Z</time></trkpt><trkpt lat="43.97319148557678" lon="12.020931086748476"><ele>622.0</ele><time>2026-04-19T10:24:47.001Z</time></trkpt><trkpt lat="43.973320237380975" lon="12.021071497214153"><ele>610.0</ele><time>2026-04-19T10:24:48.001Z</time></trkpt><trkpt lat="43.9734405889093" lon="12.02121269401444"><ele>598.0</ele><time>2026-04-19T10:24:49.001Z</time></trkpt><trkpt lat="43.9735612896685" lon="12.021383855138888"><ele>586.0</ele><time>2026-04-19T10:24:50.001Z</time></trkpt><trkpt lat="43.97366665808047" lon="12.021592887759152"><ele>589.6666666666667</ele><time>2026-04-19T10:24:51.001Z</time></trkpt><trkpt lat="43.973792893471284" lon="12.021804128272843"><ele>593.3333333333334</ele><time>2026-04-19T10:24:52.001Z</time></trkpt><trkpt lat="43.97392970938687" lon="12.022026029784746"><ele>597.0</ele><time>2026-04-19T10:24:53.001Z</time></trkpt><trkpt lat="43.97408762219478" lon="12.022283905042732"><ele>595.6666666666666</ele><time>2026-04-19T10:24:54.001Z</time></trkpt><trkpt lat="43.97424607851321" lon="12.022548348750394"><ele>594.3333333333333</ele><time>2026-04-19T10:24:55.001Z</time></trkpt><trkpt lat="43.97437950689495" lon="12.022750061007782"><ele>593.0</ele><time>2026-04-19T10:24:56.001Z</time></trkpt><trkpt lat="43.97448553706903" lon="12.02292480382089"><ele>593.0</ele><time>2026-04-19T10:24:57.001Z</time></trkpt><trkpt lat="43.974579615723435" lon="12.02306732865776"><ele>593.0</ele><time>2026-04-19T10:24:58.001Z</time></trkpt><trkpt lat="43.97468026790047" lon="12.023168939856504"><ele>593.0</ele><time>2026-04-19T10:24:59.001Z</time></trkpt><trkpt lat="43.97481414879372" lon="12.023241839706412"><ele>593.0</ele><time>2026-04-19T10:25:00.001Z</time></trkpt><trkpt lat="43.97498128688411" lon="12.023323835302326"><ele>591.0</ele><time>2026-04-19T10:25:01.001Z</time></trkpt><trkpt lat="43.97513987116406" lon="12.02342618356069"><ele>589.0</ele><time>2026-04-19T10:25:02.001Z</time></trkpt><trkpt lat="43.97526490669176" lon="12.023538539882985"><ele>587.0</ele><time>2026-04-19T10:25:03.001Z</time></trkpt><trkpt lat="43.975368217782304" lon="12.023675533533634"><ele>587.0</ele><time>2026-04-19T10:25:04.001Z</time></trkpt><trkpt lat="43.97546027174368" lon="12.02385398738296"><ele>587.0</ele><time>2026-04-19T10:25:05.001Z</time></trkpt><trkpt lat="43.97557840752935" lon="12.024070893206213"><ele>587.0</ele><time>2026-04-19T10:25:06.001Z</time></trkpt><trkpt lat="43.9756823406562" lon="12.02421616048135"><ele>591.5</ele><time>2026-04-19T10:25:07.001Z</time></trkpt><trkpt lat="43.97574902594819" lon="12.024357708724068"><ele>596.0</ele><time>2026-04-19T10:25:08.001Z</time></trkpt><trkpt lat="43.97586759847679" lon="12.02440059806786"><ele>600.5</ele><time>2026-04-19T10:25:09Z</time></trkpt><trkpt lat="43.9759605519951" lon="12.02446599371949"><ele>605.0</ele><time>2026-04-19T10:25:10Z</time></trkpt><trkpt lat="43.976072414134606" lon="12.024412575457388"><ele>606.0</ele><time>2026-04-19T10:25:11Z</time></trkpt><trkpt lat="43.9761657377631" lon="12.024394227543912"><ele>607.0</ele><time>2026-04-19T10:25:12Z</time></trkpt><trkpt lat="43.9762815198752" lon="12.024371464207942"><ele>608.0</ele><time>2026-04-19T10:25:13Z</time></trkpt><trkpt lat="43.97647703475181" lon="12.024557714397218"><ele>609.0</ele><time>2026-04-19T10:25:14Z</time></trkpt><trkpt lat="43.976636757015854" lon="12.024641759838495"><ele>612.0</ele><time>2026-04-19T10:25:15Z</time></trkpt><trkpt lat="43.97683161088549" lon="12.024752638200674"><ele>615.0</ele><time>2026-04-19T10:25:16Z</time></trkpt><trkpt lat="43.97700844268959" lon="12.024863213127372"><ele>618.0</ele><time>2026-04-19T10:25:17Z</time></trkpt><trkpt lat="43.97717779698653" lon="12.02503427417834"><ele>620.0</ele><time>2026-04-19T10:25:18Z</time></trkpt><trkpt lat="43.977351533856975" lon="12.025191384290949"><ele>622.0</ele><time>2026-04-19T10:25:19Z</time></trkpt><trkpt lat="43.977495902170496" lon="12.0253198696777"><ele>624.0</ele><time>2026-04-19T10:25:20Z</time></trkpt><trkpt lat="43.977598964449825" lon="12.025414958292403"><ele>632.0</ele><time>2026-04-19T10:25:21Z</time></trkpt><trkpt lat="43.97761969845869" lon="12.025690907424067"><ele>640.0</ele><time>2026-04-19T10:25:23Z</time></trkpt><trkpt lat="43.977672411789484" lon="12.025871845675773"><ele>648.0</ele><time>2026-04-19T10:25:24Z</time></trkpt><trkpt lat="43.977747126423104" lon="12.026017908743906"><ele>648.3333333333334</ele><time>2026-04-19T10:25:25Z</time></trkpt><trkpt lat="43.97787514999274" lon="12.026154330925838"><ele>648.6666666666667</ele><time>2026-04-19T10:25:26Z</time></trkpt><trkpt lat="43.97804439710186" lon="12.026308451927397"><ele>649.0</ele><time>2026-04-19T10:25:27Z</time></trkpt><trkpt lat="43.97822416219311" lon="12.026478008068704"><ele>648.25</ele><time>2026-04-19T10:25:28Z</time></trkpt><trkpt lat="43.97837541405098" lon="12.026619780174313"><ele>647.5</ele><time>2026-04-19T10:25:29Z</time></trkpt><trkpt lat="43.97847921380586" lon="12.026745265212423"><ele>646.75</ele><time>2026-04-19T10:25:30Z</time></trkpt><trkpt lat="43.97852085692582" lon="12.026892434387227"><ele>646.0</ele><time>2026-04-19T10:25:31Z</time></trkpt><trkpt lat="43.97853777775014" lon="12.027024285650151"><ele>646.0</ele><time>2026-04-19T10:25:32Z</time></trkpt><trkpt lat="43.978564007323634" lon="12.027186653010505"><ele>646.0</ele><time>2026-04-19T10:25:33Z</time></trkpt><trkpt lat="43.97859796469797" lon="12.027328493694025"><ele>646.0</ele><time>2026-04-19T10:25:34Z</time></trkpt><trkpt lat="43.97866930320983" lon="12.027429319992455"><ele>646.0</ele><time>2026-04-19T10:25:35Z</time></trkpt><trkpt lat="43.97875942848897" lon="12.027527485547223"><ele>646.0</ele><time>2026-04-19T10:25:36Z</time></trkpt><trkpt lat="43.97885761719303" lon="12.027617021053674"><ele>646.0</ele><time>2026-04-19T10:25:37Z</time></trkpt><trkpt lat="43.97897574811903" lon="12.027733845259304"><ele>646.0</ele><time>2026-04-19T10:25:38Z</time></trkpt><trkpt lat="43.97908854560417" lon="12.027823973164015"><ele>646.0</ele><time>2026-04-19T10:25:39Z</time></trkpt><trkpt lat="43.9791501936675" lon="12.027873143664573"><ele>646.0</ele><time>2026-04-19T10:25:40Z</time></trkpt><trkpt lat="43.979114671628764" lon="12.02801308681834"><ele>646.0</ele><time>2026-04-19T10:25:42Z</time></trkpt><trkpt lat="43.97907191584403" lon="12.028126598090514"><ele>646.0</ele><time>2026-04-19T10:25:43Z</time></trkpt><trkpt lat="43.97903909787297" lon="12.028265930088908"><ele>646.0</ele><time>2026-04-19T10:25:44Z</time></trkpt><trkpt lat="43.97900239159384" lon="12.028427493152329"><ele>646.0</ele><time>2026-04-19T10:25:45Z</time></trkpt><trkpt lat="43.9789641282704" lon="12.028601503052824"><ele>641.75</ele><time>2026-04-19T10:25:46Z</time></trkpt><trkpt lat="43.97891777729597" lon="12.028789895462626"><ele>637.5</ele><time>2026-04-19T10:25:47Z</time></trkpt><trkpt lat="43.978863192651325" lon="12.028953297803149"><ele>633.25</ele><time>2026-04-19T10:25:48Z</time></trkpt><trkpt lat="43.97881018816785" lon="12.029116311707925"><ele>629.0</ele><time>2026-04-19T10:25:49Z</time></trkpt><trkpt lat="43.978747868374384" lon="12.029285944511443"><ele>627.3333333333333</ele><time>2026-04-19T10:25:50Z</time></trkpt><trkpt lat="43.97867852599892" lon="12.029471971399689"><ele>625.6666666666666</ele><time>2026-04-19T10:25:51Z</time></trkpt><trkpt lat="43.97861238694852" lon="12.029661580880092"><ele>624.0</ele><time>2026-04-19T10:25:52Z</time></trkpt><trkpt lat="43.978566921142686" lon="12.02986495990451"><ele>622.3333333333334</ele><time>2026-04-19T10:25:53Z</time></trkpt><trkpt lat="43.97850479009247" lon="12.030061332536302"><ele>620.6666666666667</ele><time>2026-04-19T10:25:54Z</time></trkpt><trkpt lat="43.97847603325491" lon="12.030280286825345"><ele>619.0</ele><time>2026-04-19T10:25:55Z</time></trkpt><trkpt lat="43.97847401848921" lon="12.030509577250402"><ele>619.0</ele><time>2026-04-19T10:25:56Z</time></trkpt><trkpt lat="43.97846450048287" lon="12.03075313285417"><ele>619.0</ele><time>2026-04-19T10:25:57Z</time></trkpt><trkpt lat="43.97844697415773" lon="12.03099433450922"><ele>619.0</ele><time>2026-04-19T10:25:58Z</time></trkpt><trkpt lat="43.97842460333276" lon="12.031160839678295"><ele>619.3333333333334</ele><time>2026-04-19T10:25:59Z</time></trkpt><trkpt lat="43.97838918002386" lon="12.031405909466246"><ele>619.6666666666666</ele><time>2026-04-19T10:26:00Z</time></trkpt><trkpt lat="43.978364307897266" lon="12.031594247297653"><ele>620.0</ele><time>2026-04-19T10:26:01Z</time></trkpt><trkpt lat="43.97833378690247" lon="12.031778940446237"><ele>625.5</ele><time>2026-04-19T10:26:02Z</time></trkpt><trkpt lat="43.97830729760979" lon="12.031960516751663"><ele>631.0</ele><time>2026-04-19T10:26:03Z</time></trkpt><trkpt lat="43.97828950022293" lon="12.032154511535634"><ele>636.5</ele><time>2026-04-19T10:26:04Z</time></trkpt><trkpt lat="43.9782704441318" lon="12.032348786071193"><ele>642.0</ele><time>2026-04-19T10:26:05Z</time></trkpt><trkpt lat="43.97824541905227" lon="12.032543115740271"><ele>642.5</ele><time>2026-04-19T10:26:06Z</time></trkpt><trkpt lat="43.97821009101991" lon="12.032724373943179"><ele>643.0</ele><time>2026-04-19T10:26:07Z</time></trkpt><trkpt lat="43.97815646568067" lon="12.032896779461606"><ele>643.5</ele><time>2026-04-19T10:26:08Z</time></trkpt><trkpt lat="43.9780880464595" lon="12.033069760221062"><ele>644.0</ele><time>2026-04-19T10:26:09Z</time></trkpt><trkpt lat="43.97799046389909" lon="12.033231604703165"><ele>643.75</ele><time>2026-04-19T10:26:10Z</time></trkpt><trkpt lat="43.977883928116455" lon="12.033352851761107"><ele>643.5</ele><time>2026-04-19T10:26:11Z</time></trkpt><trkpt lat="43.977776335127" lon="12.033455298481757"><ele>643.25</ele><time>2026-04-19T10:26:12Z</time></trkpt><trkpt lat="43.977674627129" lon="12.033548887565363"><ele>643.0</ele><time>2026-04-19T10:26:13Z</time></trkpt><trkpt lat="43.97758813156655" lon="12.033643796446768"><ele>643.0</ele><time>2026-04-19T10:26:14Z</time></trkpt><trkpt lat="43.97751226877407" lon="12.03374689453677"><ele>643.0</ele><time>2026-04-19T10:26:15Z</time></trkpt><trkpt lat="43.977468024801254" lon="12.033839811074511"><ele>643.0</ele><time>2026-04-19T10:26:16Z</time></trkpt><trkpt lat="43.9774517971506" lon="12.033927803296653"><ele>643.0</ele><time>2026-04-19T10:26:17Z</time></trkpt><trkpt lat="43.97754486398575" lon="12.03395532930059"><ele>643.0</ele><time>2026-04-19T10:26:20Z</time></trkpt><trkpt lat="43.97761552139815" lon="12.033879933094136"><ele>643.0</ele><time>2026-04-19T10:26:22Z</time></trkpt><trkpt lat="43.9776646203335" lon="12.033815806937469"><ele>643.0</ele><time>2026-04-19T10:26:23Z</time></trkpt><trkpt lat="43.97772889073405" lon="12.033757836323966"><ele>643.0</ele><time>2026-04-19T10:26:24Z</time></trkpt><trkpt lat="43.97780235293098" lon="12.033668096108173"><ele>643.0</ele><time>2026-04-19T10:26:25Z</time></trkpt><trkpt lat="43.97791012228174" lon="12.033603824654325"><ele>643.0</ele><time>2026-04-19T10:26:26Z</time></trkpt><trkpt lat="43.97799658020819" lon="12.033537850994026"><ele>643.0</ele><time>2026-04-19T10:26:27Z</time></trkpt><trkpt lat="43.97807436274768" lon="12.033486006390898"><ele>643.0</ele><time>2026-04-19T10:26:28Z</time></trkpt><trkpt lat="43.97813303340527" lon="12.033446769745064"><ele>643.0</ele><time>2026-04-19T10:26:29Z</time></trkpt><trkpt lat="43.97824490458211" lon="12.033371954675301"><ele>643.0</ele><time>2026-04-19T10:26:31Z</time></trkpt><trkpt lat="43.97832245687121" lon="12.033320090735202"><ele>643.0</ele><time>2026-04-19T10:26:33Z</time></trkpt><trkpt lat="43.97835951069826" lon="12.033465856519248"><ele>643.0</ele><time>2026-04-19T10:26:34Z</time></trkpt><trkpt lat="43.97836099995906" lon="12.03360190618738"><ele>643.0</ele><time>2026-04-19T10:26:35Z</time></trkpt><trkpt lat="43.97834524480603" lon="12.033751568446595"><ele>643.0</ele><time>2026-04-19T10:26:36Z</time></trkpt><trkpt lat="43.97832766105034" lon="12.033890094270195"><ele>643.0</ele><time>2026-04-19T10:26:37Z</time></trkpt><trkpt lat="43.97830990209516" lon="12.034017595772896"><ele>643.0</ele><time>2026-04-19T10:26:38Z</time></trkpt><trkpt lat="43.97828712005482" lon="12.034131517715705"><ele>643.0</ele><time>2026-04-19T10:26:39Z</time></trkpt><trkpt lat="43.97824070833391" lon="12.034234155535541"><ele>642.5999999999999</ele><time>2026-04-19T10:26:40Z</time></trkpt><trkpt lat="43.97820270264767" lon="12.034369854824083"><ele>642.1999999999999</ele><time>2026-04-19T10:26:41Z</time></trkpt><trkpt lat="43.97816369644163" lon="12.034472624168075"><ele>641.8</ele><time>2026-04-19T10:26:42Z</time></trkpt><trkpt lat="43.97814935679122" lon="12.034564261954142"><ele>641.4</ele><time>2026-04-19T10:26:43Z</time></trkpt><trkpt lat="43.978169320767606" lon="12.03470838035489"><ele>641.0</ele><time>2026-04-19T10:26:44.001Z</time></trkpt><trkpt lat="43.978186343232174" lon="12.034870697132822"><ele>639.0</ele><time>2026-04-19T10:26:45.001Z</time></trkpt><trkpt lat="43.97820728012031" lon="12.035011370264836"><ele>637.0</ele><time>2026-04-19T10:26:46.001Z</time></trkpt><trkpt lat="43.97818440185963" lon="12.035115457102059"><ele>635.0</ele><time>2026-04-19T10:26:47.001Z</time></trkpt><trkpt lat="43.97810983577716" lon="12.035254855368075"><ele>633.0</ele><time>2026-04-19T10:26:49.001Z</time></trkpt><trkpt lat="43.97805409403891" lon="12.035337880780263"><ele>631.0</ele><time>2026-04-19T10:26:51.001Z</time></trkpt><trkpt lat="43.978004733031646" lon="12.035505834905326"><ele>631.0</ele><time>2026-04-19T10:26:53.001Z</time></trkpt><trkpt lat="43.977977717234126" lon="12.035628885610423"><ele>631.0</ele><time>2026-04-19T10:26:54.001Z</time></trkpt><trkpt lat="43.97795132589297" lon="12.03575623826769"><ele>631.0</ele><time>2026-04-19T10:26:55.001Z</time></trkpt><trkpt lat="43.97789634520663" lon="12.035847469469036"><ele>631.0</ele><time>2026-04-19T10:26:56.001Z</time></trkpt><trkpt lat="43.977849387488995" lon="12.035917950152"><ele>631.0</ele><time>2026-04-19T10:26:57.001Z</time></trkpt><trkpt lat="43.97777036823616" lon="12.03596628809654"><ele>631.0</ele><time>2026-04-19T10:26:58.001Z</time></trkpt><trkpt lat="43.97767507276562" lon="12.035998838269707"><ele>632.3333333333334</ele><time>2026-04-19T10:26:59.001Z</time></trkpt><trkpt lat="43.97761386734811" lon="12.036049301290706"><ele>633.6666666666667</ele><time>2026-04-19T10:27:00.001Z</time></trkpt><trkpt lat="43.977569475253055" lon="12.036125111352602"><ele>635.0</ele><time>2026-04-19T10:27:01.001Z</time></trkpt><trkpt lat="43.9775554119972" lon="12.036249183217933"><ele>636.3333333333334</ele><time>2026-04-19T10:27:02.001Z</time></trkpt><trkpt lat="43.977538888921735" lon="12.03637065569876"><ele>637.6666666666666</ele><time>2026-04-19T10:27:03.001Z</time></trkpt><trkpt lat="43.977503427491" lon="12.03648316823573"><ele>639.0</ele><time>2026-04-19T10:27:04.001Z</time></trkpt><trkpt lat="43.97747979446979" lon="12.036594473482756"><ele>635.4</ele><time>2026-04-19T10:27:05.001Z</time></trkpt><trkpt lat="43.97748311240848" lon="12.03669189447808"><ele>631.8</ele><time>2026-04-19T10:27:06.001Z</time></trkpt><trkpt lat="43.977525289092796" lon="12.03680178812549"><ele>628.2</ele><time>2026-04-19T10:27:07.001Z</time></trkpt><trkpt lat="43.97759663562809" lon="12.036905461956815"><ele>624.6</ele><time>2026-04-19T10:27:08.001Z</time></trkpt><trkpt lat="43.97763194138865" lon="12.037023766927726"><ele>621.0</ele><time>2026-04-19T10:27:09.001Z</time></trkpt><trkpt lat="43.97766854875376" lon="12.037145158617117"><ele>614.4</ele><time>2026-04-19T10:27:10.001Z</time></trkpt><trkpt lat="43.977709337639276" lon="12.037260564481304"><ele>607.8</ele><time>2026-04-19T10:27:11.001Z</time></trkpt><trkpt lat="43.977763169769204" lon="12.037379867712266"><ele>601.1999999999999</ele><time>2026-04-19T10:27:12.001Z</time></trkpt><trkpt lat="43.977822382173656" lon="12.03749065647908"><ele>594.6</ele><time>2026-04-19T10:27:13.001Z</time></trkpt><trkpt lat="43.97786882452426" lon="12.037589109189152"><ele>588.0</ele><time>2026-04-19T10:27:14.001Z</time></trkpt><trkpt lat="43.97790649327297" lon="12.037679536855952"><ele>586.8</ele><time>2026-04-19T10:27:15Z</time></trkpt><trkpt lat="43.977891285876936" lon="12.037795303386465"><ele>585.5999999999999</ele><time>2026-04-19T10:27:16Z</time></trkpt><trkpt lat="43.977862532198664" lon="12.037926972302555"><ele>584.4000000000001</ele><time>2026-04-19T10:27:17Z</time></trkpt><trkpt lat="43.97782639174831" lon="12.038069251071095"><ele>583.2</ele><time>2026-04-19T10:27:18Z</time></trkpt><trkpt lat="43.97782558194788" lon="12.038202378892374"><ele>582.0</ele><time>2026-04-19T10:27:19Z</time></trkpt><trkpt lat="43.9778295699902" lon="12.038313848178753"><ele>581.6</ele><time>2026-04-19T10:27:20Z</time></trkpt><trkpt lat="43.977856143387655" lon="12.038455435182557"><ele>581.2</ele><time>2026-04-19T10:27:22Z</time></trkpt><trkpt lat="43.977897878301796" lon="12.038567009113269"><ele>580.8</ele><time>2026-04-19T10:27:23Z</time></trkpt><trkpt lat="43.97794874644789" lon="12.03868372667771"><ele>580.4</ele><time>2026-04-19T10:27:24Z</time></trkpt><trkpt lat="43.977994183950024" lon="12.038819543432622"><ele>580.0</ele><time>2026-04-19T10:27:25Z</time></trkpt><trkpt lat="43.978026639135656" lon="12.038981105857049"><ele>580.0</ele><time>2026-04-19T10:27:26Z</time></trkpt><trkpt lat="43.978063267273484" lon="12.039131431387558"><ele>580.0</ele><time>2026-04-19T10:27:27Z</time></trkpt><trkpt lat="43.97809526732047" lon="12.039316810892492"><ele>580.0</ele><time>2026-04-19T10:27:28Z</time></trkpt><trkpt lat="43.97813916798559" lon="12.039485965908057"><ele>580.0</ele><time>2026-04-19T10:27:29Z</time></trkpt><trkpt lat="43.97818484653069" lon="12.039668718846958"><ele>580.5</ele><time>2026-04-19T10:27:30Z</time></trkpt><trkpt lat="43.97823956360219" lon="12.039860565937099"><ele>581.0</ele><time>2026-04-19T10:27:31Z</time></trkpt><trkpt lat="43.97828802214538" lon="12.040045996242066"><ele>581.5</ele><time>2026-04-19T10:27:32Z</time></trkpt><trkpt lat="43.97834335822564" lon="12.040239245230241"><ele>582.0</ele><time>2026-04-19T10:27:33Z</time></trkpt><trkpt lat="43.97839394408676" lon="12.040427933152491"><ele>582.5</ele><time>2026-04-19T10:27:34Z</time></trkpt><trkpt lat="43.97845829046701" lon="12.040612605210594"><ele>583.0</ele><time>2026-04-19T10:27:35Z</time></trkpt><trkpt lat="43.97851250040603" lon="12.040787008156308"><ele>583.5</ele><time>2026-04-19T10:27:36Z</time></trkpt><trkpt lat="43.978569741350334" lon="12.040940044510021"><ele>584.0</ele><time>2026-04-19T10:27:37Z</time></trkpt><trkpt lat="43.97862883819271" lon="12.041062358272582"><ele>584.0</ele><time>2026-04-19T10:27:38Z</time></trkpt><trkpt lat="43.97869216665953" lon="12.04118253679368"><ele>584.0</ele><time>2026-04-19T10:27:39Z</time></trkpt><trkpt lat="43.97873361900474" lon="12.0412908102968"><ele>584.0</ele><time>2026-04-19T10:27:40Z</time></trkpt><trkpt lat="43.97877006019033" lon="12.04137137555837"><ele>584.0</ele><time>2026-04-19T10:27:41Z</time></trkpt><trkpt lat="43.97879778720619" lon="12.041478339948783"><ele>584.0</ele><time>2026-04-19T10:27:43Z</time></trkpt><trkpt lat="43.97879652558225" lon="12.041613052316327"><ele>584.0</ele><time>2026-04-19T10:27:58Z</time></trkpt><trkpt lat="43.97875187870804" lon="12.041799091006705"><ele>586.4</ele><time>2026-04-19T10:28:00Z</time></trkpt><trkpt lat="43.978728195579905" lon="12.041896728325327"><ele>588.8</ele><time>2026-04-19T10:28:01Z</time></trkpt><trkpt lat="43.97872498255805" lon="12.042002934109478"><ele>591.2</ele><time>2026-04-19T10:28:02Z</time></trkpt><trkpt lat="43.978817646594216" lon="12.042099496506452"><ele>593.6</ele><time>2026-04-19T10:28:03Z</time></trkpt><trkpt lat="43.97881068521485" lon="12.042226017227867"><ele>596.0</ele><time>2026-04-19T10:28:04Z</time></trkpt><trkpt lat="43.978793949019014" lon="12.042360568043916"><ele>599.25</ele><time>2026-04-19T10:28:05Z</time></trkpt><trkpt lat="43.97875673083378" lon="12.042564556310765"><ele>602.5</ele><time>2026-04-19T10:28:07Z</time></trkpt><trkpt lat="43.97872363677168" lon="12.042686542164402"><ele>605.75</ele><time>2026-04-19T10:28:08Z</time></trkpt><trkpt lat="43.97866224208486" lon="12.042871713750962"><ele>609.0</ele><time>2026-04-19T10:28:10Z</time></trkpt><trkpt lat="43.9786109222156" lon="12.042981291041414"><ele>609.0</ele><time>2026-04-19T10:28:11Z</time></trkpt><trkpt lat="43.97859817341983" lon="12.043114735827306"><ele>609.0</ele><time>2026-04-19T10:28:12Z</time></trkpt><trkpt lat="43.97853087884289" lon="12.043206500211335"><ele>609.0</ele><time>2026-04-19T10:28:13Z</time></trkpt><trkpt lat="43.97847746733702" lon="12.043338540679002"><ele>609.0</ele><time>2026-04-19T10:28:14Z</time></trkpt><trkpt lat="43.97841571363888" lon="12.043486236740137"><ele>609.0</ele><time>2026-04-19T10:28:16Z</time></trkpt><trkpt lat="43.97836453339842" lon="12.043600838610898"><ele>603.8</ele><time>2026-04-19T10:28:17Z</time></trkpt><trkpt lat="43.97832283794266" lon="12.04368312314418"><ele>598.5999999999999</ele><time>2026-04-19T10:28:18Z</time></trkpt><trkpt lat="43.978240507705124" lon="12.043839051894752"><ele>593.4</ele><time>2026-04-19T10:28:20Z</time></trkpt><trkpt lat="43.97818375118082" lon="12.043946546562015"><ele>588.1999999999999</ele><time>2026-04-19T10:28:21Z</time></trkpt><trkpt lat="43.97813573670875" lon="12.044036625769206"><ele>583.0</ele><time>2026-04-19T10:28:22Z</time></trkpt><trkpt lat="43.978092967615574" lon="12.044115667101195"><ele>584.75</ele><time>2026-04-19T10:28:23Z</time></trkpt><trkpt lat="43.97801795935607" lon="12.044257788127778"><ele>586.5</ele><time>2026-04-19T10:28:25Z</time></trkpt><trkpt lat="43.97793021462224" lon="12.044347120020895"><ele>588.25</ele><time>2026-04-19T10:28:27Z</time></trkpt><trkpt lat="43.97787150581846" lon="12.044404807405135"><ele>590.0</ele><time>2026-04-19T10:28:28Z</time></trkpt><trkpt lat="43.977349695014674" lon="12.044369781969417"><ele>583.0</ele><time>2026-04-19T10:28:29Z</time></trkpt><trkpt lat="43.9772701480238" lon="12.04431687545177"><ele>576.0</ele><time>2026-04-19T10:28:30Z</time></trkpt><trkpt lat="43.977261193309694" lon="12.044734374316409"><ele>569.0</ele><time>2026-04-19T10:28:31Z</time></trkpt><trkpt lat="43.97704688345717" lon="12.044003003839821"><ele>566.8</ele><time>2026-04-19T10:28:34Z</time></trkpt><trkpt lat="43.97693373632339" lon="12.044054336494607"><ele>564.5999999999999</ele><time>2026-04-19T10:28:36Z</time></trkpt><trkpt lat="43.97683653886307" lon="12.044047464828488"><ele>562.4</ele><time>2026-04-19T10:28:37Z</time></trkpt><trkpt lat="43.97674114591349" lon="12.044071760966922"><ele>560.1999999999999</ele><time>2026-04-19T10:28:38Z</time></trkpt><trkpt lat="43.97665068952463" lon="12.044089324374804"><ele>558.0</ele><time>2026-04-19T10:28:39Z</time></trkpt><trkpt lat="43.976584844352914" lon="12.044104603998433"><ele>557.4</ele><time>2026-04-19T10:28:40Z</time></trkpt><trkpt lat="43.97647254727362" lon="12.044141530263746"><ele>556.8</ele><time>2026-04-19T10:28:42Z</time></trkpt><trkpt lat="43.97640445358617" lon="12.044119472300364"><ele>556.2</ele><time>2026-04-19T10:28:44Z</time></trkpt><trkpt lat="43.976336357537754" lon="12.044180474341987"><ele>555.6</ele><time>2026-04-19T10:28:45Z</time></trkpt><trkpt lat="43.97627976627167" lon="12.044295302450106"><ele>555.0</ele><time>2026-04-19T10:28:46Z</time></trkpt><trkpt lat="43.97623585405211" lon="12.044434756080692"><ele>555.0</ele><time>2026-04-19T10:28:47Z</time></trkpt><trkpt lat="43.97618825762136" lon="12.044542879221797"><ele>555.0</ele><time>2026-04-19T10:28:48Z</time></trkpt><trkpt lat="43.97611545493895" lon="12.044610044298622"><ele>555.0</ele><time>2026-04-19T10:28:49Z</time></trkpt><trkpt lat="43.976014348944275" lon="12.04469533453596"><ele>555.0</ele><time>2026-04-19T10:28:50Z</time></trkpt><trkpt lat="43.97589708822982" lon="12.044742090500527"><ele>555.0</ele><time>2026-04-19T10:28:51Z</time></trkpt><trkpt lat="43.97577032357871" lon="12.044778737349837"><ele>552.0</ele><time>2026-04-19T10:28:52Z</time></trkpt><trkpt lat="43.975636842083844" lon="12.044816794345515"><ele>549.0</ele><time>2026-04-19T10:28:53Z</time></trkpt><trkpt lat="43.975518450199225" lon="12.044887003982467"><ele>546.0</ele><time>2026-04-19T10:28:54Z</time></trkpt><trkpt lat="43.975396751980846" lon="12.04495264336432"><ele>543.0</ele><time>2026-04-19T10:28:55Z</time></trkpt><trkpt lat="43.97527537500838" lon="12.045014955463847"><ele>543.0</ele><time>2026-04-19T10:28:56Z</time></trkpt><trkpt lat="43.975160243653676" lon="12.045046292032842"><ele>543.0</ele><time>2026-04-19T10:28:57Z</time></trkpt><trkpt lat="43.975062198550155" lon="12.04508253086351"><ele>543.0</ele><time>2026-04-19T10:28:58.001Z</time></trkpt><trkpt lat="43.97499959151937" lon="12.045136680325237"><ele>543.0</ele><time>2026-04-19T10:28:59.001Z</time></trkpt><trkpt lat="43.97495529427346" lon="12.045229418292895"><ele>543.0</ele><time>2026-04-19T10:29:00.001Z</time></trkpt><trkpt lat="43.97495896154004" lon="12.045369547068942"><ele>539.5</ele><time>2026-04-19T10:29:01.001Z</time></trkpt><trkpt lat="43.97496734029377" lon="12.045541878823567"><ele>536.0</ele><time>2026-04-19T10:29:02.001Z</time></trkpt><trkpt lat="43.97497405543515" lon="12.04574102952121"><ele>532.5</ele><time>2026-04-19T10:29:03.001Z</time></trkpt><trkpt lat="43.97494882195166" lon="12.045924400929815"><ele>529.0</ele><time>2026-04-19T10:29:04.001Z</time></trkpt><trkpt lat="43.974910799412754" lon="12.046119153701255"><ele>529.0</ele><time>2026-04-19T10:29:05.001Z</time></trkpt><trkpt lat="43.97484307377376" lon="12.046306127754074"><ele>529.0</ele><time>2026-04-19T10:29:06.001Z</time></trkpt><trkpt lat="43.97477761404399" lon="12.046488312715674"><ele>529.0</ele><time>2026-04-19T10:29:07.001Z</time></trkpt><trkpt lat="43.97470979823097" lon="12.046660301852473"><ele>529.0</ele><time>2026-04-19T10:29:08.001Z</time></trkpt><trkpt lat="43.97461342929619" lon="12.046802571090172"><ele>525.25</ele><time>2026-04-19T10:29:09.001Z</time></trkpt><trkpt lat="43.97450272925909" lon="12.046905367696938"><ele>521.5</ele><time>2026-04-19T10:29:10.001Z</time></trkpt><trkpt lat="43.97437771168729" lon="12.047005193300711"><ele>517.75</ele><time>2026-04-19T10:29:11.001Z</time></trkpt><trkpt lat="43.97425682003746" lon="12.047107534706567"><ele>514.0</ele><time>2026-04-19T10:29:12.001Z</time></trkpt><trkpt lat="43.97416238473041" lon="12.047215017627273"><ele>513.25</ele><time>2026-04-19T10:29:13.001Z</time></trkpt><trkpt lat="43.974068074762975" lon="12.047299618101793"><ele>512.5</ele><time>2026-04-19T10:29:14.001Z</time></trkpt><trkpt lat="43.97400920136613" lon="12.047432900716766"><ele>511.75</ele><time>2026-04-19T10:29:15.001Z</time></trkpt><trkpt lat="43.973971833874614" lon="12.047600840213809"><ele>511.0</ele><time>2026-04-19T10:29:16.001Z</time></trkpt><trkpt lat="43.97392306954815" lon="12.047755012177268"><ele>511.0</ele><time>2026-04-19T10:29:17.001Z</time></trkpt><trkpt lat="43.973906637266374" lon="12.047916724182626"><ele>511.0</ele><time>2026-04-19T10:29:18.001Z</time></trkpt><trkpt lat="43.9739209998778" lon="12.048100824557535"><ele>511.0</ele><time>2026-04-19T10:29:19.001Z</time></trkpt><trkpt lat="43.97390909429494" lon="12.048266847521681"><ele>511.0</ele><time>2026-04-19T10:29:20.001Z</time></trkpt><trkpt lat="43.973860646967985" lon="12.048413564064607"><ele>510.75</ele><time>2026-04-19T10:29:21Z</time></trkpt><trkpt lat="43.973789794345386" lon="12.048548558367619"><ele>510.5</ele><time>2026-04-19T10:29:22Z</time></trkpt><trkpt lat="43.97371969790084" lon="12.048693765788553"><ele>510.25</ele><time>2026-04-19T10:29:23Z</time></trkpt><trkpt lat="43.97365493693199" lon="12.048846821875092"><ele>510.0</ele><time>2026-04-19T10:29:24Z</time></trkpt><trkpt lat="43.97356223671694" lon="12.0489811374805"><ele>510.0</ele><time>2026-04-19T10:29:25Z</time></trkpt><trkpt lat="43.97345021881709" lon="12.049076389673152"><ele>510.0</ele><time>2026-04-19T10:29:26Z</time></trkpt><trkpt lat="43.97332963889955" lon="12.04908300722823"><ele>510.0</ele><time>2026-04-19T10:29:27Z</time></trkpt><trkpt lat="43.97321730108473" lon="12.049137745175551"><ele>510.0</ele><time>2026-04-19T10:29:28Z</time></trkpt><trkpt lat="43.97310278462037" lon="12.04918553067217"><ele>512.5</ele><time>2026-04-19T10:29:29Z</time></trkpt><trkpt lat="43.97301489280704" lon="12.04923210797002"><ele>515.0</ele><time>2026-04-19T10:29:30Z</time></trkpt><trkpt lat="43.97293456538019" lon="12.049280341676019"><ele>517.5</ele><time>2026-04-19T10:29:31Z</time></trkpt><trkpt lat="43.972878618347366" lon="12.049326867639273"><ele>520.0</ele><time>2026-04-19T10:29:32Z</time></trkpt><trkpt lat="43.97280211571656" lon="12.049363346870335"><ele>522.5</ele><time>2026-04-19T10:29:34Z</time></trkpt><trkpt lat="43.9727426713992" lon="12.04940165641149"><ele>525.0</ele><time>2026-04-19T10:29:41Z</time></trkpt><trkpt lat="43.972688176902615" lon="12.04944840055778"><ele>525.0</ele><time>2026-04-19T10:30:17Z</time></trkpt><trkpt lat="43.97265528984307" lon="12.049548764183793"><ele>525.0</ele><time>2026-04-19T10:30:31Z</time></trkpt><trkpt lat="43.972653256092606" lon="12.049668156655498"><ele>525.0</ele><time>2026-04-19T10:30:33Z</time></trkpt><trkpt lat="43.97263765506636" lon="12.049791324946852"><ele>525.0</ele><time>2026-04-19T10:30:35Z</time></trkpt><trkpt lat="43.97260255153641" lon="12.049868164446819"><ele>525.0</ele><time>2026-04-19T10:30:37Z</time></trkpt><trkpt lat="43.97264355974108" lon="12.049767406217388"><ele>525.0</ele><time>2026-04-19T10:30:44Z</time></trkpt><trkpt lat="43.972668101661725" lon="12.049668781490162"><ele>525.0</ele><time>2026-04-19T10:30:49Z</time></trkpt><trkpt lat="43.972669623462714" lon="12.049574551175246"><ele>525.0</ele><time>2026-04-19T10:31:40Z</time></trkpt><trkpt lat="43.972672995633914" lon="12.049485742099353"><ele>525.0</ele><time>2026-04-19T10:31:48Z</time></trkpt><trkpt lat="43.97274780794469" lon="12.049428054301707"><ele>525.0</ele><time>2026-04-19T10:31:51Z</time></trkpt><trkpt lat="43.972703878689956" lon="12.049522023340007"><ele>525.0</ele><time>2026-04-19T10:33:20Z</time></trkpt><trkpt lat="43.9726804183587" lon="12.04962204675992"><ele>525.0</ele><time>2026-04-19T10:33:22.001Z</time></trkpt><trkpt lat="43.97266528002372" lon="12.049745434980322"><ele>525.0</ele><time>2026-04-19T10:33:24.001Z</time></trkpt><trkpt lat="43.97262642253935" lon="12.049891817272478"><ele>525.0</ele><time>2026-04-19T10:33:26.001Z</time></trkpt><trkpt lat="43.97251723186013" lon="12.049935550341665"><ele>525.0</ele><time>2026-04-19T10:33:28.001Z</time></trkpt><trkpt lat="43.97245286574356" lon="12.049952897415363"><ele>525.0</ele><time>2026-04-19T10:33:29.001Z</time></trkpt><trkpt lat="43.97237017098896" lon="12.049976687196175"><ele>525.0</ele><time>2026-04-19T10:33:30.001Z</time></trkpt><trkpt lat="43.97225652154346" lon="12.049995004442785"><ele>525.3333333333334</ele><time>2026-04-19T10:33:31.001Z</time></trkpt><trkpt lat="43.97216499969494" lon="12.050034574174212"><ele>525.6666666666666</ele><time>2026-04-19T10:33:32.001Z</time></trkpt><trkpt lat="43.972086084721035" lon="12.050084944343254"><ele>526.0</ele><time>2026-04-19T10:33:33Z</time></trkpt><trkpt lat="43.97201512237764" lon="12.050166635479279"><ele>526.3333333333333</ele><time>2026-04-19T10:33:34Z</time></trkpt><trkpt lat="43.97195184462389" lon="12.050241665969882"><ele>526.6666666666666</ele><time>2026-04-19T10:33:35Z</time></trkpt><trkpt lat="43.971896844861504" lon="12.0503228327455"><ele>527.0</ele><time>2026-04-19T10:33:36Z</time></trkpt><trkpt lat="43.97184766447345" lon="12.050404477503456"><ele>527.0</ele><time>2026-04-19T10:33:37Z</time></trkpt><trkpt lat="43.97181250076387" lon="12.050496677858082"><ele>527.0</ele><time>2026-04-19T10:33:38Z</time></trkpt><trkpt lat="43.971767562406576" lon="12.050645595914279"><ele>527.0</ele><time>2026-04-19T10:33:40Z</time></trkpt><trkpt lat="43.97171308209576" lon="12.050792773366178"><ele>527.0</ele><time>2026-04-19T10:33:42Z</time></trkpt><trkpt lat="43.97167940560054" lon="12.0508799867557"><ele>527.0</ele><time>2026-04-19T10:33:43Z</time></trkpt><trkpt lat="43.97164900296074" lon="12.050960614790602"><ele>527.0</ele><time>2026-04-19T10:33:44Z</time></trkpt><trkpt lat="43.971616800518454" lon="12.051045354386218"><ele>525.7142857142858</ele><time>2026-04-19T10:33:45Z</time></trkpt><trkpt lat="43.97158450096968" lon="12.05113345429025"><ele>524.4285714285714</ele><time>2026-04-19T10:33:46Z</time></trkpt><trkpt lat="43.97154833738896" lon="12.051227959745248"><ele>523.1428571428571</ele><time>2026-04-19T10:33:47Z</time></trkpt><trkpt lat="43.97151322779141" lon="12.051323975088385"><ele>521.8571428571429</ele><time>2026-04-19T10:33:48Z</time></trkpt><trkpt lat="43.9714778634335" lon="12.051417103277599"><ele>520.5714285714286</ele><time>2026-04-19T10:33:49Z</time></trkpt><trkpt lat="43.97144613361087" lon="12.051507496052668"><ele>519.2857142857143</ele><time>2026-04-19T10:33:50Z</time></trkpt><trkpt lat="43.97140318567429" lon="12.051582219239137"><ele>518.0</ele><time>2026-04-19T10:33:51Z</time></trkpt><trkpt lat="43.971351682630704" lon="12.051652318916364"><ele>515.5</ele><time>2026-04-19T10:33:52Z</time></trkpt><trkpt lat="43.97129046569865" lon="12.051725356050047"><ele>513.0</ele><time>2026-04-19T10:33:53Z</time></trkpt><trkpt lat="43.97123194216398" lon="12.05181019899986"><ele>510.5</ele><time>2026-04-19T10:33:54Z</time></trkpt><trkpt lat="43.971177193101816" lon="12.051903975135879"><ele>508.0</ele><time>2026-04-19T10:33:55Z</time></trkpt><trkpt lat="43.971128215444025" lon="12.051997394634256"><ele>505.49999999999994</ele><time>2026-04-19T10:33:56Z</time></trkpt><trkpt lat="43.97108693811865" lon="12.05210282216746"><ele>503.0</ele><time>2026-04-19T10:33:57Z</time></trkpt><trkpt lat="43.97107572388752" lon="12.052232064285132"><ele>503.0</ele><time>2026-04-19T10:33:58Z</time></trkpt><trkpt lat="43.97100857076677" lon="12.052337704232267"><ele>502.99999999999994</ele><time>2026-04-19T10:33:59Z</time></trkpt><trkpt lat="43.97095410647098" lon="12.05242965382108"><ele>502.99999999999994</ele><time>2026-04-19T10:34:00Z</time></trkpt><trkpt lat="43.970872304058986" lon="12.052492837562456"><ele>503.0</ele><time>2026-04-19T10:34:01Z</time></trkpt><trkpt lat="43.97078445137055" lon="12.052570407802914"><ele>503.0</ele><time>2026-04-19T10:34:02Z</time></trkpt><trkpt lat="43.97075205860771" lon="12.052686733204496"><ele>505.79999999999995</ele><time>2026-04-19T10:34:03Z</time></trkpt><trkpt lat="43.970710298179746" lon="12.052782420338781"><ele>508.59999999999997</ele><time>2026-04-19T10:34:04Z</time></trkpt><trkpt lat="43.970667342141724" lon="12.05289446096866"><ele>511.40000000000003</ele><time>2026-04-19T10:34:05Z</time></trkpt><trkpt lat="43.97059017089416" lon="12.053006827702491"><ele>514.2</ele><time>2026-04-19T10:34:06Z</time></trkpt><trkpt lat="43.97051523419046" lon="12.053102048523428"><ele>517.0</ele><time>2026-04-19T10:34:07Z</time></trkpt><trkpt lat="43.970434986251654" lon="12.05319378232278"><ele>517.0</ele><time>2026-04-19T10:34:08Z</time></trkpt><trkpt lat="43.97035615749712" lon="12.053283867678195"><ele>517.0</ele><time>2026-04-19T10:34:09Z</time></trkpt><trkpt lat="43.97028673831583" lon="12.053364356142003"><ele>517.0</ele><time>2026-04-19T10:34:10Z</time></trkpt><trkpt lat="43.97022367869794" lon="12.053437745417787"><ele>517.0</ele><time>2026-04-19T10:34:11Z</time></trkpt><trkpt lat="43.97017066565742" lon="12.053501413508553"><ele>517.0</ele><time>2026-04-19T10:34:12Z</time></trkpt><trkpt lat="43.9700824389828" lon="12.053602934783738"><ele>518.5</ele><time>2026-04-19T10:34:14Z</time></trkpt><trkpt lat="43.96997867381442" lon="12.053690448959257"><ele>520.0</ele><time>2026-04-19T10:34:16Z</time></trkpt><trkpt lat="43.969919063822374" lon="12.053748362868715"><ele>521.5</ele><time>2026-04-19T10:34:17Z</time></trkpt><trkpt lat="43.96985801898504" lon="12.053805005572555"><ele>523.0</ele><time>2026-04-19T10:34:18Z</time></trkpt><trkpt lat="43.96980533484714" lon="12.05385717515"><ele>524.5</ele><time>2026-04-19T10:34:19Z</time></trkpt><trkpt lat="43.96975002934171" lon="12.053996100653416"><ele>526.0</ele><time>2026-04-19T10:34:21Z</time></trkpt><trkpt lat="43.96977629637528" lon="12.05412725614598"><ele>527.1666666666667</ele><time>2026-04-19T10:34:23Z</time></trkpt><trkpt lat="43.9697922480234" lon="12.054220412784614"><ele>528.3333333333334</ele><time>2026-04-19T10:34:25Z</time></trkpt><trkpt lat="43.969787881711376" lon="12.054317127794056"><ele>529.5</ele><time>2026-04-19T10:34:28Z</time></trkpt><trkpt lat="43.969852179636426" lon="12.054393281497896"><ele>530.6666666666666</ele><time>2026-04-19T10:34:32Z</time></trkpt><trkpt lat="43.96987407887379" lon="12.054515418507174"><ele>531.8333333333333</ele><time>2026-04-19T10:34:35Z</time></trkpt><trkpt lat="43.96988463884799" lon="12.054602739877362"><ele>533.0</ele><time>2026-04-19T10:34:36Z</time></trkpt><trkpt lat="43.96992321524712" lon="12.0547294396037"><ele>533.0</ele><time>2026-04-19T10:34:37Z</time></trkpt><trkpt lat="43.96996361085633" lon="12.054866384987024"><ele>533.0</ele><time>2026-04-19T10:34:38Z</time></trkpt><trkpt lat="43.97003224584775" lon="12.05497466182671"><ele>533.0</ele><time>2026-04-19T10:34:39Z</time></trkpt><trkpt lat="43.97008836587325" lon="12.055100882696635"><ele>533.0</ele><time>2026-04-19T10:34:40Z</time></trkpt><trkpt lat="43.97014984118031" lon="12.055219874172346"><ele>533.0</ele><time>2026-04-19T10:34:41Z</time></trkpt><trkpt lat="43.97016494239817" lon="12.055328340521637"><ele>532.6</ele><time>2026-04-19T10:34:42Z</time></trkpt><trkpt lat="43.97014896627137" lon="12.055445275244107"><ele>532.1999999999999</ele><time>2026-04-19T10:34:43Z</time></trkpt><trkpt lat="43.97007956239638" lon="12.055534974353401"><ele>531.8</ele><time>2026-04-19T10:34:44Z</time></trkpt><trkpt lat="43.97001839041153" lon="12.055693924491578"><ele>531.4</ele><time>2026-04-19T10:34:45Z</time></trkpt><trkpt lat="43.96996047384771" lon="12.055836640628296"><ele>531.0</ele><time>2026-04-19T10:34:46Z</time></trkpt><trkpt lat="43.969908272930184" lon="12.055996497387452"><ele>529.2</ele><time>2026-04-19T10:34:47Z</time></trkpt><trkpt lat="43.969885996789365" lon="12.056149386680069"><ele>527.4000000000001</ele><time>2026-04-19T10:34:48Z</time></trkpt><trkpt lat="43.96987985193988" lon="12.056297251142443"><ele>525.6</ele><time>2026-04-19T10:34:49Z</time></trkpt><trkpt lat="43.96991330778003" lon="12.056444952377587"><ele>523.8000000000001</ele><time>2026-04-19T10:34:50Z</time></trkpt><trkpt lat="43.96993188394826" lon="12.056588862348688"><ele>522.0</ele><time>2026-04-19T10:34:51Z</time></trkpt><trkpt lat="43.96997130672049" lon="12.056712913128871"><ele>520.2</ele><time>2026-04-19T10:34:52Z</time></trkpt><trkpt lat="43.970013790425845" lon="12.056806129390424"><ele>518.4000000000001</ele><time>2026-04-19T10:34:53Z</time></trkpt><trkpt lat="43.97004328824579" lon="12.056907914342018"><ele>516.5999999999999</ele><time>2026-04-19T10:34:55Z</time></trkpt><trkpt lat="43.969872329526524" lon="12.056971772736846"><ele>514.8</ele><time>2026-04-19T10:34:56Z</time></trkpt><trkpt lat="43.96979234636516" lon="12.057011505710975"><ele>513.0</ele><time>2026-04-19T10:34:57Z</time></trkpt><trkpt lat="43.96972222021612" lon="12.057090138421628"><ele>513.0</ele><time>2026-04-19T10:34:58Z</time></trkpt><trkpt lat="43.96965829521703" lon="12.057179133833204"><ele>513.0</ele><time>2026-04-19T10:34:59Z</time></trkpt><trkpt lat="43.96960948713313" lon="12.05729482716803"><ele>513.0</ele><time>2026-04-19T10:35:00Z</time></trkpt><trkpt lat="43.96956394164991" lon="12.05740565645354"><ele>513.0</ele><time>2026-04-19T10:35:01Z</time></trkpt><trkpt lat="43.96949144987205" lon="12.057503803112317"><ele>513.0</ele><time>2026-04-19T10:35:02Z</time></trkpt><trkpt lat="43.96944348918559" lon="12.05766110551515"><ele>511.59999999999997</ele><time>2026-04-19T10:35:03Z</time></trkpt><trkpt lat="43.969423686578594" lon="12.057829199576748"><ele>510.19999999999993</ele><time>2026-04-19T10:35:04Z</time></trkpt><trkpt lat="43.96940970022629" lon="12.057984151698438"><ele>508.8</ele><time>2026-04-19T10:35:05Z</time></trkpt><trkpt lat="43.96944420995876" lon="12.058128655639972"><ele>507.4</ele><time>2026-04-19T10:35:06Z</time></trkpt><trkpt lat="43.969484654162024" lon="12.058218710575575"><ele>506.0</ele><time>2026-04-19T10:35:07Z</time></trkpt><trkpt lat="43.96952413770546" lon="12.058291565189323"><ele>506.0</ele><time>2026-04-19T10:35:08Z</time></trkpt><trkpt lat="43.9695853786419" lon="12.05840841274002"><ele>506.0</ele><time>2026-04-19T10:35:09Z</time></trkpt><trkpt lat="43.96965740824085" lon="12.05854351249181"><ele>506.0</ele><time>2026-04-19T10:35:10Z</time></trkpt><trkpt lat="43.969751980716964" lon="12.058610812808734"><ele>506.0</ele><time>2026-04-19T10:35:11Z</time></trkpt><trkpt lat="43.96983283905409" lon="12.05866723778803"><ele>506.0</ele><time>2026-04-19T10:35:12Z</time></trkpt><trkpt lat="43.96992239410111" lon="12.058727801032008"><ele>506.0</ele><time>2026-04-19T10:35:13Z</time></trkpt><trkpt lat="43.97000253082769" lon="12.058833086776623"><ele>506.0</ele><time>2026-04-19T10:35:14Z</time></trkpt><trkpt lat="43.9700642455578" lon="12.058950210682433"><ele>506.0</ele><time>2026-04-19T10:35:15Z</time></trkpt><trkpt lat="43.970133179349496" lon="12.059054166374318"><ele>506.0</ele><time>2026-04-19T10:35:16Z</time></trkpt><trkpt lat="43.9701867850247" lon="12.059118149631109"><ele>506.0</ele><time>2026-04-19T10:35:17Z</time></trkpt><trkpt lat="43.97029099916454" lon="12.059118978249815"><ele>502.99999999999994</ele><time>2026-04-19T10:35:18Z</time></trkpt><trkpt lat="43.97037847737711" lon="12.059160565158754"><ele>500.0</ele><time>2026-04-19T10:35:19Z</time></trkpt><trkpt lat="43.97043994284565" lon="12.05923204451416"><ele>497.0</ele><time>2026-04-19T10:35:20Z</time></trkpt><trkpt lat="43.97047688184969" lon="12.059311213616812"><ele>494.0</ele><time>2026-04-19T10:35:21Z</time></trkpt><trkpt lat="43.97053379587139" lon="12.059469703085362"><ele>490.99999999999994</ele><time>2026-04-19T10:35:23Z</time></trkpt><trkpt lat="43.97054936009919" lon="12.059575836151692"><ele>488.0</ele><time>2026-04-19T10:35:24Z</time></trkpt><trkpt lat="43.97056661582105" lon="12.059660826268724"><ele>487.99999999999994</ele><time>2026-04-19T10:35:25Z</time></trkpt><trkpt lat="43.970558241097656" lon="12.059785983376349"><ele>488.0</ele><time>2026-04-19T10:35:27Z</time></trkpt><trkpt lat="43.97051345003535" lon="12.059851407072118"><ele>488.0</ele><time>2026-04-19T10:35:28Z</time></trkpt><trkpt lat="43.97046031802733" lon="12.059938406167769"><ele>488.0</ele><time>2026-04-19T10:35:29Z</time></trkpt><trkpt lat="43.97039094547675" lon="12.060048933221251"><ele>487.99999999999994</ele><time>2026-04-19T10:35:30Z</time></trkpt><trkpt lat="43.9703437448864" lon="12.060139902240781"><ele>488.0</ele><time>2026-04-19T10:35:31Z</time></trkpt><trkpt lat="43.970297925127944" lon="12.060224244073396"><ele>488.99999999999994</ele><time>2026-04-19T10:35:32.001Z</time></trkpt><trkpt lat="43.97027582204236" lon="12.060331259765274"><ele>490.0</ele><time>2026-04-19T10:35:33.001Z</time></trkpt><trkpt lat="43.970280625233116" lon="12.060467338345713"><ele>491.0</ele><time>2026-04-19T10:35:34.001Z</time></trkpt><trkpt lat="43.9702931231987" lon="12.06060550942901"><ele>492.0</ele><time>2026-04-19T10:35:35.001Z</time></trkpt><trkpt lat="43.970290787461224" lon="12.060717440466552"><ele>492.99999999999994</ele><time>2026-04-19T10:35:36.001Z</time></trkpt><trkpt lat="43.97025758945431" lon="12.060802404337718"><ele>494.0</ele><time>2026-04-19T10:35:37.001Z</time></trkpt><trkpt lat="43.97019802258839" lon="12.060845773471225"><ele>493.99999999999994</ele><time>2026-04-19T10:35:38.001Z</time></trkpt><trkpt lat="43.97011263917548" lon="12.060901868452849"><ele>494.0</ele><time>2026-04-19T10:35:40Z</time></trkpt><trkpt lat="43.97016381272243" lon="12.0610595877955"><ele>494.0</ele><time>2026-04-19T10:35:42Z</time></trkpt><trkpt lat="43.970203924837975" lon="12.061143856329224"><ele>494.0</ele><time>2026-04-19T10:35:43Z</time></trkpt><trkpt lat="43.97022177607658" lon="12.061235912373261"><ele>493.99999999999994</ele><time>2026-04-19T10:35:47Z</time></trkpt><trkpt lat="43.97025481785313" lon="12.06132622984912"><ele>494.0</ele><time>2026-04-19T10:35:48Z</time></trkpt><trkpt lat="43.970238746058364" lon="12.061437818291957"><ele>493.99999999999994</ele><time>2026-04-19T10:35:51Z</time></trkpt><trkpt lat="43.970221444576495" lon="12.061607705736181"><ele>494.0</ele><time>2026-04-19T10:35:52Z</time></trkpt><trkpt lat="43.97020377382444" lon="12.061696826872971"><ele>494.0</ele><time>2026-04-19T10:35:53Z</time></trkpt><trkpt lat="43.97019348889262" lon="12.061801351308622"><ele>494.0</ele><time>2026-04-19T10:35:54Z</time></trkpt><trkpt lat="43.970185725980194" lon="12.061904189722314"><ele>493.99999999999994</ele><time>2026-04-19T10:35:55Z</time></trkpt><trkpt lat="43.97018051838038" lon="12.062017432898694"><ele>494.0</ele><time>2026-04-19T10:35:56Z</time></trkpt><trkpt lat="43.97020971187334" lon="12.062155628053079"><ele>490.0</ele><time>2026-04-19T10:35:57Z</time></trkpt><trkpt lat="43.97023313536386" lon="12.062296036769046"><ele>486.0</ele><time>2026-04-19T10:35:58Z</time></trkpt><trkpt lat="43.97025268937088" lon="12.062446307199098"><ele>482.0</ele><time>2026-04-19T10:35:59Z</time></trkpt><trkpt lat="43.970268784047356" lon="12.062594885181703"><ele>478.0</ele><time>2026-04-19T10:36:00Z</time></trkpt><trkpt lat="43.97027575517928" lon="12.062747467528595"><ele>474.0</ele><time>2026-04-19T10:36:01Z</time></trkpt><trkpt lat="43.97028027132711" lon="12.062905364505756"><ele>471.5</ele><time>2026-04-19T10:36:02Z</time></trkpt><trkpt lat="43.97027812608314" lon="12.063070738161299"><ele>469.0</ele><time>2026-04-19T10:36:03Z</time></trkpt><trkpt lat="43.97026620052792" lon="12.06323043484846"><ele>466.5</ele><time>2026-04-19T10:36:04Z</time></trkpt><trkpt lat="43.970252233410704" lon="12.063385866112839"><ele>464.0</ele><time>2026-04-19T10:36:05Z</time></trkpt><trkpt lat="43.97023580039706" lon="12.063558497966865"><ele>463.0</ele><time>2026-04-19T10:36:06Z</time></trkpt><trkpt lat="43.970226420500765" lon="12.063741858433076"><ele>462.0</ele><time>2026-04-19T10:36:07Z</time></trkpt><trkpt lat="43.97021333501164" lon="12.06391912463976"><ele>461.0</ele><time>2026-04-19T10:36:08Z</time></trkpt><trkpt lat="43.97020254519657" lon="12.064065842184815"><ele>460.0</ele><time>2026-04-19T10:36:09Z</time></trkpt><trkpt lat="43.970181447580785" lon="12.064168548169103"><ele>459.0</ele><time>2026-04-19T10:36:10Z</time></trkpt><trkpt lat="43.970100332153855" lon="12.064162607638236"><ele>458.3333333333333</ele><time>2026-04-19T10:36:11Z</time></trkpt><trkpt lat="43.97004346241272" lon="12.06424108738541"><ele>457.66666666666663</ele><time>2026-04-19T10:36:12Z</time></trkpt><trkpt lat="43.97000681619994" lon="12.064319992681927"><ele>457.0</ele><time>2026-04-19T10:36:13Z</time></trkpt><trkpt lat="43.97002129128216" lon="12.064433859490496"><ele>456.3333333333333</ele><time>2026-04-19T10:36:15Z</time></trkpt><trkpt lat="43.970055168633216" lon="12.06453628203462"><ele>455.66666666666663</ele><time>2026-04-19T10:36:17Z</time></trkpt><trkpt lat="43.97016868114474" lon="12.064624806130274"><ele>455.0</ele><time>2026-04-19T10:36:19Z</time></trkpt><trkpt lat="43.97017870848783" lon="12.064723952158882"><ele>454.6</ele><time>2026-04-19T10:36:20Z</time></trkpt><trkpt lat="43.97018309694033" lon="12.06482635995292"><ele>454.2</ele><time>2026-04-19T10:36:21Z</time></trkpt><trkpt lat="43.97017834971198" lon="12.064950353054579"><ele>453.79999999999995</ele><time>2026-04-19T10:36:22Z</time></trkpt><trkpt lat="43.970193408783764" lon="12.065077294438241"><ele>453.4</ele><time>2026-04-19T10:36:24Z</time></trkpt><trkpt lat="43.9702721539016" lon="12.065105316683141"><ele>453.0</ele><time>2026-04-19T10:36:26Z</time></trkpt><trkpt lat="43.97039366882469" lon="12.06510468311358"><ele>451.4</ele><time>2026-04-19T10:36:28Z</time></trkpt><trkpt lat="43.970518952182765" lon="12.065148838376404"><ele>449.79999999999995</ele><time>2026-04-19T10:36:29Z</time></trkpt><trkpt lat="43.970602819932644" lon="12.065213440246364"><ele>448.2</ele><time>2026-04-19T10:36:30Z</time></trkpt><trkpt lat="43.970668446481184" lon="12.065273703364804"><ele>446.6</ele><time>2026-04-19T10:36:31Z</time></trkpt><trkpt lat="43.97072499023401" lon="12.06532065526481"><ele>445.0</ele><time>2026-04-19T10:36:33Z</time></trkpt><trkpt lat="43.97069884214095" lon="12.065479542593799"><ele>445.00000000000006</ele><time>2026-04-19T10:36:35Z</time></trkpt><trkpt lat="43.97070999525925" lon="12.06556830560206"><ele>445.0</ele><time>2026-04-19T10:36:36Z</time></trkpt><trkpt lat="43.970761958902926" lon="12.065644676561922"><ele>445.0</ele><time>2026-04-19T10:36:40Z</time></trkpt><trkpt lat="43.970824356096955" lon="12.065716861501036"><ele>445.0</ele><time>2026-04-19T10:36:43Z</time></trkpt><trkpt lat="43.97084705606896" lon="12.065817069318125"><ele>445.00000000000006</ele><time>2026-04-19T10:36:46Z</time></trkpt><trkpt lat="43.97094503973345" lon="12.065928450337987"><ele>445.0</ele><time>2026-04-19T10:36:48Z</time></trkpt><trkpt lat="43.971024705099545" lon="12.065972870982693"><ele>443.14285714285717</ele><time>2026-04-19T10:36:49Z</time></trkpt><trkpt lat="43.97106043815529" lon="12.066077275732724"><ele>441.2857142857143</ele><time>2026-04-19T10:36:50Z</time></trkpt><trkpt lat="43.971090978354646" lon="12.066155549013395"><ele>439.42857142857144</ele><time>2026-04-19T10:36:52Z</time></trkpt><trkpt lat="43.97113092840107" lon="12.066247477025083"><ele>437.57142857142856</ele><time>2026-04-19T10:36:55Z</time></trkpt><trkpt lat="43.97113543904618" lon="12.066335777243614"><ele>435.71428571428567</ele><time>2026-04-19T10:36:57Z</time></trkpt><trkpt lat="43.971163451694366" lon="12.06642038234496"><ele>433.85714285714283</ele><time>2026-04-19T10:36:59Z</time></trkpt><trkpt lat="43.9711217134182" lon="12.066536519153498"><ele>432.0</ele><time>2026-04-19T10:37:01Z</time></trkpt><trkpt lat="43.97101142299668" lon="12.0673274804944"><ele>432.0</ele><time>2026-04-19T10:37:02Z</time></trkpt><trkpt lat="43.97095929238154" lon="12.067420093797985"><ele>432.00000000000006</ele><time>2026-04-19T10:37:03Z</time></trkpt><trkpt lat="43.970894804087486" lon="12.067516011808246"><ele>432.00000000000006</ele><time>2026-04-19T10:37:04Z</time></trkpt><trkpt lat="43.97083633259215" lon="12.067615649148541"><ele>432.0</ele><time>2026-04-19T10:37:05Z</time></trkpt><trkpt lat="43.97076412293466" lon="12.067739772751619"><ele>432.0</ele><time>2026-04-19T10:37:06Z</time></trkpt><trkpt lat="43.970688599663504" lon="12.067865895838736"><ele>426.20000000000005</ele><time>2026-04-19T10:37:07Z</time></trkpt><trkpt lat="43.97060888805796" lon="12.067995734295469"><ele>420.40000000000003</ele><time>2026-04-19T10:37:08Z</time></trkpt><trkpt lat="43.97053672982626" lon="12.068083591471654"><ele>414.6</ele><time>2026-04-19T10:37:09Z</time></trkpt><trkpt lat="43.97046285492429" lon="12.068154070410378"><ele>408.79999999999995</ele><time>2026-04-19T10:37:10Z</time></trkpt><trkpt lat="43.97037905592647" lon="12.068207040305364"><ele>403.0</ele><time>2026-04-19T10:37:11Z</time></trkpt><trkpt lat="43.970293032011625" lon="12.068278511355071"><ele>402.83333333333337</ele><time>2026-04-19T10:37:12Z</time></trkpt><trkpt lat="43.97023136675866" lon="12.068337487150862"><ele>402.6666666666667</ele><time>2026-04-19T10:37:13Z</time></trkpt><trkpt lat="43.970164136886495" lon="12.068403510341522"><ele>402.5</ele><time>2026-04-19T10:37:14Z</time></trkpt><trkpt lat="43.970051149127116" lon="12.068445285062948"><ele>402.33333333333337</ele><time>2026-04-19T10:37:16Z</time></trkpt><trkpt lat="43.96997527134529" lon="12.068462839217096"><ele>402.1666666666667</ele><time>2026-04-19T10:37:17Z</time></trkpt><trkpt lat="43.969911577682225" lon="12.068499219817557"><ele>402.0</ele><time>2026-04-19T10:37:18Z</time></trkpt><trkpt lat="43.9698441732193" lon="12.068597268929906"><ele>402.0</ele><time>2026-04-19T10:37:20Z</time></trkpt><trkpt lat="43.9698562988203" lon="12.068726037398353"><ele>402.0</ele><time>2026-04-19T10:37:22Z</time></trkpt><trkpt lat="43.9700092943213" lon="12.068938196651668"><ele>402.0</ele><time>2026-04-19T10:37:23Z</time></trkpt><trkpt lat="43.97006562684374" lon="12.069037420065666"><ele>402.0</ele><time>2026-04-19T10:37:24Z</time></trkpt><trkpt lat="43.97011996208479" lon="12.069126717765776"><ele>396.6</ele><time>2026-04-19T10:37:25Z</time></trkpt><trkpt lat="43.97014057949254" lon="12.06925309601788"><ele>391.20000000000005</ele><time>2026-04-19T10:37:26Z</time></trkpt><trkpt lat="43.97017926299042" lon="12.06938614992255"><ele>385.8</ele><time>2026-04-19T10:37:27Z</time></trkpt><trkpt lat="43.97022636423326" lon="12.069490498573007"><ele>380.4</ele><time>2026-04-19T10:37:28Z</time></trkpt><trkpt lat="43.970225559146236" lon="12.06961017582724"><ele>375.0</ele><time>2026-04-19T10:37:29Z</time></trkpt><trkpt lat="43.97018898100819" lon="12.06973202260737"><ele>375.0</ele><time>2026-04-19T10:37:30Z</time></trkpt><trkpt lat="43.970184327523555" lon="12.06984069601392"><ele>375.0</ele><time>2026-04-19T10:37:31Z</time></trkpt><trkpt lat="43.9701736940405" lon="12.069942962211378"><ele>375.0</ele><time>2026-04-19T10:37:32Z</time></trkpt><trkpt lat="43.97012691992467" lon="12.070056873786067"><ele>375.0</ele><time>2026-04-19T10:37:33Z</time></trkpt><trkpt lat="43.97008858339686" lon="12.07015612862549"><ele>375.0</ele><time>2026-04-19T10:37:34Z</time></trkpt><trkpt lat="43.97007676841536" lon="12.07026792425042"><ele>375.0</ele><time>2026-04-19T10:37:35Z</time></trkpt><trkpt lat="43.970103891255796" lon="12.070384072152066"><ele>372.8333333333333</ele><time>2026-04-19T10:37:36Z</time></trkpt><trkpt lat="43.97011835860032" lon="12.070520238274833"><ele>370.6666666666667</ele><time>2026-04-19T10:37:37Z</time></trkpt><trkpt lat="43.97010005710886" lon="12.07063900298537"><ele>368.5</ele><time>2026-04-19T10:37:38Z</time></trkpt><trkpt lat="43.97010110240646" lon="12.070735450522722"><ele>366.33333333333337</ele><time>2026-04-19T10:37:39Z</time></trkpt><trkpt lat="43.97010800986871" lon="12.070823640998123"><ele>364.1666666666667</ele><time>2026-04-19T10:37:40Z</time></trkpt><trkpt lat="43.97009315608122" lon="12.070926327750739"><ele>362.0</ele><time>2026-04-19T10:37:41Z</time></trkpt><trkpt lat="43.97005685206403" lon="12.07104094953412"><ele>362.0</ele><time>2026-04-19T10:37:42Z</time></trkpt><trkpt lat="43.97000876666541" lon="12.071165739779651"><ele>362.0</ele><time>2026-04-19T10:37:43Z</time></trkpt><trkpt lat="43.96995766222419" lon="12.071283237093354"><ele>362.0</ele><time>2026-04-19T10:37:44Z</time></trkpt><trkpt lat="43.96992604162527" lon="12.071395106271586"><ele>362.0</ele><time>2026-04-19T10:37:45Z</time></trkpt><trkpt lat="43.969936277363736" lon="12.071504016136785"><ele>362.0</ele><time>2026-04-19T10:37:46Z</time></trkpt><trkpt lat="43.96994476279558" lon="12.071613029934465"><ele>362.0</ele><time>2026-04-19T10:37:47Z</time></trkpt><trkpt lat="43.96994126560876" lon="12.071746945371725"><ele>359.40000000000003</ele><time>2026-04-19T10:37:48Z</time></trkpt><trkpt lat="43.96994102861404" lon="12.071883174137517"><ele>356.8</ele><time>2026-04-19T10:37:49Z</time></trkpt><trkpt lat="43.96994673959591" lon="12.0720290465121"><ele>354.2</ele><time>2026-04-19T10:37:50Z</time></trkpt><trkpt lat="43.969939638237314" lon="12.072166573450582"><ele>351.6</ele><time>2026-04-19T10:37:51Z</time></trkpt><trkpt lat="43.96992447036985" lon="12.07228552795696"><ele>349.0</ele><time>2026-04-19T10:37:52Z</time></trkpt><trkpt lat="43.96990580693614" lon="12.072395791102878"><ele>347.0</ele><time>2026-04-19T10:37:53Z</time></trkpt><trkpt lat="43.96987972018111" lon="12.072513099357996"><ele>345.0</ele><time>2026-04-19T10:37:54Z</time></trkpt><trkpt lat="43.969856610370485" lon="12.072661686548958"><ele>343.0</ele><time>2026-04-19T10:37:55Z</time></trkpt><trkpt lat="43.96984138496993" lon="12.072775334552187"><ele>341.0</ele><time>2026-04-19T10:37:56Z</time></trkpt><trkpt lat="43.969841120526766" lon="12.07286566223796"><ele>339.0</ele><time>2026-04-19T10:37:57Z</time></trkpt><trkpt lat="43.96977210546767" lon="12.07299856113324"><ele>339.0</ele><time>2026-04-19T10:37:59Z</time></trkpt><trkpt lat="43.96971246581301" lon="12.07305898913654"><ele>339.0</ele><time>2026-04-19T10:38:00Z</time></trkpt><trkpt lat="43.96969379971452" lon="12.073220609437112"><ele>339.0</ele><time>2026-04-19T10:38:02Z</time></trkpt><trkpt lat="43.969662663891214" lon="12.073386361763884"><ele>339.0</ele><time>2026-04-19T10:38:04Z</time></trkpt><trkpt lat="43.969617059543" lon="12.073467979360398"><ele>339.0</ele><time>2026-04-19T10:38:05Z</time></trkpt><trkpt lat="43.96957282683809" lon="12.07353332773987"><ele>337.0</ele><time>2026-04-19T10:38:06Z</time></trkpt><trkpt lat="43.96955828074903" lon="12.073674401828985"><ele>335.0</ele><time>2026-04-19T10:38:08Z</time></trkpt><trkpt lat="43.96947348688266" lon="12.073805171890017"><ele>333.0</ele><time>2026-04-19T10:38:10Z</time></trkpt><trkpt lat="43.96940054530506" lon="12.07391969832896"><ele>331.0</ele><time>2026-04-19T10:38:12Z</time></trkpt><trkpt lat="43.96935522037664" lon="12.07398860462878"><ele>329.0</ele><time>2026-04-19T10:38:15Z</time></trkpt><trkpt lat="43.96930902928496" lon="12.074053378255142"><ele>328.4</ele><time>2026-04-19T10:39:30Z</time></trkpt><trkpt lat="43.96929759775549" lon="12.074153989916745"><ele>327.79999999999995</ele><time>2026-04-19T10:39:33Z</time></trkpt><trkpt lat="43.9693236530001" lon="12.074346171261329"><ele>327.20000000000005</ele><time>2026-04-19T10:39:35Z</time></trkpt><trkpt lat="43.96931634744748" lon="12.074498068443901"><ele>326.6</ele><time>2026-04-19T10:39:37Z</time></trkpt><trkpt lat="43.969257988118876" lon="12.074431349295295"><ele>326.0</ele><time>2026-04-19T10:39:45Z</time></trkpt><trkpt lat="43.9692344380741" lon="12.074314049516394"><ele>326.0</ele><time>2026-04-19T10:39:46Z</time></trkpt><trkpt lat="43.969211630990635" lon="12.074162110358394"><ele>326.0</ele><time>2026-04-19T10:39:47Z</time></trkpt><trkpt lat="43.96919259056402" lon="12.073982208451756"><ele>326.0</ele><time>2026-04-19T10:39:48Z</time></trkpt><trkpt lat="43.969210096585286" lon="12.07377258818048"><ele>326.0</ele><time>2026-04-19T10:39:49Z</time></trkpt><trkpt lat="43.96920648148728" lon="12.073557902747913"><ele>326.75</ele><time>2026-04-19T10:39:50Z</time></trkpt><trkpt lat="43.9691992053117" lon="12.073376065930555"><ele>327.5</ele><time>2026-04-19T10:39:51Z</time></trkpt><trkpt lat="43.969186134918104" lon="12.073200335618898"><ele>328.25</ele><time>2026-04-19T10:39:52Z</time></trkpt><trkpt lat="43.96915542812774" lon="12.073024931413602"><ele>329.0</ele><time>2026-04-19T10:39:53Z</time></trkpt><trkpt lat="43.96909095995406" lon="12.072849054934908"><ele>327.5</ele><time>2026-04-19T10:39:54Z</time></trkpt><trkpt lat="43.968977803791674" lon="12.07269613656601"><ele>326.0</ele><time>2026-04-19T10:39:55Z</time></trkpt><trkpt lat="43.96888611726491" lon="12.072544113454056"><ele>324.5</ele><time>2026-04-19T10:39:56Z</time></trkpt><trkpt lat="43.9688128531582" lon="12.072388041016067"><ele>323.0</ele><time>2026-04-19T10:39:57Z</time></trkpt><trkpt lat="43.968776350256896" lon="12.072209193158017"><ele>323.0</ele><time>2026-04-19T10:39:58Z</time></trkpt><trkpt lat="43.968731724472896" lon="12.07204120794606"><ele>323.0</ele><time>2026-04-19T10:39:59Z</time></trkpt><trkpt lat="43.9686847770396" lon="12.071874819369583"><ele>323.0</ele><time>2026-04-19T10:40:00Z</time></trkpt><trkpt lat="43.968600851556" lon="12.071708548297412"><ele>323.0</ele><time>2026-04-19T10:40:01Z</time></trkpt><trkpt lat="43.96851177711702" lon="12.07152068131466"><ele>326.33333333333337</ele><time>2026-04-19T10:40:02Z</time></trkpt><trkpt lat="43.968397940335656" lon="12.071333559927746"><ele>329.6666666666667</ele><time>2026-04-19T10:40:03Z</time></trkpt><trkpt lat="43.96828263411206" lon="12.071150569462153"><ele>333.0</ele><time>2026-04-19T10:40:04Z</time></trkpt><trkpt lat="43.96817556868346" lon="12.070994675479403"><ele>335.75</ele><time>2026-04-19T10:40:05Z</time></trkpt><trkpt lat="43.96807277235776" lon="12.070849053835415"><ele>338.5</ele><time>2026-04-19T10:40:06Z</time></trkpt><trkpt lat="43.9679600450174" lon="12.070728536300805"><ele>341.25</ele><time>2026-04-19T10:40:07Z</time></trkpt><trkpt lat="43.96782612829128" lon="12.070638507247315"><ele>344.0</ele><time>2026-04-19T10:40:08Z</time></trkpt><trkpt lat="43.967672100955674" lon="12.070594276152374"><ele>337.6666666666667</ele><time>2026-04-19T10:40:09Z</time></trkpt><trkpt lat="43.96750447831781" lon="12.0705739534355"><ele>331.3333333333333</ele><time>2026-04-19T10:40:10Z</time></trkpt><trkpt lat="43.9673308815383" lon="12.070549672323324"><ele>325.0</ele><time>2026-04-19T10:40:11Z</time></trkpt><trkpt lat="43.9671744133609" lon="12.070527179528877"><ele>325.0</ele><time>2026-04-19T10:40:12Z</time></trkpt><trkpt lat="43.96703566536209" lon="12.07049975651955"><ele>325.0</ele><time>2026-04-19T10:40:13Z</time></trkpt><trkpt lat="43.96691478312263" lon="12.07045494711164"><ele>325.0</ele><time>2026-04-19T10:40:14Z</time></trkpt><trkpt lat="43.96682848374254" lon="12.070359296547416"><ele>325.0</ele><time>2026-04-19T10:40:15Z</time></trkpt><trkpt lat="43.966722005290734" lon="12.07023691967565"><ele>323.4</ele><time>2026-04-19T10:40:16Z</time></trkpt><trkpt lat="43.966629756221735" lon="12.070094877231254"><ele>321.8</ele><time>2026-04-19T10:40:17Z</time></trkpt><trkpt lat="43.96654854195366" lon="12.06997006801627"><ele>320.2</ele><time>2026-04-19T10:40:18Z</time></trkpt><trkpt lat="43.966483334257774" lon="12.069875466402262"><ele>318.6</ele><time>2026-04-19T10:40:19Z</time></trkpt><trkpt lat="43.96642573159052" lon="12.069801236251147"><ele>317.0</ele><time>2026-04-19T10:40:20Z</time></trkpt><trkpt lat="43.96637651498534" lon="12.069730491262435"><ele>317.0</ele><time>2026-04-19T10:40:22Z</time></trkpt><trkpt lat="43.966310950817125" lon="12.06990846275508"><ele>317.0</ele><time>2026-04-19T10:40:24Z</time></trkpt><trkpt lat="43.96639679211104" lon="12.069997878434114"><ele>317.0</ele><time>2026-04-19T10:40:25Z</time></trkpt><trkpt lat="43.96645602539645" lon="12.070105912122703"><ele>317.0</ele><time>2026-04-19T10:40:26Z</time></trkpt><trkpt lat="43.966456736469524" lon="12.070213444157487"><ele>317.0</ele><time>2026-04-19T10:40:27Z</time></trkpt><trkpt lat="43.966415422005966" lon="12.070341969261117"><ele>311.5</ele><time>2026-04-19T10:40:28Z</time></trkpt><trkpt lat="43.96632971015779" lon="12.070487458862365"><ele>306.0</ele><time>2026-04-19T10:40:29Z</time></trkpt><trkpt lat="43.96625778529954" lon="12.070650825879262"><ele>300.5</ele><time>2026-04-19T10:40:30Z</time></trkpt><trkpt lat="43.96620623611493" lon="12.07079750190746"><ele>295.0</ele><time>2026-04-19T10:40:31Z</time></trkpt><trkpt lat="43.96617755218095" lon="12.070941735270148"><ele>292.8</ele><time>2026-04-19T10:40:32Z</time></trkpt><trkpt lat="43.96617560452277" lon="12.07107798867793"><ele>290.6</ele><time>2026-04-19T10:40:33Z</time></trkpt><trkpt lat="43.96617841595974" lon="12.071211187443778"><ele>288.4</ele><time>2026-04-19T10:40:37Z</time></trkpt><trkpt lat="43.96623941255914" lon="12.071381686269778"><ele>286.2</ele><time>2026-04-19T10:40:39Z</time></trkpt><trkpt lat="43.96631500952456" lon="12.071479272217283"><ele>284.0</ele><time>2026-04-19T10:40:40Z</time></trkpt><trkpt lat="43.96640460506484" lon="12.071581633275226"><ele>284.59999999999997</ele><time>2026-04-19T10:40:41Z</time></trkpt><trkpt lat="43.96646226184177" lon="12.071667596123103"><ele>285.2</ele><time>2026-04-19T10:40:42Z</time></trkpt><trkpt lat="43.96646478128336" lon="12.071783395993213"><ele>285.79999999999995</ele><time>2026-04-19T10:40:44Z</time></trkpt><trkpt lat="43.9663369801077" lon="12.071818270012379"><ele>286.4</ele><time>2026-04-19T10:40:46Z</time></trkpt><trkpt lat="43.966224764771475" lon="12.071784337447774"><ele>287.0</ele><time>2026-04-19T10:40:47Z</time></trkpt><trkpt lat="43.96608897161541" lon="12.071767258186885"><ele>287.0</ele><time>2026-04-19T10:40:48Z</time></trkpt><trkpt lat="43.9659432230501" lon="12.07175675406385"><ele>287.0</ele><time>2026-04-19T10:40:49Z</time></trkpt><trkpt lat="43.9657985253605" lon="12.071750911370428"><ele>287.0</ele><time>2026-04-19T10:40:50Z</time></trkpt><trkpt lat="43.965670170207964" lon="12.071752712701857"><ele>287.0</ele><time>2026-04-19T10:40:51Z</time></trkpt><trkpt lat="43.96554498576473" lon="12.071734461624635"><ele>289.2</ele><time>2026-04-19T10:40:52Z</time></trkpt><trkpt lat="43.96545309901634" lon="12.07172135458364"><ele>291.4</ele><time>2026-04-19T10:40:53Z</time></trkpt><trkpt lat="43.96537729574206" lon="12.071841055300958"><ele>293.6</ele><time>2026-04-19T10:40:55Z</time></trkpt><trkpt lat="43.965424628273084" lon="12.07192711988052"><ele>295.8</ele><time>2026-04-19T10:40:56Z</time></trkpt><trkpt lat="43.965506080442886" lon="12.07196520002668"><ele>298.0</ele><time>2026-04-19T10:40:57Z</time></trkpt><trkpt lat="43.9655983791786" lon="12.07201865758498"><ele>298.0</ele><time>2026-04-19T10:40:58Z</time></trkpt><trkpt lat="43.965708789210844" lon="12.072062824950923"><ele>298.0</ele><time>2026-04-19T10:40:59Z</time></trkpt><trkpt lat="43.96578595887052" lon="12.07209878890152"><ele>298.0</ele><time>2026-04-19T10:41:00Z</time></trkpt><trkpt lat="43.96583006411702" lon="12.072182349126606"><ele>298.0</ele><time>2026-04-19T10:41:02Z</time></trkpt><trkpt lat="43.965740435328485" lon="12.072233949067437"><ele>298.0</ele><time>2026-04-19T10:41:04Z</time></trkpt><trkpt lat="43.96567375308944" lon="12.072228246393381"><ele>298.0</ele><time>2026-04-19T10:41:05Z</time></trkpt><trkpt lat="43.96558601843405" lon="12.07220417852174"><ele>298.0</ele><time>2026-04-19T10:41:06Z</time></trkpt><trkpt lat="43.965491389681006" lon="12.072177149401346"><ele>298.0</ele><time>2026-04-19T10:41:07Z</time></trkpt><trkpt lat="43.965382422216884" lon="12.072178661014123"><ele>298.0</ele><time>2026-04-19T10:41:08Z</time></trkpt><trkpt lat="43.96525872821218" lon="12.072136535695405"><ele>298.0</ele><time>2026-04-19T10:41:09Z</time></trkpt><trkpt lat="43.965145149525206" lon="12.072104692257339"><ele>298.0</ele><time>2026-04-19T10:41:10Z</time></trkpt><trkpt lat="43.96501821080523" lon="12.072066404724891"><ele>301.3333333333333</ele><time>2026-04-19T10:41:11Z</time></trkpt><trkpt lat="43.96489284109704" lon="12.072006277978797"><ele>304.6666666666667</ele><time>2026-04-19T10:41:12Z</time></trkpt><trkpt lat="43.96476026197374" lon="12.07189234240236"><ele>308.0</ele><time>2026-04-19T10:41:13Z</time></trkpt><trkpt lat="43.96459996311816" lon="12.071782613267837"><ele>308.0</ele><time>2026-04-19T10:41:14Z</time></trkpt><trkpt lat="43.96441658216802" lon="12.071660735451495"><ele>308.0</ele><time>2026-04-19T10:41:15Z</time></trkpt><trkpt lat="43.96421873433861" lon="12.071498889644243"><ele>308.0</ele><time>2026-04-19T10:41:16Z</time></trkpt><trkpt lat="43.96400494286332" lon="12.071326349436617"><ele>308.6666666666667</ele><time>2026-04-19T10:41:17Z</time></trkpt><trkpt lat="43.96382072329226" lon="12.071193718423414"><ele>309.3333333333333</ele><time>2026-04-19T10:41:18Z</time></trkpt><trkpt lat="43.96368277653836" lon="12.071091718624391"><ele>310.0</ele><time>2026-04-19T10:41:19Z</time></trkpt><trkpt lat="43.96358387497972" lon="12.07102212945148"><ele>310.0</ele><time>2026-04-19T10:41:20Z</time></trkpt><trkpt lat="43.963511320939084" lon="12.07096568444833"><ele>310.0</ele><time>2026-04-19T10:41:21Z</time></trkpt><trkpt lat="43.963418540147075" lon="12.070938151306079"><ele>310.0</ele><time>2026-04-19T10:41:23Z</time></trkpt><trkpt lat="43.96337107258554" lon="12.070875612651262"><ele>310.0</ele><time>2026-04-19T10:41:24Z</time></trkpt><trkpt lat="43.963274023209465" lon="12.070881494404713"><ele>310.0</ele><time>2026-04-19T10:41:25Z</time></trkpt><trkpt lat="43.963215979812226" lon="12.070589079381334"><ele>309.75</ele><time>2026-04-19T10:41:26Z</time></trkpt><trkpt lat="43.963124124249006" lon="12.07045437303846"><ele>309.5</ele><time>2026-04-19T10:41:27Z</time></trkpt><trkpt lat="43.96303322095118" lon="12.07032836309627"><ele>309.25</ele><time>2026-04-19T10:41:28Z</time></trkpt><trkpt lat="43.96294159896801" lon="12.070237621094154"><ele>309.0</ele><time>2026-04-19T10:41:29Z</time></trkpt><trkpt lat="43.96286770102812" lon="12.070206996357976"><ele>309.0</ele><time>2026-04-19T10:41:30Z</time></trkpt><trkpt lat="43.96275421373708" lon="12.070275631238513"><ele>309.0</ele><time>2026-04-19T10:41:32Z</time></trkpt><trkpt lat="43.96267634506169" lon="12.070339618926484"><ele>309.0</ele><time>2026-04-19T10:41:33Z</time></trkpt><trkpt lat="43.96256639565267" lon="12.070411601399542"><ele>309.0</ele><time>2026-04-19T10:41:34Z</time></trkpt><trkpt lat="43.962450686679674" lon="12.07048382938012"><ele>312.0</ele><time>2026-04-19T10:41:35Z</time></trkpt><trkpt lat="43.96233627970502" lon="12.070565889744074"><ele>315.0</ele><time>2026-04-19T10:41:36Z</time></trkpt><trkpt lat="43.962242048249436" lon="12.070657687797844"><ele>318.0</ele><time>2026-04-19T10:41:37Z</time></trkpt><trkpt lat="43.96214899947291" lon="12.070776188430903"><ele>321.0</ele><time>2026-04-19T10:41:38Z</time></trkpt><trkpt lat="43.96207662971344" lon="12.07088014209896"><ele>323.0</ele><time>2026-04-19T10:41:39Z</time></trkpt><trkpt lat="43.96198634806243" lon="12.070904003665506"><ele>325.0</ele><time>2026-04-19T10:41:40Z</time></trkpt><trkpt lat="43.961917989626436" lon="12.070907401755397"><ele>327.0</ele><time>2026-04-19T10:41:41Z</time></trkpt><trkpt lat="43.96181884622587" lon="12.07084855380947"><ele>329.0</ele><time>2026-04-19T10:41:44Z</time></trkpt><trkpt lat="43.96175143817823" lon="12.070859556575801"><ele>331.0</ele><time>2026-04-19T10:41:45Z</time></trkpt><trkpt lat="43.96169045043539" lon="12.070922111715074"><ele>333.0</ele><time>2026-04-19T10:41:46Z</time></trkpt><trkpt lat="43.96162614917639" lon="12.070998437537648"><ele>333.0</ele><time>2026-04-19T10:41:47Z</time></trkpt><trkpt lat="43.96154588502865" lon="12.071017762511376"><ele>333.0</ele><time>2026-04-19T10:41:48Z</time></trkpt><trkpt lat="43.961455503597314" lon="12.07099198948799"><ele>333.0</ele><time>2026-04-19T10:41:49Z</time></trkpt><trkpt lat="43.96135301728984" lon="12.070964456517927"><ele>333.0</ele><time>2026-04-19T10:41:50Z</time></trkpt><trkpt lat="43.961292072935834" lon="12.070923273915488"><ele>333.0</ele><time>2026-04-19T10:41:51Z</time></trkpt><trkpt lat="43.961196710247" lon="12.07082566680322"><ele>333.0</ele><time>2026-04-19T10:41:52Z</time></trkpt><trkpt lat="43.96111859588383" lon="12.07070893678823"><ele>333.0</ele><time>2026-04-19T10:41:53Z</time></trkpt><trkpt lat="43.961096695210784" lon="12.070615349470735"><ele>333.0</ele><time>2026-04-19T10:41:54Z</time></trkpt><trkpt lat="43.96122034858802" lon="12.070551494358392"><ele>333.0</ele><time>2026-04-19T10:41:56Z</time></trkpt><trkpt lat="43.96129934284405" lon="12.070582326125257"><ele>333.0</ele><time>2026-04-19T10:41:57Z</time></trkpt><trkpt lat="43.961382825570624" lon="12.070607567440357"><ele>333.0</ele><time>2026-04-19T10:41:58Z</time></trkpt><trkpt lat="43.9614596460385" lon="12.070575113778022"><ele>333.0</ele><time>2026-04-19T10:41:59Z</time></trkpt><trkpt lat="43.96149524534883" lon="12.070496563045744"><ele>333.0</ele><time>2026-04-19T10:42:00Z</time></trkpt><trkpt lat="43.961526357336496" lon="12.070365655933575"><ele>333.0</ele><time>2026-04-19T10:42:01Z</time></trkpt><trkpt lat="43.96153453033943" lon="12.070207521333689"><ele>333.0</ele><time>2026-04-19T10:42:02Z</time></trkpt><trkpt lat="43.96148239400714" lon="12.070112740492728"><ele>333.0</ele><time>2026-04-19T10:42:03Z</time></trkpt><trkpt lat="43.96136263088237" lon="12.070036258955398"><ele>333.0</ele><time>2026-04-19T10:42:04Z</time></trkpt><trkpt lat="43.96124964458676" lon="12.069948179913963"><ele>333.0</ele><time>2026-04-19T10:42:05Z</time></trkpt><trkpt lat="43.9611673133137" lon="12.069825449553463"><ele>333.0</ele><time>2026-04-19T10:42:06Z</time></trkpt><trkpt lat="43.961128626291874" lon="12.0696647884102"><ele>333.0</ele><time>2026-04-19T10:42:07Z</time></trkpt><trkpt lat="43.96109215886494" lon="12.069536309557442"><ele>336.0</ele><time>2026-04-19T10:42:08Z</time></trkpt><trkpt lat="43.961040094782575" lon="12.069481452935072"><ele>339.0</ele><time>2026-04-19T10:42:09Z</time></trkpt><trkpt lat="43.96108167073778" lon="12.069299175580454"><ele>342.0</ele><time>2026-04-19T10:42:11Z</time></trkpt><trkpt lat="43.96115059413331" lon="12.069272441904547"><ele>345.0</ele><time>2026-04-19T10:42:12Z</time></trkpt><trkpt lat="43.96124531197905" lon="12.069189380436065"><ele>348.0</ele><time>2026-04-19T10:42:14Z</time></trkpt><trkpt lat="43.96130715265344" lon="12.069095509808239"><ele>349.0</ele><time>2026-04-19T10:42:15Z</time></trkpt><trkpt lat="43.96138435801844" lon="12.06902929338111"><ele>350.0</ele><time>2026-04-19T10:42:16Z</time></trkpt><trkpt lat="43.96145761577859" lon="12.06894226628369"><ele>351.0</ele><time>2026-04-19T10:42:17Z</time></trkpt><trkpt lat="43.961538796190865" lon="12.068849117998607"><ele>352.0</ele><time>2026-04-19T10:42:18Z</time></trkpt><trkpt lat="43.96156348335744" lon="12.06872623594736"><ele>353.0</ele><time>2026-04-19T10:42:20Z</time></trkpt><trkpt lat="43.96146711720498" lon="12.068579909332152"><ele>353.0</ele><time>2026-04-19T10:42:22Z</time></trkpt><trkpt lat="43.96139286630645" lon="12.068484972306818"><ele>353.0</ele><time>2026-04-19T10:42:23Z</time></trkpt><trkpt lat="43.96132201557209" lon="12.068379544413071"><ele>353.0</ele><time>2026-04-19T10:42:24Z</time></trkpt><trkpt lat="43.961229498835834" lon="12.068316835382047"><ele>353.0</ele><time>2026-04-19T10:42:25Z</time></trkpt><trkpt lat="43.9611385439156" lon="12.068316321983183"><ele>353.0</ele><time>2026-04-19T10:42:26Z</time></trkpt><trkpt lat="43.961059856642756" lon="12.068346014627597"><ele>353.0</ele><time>2026-04-19T10:42:27Z</time></trkpt><trkpt lat="43.960968340263065" lon="12.068358694263026"><ele>353.0</ele><time>2026-04-19T10:42:28Z</time></trkpt><trkpt lat="43.96087841285528" lon="12.068337513292967"><ele>353.0</ele><time>2026-04-19T10:42:29Z</time></trkpt><trkpt lat="43.960785602329" lon="12.068282646848214"><ele>353.0</ele><time>2026-04-19T10:42:30Z</time></trkpt><trkpt lat="43.96071298482454" lon="12.068202839832335"><ele>353.0</ele><time>2026-04-19T10:42:31Z</time></trkpt><trkpt lat="43.960662348501685" lon="12.068128318518127"><ele>357.0</ele><time>2026-04-19T10:42:32Z</time></trkpt><trkpt lat="43.9605940324879" lon="12.068158690236944"><ele>361.0</ele><time>2026-04-19T10:42:34Z</time></trkpt><trkpt lat="43.960572666305914" lon="12.068242855793455"><ele>365.0</ele><time>2026-04-19T10:42:35Z</time></trkpt><trkpt lat="43.9605076807893" lon="12.068358930428499"><ele>369.0</ele><time>2026-04-19T10:42:37Z</time></trkpt><trkpt lat="43.96037964099916" lon="12.068370238092907"><ele>373.0</ele><time>2026-04-19T10:42:39Z</time></trkpt><trkpt lat="43.96031035713783" lon="12.068338357661132"><ele>377.0</ele><time>2026-04-19T10:42:40Z</time></trkpt><trkpt lat="43.960250026632025" lon="12.068275800252863"><ele>378.0</ele><time>2026-04-19T10:42:41Z</time></trkpt><trkpt lat="43.96019974573291" lon="12.068198066298432"><ele>379.0</ele><time>2026-04-19T10:42:42Z</time></trkpt><trkpt lat="43.960160400554514" lon="12.06810351392925"><ele>380.0</ele><time>2026-04-19T10:42:43Z</time></trkpt><trkpt lat="43.960115049529634" lon="12.067998918010398"><ele>381.0</ele><time>2026-04-19T10:42:44Z</time></trkpt><trkpt lat="43.96006723048423" lon="12.067926515325498"><ele>382.0</ele><time>2026-04-19T10:42:45Z</time></trkpt><trkpt lat="43.96001057556446" lon="12.067843167371676"><ele>383.0</ele><time>2026-04-19T10:42:47Z</time></trkpt><trkpt lat="43.96000952071097" lon="12.067660944383773"><ele>386.0</ele><time>2026-04-19T10:42:49Z</time></trkpt><trkpt lat="43.95999979881486" lon="12.067549223465432"><ele>389.0</ele><time>2026-04-19T10:42:50Z</time></trkpt><trkpt lat="43.960002112228366" lon="12.067448460643842"><ele>392.0</ele><time>2026-04-19T10:42:51Z</time></trkpt><trkpt lat="43.96000368973917" lon="12.067350086010775"><ele>395.0</ele><time>2026-04-19T10:42:52Z</time></trkpt><trkpt lat="43.95999362661591" lon="12.067242445598856"><ele>398.0</ele><time>2026-04-19T10:42:53Z</time></trkpt><trkpt lat="43.95996374883685" lon="12.067163205083242"><ele>401.0</ele><time>2026-04-19T10:42:54Z</time></trkpt><trkpt lat="43.95990448469504" lon="12.067088522605339"><ele>404.0</ele><time>2026-04-19T10:42:55Z</time></trkpt><trkpt lat="43.95983066388022" lon="12.067006452828654"><ele>405.4</ele><time>2026-04-19T10:42:56Z</time></trkpt><trkpt lat="43.95976841769974" lon="12.066903965026416"><ele>406.79999999999995</ele><time>2026-04-19T10:42:57Z</time></trkpt><trkpt lat="43.959717086349535" lon="12.066791578746116"><ele>408.20000000000005</ele><time>2026-04-19T10:42:58Z</time></trkpt><trkpt lat="43.95968987761534" lon="12.0666961570718"><ele>409.6</ele><time>2026-04-19T10:42:59Z</time></trkpt><trkpt lat="43.95972292245947" lon="12.066525751552712"><ele>411.0</ele><time>2026-04-19T10:43:01Z</time></trkpt><trkpt lat="43.95972686015378" lon="12.066430506590285"><ele>411.0</ele><time>2026-04-19T10:43:02Z</time></trkpt><trkpt lat="43.959623382627335" lon="12.066348809183728"><ele>411.0</ele><time>2026-04-19T10:43:04Z</time></trkpt><trkpt lat="43.95952888984904" lon="12.066365720073623"><ele>411.0</ele><time>2026-04-19T10:43:05Z</time></trkpt><trkpt lat="43.95946498181744" lon="12.066319801163012"><ele>411.0</ele><time>2026-04-19T10:43:06Z</time></trkpt><trkpt lat="43.95941063270837" lon="12.066223517889048"><ele>411.0</ele><time>2026-04-19T10:43:07Z</time></trkpt><trkpt lat="43.95934322781512" lon="12.066110781076517"><ele>411.0</ele><time>2026-04-19T10:43:08Z</time></trkpt><trkpt lat="43.95928187871539" lon="12.065993668478201"><ele>411.0</ele><time>2026-04-19T10:43:09Z</time></trkpt><trkpt lat="43.95924000258922" lon="12.065884260522818"><ele>411.0</ele><time>2026-04-19T10:43:10Z</time></trkpt><trkpt lat="43.95920080893844" lon="12.065776107644423"><ele>411.0</ele><time>2026-04-19T10:43:11Z</time></trkpt><trkpt lat="43.95916567030979" lon="12.06566090919879"><ele>411.0</ele><time>2026-04-19T10:43:12Z</time></trkpt><trkpt lat="43.95913127796755" lon="12.065544768270154"><ele>415.85714285714283</ele><time>2026-04-19T10:43:13Z</time></trkpt><trkpt lat="43.95910227573972" lon="12.065432444134156"><ele>420.71428571428567</ele><time>2026-04-19T10:43:14Z</time></trkpt><trkpt lat="43.959083971961334" lon="12.065345060914733"><ele>425.57142857142856</ele><time>2026-04-19T10:43:15Z</time></trkpt><trkpt lat="43.959049772784255" lon="12.065264768053435"><ele>430.42857142857144</ele><time>2026-04-19T10:43:16Z</time></trkpt><trkpt lat="43.95900921867773" lon="12.065185028504644"><ele>435.2857142857143</ele><time>2026-04-19T10:43:17Z</time></trkpt><trkpt lat="43.95897097471994" lon="12.065100809126667"><ele>440.14285714285717</ele><time>2026-04-19T10:43:18Z</time></trkpt><trkpt lat="43.95893375706097" lon="12.065024875788486"><ele>445.0</ele><time>2026-04-19T10:43:19Z</time></trkpt><trkpt lat="43.95889898022149" lon="12.064946148656922"><ele>443.33333333333337</ele><time>2026-04-19T10:43:20Z</time></trkpt><trkpt lat="43.95890527809752" lon="12.064776107519867"><ele>441.6666666666667</ele><time>2026-04-19T10:43:22Z</time></trkpt><trkpt lat="43.958936757948116" lon="12.064670668333408"><ele>440.0</ele><time>2026-04-19T10:43:23Z</time></trkpt><trkpt lat="43.95892051829616" lon="12.064583135696438"><ele>438.33333333333337</ele><time>2026-04-19T10:43:24Z</time></trkpt><trkpt lat="43.95885422142203" lon="12.064542101774002"><ele>436.6666666666667</ele><time>2026-04-19T10:43:25Z</time></trkpt><trkpt lat="43.95878548720193" lon="12.064505924395888"><ele>435.0</ele><time>2026-04-19T10:43:26Z</time></trkpt><trkpt lat="43.95871468561903" lon="12.06449164598577"><ele>435.0</ele><time>2026-04-19T10:43:27Z</time></trkpt><trkpt lat="43.95863650995399" lon="12.064500778744081"><ele>435.0</ele><time>2026-04-19T10:43:28Z</time></trkpt><trkpt lat="43.95856252492623" lon="12.064537255375894"><ele>435.0</ele><time>2026-04-19T10:43:29Z</time></trkpt><trkpt lat="43.95848213371242" lon="12.064545060966287"><ele>435.0</ele><time>2026-04-19T10:43:30Z</time></trkpt><trkpt lat="43.958405400275545" lon="12.064544746839818"><ele>435.0</ele><time>2026-04-19T10:43:31Z</time></trkpt><trkpt lat="43.95829516900973" lon="12.064509368253198"><ele>435.0</ele><time>2026-04-19T10:43:33Z</time></trkpt><trkpt lat="43.95822869738479" lon="12.064529387039064"><ele>440.4</ele><time>2026-04-19T10:43:34Z</time></trkpt><trkpt lat="43.95815226224155" lon="12.064574788099607"><ele>445.8</ele><time>2026-04-19T10:43:35Z</time></trkpt><trkpt lat="43.95805505770263" lon="12.064622548134297"><ele>451.20000000000005</ele><time>2026-04-19T10:43:36Z</time></trkpt><trkpt lat="43.95794209799593" lon="12.06465994973315"><ele>456.6</ele><time>2026-04-19T10:43:37Z</time></trkpt><trkpt lat="43.95781405061468" lon="12.064673858462413"><ele>462.0</ele><time>2026-04-19T10:43:38Z</time></trkpt><trkpt lat="43.95767769647541" lon="12.064711899803237"><ele>462.0</ele><time>2026-04-19T10:43:39Z</time></trkpt><trkpt lat="43.9575416980585" lon="12.064774862036977"><ele>462.0</ele><time>2026-04-19T10:43:40Z</time></trkpt><trkpt lat="43.95738564061848" lon="12.064815182213295"><ele>462.0</ele><time>2026-04-19T10:43:41Z</time></trkpt><trkpt lat="43.95723504296792" lon="12.064855617794176"><ele>463.8</ele><time>2026-04-19T10:43:42Z</time></trkpt><trkpt lat="43.957109955322906" lon="12.064893119074023"><ele>465.6</ele><time>2026-04-19T10:43:43Z</time></trkpt><trkpt lat="43.957023005397836" lon="12.064929317008"><ele>467.40000000000003</ele><time>2026-04-19T10:43:44Z</time></trkpt><trkpt lat="43.956952060830844" lon="12.064932623854258"><ele>469.20000000000005</ele><time>2026-04-19T10:43:45Z</time></trkpt><trkpt lat="43.95685742622171" lon="12.064962277397667"><ele>471.0</ele><time>2026-04-19T10:43:47Z</time></trkpt><trkpt lat="43.95675540440378" lon="12.06500362352083"><ele>474.0</ele><time>2026-04-19T10:46:40Z</time></trkpt><trkpt lat="43.95666460453928" lon="12.065020177460616"><ele>477.0</ele><time>2026-04-19T10:46:41Z</time></trkpt><trkpt lat="43.956585593865405" lon="12.06504961683896"><ele>480.0</ele><time>2026-04-19T10:46:42Z</time></trkpt><trkpt lat="43.95647310330421" lon="12.065079639221942"><ele>483.0</ele><time>2026-04-19T10:46:43Z</time></trkpt><trkpt lat="43.95634666838231" lon="12.065109211784335"><ele>486.0</ele><time>2026-04-19T10:46:44Z</time></trkpt><trkpt lat="43.95625173116257" lon="12.065147336346065"><ele>486.0</ele><time>2026-04-19T10:46:45Z</time></trkpt><trkpt lat="43.95616603698096" lon="12.06515453413639"><ele>486.0</ele><time>2026-04-19T10:46:46Z</time></trkpt><trkpt lat="43.956080944594824" lon="12.065187731280696"><ele>486.0</ele><time>2026-04-19T10:46:47Z</time></trkpt><trkpt lat="43.95600689827787" lon="12.065242299020564"><ele>486.0</ele><time>2026-04-19T10:46:48Z</time></trkpt><trkpt lat="43.95595237017651" lon="12.065295720006826"><ele>486.0</ele><time>2026-04-19T10:46:49Z</time></trkpt><trkpt lat="43.95590075926041" lon="12.065360982605359"><ele>486.0</ele><time>2026-04-19T10:46:50Z</time></trkpt><trkpt lat="43.95584623774983" lon="12.065452452649287"><ele>486.4</ele><time>2026-04-19T10:46:51Z</time></trkpt><trkpt lat="43.955809451015284" lon="12.065597203679559"><ele>486.8</ele><time>2026-04-19T10:46:52Z</time></trkpt><trkpt lat="43.95575882389133" lon="12.065746635736181"><ele>487.19999999999993</ele><time>2026-04-19T10:46:53Z</time></trkpt><trkpt lat="43.95571361731261" lon="12.06587773444231"><ele>487.59999999999997</ele><time>2026-04-19T10:46:54Z</time></trkpt><trkpt lat="43.955671655190386" lon="12.06599034714522"><ele>488.0</ele><time>2026-04-19T10:46:55Z</time></trkpt><trkpt lat="43.955633181150525" lon="12.066097307469986"><ele>488.0</ele><time>2026-04-19T10:46:56Z</time></trkpt><trkpt lat="43.95559974397035" lon="12.066234258393925"><ele>488.0</ele><time>2026-04-19T10:46:57Z</time></trkpt><trkpt lat="43.95559057531322" lon="12.066394579474649"><ele>488.0</ele><time>2026-04-19T10:46:58Z</time></trkpt><trkpt lat="43.955594834100864" lon="12.066558603274498"><ele>488.0</ele><time>2026-04-19T10:46:59Z</time></trkpt><trkpt lat="43.95560642460463" lon="12.06674208203316"><ele>487.75</ele><time>2026-04-19T10:47:00Z</time></trkpt><trkpt lat="43.95562515150677" lon="12.066930262516296"><ele>487.5</ele><time>2026-04-19T10:47:01Z</time></trkpt><trkpt lat="43.95563666590368" lon="12.067136273427083"><ele>487.25</ele><time>2026-04-19T10:47:02Z</time></trkpt><trkpt lat="43.95564413904618" lon="12.067323448834177"><ele>487.0</ele><time>2026-04-19T10:47:03Z</time></trkpt><trkpt lat="43.955646950945884" lon="12.0674928745112"><ele>487.00000000000006</ele><time>2026-04-19T10:47:04Z</time></trkpt><trkpt lat="43.955629906319736" lon="12.067624009268538"><ele>487.0</ele><time>2026-04-19T10:47:05Z</time></trkpt><trkpt lat="43.955633347187394" lon="12.067738703788017"><ele>487.0</ele><time>2026-04-19T10:47:06Z</time></trkpt><trkpt lat="43.95565082123238" lon="12.06782987251831"><ele>487.0</ele><time>2026-04-19T10:47:07Z</time></trkpt><trkpt lat="43.95564830335983" lon="12.067966927608767"><ele>487.00000000000006</ele><time>2026-04-19T10:47:09Z</time></trkpt><trkpt lat="43.9556391422459" lon="12.06805662986492"><ele>487.0</ele><time>2026-04-19T10:47:10Z</time></trkpt><trkpt lat="43.955578092477836" lon="12.068134744677316"><ele>487.0</ele><time>2026-04-19T10:47:11Z</time></trkpt><trkpt lat="43.95552421726955" lon="12.068228015439967"><ele>487.00000000000006</ele><time>2026-04-19T10:47:13Z</time></trkpt><trkpt lat="43.95544450775928" lon="12.068353591605197"><ele>487.00000000000006</ele><time>2026-04-19T10:47:15Z</time></trkpt><trkpt lat="43.955399159883726" lon="12.068423701835437"><ele>487.0</ele><time>2026-04-19T10:47:16Z</time></trkpt><trkpt lat="43.955328408304005" lon="12.068525801838653"><ele>487.0</ele><time>2026-04-19T10:47:19Z</time></trkpt><trkpt lat="43.95546698821229" lon="12.068054238566296"><ele>487.0</ele><time>2026-04-19T10:47:20Z</time></trkpt><trkpt lat="43.95528118471568" lon="12.06823031198143"><ele>487.0</ele><time>2026-04-19T10:47:21Z</time></trkpt><trkpt lat="43.95511231410361" lon="12.067968347077226"><ele>492.0</ele><time>2026-04-19T10:47:25Z</time></trkpt><trkpt lat="43.95491451205067" lon="12.068193668384186"><ele>497.0</ele><time>2026-04-19T10:47:27Z</time></trkpt><trkpt lat="43.95483744959632" lon="12.068295562057129"><ele>502.0</ele><time>2026-04-19T10:47:28Z</time></trkpt><trkpt lat="43.954749923703574" lon="12.068430246702587"><ele>502.0</ele><time>2026-04-19T10:47:29Z</time></trkpt><trkpt lat="43.954667174251576" lon="12.068556508261095"><ele>502.0</ele><time>2026-04-19T10:47:30Z</time></trkpt><trkpt lat="43.954592608253755" lon="12.06872199706619"><ele>502.0</ele><time>2026-04-19T10:47:31Z</time></trkpt><trkpt lat="43.95457307229439" lon="12.068834640517785"><ele>502.0</ele><time>2026-04-19T10:47:32Z</time></trkpt><trkpt lat="43.95460946924742" lon="12.069020822828685"><ele>500.5</ele><time>2026-04-19T10:47:33Z</time></trkpt><trkpt lat="43.95452872421783" lon="12.069126989174206"><ele>499.0</ele><time>2026-04-19T10:47:35Z</time></trkpt><trkpt lat="43.95446211621661" lon="12.069194763021486"><ele>497.5</ele><time>2026-04-19T10:47:36Z</time></trkpt><trkpt lat="43.9543600573548" lon="12.069291092686075"><ele>496.0</ele><time>2026-04-19T10:47:37Z</time></trkpt><trkpt lat="43.954260849927664" lon="12.069431620961614"><ele>504.20000000000005</ele><time>2026-04-19T10:47:38Z</time></trkpt><trkpt lat="43.95416508687192" lon="12.06952971930681"><ele>512.4000000000001</ele><time>2026-04-19T10:47:39Z</time></trkpt><trkpt lat="43.95410312351277" lon="12.069565620065479"><ele>520.6</ele><time>2026-04-19T10:47:40Z</time></trkpt><trkpt lat="43.95399141211871" lon="12.069595134451237"><ele>528.8000000000001</ele><time>2026-04-19T10:47:41Z</time></trkpt><trkpt lat="43.953914467979374" lon="12.069709372271172"><ele>537.0</ele><time>2026-04-19T10:47:42Z</time></trkpt><trkpt lat="43.953850422523374" lon="12.069822935818376"><ele>537.0</ele><time>2026-04-19T10:47:43Z</time></trkpt><trkpt lat="43.95376511146146" lon="12.069910602683986"><ele>537.0</ele><time>2026-04-19T10:47:44Z</time></trkpt><trkpt lat="43.95368942226329" lon="12.069955408065221"><ele>537.0</ele><time>2026-04-19T10:47:45Z</time></trkpt><trkpt lat="43.95359957348224" lon="12.069973879502946"><ele>537.0</ele><time>2026-04-19T10:47:46Z</time></trkpt><trkpt lat="43.953509467799016" lon="12.069991548547927"><ele>537.0</ele><time>2026-04-19T10:47:47Z</time></trkpt><trkpt lat="43.95339316064391" lon="12.070023414939172"><ele>539.0</ele><time>2026-04-19T10:47:48Z</time></trkpt><trkpt lat="43.9532819840755" lon="12.070077669399229"><ele>541.0</ele><time>2026-04-19T10:47:49Z</time></trkpt><trkpt lat="43.9532275549602" lon="12.070162806563348"><ele>543.0</ele><time>2026-04-19T10:47:50Z</time></trkpt><trkpt lat="43.95322806399723" lon="12.070289101129651"><ele>545.0</ele><time>2026-04-19T10:47:51Z</time></trkpt><trkpt lat="43.953253286865554" lon="12.070400395359915"><ele>547.0</ele><time>2026-04-19T10:47:52Z</time></trkpt><trkpt lat="43.95327200297415" lon="12.070496875095843"><ele>549.0</ele><time>2026-04-19T10:47:53Z</time></trkpt><trkpt lat="43.95325827134676" lon="12.070603625280803"><ele>549.0</ele><time>2026-04-19T10:47:54Z</time></trkpt><trkpt lat="43.953265815303645" lon="12.070739837319014"><ele>549.0</ele><time>2026-04-19T10:47:55Z</time></trkpt><trkpt lat="43.95327796342077" lon="12.070875394761334"><ele>549.0</ele><time>2026-04-19T10:47:56Z</time></trkpt><trkpt lat="43.95333612109403" lon="12.071004104660375"><ele>549.0</ele><time>2026-04-19T10:47:57Z</time></trkpt><trkpt lat="43.95341942810189" lon="12.07105854314926"><ele>549.0</ele><time>2026-04-19T10:47:58Z</time></trkpt><trkpt lat="43.95348050002843" lon="12.071134867688805"><ele>550.2</ele><time>2026-04-19T10:47:59Z</time></trkpt><trkpt lat="43.95358304387982" lon="12.071214285509384"><ele>551.4</ele><time>2026-04-19T10:48:00Z</time></trkpt><trkpt lat="43.95369447975289" lon="12.071252919716867"><ele>552.6</ele><time>2026-04-19T10:48:01Z</time></trkpt><trkpt lat="43.95377308096113" lon="12.07136928373132"><ele>553.8</ele><time>2026-04-19T10:48:02Z</time></trkpt><trkpt lat="43.95382484924004" lon="12.07147644718209"><ele>555.0</ele><time>2026-04-19T10:48:03Z</time></trkpt><trkpt lat="43.9538765518814" lon="12.07164851044706"><ele>555.0</ele><time>2026-04-19T10:48:04Z</time></trkpt><trkpt lat="43.953935696913476" lon="12.071843114541956"><ele>555.0</ele><time>2026-04-19T10:48:05Z</time></trkpt><trkpt lat="43.95401662193046" lon="12.071974788109928"><ele>555.0</ele><time>2026-04-19T10:48:06Z</time></trkpt><trkpt lat="43.95409873177324" lon="12.072070155608495"><ele>555.0</ele><time>2026-04-19T10:48:07Z</time></trkpt><trkpt lat="43.95409304523358" lon="12.072223636594828"><ele>555.0</ele><time>2026-04-19T10:48:09Z</time></trkpt><trkpt lat="43.95402684341369" lon="12.072264431124522"><ele>555.0</ele><time>2026-04-19T10:48:10Z</time></trkpt><trkpt lat="43.95395779812498" lon="12.072283615188592"><ele>555.0</ele><time>2026-04-19T10:48:11Z</time></trkpt><trkpt lat="43.95387649878636" lon="12.072278608326178"><ele>555.0</ele><time>2026-04-19T10:48:12Z</time></trkpt><trkpt lat="43.953791267145725" lon="12.072300466645247"><ele>555.0</ele><time>2026-04-19T10:48:13Z</time></trkpt><trkpt lat="43.95370970815946" lon="12.072304919662097"><ele>555.0</ele><time>2026-04-19T10:48:14Z</time></trkpt><trkpt lat="43.95361280341804" lon="12.07230561292626"><ele>555.0</ele><time>2026-04-19T10:48:14.999Z</time></trkpt><trkpt lat="43.95352823984881" lon="12.072299879452569"><ele>555.0</ele><time>2026-04-19T10:48:15.999Z</time></trkpt><trkpt lat="43.95342085057777" lon="12.072215475284311"><ele>555.0</ele><time>2026-04-19T10:48:17.999Z</time></trkpt><trkpt lat="43.953366121234396" lon="12.072107051496126"><ele>555.0</ele><time>2026-04-19T10:48:19.999Z</time></trkpt><trkpt lat="43.95336122102662" lon="12.071955848379996"><ele>555.0</ele><time>2026-04-19T10:48:21.999Z</time></trkpt><trkpt lat="43.95329387608515" lon="12.071815795958138"><ele>559.5</ele><time>2026-04-19T10:48:23.999Z</time></trkpt><trkpt lat="43.953227871583856" lon="12.071770654832859"><ele>564.0</ele><time>2026-04-19T10:48:25Z</time></trkpt><trkpt lat="43.953156864802445" lon="12.071744527863752"><ele>568.5</ele><time>2026-04-19T10:48:26Z</time></trkpt><trkpt lat="43.95307558172767" lon="12.07171730289513"><ele>573.0</ele><time>2026-04-19T10:48:27Z</time></trkpt><trkpt lat="43.95297608834742" lon="12.071684706545199"><ele>577.5</ele><time>2026-04-19T10:48:28Z</time></trkpt><trkpt lat="43.95286981316373" lon="12.071676687844883"><ele>582.0</ele><time>2026-04-19T10:48:29Z</time></trkpt><trkpt lat="43.95277781119781" lon="12.071706387042553"><ele>582.0</ele><time>2026-04-19T10:48:30Z</time></trkpt><trkpt lat="43.95270689880924" lon="12.071769415349541"><ele>582.0</ele><time>2026-04-19T10:48:31Z</time></trkpt><trkpt lat="43.95261747393306" lon="12.071885198956842"><ele>582.0</ele><time>2026-04-19T10:48:32Z</time></trkpt><trkpt lat="43.952550697455365" lon="12.072021055371279"><ele>582.0</ele><time>2026-04-19T10:48:33Z</time></trkpt><trkpt lat="43.95248130050733" lon="12.07214252012334"><ele>582.0</ele><time>2026-04-19T10:48:34Z</time></trkpt><trkpt lat="43.95239451326992" lon="12.072278519017859"><ele>580.8000000000001</ele><time>2026-04-19T10:48:35Z</time></trkpt><trkpt lat="43.952327329951125" lon="12.072428487795603"><ele>579.6</ele><time>2026-04-19T10:48:36Z</time></trkpt><trkpt lat="43.952264721881576" lon="12.072520763836515"><ele>578.4000000000001</ele><time>2026-04-19T10:48:37Z</time></trkpt><trkpt lat="43.95220950878899" lon="12.07262972856253"><ele>577.2</ele><time>2026-04-19T10:48:38Z</time></trkpt><trkpt lat="43.95216535268931" lon="12.072760779383557"><ele>576.0</ele><time>2026-04-19T10:48:39Z</time></trkpt><trkpt lat="43.95214797179326" lon="12.072853846799127"><ele>576.0</ele><time>2026-04-19T10:48:40Z</time></trkpt><trkpt lat="43.9521152890891" lon="12.072938630488666"><ele>576.0</ele><time>2026-04-19T10:48:41Z</time></trkpt><trkpt lat="43.95210591958832" lon="12.073061132325181"><ele>576.0</ele><time>2026-04-19T10:48:42Z</time></trkpt><trkpt lat="43.95212169277157" lon="12.07318666410828"><ele>576.0</ele><time>2026-04-19T10:48:43Z</time></trkpt><trkpt lat="43.952136894536906" lon="12.073286463353005"><ele>576.0</ele><time>2026-04-19T10:48:44Z</time></trkpt><trkpt lat="43.95210652128236" lon="12.073402697161248"><ele>576.0</ele><time>2026-04-19T10:48:46Z</time></trkpt><trkpt lat="43.952014811421314" lon="12.073429839063673"><ele>576.0</ele><time>2026-04-19T10:48:48Z</time></trkpt><trkpt lat="43.95192748064796" lon="12.073274751729706"><ele>576.0</ele><time>2026-04-19T10:48:51Z</time></trkpt><trkpt lat="43.95189996029757" lon="12.073092989848734"><ele>576.0</ele><time>2026-04-19T10:48:53Z</time></trkpt><trkpt lat="43.951882182275384" lon="12.072935514957623"><ele>576.0</ele><time>2026-04-19T10:48:54Z</time></trkpt><trkpt lat="43.95186067346083" lon="12.072794315648213"><ele>576.0</ele><time>2026-04-19T10:48:55Z</time></trkpt><trkpt lat="43.95180129514549" lon="12.072674000297722"><ele>576.0</ele><time>2026-04-19T10:48:56Z</time></trkpt><trkpt lat="43.95173719684286" lon="12.072558001689973"><ele>576.0</ele><time>2026-04-19T10:48:57Z</time></trkpt><trkpt lat="43.951687161718894" lon="12.072432030592886"><ele>576.0</ele><time>2026-04-19T10:48:58Z</time></trkpt><trkpt lat="43.951634801310604" lon="12.07232750060824"><ele>576.0</ele><time>2026-04-19T10:48:59Z</time></trkpt><trkpt lat="43.95150685707298" lon="12.072252203682039"><ele>577.8</ele><time>2026-04-19T10:49:01Z</time></trkpt><trkpt lat="43.95139903762346" lon="12.072290233177663"><ele>579.6</ele><time>2026-04-19T10:49:02Z</time></trkpt><trkpt lat="43.951306363194035" lon="12.072371732294325"><ele>581.4</ele><time>2026-04-19T10:49:03Z</time></trkpt><trkpt lat="43.95121319013978" lon="12.07246928675849"><ele>583.2</ele><time>2026-04-19T10:49:04Z</time></trkpt><trkpt lat="43.951132000711574" lon="12.072572756430008"><ele>585.0</ele><time>2026-04-19T10:49:05Z</time></trkpt><trkpt lat="43.95105130436618" lon="12.072666402081381"><ele>580.1666666666666</ele><time>2026-04-19T10:49:06Z</time></trkpt><trkpt lat="43.95097525435998" lon="12.072760932184186"><ele>575.3333333333334</ele><time>2026-04-19T10:49:07Z</time></trkpt><trkpt lat="43.950899618797564" lon="12.072845257437223"><ele>570.5</ele><time>2026-04-19T10:49:08Z</time></trkpt><trkpt lat="43.95083417728463" lon="12.072895445421427"><ele>565.6666666666667</ele><time>2026-04-19T10:49:09Z</time></trkpt><trkpt lat="43.95077783905139" lon="12.072961464143875"><ele>560.8333333333334</ele><time>2026-04-19T10:49:10Z</time></trkpt><trkpt lat="43.95073478891478" lon="12.073027536341304"><ele>556.0</ele><time>2026-04-19T10:49:11Z</time></trkpt><trkpt lat="43.95061408832583" lon="12.073029065027331"><ele>552.4</ele><time>2026-04-19T10:49:13Z</time></trkpt><trkpt lat="43.95053968539958" lon="12.072999701215272"><ele>548.8</ele><time>2026-04-19T10:49:14Z</time></trkpt><trkpt lat="43.95047090255899" lon="12.072959228430967"><ele>545.1999999999999</ele><time>2026-04-19T10:49:15Z</time></trkpt><trkpt lat="43.95039268318009" lon="12.07300678470464"><ele>541.6</ele><time>2026-04-19T10:49:16Z</time></trkpt><trkpt lat="43.95031435876317" lon="12.073104761726597"><ele>538.0</ele><time>2026-04-19T10:49:17Z</time></trkpt><trkpt lat="43.95022430070797" lon="12.073255551178397"><ele>536.25</ele><time>2026-04-19T10:49:18Z</time></trkpt><trkpt lat="43.95015284573104" lon="12.073394824069567"><ele>534.5</ele><time>2026-04-19T10:49:19Z</time></trkpt><trkpt lat="43.95009796040521" lon="12.073490662819156"><ele>532.75</ele><time>2026-04-19T10:49:20Z</time></trkpt><trkpt lat="43.949965478973425" lon="12.073544647789243"><ele>531.0</ele><time>2026-04-19T10:49:22Z</time></trkpt><trkpt lat="43.949865520152535" lon="12.073494133202646"><ele>531.0</ele><time>2026-04-19T10:49:23Z</time></trkpt><trkpt lat="43.94976260317307" lon="12.073435292662154"><ele>531.0</ele><time>2026-04-19T10:49:24Z</time></trkpt><trkpt lat="43.94966128217203" lon="12.073380009725433"><ele>531.0</ele><time>2026-04-19T10:49:25Z</time></trkpt><trkpt lat="43.94956634123366" lon="12.073333339058232"><ele>531.0</ele><time>2026-04-19T10:49:26Z</time></trkpt><trkpt lat="43.94948530806172" lon="12.073280965563017"><ele>531.0</ele><time>2026-04-19T10:49:27Z</time></trkpt><trkpt lat="43.94942507819949" lon="12.073196279976024"><ele>531.0</ele><time>2026-04-19T10:49:29Z</time></trkpt><trkpt lat="43.94948565618574" lon="12.073346871589479"><ele>531.0</ele><time>2026-04-19T10:49:40Z</time></trkpt><trkpt lat="43.949647186528715" lon="12.07340263131083"><ele>531.0</ele><time>2026-04-19T10:49:42Z</time></trkpt><trkpt lat="43.949758492218045" lon="12.073462176283305"><ele>531.0</ele><time>2026-04-19T10:49:43Z</time></trkpt><trkpt lat="43.94984326571091" lon="12.073536468544676"><ele>531.0</ele><time>2026-04-19T10:49:44Z</time></trkpt><trkpt lat="43.949930135606024" lon="12.073572289506998"><ele>531.0</ele><time>2026-04-19T10:49:45Z</time></trkpt><trkpt lat="43.95002088480673" lon="12.073550137998792"><ele>531.0</ele><time>2026-04-19T10:49:46Z</time></trkpt><trkpt lat="43.950089852666245" lon="12.073475248777026"><ele>531.0</ele><time>2026-04-19T10:49:47Z</time></trkpt><trkpt lat="43.95017353638191" lon="12.07336203120615"><ele>531.0</ele><time>2026-04-19T10:49:48Z</time></trkpt><trkpt lat="43.950247520941254" lon="12.073236459212655"><ele>532.1666666666666</ele><time>2026-04-19T10:49:49Z</time></trkpt><trkpt lat="43.950315208883524" lon="12.073134592787419"><ele>533.3333333333334</ele><time>2026-04-19T10:49:50Z</time></trkpt><trkpt lat="43.950369864453926" lon="12.07303717420061"><ele>534.5</ele><time>2026-04-19T10:49:51Z</time></trkpt><trkpt lat="43.9504262461935" lon="12.072952116214415"><ele>535.6666666666667</ele><time>2026-04-19T10:49:52Z</time></trkpt><trkpt lat="43.9505068806079" lon="12.072918559099525"><ele>536.8333333333334</ele><time>2026-04-19T10:49:53Z</time></trkpt><trkpt lat="43.95058529970254" lon="12.072931523379552"><ele>538.0</ele><time>2026-04-19T10:49:54Z</time></trkpt><trkpt lat="43.95067034347738" lon="12.072976054760291"><ele>538.0</ele><time>2026-04-19T10:49:55Z</time></trkpt><trkpt lat="43.95075536358068" lon="12.073040117674596"><ele>538.0</ele><time>2026-04-19T10:49:56Z</time></trkpt><trkpt lat="43.950807453220854" lon="12.073141887062784"><ele>538.0</ele><time>2026-04-19T10:49:57Z</time></trkpt><trkpt lat="43.95082479921709" lon="12.073253145267264"><ele>538.0</ele><time>2026-04-19T10:49:58Z</time></trkpt><trkpt lat="43.95080582571318" lon="12.073377328637536"><ele>538.0</ele><time>2026-04-19T10:49:59Z</time></trkpt><trkpt lat="43.95078139422888" lon="12.073487108411044"><ele>538.0</ele><time>2026-04-19T10:50:00Z</time></trkpt><trkpt lat="43.95076051995473" lon="12.073609552919926"><ele>533.4</ele><time>2026-04-19T10:50:01Z</time></trkpt><trkpt lat="43.95074342538175" lon="12.073734023235605"><ele>528.8</ele><time>2026-04-19T10:50:02Z</time></trkpt><trkpt lat="43.95072530461149" lon="12.073844763457288"><ele>524.2</ele><time>2026-04-19T10:50:03Z</time></trkpt><trkpt lat="43.95071896821592" lon="12.074012089046539"><ele>519.6</ele><time>2026-04-19T10:50:04Z</time></trkpt><trkpt lat="43.95072200969881" lon="12.074126691332657"><ele>515.0</ele><time>2026-04-19T10:50:05Z</time></trkpt><trkpt lat="43.950730054200385" lon="12.074256987764345"><ele>511.6</ele><time>2026-04-19T10:50:06Z</time></trkpt><trkpt lat="43.95073234307104" lon="12.074388013633081"><ele>508.2</ele><time>2026-04-19T10:50:07Z</time></trkpt><trkpt lat="43.95073196729504" lon="12.074535367950473"><ele>504.79999999999995</ele><time>2026-04-19T10:50:08Z</time></trkpt><trkpt lat="43.9507067122976" lon="12.074680114187986"><ele>501.4</ele><time>2026-04-19T10:50:09Z</time></trkpt><trkpt lat="43.9506980220734" lon="12.07482415024534"><ele>498.0</ele><time>2026-04-19T10:50:10Z</time></trkpt><trkpt lat="43.95068247903375" lon="12.074912227897126"><ele>497.0</ele><time>2026-04-19T10:50:11Z</time></trkpt><trkpt lat="43.95069043927222" lon="12.075088003409912"><ele>495.99999999999994</ele><time>2026-04-19T10:50:13Z</time></trkpt><trkpt lat="43.95073542495559" lon="12.07519981236705"><ele>494.99999999999994</ele><time>2026-04-19T10:50:14Z</time></trkpt><trkpt lat="43.95079315547824" lon="12.075302590369873"><ele>494.0</ele><time>2026-04-19T10:50:15Z</time></trkpt><trkpt lat="43.950848710042585" lon="12.07538583771713"><ele>493.0</ele><time>2026-04-19T10:50:16Z</time></trkpt><trkpt lat="43.95089008970186" lon="12.075478410533444"><ele>493.00000000000006</ele><time>2026-04-19T10:50:17Z</time></trkpt><trkpt lat="43.95094382070255" lon="12.07556976037956"><ele>493.0</ele><time>2026-04-19T10:50:18Z</time></trkpt><trkpt lat="43.95100044063212" lon="12.075657491012318"><ele>493.0</ele><time>2026-04-19T10:50:19Z</time></trkpt><trkpt lat="43.95106182070405" lon="12.075726677918418"><ele>493.0</ele><time>2026-04-19T10:50:20Z</time></trkpt><trkpt lat="43.951115057497326" lon="12.075813591969009"><ele>493.00000000000006</ele><time>2026-04-19T10:50:21Z</time></trkpt><trkpt lat="43.95117341635378" lon="12.075896661045299"><ele>493.0</ele><time>2026-04-19T10:50:22Z</time></trkpt><trkpt lat="43.951243199408715" lon="12.075977508931262"><ele>489.42857142857144</ele><time>2026-04-19T10:50:23Z</time></trkpt><trkpt lat="43.9512884984773" lon="12.076061182745134"><ele>485.8571428571429</ele><time>2026-04-19T10:50:24Z</time></trkpt><trkpt lat="43.95132930552248" lon="12.076145856314673"><ele>482.28571428571433</ele><time>2026-04-19T10:50:25Z</time></trkpt><trkpt lat="43.95135961911525" lon="12.07622986356345"><ele>478.7142857142857</ele><time>2026-04-19T10:50:26Z</time></trkpt><trkpt lat="43.951386514479765" lon="12.076312488236693"><ele>475.1428571428572</ele><time>2026-04-19T10:50:27Z</time></trkpt><trkpt lat="43.9514207241371" lon="12.076396673006014"><ele>471.5714285714286</ele><time>2026-04-19T10:50:28Z</time></trkpt><trkpt lat="43.95147039414045" lon="12.076472977114392"><ele>468.0</ele><time>2026-04-19T10:50:29Z</time></trkpt><trkpt lat="43.951532460664595" lon="12.076531135579684"><ele>468.0</ele><time>2026-04-19T10:50:30Z</time></trkpt><trkpt lat="43.95161392481475" lon="12.07656150634477"><ele>468.0</ele><time>2026-04-19T10:50:31Z</time></trkpt><trkpt lat="43.95170329058261" lon="12.076583473905398"><ele>468.0</ele><time>2026-04-19T10:50:32Z</time></trkpt><trkpt lat="43.951796420099186" lon="12.076596107565763"><ele>468.0</ele><time>2026-04-19T10:50:33Z</time></trkpt><trkpt lat="43.951883132749835" lon="12.076624489980237"><ele>468.0</ele><time>2026-04-19T10:50:34Z</time></trkpt><trkpt lat="43.95195080196708" lon="12.07667426809162"><ele>468.0</ele><time>2026-04-19T10:50:35Z</time></trkpt><trkpt lat="43.95201928898155" lon="12.0767389513749"><ele>464.2</ele><time>2026-04-19T10:50:37Z</time></trkpt><trkpt lat="43.95213335791587" lon="12.076807744369374"><ele>460.4</ele><time>2026-04-19T10:50:39Z</time></trkpt><trkpt lat="43.952231951620284" lon="12.076813599447291"><ele>456.59999999999997</ele><time>2026-04-19T10:50:40Z</time></trkpt><trkpt lat="43.95234187234535" lon="12.076824237101766"><ele>452.79999999999995</ele><time>2026-04-19T10:50:41Z</time></trkpt><trkpt lat="43.95243648984372" lon="12.076855486566297"><ele>449.0</ele><time>2026-04-19T10:50:42Z</time></trkpt><trkpt lat="43.95252247838029" lon="12.076928454032684"><ele>451.0</ele><time>2026-04-19T10:50:43Z</time></trkpt><trkpt lat="43.95260356978766" lon="12.077005760568687"><ele>453.0</ele><time>2026-04-19T10:50:44Z</time></trkpt><trkpt lat="43.952676614796" lon="12.077085502746188"><ele>455.0</ele><time>2026-04-19T10:50:45Z</time></trkpt><trkpt lat="43.95276671400169" lon="12.077160655740721"><ele>457.0</ele><time>2026-04-19T10:50:46Z</time></trkpt><trkpt lat="43.95283777461194" lon="12.077232206230574"><ele>459.0</ele><time>2026-04-19T10:50:47Z</time></trkpt><trkpt lat="43.95289424765474" lon="12.077316892029199"><ele>459.0</ele><time>2026-04-19T10:50:48Z</time></trkpt><trkpt lat="43.95294523755706" lon="12.077415059628798"><ele>459.0</ele><time>2026-04-19T10:50:49Z</time></trkpt><trkpt lat="43.95299679688287" lon="12.077529693444221"><ele>459.0</ele><time>2026-04-19T10:50:50Z</time></trkpt><trkpt lat="43.953058308459426" lon="12.077632506960981"><ele>459.0</ele><time>2026-04-19T10:50:51Z</time></trkpt><trkpt lat="43.953123219527335" lon="12.077710139928456"><ele>459.0</ele><time>2026-04-19T10:50:52Z</time></trkpt><trkpt lat="43.953198877546846" lon="12.077788781179793"><ele>455.0</ele><time>2026-04-19T10:50:53Z</time></trkpt><trkpt lat="43.95328118250037" lon="12.077872698879824"><ele>451.0</ele><time>2026-04-19T10:50:54Z</time></trkpt><trkpt lat="43.95336431794389" lon="12.077957190032466"><ele>447.0</ele><time>2026-04-19T10:50:55Z</time></trkpt><trkpt lat="43.95345345214905" lon="12.078036776629077"><ele>443.0</ele><time>2026-04-19T10:50:56Z</time></trkpt><trkpt lat="43.95354064138215" lon="12.078083807042235"><ele>439.0</ele><time>2026-04-19T10:50:57Z</time></trkpt><trkpt lat="43.95363374775189" lon="12.078117301077045"><ele>438.50000000000006</ele><time>2026-04-19T10:50:58Z</time></trkpt><trkpt lat="43.953708114313734" lon="12.07815456162667"><ele>438.0</ele><time>2026-04-19T10:50:59Z</time></trkpt><trkpt lat="43.953771513096825" lon="12.078207375509583"><ele>437.5</ele><time>2026-04-19T10:51:00Z</time></trkpt><trkpt lat="43.953835684390555" lon="12.078282008303866"><ele>437.0</ele><time>2026-04-19T10:51:01Z</time></trkpt><trkpt lat="43.95391362562484" lon="12.078297368484492"><ele>436.50000000000006</ele><time>2026-04-19T10:51:02Z</time></trkpt><trkpt lat="43.95398932827024" lon="12.078293861612622"><ele>436.0</ele><time>2026-04-19T10:51:03Z</time></trkpt><trkpt lat="43.954077779572344" lon="12.078265513845952"><ele>436.00000000000006</ele><time>2026-04-19T10:51:04Z</time></trkpt><trkpt lat="43.954172399685014" lon="12.07823044293048"><ele>436.0</ele><time>2026-04-19T10:51:05Z</time></trkpt><trkpt lat="43.95425403025216" lon="12.078197998242286"><ele>436.0</ele><time>2026-04-19T10:51:06Z</time></trkpt><trkpt lat="43.95433791764998" lon="12.078173794152118"><ele>436.0</ele><time>2026-04-19T10:51:07Z</time></trkpt><trkpt lat="43.95441967186732" lon="12.078157146541091"><ele>436.00000000000006</ele><time>2026-04-19T10:51:08Z</time></trkpt><trkpt lat="43.954498069754735" lon="12.07814452930315"><ele>436.0</ele><time>2026-04-19T10:51:09Z</time></trkpt><trkpt lat="43.954580401834775" lon="12.078155030695743"><ele>434.8</ele><time>2026-04-19T10:51:10Z</time></trkpt><trkpt lat="43.954663555161694" lon="12.078161372004338"><ele>433.6</ele><time>2026-04-19T10:51:11Z</time></trkpt><trkpt lat="43.954769083590904" lon="12.078239051801457"><ele>432.4</ele><time>2026-04-19T10:51:13Z</time></trkpt><trkpt lat="43.95476517594668" lon="12.07841180159163"><ele>431.2</ele><time>2026-04-19T10:51:15Z</time></trkpt><trkpt lat="43.954717686941684" lon="12.078473280728366"><ele>430.0</ele><time>2026-04-19T10:51:16Z</time></trkpt><trkpt lat="43.95463680405874" lon="12.078486847543267"><ele>426.83333333333337</ele><time>2026-04-19T10:51:17Z</time></trkpt><trkpt lat="43.95456850811144" lon="12.07846425255622"><ele>423.6666666666667</ele><time>2026-04-19T10:51:18Z</time></trkpt><trkpt lat="43.95451877239261" lon="12.078532960796244"><ele>420.5</ele><time>2026-04-19T10:51:20Z</time></trkpt><trkpt lat="43.95456115982855" lon="12.078603953489683"><ele>417.33333333333337</ele><time>2026-04-19T10:51:21Z</time></trkpt><trkpt lat="43.95461377769832" lon="12.078676426383135"><ele>414.1666666666667</ele><time>2026-04-19T10:51:22Z</time></trkpt><trkpt lat="43.95470285364398" lon="12.078723462047257"><ele>411.0</ele><time>2026-04-19T10:51:23Z</time></trkpt><trkpt lat="43.95481212238501" lon="12.078770169952952"><ele>411.0</ele><time>2026-04-19T10:51:24Z</time></trkpt><trkpt lat="43.95492763783252" lon="12.078793057458956"><ele>411.0</ele><time>2026-04-19T10:51:25Z</time></trkpt><trkpt lat="43.955025016628525" lon="12.078808171426092"><ele>411.0</ele><time>2026-04-19T10:51:26Z</time></trkpt><trkpt lat="43.95514303823275" lon="12.078808990727309"><ele>411.0</ele><time>2026-04-19T10:51:27Z</time></trkpt><trkpt lat="43.95525058663767" lon="12.078809065625698"><ele>411.0</ele><time>2026-04-19T10:51:28Z</time></trkpt><trkpt lat="43.955338048491015" lon="12.078835990870008"><ele>409.5</ele><time>2026-04-19T10:51:29Z</time></trkpt><trkpt lat="43.955436806081195" lon="12.07886222244376"><ele>408.0</ele><time>2026-04-19T10:51:30Z</time></trkpt><trkpt lat="43.95552713205644" lon="12.078841876542485"><ele>406.5</ele><time>2026-04-19T10:51:32Z</time></trkpt><trkpt lat="43.9555726790527" lon="12.078931298034819"><ele>405.0</ele><time>2026-04-19T10:51:36Z</time></trkpt><trkpt lat="43.955583275386566" lon="12.07903464512694"><ele>403.5</ele><time>2026-04-19T10:51:39Z</time></trkpt><trkpt lat="43.95558603754617" lon="12.079123220671237"><ele>402.0</ele><time>2026-04-19T10:51:41Z</time></trkpt><trkpt lat="43.955621190108715" lon="12.079269029841399"><ele>402.0</ele><time>2026-04-19T10:51:43Z</time></trkpt><trkpt lat="43.955597751844834" lon="12.07939371213692"><ele>402.0</ele><time>2026-04-19T10:51:45Z</time></trkpt><trkpt lat="43.955594877168814" lon="12.079488425177416"><ele>402.0</ele><time>2026-04-19T10:51:46Z</time></trkpt><trkpt lat="43.95557689248279" lon="12.079596485059179"><ele>402.0</ele><time>2026-04-19T10:51:47Z</time></trkpt><trkpt lat="43.95555313399279" lon="12.079724640492726"><ele>402.0</ele><time>2026-04-19T10:51:48Z</time></trkpt><trkpt lat="43.95551612124206" lon="12.079849600518187"><ele>402.0</ele><time>2026-04-19T10:51:49Z</time></trkpt><trkpt lat="43.95548003181281" lon="12.079972391174687"><ele>404.6</ele><time>2026-04-19T10:51:50Z</time></trkpt><trkpt lat="43.9554403510135" lon="12.080098117824596"><ele>407.20000000000005</ele><time>2026-04-19T10:51:51Z</time></trkpt><trkpt lat="43.95540054698134" lon="12.08024263948707"><ele>409.8</ele><time>2026-04-19T10:51:52Z</time></trkpt><trkpt lat="43.9553695235346" lon="12.08038079684733"><ele>412.4</ele><time>2026-04-19T10:51:53Z</time></trkpt><trkpt lat="43.955337398274324" lon="12.080520042003316"><ele>415.0</ele><time>2026-04-19T10:51:54Z</time></trkpt><trkpt lat="43.95529630758665" lon="12.080653236063734"><ele>417.4</ele><time>2026-04-19T10:51:55Z</time></trkpt><trkpt lat="43.95525087383808" lon="12.080782474540019"><ele>419.8</ele><time>2026-04-19T10:51:56Z</time></trkpt><trkpt lat="43.955208011481794" lon="12.080905770470913"><ele>422.20000000000005</ele><time>2026-04-19T10:51:57Z</time></trkpt><trkpt lat="43.95517683131072" lon="12.081030232476376"><ele>424.6</ele><time>2026-04-19T10:51:58Z</time></trkpt><trkpt lat="43.95515571166592" lon="12.081133578638044"><ele>427.0</ele><time>2026-04-19T10:51:59Z</time></trkpt><trkpt lat="43.95508338612458" lon="12.081250889357824"><ele>431.6</ele><time>2026-04-19T10:52:01Z</time></trkpt><trkpt lat="43.95498911781336" lon="12.081279299831586"><ele>436.20000000000005</ele><time>2026-04-19T10:52:03Z</time></trkpt><trkpt lat="43.954906379820116" lon="12.081351626399877"><ele>440.8</ele><time>2026-04-19T10:52:05Z</time></trkpt><trkpt lat="43.95484432123653" lon="12.081469574761625"><ele>445.4</ele><time>2026-04-19T10:52:07Z</time></trkpt><trkpt lat="43.95477792282649" lon="12.081478862035855"><ele>450.0</ele><time>2026-04-19T10:52:11Z</time></trkpt><trkpt lat="43.95486192269037" lon="12.081399457455962"><ele>450.0</ele><time>2026-04-19T10:52:18Z</time></trkpt><trkpt lat="43.95494937354952" lon="12.081299711685563"><ele>450.0</ele><time>2026-04-19T10:52:20Z</time></trkpt><trkpt lat="43.95501673766147" lon="12.081259730585739"><ele>450.0</ele><time>2026-04-19T10:52:23Z</time></trkpt><trkpt lat="43.95508690821248" lon="12.081311544355177"><ele>450.0</ele><time>2026-04-19T10:52:34Z</time></trkpt><trkpt lat="43.955147902242345" lon="12.081385217858983"><ele>450.0</ele><time>2026-04-19T10:52:35Z</time></trkpt><trkpt lat="43.95522871209711" lon="12.081462394370167"><ele>450.0</ele><time>2026-04-19T10:52:36Z</time></trkpt><trkpt lat="43.95531096343166" lon="12.081535792464967"><ele>449.6666666666667</ele><time>2026-04-19T10:52:37Z</time></trkpt><trkpt lat="43.955390627066365" lon="12.081607305015297"><ele>449.33333333333337</ele><time>2026-04-19T10:52:38Z</time></trkpt><trkpt lat="43.95546614524908" lon="12.081649385085512"><ele>449.0</ele><time>2026-04-19T10:52:39Z</time></trkpt><trkpt lat="43.955537038311356" lon="12.081676187679198"><ele>448.6666666666667</ele><time>2026-04-19T10:52:40Z</time></trkpt><trkpt lat="43.95560482483787" lon="12.081681059417985"><ele>448.33333333333337</ele><time>2026-04-19T10:52:41Z</time></trkpt><trkpt lat="43.955706936806756" lon="12.081609738724037"><ele>448.0</ele><time>2026-04-19T10:52:43Z</time></trkpt><trkpt lat="43.95579978427603" lon="12.081428070907632"><ele>444.2</ele><time>2026-04-19T10:52:45Z</time></trkpt><trkpt lat="43.95584959339752" lon="12.081310952832647"><ele>440.4</ele><time>2026-04-19T10:52:46Z</time></trkpt><trkpt lat="43.955913194792856" lon="12.081227983769677"><ele>436.59999999999997</ele><time>2026-04-19T10:52:47Z</time></trkpt><trkpt lat="43.95599823937761" lon="12.081133688213336"><ele>432.79999999999995</ele><time>2026-04-19T10:52:48Z</time></trkpt><trkpt lat="43.95608536300568" lon="12.081056732617197"><ele>429.0</ele><time>2026-04-19T10:52:49Z</time></trkpt><trkpt lat="43.95615741606446" lon="12.080961305106138"><ele>429.0</ele><time>2026-04-19T10:52:50Z</time></trkpt><trkpt lat="43.95622277400971" lon="12.080859574549953"><ele>429.0</ele><time>2026-04-19T10:52:51Z</time></trkpt><trkpt lat="43.95627845282759" lon="12.080781478704576"><ele>429.0</ele><time>2026-04-19T10:52:52Z</time></trkpt><trkpt lat="43.95634323302796" lon="12.080744426156173"><ele>429.0</ele><time>2026-04-19T10:52:53Z</time></trkpt><trkpt lat="43.9564118555921" lon="12.080714951354818"><ele>429.0</ele><time>2026-04-19T10:52:54Z</time></trkpt><trkpt lat="43.956496044238136" lon="12.080790700138238"><ele>429.0</ele><time>2026-04-19T10:52:56Z</time></trkpt><trkpt lat="43.95649414646646" lon="12.080982274149925"><ele>429.0</ele><time>2026-04-19T10:52:58Z</time></trkpt><trkpt lat="43.95648568528247" lon="12.081134208026482"><ele>429.0</ele><time>2026-04-19T10:52:59Z</time></trkpt><trkpt lat="43.95647492486834" lon="12.081279268185083"><ele>429.0</ele><time>2026-04-19T10:53:00Z</time></trkpt><trkpt lat="43.95644507251934" lon="12.081404108523126"><ele>429.0</ele><time>2026-04-19T10:53:01Z</time></trkpt><trkpt lat="43.95643977394793" lon="12.081538854078989"><ele>429.0</ele><time>2026-04-19T10:53:02Z</time></trkpt><trkpt lat="43.956442248929356" lon="12.081666904838633"><ele>430.75</ele><time>2026-04-19T10:53:03Z</time></trkpt><trkpt lat="43.95649327989653" lon="12.081845600698855"><ele>432.5</ele><time>2026-04-19T10:53:05Z</time></trkpt><trkpt lat="43.956552754400356" lon="12.081930241762631"><ele>434.25</ele><time>2026-04-19T10:53:06Z</time></trkpt><trkpt lat="43.95666758110054" lon="12.081970101207014"><ele>436.0</ele><time>2026-04-19T10:53:07Z</time></trkpt><trkpt lat="43.95680280741688" lon="12.081996306101914"><ele>436.0</ele><time>2026-04-19T10:53:08Z</time></trkpt><trkpt lat="43.9569001040508" lon="12.081982852309656"><ele>436.0</ele><time>2026-04-19T10:53:09Z</time></trkpt><trkpt lat="43.9569787260869" lon="12.081910213953124"><ele>436.0</ele><time>2026-04-19T10:53:10Z</time></trkpt><trkpt lat="43.957075160252856" lon="12.081868609898384"><ele>436.0</ele><time>2026-04-19T10:53:11Z</time></trkpt><trkpt lat="43.95717281773837" lon="12.081805227546056"><ele>436.0</ele><time>2026-04-19T10:53:13Z</time></trkpt><trkpt lat="43.957269085450335" lon="12.081888271476801"><ele>440.6666666666667</ele><time>2026-04-19T10:53:15Z</time></trkpt><trkpt lat="43.95753973730718" lon="12.081938213236"><ele>445.33333333333337</ele><time>2026-04-19T10:53:16Z</time></trkpt><trkpt lat="43.95763847974708" lon="12.081922007783735"><ele>450.0</ele><time>2026-04-19T10:53:17Z</time></trkpt><trkpt lat="43.957767418918934" lon="12.081948880223443"><ele>450.0</ele><time>2026-04-19T10:53:18Z</time></trkpt><trkpt lat="43.95787761354275" lon="12.081938351830653"><ele>450.0</ele><time>2026-04-19T10:53:19Z</time></trkpt><trkpt lat="43.95797133088913" lon="12.081867622806804"><ele>450.0</ele><time>2026-04-19T10:53:20Z</time></trkpt><trkpt lat="43.95802697608336" lon="12.081775019233335"><ele>450.0</ele><time>2026-04-19T10:53:21Z</time></trkpt><trkpt lat="43.95805674210394" lon="12.081687496854357"><ele>450.0</ele><time>2026-04-19T10:53:22Z</time></trkpt><trkpt lat="43.95809901940279" lon="12.0816178625261"><ele>450.0</ele><time>2026-04-19T10:53:23Z</time></trkpt><trkpt lat="43.95817970306036" lon="12.08156075500397"><ele>446.3333333333333</ele><time>2026-04-19T10:53:25Z</time></trkpt><trkpt lat="43.958237284436336" lon="12.081505966445484"><ele>442.66666666666663</ele><time>2026-04-19T10:53:26Z</time></trkpt><trkpt lat="43.95833239973403" lon="12.0814242620104"><ele>439.0</ele><time>2026-04-19T10:53:28Z</time></trkpt><trkpt lat="43.95836404489193" lon="12.081347041301388"><ele>435.3333333333333</ele><time>2026-04-19T10:53:29Z</time></trkpt><trkpt lat="43.95839549669462" lon="12.081259162554183"><ele>431.66666666666663</ele><time>2026-04-19T10:53:30Z</time></trkpt><trkpt lat="43.958436755033354" lon="12.081172237770009"><ele>428.0</ele><time>2026-04-19T10:53:31Z</time></trkpt><trkpt lat="43.95847766657824" lon="12.081096070914382"><ele>425.79999999999995</ele><time>2026-04-19T10:53:32Z</time></trkpt><trkpt lat="43.95852958229985" lon="12.081039183238246"><ele>423.59999999999997</ele><time>2026-04-19T10:53:33Z</time></trkpt><trkpt lat="43.958650655443996" lon="12.081056599568337"><ele>421.4</ele><time>2026-04-19T10:53:35Z</time></trkpt><trkpt lat="43.95868971226534" lon="12.08117486812639"><ele>419.20000000000005</ele><time>2026-04-19T10:53:36Z</time></trkpt><trkpt lat="43.95865193655789" lon="12.081372012218065"><ele>417.0</ele><time>2026-04-19T10:53:37Z</time></trkpt><trkpt lat="43.95870106363658" lon="12.08155464380378"><ele>424.75</ele><time>2026-04-19T10:53:38Z</time></trkpt><trkpt lat="43.95882649083983" lon="12.081753555476562"><ele>432.5</ele><time>2026-04-19T10:53:39Z</time></trkpt><trkpt lat="43.95892496495087" lon="12.081817008914523"><ele>440.25</ele><time>2026-04-19T10:53:40Z</time></trkpt><trkpt lat="43.95902927716687" lon="12.081856207955516"><ele>448.0</ele><time>2026-04-19T10:53:41Z</time></trkpt><trkpt lat="43.959159926636715" lon="12.081882235408006"><ele>446.79999999999995</ele><time>2026-04-19T10:53:42Z</time></trkpt><trkpt lat="43.95928342968731" lon="12.08184511880534"><ele>445.59999999999997</ele><time>2026-04-19T10:53:43Z</time></trkpt><trkpt lat="43.959409423642015" lon="12.081807519207286"><ele>444.40000000000003</ele><time>2026-04-19T10:53:44Z</time></trkpt><trkpt lat="43.9595136293547" lon="12.081770852915433"><ele>443.20000000000005</ele><time>2026-04-19T10:53:45Z</time></trkpt><trkpt lat="43.95959434774052" lon="12.081767135598557"><ele>442.0</ele><time>2026-04-19T10:53:46Z</time></trkpt><trkpt lat="43.95966410451561" lon="12.081805885313058"><ele>442.0</ele><time>2026-04-19T10:53:47Z</time></trkpt><trkpt lat="43.9597139111215" lon="12.081910093606274"><ele>442.00000000000006</ele><time>2026-04-19T10:53:48Z</time></trkpt><trkpt lat="43.95976315689529" lon="12.08206538113732"><ele>442.00000000000006</ele><time>2026-04-19T10:53:49Z</time></trkpt><trkpt lat="43.95983742433939" lon="12.082180757460698"><ele>442.0</ele><time>2026-04-19T10:53:50Z</time></trkpt><trkpt lat="43.95989517883762" lon="12.082292291966649"><ele>442.0</ele><time>2026-04-19T10:53:51Z</time></trkpt><trkpt lat="43.95993571446451" lon="12.082380430309415"><ele>445.20000000000005</ele><time>2026-04-19T10:53:52Z</time></trkpt><trkpt lat="43.95991795911615" lon="12.082474483672849"><ele>448.40000000000003</ele><time>2026-04-19T10:53:53Z</time></trkpt><trkpt lat="43.959797948274044" lon="12.082504325512094"><ele>451.59999999999997</ele><time>2026-04-19T10:53:54Z</time></trkpt><trkpt lat="43.95969312243454" lon="12.082494713321447"><ele>454.79999999999995</ele><time>2026-04-19T10:53:55Z</time></trkpt><trkpt lat="43.959594192683625" lon="12.082539586594732"><ele>458.0</ele><time>2026-04-19T10:53:56Z</time></trkpt><trkpt lat="43.95948507742578" lon="12.082582252078327"><ele>458.0</ele><time>2026-04-19T10:53:57Z</time></trkpt><trkpt lat="43.95937124674862" lon="12.082673386272319"><ele>458.0</ele><time>2026-04-19T10:53:58Z</time></trkpt><trkpt lat="43.959253936374225" lon="12.082810098189835"><ele>458.0</ele><time>2026-04-19T10:53:59Z</time></trkpt><trkpt lat="43.959142725953356" lon="12.082925606560293"><ele>458.0</ele><time>2026-04-19T10:54:00Z</time></trkpt><trkpt lat="43.959042204511995" lon="12.08297252157024"><ele>461.5</ele><time>2026-04-19T10:54:01Z</time></trkpt><trkpt lat="43.95890845291755" lon="12.082936372724431"><ele>465.0</ele><time>2026-04-19T10:54:02Z</time></trkpt><trkpt lat="43.95877350246768" lon="12.082953799788987"><ele>468.5</ele><time>2026-04-19T10:54:03Z</time></trkpt><trkpt lat="43.95862843932355" lon="12.082972847264754"><ele>472.0</ele><time>2026-04-19T10:54:04Z</time></trkpt><trkpt lat="43.958468875368155" lon="12.083005819724844"><ele>473.25</ele><time>2026-04-19T10:54:05Z</time></trkpt><trkpt lat="43.95832961031321" lon="12.083104421505073"><ele>474.5</ele><time>2026-04-19T10:54:06Z</time></trkpt><trkpt lat="43.95825169693774" lon="12.083265700656959"><ele>475.75</ele><time>2026-04-19T10:54:07Z</time></trkpt><trkpt lat="43.958196008066764" lon="12.08343092507458"><ele>477.0</ele><time>2026-04-19T10:54:08Z</time></trkpt><trkpt lat="43.95810830592903" lon="12.083581820715269"><ele>477.0</ele><time>2026-04-19T10:54:09Z</time></trkpt><trkpt lat="43.95801042103813" lon="12.083630054800835"><ele>477.0</ele><time>2026-04-19T10:54:10Z</time></trkpt><trkpt lat="43.957888712037175" lon="12.083669181603726"><ele>477.0</ele><time>2026-04-19T10:54:11Z</time></trkpt><trkpt lat="43.95773249781964" lon="12.083723972944492"><ele>477.0</ele><time>2026-04-19T10:54:12Z</time></trkpt><trkpt lat="43.957595803098044" lon="12.083793887337574"><ele>477.0</ele><time>2026-04-19T10:54:13Z</time></trkpt><trkpt lat="43.95749283271953" lon="12.083797085250866"><ele>477.00000000000006</ele><time>2026-04-19T10:54:14Z</time></trkpt><trkpt lat="43.95747134149222" lon="12.08369812753808"><ele>477.00000000000006</ele><time>2026-04-19T10:54:17Z</time></trkpt><trkpt lat="43.9575428271592" lon="12.08362339634926"><ele>477.0</ele><time>2026-04-19T10:54:18Z</time></trkpt><trkpt lat="43.95763112789445" lon="12.083528055434101"><ele>477.0</ele><time>2026-04-19T10:54:19Z</time></trkpt><trkpt lat="43.957681606690976" lon="12.083409572413302"><ele>477.0</ele><time>2026-04-19T10:54:20Z</time></trkpt><trkpt lat="43.95767744865476" lon="12.083296337784917"><ele>477.0</ele><time>2026-04-19T10:54:21Z</time></trkpt><trkpt lat="43.95758628871959" lon="12.083177493057857"><ele>477.0</ele><time>2026-04-19T10:54:22Z</time></trkpt><trkpt lat="43.9574495876199" lon="12.083162019881108"><ele>477.0</ele><time>2026-04-19T10:54:23Z</time></trkpt><trkpt lat="43.95734189952789" lon="12.083189797685906"><ele>479.5</ele><time>2026-04-19T10:54:24Z</time></trkpt><trkpt lat="43.9572577524916" lon="12.083290846412718"><ele>482.0</ele><time>2026-04-19T10:54:25Z</time></trkpt><trkpt lat="43.95717423002538" lon="12.083439087134272"><ele>484.5</ele><time>2026-04-19T10:54:26Z</time></trkpt><trkpt lat="43.957058433764466" lon="12.083549801417735"><ele>487.0</ele><time>2026-04-19T10:54:27Z</time></trkpt><trkpt lat="43.9569493469239" lon="12.08367555314747"><ele>487.0</ele><time>2026-04-19T10:54:28Z</time></trkpt><trkpt lat="43.95682643706535" lon="12.08374094110358"><ele>487.0</ele><time>2026-04-19T10:54:29Z</time></trkpt><trkpt lat="43.95668682181511" lon="12.08368758009827"><ele>487.0</ele><time>2026-04-19T10:54:30Z</time></trkpt><trkpt lat="43.95654111491229" lon="12.08359211449394"><ele>487.0</ele><time>2026-04-19T10:54:31Z</time></trkpt><trkpt lat="43.95642750487522" lon="12.083575443528076"><ele>489.25</ele><time>2026-04-19T10:54:32Z</time></trkpt><trkpt lat="43.9563437912176" lon="12.08360762311712"><ele>491.5</ele><time>2026-04-19T10:54:33Z</time></trkpt><trkpt lat="43.956289602646855" lon="12.08382275841086"><ele>493.75</ele><time>2026-04-19T10:54:35Z</time></trkpt><trkpt lat="43.95626660455918" lon="12.083996644836716"><ele>496.0</ele><time>2026-04-19T10:54:36Z</time></trkpt><trkpt lat="43.95626293992347" lon="12.084197810335427"><ele>502.6666666666667</ele><time>2026-04-19T10:54:37Z</time></trkpt><trkpt lat="43.95622942248768" lon="12.084404271873856"><ele>509.33333333333337</ele><time>2026-04-19T10:54:38Z</time></trkpt><trkpt lat="43.95615415002548" lon="12.084612868308382"><ele>516.0</ele><time>2026-04-19T10:54:39Z</time></trkpt><trkpt lat="43.95604233804988" lon="12.084778446073395"><ele>518.0</ele><time>2026-04-19T10:54:40Z</time></trkpt><trkpt lat="43.955920417358975" lon="12.084939288731208"><ele>520.0</ele><time>2026-04-19T10:54:41Z</time></trkpt><trkpt lat="43.955803269838505" lon="12.085101146105147"><ele>522.0</ele><time>2026-04-19T10:54:42Z</time></trkpt><trkpt lat="43.955690997907794" lon="12.085292638329904"><ele>522.0</ele><time>2026-04-19T10:54:43Z</time></trkpt><trkpt lat="43.955590288316415" lon="12.085432167316666"><ele>522.0</ele><time>2026-04-19T10:54:44Z</time></trkpt><trkpt lat="43.955489017805455" lon="12.08556720930622"><ele>522.0</ele><time>2026-04-19T10:54:45Z</time></trkpt><trkpt lat="43.955360008555296" lon="12.085636853219759"><ele>522.0</ele><time>2026-04-19T10:54:46Z</time></trkpt><trkpt lat="43.95525932699424" lon="12.085642120834512"><ele>522.0</ele><time>2026-04-19T10:54:47Z</time></trkpt><trkpt lat="43.95519352630696" lon="12.08558519002371"><ele>522.0</ele><time>2026-04-19T10:54:48Z</time></trkpt><trkpt lat="43.955110457281755" lon="12.08554421142231"><ele>522.0</ele><time>2026-04-19T10:54:49Z</time></trkpt><trkpt lat="43.95502247078893" lon="12.085461697279717"><ele>522.0</ele><time>2026-04-19T10:54:50Z</time></trkpt><trkpt lat="43.95491352921958" lon="12.085342888686265"><ele>522.0</ele><time>2026-04-19T10:54:51Z</time></trkpt><trkpt lat="43.95481161739764" lon="12.085275506644471"><ele>522.25</ele><time>2026-04-19T10:54:52Z</time></trkpt><trkpt lat="43.9547183763545" lon="12.085273537198484"><ele>522.5</ele><time>2026-04-19T10:54:53Z</time></trkpt><trkpt lat="43.95461074977774" lon="12.085332240765618"><ele>522.75</ele><time>2026-04-19T10:54:54Z</time></trkpt><trkpt lat="43.95449164554534" lon="12.08542458602357"><ele>523.0</ele><time>2026-04-19T10:54:55Z</time></trkpt><trkpt lat="43.954380577609356" lon="12.085574418797195"><ele>523.0</ele><time>2026-04-19T10:54:56Z</time></trkpt><trkpt lat="43.95425407406208" lon="12.085692263979414"><ele>523.0</ele><time>2026-04-19T10:54:57Z</time></trkpt><trkpt lat="43.9541505815585" lon="12.085887219591822"><ele>523.0</ele><time>2026-04-19T10:54:58Z</time></trkpt><trkpt lat="43.95402704065254" lon="12.08596175059628"><ele>530.0</ele><time>2026-04-19T10:54:59Z</time></trkpt><trkpt lat="43.953919651066805" lon="12.085985262971093"><ele>537.0</ele><time>2026-04-19T10:55:00Z</time></trkpt><trkpt lat="43.95378974825424" lon="12.085965968486358"><ele>544.0</ele><time>2026-04-19T10:55:01Z</time></trkpt><trkpt lat="43.95370182047356" lon="12.085881056188652"><ele>551.0</ele><time>2026-04-19T10:55:02Z</time></trkpt><trkpt lat="43.953608752428096" lon="12.085764466382388"><ele>549.5</ele><time>2026-04-19T10:55:03Z</time></trkpt><trkpt lat="43.95351268479915" lon="12.08561753783921"><ele>548.0</ele><time>2026-04-19T10:55:04Z</time></trkpt><trkpt lat="43.95344010858993" lon="12.085437210162436"><ele>546.5</ele><time>2026-04-19T10:55:05Z</time></trkpt><trkpt lat="43.95336333192091" lon="12.085272555051905"><ele>545.0</ele><time>2026-04-19T10:55:06Z</time></trkpt><trkpt lat="43.95326756248534" lon="12.085214067455077"><ele>545.0</ele><time>2026-04-19T10:55:07Z</time></trkpt><trkpt lat="43.95318645181541" lon="12.085208104631233"><ele>545.0</ele><time>2026-04-19T10:55:08Z</time></trkpt><trkpt lat="43.953062767270204" lon="12.08523639611633"><ele>545.0</ele><time>2026-04-19T10:55:09Z</time></trkpt><trkpt lat="43.952956731406665" lon="12.085297331854472"><ele>545.0</ele><time>2026-04-19T10:55:10Z</time></trkpt><trkpt lat="43.95288928236824" lon="12.085373006819795"><ele>545.0</ele><time>2026-04-19T10:55:11Z</time></trkpt><trkpt lat="43.952838787934624" lon="12.085455712147377"><ele>545.0</ele><time>2026-04-19T10:55:12Z</time></trkpt><trkpt lat="43.95278412072303" lon="12.08551056892234"><ele>545.0</ele><time>2026-04-19T10:55:13Z</time></trkpt><trkpt lat="43.952716749949204" lon="12.085509484946503"><ele>545.0</ele><time>2026-04-19T10:55:14Z</time></trkpt><trkpt lat="43.95264332490333" lon="12.085481304921847"><ele>545.0</ele><time>2026-04-19T10:55:15Z</time></trkpt><trkpt lat="43.95260111182207" lon="12.085364628972224"><ele>545.0</ele><time>2026-04-19T10:55:16Z</time></trkpt><trkpt lat="43.952537109927285" lon="12.085279092406335"><ele>545.0</ele><time>2026-04-19T10:55:17Z</time></trkpt><trkpt lat="43.952481675142145" lon="12.085189904906553"><ele>546.4</ele><time>2026-04-19T10:55:18Z</time></trkpt><trkpt lat="43.952440276625985" lon="12.085099697394936"><ele>547.8</ele><time>2026-04-19T10:55:19Z</time></trkpt><trkpt lat="43.95240097717326" lon="12.085008169793365"><ele>549.2</ele><time>2026-04-19T10:55:20Z</time></trkpt><trkpt lat="43.952366115422436" lon="12.084914888190594"><ele>550.6</ele><time>2026-04-19T10:55:21Z</time></trkpt><trkpt lat="43.95233188917446" lon="12.08475382649035"><ele>552.0</ele><time>2026-04-19T10:55:23Z</time></trkpt><trkpt lat="43.95228534205365" lon="12.084602446325441"><ele>552.0</ele><time>2026-04-19T10:55:25Z</time></trkpt><trkpt lat="43.952229309941885" lon="12.084551418876918"><ele>552.0</ele><time>2026-04-19T10:55:26Z</time></trkpt><trkpt lat="43.95214779166587" lon="12.084544237214066"><ele>552.0</ele><time>2026-04-19T10:55:27Z</time></trkpt><trkpt lat="43.95205505371727" lon="12.084502772138597"><ele>552.0</ele><time>2026-04-19T10:55:28Z</time></trkpt><trkpt lat="43.95195187560363" lon="12.084481909394391"><ele>552.0</ele><time>2026-04-19T10:55:29Z</time></trkpt><trkpt lat="43.95183521438545" lon="12.08446264005006"><ele>556.25</ele><time>2026-04-19T10:55:30Z</time></trkpt><trkpt lat="43.951700864645424" lon="12.08443394129341"><ele>560.5</ele><time>2026-04-19T10:55:31Z</time></trkpt><trkpt lat="43.95156300601863" lon="12.084395891362474"><ele>564.75</ele><time>2026-04-19T10:55:32Z</time></trkpt><trkpt lat="43.95142097219228" lon="12.084370210008847"><ele>569.0</ele><time>2026-04-19T10:55:33Z</time></trkpt><trkpt lat="43.95129261565915" lon="12.084288687457754"><ele>569.0</ele><time>2026-04-19T10:55:34Z</time></trkpt><trkpt lat="43.95117588588227" lon="12.08424161400101"><ele>569.0</ele><time>2026-04-19T10:55:35Z</time></trkpt><trkpt lat="43.95104817602641" lon="12.084271930875998"><ele>569.0</ele><time>2026-04-19T10:55:36Z</time></trkpt><trkpt lat="43.950904797801385" lon="12.084277776063859"><ele>569.0</ele><time>2026-04-19T10:55:37Z</time></trkpt><trkpt lat="43.95076929215355" lon="12.084222263767959"><ele>568.6666666666666</ele><time>2026-04-19T10:55:38Z</time></trkpt><trkpt lat="43.95063298730774" lon="12.084136987787694"><ele>568.3333333333334</ele><time>2026-04-19T10:55:39Z</time></trkpt><trkpt lat="43.950510043874125" lon="12.084025690648065"><ele>568.0</ele><time>2026-04-19T10:55:40Z</time></trkpt><trkpt lat="43.95036637564451" lon="12.083911147025677"><ele>568.0</ele><time>2026-04-19T10:55:41Z</time></trkpt><trkpt lat="43.95021847536245" lon="12.083790160892729"><ele>568.0</ele><time>2026-04-19T10:55:42Z</time></trkpt><trkpt lat="43.95008236514484" lon="12.083691444826181"><ele>568.0</ele><time>2026-04-19T10:55:43Z</time></trkpt><trkpt lat="43.949936245926814" lon="12.083613937817978"><ele>579.0</ele><time>2026-04-19T10:55:44Z</time></trkpt><trkpt lat="43.94978689963161" lon="12.083539816246399"><ele>590.0</ele><time>2026-04-19T10:55:45Z</time></trkpt><trkpt lat="43.9496211719552" lon="12.083489868958571"><ele>601.0</ele><time>2026-04-19T10:55:46Z</time></trkpt><trkpt lat="43.94945921193662" lon="12.083491479700484"><ele>601.0</ele><time>2026-04-19T10:55:47Z</time></trkpt><trkpt lat="43.94932416434155" lon="12.083510557445974"><ele>601.0</ele><time>2026-04-19T10:55:48Z</time></trkpt><trkpt lat="43.94921494903713" lon="12.083618579059653"><ele>601.0</ele><time>2026-04-19T10:55:49Z</time></trkpt><trkpt lat="43.949122672937" lon="12.083726731326244"><ele>601.0</ele><time>2026-04-19T10:55:50Z</time></trkpt><trkpt lat="43.94900635012913" lon="12.083700435181422"><ele>604.0</ele><time>2026-04-19T10:55:51Z</time></trkpt><trkpt lat="43.948901281878115" lon="12.083650632271306"><ele>607.0</ele><time>2026-04-19T10:55:52Z</time></trkpt><trkpt lat="43.948829719723925" lon="12.083576554019661"><ele>610.0</ele><time>2026-04-19T10:55:53Z</time></trkpt><trkpt lat="43.94889716758189" lon="12.08347618282715"><ele>613.0</ele><time>2026-04-19T10:55:55Z</time></trkpt><trkpt lat="43.948947405050866" lon="12.083397962017571"><ele>616.0</ele><time>2026-04-19T10:55:56Z</time></trkpt><trkpt lat="43.94900873522048" lon="12.083253654040105"><ele>616.0</ele><time>2026-04-19T10:55:57Z</time></trkpt><trkpt lat="43.94905155263344" lon="12.083094829321707"><ele>616.0</ele><time>2026-04-19T10:55:58Z</time></trkpt><trkpt lat="43.94907180722266" lon="12.08291767015681"><ele>616.0</ele><time>2026-04-19T10:55:59Z</time></trkpt><trkpt lat="43.94906895042045" lon="12.082730111894408"><ele>616.0</ele><time>2026-04-19T10:56:00Z</time></trkpt><trkpt lat="43.94903274721254" lon="12.082547209001905"><ele>617.0</ele><time>2026-04-19T10:56:01Z</time></trkpt><trkpt lat="43.94901021722438" lon="12.082363135417921"><ele>618.0</ele><time>2026-04-19T10:56:02Z</time></trkpt><trkpt lat="43.94893652813986" lon="12.082208952201402"><ele>619.0</ele><time>2026-04-19T10:56:03Z</time></trkpt><trkpt lat="43.94882296528459" lon="12.082117536597844"><ele>620.0</ele><time>2026-04-19T10:56:04Z</time></trkpt><trkpt lat="43.94870625927311" lon="12.08204151546045"><ele>620.0</ele><time>2026-04-19T10:56:05Z</time></trkpt><trkpt lat="43.94862127828218" lon="12.081973074325694"><ele>620.0</ele><time>2026-04-19T10:56:06Z</time></trkpt><trkpt lat="43.94861398121778" lon="12.08183368330895"><ele>620.0</ele><time>2026-04-19T10:56:07Z</time></trkpt><trkpt lat="43.94860847321769" lon="12.081654523911363"><ele>620.0</ele><time>2026-04-19T10:56:08Z</time></trkpt><trkpt lat="43.94855907141017" lon="12.081464274175312"><ele>617.0</ele><time>2026-04-19T10:56:09Z</time></trkpt><trkpt lat="43.948477630597" lon="12.081308824057407"><ele>614.0</ele><time>2026-04-19T10:56:10Z</time></trkpt><trkpt lat="43.94839165427153" lon="12.081174756370624"><ele>611.0</ele><time>2026-04-19T10:56:11Z</time></trkpt><trkpt lat="43.94831674741282" lon="12.081041361080107"><ele>608.0</ele><time>2026-04-19T10:56:12Z</time></trkpt><trkpt lat="43.94829475560543" lon="12.08091089204773"><ele>606.0</ele><time>2026-04-19T10:56:13Z</time></trkpt><trkpt lat="43.94827421110409" lon="12.080747639092486"><ele>604.0</ele><time>2026-04-19T10:56:14Z</time></trkpt><trkpt lat="43.94824702574752" lon="12.080578664054432"><ele>602.0</ele><time>2026-04-19T10:56:15Z</time></trkpt><trkpt lat="43.94819878600088" lon="12.080458837211683"><ele>600.0</ele><time>2026-04-19T10:56:16Z</time></trkpt><trkpt lat="43.94815438202273" lon="12.080567439700589"><ele>598.0</ele><time>2026-04-19T10:56:20Z</time></trkpt><trkpt lat="43.94815297655672" lon="12.08066709872561"><ele>599.3333333333334</ele><time>2026-04-19T10:56:21Z</time></trkpt><trkpt lat="43.948149744737904" lon="12.080778421982384"><ele>600.6666666666667</ele><time>2026-04-19T10:56:22Z</time></trkpt><trkpt lat="43.9481325733864" lon="12.080890036750608"><ele>602.0</ele><time>2026-04-19T10:56:23Z</time></trkpt><trkpt lat="43.948119706959965" lon="12.08100352728104"><ele>603.3333333333334</ele><time>2026-04-19T10:56:24Z</time></trkpt><trkpt lat="43.94813516278691" lon="12.081132215322432"><ele>604.6666666666666</ele><time>2026-04-19T10:56:25Z</time></trkpt><trkpt lat="43.948161990515025" lon="12.081280895706668"><ele>606.0</ele><time>2026-04-19T10:56:26Z</time></trkpt><trkpt lat="43.94820745766578" lon="12.081404809337249"><ele>606.0</ele><time>2026-04-19T10:56:27Z</time></trkpt><trkpt lat="43.94825938541612" lon="12.081554887485655"><ele>606.0</ele><time>2026-04-19T10:56:28Z</time></trkpt><trkpt lat="43.9482595515466" lon="12.081708595098037"><ele>606.0</ele><time>2026-04-19T10:56:29Z</time></trkpt><trkpt lat="43.94823424449655" lon="12.081858699465668"><ele>606.0</ele><time>2026-04-19T10:56:30Z</time></trkpt><trkpt lat="43.94815974686257" lon="12.081952535291597"><ele>606.0</ele><time>2026-04-19T10:56:31Z</time></trkpt><trkpt lat="43.94807995786858" lon="12.082055365216977"><ele>604.4</ele><time>2026-04-19T10:56:32Z</time></trkpt><trkpt lat="43.948002585422415" lon="12.08213695722045"><ele>602.8</ele><time>2026-04-19T10:56:33Z</time></trkpt><trkpt lat="43.94799594508637" lon="12.082242017029653"><ele>601.1999999999999</ele><time>2026-04-19T10:56:34Z</time></trkpt><trkpt lat="43.94800458282336" lon="12.082354598008296"><ele>599.6</ele><time>2026-04-19T10:56:35Z</time></trkpt><trkpt lat="43.94811665966761" lon="12.08247315307551"><ele>598.0</ele><time>2026-04-19T10:56:36Z</time></trkpt><trkpt lat="43.94820866171312" lon="12.08257169631656"><ele>595.1999999999999</ele><time>2026-04-19T10:56:37Z</time></trkpt><trkpt lat="43.948276232377545" lon="12.082675462115432"><ele>592.4</ele><time>2026-04-19T10:56:38Z</time></trkpt><trkpt lat="43.94825681737784" lon="12.08282614752503"><ele>589.5999999999999</ele><time>2026-04-19T10:56:39Z</time></trkpt><trkpt lat="43.948231920548295" lon="12.082959094981366"><ele>586.8</ele><time>2026-04-19T10:56:40Z</time></trkpt><trkpt lat="43.94818392693977" lon="12.083071707637673"><ele>584.0</ele><time>2026-04-19T10:56:41Z</time></trkpt><trkpt lat="43.94812004890452" lon="12.083175053081607"><ele>584.8333333333333</ele><time>2026-04-19T10:56:42Z</time></trkpt><trkpt lat="43.94803977941755" lon="12.083276695472232"><ele>585.6666666666666</ele><time>2026-04-19T10:56:43Z</time></trkpt><trkpt lat="43.94796192974425" lon="12.083351382619659"><ele>586.5</ele><time>2026-04-19T10:56:44Z</time></trkpt><trkpt lat="43.94788044452421" lon="12.083408554688233"><ele>587.3333333333334</ele><time>2026-04-19T10:56:45Z</time></trkpt><trkpt lat="43.9478059530541" lon="12.08342183631904"><ele>588.1666666666667</ele><time>2026-04-19T10:56:46Z</time></trkpt><trkpt lat="43.94773507040127" lon="12.083414256335644"><ele>589.0</ele><time>2026-04-19T10:56:47Z</time></trkpt><trkpt lat="43.94766516693177" lon="12.08340464998297"><ele>589.0</ele><time>2026-04-19T10:56:48Z</time></trkpt><trkpt lat="43.94759702122233" lon="12.08341751383341"><ele>589.0</ele><time>2026-04-19T10:56:49Z</time></trkpt><trkpt lat="43.94752376408601" lon="12.08341852539291"><ele>589.0</ele><time>2026-04-19T10:56:50Z</time></trkpt><trkpt lat="43.94745813689472" lon="12.08344836411384"><ele>589.0</ele><time>2026-04-19T10:56:51Z</time></trkpt><trkpt lat="43.947402145692806" lon="12.083509764671085"><ele>589.0</ele><time>2026-04-19T10:56:52Z</time></trkpt><trkpt lat="43.947366808382505" lon="12.083596286731737"><ele>589.0</ele><time>2026-04-19T10:56:53Z</time></trkpt><trkpt lat="43.94734828250367" lon="12.083711838333539"><ele>589.0</ele><time>2026-04-19T10:56:54Z</time></trkpt><trkpt lat="43.94734904195099" lon="12.08383478973351"><ele>584.8333333333334</ele><time>2026-04-19T10:56:55Z</time></trkpt><trkpt lat="43.94735030665647" lon="12.083944699540812"><ele>580.6666666666667</ele><time>2026-04-19T10:56:56Z</time></trkpt><trkpt lat="43.947352187394756" lon="12.084036700876048"><ele>576.5</ele><time>2026-04-19T10:56:57Z</time></trkpt><trkpt lat="43.947346682682856" lon="12.08412482715636"><ele>572.3333333333334</ele><time>2026-04-19T10:56:59Z</time></trkpt><trkpt lat="43.94726458457898" lon="12.084130660318193"><ele>568.1666666666666</ele><time>2026-04-19T10:57:01Z</time></trkpt><trkpt lat="43.947168311569804" lon="12.084178188686895"><ele>564.0</ele><time>2026-04-19T10:57:03Z</time></trkpt><trkpt lat="43.94709543074548" lon="12.084210078726679"><ele>563.5</ele><time>2026-04-19T10:57:04Z</time></trkpt><trkpt lat="43.94702224200764" lon="12.084256775762588"><ele>563.0</ele><time>2026-04-19T10:57:05Z</time></trkpt><trkpt lat="43.94694937249627" lon="12.084287000962565"><ele>562.5</ele><time>2026-04-19T10:57:06Z</time></trkpt><trkpt lat="43.946873875467524" lon="12.084281611553891"><ele>562.0</ele><time>2026-04-19T10:57:07Z</time></trkpt><trkpt lat="43.946791520856046" lon="12.084279966811902"><ele>561.5</ele><time>2026-04-19T10:57:08Z</time></trkpt><trkpt lat="43.94670187515142" lon="12.084262366482147"><ele>561.0</ele><time>2026-04-19T10:57:09Z</time></trkpt><trkpt lat="43.946598026162825" lon="12.08424504279552"><ele>556.0</ele><time>2026-04-19T10:57:10Z</time></trkpt><trkpt lat="43.94650940717233" lon="12.084285147926543"><ele>551.0</ele><time>2026-04-19T10:57:11Z</time></trkpt><trkpt lat="43.94642253676324" lon="12.084327813645464"><ele>546.0</ele><time>2026-04-19T10:57:12Z</time></trkpt><trkpt lat="43.94635257517013" lon="12.084414574112603"><ele>541.0</ele><time>2026-04-19T10:57:13Z</time></trkpt><trkpt lat="43.94627615850061" lon="12.084471953759394"><ele>536.0</ele><time>2026-04-19T10:57:14Z</time></trkpt><trkpt lat="43.94618485997528" lon="12.084499275998924"><ele>536.0</ele><time>2026-04-19T10:57:15Z</time></trkpt><trkpt lat="43.94608203501562" lon="12.08451369811574"><ele>536.0</ele><time>2026-04-19T10:57:16Z</time></trkpt><trkpt lat="43.94598257160247" lon="12.084553403310238"><ele>536.0</ele><time>2026-04-19T10:57:17Z</time></trkpt><trkpt lat="43.94589508260182" lon="12.084625123052447"><ele>536.0</ele><time>2026-04-19T10:57:18Z</time></trkpt><trkpt lat="43.94581401957973" lon="12.084701952830944"><ele>536.0</ele><time>2026-04-19T10:57:19Z</time></trkpt><trkpt lat="43.94571715567173" lon="12.084767120837446"><ele>533.0</ele><time>2026-04-19T10:57:20Z</time></trkpt><trkpt lat="43.945634473078904" lon="12.08486334593596"><ele>530.0</ele><time>2026-04-19T10:57:21Z</time></trkpt><trkpt lat="43.94554848336575" lon="12.084944633805573"><ele>527.0</ele><time>2026-04-19T10:57:22Z</time></trkpt><trkpt lat="43.945458359058584" lon="12.085020946275103"><ele>524.0</ele><time>2026-04-19T10:57:23Z</time></trkpt><trkpt lat="43.94541004208459" lon="12.085159052608892"><ele>521.0</ele><time>2026-04-19T10:57:24Z</time></trkpt><trkpt lat="43.9453202654758" lon="12.085246010228193"><ele>519.2</ele><time>2026-04-19T10:57:25Z</time></trkpt><trkpt lat="43.945235489073575" lon="12.085331409205079"><ele>517.4000000000001</ele><time>2026-04-19T10:57:26Z</time></trkpt><trkpt lat="43.945144432215194" lon="12.085429782986825"><ele>515.6</ele><time>2026-04-19T10:57:27Z</time></trkpt><trkpt lat="43.945051921776276" lon="12.085502726165547"><ele>513.8000000000001</ele><time>2026-04-19T10:57:28Z</time></trkpt><trkpt lat="43.9449618898522" lon="12.0855990370977"><ele>512.0</ele><time>2026-04-19T10:57:29Z</time></trkpt><trkpt lat="43.944874067412634" lon="12.085698562306733"><ele>507.8</ele><time>2026-04-19T10:57:30Z</time></trkpt><trkpt lat="43.94478038330932" lon="12.0858048300058"><ele>503.6</ele><time>2026-04-19T10:57:31Z</time></trkpt><trkpt lat="43.944676064555594" lon="12.085877168507977"><ele>499.40000000000003</ele><time>2026-04-19T10:57:32Z</time></trkpt><trkpt lat="43.94459512662137" lon="12.085971557502436"><ele>495.20000000000005</ele><time>2026-04-19T10:57:33Z</time></trkpt><trkpt lat="43.94450559503406" lon="12.086028568931875"><ele>491.0</ele><time>2026-04-19T10:57:34Z</time></trkpt><trkpt lat="43.94445244537503" lon="12.086124840961332"><ele>491.0</ele><time>2026-04-19T10:57:35Z</time></trkpt><trkpt lat="43.944391407093605" lon="12.086204447655888"><ele>491.0</ele><time>2026-04-19T10:57:36Z</time></trkpt><trkpt lat="43.944369668120444" lon="12.086352146827199"><ele>491.0</ele><time>2026-04-19T10:57:37Z</time></trkpt><trkpt lat="43.944294308019565" lon="12.086423560883011"><ele>491.0</ele><time>2026-04-19T10:57:38Z</time></trkpt><trkpt lat="43.94422400213745" lon="12.086483964517848"><ele>491.0</ele><time>2026-04-19T10:57:39Z</time></trkpt><trkpt lat="43.94414766365679" lon="12.08654737606155"><ele>489.66666666666663</ele><time>2026-04-19T10:57:40Z</time></trkpt><trkpt lat="43.944053377750436" lon="12.086621324062541"><ele>488.3333333333333</ele><time>2026-04-19T10:57:41Z</time></trkpt><trkpt lat="43.94396379556138" lon="12.086683718173598"><ele>487.0</ele><time>2026-04-19T10:57:42Z</time></trkpt><trkpt lat="43.94389106671179" lon="12.086730026646165"><ele>485.66666666666663</ele><time>2026-04-19T10:57:43Z</time></trkpt><trkpt lat="43.94382015372805" lon="12.086775179558868"><ele>484.3333333333333</ele><time>2026-04-19T10:57:44Z</time></trkpt><trkpt lat="43.943755315396864" lon="12.08681646293128"><ele>483.0</ele><time>2026-04-19T10:57:45Z</time></trkpt><trkpt lat="43.94369441590053" lon="12.086855243772176"><ele>483.0</ele><time>2026-04-19T10:57:46Z</time></trkpt><trkpt lat="43.94362885063012" lon="12.086896993006281"><ele>483.0</ele><time>2026-04-19T10:57:47Z</time></trkpt><trkpt lat="43.9433862088493" lon="12.086373771713031"><ele>482.1666666666667</ele><time>2026-04-19T10:57:48Z</time></trkpt><trkpt lat="43.94329447188878" lon="12.086367158185098"><ele>481.33333333333337</ele><time>2026-04-19T10:57:49Z</time></trkpt><trkpt lat="43.943221219713436" lon="12.0863756979553"><ele>480.5</ele><time>2026-04-19T10:57:50Z</time></trkpt><trkpt lat="43.943143117511006" lon="12.08638642335719"><ele>479.6666666666667</ele><time>2026-04-19T10:57:51Z</time></trkpt><trkpt lat="43.94305872466388" lon="12.086406645414892"><ele>478.83333333333337</ele><time>2026-04-19T10:57:52Z</time></trkpt><trkpt lat="43.94298065354269" lon="12.086390242328998"><ele>478.0</ele><time>2026-04-19T10:57:53Z</time></trkpt><trkpt lat="43.94290408698086" lon="12.08636527534725"><ele>478.00000000000006</ele><time>2026-04-19T10:57:54Z</time></trkpt><trkpt lat="43.94283062705437" lon="12.086334896536357"><ele>478.0</ele><time>2026-04-19T10:57:55Z</time></trkpt><trkpt lat="43.94275002130413" lon="12.08630988590921"><ele>478.0</ele><time>2026-04-19T10:57:56Z</time></trkpt><trkpt lat="43.94267543355949" lon="12.08630441504288"><ele>478.0</ele><time>2026-04-19T10:57:57Z</time></trkpt><trkpt lat="43.94260198843825" lon="12.086307900029224"><ele>478.00000000000006</ele><time>2026-04-19T10:57:58Z</time></trkpt><trkpt lat="43.942484604933625" lon="12.086304067991252"><ele>478.0</ele><time>2026-04-19T10:58:00Z</time></trkpt><trkpt lat="43.94241306870291" lon="12.086267493308725"><ele>475.83333333333337</ele><time>2026-04-19T10:58:01Z</time></trkpt><trkpt lat="43.942339791617854" lon="12.08622130476494"><ele>473.6666666666667</ele><time>2026-04-19T10:58:02Z</time></trkpt><trkpt lat="43.942276492320524" lon="12.086172797303899"><ele>471.5</ele><time>2026-04-19T10:58:03Z</time></trkpt><trkpt lat="43.942213961746035" lon="12.086123728244566"><ele>469.33333333333337</ele><time>2026-04-19T10:58:04Z</time></trkpt><trkpt lat="43.94214332683752" lon="12.086097487541032"><ele>467.1666666666667</ele><time>2026-04-19T10:58:05Z</time></trkpt><trkpt lat="43.94206768385266" lon="12.086074871134654"><ele>465.0</ele><time>2026-04-19T10:58:06Z</time></trkpt><trkpt lat="43.941989001894264" lon="12.086032169720324"><ele>465.0</ele><time>2026-04-19T10:58:07Z</time></trkpt><trkpt lat="43.94191684220104" lon="12.086000231921155"><ele>465.0</ele><time>2026-04-19T10:58:08Z</time></trkpt><trkpt lat="43.94185153856201" lon="12.085996373055783"><ele>465.0</ele><time>2026-04-19T10:58:09Z</time></trkpt><trkpt lat="43.94178504805222" lon="12.08602072930528"><ele>465.0</ele><time>2026-04-19T10:58:10Z</time></trkpt><trkpt lat="43.941718820653044" lon="12.086063078754323"><ele>465.0</ele><time>2026-04-19T10:58:11Z</time></trkpt><trkpt lat="43.94165025242903" lon="12.086122749237822"><ele>465.0</ele><time>2026-04-19T10:58:12Z</time></trkpt><trkpt lat="43.94158203694802" lon="12.086184069680899"><ele>465.0</ele><time>2026-04-19T10:58:13Z</time></trkpt><trkpt lat="43.94152111660998" lon="12.086210728279175"><ele>463.85714285714283</ele><time>2026-04-19T10:58:14Z</time></trkpt><trkpt lat="43.94145935105743" lon="12.08626101694672"><ele>462.7142857142858</ele><time>2026-04-19T10:58:15Z</time></trkpt><trkpt lat="43.94140037559499" lon="12.086322461282284"><ele>461.5714285714286</ele><time>2026-04-19T10:58:16Z</time></trkpt><trkpt lat="43.94134441662488" lon="12.086363723584935"><ele>460.42857142857144</ele><time>2026-04-19T10:58:17Z</time></trkpt><trkpt lat="43.94129375473132" lon="12.086419821503041"><ele>459.28571428571433</ele><time>2026-04-19T10:58:18Z</time></trkpt><trkpt lat="43.94123877341127" lon="12.086481391489892"><ele>458.1428571428572</ele><time>2026-04-19T10:58:19Z</time></trkpt><trkpt lat="43.94117827159629" lon="12.08653625404026"><ele>457.00000000000006</ele><time>2026-04-19T10:58:20Z</time></trkpt><trkpt lat="43.941109918186356" lon="12.086593377158973"><ele>455.50000000000006</ele><time>2026-04-19T10:58:21Z</time></trkpt><trkpt lat="43.94105356756916" lon="12.086653563872035"><ele>454.0</ele><time>2026-04-19T10:58:22Z</time></trkpt><trkpt lat="43.940998089192945" lon="12.086747690528112"><ele>452.5</ele><time>2026-04-19T10:58:23Z</time></trkpt><trkpt lat="43.94096134271078" lon="12.086852900916494"><ele>451.0</ele><time>2026-04-19T10:58:24Z</time></trkpt><trkpt lat="43.940932673080376" lon="12.086944412609434"><ele>449.50000000000006</ele><time>2026-04-19T10:58:25Z</time></trkpt><trkpt lat="43.94087549875588" lon="12.0870007073738"><ele>448.0</ele><time>2026-04-19T10:58:26Z</time></trkpt><trkpt lat="43.940787655092976" lon="12.08704215233035"><ele>446.00000000000006</ele><time>2026-04-19T10:58:27Z</time></trkpt><trkpt lat="43.94069417575567" lon="12.087096892618815"><ele>444.0</ele><time>2026-04-19T10:58:28Z</time></trkpt><trkpt lat="43.94062248266612" lon="12.087148358525342"><ele>442.0</ele><time>2026-04-19T10:58:29Z</time></trkpt><trkpt lat="43.940555382326274" lon="12.08719238188086"><ele>440.0</ele><time>2026-04-19T10:58:30Z</time></trkpt><trkpt lat="43.940469511351516" lon="12.087258933486265"><ele>438.00000000000006</ele><time>2026-04-19T10:58:32Z</time></trkpt><trkpt lat="43.940516758842264" lon="12.087341665505887"><ele>436.0</ele><time>2026-04-19T10:58:34Z</time></trkpt><trkpt lat="43.940577915045324" lon="12.087365684660863"><ele>436.0</ele><time>2026-04-19T10:58:35Z</time></trkpt><trkpt lat="43.940643232037935" lon="12.087364371788587"><ele>436.0</ele><time>2026-04-19T10:58:36Z</time></trkpt><trkpt lat="43.940726654896714" lon="12.08733850011668"><ele>436.0</ele><time>2026-04-19T10:58:37Z</time></trkpt><trkpt lat="43.94081323188574" lon="12.087312736573104"><ele>436.0</ele><time>2026-04-19T10:58:38Z</time></trkpt><trkpt lat="43.940888854321436" lon="12.087286482187471"><ele>436.0</ele><time>2026-04-19T10:58:39Z</time></trkpt><trkpt lat="43.940950276383305" lon="12.087262098081403"><ele>436.0</ele><time>2026-04-19T10:58:40Z</time></trkpt><trkpt lat="43.941017535266695" lon="12.087245475144849"><ele>436.0</ele><time>2026-04-19T10:58:41Z</time></trkpt><trkpt lat="43.941086000807694" lon="12.087229333433486"><ele>438.00000000000006</ele><time>2026-04-19T10:58:42Z</time></trkpt><trkpt lat="43.94114972212166" lon="12.087242595782977"><ele>440.0</ele><time>2026-04-19T10:58:43Z</time></trkpt><trkpt lat="43.94119639897059" lon="12.087372162055576"><ele>442.0</ele><time>2026-04-19T10:58:45Z</time></trkpt><trkpt lat="43.9411483239659" lon="12.08743821043783"><ele>444.0</ele><time>2026-04-19T10:58:46Z</time></trkpt><trkpt lat="43.94107427351211" lon="12.087553409464064"><ele>446.00000000000006</ele><time>2026-04-19T10:58:47Z</time></trkpt><trkpt lat="43.94101186419013" lon="12.087622710207247"><ele>448.0</ele><time>2026-04-19T10:58:48Z</time></trkpt><trkpt lat="43.94095886879572" lon="12.08768341623306"><ele>443.7142857142857</ele><time>2026-04-19T10:58:49Z</time></trkpt><trkpt lat="43.9409061025361" lon="12.087734068724588"><ele>439.42857142857144</ele><time>2026-04-19T10:58:50Z</time></trkpt><trkpt lat="43.94084603464586" lon="12.08779290582228"><ele>435.1428571428571</ele><time>2026-04-19T10:58:51Z</time></trkpt><trkpt lat="43.940779946156425" lon="12.087819180736147"><ele>430.8571428571429</ele><time>2026-04-19T10:58:52Z</time></trkpt><trkpt lat="43.940715441294586" lon="12.087806292445851"><ele>426.57142857142856</ele><time>2026-04-19T10:58:53Z</time></trkpt><trkpt lat="43.94065475620487" lon="12.087747043845273"><ele>422.2857142857143</ele><time>2026-04-19T10:58:54Z</time></trkpt><trkpt lat="43.9405854334852" lon="12.08769624904205"><ele>418.0</ele><time>2026-04-19T10:58:55Z</time></trkpt><trkpt lat="43.940524799690095" lon="12.087665405608284"><ele>418.00000000000006</ele><time>2026-04-19T10:58:56Z</time></trkpt><trkpt lat="43.94045840064081" lon="12.087669489134914"><ele>418.0</ele><time>2026-04-19T10:58:57Z</time></trkpt><trkpt lat="43.940396981365915" lon="12.08771384386013"><ele>418.0</ele><time>2026-04-19T10:58:58Z</time></trkpt><trkpt lat="43.940321420944365" lon="12.08780431727298"><ele>418.0</ele><time>2026-04-19T10:58:59Z</time></trkpt><trkpt lat="43.94024767283352" lon="12.087908341252733"><ele>418.00000000000006</ele><time>2026-04-19T10:59:00Z</time></trkpt><trkpt lat="43.9401511417229" lon="12.0878585875727"><ele>418.0</ele><time>2026-04-19T10:59:02Z</time></trkpt><trkpt lat="43.94010831673097" lon="12.087746251052883"><ele>417.50000000000006</ele><time>2026-04-19T10:59:03Z</time></trkpt><trkpt lat="43.94001982812633" lon="12.087703366498607"><ele>417.0</ele><time>2026-04-19T10:59:05Z</time></trkpt><trkpt lat="43.939929904654214" lon="12.08777297571721"><ele>416.5</ele><time>2026-04-19T10:59:07Z</time></trkpt><trkpt lat="43.93985852251476" lon="12.087867060567456"><ele>416.0</ele><time>2026-04-19T10:59:09Z</time></trkpt><trkpt lat="43.93980574499667" lon="12.087919436156183"><ele>415.50000000000006</ele><time>2026-04-19T10:59:10Z</time></trkpt><trkpt lat="43.93975341103663" lon="12.087985348446184"><ele>415.0</ele><time>2026-04-19T10:59:11Z</time></trkpt><trkpt lat="43.93973565766677" lon="12.088071803534918"><ele>415.0</ele><time>2026-04-19T10:59:12Z</time></trkpt><trkpt lat="43.939745905470524" lon="12.088168323587809"><ele>415.0</ele><time>2026-04-19T10:59:13Z</time></trkpt><trkpt lat="43.93978817518022" lon="12.08829007619954"><ele>415.0</ele><time>2026-04-19T10:59:14Z</time></trkpt><trkpt lat="43.939837255801976" lon="12.088437876095552"><ele>415.0</ele><time>2026-04-19T10:59:15Z</time></trkpt><trkpt lat="43.93988409861017" lon="12.088593129777903"><ele>415.0</ele><time>2026-04-19T10:59:16Z</time></trkpt><trkpt lat="43.93991200913238" lon="12.088738247308354"><ele>417.2</ele><time>2026-04-19T10:59:17Z</time></trkpt><trkpt lat="43.93994305644912" lon="12.088898134332368"><ele>419.4</ele><time>2026-04-19T10:59:18Z</time></trkpt><trkpt lat="43.939983626442896" lon="12.089054687111021"><ele>421.6</ele><time>2026-04-19T10:59:19Z</time></trkpt><trkpt lat="43.94000825440993" lon="12.089184146992702"><ele>423.8</ele><time>2026-04-19T10:59:20Z</time></trkpt><trkpt lat="43.94000865474614" lon="12.089302257638137"><ele>426.0</ele><time>2026-04-19T10:59:21Z</time></trkpt><trkpt lat="43.9399769717326" lon="12.089409758748408"><ele>429.5</ele><time>2026-04-19T10:59:22Z</time></trkpt><trkpt lat="43.939911150026646" lon="12.089523451338168"><ele>433.0</ele><time>2026-04-19T10:59:23Z</time></trkpt><trkpt lat="43.93983284349061" lon="12.089669936983064"><ele>436.5</ele><time>2026-04-19T10:59:24Z</time></trkpt><trkpt lat="43.93975287491327" lon="12.089794063904773"><ele>440.0</ele><time>2026-04-19T10:59:25Z</time></trkpt><trkpt lat="43.93964704016411" lon="12.089914962618309"><ele>442.0</ele><time>2026-04-19T10:59:26Z</time></trkpt><trkpt lat="43.93952535295534" lon="12.09006476037913"><ele>444.0</ele><time>2026-04-19T10:59:27Z</time></trkpt><trkpt lat="43.93938935941728" lon="12.090260237977423"><ele>446.0</ele><time>2026-04-19T10:59:28Z</time></trkpt><trkpt lat="43.939281408507426" lon="12.090437987617333"><ele>454.25</ele><time>2026-04-19T10:59:29Z</time></trkpt><trkpt lat="43.939205512287806" lon="12.090619040715108"><ele>462.5</ele><time>2026-04-19T10:59:30Z</time></trkpt><trkpt lat="43.939137614081915" lon="12.090782066014054"><ele>470.75</ele><time>2026-04-19T10:59:31Z</time></trkpt><trkpt lat="43.93907914133061" lon="12.090886367195942"><ele>479.0</ele><time>2026-04-19T10:59:32Z</time></trkpt><trkpt lat="43.93902224511643" lon="12.090945272499727"><ele>479.0</ele><time>2026-04-19T10:59:33Z</time></trkpt><trkpt lat="43.93894884336647" lon="12.091050175551652"><ele>479.0</ele><time>2026-04-19T10:59:34Z</time></trkpt><trkpt lat="43.938886477060116" lon="12.091159117158547"><ele>479.0</ele><time>2026-04-19T10:59:35Z</time></trkpt><trkpt lat="43.93884408514104" lon="12.091268928151518"><ele>479.0</ele><time>2026-04-19T10:59:36Z</time></trkpt><trkpt lat="43.938833518435594" lon="12.091397373554715"><ele>479.0</ele><time>2026-04-19T10:59:37Z</time></trkpt><trkpt lat="43.938845674332406" lon="12.091587574812241"><ele>477.99999999999994</ele><time>2026-04-19T10:59:38Z</time></trkpt><trkpt lat="43.938856535430794" lon="12.091680731706347"><ele>477.0</ele><time>2026-04-19T10:59:39Z</time></trkpt><trkpt lat="43.938838794475714" lon="12.091829945878104"><ele>476.0</ele><time>2026-04-19T10:59:40Z</time></trkpt><trkpt lat="43.93879476700764" lon="12.091919460464625"><ele>475.0</ele><time>2026-04-19T10:59:41Z</time></trkpt><trkpt lat="43.93872574830465" lon="12.091970503630838"><ele>473.99999999999994</ele><time>2026-04-19T10:59:42Z</time></trkpt><trkpt lat="43.93861267922786" lon="12.091977254472964"><ele>473.0</ele><time>2026-04-19T10:59:44Z</time></trkpt><trkpt lat="43.93855136560393" lon="12.092089347833971"><ele>472.99999999999994</ele><time>2026-04-19T10:59:46Z</time></trkpt><trkpt lat="43.93855184792123" lon="12.09220612536958"><ele>473.0</ele><time>2026-04-19T10:59:47Z</time></trkpt><trkpt lat="43.93853459922524" lon="12.092305233560799"><ele>473.0</ele><time>2026-04-19T10:59:48Z</time></trkpt><trkpt lat="43.938504243146234" lon="12.092405293304337"><ele>473.0</ele><time>2026-04-19T10:59:49Z</time></trkpt><trkpt lat="43.93850813313411" lon="12.092500952241814"><ele>472.99999999999994</ele><time>2026-04-19T10:59:50Z</time></trkpt><trkpt lat="43.93857779052159" lon="12.092550458034781"><ele>473.0</ele><time>2026-04-19T10:59:51Z</time></trkpt><trkpt lat="43.938659407214026" lon="12.09261131019719"><ele>474.8333333333333</ele><time>2026-04-19T10:59:52Z</time></trkpt><trkpt lat="43.93872351301755" lon="12.092669559352066"><ele>476.66666666666663</ele><time>2026-04-19T10:59:53Z</time></trkpt><trkpt lat="43.93875519528461" lon="12.092768068826468"><ele>478.5</ele><time>2026-04-19T10:59:54Z</time></trkpt><trkpt lat="43.93876985236278" lon="12.092912013824344"><ele>480.33333333333337</ele><time>2026-04-19T10:59:55Z</time></trkpt><trkpt lat="43.93877174942771" lon="12.093044068411771"><ele>482.1666666666667</ele><time>2026-04-19T10:59:56Z</time></trkpt><trkpt lat="43.93874390119777" lon="12.093158599544232"><ele>484.0</ele><time>2026-04-19T10:59:57Z</time></trkpt><trkpt lat="43.93872042441503" lon="12.093281020674581"><ele>486.79999999999995</ele><time>2026-04-19T10:59:58Z</time></trkpt><trkpt lat="43.93872001133473" lon="12.09343110274834"><ele>489.59999999999997</ele><time>2026-04-19T10:59:59Z</time></trkpt><trkpt lat="43.93875939159996" lon="12.093573896653266"><ele>492.4</ele><time>2026-04-19T11:00:00Z</time></trkpt><trkpt lat="43.93880163849906" lon="12.093665984091318"><ele>495.2</ele><time>2026-04-19T11:00:01Z</time></trkpt><trkpt lat="43.938826836721766" lon="12.093764242478166"><ele>498.0</ele><time>2026-04-19T11:00:02Z</time></trkpt><trkpt lat="43.93884505036153" lon="12.093878952649458"><ele>498.0</ele><time>2026-04-19T11:00:03Z</time></trkpt><trkpt lat="43.93886920824365" lon="12.094012637594647"><ele>498.0</ele><time>2026-04-19T11:00:04Z</time></trkpt><trkpt lat="43.938876987499775" lon="12.09414771533381"><ele>498.0</ele><time>2026-04-19T11:00:05Z</time></trkpt><trkpt lat="43.93886516294932" lon="12.094318708774958"><ele>498.0</ele><time>2026-04-19T11:00:06Z</time></trkpt><trkpt lat="43.93885327851576" lon="12.09451533271477"><ele>500.5</ele><time>2026-04-19T11:00:07Z</time></trkpt><trkpt lat="43.93885092634222" lon="12.094731983752428"><ele>503.0</ele><time>2026-04-19T11:00:08Z</time></trkpt><trkpt lat="43.938851909722864" lon="12.094912852263091"><ele>505.5</ele><time>2026-04-19T11:00:09Z</time></trkpt><trkpt lat="43.938860386290926" lon="12.095078801783725"><ele>508.0</ele><time>2026-04-19T11:00:10Z</time></trkpt><trkpt lat="43.93887277257044" lon="12.095225779077513"><ele>512.6</ele><time>2026-04-19T11:00:11Z</time></trkpt><trkpt lat="43.93887114023617" lon="12.095380613957975"><ele>517.1999999999999</ele><time>2026-04-19T11:00:12Z</time></trkpt><trkpt lat="43.93886069949624" lon="12.09552776536637"><ele>521.8</ele><time>2026-04-19T11:00:13Z</time></trkpt><trkpt lat="43.938835097872506" lon="12.09566567312341"><ele>526.4</ele><time>2026-04-19T11:00:14Z</time></trkpt><trkpt lat="43.938809993425" lon="12.09576831609012"><ele>531.0</ele><time>2026-04-19T11:00:15Z</time></trkpt><trkpt lat="43.93879387298856" lon="12.095861512135516"><ele>531.0</ele><time>2026-04-19T11:00:16Z</time></trkpt><trkpt lat="43.93878275562396" lon="12.09594868427953"><ele>531.0</ele><time>2026-04-19T11:00:17Z</time></trkpt><trkpt lat="43.93885719424889" lon="12.095996560344618"><ele>531.0</ele><time>2026-04-19T11:00:20Z</time></trkpt><trkpt lat="43.938956775944085" lon="12.09590775439075"><ele>531.0</ele><time>2026-04-19T11:00:22Z</time></trkpt><trkpt lat="43.93901145026171" lon="12.095840441773294"><ele>531.0</ele><time>2026-04-19T11:00:23Z</time></trkpt><trkpt lat="43.93907015780265" lon="12.095762592010521"><ele>531.0</ele><time>2026-04-19T11:00:26Z</time></trkpt><trkpt lat="43.93916041637693" lon="12.09567453786265"><ele>531.0</ele><time>2026-04-19T11:00:30Z</time></trkpt><trkpt lat="43.93919650046212" lon="12.095581831039583"><ele>531.0</ele><time>2026-04-19T11:00:32Z</time></trkpt><trkpt lat="43.93926874916309" lon="12.095583768668805"><ele>531.0</ele><time>2026-04-19T11:00:35Z</time></trkpt><trkpt lat="43.939306024964985" lon="12.095677849024433"><ele>531.0</ele><time>2026-04-19T11:00:40Z</time></trkpt><trkpt lat="43.93930522727563" lon="12.095837947285162"><ele>531.0</ele><time>2026-04-19T11:00:43Z</time></trkpt><trkpt lat="43.93931993115165" lon="12.095926940480293"><ele>531.0</ele><time>2026-04-19T11:00:46Z</time></trkpt><trkpt lat="43.93931602297412" lon="12.096080015292797"><ele>537.2</ele><time>2026-04-19T11:00:49Z</time></trkpt><trkpt lat="43.93932002907721" lon="12.096204766892749"><ele>543.4000000000001</ele><time>2026-04-19T11:00:52Z</time></trkpt><trkpt lat="43.93929490516602" lon="12.096339250547848"><ele>549.6</ele><time>2026-04-19T11:00:55Z</time></trkpt><trkpt lat="43.93925424637907" lon="12.096529534307145"><ele>555.8000000000001</ele><time>2026-04-19T11:00:58Z</time></trkpt><trkpt lat="43.93925422931223" lon="12.09662788494053"><ele>562.0</ele><time>2026-04-19T11:01:01Z</time></trkpt><trkpt lat="43.93920118117341" lon="12.09677777462426"><ele>563.8333333333334</ele><time>2026-04-19T11:01:03Z</time></trkpt><trkpt lat="43.939205854885124" lon="12.096867892400716"><ele>565.6666666666667</ele><time>2026-04-19T11:01:04Z</time></trkpt><trkpt lat="43.93919270012164" lon="12.096976779233975"><ele>567.5</ele><time>2026-04-19T11:01:06Z</time></trkpt><trkpt lat="43.93922917594511" lon="12.097060313266345"><ele>569.3333333333334</ele><time>2026-04-19T11:01:09Z</time></trkpt><trkpt lat="43.93921182234593" lon="12.097176272519826"><ele>571.1666666666666</ele><time>2026-04-19T11:01:12Z</time></trkpt><trkpt lat="43.939237320037286" lon="12.097297260957356"><ele>573.0</ele><time>2026-04-19T11:01:16Z</time></trkpt><trkpt lat="43.939242013873354" lon="12.097391841383837"><ele>576.6666666666666</ele><time>2026-04-19T11:01:39Z</time></trkpt><trkpt lat="43.939191899254496" lon="12.097481580577321"><ele>580.3333333333334</ele><time>2026-04-19T11:01:45Z</time></trkpt><trkpt lat="43.93914141633079" lon="12.097563572074714"><ele>584.0</ele><time>2026-04-19T11:01:47Z</time></trkpt><trkpt lat="43.93916296982936" lon="12.097656165951701"><ele>587.6666666666667</ele><time>2026-04-19T11:01:50Z</time></trkpt><trkpt lat="43.939237842177434" lon="12.097711001265447"><ele>591.3333333333334</ele><time>2026-04-19T11:01:53Z</time></trkpt><trkpt lat="43.93921434774678" lon="12.09781907947549"><ele>595.0</ele><time>2026-04-19T11:01:55Z</time></trkpt><trkpt lat="43.93914454062781" lon="12.097896787056376"><ele>595.0</ele><time>2026-04-19T11:01:58Z</time></trkpt><trkpt lat="43.93905329326982" lon="12.09790540249382"><ele>595.0</ele><time>2026-04-19T11:02:00Z</time></trkpt><trkpt lat="43.938988521576164" lon="12.097908353804742"><ele>595.0</ele><time>2026-04-19T11:02:02Z</time></trkpt><trkpt lat="43.93903810021648" lon="12.097994139578148"><ele>595.0</ele><time>2026-04-19T11:02:05Z</time></trkpt><trkpt lat="43.9391005546179" lon="12.098050004405609"><ele>595.0</ele><time>2026-04-19T11:02:08Z</time></trkpt><trkpt lat="43.93914281078032" lon="12.098178726190097"><ele>595.0</ele><time>2026-04-19T11:02:11Z</time></trkpt><trkpt lat="43.93913419608845" lon="12.098293830829023"><ele>597.8333333333334</ele><time>2026-04-19T11:02:14Z</time></trkpt><trkpt lat="43.93909568102882" lon="12.098395841944926"><ele>600.6666666666667</ele><time>2026-04-19T11:02:17Z</time></trkpt><trkpt lat="43.93913989700129" lon="12.098536832807"><ele>603.5</ele><time>2026-04-19T11:02:20Z</time></trkpt><trkpt lat="43.939196219658285" lon="12.098595275065227"><ele>606.3333333333334</ele><time>2026-04-19T11:02:21Z</time></trkpt><trkpt lat="43.939257492598976" lon="12.098665055083083"><ele>609.1666666666666</ele><time>2026-04-19T11:02:22Z</time></trkpt><trkpt lat="43.93933229524476" lon="12.09875142465914"><ele>612.0</ele><time>2026-04-19T11:02:23Z</time></trkpt><trkpt lat="43.93938248993757" lon="12.098875489127101"><ele>615.2</ele><time>2026-04-19T11:02:24Z</time></trkpt><trkpt lat="43.939419329356355" lon="12.099022374416434"><ele>618.4000000000001</ele><time>2026-04-19T11:02:25Z</time></trkpt><trkpt lat="43.93948146332279" lon="12.099176015736008"><ele>621.5999999999999</ele><time>2026-04-19T11:02:26Z</time></trkpt><trkpt lat="43.93952783714099" lon="12.099330386239837"><ele>624.8</ele><time>2026-04-19T11:02:27Z</time></trkpt><trkpt lat="43.93955901389235" lon="12.099438555053156"><ele>628.0</ele><time>2026-04-19T11:02:28Z</time></trkpt><trkpt lat="43.93961577418475" lon="12.099599323975186"><ele>628.0</ele><time>2026-04-19T11:02:29Z</time></trkpt><trkpt lat="43.939659023496226" lon="12.099725828959674"><ele>628.0</ele><time>2026-04-19T11:02:30Z</time></trkpt><trkpt lat="43.939720332115144" lon="12.099878533182556"><ele>628.0</ele><time>2026-04-19T11:02:31Z</time></trkpt><trkpt lat="43.93978308527737" lon="12.100012043048988"><ele>628.0</ele><time>2026-04-19T11:02:32Z</time></trkpt><trkpt lat="43.93982607215495" lon="12.100116051159935"><ele>628.0</ele><time>2026-04-19T11:02:33Z</time></trkpt><trkpt lat="43.93987003257973" lon="12.100249951930333"><ele>624.6</ele><time>2026-04-19T11:02:34Z</time></trkpt><trkpt lat="43.939893493668706" lon="12.100395186516204"><ele>621.1999999999999</ele><time>2026-04-19T11:02:35Z</time></trkpt><trkpt lat="43.93990883938009" lon="12.100522712057451"><ele>617.8</ele><time>2026-04-19T11:02:36Z</time></trkpt><trkpt lat="43.93992995482085" lon="12.100658180504276"><ele>614.4</ele><time>2026-04-19T11:02:37Z</time></trkpt><trkpt lat="43.93995617161738" lon="12.100779339665808"><ele>611.0</ele><time>2026-04-19T11:02:38Z</time></trkpt><trkpt lat="43.940014383282566" lon="12.100882021247202"><ele>609.6666666666666</ele><time>2026-04-19T11:02:39Z</time></trkpt><trkpt lat="43.9400652103183" lon="12.100979815480168"><ele>608.3333333333333</ele><time>2026-04-19T11:02:40Z</time></trkpt><trkpt lat="43.940097778134785" lon="12.101077995191845"><ele>607.0</ele><time>2026-04-19T11:02:41Z</time></trkpt><trkpt lat="43.94010676392494" lon="12.10118921907216"><ele>605.6666666666666</ele><time>2026-04-19T11:02:42Z</time></trkpt><trkpt lat="43.94008326516477" lon="12.10129069784661"><ele>604.3333333333334</ele><time>2026-04-19T11:02:43Z</time></trkpt><trkpt lat="43.94003834640734" lon="12.101397515666267"><ele>603.0</ele><time>2026-04-19T11:02:44Z</time></trkpt><trkpt lat="43.939993739239306" lon="12.101502035950277"><ele>601.8</ele><time>2026-04-19T11:02:45Z</time></trkpt><trkpt lat="43.93994337242975" lon="12.101608805429697"><ele>600.5999999999999</ele><time>2026-04-19T11:02:46Z</time></trkpt><trkpt lat="43.93993690214036" lon="12.101739920017591"><ele>599.4000000000001</ele><time>2026-04-19T11:02:47Z</time></trkpt><trkpt lat="43.93995034673413" lon="12.10186830448073"><ele>598.2</ele><time>2026-04-19T11:02:48Z</time></trkpt><trkpt lat="43.93998011982066" lon="12.101995756754476"><ele>597.0</ele><time>2026-04-19T11:02:49Z</time></trkpt><trkpt lat="43.9399935708166" lon="12.102126054084193"><ele>597.0</ele><time>2026-04-19T11:02:50Z</time></trkpt><trkpt lat="43.939982385106156" lon="12.102242923142837"><ele>597.0</ele><time>2026-04-19T11:02:51Z</time></trkpt><trkpt lat="43.93997318070079" lon="12.102362668168045"><ele>597.0</ele><time>2026-04-19T11:02:52Z</time></trkpt><trkpt lat="43.939948073189306" lon="12.10248127196634"><ele>597.0</ele><time>2026-04-19T11:02:53Z</time></trkpt><trkpt lat="43.93991937979951" lon="12.102601338554711"><ele>597.0</ele><time>2026-04-19T11:02:54Z</time></trkpt><trkpt lat="43.93991037980649" lon="12.102718717101045"><ele>597.0</ele><time>2026-04-19T11:02:55Z</time></trkpt><trkpt lat="43.93991367390458" lon="12.102856477313788"><ele>596.8000000000001</ele><time>2026-04-19T11:02:56Z</time></trkpt><trkpt lat="43.93989594374685" lon="12.102980171406752"><ele>596.6</ele><time>2026-04-19T11:02:57Z</time></trkpt><trkpt lat="43.939852397453926" lon="12.103101651449261"><ele>596.4000000000001</ele><time>2026-04-19T11:02:58Z</time></trkpt><trkpt lat="43.93981298831854" lon="12.103213491764741"><ele>596.2</ele><time>2026-04-19T11:02:59Z</time></trkpt><trkpt lat="43.93979044397488" lon="12.103315627080121"><ele>596.0</ele><time>2026-04-19T11:03:00Z</time></trkpt><trkpt lat="43.93984150750145" lon="12.103466769908358"><ele>595.3333333333333</ele><time>2026-04-19T11:03:02Z</time></trkpt><trkpt lat="43.93991750389074" lon="12.103526818567419"><ele>594.6666666666666</ele><time>2026-04-19T11:03:03Z</time></trkpt><trkpt lat="43.9399956049726" lon="12.10358240592059"><ele>594.0</ele><time>2026-04-19T11:03:04Z</time></trkpt><trkpt lat="43.94006177539306" lon="12.10363610509253"><ele>593.3333333333334</ele><time>2026-04-19T11:03:05Z</time></trkpt><trkpt lat="43.94012906396833" lon="12.103702582695332"><ele>592.6666666666667</ele><time>2026-04-19T11:03:06Z</time></trkpt><trkpt lat="43.9401742688823" lon="12.103792823637344"><ele>592.0</ele><time>2026-04-19T11:03:07Z</time></trkpt><trkpt lat="43.94019408847398" lon="12.103901736494288"><ele>592.0</ele><time>2026-04-19T11:03:08Z</time></trkpt><trkpt lat="43.94021222453167" lon="12.104015419653507"><ele>592.0</ele><time>2026-04-19T11:03:09Z</time></trkpt><trkpt lat="43.94024391316704" lon="12.104121535142301"><ele>592.0</ele><time>2026-04-19T11:03:10Z</time></trkpt><trkpt lat="43.94027915774111" lon="12.10422328420896"><ele>592.0</ele><time>2026-04-19T11:03:11Z</time></trkpt><trkpt lat="43.94031759816784" lon="12.104317033333272"><ele>592.0</ele><time>2026-04-19T11:03:12Z</time></trkpt><trkpt lat="43.940343347446735" lon="12.104418656078112"><ele>592.0</ele><time>2026-04-19T11:03:13Z</time></trkpt><trkpt lat="43.94035609581712" lon="12.104526043908637"><ele>588.8333333333334</ele><time>2026-04-19T11:03:14Z</time></trkpt><trkpt lat="43.9403694639825" lon="12.104637542267032"><ele>585.6666666666667</ele><time>2026-04-19T11:03:15Z</time></trkpt><trkpt lat="43.940377074547094" lon="12.104756179574304"><ele>582.5</ele><time>2026-04-19T11:03:16Z</time></trkpt><trkpt lat="43.940381672879006" lon="12.104877537307146"><ele>579.3333333333334</ele><time>2026-04-19T11:03:17Z</time></trkpt><trkpt lat="43.94039122156096" lon="12.105005645874828"><ele>576.1666666666666</ele><time>2026-04-19T11:03:18Z</time></trkpt><trkpt lat="43.940393179317155" lon="12.105129344674433"><ele>573.0</ele><time>2026-04-19T11:03:19Z</time></trkpt><trkpt lat="43.94038580314149" lon="12.10524519605391"><ele>572.8333333333334</ele><time>2026-04-19T11:03:20Z</time></trkpt><trkpt lat="43.940361129098456" lon="12.105360416860936"><ele>572.6666666666666</ele><time>2026-04-19T11:03:21Z</time></trkpt><trkpt lat="43.94033580941941" lon="12.105465463691171"><ele>572.5</ele><time>2026-04-19T11:03:22Z</time></trkpt><trkpt lat="43.94030754523486" lon="12.105570923643894"><ele>572.3333333333333</ele><time>2026-04-19T11:03:23Z</time></trkpt><trkpt lat="43.94026279148516" lon="12.10566941371139"><ele>572.1666666666666</ele><time>2026-04-19T11:03:24Z</time></trkpt><trkpt lat="43.9402089863646" lon="12.105771140498335"><ele>572.0</ele><time>2026-04-19T11:03:25Z</time></trkpt><trkpt lat="43.940158011588096" lon="12.105874718925504"><ele>572.0</ele><time>2026-04-19T11:03:26Z</time></trkpt><trkpt lat="43.94011524836602" lon="12.10598086889977"><ele>572.0</ele><time>2026-04-19T11:03:27Z</time></trkpt><trkpt lat="43.940075165273846" lon="12.106097952773233"><ele>572.0</ele><time>2026-04-19T11:03:28Z</time></trkpt><trkpt lat="43.94004684994352" lon="12.106215913883673"><ele>572.0</ele><time>2026-04-19T11:03:29Z</time></trkpt><trkpt lat="43.940025312542666" lon="12.106329964349529"><ele>572.0</ele><time>2026-04-19T11:03:30Z</time></trkpt><trkpt lat="43.94001520895796" lon="12.10644055007043"><ele>572.0</ele><time>2026-04-19T11:03:31Z</time></trkpt><trkpt lat="43.940024483972486" lon="12.106531147972973"><ele>573.0</ele><time>2026-04-19T11:03:32Z</time></trkpt><trkpt lat="43.94011089113701" lon="12.106619652603536"><ele>574.0</ele><time>2026-04-19T11:03:33Z</time></trkpt><trkpt lat="43.94014306535681" lon="12.106739281219747"><ele>575.0</ele><time>2026-04-19T11:03:34Z</time></trkpt><trkpt lat="43.940122121081075" lon="12.10688526685427"><ele>576.0</ele><time>2026-04-19T11:03:35Z</time></trkpt><trkpt lat="43.94010913930214" lon="12.107046888197427"><ele>577.0</ele><time>2026-04-19T11:03:36Z</time></trkpt><trkpt lat="43.940122613847706" lon="12.107199980928657"><ele>577.0</ele><time>2026-04-19T11:03:37Z</time></trkpt><trkpt lat="43.94017024700259" lon="12.107334121865305"><ele>577.0</ele><time>2026-04-19T11:03:38Z</time></trkpt><trkpt lat="43.94017100561665" lon="12.107475200903739"><ele>577.0</ele><time>2026-04-19T11:03:39Z</time></trkpt><trkpt lat="43.94017765212485" lon="12.107600815142742"><ele>577.0</ele><time>2026-04-19T11:03:40Z</time></trkpt><trkpt lat="43.94019469747046" lon="12.107720646422267"><ele>577.0</ele><time>2026-04-19T11:03:41Z</time></trkpt><trkpt lat="43.94022585496263" lon="12.107830272401003"><ele>574.2</ele><time>2026-04-19T11:03:42Z</time></trkpt><trkpt lat="43.94027872351264" lon="12.107936343359048"><ele>571.4000000000001</ele><time>2026-04-19T11:03:43Z</time></trkpt><trkpt lat="43.94033235645027" lon="12.108039524588456"><ele>568.5999999999999</ele><time>2026-04-19T11:03:44Z</time></trkpt><trkpt lat="43.940382718480265" lon="12.108147338472284"><ele>565.8</ele><time>2026-04-19T11:03:45Z</time></trkpt><trkpt lat="43.940436574888444" lon="12.10826990869774"><ele>563.0</ele><time>2026-04-19T11:03:46Z</time></trkpt><trkpt lat="43.94046352219569" lon="12.10838630221125"><ele>561.0</ele><time>2026-04-19T11:03:47Z</time></trkpt><trkpt lat="43.940460261943706" lon="12.108509397513822"><ele>559.0</ele><time>2026-04-19T11:03:48Z</time></trkpt><trkpt lat="43.940417210529716" lon="12.108639778507973"><ele>557.0</ele><time>2026-04-19T11:03:49Z</time></trkpt><trkpt lat="43.94037200688703" lon="12.108796549983035"><ele>555.0</ele><time>2026-04-19T11:03:50Z</time></trkpt><trkpt lat="43.940340722241764" lon="12.108928433620507"><ele>553.0</ele><time>2026-04-19T11:03:51Z</time></trkpt><trkpt lat="43.94033161304868" lon="12.109062821581004"><ele>553.8</ele><time>2026-04-19T11:03:52Z</time></trkpt><trkpt lat="43.940337775670244" lon="12.109198258198289"><ele>554.5999999999999</ele><time>2026-04-19T11:03:53Z</time></trkpt><trkpt lat="43.940380516794676" lon="12.10933818931977"><ele>555.4000000000001</ele><time>2026-04-19T11:03:54Z</time></trkpt><trkpt lat="43.94041629021284" lon="12.109480014281543"><ele>556.2</ele><time>2026-04-19T11:03:55Z</time></trkpt><trkpt lat="43.94043028872197" lon="12.109619028187105"><ele>557.0</ele><time>2026-04-19T11:03:56Z</time></trkpt><trkpt lat="43.940412373522605" lon="12.10976600133807"><ele>557.0</ele><time>2026-04-19T11:03:57Z</time></trkpt><trkpt lat="43.940366733880744" lon="12.109906460636653"><ele>557.0</ele><time>2026-04-19T11:03:58Z</time></trkpt><trkpt lat="43.94030523261039" lon="12.1100439207909"><ele>557.0</ele><time>2026-04-19T11:03:59Z</time></trkpt><trkpt lat="43.94020896046589" lon="12.110125880792536"><ele>557.0</ele><time>2026-04-19T11:04:00Z</time></trkpt><trkpt lat="43.94010615972397" lon="12.110250695801476"><ele>552.8000000000001</ele><time>2026-04-19T11:04:01Z</time></trkpt><trkpt lat="43.94004592781418" lon="12.110375145986781"><ele>548.6</ele><time>2026-04-19T11:04:02Z</time></trkpt><trkpt lat="43.940020111297805" lon="12.110499436333257"><ele>544.4000000000001</ele><time>2026-04-19T11:04:03Z</time></trkpt><trkpt lat="43.93999152995401" lon="12.110620875224432"><ele>540.2</ele><time>2026-04-19T11:04:04Z</time></trkpt><trkpt lat="43.94000601924428" lon="12.110747847674164"><ele>536.0</ele><time>2026-04-19T11:04:05Z</time></trkpt><trkpt lat="43.93999684172612" lon="12.110907789303223"><ele>536.0</ele><time>2026-04-19T11:04:06Z</time></trkpt><trkpt lat="43.939988029115966" lon="12.11106159063289"><ele>536.0</ele><time>2026-04-19T11:04:07Z</time></trkpt><trkpt lat="43.93995496997248" lon="12.11120488081634"><ele>536.0</ele><time>2026-04-19T11:04:08Z</time></trkpt><trkpt lat="43.939914279965464" lon="12.111364301191617"><ele>536.0</ele><time>2026-04-19T11:04:09Z</time></trkpt><trkpt lat="43.939877818255376" lon="12.111511701636013"><ele>535.75</ele><time>2026-04-19T11:04:10Z</time></trkpt><trkpt lat="43.93983396671695" lon="12.111659822889207"><ele>535.5</ele><time>2026-04-19T11:04:11Z</time></trkpt><trkpt lat="43.939788386679226" lon="12.111822644330738"><ele>535.25</ele><time>2026-04-19T11:04:12Z</time></trkpt><trkpt lat="43.93974452919654" lon="12.111971818999402"><ele>535.0</ele><time>2026-04-19T11:04:13Z</time></trkpt><trkpt lat="43.939696505044154" lon="12.112118273418258"><ele>535.0</ele><time>2026-04-19T11:04:14Z</time></trkpt><trkpt lat="43.93965515542732" lon="12.112266339433509"><ele>535.0</ele><time>2026-04-19T11:04:15Z</time></trkpt><trkpt lat="43.93961523183037" lon="12.112416970299408"><ele>535.0</ele><time>2026-04-19T11:04:16Z</time></trkpt><trkpt lat="43.939573170041704" lon="12.112570952456476"><ele>535.0</ele><time>2026-04-19T11:04:17Z</time></trkpt><trkpt lat="43.939528630493115" lon="12.112721519216775"><ele>534.75</ele><time>2026-04-19T11:04:18Z</time></trkpt><trkpt lat="43.93948856107784" lon="12.112870500165354"><ele>534.5</ele><time>2026-04-19T11:04:19Z</time></trkpt><trkpt lat="43.939429481411935" lon="12.11300270168523"><ele>534.25</ele><time>2026-04-19T11:04:20Z</time></trkpt><trkpt lat="43.939356545081985" lon="12.113135106789423"><ele>534.0</ele><time>2026-04-19T11:04:21Z</time></trkpt><trkpt lat="43.939264686184906" lon="12.113235219079455"><ele>537.0</ele><time>2026-04-19T11:04:22Z</time></trkpt><trkpt lat="43.93916130892261" lon="12.113322192556844"><ele>540.0</ele><time>2026-04-19T11:04:23Z</time></trkpt><trkpt lat="43.93905184747993" lon="12.113385067478792"><ele>543.0</ele><time>2026-04-19T11:04:24Z</time></trkpt><trkpt lat="43.93894573582746" lon="12.113459968334361"><ele>546.0</ele><time>2026-04-19T11:04:25Z</time></trkpt><trkpt lat="43.93886222538202" lon="12.113545539515599"><ele>546.0</ele><time>2026-04-19T11:04:26Z</time></trkpt><trkpt lat="43.93879352662989" lon="12.113666703472084"><ele>546.0</ele><time>2026-04-19T11:04:27Z</time></trkpt><trkpt lat="43.938739676452585" lon="12.113810726378857"><ele>546.0</ele><time>2026-04-19T11:04:28Z</time></trkpt><trkpt lat="43.93870691536073" lon="12.113967046787117"><ele>546.0</ele><time>2026-04-19T11:04:29Z</time></trkpt><trkpt lat="43.93870434475316" lon="12.114148226050366"><ele>547.5</ele><time>2026-04-19T11:04:30Z</time></trkpt><trkpt lat="43.93870220501913" lon="12.11431771617272"><ele>549.0</ele><time>2026-04-19T11:04:31Z</time></trkpt><trkpt lat="43.938696907479546" lon="12.114478762261948"><ele>550.5</ele><time>2026-04-19T11:04:32Z</time></trkpt><trkpt lat="43.938688232436284" lon="12.114657136661023"><ele>552.0</ele><time>2026-04-19T11:04:33Z</time></trkpt><trkpt lat="43.938667820760394" lon="12.114836781319053"><ele>548.0</ele><time>2026-04-19T11:04:34Z</time></trkpt><trkpt lat="43.938636986137915" lon="12.115019459960141"><ele>544.0</ele><time>2026-04-19T11:04:35Z</time></trkpt><trkpt lat="43.93860287335481" lon="12.115205654182166"><ele>540.0</ele><time>2026-04-19T11:04:36Z</time></trkpt><trkpt lat="43.938565115891194" lon="12.115390498751264"><ele>536.0</ele><time>2026-04-19T11:04:37Z</time></trkpt><trkpt lat="43.938521556594935" lon="12.115565832606569"><ele>534.25</ele><time>2026-04-19T11:04:38Z</time></trkpt><trkpt lat="43.938498573616705" lon="12.11574145449115"><ele>532.5</ele><time>2026-04-19T11:04:39Z</time></trkpt><trkpt lat="43.93848050295473" lon="12.115918017568424"><ele>530.75</ele><time>2026-04-19T11:04:40Z</time></trkpt><trkpt lat="43.93846474774496" lon="12.116098220744657"><ele>529.0</ele><time>2026-04-19T11:04:41Z</time></trkpt><trkpt lat="43.93845112072534" lon="12.116280930813039"><ele>529.0</ele><time>2026-04-19T11:04:42Z</time></trkpt><trkpt lat="43.938446935124226" lon="12.116458650083965"><ele>529.0</ele><time>2026-04-19T11:04:43Z</time></trkpt><trkpt lat="43.93843245613141" lon="12.116632712426084"><ele>529.0</ele><time>2026-04-19T11:04:44Z</time></trkpt><trkpt lat="43.9383897220643" lon="12.116804393217565"><ele>529.0</ele><time>2026-04-19T11:04:45Z</time></trkpt><trkpt lat="43.93834282696106" lon="12.116952478937748"><ele>530.75</ele><time>2026-04-19T11:04:46Z</time></trkpt><trkpt lat="43.938284102319734" lon="12.117075923214614"><ele>532.5</ele><time>2026-04-19T11:04:47Z</time></trkpt><trkpt lat="43.93821247504621" lon="12.117192921226682"><ele>534.25</ele><time>2026-04-19T11:04:48Z</time></trkpt><trkpt lat="43.938101141854624" lon="12.117229732462262"><ele>536.0</ele><time>2026-04-19T11:04:49Z</time></trkpt><trkpt lat="43.937984032437335" lon="12.117304070816534"><ele>536.0</ele><time>2026-04-19T11:04:50Z</time></trkpt><trkpt lat="43.93786946685998" lon="12.117296745215933"><ele>536.0</ele><time>2026-04-19T11:04:51Z</time></trkpt><trkpt lat="43.93777465859989" lon="12.117337537436557"><ele>536.0</ele><time>2026-04-19T11:04:52Z</time></trkpt><trkpt lat="43.937709307713504" lon="12.117423387465228"><ele>536.0</ele><time>2026-04-19T11:04:53Z</time></trkpt><trkpt lat="43.9376624419056" lon="12.117556565191565"><ele>536.0</ele><time>2026-04-19T11:04:54Z</time></trkpt><trkpt lat="43.93765174414531" lon="12.117699718368325"><ele>538.8</ele><time>2026-04-19T11:04:55Z</time></trkpt><trkpt lat="43.937661237734034" lon="12.117869964760786"><ele>541.6</ele><time>2026-04-19T11:04:56Z</time></trkpt><trkpt lat="43.937625418744446" lon="12.117994035925088"><ele>544.4</ele><time>2026-04-19T11:04:57Z</time></trkpt><trkpt lat="43.93757011670851" lon="12.118113467091268"><ele>547.2</ele><time>2026-04-19T11:04:58Z</time></trkpt><trkpt lat="43.93750630655296" lon="12.11823673708429"><ele>550.0</ele><time>2026-04-19T11:04:59Z</time></trkpt><trkpt lat="43.937425995800446" lon="12.11832142857916"><ele>551.0</ele><time>2026-04-19T11:05:00Z</time></trkpt><trkpt lat="43.93733091806158" lon="12.118376306813042"><ele>552.0</ele><time>2026-04-19T11:05:01Z</time></trkpt><trkpt lat="43.93722900482784" lon="12.118377925038532"><ele>553.0</ele><time>2026-04-19T11:05:02Z</time></trkpt><trkpt lat="43.93712836849238" lon="12.118352260673658"><ele>554.0</ele><time>2026-04-19T11:05:03Z</time></trkpt><trkpt lat="43.937029367154004" lon="12.11835974839407"><ele>555.0</ele><time>2026-04-19T11:05:04Z</time></trkpt><trkpt lat="43.93695360927443" lon="12.118405628861952"><ele>555.0</ele><time>2026-04-19T11:05:05Z</time></trkpt><trkpt lat="43.93689496303967" lon="12.118515689614597"><ele>555.0</ele><time>2026-04-19T11:05:06Z</time></trkpt><trkpt lat="43.93687112772419" lon="12.118655666369834"><ele>555.0</ele><time>2026-04-19T11:05:07Z</time></trkpt><trkpt lat="43.93683440368699" lon="12.118826505440818"><ele>555.0</ele><time>2026-04-19T11:05:08Z</time></trkpt><trkpt lat="43.93677252675141" lon="12.118984407812608"><ele>555.0</ele><time>2026-04-19T11:05:09Z</time></trkpt><trkpt lat="43.93671846207072" lon="12.119134553248543"><ele>555.0</ele><time>2026-04-19T11:05:10Z</time></trkpt><trkpt lat="43.936657521301015" lon="12.119278954896426"><ele>555.0</ele><time>2026-04-19T11:05:11Z</time></trkpt><trkpt lat="43.93658406681814" lon="12.119413208227376"><ele>555.0</ele><time>2026-04-19T11:05:12Z</time></trkpt><trkpt lat="43.936495138170656" lon="12.119525101604584"><ele>555.0</ele><time>2026-04-19T11:05:13Z</time></trkpt><trkpt lat="43.936394372434044" lon="12.11963015628294"><ele>555.0</ele><time>2026-04-19T11:05:14Z</time></trkpt><trkpt lat="43.936289685285345" lon="12.119725498661635"><ele>555.0</ele><time>2026-04-19T11:05:15Z</time></trkpt><trkpt lat="43.93618069801875" lon="12.11981192903598"><ele>555.0</ele><time>2026-04-19T11:05:16Z</time></trkpt><trkpt lat="43.936069808356756" lon="12.119884781033974"><ele>555.5</ele><time>2026-04-19T11:05:17Z</time></trkpt><trkpt lat="43.93596020101061" lon="12.119935910967863"><ele>556.0</ele><time>2026-04-19T11:05:18Z</time></trkpt><trkpt lat="43.93585531452312" lon="12.119964219070383"><ele>556.5</ele><time>2026-04-19T11:05:19Z</time></trkpt><trkpt lat="43.9357462673561" lon="12.119921911953474"><ele>557.0</ele><time>2026-04-19T11:05:20Z</time></trkpt><trkpt lat="43.935627033392244" lon="12.11993057755329"><ele>557.0</ele><time>2026-04-19T11:05:21Z</time></trkpt><trkpt lat="43.93550309809104" lon="12.119911332793583"><ele>557.0</ele><time>2026-04-19T11:05:22Z</time></trkpt><trkpt lat="43.93540573457058" lon="12.11993997306828"><ele>557.0</ele><time>2026-04-19T11:05:23Z</time></trkpt><trkpt lat="43.93530498867687" lon="12.120009431900993"><ele>557.0</ele><time>2026-04-19T11:05:24Z</time></trkpt><trkpt lat="43.93519312539513" lon="12.120046327146207"><ele>557.0</ele><time>2026-04-19T11:05:25Z</time></trkpt><trkpt lat="43.93508616757167" lon="12.12004531738894"><ele>557.0</ele><time>2026-04-19T11:05:26Z</time></trkpt><trkpt lat="43.93499600771555" lon="12.12006543758926"><ele>557.0</ele><time>2026-04-19T11:05:27Z</time></trkpt><trkpt lat="43.93492344947302" lon="12.120149359510044"><ele>557.0</ele><time>2026-04-19T11:05:28Z</time></trkpt><trkpt lat="43.93487084172941" lon="12.120288537874442"><ele>557.0</ele><time>2026-04-19T11:05:29Z</time></trkpt><trkpt lat="43.93482613042706" lon="12.120451000252206"><ele>556.5</ele><time>2026-04-19T11:05:30Z</time></trkpt><trkpt lat="43.934761936054265" lon="12.120614399606277"><ele>556.0</ele><time>2026-04-19T11:05:31Z</time></trkpt><trkpt lat="43.93465313446277" lon="12.120765603853641"><ele>555.5</ele><time>2026-04-19T11:05:32Z</time></trkpt><trkpt lat="43.93452868415077" lon="12.120906830531819"><ele>555.0</ele><time>2026-04-19T11:05:33Z</time></trkpt><trkpt lat="43.934406409142774" lon="12.12102206571139"><ele>555.0</ele><time>2026-04-19T11:05:34Z</time></trkpt><trkpt lat="43.934277828358766" lon="12.121122379029623"><ele>555.0</ele><time>2026-04-19T11:05:35Z</time></trkpt><trkpt lat="43.93415319343887" lon="12.121158095170134"><ele>555.0</ele><time>2026-04-19T11:05:36Z</time></trkpt><trkpt lat="43.93403758890591" lon="12.121159976594251"><ele>555.0</ele><time>2026-04-19T11:05:37Z</time></trkpt><trkpt lat="43.93393495505577" lon="12.121141361810794"><ele>552.5</ele><time>2026-04-19T11:05:38Z</time></trkpt><trkpt lat="43.933845715598835" lon="12.121152310096312"><ele>550.0</ele><time>2026-04-19T11:05:39Z</time></trkpt><trkpt lat="43.93377707831248" lon="12.12118840655437"><ele>547.5</ele><time>2026-04-19T11:05:40Z</time></trkpt><trkpt lat="43.9337141149264" lon="12.12126347482415"><ele>545.0</ele><time>2026-04-19T11:05:41Z</time></trkpt><trkpt lat="43.93367612458722" lon="12.121358326949647"><ele>542.5</ele><time>2026-04-19T11:05:42Z</time></trkpt><trkpt lat="43.933671171406814" lon="12.121480468281433"><ele>540.0</ele><time>2026-04-19T11:05:43Z</time></trkpt><trkpt lat="43.93369424806732" lon="12.121588812827497"><ele>540.0</ele><time>2026-04-19T11:05:45Z</time></trkpt><trkpt lat="43.93366150270584" lon="12.121732987167363"><ele>540.0</ele><time>2026-04-19T11:05:48Z</time></trkpt><trkpt lat="43.93366150269806" lon="12.121824718024214"><ele>540.0</ele><time>2026-04-19T11:05:50Z</time></trkpt><trkpt lat="43.93374798755927" lon="12.121774291342781"><ele>540.0</ele><time>2026-04-19T11:05:51Z</time></trkpt><trkpt lat="43.933604449526094" lon="12.12189728357753"><ele>540.0</ele><time>2026-04-19T11:05:53Z</time></trkpt><trkpt lat="43.93353116708672" lon="12.121887726867685"><ele>540.0</ele><time>2026-04-19T11:05:54Z</time></trkpt><trkpt lat="43.93346520985929" lon="12.121867907653698"><ele>540.0</ele><time>2026-04-19T11:05:56Z</time></trkpt><trkpt lat="43.93338722765275" lon="12.121873203011866"><ele>540.0</ele><time>2026-04-19T11:05:58Z</time></trkpt><trkpt lat="43.93326430136672" lon="12.121918013218592"><ele>540.0</ele><time>2026-04-19T11:06:00Z</time></trkpt><trkpt lat="43.933200067941165" lon="12.121982619965882"><ele>540.0</ele><time>2026-04-19T11:06:01Z</time></trkpt><trkpt lat="43.93311528705915" lon="12.122028157885381"><ele>540.0</ele><time>2026-04-19T11:06:03Z</time></trkpt><trkpt lat="43.93303816733692" lon="12.122084061303852"><ele>535.75</ele><time>2026-04-19T11:06:05Z</time></trkpt><trkpt lat="43.9329825400101" lon="12.122164865528672"><ele>531.5</ele><time>2026-04-19T11:06:08Z</time></trkpt><trkpt lat="43.93287051384582" lon="12.122236801284398"><ele>527.25</ele><time>2026-04-19T11:06:10Z</time></trkpt><trkpt lat="43.932758852353416" lon="12.122317716796399"><ele>523.0</ele><time>2026-04-19T11:06:11Z</time></trkpt><trkpt lat="43.9326310141638" lon="12.122335350688925"><ele>521.6</ele><time>2026-04-19T11:06:12Z</time></trkpt><trkpt lat="43.93252367337544" lon="12.122333033285011"><ele>520.1999999999999</ele><time>2026-04-19T11:06:13Z</time></trkpt><trkpt lat="43.932422383494995" lon="12.12233509417608"><ele>518.8</ele><time>2026-04-19T11:06:14Z</time></trkpt><trkpt lat="43.932323575462696" lon="12.122342141135798"><ele>517.4</ele><time>2026-04-19T11:06:15Z</time></trkpt><trkpt lat="43.93225178392508" lon="12.122275489909642"><ele>516.0</ele><time>2026-04-19T11:06:16Z</time></trkpt><trkpt lat="43.93217188485307" lon="12.12225411200404"><ele>516.0</ele><time>2026-04-19T11:06:17Z</time></trkpt><trkpt lat="43.932103409063046" lon="12.122164732413744"><ele>516.0</ele><time>2026-04-19T11:06:21Z</time></trkpt><trkpt lat="43.93197752291315" lon="12.122029363228203"><ele>516.0</ele><time>2026-04-19T11:06:23Z</time></trkpt><trkpt lat="43.931879958594344" lon="12.12191063065033"><ele>516.0</ele><time>2026-04-19T11:06:24Z</time></trkpt><trkpt lat="43.93179444081854" lon="12.121798467095221"><ele>514.75</ele><time>2026-04-19T11:06:25Z</time></trkpt><trkpt lat="43.93170787032411" lon="12.12167661805009"><ele>513.5</ele><time>2026-04-19T11:06:26Z</time></trkpt><trkpt lat="43.931619127560126" lon="12.121547708288631"><ele>512.25</ele><time>2026-04-19T11:06:27Z</time></trkpt><trkpt lat="43.931539969641356" lon="12.12142898565995"><ele>511.0</ele><time>2026-04-19T11:06:28Z</time></trkpt><trkpt lat="43.931463654799636" lon="12.121310840087549"><ele>506.4</ele><time>2026-04-19T11:06:29Z</time></trkpt><trkpt lat="43.93139288809904" lon="12.12120070151496"><ele>501.8</ele><time>2026-04-19T11:06:30Z</time></trkpt><trkpt lat="43.93131431336326" lon="12.121081486077788"><ele>497.19999999999993</ele><time>2026-04-19T11:06:31Z</time></trkpt><trkpt lat="43.93124406298454" lon="12.120972318820334"><ele>492.59999999999997</ele><time>2026-04-19T11:06:32Z</time></trkpt><trkpt lat="43.93117627292116" lon="12.120876261383208"><ele>488.0</ele><time>2026-04-19T11:06:33Z</time></trkpt><trkpt lat="43.931062515454435" lon="12.120828600073375"><ele>488.0</ele><time>2026-04-19T11:06:34Z</time></trkpt><trkpt lat="43.93094776841664" lon="12.1207726333682"><ele>487.99999999999994</ele><time>2026-04-19T11:06:35Z</time></trkpt><trkpt lat="43.930849919621416" lon="12.120724218947894"><ele>487.99999999999994</ele><time>2026-04-19T11:06:36Z</time></trkpt><trkpt lat="43.93077566791218" lon="12.120658168406766"><ele>488.0</ele><time>2026-04-19T11:06:37Z</time></trkpt><trkpt lat="43.930714490382464" lon="12.120551413147039"><ele>488.0</ele><time>2026-04-19T11:06:38Z</time></trkpt><trkpt lat="43.93063822485327" lon="12.12042096919349"><ele>484.25</ele><time>2026-04-19T11:06:39Z</time></trkpt><trkpt lat="43.93055888639275" lon="12.120283543123248"><ele>480.5</ele><time>2026-04-19T11:06:40Z</time></trkpt><trkpt lat="43.93048042620236" lon="12.120143797682852"><ele>476.75</ele><time>2026-04-19T11:06:41Z</time></trkpt><trkpt lat="43.930408638746904" lon="12.120012541852992"><ele>473.0</ele><time>2026-04-19T11:06:42Z</time></trkpt><trkpt lat="43.930349592217006" lon="12.119893462446747"><ele>469.4</ele><time>2026-04-19T11:06:43Z</time></trkpt><trkpt lat="43.930306749129585" lon="12.119819014131021"><ele>465.79999999999995</ele><time>2026-04-19T11:06:44Z</time></trkpt><trkpt lat="43.93022517760539" lon="12.11974706336511"><ele>462.2</ele><time>2026-04-19T11:06:45Z</time></trkpt><trkpt lat="43.93011042365615" lon="12.119765245276822"><ele>458.6</ele><time>2026-04-19T11:06:46Z</time></trkpt><trkpt lat="43.93001764930011" lon="12.119760291256517"><ele>455.0</ele><time>2026-04-19T11:06:47Z</time></trkpt><trkpt lat="43.92994858889543" lon="12.119824089628395"><ele>461.25</ele><time>2026-04-19T11:06:48Z</time></trkpt><trkpt lat="43.92988893435034" lon="12.119977879056849"><ele>467.5</ele><time>2026-04-19T11:06:50Z</time></trkpt><trkpt lat="43.92990014160741" lon="12.120101429313516"><ele>473.75</ele><time>2026-04-19T11:06:51Z</time></trkpt><trkpt lat="43.92994158385297" lon="12.120246802658455"><ele>480.0</ele><time>2026-04-19T11:06:52Z</time></trkpt><trkpt lat="43.930022142210646" lon="12.120431292734844"><ele>477.66666666666663</ele><time>2026-04-19T11:06:53Z</time></trkpt><trkpt lat="43.93009453342453" lon="12.120608418356577"><ele>475.3333333333333</ele><time>2026-04-19T11:06:54Z</time></trkpt><trkpt lat="43.93019706793028" lon="12.120780707839096"><ele>473.0</ele><time>2026-04-19T11:06:55Z</time></trkpt><trkpt lat="43.93028196399489" lon="12.12095945392899"><ele>478.75</ele><time>2026-04-19T11:06:56Z</time></trkpt><trkpt lat="43.93035349423317" lon="12.12110021980777"><ele>484.5</ele><time>2026-04-19T11:06:57Z</time></trkpt><trkpt lat="43.93038554163109" lon="12.121291979407557"><ele>490.25</ele><time>2026-04-19T11:06:58Z</time></trkpt><trkpt lat="43.93042007572304" lon="12.121524134969059"><ele>496.0</ele><time>2026-04-19T11:06:59Z</time></trkpt><trkpt lat="43.93044327354684" lon="12.121802575681613"><ele>497.0</ele><time>2026-04-19T11:07:00Z</time></trkpt><trkpt lat="43.93043672330047" lon="12.12207302589984"><ele>498.0</ele><time>2026-04-19T11:07:01Z</time></trkpt><trkpt lat="43.93044218397614" lon="12.12231932134034"><ele>499.0</ele><time>2026-04-19T11:07:02Z</time></trkpt><trkpt lat="43.93045889485842" lon="12.122513690618511"><ele>499.0</ele><time>2026-04-19T11:07:03Z</time></trkpt><trkpt lat="43.93043221894726" lon="12.122708236813901"><ele>499.0</ele><time>2026-04-19T11:07:04Z</time></trkpt><trkpt lat="43.93037728205325" lon="12.122869582664954"><ele>499.0</ele><time>2026-04-19T11:07:05Z</time></trkpt><trkpt lat="43.93029364977196" lon="12.123018005721757"><ele>499.0</ele><time>2026-04-19T11:07:06Z</time></trkpt><trkpt lat="43.930180088116984" lon="12.123148594722032"><ele>497.25</ele><time>2026-04-19T11:07:07Z</time></trkpt><trkpt lat="43.93008261660614" lon="12.123266682676677"><ele>495.5</ele><time>2026-04-19T11:07:08Z</time></trkpt><trkpt lat="43.930032581674574" lon="12.123421628798464"><ele>493.75</ele><time>2026-04-19T11:07:09Z</time></trkpt><trkpt lat="43.930008190134856" lon="12.123637491725878"><ele>492.0</ele><time>2026-04-19T11:07:10Z</time></trkpt><trkpt lat="43.929988161321454" lon="12.123895679603534"><ele>483.0</ele><time>2026-04-19T11:07:11Z</time></trkpt><trkpt lat="43.92993771741974" lon="12.124193430846793"><ele>474.0</ele><time>2026-04-19T11:07:12Z</time></trkpt><trkpt lat="43.92991714730961" lon="12.124446618163372"><ele>465.0</ele><time>2026-04-19T11:07:13Z</time></trkpt><trkpt lat="43.92987309713265" lon="12.124678377994632"><ele>465.0</ele><time>2026-04-19T11:07:14Z</time></trkpt><trkpt lat="43.92984597054412" lon="12.124885826685183"><ele>465.0</ele><time>2026-04-19T11:07:15Z</time></trkpt><trkpt lat="43.92982778726246" lon="12.125044192738695"><ele>465.0</ele><time>2026-04-19T11:07:16Z</time></trkpt><trkpt lat="43.92977805439034" lon="12.125178975191952"><ele>465.0</ele><time>2026-04-19T11:07:17Z</time></trkpt><trkpt lat="43.929716341741525" lon="12.125279544907933"><ele>464.0</ele><time>2026-04-19T11:07:18Z</time></trkpt><trkpt lat="43.92964152554489" lon="12.125343208986342"><ele>463.0</ele><time>2026-04-19T11:07:19Z</time></trkpt><trkpt lat="43.929519426249925" lon="12.125307772609307"><ele>462.0</ele><time>2026-04-19T11:07:20Z</time></trkpt><trkpt lat="43.92937426550863" lon="12.12533504377449"><ele>461.0</ele><time>2026-04-19T11:07:21Z</time></trkpt><trkpt lat="43.929216093957116" lon="12.125385201828092"><ele>455.0</ele><time>2026-04-19T11:07:22Z</time></trkpt><trkpt lat="43.9290432120012" lon="12.125457197521175"><ele>449.0</ele><time>2026-04-19T11:07:23Z</time></trkpt><trkpt lat="43.92888129514536" lon="12.12547468981359"><ele>443.0</ele><time>2026-04-19T11:07:24Z</time></trkpt><trkpt lat="43.92872632973662" lon="12.125513825265124"><ele>443.0</ele><time>2026-04-19T11:07:25Z</time></trkpt><trkpt lat="43.92857949330567" lon="12.125548263187138"><ele>443.0</ele><time>2026-04-19T11:07:26Z</time></trkpt><trkpt lat="43.92842988497935" lon="12.125581553844869"><ele>443.0</ele><time>2026-04-19T11:07:27Z</time></trkpt><trkpt lat="43.92828765094816" lon="12.125635915642631"><ele>443.0</ele><time>2026-04-19T11:07:28Z</time></trkpt><trkpt lat="43.9281627191153" lon="12.125714965364994"><ele>442.0</ele><time>2026-04-19T11:07:29Z</time></trkpt><trkpt lat="43.928054171844224" lon="12.125793388582142"><ele>440.99999999999994</ele><time>2026-04-19T11:07:30Z</time></trkpt><trkpt lat="43.92796205477801" lon="12.125869634608854"><ele>439.99999999999994</ele><time>2026-04-19T11:07:31Z</time></trkpt><trkpt lat="43.927879513711794" lon="12.125910816881085"><ele>439.0</ele><time>2026-04-19T11:07:32Z</time></trkpt><trkpt lat="43.92781630018103" lon="12.125983807416953"><ele>438.0</ele><time>2026-04-19T11:07:34Z</time></trkpt><trkpt lat="43.92788073899698" lon="12.12595143531482"><ele>438.0</ele><time>2026-04-19T11:07:40Z</time></trkpt><trkpt lat="43.92783049771746" lon="12.126049999839752"><ele>438.0</ele><time>2026-04-19T11:07:43Z</time></trkpt><trkpt lat="43.92776834406795" lon="12.126022887286485"><ele>438.0</ele><time>2026-04-19T11:07:45Z</time></trkpt><trkpt lat="43.927700145810626" lon="12.126020153049792"><ele>438.0</ele><time>2026-04-19T11:07:47Z</time></trkpt><trkpt lat="43.92760836335713" lon="12.126037540299054"><ele>438.0</ele><time>2026-04-19T11:07:49Z</time></trkpt><trkpt lat="43.9275429985187" lon="12.126049192699178"><ele>438.0</ele><time>2026-04-19T11:07:51Z</time></trkpt><trkpt lat="43.92746892661437" lon="12.126070797842507"><ele>439.4</ele><time>2026-04-19T11:08:01Z</time></trkpt><trkpt lat="43.92738117643429" lon="12.126080787921408"><ele>440.79999999999995</ele><time>2026-04-19T11:08:04Z</time></trkpt><trkpt lat="43.927286889783296" lon="12.12609070953849"><ele>442.2</ele><time>2026-04-19T11:08:06Z</time></trkpt><trkpt lat="43.92718299775991" lon="12.126098990686254"><ele>443.6</ele><time>2026-04-19T11:08:08Z</time></trkpt><trkpt lat="43.927067153446266" lon="12.126072307578365"><ele>445.0</ele><time>2026-04-19T11:08:10Z</time></trkpt><trkpt lat="43.92696151531525" lon="12.126044745009574"><ele>445.00000000000006</ele><time>2026-04-19T11:08:12Z</time></trkpt><trkpt lat="43.926888003896195" lon="12.126053458966"><ele>445.0</ele><time>2026-04-19T11:08:19Z</time></trkpt><trkpt lat="43.926801416883485" lon="12.126077644372517"><ele>445.0</ele><time>2026-04-19T11:08:21Z</time></trkpt><trkpt lat="43.92672895270817" lon="12.12612332918352"><ele>445.0</ele><time>2026-04-19T11:08:23Z</time></trkpt><trkpt lat="43.92666774297093" lon="12.126147475104341"><ele>445.00000000000006</ele><time>2026-04-19T11:08:24Z</time></trkpt><trkpt lat="43.9265786986711" lon="12.12614894643242"><ele>445.0</ele><time>2026-04-19T11:08:45Z</time></trkpt><trkpt lat="43.926481580668586" lon="12.126183219113747"><ele>445.83333333333337</ele><time>2026-04-19T11:08:47Z</time></trkpt><trkpt lat="43.92637618943591" lon="12.126232202358702"><ele>446.6666666666667</ele><time>2026-04-19T11:08:50Z</time></trkpt><trkpt lat="43.92634407366252" lon="12.12632861739477"><ele>447.5</ele><time>2026-04-19T11:08:59Z</time></trkpt><trkpt lat="43.926279142992534" lon="12.12637483864721"><ele>448.33333333333337</ele><time>2026-04-19T11:09:03Z</time></trkpt><trkpt lat="43.92621268269681" lon="12.126413170626705"><ele>449.1666666666667</ele><time>2026-04-19T11:09:06Z</time></trkpt><trkpt lat="43.926135326275634" lon="12.126459135142401"><ele>450.0</ele><time>2026-04-19T11:09:08Z</time></trkpt><trkpt lat="43.92608502081472" lon="12.126554177780879"><ele>450.6</ele><time>2026-04-19T11:09:11Z</time></trkpt><trkpt lat="43.92604052296106" lon="12.126636258726595"><ele>451.2</ele><time>2026-04-19T11:09:12.999Z</time></trkpt><trkpt lat="43.92597508085597" lon="12.126720003960685"><ele>451.79999999999995</ele><time>2026-04-19T11:09:14.999Z</time></trkpt><trkpt lat="43.92595411481172" lon="12.12681800431595"><ele>452.4</ele><time>2026-04-19T11:09:17.999Z</time></trkpt><trkpt lat="43.92591727537982" lon="12.126929779149593"><ele>453.0</ele><time>2026-04-19T11:09:18.999Z</time></trkpt><trkpt lat="43.92586745110806" lon="12.127097734582343"><ele>448.8333333333333</ele><time>2026-04-19T11:09:20.999Z</time></trkpt><trkpt lat="43.92583289076742" lon="12.127193364013241"><ele>444.66666666666663</ele><time>2026-04-19T11:09:21.999Z</time></trkpt><trkpt lat="43.92580125830015" lon="12.127289704612513"><ele>440.5</ele><time>2026-04-19T11:09:22.999Z</time></trkpt><trkpt lat="43.9257734459895" lon="12.127381101763099"><ele>436.3333333333333</ele><time>2026-04-19T11:09:23.999Z</time></trkpt><trkpt lat="43.92573335617618" lon="12.127497998895315"><ele>432.16666666666663</ele><time>2026-04-19T11:09:25.999Z</time></trkpt><trkpt lat="43.9256571823398" lon="12.127594526458271"><ele>428.0</ele><time>2026-04-19T11:09:28.999Z</time></trkpt><trkpt lat="43.925579512690994" lon="12.127665233741919"><ele>427.16666666666663</ele><time>2026-04-19T11:09:30.999Z</time></trkpt><trkpt lat="43.92551415075734" lon="12.127760902653266"><ele>426.3333333333333</ele><time>2026-04-19T11:09:32.999Z</time></trkpt><trkpt lat="43.92550410131112" lon="12.12784796157589"><ele>425.5</ele><time>2026-04-19T11:09:37.999Z</time></trkpt><trkpt lat="43.925524611334495" lon="12.127742333390156"><ele>424.66666666666663</ele><time>2026-04-19T11:09:49Z</time></trkpt><trkpt lat="43.925612008756254" lon="12.12765011225555"><ele>423.8333333333333</ele><time>2026-04-19T11:09:51Z</time></trkpt><trkpt lat="43.925666775221586" lon="12.127565753978931"><ele>423.0</ele><time>2026-04-19T11:09:53Z</time></trkpt><trkpt lat="43.925732749888255" lon="12.127550023186624"><ele>423.0</ele><time>2026-04-19T11:09:55Z</time></trkpt><trkpt lat="43.925770917288744" lon="12.12762734736417"><ele>423.0</ele><time>2026-04-19T11:09:57Z</time></trkpt><trkpt lat="43.92573450004571" lon="12.127738909314935"><ele>423.0</ele><time>2026-04-19T11:09:59Z</time></trkpt><trkpt lat="43.92576787856493" lon="12.127816652049123"><ele>423.0</ele><time>2026-04-19T11:10:02Z</time></trkpt><trkpt lat="43.92579485699352" lon="12.127927845671628"><ele>423.0</ele><time>2026-04-19T11:10:04Z</time></trkpt><trkpt lat="43.92583597808748" lon="12.128065279453489"><ele>423.0</ele><time>2026-04-19T11:10:06Z</time></trkpt><trkpt lat="43.92586992596375" lon="12.128181036389764"><ele>420.2</ele><time>2026-04-19T11:10:08Z</time></trkpt><trkpt lat="43.92587313125025" lon="12.128311050290126"><ele>417.4</ele><time>2026-04-19T11:10:10Z</time></trkpt><trkpt lat="43.92574430714442" lon="12.128355675757174"><ele>414.59999999999997</ele><time>2026-04-19T11:10:12Z</time></trkpt><trkpt lat="43.92563008389664" lon="12.128382676581525"><ele>411.79999999999995</ele><time>2026-04-19T11:10:14Z</time></trkpt><trkpt lat="43.92556396913149" lon="12.128364103194556"><ele>409.0</ele><time>2026-04-19T11:10:15Z</time></trkpt><trkpt lat="43.92549702015058" lon="12.128343702118162"><ele>409.0</ele><time>2026-04-19T11:10:16Z</time></trkpt><trkpt lat="43.92543384576469" lon="12.128341945302774"><ele>409.0</ele><time>2026-04-19T11:10:17Z</time></trkpt><trkpt lat="43.92533998295768" lon="12.128252264641038"><ele>409.0</ele><time>2026-04-19T11:10:19Z</time></trkpt><trkpt lat="43.9253301594536" lon="12.12816315538978"><ele>409.0</ele><time>2026-04-19T11:10:20Z</time></trkpt><trkpt lat="43.92527497969416" lon="12.128074561302066"><ele>409.0</ele><time>2026-04-19T11:10:22Z</time></trkpt><trkpt lat="43.92524457255474" lon="12.128240801800622"><ele>409.0</ele><time>2026-04-19T11:10:24Z</time></trkpt><trkpt lat="43.925260797559126" lon="12.1283678641438"><ele>409.0</ele><time>2026-04-19T11:10:25Z</time></trkpt><trkpt lat="43.9252512205055" lon="12.128484671488298"><ele>409.0</ele><time>2026-04-19T11:10:26Z</time></trkpt><trkpt lat="43.925197508032596" lon="12.128629519703834"><ele>409.0</ele><time>2026-04-19T11:10:27Z</time></trkpt><trkpt lat="43.92515918363464" lon="12.128743854735285"><ele>409.0</ele><time>2026-04-19T11:10:28Z</time></trkpt><trkpt lat="43.92508325167361" lon="12.128876822185772"><ele>404.25</ele><time>2026-04-19T11:10:29Z</time></trkpt><trkpt lat="43.92499050129015" lon="12.128929777791333"><ele>399.5</ele><time>2026-04-19T11:10:30Z</time></trkpt><trkpt lat="43.92486218569361" lon="12.128953984266742"><ele>394.75</ele><time>2026-04-19T11:10:31Z</time></trkpt><trkpt lat="43.92475834388096" lon="12.128988132711845"><ele>390.0</ele><time>2026-04-19T11:10:32Z</time></trkpt><trkpt lat="43.924647678121346" lon="12.129069337791353"><ele>389.75</ele><time>2026-04-19T11:10:33Z</time></trkpt><trkpt lat="43.92451055906329" lon="12.129134094765663"><ele>389.5</ele><time>2026-04-19T11:10:34Z</time></trkpt><trkpt lat="43.92436214102782" lon="12.129213703376688"><ele>389.25</ele><time>2026-04-19T11:10:35Z</time></trkpt><trkpt lat="43.92423474670494" lon="12.129291781458562"><ele>389.0</ele><time>2026-04-19T11:10:36Z</time></trkpt><trkpt lat="43.92409806794505" lon="12.129407135357095"><ele>386.5</ele><time>2026-04-19T11:10:37Z</time></trkpt><trkpt lat="43.923970064623035" lon="12.129515636093883"><ele>384.0</ele><time>2026-04-19T11:10:38Z</time></trkpt><trkpt lat="43.92388178067347" lon="12.12955949641779"><ele>381.5</ele><time>2026-04-19T11:10:39Z</time></trkpt><trkpt lat="43.923780140658494" lon="12.129623089277668"><ele>379.0</ele><time>2026-04-19T11:10:40Z</time></trkpt><trkpt lat="43.923661787379594" lon="12.129685107684606"><ele>379.0</ele><time>2026-04-19T11:10:41Z</time></trkpt><trkpt lat="43.92354638934176" lon="12.129737982128296"><ele>379.0</ele><time>2026-04-19T11:10:42Z</time></trkpt><trkpt lat="43.92343047808658" lon="12.129781257096326"><ele>379.0</ele><time>2026-04-19T11:10:43Z</time></trkpt><trkpt lat="43.92331013235231" lon="12.129827046411277"><ele>379.0</ele><time>2026-04-19T11:10:44Z</time></trkpt><trkpt lat="43.92319638002536" lon="12.129875988026596"><ele>376.5</ele><time>2026-04-19T11:10:45Z</time></trkpt><trkpt lat="43.92308427659627" lon="12.129918664645317"><ele>374.0</ele><time>2026-04-19T11:10:46Z</time></trkpt><trkpt lat="43.922977716447704" lon="12.129978839277781"><ele>371.5</ele><time>2026-04-19T11:10:47Z</time></trkpt><trkpt lat="43.922868069080586" lon="12.130033909184336"><ele>369.0</ele><time>2026-04-19T11:10:48Z</time></trkpt><trkpt lat="43.92274941351203" lon="12.13008798383121"><ele>369.0</ele><time>2026-04-19T11:10:49Z</time></trkpt><trkpt lat="43.92263986083461" lon="12.130127853799484"><ele>369.0</ele><time>2026-04-19T11:10:50Z</time></trkpt><trkpt lat="43.922539401028445" lon="12.130143655573416"><ele>369.0</ele><time>2026-04-19T11:10:51Z</time></trkpt><trkpt lat="43.92244978570462" lon="12.130148811205384"><ele>369.0</ele><time>2026-04-19T11:10:52Z</time></trkpt><trkpt lat="43.92237475714476" lon="12.130147873747212"><ele>369.0</ele><time>2026-04-19T11:10:53Z</time></trkpt><trkpt lat="43.92227223146013" lon="12.130119340898107"><ele>367.6666666666667</ele><time>2026-04-19T11:10:55Z</time></trkpt><trkpt lat="43.922200037655145" lon="12.130083922987438"><ele>366.3333333333333</ele><time>2026-04-19T11:11:01Z</time></trkpt><trkpt lat="43.92211485102048" lon="12.130117391192176"><ele>365.0</ele><time>2026-04-19T11:11:05Z</time></trkpt><trkpt lat="43.922039596178095" lon="12.130178644253368"><ele>363.66666666666663</ele><time>2026-04-19T11:11:09Z</time></trkpt><trkpt lat="43.92197025726391" lon="12.130241670685887"><ele>362.3333333333333</ele><time>2026-04-19T11:11:12Z</time></trkpt><trkpt lat="43.921910098654" lon="12.130277823776266"><ele>361.0</ele><time>2026-04-19T11:11:14Z</time></trkpt><trkpt lat="43.92182678054073" lon="12.13032974203167"><ele>361.0</ele><time>2026-04-19T11:11:17.001Z</time></trkpt><trkpt lat="43.92176326420665" lon="12.130388865213042"><ele>361.0</ele><time>2026-04-19T11:11:19.001Z</time></trkpt><trkpt lat="43.92170533878144" lon="12.130465268498051"><ele>361.0</ele><time>2026-04-19T11:11:22.001Z</time></trkpt><trkpt lat="43.921648973833655" lon="12.13053445997739"><ele>361.0</ele><time>2026-04-19T11:11:25.001Z</time></trkpt><trkpt lat="43.921561730765035" lon="12.130643540450158"><ele>361.0</ele><time>2026-04-19T11:11:28.001Z</time></trkpt><trkpt lat="43.92148712193985" lon="12.130697887433778"><ele>361.0</ele><time>2026-04-19T11:11:31Z</time></trkpt><trkpt lat="43.92143296385619" lon="12.13076071672439"><ele>356.0</ele><time>2026-04-19T11:11:33.001Z</time></trkpt><trkpt lat="43.92137137732315" lon="12.130842170621747"><ele>351.0</ele><time>2026-04-19T11:11:36.001Z</time></trkpt><trkpt lat="43.92129802437508" lon="12.130923987533434"><ele>346.0</ele><time>2026-04-19T11:11:39.001Z</time></trkpt><trkpt lat="43.92126859928482" lon="12.131008679333572"><ele>341.0</ele><time>2026-04-19T11:11:42.001Z</time></trkpt><trkpt lat="43.92122146343196" lon="12.131090152249785"><ele>336.0</ele><time>2026-04-19T11:11:45.001Z</time></trkpt><trkpt lat="43.92114922708792" lon="12.131139034136075"><ele>331.0</ele><time>2026-04-19T11:11:47.001Z</time></trkpt><trkpt lat="43.9210856287193" lon="12.13122000226846"><ele>331.0</ele><time>2026-04-19T11:11:51.001Z</time></trkpt><trkpt lat="43.92103153626816" lon="12.131292722720364"><ele>331.0</ele><time>2026-04-19T11:11:55.001Z</time></trkpt><trkpt lat="43.92097979797688" lon="12.131350107545767"><ele>331.0</ele><time>2026-04-19T11:11:57.001Z</time></trkpt><trkpt lat="43.92091694985107" lon="12.131434626921438"><ele>331.0</ele><time>2026-04-19T11:12:00.001Z</time></trkpt><trkpt lat="43.92086417848044" lon="12.131517076196188"><ele>331.0</ele><time>2026-04-19T11:12:03.001Z</time></trkpt><trkpt lat="43.92079686568897" lon="12.131565003895515"><ele>331.0</ele><time>2026-04-19T11:12:06.001Z</time></trkpt><trkpt lat="43.92072960803379" lon="12.131667309990751"><ele>325.16666666666663</ele><time>2026-04-19T11:12:08.001Z</time></trkpt><trkpt lat="43.92066677464114" lon="12.131764175268897"><ele>319.3333333333333</ele><time>2026-04-19T11:12:09.001Z</time></trkpt><trkpt lat="43.92059158177668" lon="12.131861498405971"><ele>313.5</ele><time>2026-04-19T11:12:10.001Z</time></trkpt><trkpt lat="43.92053925745508" lon="12.131940682694543"><ele>307.6666666666667</ele><time>2026-04-19T11:12:11.001Z</time></trkpt><trkpt lat="43.92048560764581" lon="12.132017738639398"><ele>301.83333333333337</ele><time>2026-04-19T11:12:12.001Z</time></trkpt><trkpt lat="43.92043276797487" lon="12.132088242788049"><ele>296.0</ele><time>2026-04-19T11:12:13.001Z</time></trkpt><trkpt lat="43.92037830190071" lon="12.132153848642028"><ele>296.0</ele><time>2026-04-19T11:12:14.001Z</time></trkpt><trkpt lat="43.92031796900607" lon="12.132224542166721"><ele>296.0</ele><time>2026-04-19T11:12:15.001Z</time></trkpt><trkpt lat="43.92025423434362" lon="12.132294011841283"><ele>296.0</ele><time>2026-04-19T11:12:16.001Z</time></trkpt><trkpt lat="43.92018994862358" lon="12.132358328857762"><ele>296.0</ele><time>2026-04-19T11:12:17.001Z</time></trkpt><trkpt lat="43.920125435962916" lon="12.132424552229923"><ele>296.0</ele><time>2026-04-19T11:12:18.001Z</time></trkpt><trkpt lat="43.920062892513506" lon="12.132485266709093"><ele>296.0</ele><time>2026-04-19T11:12:19.001Z</time></trkpt><trkpt lat="43.9200121620903" lon="12.132543509601035"><ele>296.0</ele><time>2026-04-19T11:12:20.001Z</time></trkpt><trkpt lat="43.919947612821325" lon="12.13263834635599"><ele>296.0</ele><time>2026-04-19T11:12:22.001Z</time></trkpt><trkpt lat="43.92002321014958" lon="12.132505708747368"><ele>296.0</ele><time>2026-04-19T11:13:41.001Z</time></trkpt><trkpt lat="43.920076360532875" lon="12.132452034916943"><ele>296.0</ele><time>2026-04-19T11:13:42.001Z</time></trkpt><trkpt lat="43.920162594075016" lon="12.132344089081236"><ele>296.0</ele><time>2026-04-19T11:13:44.001Z</time></trkpt><trkpt lat="43.92022739363023" lon="12.132287416459747"><ele>296.0</ele><time>2026-04-19T11:13:45.001Z</time></trkpt><trkpt lat="43.92031400310192" lon="12.132246260259523"><ele>296.0</ele><time>2026-04-19T11:13:46.001Z</time></trkpt><trkpt lat="43.92037505713946" lon="12.132186154092151"><ele>296.0</ele><time>2026-04-19T11:13:47.001Z</time></trkpt><trkpt lat="43.92043896692117" lon="12.132125678010725"><ele>296.0</ele><time>2026-04-19T11:13:48.001Z</time></trkpt><trkpt lat="43.92051547071552" lon="12.1320506228639"><ele>296.0</ele><time>2026-04-19T11:13:49.001Z</time></trkpt><trkpt lat="43.92059839704973" lon="12.131969038249375"><ele>296.0</ele><time>2026-04-19T11:13:50.001Z</time></trkpt><trkpt lat="43.920664440359374" lon="12.13190578444735"><ele>296.0</ele><time>2026-04-19T11:13:51.001Z</time></trkpt><trkpt lat="43.92069845459078" lon="12.131817340369489"><ele>296.0</ele><time>2026-04-19T11:13:52.001Z</time></trkpt><trkpt lat="43.92077126981413" lon="12.13173713665724"><ele>296.0</ele><time>2026-04-19T11:13:54.001Z</time></trkpt><trkpt lat="43.92086241967325" lon="12.131746628539647"><ele>296.0</ele><time>2026-04-19T11:13:56.001Z</time></trkpt><trkpt lat="43.92079422831844" lon="12.13204476309446"><ele>296.0</ele><time>2026-04-19T11:14:01.001Z</time></trkpt><trkpt lat="43.9207833187847" lon="12.132194234667631"><ele>296.0</ele><time>2026-04-19T11:14:03.001Z</time></trkpt><trkpt lat="43.92083717189636" lon="12.13225002438054"><ele>296.0</ele><time>2026-04-19T11:14:04.001Z</time></trkpt><trkpt lat="43.92091179068808" lon="12.132287227815421"><ele>296.0</ele><time>2026-04-19T11:14:05.001Z</time></trkpt><trkpt lat="43.92086308848138" lon="12.13238799360051"><ele>296.0</ele><time>2026-04-19T11:14:07.001Z</time></trkpt><trkpt lat="43.92080589832953" lon="12.132455113605593"><ele>296.0</ele><time>2026-04-19T11:14:08.001Z</time></trkpt><trkpt lat="43.920751825351395" lon="12.132509222915292"><ele>293.2</ele><time>2026-04-19T11:14:09.001Z</time></trkpt><trkpt lat="43.920700261161564" lon="12.132598714919302"><ele>290.40000000000003</ele><time>2026-04-19T11:14:11.001Z</time></trkpt><trkpt lat="43.920799716714555" lon="12.13266282514677"><ele>287.6</ele><time>2026-04-19T11:14:13.001Z</time></trkpt><trkpt lat="43.920761877332716" lon="12.132756551060755"><ele>284.8</ele><time>2026-04-19T11:14:16.001Z</time></trkpt><trkpt lat="43.920681570886636" lon="12.132856506371319"><ele>282.0</ele><time>2026-04-19T11:14:18.001Z</time></trkpt><trkpt lat="43.920660689617684" lon="12.132958616605752"><ele>282.0</ele><time>2026-04-19T11:14:19.001Z</time></trkpt><trkpt lat="43.9206224100529" lon="12.133064654168399"><ele>282.0</ele><time>2026-04-19T11:14:20.001Z</time></trkpt><trkpt lat="43.920572921261105" lon="12.133150365224019"><ele>282.0</ele><time>2026-04-19T11:14:21.001Z</time></trkpt><trkpt lat="43.920531282237796" lon="12.133218498370384"><ele>282.0</ele><time>2026-04-19T11:14:22.001Z</time></trkpt><trkpt lat="43.92046701114518" lon="12.13333575536394"><ele>282.0</ele><time>2026-04-19T11:14:24.001Z</time></trkpt><trkpt lat="43.920403589777116" lon="12.133415754711306"><ele>282.0</ele><time>2026-04-19T11:14:26.001Z</time></trkpt><trkpt lat="43.92043615790372" lon="12.133496029366468"><ele>279.6</ele><time>2026-04-19T11:14:30.001Z</time></trkpt><trkpt lat="43.920489184232764" lon="12.133616627133927"><ele>277.2</ele><time>2026-04-19T11:14:33.001Z</time></trkpt><trkpt lat="43.92048797352975" lon="12.133739521681004"><ele>274.8</ele><time>2026-04-19T11:14:36.001Z</time></trkpt><trkpt lat="43.920457456726744" lon="12.133955240377084"><ele>272.4</ele><time>2026-04-19T11:14:37.001Z</time></trkpt><trkpt lat="43.920417846868126" lon="12.134023564665506"><ele>270.0</ele><time>2026-04-19T11:14:38.001Z</time></trkpt><trkpt lat="43.92038778965407" lon="12.134197231470042"><ele>270.0</ele><time>2026-04-19T11:14:40.001Z</time></trkpt><trkpt lat="43.92040242972163" lon="12.134309494378222"><ele>270.0</ele><time>2026-04-19T11:14:41.001Z</time></trkpt><trkpt lat="43.92041708712131" lon="12.134427828078678"><ele>270.0</ele><time>2026-04-19T11:14:42.001Z</time></trkpt><trkpt lat="43.92045108632468" lon="12.134572328579969"><ele>270.0</ele><time>2026-04-19T11:14:43.001Z</time></trkpt><trkpt lat="43.92050372742706" lon="12.134755528864689"><ele>270.0</ele><time>2026-04-19T11:14:44.001Z</time></trkpt><trkpt lat="43.92055665850587" lon="12.134901733969606"><ele>270.6</ele><time>2026-04-19T11:14:45.001Z</time></trkpt><trkpt lat="43.920595940976185" lon="12.13503501722202"><ele>271.2</ele><time>2026-04-19T11:14:46.001Z</time></trkpt><trkpt lat="43.92062673748124" lon="12.135157836233919"><ele>271.8</ele><time>2026-04-19T11:14:47.001Z</time></trkpt><trkpt lat="43.920692591880574" lon="12.135296121987967"><ele>272.4</ele><time>2026-04-19T11:14:49.001Z</time></trkpt><trkpt lat="43.9207196085063" lon="12.135397781140405"><ele>273.0</ele><time>2026-04-19T11:14:50.001Z</time></trkpt><trkpt lat="43.92074908676981" lon="12.135504815063605"><ele>273.0</ele><time>2026-04-19T11:14:51.001Z</time></trkpt><trkpt lat="43.92076314534497" lon="12.135594142456915"><ele>273.0</ele><time>2026-04-19T11:14:52.001Z</time></trkpt><trkpt lat="43.920742312754804" lon="12.135733689429097"><ele>273.0</ele><time>2026-04-19T11:14:54.001Z</time></trkpt><trkpt lat="43.92065176514671" lon="12.135834409287304"><ele>273.0</ele><time>2026-04-19T11:14:56.001Z</time></trkpt><trkpt lat="43.92050377174974" lon="12.135798842514609"><ele>273.0</ele><time>2026-04-19T11:14:57.001Z</time></trkpt><trkpt lat="43.92043292699616" lon="12.135874045501787"><ele>274.6666666666667</ele><time>2026-04-19T11:14:58.001Z</time></trkpt><trkpt lat="43.92036698125593" lon="12.135983921415397"><ele>276.3333333333333</ele><time>2026-04-19T11:14:59.001Z</time></trkpt><trkpt lat="43.920299783410435" lon="12.136055685596979"><ele>278.0</ele><time>2026-04-19T11:15:00.001Z</time></trkpt><trkpt lat="43.92021888864579" lon="12.136121395105265"><ele>279.66666666666663</ele><time>2026-04-19T11:15:01.001Z</time></trkpt><trkpt lat="43.920164369307706" lon="12.136197641626437"><ele>281.3333333333333</ele><time>2026-04-19T11:15:02.001Z</time></trkpt><trkpt lat="43.92012361737212" lon="12.136275158701826"><ele>283.0</ele><time>2026-04-19T11:15:03.001Z</time></trkpt><trkpt lat="43.92008524500598" lon="12.136367187436687"><ele>284.5</ele><time>2026-04-19T11:15:04.001Z</time></trkpt><trkpt lat="43.92004939184458" lon="12.136477619138873"><ele>286.0</ele><time>2026-04-19T11:15:05.001Z</time></trkpt><trkpt lat="43.92002952410533" lon="12.136595643011354"><ele>287.5</ele><time>2026-04-19T11:15:06.001Z</time></trkpt><trkpt lat="43.92004685485392" lon="12.136704290659193"><ele>289.0</ele><time>2026-04-19T11:15:07.001Z</time></trkpt><trkpt lat="43.9200997711678" lon="12.136760087268497"><ele>290.5</ele><time>2026-04-19T11:15:08.001Z</time></trkpt><trkpt lat="43.92020031756544" lon="12.136822329630231"><ele>292.0</ele><time>2026-04-19T11:15:09.001Z</time></trkpt><trkpt lat="43.920316437659054" lon="12.13684550578749"><ele>292.0</ele><time>2026-04-19T11:15:10.001Z</time></trkpt><trkpt lat="43.92043802040908" lon="12.1368670763412"><ele>292.0</ele><time>2026-04-19T11:15:11.001Z</time></trkpt><trkpt lat="43.92052883922781" lon="12.136948262157764"><ele>292.0</ele><time>2026-04-19T11:15:12.001Z</time></trkpt><trkpt lat="43.9205862804943" lon="12.13706198932757"><ele>292.0</ele><time>2026-04-19T11:15:13.001Z</time></trkpt><trkpt lat="43.92062748665236" lon="12.137131203897312"><ele>292.0</ele><time>2026-04-19T11:15:14.001Z</time></trkpt><trkpt lat="43.920714628544715" lon="12.137167400019692"><ele>292.0</ele><time>2026-04-19T11:15:15.001Z</time></trkpt><trkpt lat="43.920814080135486" lon="12.137161806859352"><ele>292.0</ele><time>2026-04-19T11:15:16.001Z</time></trkpt><trkpt lat="43.92088433839452" lon="12.137227800982313"><ele>292.0</ele><time>2026-04-19T11:15:17.001Z</time></trkpt><trkpt lat="43.92090322284798" lon="12.137330697975944"><ele>292.0</ele><time>2026-04-19T11:15:18.001Z</time></trkpt><trkpt lat="43.92090515423101" lon="12.137473174826006"><ele>292.0</ele><time>2026-04-19T11:15:19.001Z</time></trkpt><trkpt lat="43.92095676508537" lon="12.137559392019371"><ele>292.0</ele><time>2026-04-19T11:15:20.001Z</time></trkpt><trkpt lat="43.92101552981846" lon="12.137607062673665"><ele>294.0</ele><time>2026-04-19T11:15:21.001Z</time></trkpt><trkpt lat="43.92108393810289" lon="12.137643723716275"><ele>296.0</ele><time>2026-04-19T11:15:22.001Z</time></trkpt><trkpt lat="43.921123769353386" lon="12.137774831649896"><ele>298.0</ele><time>2026-04-19T11:15:24.001Z</time></trkpt><trkpt lat="43.92106725368936" lon="12.137880165062889"><ele>300.0</ele><time>2026-04-19T11:15:26.001Z</time></trkpt><trkpt lat="43.92099353318983" lon="12.138005221345601"><ele>302.0</ele><time>2026-04-19T11:15:28.001Z</time></trkpt><trkpt lat="43.920875715551446" lon="12.138013621751794"><ele>297.4</ele><time>2026-04-19T11:15:30.001Z</time></trkpt><trkpt lat="43.92078553953604" lon="12.137971960315305"><ele>292.79999999999995</ele><time>2026-04-19T11:15:31Z</time></trkpt><trkpt lat="43.92071536843426" lon="12.137951605954067"><ele>288.2</ele><time>2026-04-19T11:15:32Z</time></trkpt><trkpt lat="43.92062381716278" lon="12.137985110836732"><ele>283.59999999999997</ele><time>2026-04-19T11:15:33Z</time></trkpt><trkpt lat="43.92052388908277" lon="12.138045606517945"><ele>279.0</ele><time>2026-04-19T11:15:34Z</time></trkpt><trkpt lat="43.92042460137792" lon="12.13810236443073"><ele>279.0</ele><time>2026-04-19T11:15:35Z</time></trkpt><trkpt lat="43.92032252005689" lon="12.138174682647842"><ele>279.0</ele><time>2026-04-19T11:15:36Z</time></trkpt><trkpt lat="43.92023817542192" lon="12.13823957191509"><ele>279.0</ele><time>2026-04-19T11:15:37Z</time></trkpt><trkpt lat="43.92016228913578" lon="12.138331383835107"><ele>279.0</ele><time>2026-04-19T11:15:38Z</time></trkpt><trkpt lat="43.920133338938555" lon="12.13847646551485"><ele>279.0</ele><time>2026-04-19T11:15:39Z</time></trkpt><trkpt lat="43.920083324261334" lon="12.13862868953838"><ele>279.0</ele><time>2026-04-19T11:15:40Z</time></trkpt><trkpt lat="43.920025863702854" lon="12.138768375362762"><ele>279.0</ele><time>2026-04-19T11:15:41Z</time></trkpt><trkpt lat="43.919972819393884" lon="12.138885623028726"><ele>279.0</ele><time>2026-04-19T11:15:42Z</time></trkpt><trkpt lat="43.91992406554848" lon="12.138976701704781"><ele>279.0</ele><time>2026-04-19T11:15:43Z</time></trkpt><trkpt lat="43.91993994680347" lon="12.139136375645245"><ele>279.0</ele><time>2026-04-19T11:15:45Z</time></trkpt><trkpt lat="43.91998375688872" lon="12.139201571226188"><ele>279.0</ele><time>2026-04-19T11:15:46Z</time></trkpt><trkpt lat="43.92004827313205" lon="12.13924212949364"><ele>279.0</ele><time>2026-04-19T11:15:47Z</time></trkpt><trkpt lat="43.92012739857412" lon="12.139320564639041"><ele>279.0</ele><time>2026-04-19T11:15:48Z</time></trkpt><trkpt lat="43.92019292791243" lon="12.139378435124813"><ele>279.0</ele><time>2026-04-19T11:15:49Z</time></trkpt><trkpt lat="43.920232175557" lon="12.139461360057705"><ele>279.0</ele><time>2026-04-19T11:15:50Z</time></trkpt><trkpt lat="43.920267698501384" lon="12.139566886886172"><ele>279.0</ele><time>2026-04-19T11:15:51Z</time></trkpt><trkpt lat="43.920272230553365" lon="12.139700054935544"><ele>278.6666666666667</ele><time>2026-04-19T11:15:53Z</time></trkpt><trkpt lat="43.920218131728525" lon="12.139750772598664"><ele>278.3333333333333</ele><time>2026-04-19T11:15:56Z</time></trkpt><trkpt lat="43.92015254931543" lon="12.139796192912076"><ele>278.0</ele><time>2026-04-19T11:15:58Z</time></trkpt><trkpt lat="43.9201186921478" lon="12.139922509364707"><ele>277.66666666666663</ele><time>2026-04-19T11:16:00Z</time></trkpt><trkpt lat="43.92013277806595" lon="12.140066628965508"><ele>277.3333333333333</ele><time>2026-04-19T11:16:02Z</time></trkpt><trkpt lat="43.920064846021916" lon="12.140167634698576"><ele>277.0</ele><time>2026-04-19T11:16:04Z</time></trkpt><trkpt lat="43.9199992581822" lon="12.140191061038387"><ele>277.0</ele><time>2026-04-19T11:16:05Z</time></trkpt><trkpt lat="43.9199280164063" lon="12.140225722890953"><ele>277.0</ele><time>2026-04-19T11:16:06Z</time></trkpt><trkpt lat="43.91981372245394" lon="12.140297881314227"><ele>277.0</ele><time>2026-04-19T11:16:07Z</time></trkpt><trkpt lat="43.919751726431045" lon="12.140363572428075"><ele>277.0</ele><time>2026-04-19T11:16:08Z</time></trkpt><trkpt lat="43.91968264357419" lon="12.140448421090033"><ele>277.0</ele><time>2026-04-19T11:16:09Z</time></trkpt><trkpt lat="43.91961797139366" lon="12.140527687291543"><ele>277.0</ele><time>2026-04-19T11:16:10Z</time></trkpt><trkpt lat="43.919547066166906" lon="12.140586114264144"><ele>277.0</ele><time>2026-04-19T11:16:11Z</time></trkpt><trkpt lat="43.919480285330565" lon="12.14063008799732"><ele>277.0</ele><time>2026-04-19T11:16:12Z</time></trkpt><trkpt lat="43.91940101370437" lon="12.140653903664273"><ele>277.0</ele><time>2026-04-19T11:16:13Z</time></trkpt><trkpt lat="43.91930406608507" lon="12.140718442304863"><ele>277.0</ele><time>2026-04-19T11:16:14Z</time></trkpt><trkpt lat="43.919204523374944" lon="12.140789672101782"><ele>271.75</ele><time>2026-04-19T11:16:15Z</time></trkpt><trkpt lat="43.91911084395642" lon="12.140916371907284"><ele>266.5</ele><time>2026-04-19T11:16:16Z</time></trkpt><trkpt lat="43.918977863407214" lon="12.140941221353389"><ele>261.25</ele><time>2026-04-19T11:16:17Z</time></trkpt><trkpt lat="43.91887704656049" lon="12.141007960771486"><ele>256.0</ele><time>2026-04-19T11:16:18Z</time></trkpt><trkpt lat="43.918775095891384" lon="12.141064355413377"><ele>256.0</ele><time>2026-04-19T11:16:19Z</time></trkpt><trkpt lat="43.918674808529936" lon="12.141127745594982"><ele>256.0</ele><time>2026-04-19T11:16:20Z</time></trkpt><trkpt lat="43.91858739883702" lon="12.141185711614817"><ele>256.0</ele><time>2026-04-19T11:16:21Z</time></trkpt><trkpt lat="43.91851676235731" lon="12.1412330733829"><ele>256.0</ele><time>2026-04-19T11:16:22Z</time></trkpt><trkpt lat="43.91841847583394" lon="12.141244335463776"><ele>256.0</ele><time>2026-04-19T11:16:24Z</time></trkpt><trkpt lat="43.91835395447768" lon="12.141112511186115"><ele>254.49999999999997</ele><time>2026-04-19T11:16:26Z</time></trkpt><trkpt lat="43.91834080980477" lon="12.140985801442671"><ele>253.0</ele><time>2026-04-19T11:16:27Z</time></trkpt><trkpt lat="43.918307311028094" lon="12.140863478758185"><ele>251.5</ele><time>2026-04-19T11:16:28Z</time></trkpt><trkpt lat="43.91828243152531" lon="12.140763709542332"><ele>250.0</ele><time>2026-04-19T11:16:29Z</time></trkpt><trkpt lat="43.918212087367756" lon="12.140660127417508"><ele>248.49999999999997</ele><time>2026-04-19T11:16:31Z</time></trkpt><trkpt lat="43.918137218146555" lon="12.140705955665682"><ele>247.0</ele><time>2026-04-19T11:16:32Z</time></trkpt><trkpt lat="43.91805400614203" lon="12.140829459478224"><ele>247.0</ele><time>2026-04-19T11:16:33Z</time></trkpt><trkpt lat="43.917941753094105" lon="12.140915401881845"><ele>247.0</ele><time>2026-04-19T11:16:34Z</time></trkpt><trkpt lat="43.91784226486008" lon="12.140982810099494"><ele>247.0</ele><time>2026-04-19T11:16:35Z</time></trkpt><trkpt lat="43.91775491859333" lon="12.141046958939967"><ele>247.0</ele><time>2026-04-19T11:16:36Z</time></trkpt><trkpt lat="43.917673980847226" lon="12.141110199574044"><ele>247.0</ele><time>2026-04-19T11:16:37Z</time></trkpt><trkpt lat="43.91759588225214" lon="12.14117888089203"><ele>244.8</ele><time>2026-04-19T11:16:38Z</time></trkpt><trkpt lat="43.91752663691215" lon="12.14125302533978"><ele>242.6</ele><time>2026-04-19T11:16:39Z</time></trkpt><trkpt lat="43.917487676473165" lon="12.141358118191857"><ele>240.40000000000003</ele><time>2026-04-19T11:16:40Z</time></trkpt><trkpt lat="43.91747814614702" lon="12.14148743265579"><ele>238.20000000000002</ele><time>2026-04-19T11:16:41Z</time></trkpt><trkpt lat="43.917471082523285" lon="12.141622798824057"><ele>236.0</ele><time>2026-04-19T11:16:42Z</time></trkpt><trkpt lat="43.91747377896848" lon="12.141751036579837"><ele>236.0</ele><time>2026-04-19T11:16:43Z</time></trkpt><trkpt lat="43.91749178089748" lon="12.141883297049313"><ele>236.00000000000003</ele><time>2026-04-19T11:16:44Z</time></trkpt><trkpt lat="43.91749937265639" lon="12.142020630239614"><ele>236.00000000000003</ele><time>2026-04-19T11:16:45Z</time></trkpt><trkpt lat="43.91750551009816" lon="12.142168677408948"><ele>236.0</ele><time>2026-04-19T11:16:46Z</time></trkpt><trkpt lat="43.91751813941258" lon="12.142312571350551"><ele>236.0</ele><time>2026-04-19T11:16:47Z</time></trkpt><trkpt lat="43.917534918339975" lon="12.142451941159054"><ele>236.4</ele><time>2026-04-19T11:16:48Z</time></trkpt><trkpt lat="43.917556194291876" lon="12.142598719846543"><ele>236.8</ele><time>2026-04-19T11:16:49Z</time></trkpt><trkpt lat="43.91757988904748" lon="12.142737535780917"><ele>237.20000000000002</ele><time>2026-04-19T11:16:50Z</time></trkpt><trkpt lat="43.917602489515396" lon="12.14286172129503"><ele>237.60000000000002</ele><time>2026-04-19T11:16:51Z</time></trkpt><trkpt lat="43.917615344594026" lon="12.142960272921632"><ele>238.0</ele><time>2026-04-19T11:16:52Z</time></trkpt><trkpt lat="43.91761083616935" lon="12.143080494324511"><ele>238.0</ele><time>2026-04-19T11:16:54Z</time></trkpt><trkpt lat="43.91751510985073" lon="12.14308328007076"><ele>238.0</ele><time>2026-04-19T11:16:59Z</time></trkpt><trkpt lat="43.91742882040577" lon="12.142942612413316"><ele>238.0</ele><time>2026-04-19T11:17:01Z</time></trkpt><trkpt lat="43.91738435250704" lon="12.142786985535515"><ele>238.0</ele><time>2026-04-19T11:17:02Z</time></trkpt><trkpt lat="43.91736229224161" lon="12.142627463142018"><ele>238.0</ele><time>2026-04-19T11:17:03Z</time></trkpt><trkpt lat="43.91731430183817" lon="12.142469217771314"><ele>238.0</ele><time>2026-04-19T11:17:04Z</time></trkpt><trkpt lat="43.9172837743655" lon="12.142295318916823"><ele>238.0</ele><time>2026-04-19T11:17:05Z</time></trkpt><trkpt lat="43.917275583119334" lon="12.14210934550396"><ele>238.0</ele><time>2026-04-19T11:17:06Z</time></trkpt><trkpt lat="43.91728759571262" lon="12.141918703501949"><ele>237.5</ele><time>2026-04-19T11:17:07Z</time></trkpt><trkpt lat="43.91731398718685" lon="12.14172781685175"><ele>237.0</ele><time>2026-04-19T11:17:08Z</time></trkpt><trkpt lat="43.91733479891297" lon="12.14154245896882"><ele>236.5</ele><time>2026-04-19T11:17:09Z</time></trkpt><trkpt lat="43.917336402255195" lon="12.141366795674664"><ele>236.0</ele><time>2026-04-19T11:17:10Z</time></trkpt><trkpt lat="43.9173104950164" lon="12.141195429759472"><ele>234.5</ele><time>2026-04-19T11:17:11Z</time></trkpt><trkpt lat="43.917275715178974" lon="12.141030608148203"><ele>233.0</ele><time>2026-04-19T11:17:12Z</time></trkpt><trkpt lat="43.917219211882696" lon="12.1408689712951"><ele>231.5</ele><time>2026-04-19T11:17:13Z</time></trkpt><trkpt lat="43.91713493471912" lon="12.140709358826722"><ele>230.0</ele><time>2026-04-19T11:17:14Z</time></trkpt><trkpt lat="43.9170489618502" lon="12.140559669030571"><ele>226.5</ele><time>2026-04-19T11:17:15Z</time></trkpt><trkpt lat="43.91695954878154" lon="12.140422307685776"><ele>223.0</ele><time>2026-04-19T11:17:16Z</time></trkpt><trkpt lat="43.91686750527907" lon="12.14028540627868"><ele>219.5</ele><time>2026-04-19T11:17:17Z</time></trkpt><trkpt lat="43.91677419466119" lon="12.140141396498723"><ele>216.0</ele><time>2026-04-19T11:17:18Z</time></trkpt><trkpt lat="43.91668212188533" lon="12.139995952591418"><ele>219.20000000000002</ele><time>2026-04-19T11:17:19Z</time></trkpt><trkpt lat="43.91659891969352" lon="12.139858796470266"><ele>222.40000000000003</ele><time>2026-04-19T11:17:20Z</time></trkpt><trkpt lat="43.916529094991866" lon="12.139740051504774"><ele>225.6</ele><time>2026-04-19T11:17:21Z</time></trkpt><trkpt lat="43.91647205307231" lon="12.139652869161091"><ele>228.8</ele><time>2026-04-19T11:17:22Z</time></trkpt><trkpt lat="43.916431411327" lon="12.139580954091384"><ele>232.0</ele><time>2026-04-19T11:17:23Z</time></trkpt><trkpt lat="43.91640994960575" lon="12.139486582371356"><ele>231.99999999999997</ele><time>2026-04-19T11:17:25Z</time></trkpt><trkpt lat="43.916504560671264" lon="12.139494270132936"><ele>232.0</ele><time>2026-04-19T11:17:27Z</time></trkpt><trkpt lat="43.916567581720805" lon="12.139485985449369"><ele>232.0</ele><time>2026-04-19T11:17:30Z</time></trkpt><trkpt lat="43.91650489058784" lon="12.13935394977321"><ele>232.0</ele><time>2026-04-19T11:17:56Z</time></trkpt><trkpt lat="43.91644406500169" lon="12.139317805492498"><ele>231.99999999999997</ele><time>2026-04-19T11:18:01Z</time></trkpt><trkpt lat="43.916439594122146" lon="12.139226149071334"><ele>232.0</ele><time>2026-04-19T11:18:05Z</time></trkpt><trkpt lat="43.91649526991582" lon="12.13916016028081"><ele>231.99999999999997</ele><time>2026-04-19T11:18:07Z</time></trkpt><trkpt lat="43.916540284389974" lon="12.139088089662286"><ele>232.0</ele><time>2026-04-19T11:18:09Z</time></trkpt><trkpt lat="43.916475756453444" lon="12.139024973063403"><ele>232.0</ele><time>2026-04-19T11:18:14Z</time></trkpt><trkpt lat="43.91639592552057" lon="12.138998049443707"><ele>232.0</ele><time>2026-04-19T11:18:16Z</time></trkpt><trkpt lat="43.91642827284211" lon="12.138899285742065"><ele>231.99999999999997</ele><time>2026-04-19T11:18:22Z</time></trkpt><trkpt lat="43.916485127503094" lon="12.138856361924223"><ele>232.0</ele><time>2026-04-19T11:18:23Z</time></trkpt><trkpt lat="43.91657579590547" lon="12.138814282990667"><ele>234.6</ele><time>2026-04-19T11:18:25Z</time></trkpt><trkpt lat="43.91650147695271" lon="12.138788184706879"><ele>237.2</ele><time>2026-04-19T11:19:04Z</time></trkpt><trkpt lat="43.91640562755612" lon="12.138745780913776"><ele>239.8</ele><time>2026-04-19T11:19:06Z</time></trkpt><trkpt lat="43.91632479291543" lon="12.138645408737545"><ele>242.4</ele><time>2026-04-19T11:19:08Z</time></trkpt><trkpt lat="43.91636119205244" lon="12.138477888506182"><ele>245.0</ele><time>2026-04-19T11:19:10Z</time></trkpt><trkpt lat="43.916407150634996" lon="12.138390052508564"><ele>245.0</ele><time>2026-04-19T11:19:11Z</time></trkpt><trkpt lat="43.91649699474047" lon="12.138317227239332"><ele>245.0</ele><time>2026-04-19T11:19:12Z</time></trkpt><trkpt lat="43.916545945091855" lon="12.13819221014843"><ele>245.0</ele><time>2026-04-19T11:19:13Z</time></trkpt><trkpt lat="43.916598797452636" lon="12.138058681522343"><ele>245.0</ele><time>2026-04-19T11:19:14Z</time></trkpt><trkpt lat="43.9166494719771" lon="12.137905555901211"><ele>245.0</ele><time>2026-04-19T11:19:15Z</time></trkpt><trkpt lat="43.91669200168578" lon="12.137727797257142"><ele>245.75</ele><time>2026-04-19T11:19:16Z</time></trkpt><trkpt lat="43.91667761690019" lon="12.137513587684467"><ele>246.5</ele><time>2026-04-19T11:19:17Z</time></trkpt><trkpt lat="43.916730507236274" lon="12.137366921837584"><ele>247.25</ele><time>2026-04-19T11:19:18Z</time></trkpt><trkpt lat="43.916869299018316" lon="12.1373156453778"><ele>248.0</ele><time>2026-04-19T11:19:19Z</time></trkpt><trkpt lat="43.91699709091914" lon="12.137139519243636"><ele>255.0</ele><time>2026-04-19T11:19:20Z</time></trkpt><trkpt lat="43.91712706787675" lon="12.136919995073491"><ele>262.0</ele><time>2026-04-19T11:19:21Z</time></trkpt><trkpt lat="43.91724133841294" lon="12.136691054949562"><ele>269.0</ele><time>2026-04-19T11:19:22Z</time></trkpt><trkpt lat="43.917300788363995" lon="12.136509452239068"><ele>269.0</ele><time>2026-04-19T11:19:23Z</time></trkpt><trkpt lat="43.91733840842546" lon="12.136378106564681"><ele>269.0</ele><time>2026-04-19T11:19:24Z</time></trkpt><trkpt lat="43.91736346695121" lon="12.136273044727899"><ele>269.0</ele><time>2026-04-19T11:19:25Z</time></trkpt><trkpt lat="43.91737675669602" lon="12.13638295041038"><ele>269.0</ele><time>2026-04-19T11:19:29Z</time></trkpt><trkpt lat="43.91734310627099" lon="12.136478696303206"><ele>269.0</ele><time>2026-04-19T11:19:30Z</time></trkpt><trkpt lat="43.91730586311282" lon="12.136608638838677"><ele>269.0</ele><time>2026-04-19T11:19:31Z</time></trkpt><trkpt lat="43.917259728478285" lon="12.136744493915831"><ele>269.0</ele><time>2026-04-19T11:19:32Z</time></trkpt><trkpt lat="43.91720957599581" lon="12.136891093044401"><ele>269.0</ele><time>2026-04-19T11:19:33Z</time></trkpt><trkpt lat="43.917151019944576" lon="12.137019667673604"><ele>269.0</ele><time>2026-04-19T11:19:34Z</time></trkpt><trkpt lat="43.917093485242354" lon="12.137156249330872"><ele>269.0</ele><time>2026-04-19T11:19:35Z</time></trkpt><trkpt lat="43.917031425377935" lon="12.137250729710464"><ele>269.0</ele><time>2026-04-19T11:19:36Z</time></trkpt><trkpt lat="43.91698575144008" lon="12.13732200024386"><ele>269.0</ele><time>2026-04-19T11:19:37Z</time></trkpt><trkpt lat="43.91695152908301" lon="12.137402865947127"><ele>261.0</ele><time>2026-04-19T11:19:39Z</time></trkpt><trkpt lat="43.91698623242631" lon="12.137500820292374"><ele>261.0</ele><time>2026-04-19T11:19:41Z</time></trkpt><trkpt lat="43.91697912141225" lon="12.137409107432806"><ele>261.0</ele><time>2026-04-19T11:19:58Z</time></trkpt><trkpt lat="43.91702548115063" lon="12.13733341651858"><ele>269.0</ele><time>2026-04-19T11:20:23Z</time></trkpt><trkpt lat="43.917072973332324" lon="12.137249019319416"><ele>269.0</ele><time>2026-04-19T11:20:28.047Z</time></trkpt></trkseg></trk></gpx>